<?xml version='1.0' encoding='UTF-8'?><gpx version="1.1" creator="JPX - https://github.com/jenetics/jpx" xmlns="http://www.topografix.com/GPX/1/1"><trk><trkseg><trkpt lat="45.53178770628404" lon="8.99108603419766"><ele>163.0</ele><time>2026-04-18T07:47:59.999Z</time></trkpt><trkpt lat="45.53181492264581" lon="8.99119240034947"><ele>163.0</ele><time>2026-04-18T07:52:52Z</time></trkpt><trkpt lat="45.53185693939039" lon="8.99130946564439"><ele>163.0</ele><time>2026-04-18T07:52:55Z</time></trkpt><trkpt lat="45.53180401728209" lon="8.991421204666235"><ele>163.0</ele><time>2026-04-18T07:52:59Z</time></trkpt><trkpt lat="45.53173505207989" lon="8.991481634659493"><ele>163.0</ele><time>2026-04-18T07:53:01Z</time></trkpt><trkpt lat="45.531658909147176" lon="8.991539324532932"><ele>163.0</ele><time>2026-04-18T07:53:03Z</time></trkpt><trkpt lat="45.531582899874614" lon="8.991595033716578"><ele>163.2</ele><time>2026-04-18T07:53:05Z</time></trkpt><trkpt lat="45.5315625570489" lon="8.99169280229993"><ele>163.4</ele><time>2026-04-18T07:53:08Z</time></trkpt><trkpt lat="45.53159668897264" lon="8.991802836671694"><ele>163.6</ele><time>2026-04-18T07:53:11Z</time></trkpt><trkpt lat="45.53164868931366" lon="8.991907264531987"><ele>163.79999999999998</ele><time>2026-04-18T07:53:42Z</time></trkpt><trkpt lat="45.531707999703706" lon="8.992026753980673"><ele>164.0</ele><time>2026-04-18T07:53:45Z</time></trkpt><trkpt lat="45.531750837841926" lon="8.992172789446434"><ele>163.99999999999997</ele><time>2026-04-18T07:53:47Z</time></trkpt><trkpt lat="45.531774839216546" lon="8.992261354625995"><ele>164.0</ele><time>2026-04-18T07:53:48Z</time></trkpt><trkpt lat="45.531782496061126" lon="8.992354375615639"><ele>164.0</ele><time>2026-04-18T07:53:49Z</time></trkpt><trkpt lat="45.5318211130117" lon="8.992457831320168"><ele>164.0</ele><time>2026-04-18T07:53:51Z</time></trkpt><trkpt lat="45.53185084290339" lon="8.992537478385081"><ele>164.0</ele><time>2026-04-18T07:53:54Z</time></trkpt><trkpt lat="45.53180968036393" lon="8.992622845596154"><ele>163.99999999999997</ele><time>2026-04-18T07:53:57Z</time></trkpt><trkpt lat="45.53174873072142" lon="8.992659243294739"><ele>164.0</ele><time>2026-04-18T07:53:58Z</time></trkpt><trkpt lat="45.53163134804733" lon="8.992741558282878"><ele>164.0</ele><time>2026-04-18T07:54:00Z</time></trkpt><trkpt lat="45.531571411331896" lon="8.992784308005314"><ele>164.0</ele><time>2026-04-18T07:54:01Z</time></trkpt><trkpt lat="45.531478584095645" lon="8.992846100874583"><ele>164.0</ele><time>2026-04-18T07:54:03Z</time></trkpt><trkpt lat="45.53139119373161" lon="8.992882460883914"><ele>164.0</ele><time>2026-04-18T07:54:05Z</time></trkpt><trkpt lat="45.531269667555236" lon="8.992839567577184"><ele>164.0</ele><time>2026-04-18T07:54:07Z</time></trkpt><trkpt lat="45.531217397687236" lon="8.992771234413256"><ele>164.0</ele><time>2026-04-18T07:54:08Z</time></trkpt><trkpt lat="45.5311768805737" lon="8.992678042288272"><ele>164.0</ele><time>2026-04-18T07:54:09Z</time></trkpt><trkpt lat="45.5311356997562" lon="8.992559823190952"><ele>164.0</ele><time>2026-04-18T07:54:10Z</time></trkpt><trkpt lat="45.53109244243658" lon="8.992452077553347"><ele>164.0</ele><time>2026-04-18T07:54:11Z</time></trkpt><trkpt lat="45.531032103540255" lon="8.992370281724819"><ele>164.0</ele><time>2026-04-18T07:54:12Z</time></trkpt><trkpt lat="45.53096325978732" lon="8.992341442557713"><ele>164.0</ele><time>2026-04-18T07:54:13Z</time></trkpt><trkpt lat="45.53088754493024" lon="8.992350297199657"><ele>164.0</ele><time>2026-04-18T07:54:14Z</time></trkpt><trkpt lat="45.5308186307784" lon="8.99240042662553"><ele>164.0</ele><time>2026-04-18T07:54:15Z</time></trkpt><trkpt lat="45.5307683477497" lon="8.992496030248267"><ele>164.0</ele><time>2026-04-18T07:54:16Z</time></trkpt><trkpt lat="45.53073249368859" lon="8.992603244902744"><ele>164.0</ele><time>2026-04-18T07:54:17Z</time></trkpt><trkpt lat="45.53070916283811" lon="8.992728627358765"><ele>164.0</ele><time>2026-04-18T07:54:18Z</time></trkpt><trkpt lat="45.530704199136885" lon="8.992859009888187"><ele>164.0</ele><time>2026-04-18T07:54:19Z</time></trkpt><trkpt lat="45.53071936746155" lon="8.993008322028341"><ele>163.6</ele><time>2026-04-18T07:54:20Z</time></trkpt><trkpt lat="45.53073622625823" lon="8.993154828636975"><ele>163.2</ele><time>2026-04-18T07:54:21Z</time></trkpt><trkpt lat="45.53075761006357" lon="8.993309586641915"><ele>162.79999999999998</ele><time>2026-04-18T07:54:22Z</time></trkpt><trkpt lat="45.530773919550626" lon="8.993472672817612"><ele>162.39999999999998</ele><time>2026-04-18T07:54:23Z</time></trkpt><trkpt lat="45.53078205084791" lon="8.993641524063092"><ele>162.0</ele><time>2026-04-18T07:54:24.001Z</time></trkpt><trkpt lat="45.53077214744115" lon="8.993809670698319"><ele>162.0</ele><time>2026-04-18T07:54:25.001Z</time></trkpt><trkpt lat="45.53075296315404" lon="8.993980502642815"><ele>162.0</ele><time>2026-04-18T07:54:26.001Z</time></trkpt><trkpt lat="45.530724738001865" lon="8.99415746496682"><ele>162.0</ele><time>2026-04-18T07:54:27.001Z</time></trkpt><trkpt lat="45.53069016050632" lon="8.994331676232743"><ele>162.0</ele><time>2026-04-18T07:54:28.001Z</time></trkpt><trkpt lat="45.53065621409631" lon="8.994511631792983"><ele>162.0</ele><time>2026-04-18T07:54:29.001Z</time></trkpt><trkpt lat="45.53062295808028" lon="8.994692681677405"><ele>162.0</ele><time>2026-04-18T07:54:30.001Z</time></trkpt><trkpt lat="45.53059038081004" lon="8.99488115366143"><ele>162.0</ele><time>2026-04-18T07:54:31.001Z</time></trkpt><trkpt lat="45.53056091382369" lon="8.995068307326266"><ele>162.0</ele><time>2026-04-18T07:54:32.001Z</time></trkpt><trkpt lat="45.530535120432376" lon="8.995263872374858"><ele>162.0</ele><time>2026-04-18T07:54:33.001Z</time></trkpt><trkpt lat="45.530516802331924" lon="8.995465193004744"><ele>162.0</ele><time>2026-04-18T07:54:34.001Z</time></trkpt><trkpt lat="45.53050324518054" lon="8.995669437570726"><ele>162.0</ele><time>2026-04-18T07:54:35.001Z</time></trkpt><trkpt lat="45.53049057390973" lon="8.995868379010851"><ele>162.0</ele><time>2026-04-18T07:54:36.001Z</time></trkpt><trkpt lat="45.53048544329217" lon="8.996066571251896"><ele>162.0</ele><time>2026-04-18T07:54:37.001Z</time></trkpt><trkpt lat="45.53048414577544" lon="8.996260858594505"><ele>162.0</ele><time>2026-04-18T07:54:38.001Z</time></trkpt><trkpt lat="45.53048866800832" lon="8.996464754078808"><ele>162.0</ele><time>2026-04-18T07:54:39.001Z</time></trkpt><trkpt lat="45.530493267967856" lon="8.996667379082828"><ele>162.0</ele><time>2026-04-18T07:54:40.001Z</time></trkpt><trkpt lat="45.53050611054507" lon="8.99687155890349"><ele>161.75</ele><time>2026-04-18T07:54:41.001Z</time></trkpt><trkpt lat="45.530522421979555" lon="8.99707904437049"><ele>161.5</ele><time>2026-04-18T07:54:42.001Z</time></trkpt><trkpt lat="45.53054524713701" lon="8.997286620546769"><ele>161.25</ele><time>2026-04-18T07:54:43.001Z</time></trkpt><trkpt lat="45.53057303799662" lon="8.997491530615035"><ele>161.0</ele><time>2026-04-18T07:54:44.001Z</time></trkpt><trkpt lat="45.53060682273841" lon="8.9977013528248"><ele>160.66666666666666</ele><time>2026-04-18T07:54:45.001Z</time></trkpt><trkpt lat="45.53064360766916" lon="8.997906417943357"><ele>160.33333333333334</ele><time>2026-04-18T07:54:46.001Z</time></trkpt><trkpt lat="45.53068313317489" lon="8.998112673848638"><ele>160.0</ele><time>2026-04-18T07:54:47.001Z</time></trkpt><trkpt lat="45.530732039431264" lon="8.998317480753748"><ele>160.0</ele><time>2026-04-18T07:54:48.001Z</time></trkpt><trkpt lat="45.530786157759785" lon="8.99852244907293"><ele>160.0</ele><time>2026-04-18T07:54:49.001Z</time></trkpt><trkpt lat="45.53084622263718" lon="8.99872352670876"><ele>160.0</ele><time>2026-04-18T07:54:50.001Z</time></trkpt><trkpt lat="45.53091035285001" lon="8.998930699077468"><ele>160.0</ele><time>2026-04-18T07:54:51.001Z</time></trkpt><trkpt lat="45.530978367493404" lon="8.99912458245431"><ele>160.0</ele><time>2026-04-18T07:54:52.001Z</time></trkpt><trkpt lat="45.53104396655113" lon="8.999304610270013"><ele>160.0</ele><time>2026-04-18T07:54:53.001Z</time></trkpt><trkpt lat="45.5311055530507" lon="8.999468670270858"><ele>160.0</ele><time>2026-04-18T07:54:54.001Z</time></trkpt><trkpt lat="45.53116545368692" lon="8.999618653533044"><ele>160.0</ele><time>2026-04-18T07:54:55.001Z</time></trkpt><trkpt lat="45.53122351183595" lon="8.999758999436569"><ele>160.0</ele><time>2026-04-18T07:54:56.001Z</time></trkpt><trkpt lat="45.53128511106231" lon="8.999892125743894"><ele>160.0</ele><time>2026-04-18T07:54:57.001Z</time></trkpt><trkpt lat="45.53135557843217" lon="9.000033544390382"><ele>160.0</ele><time>2026-04-18T07:54:58.001Z</time></trkpt><trkpt lat="45.531424758951395" lon="9.000170515154267"><ele>160.0</ele><time>2026-04-18T07:54:59.001Z</time></trkpt><trkpt lat="45.53149744713019" lon="9.0003176378386"><ele>160.0</ele><time>2026-04-18T07:55:00.001Z</time></trkpt><trkpt lat="45.53157061358222" lon="9.000469220642572"><ele>160.0</ele><time>2026-04-18T07:55:00.999Z</time></trkpt><trkpt lat="45.53164358708209" lon="9.000622117017992"><ele>160.0</ele><time>2026-04-18T07:55:01.999Z</time></trkpt><trkpt lat="45.53171788658011" lon="9.000781470129848"><ele>159.25</ele><time>2026-04-18T07:55:02.999Z</time></trkpt><trkpt lat="45.531793112014576" lon="9.000943974356058"><ele>158.5</ele><time>2026-04-18T07:55:03.999Z</time></trkpt><trkpt lat="45.53186439694778" lon="9.00110158208018"><ele>157.75</ele><time>2026-04-18T07:55:04.999Z</time></trkpt><trkpt lat="45.53193239087112" lon="9.001242125491494"><ele>157.0</ele><time>2026-04-18T07:55:05.999Z</time></trkpt><trkpt lat="45.531993091963216" lon="9.001374725950757"><ele>157.0</ele><time>2026-04-18T07:55:06.999Z</time></trkpt><trkpt lat="45.5320498234042" lon="9.00149803595221"><ele>157.0</ele><time>2026-04-18T07:55:07.999Z</time></trkpt><trkpt lat="45.5321077897754" lon="9.001620572787262"><ele>157.0</ele><time>2026-04-18T07:55:08.999Z</time></trkpt><trkpt lat="45.53216720756106" lon="9.00174779739665"><ele>157.0</ele><time>2026-04-18T07:55:09.999Z</time></trkpt><trkpt lat="45.53222702498726" lon="9.001871999855867"><ele>157.0</ele><time>2026-04-18T07:55:10.999Z</time></trkpt><trkpt lat="45.53228377601388" lon="9.00199149280675"><ele>157.0</ele><time>2026-04-18T07:55:11.999Z</time></trkpt><trkpt lat="45.532330349247104" lon="9.002090974343464"><ele>157.0</ele><time>2026-04-18T07:55:12.999Z</time></trkpt><trkpt lat="45.53237470664019" lon="9.002185400974914"><ele>157.0</ele><time>2026-04-18T07:55:13.999Z</time></trkpt><trkpt lat="45.53241622079874" lon="9.002273003725728"><ele>157.0</ele><time>2026-04-18T07:55:14.999Z</time></trkpt><trkpt lat="45.53245543382197" lon="9.002352621262878"><ele>157.0</ele><time>2026-04-18T07:55:15.999Z</time></trkpt><trkpt lat="45.53252183863746" lon="9.002489204812468"><ele>157.0</ele><time>2026-04-18T07:55:17.999Z</time></trkpt><trkpt lat="45.53258323643393" lon="9.002612595972533"><ele>157.0</ele><time>2026-04-18T07:55:19.999Z</time></trkpt><trkpt lat="45.53262649065573" lon="9.002694757684875"><ele>157.0</ele><time>2026-04-18T07:55:21.999Z</time></trkpt><trkpt lat="45.532672214912736" lon="9.002794721093071"><ele>157.0</ele><time>2026-04-18T07:55:23.999Z</time></trkpt><trkpt lat="45.53270459904892" lon="9.002889023142341"><ele>157.0</ele><time>2026-04-18T07:55:25.999Z</time></trkpt><trkpt lat="45.53272069418061" lon="9.003044457444958"><ele>157.0</ele><time>2026-04-18T07:55:28Z</time></trkpt><trkpt lat="45.532730646867535" lon="9.003144693543279"><ele>157.0</ele><time>2026-04-18T07:55:29Z</time></trkpt><trkpt lat="45.532766357935785" lon="9.003246362252563"><ele>157.4</ele><time>2026-04-18T07:55:30Z</time></trkpt><trkpt lat="45.53283423816256" lon="9.003336118694719"><ele>157.79999999999998</ele><time>2026-04-18T07:55:31Z</time></trkpt><trkpt lat="45.532919668874946" lon="9.003383046041368"><ele>158.2</ele><time>2026-04-18T07:55:32Z</time></trkpt><trkpt lat="45.533010655215705" lon="9.003386424907127"><ele>158.6</ele><time>2026-04-18T07:55:33Z</time></trkpt><trkpt lat="45.53309988372129" lon="9.003382014370555"><ele>159.0</ele><time>2026-04-18T07:55:34Z</time></trkpt><trkpt lat="45.5331816460265" lon="9.0035472455443"><ele>159.0</ele><time>2026-04-18T07:55:35Z</time></trkpt><trkpt lat="45.533255385106756" lon="9.00365431554392"><ele>159.0</ele><time>2026-04-18T07:55:36Z</time></trkpt><trkpt lat="45.53333142929977" lon="9.00376091653665"><ele>159.0</ele><time>2026-04-18T07:55:37Z</time></trkpt><trkpt lat="45.533413822991385" lon="9.003864697880113"><ele>159.0</ele><time>2026-04-18T07:55:38Z</time></trkpt><trkpt lat="45.533503290560915" lon="9.003968105910568"><ele>159.0</ele><time>2026-04-18T07:55:39Z</time></trkpt><trkpt lat="45.53359602540921" lon="9.004069577294874"><ele>159.0</ele><time>2026-04-18T07:55:40Z</time></trkpt><trkpt lat="45.533692999854026" lon="9.004171353927392"><ele>159.0</ele><time>2026-04-18T07:55:41Z</time></trkpt><trkpt lat="45.53379245897389" lon="9.004273903453587"><ele>159.0</ele><time>2026-04-18T07:55:42Z</time></trkpt><trkpt lat="45.53389607097831" lon="9.00437641257347"><ele>159.0</ele><time>2026-04-18T07:55:43Z</time></trkpt><trkpt lat="45.533998958000744" lon="9.004473202461295"><ele>159.0</ele><time>2026-04-18T07:55:44Z</time></trkpt><trkpt lat="45.53410760436072" lon="9.004566831313491"><ele>159.0</ele><time>2026-04-18T07:55:45Z</time></trkpt><trkpt lat="45.53421902589844" lon="9.00465387293877"><ele>159.0</ele><time>2026-04-18T07:55:46Z</time></trkpt><trkpt lat="45.534328854991266" lon="9.004737561714608"><ele>159.0</ele><time>2026-04-18T07:55:47Z</time></trkpt><trkpt lat="45.53443595097758" lon="9.004821324368487"><ele>159.0</ele><time>2026-04-18T07:55:48Z</time></trkpt><trkpt lat="45.53453017977947" lon="9.004897087598842"><ele>159.0</ele><time>2026-04-18T07:55:49Z</time></trkpt><trkpt lat="45.53461512901847" lon="9.004969674712305"><ele>159.0</ele><time>2026-04-18T07:55:50Z</time></trkpt><trkpt lat="45.53469333094123" lon="9.005035504028093"><ele>159.0</ele><time>2026-04-18T07:55:51Z</time></trkpt><trkpt lat="45.53476715668376" lon="9.005098411594545"><ele>159.0</ele><time>2026-04-18T07:55:52Z</time></trkpt><trkpt lat="45.53484639376441" lon="9.005165063324228"><ele>159.6</ele><time>2026-04-18T07:55:53Z</time></trkpt><trkpt lat="45.53493027930453" lon="9.005234414436398"><ele>160.2</ele><time>2026-04-18T07:55:54Z</time></trkpt><trkpt lat="45.53501207882867" lon="9.005306163223931"><ele>160.79999999999998</ele><time>2026-04-18T07:55:55Z</time></trkpt><trkpt lat="45.53509730218324" lon="9.005383745531123"><ele>161.4</ele><time>2026-04-18T07:55:56Z</time></trkpt><trkpt lat="45.535190544231774" lon="9.005460476243028"><ele>162.0</ele><time>2026-04-18T07:55:57Z</time></trkpt><trkpt lat="45.53528719950393" lon="9.005539527038229"><ele>161.75</ele><time>2026-04-18T07:55:58Z</time></trkpt><trkpt lat="45.53538802850011" lon="9.005621126841676"><ele>161.5</ele><time>2026-04-18T07:55:59Z</time></trkpt><trkpt lat="45.53549268458604" lon="9.005702008243338"><ele>161.25</ele><time>2026-04-18T07:56:00Z</time></trkpt><trkpt lat="45.535601036715335" lon="9.005790451939754"><ele>161.0</ele><time>2026-04-18T07:56:01Z</time></trkpt><trkpt lat="45.53570827237832" lon="9.005878878015322"><ele>160.25</ele><time>2026-04-18T07:56:02Z</time></trkpt><trkpt lat="45.53581902270228" lon="9.005969663849905"><ele>159.5</ele><time>2026-04-18T07:56:03Z</time></trkpt><trkpt lat="45.53593150545843" lon="9.006063945386707"><ele>158.75</ele><time>2026-04-18T07:56:04Z</time></trkpt><trkpt lat="45.53604735044184" lon="9.006161154265746"><ele>158.0</ele><time>2026-04-18T07:56:05Z</time></trkpt><trkpt lat="45.536163324520004" lon="9.006258796122522"><ele>158.25</ele><time>2026-04-18T07:56:06Z</time></trkpt><trkpt lat="45.536280447893354" lon="9.006361397131316"><ele>158.5</ele><time>2026-04-18T07:56:07Z</time></trkpt><trkpt lat="45.53639768344519" lon="9.006471319860838"><ele>158.75</ele><time>2026-04-18T07:56:08Z</time></trkpt><trkpt lat="45.53651140803226" lon="9.00658832008942"><ele>159.0</ele><time>2026-04-18T07:56:09Z</time></trkpt><trkpt lat="45.536622021285424" lon="9.006711514849828"><ele>159.25</ele><time>2026-04-18T07:56:10Z</time></trkpt><trkpt lat="45.53673130470673" lon="9.006838337519623"><ele>159.5</ele><time>2026-04-18T07:56:11Z</time></trkpt><trkpt lat="45.53682900877576" lon="9.006953434597852"><ele>159.75</ele><time>2026-04-18T07:56:12Z</time></trkpt><trkpt lat="45.53691690317035" lon="9.007064346406807"><ele>160.0</ele><time>2026-04-18T07:56:13Z</time></trkpt><trkpt lat="45.53700090403488" lon="9.007175262409959"><ele>159.2</ele><time>2026-04-18T07:56:14Z</time></trkpt><trkpt lat="45.53708366384301" lon="9.00728110001801"><ele>158.4</ele><time>2026-04-18T07:56:15Z</time></trkpt><trkpt lat="45.5371659558682" lon="9.007387979951933"><ele>157.6</ele><time>2026-04-18T07:56:16Z</time></trkpt><trkpt lat="45.53724070465533" lon="9.007485213410625"><ele>156.8</ele><time>2026-04-18T07:56:17Z</time></trkpt><trkpt lat="45.53730762585474" lon="9.00757864301945"><ele>156.0</ele><time>2026-04-18T07:56:18Z</time></trkpt><trkpt lat="45.537369472476904" lon="9.007677134051626"><ele>155.83333333333334</ele><time>2026-04-18T07:56:19Z</time></trkpt><trkpt lat="45.537417930974605" lon="9.007776626232033"><ele>155.66666666666666</ele><time>2026-04-18T07:56:20Z</time></trkpt><trkpt lat="45.53744966240738" lon="9.007893894060574"><ele>155.5</ele><time>2026-04-18T07:56:21Z</time></trkpt><trkpt lat="45.53746710448069" lon="9.008021762776751"><ele>155.33333333333331</ele><time>2026-04-18T07:56:22Z</time></trkpt><trkpt lat="45.53747922467716" lon="9.008148426013245"><ele>155.16666666666666</ele><time>2026-04-18T07:56:23Z</time></trkpt><trkpt lat="45.53750376182821" lon="9.008261046269782"><ele>155.0</ele><time>2026-04-18T07:56:24Z</time></trkpt><trkpt lat="45.53755059123762" lon="9.008358504297377"><ele>155.0</ele><time>2026-04-18T07:56:25Z</time></trkpt><trkpt lat="45.537620795522734" lon="9.008432819218925"><ele>155.0</ele><time>2026-04-18T07:56:26Z</time></trkpt><trkpt lat="45.53770194153391" lon="9.008480837192891"><ele>155.0</ele><time>2026-04-18T07:56:27Z</time></trkpt><trkpt lat="45.53779332409975" lon="9.00851142865467"><ele>155.0</ele><time>2026-04-18T07:56:28Z</time></trkpt><trkpt lat="45.53788737578717" lon="9.008536430839"><ele>155.0</ele><time>2026-04-18T07:56:29Z</time></trkpt><trkpt lat="45.537985366185495" lon="9.008580008901266"><ele>156.6</ele><time>2026-04-18T07:56:30Z</time></trkpt><trkpt lat="45.53808587988016" lon="9.008614177063258"><ele>158.2</ele><time>2026-04-18T07:56:31Z</time></trkpt><trkpt lat="45.53816873162306" lon="9.008729285982051"><ele>159.8</ele><time>2026-04-18T07:56:32Z</time></trkpt><trkpt lat="45.53824907524199" lon="9.008844460937121"><ele>161.4</ele><time>2026-04-18T07:56:33Z</time></trkpt><trkpt lat="45.53833048889969" lon="9.008959393778191"><ele>163.0</ele><time>2026-04-18T07:56:34Z</time></trkpt><trkpt lat="45.53841259320218" lon="9.009069205460465"><ele>162.8</ele><time>2026-04-18T07:56:35Z</time></trkpt><trkpt lat="45.538487959158864" lon="9.009174069080156"><ele>162.60000000000002</ele><time>2026-04-18T07:56:36Z</time></trkpt><trkpt lat="45.53856326497741" lon="9.009279670047542"><ele>162.39999999999998</ele><time>2026-04-18T07:56:37Z</time></trkpt><trkpt lat="45.538636114667085" lon="9.009380504505073"><ele>162.2</ele><time>2026-04-18T07:56:38Z</time></trkpt><trkpt lat="45.538705371872275" lon="9.00947644933675"><ele>162.0</ele><time>2026-04-18T07:56:39Z</time></trkpt><trkpt lat="45.53877225029882" lon="9.009569453601438"><ele>162.39999999999998</ele><time>2026-04-18T07:56:40Z</time></trkpt><trkpt lat="45.53883522874667" lon="9.009661963524886"><ele>162.79999999999998</ele><time>2026-04-18T07:56:41Z</time></trkpt><trkpt lat="45.53890059624738" lon="9.009772452859721"><ele>163.2</ele><time>2026-04-18T07:56:42Z</time></trkpt><trkpt lat="45.538974674476144" lon="9.009906093440316"><ele>163.6</ele><time>2026-04-18T07:56:43Z</time></trkpt><trkpt lat="45.53906048079019" lon="9.010037547257477"><ele>164.0</ele><time>2026-04-18T07:56:44Z</time></trkpt><trkpt lat="45.539144536341624" lon="9.010151719125531"><ele>163.2</ele><time>2026-04-18T07:56:45Z</time></trkpt><trkpt lat="45.53921631121141" lon="9.010252025496277"><ele>162.39999999999998</ele><time>2026-04-18T07:56:46Z</time></trkpt><trkpt lat="45.539288186801535" lon="9.010326523391155"><ele>161.6</ele><time>2026-04-18T07:56:47Z</time></trkpt><trkpt lat="45.53934636373932" lon="9.010404440477743"><ele>160.8</ele><time>2026-04-18T07:56:48Z</time></trkpt><trkpt lat="45.53939314778491" lon="9.01046709893989"><ele>160.0</ele><time>2026-04-18T07:56:49Z</time></trkpt><trkpt lat="45.53937378748119" lon="9.010631992907994"><ele>160.0</ele><time>2026-04-18T07:56:50Z</time></trkpt><trkpt lat="45.53942449758163" lon="9.01073370161762"><ele>160.0</ele><time>2026-04-18T07:56:52Z</time></trkpt><trkpt lat="45.53961761678642" lon="9.010804641881611"><ele>160.0</ele><time>2026-04-18T08:02:49.001Z</time></trkpt><trkpt lat="45.53969596248794" lon="9.010929122379034"><ele>160.0</ele><time>2026-04-18T08:02:51.001Z</time></trkpt><trkpt lat="45.53979758966838" lon="9.011011163333265"><ele>160.6</ele><time>2026-04-18T08:02:53.001Z</time></trkpt><trkpt lat="45.53988341630544" lon="9.01109000967693"><ele>161.2</ele><time>2026-04-18T08:02:55.001Z</time></trkpt><trkpt lat="45.539971967258225" lon="9.011205150150982"><ele>161.8</ele><time>2026-04-18T08:02:57.001Z</time></trkpt><trkpt lat="45.540042278104195" lon="9.011297235231622"><ele>162.4</ele><time>2026-04-18T08:02:59.001Z</time></trkpt><trkpt lat="45.540105697977914" lon="9.011366945380036"><ele>163.0</ele><time>2026-04-18T08:03:01.001Z</time></trkpt><trkpt lat="45.54016536841335" lon="9.011421729825342"><ele>163.0</ele><time>2026-04-18T08:03:04.001Z</time></trkpt><trkpt lat="45.54023858986128" lon="9.01152036364482"><ele>163.0</ele><time>2026-04-18T08:03:06.001Z</time></trkpt><trkpt lat="45.54030563989912" lon="9.011589611536234"><ele>163.0</ele><time>2026-04-18T08:03:07.001Z</time></trkpt><trkpt lat="45.54037411166447" lon="9.011678688708063"><ele>163.0</ele><time>2026-04-18T08:03:08.001Z</time></trkpt><trkpt lat="45.54044885456063" lon="9.01177591643844"><ele>163.0</ele><time>2026-04-18T08:03:09.001Z</time></trkpt><trkpt lat="45.54050867971652" lon="9.011869687169984"><ele>162.8</ele><time>2026-04-18T08:03:10.001Z</time></trkpt><trkpt lat="45.540551795311906" lon="9.011941111004102"><ele>162.60000000000002</ele><time>2026-04-18T08:03:11.001Z</time></trkpt><trkpt lat="45.54062962521098" lon="9.012055859805534"><ele>162.39999999999998</ele><time>2026-04-18T08:03:13.001Z</time></trkpt><trkpt lat="45.540709096194995" lon="9.012142052190455"><ele>162.2</ele><time>2026-04-18T08:03:15.002Z</time></trkpt><trkpt lat="45.54077409911277" lon="9.012231355001965"><ele>162.0</ele><time>2026-04-18T08:03:17.002Z</time></trkpt><trkpt lat="45.54084693899723" lon="9.012324347372754"><ele>162.0</ele><time>2026-04-18T08:03:19.002Z</time></trkpt><trkpt lat="45.540940440966" lon="9.012444294234285"><ele>162.0</ele><time>2026-04-18T08:03:21.002Z</time></trkpt><trkpt lat="45.54099821229335" lon="9.012517426077812"><ele>162.0</ele><time>2026-04-18T08:03:22.002Z</time></trkpt><trkpt lat="45.541046474190814" lon="9.012586851578513"><ele>162.0</ele><time>2026-04-18T08:03:23.002Z</time></trkpt><trkpt lat="45.541088024955585" lon="9.012660210596408"><ele>162.0</ele><time>2026-04-18T08:03:24.002Z</time></trkpt><trkpt lat="45.54113866648283" lon="9.012743316459874"><ele>162.0</ele><time>2026-04-18T08:03:25.001Z</time></trkpt><trkpt lat="45.54118383381803" lon="9.012831639987198"><ele>161.83333333333334</ele><time>2026-04-18T08:03:26Z</time></trkpt><trkpt lat="45.541209529300495" lon="9.012919116053745"><ele>161.66666666666666</ele><time>2026-04-18T08:03:27Z</time></trkpt><trkpt lat="45.54125281682576" lon="9.013064686863853"><ele>161.5</ele><time>2026-04-18T08:03:29Z</time></trkpt><trkpt lat="45.54128353742943" lon="9.013144983620597"><ele>161.33333333333331</ele><time>2026-04-18T08:03:30Z</time></trkpt><trkpt lat="45.54132855602456" lon="9.013277531886533"><ele>161.16666666666666</ele><time>2026-04-18T08:03:32Z</time></trkpt><trkpt lat="45.54135186373974" lon="9.013369745683741"><ele>161.0</ele><time>2026-04-18T08:03:34Z</time></trkpt><trkpt lat="45.54135839820146" lon="9.013477483294176"><ele>161.0</ele><time>2026-04-18T08:03:37Z</time></trkpt><trkpt lat="45.5413195814959" lon="9.013584820555026"><ele>161.0</ele><time>2026-04-18T08:03:39Z</time></trkpt><trkpt lat="45.541264491076355" lon="9.013725363880443"><ele>161.0</ele><time>2026-04-18T08:03:41Z</time></trkpt><trkpt lat="45.541291971046476" lon="9.013888348834406"><ele>161.0</ele><time>2026-04-18T08:03:43Z</time></trkpt><trkpt lat="45.54131197013676" lon="9.013982380105077"><ele>161.0</ele><time>2026-04-18T08:03:44Z</time></trkpt><trkpt lat="45.54124372624253" lon="9.014105988453487"><ele>161.0</ele><time>2026-04-18T08:03:45Z</time></trkpt><trkpt lat="45.54121727583804" lon="9.01420726032306"><ele>161.0</ele><time>2026-04-18T08:03:46Z</time></trkpt><trkpt lat="45.541190651320655" lon="9.014316304057319"><ele>161.0</ele><time>2026-04-18T08:03:47Z</time></trkpt><trkpt lat="45.541169539756346" lon="9.014435528856772"><ele>161.0</ele><time>2026-04-18T08:03:48Z</time></trkpt><trkpt lat="45.54115285853221" lon="9.01456280935031"><ele>161.0</ele><time>2026-04-18T08:03:49Z</time></trkpt><trkpt lat="45.541136621481115" lon="9.014696555077245"><ele>161.0</ele><time>2026-04-18T08:03:50Z</time></trkpt><trkpt lat="45.54110888857778" lon="9.01482882833792"><ele>161.0</ele><time>2026-04-18T08:03:51Z</time></trkpt><trkpt lat="45.5410575714377" lon="9.014949357449202"><ele>161.0</ele><time>2026-04-18T08:03:52Z</time></trkpt><trkpt lat="45.54099250292774" lon="9.01505727862193"><ele>161.0</ele><time>2026-04-18T08:03:53Z</time></trkpt><trkpt lat="45.54092519179435" lon="9.015159350616258"><ele>161.0</ele><time>2026-04-18T08:03:54Z</time></trkpt><trkpt lat="45.54085975501549" lon="9.015260710577813"><ele>161.0</ele><time>2026-04-18T08:03:55Z</time></trkpt><trkpt lat="45.54079681104062" lon="9.015361821766296"><ele>161.33333333333331</ele><time>2026-04-18T08:03:56Z</time></trkpt><trkpt lat="45.540734339019195" lon="9.015460562846847"><ele>161.66666666666666</ele><time>2026-04-18T08:03:57Z</time></trkpt><trkpt lat="45.54067384107045" lon="9.015557982061305"><ele>162.0</ele><time>2026-04-18T08:03:58Z</time></trkpt><trkpt lat="45.5406225647991" lon="9.015641389272355"><ele>162.33333333333334</ele><time>2026-04-18T08:03:59Z</time></trkpt><trkpt lat="45.54058521577618" lon="9.01574051617452"><ele>162.66666666666669</ele><time>2026-04-18T08:04:00Z</time></trkpt><trkpt lat="45.540520770249216" lon="9.015814167639736"><ele>163.0</ele><time>2026-04-18T08:04:01Z</time></trkpt><trkpt lat="45.540478666719004" lon="9.015921436611395"><ele>163.2</ele><time>2026-04-18T08:04:02Z</time></trkpt><trkpt lat="45.54040246019866" lon="9.016000840074826"><ele>163.4</ele><time>2026-04-18T08:04:03Z</time></trkpt><trkpt lat="45.540334185646635" lon="9.016086836780076"><ele>163.6</ele><time>2026-04-18T08:04:04Z</time></trkpt><trkpt lat="45.540255183799474" lon="9.016159971630358"><ele>163.79999999999998</ele><time>2026-04-18T08:04:05Z</time></trkpt><trkpt lat="45.54017861751209" lon="9.016235190782533"><ele>164.0</ele><time>2026-04-18T08:04:06Z</time></trkpt><trkpt lat="45.540134948643185" lon="9.016349807545787"><ele>164.0</ele><time>2026-04-18T08:04:07Z</time></trkpt><trkpt lat="45.540099647172575" lon="9.01647674386187"><ele>164.0</ele><time>2026-04-18T08:04:08Z</time></trkpt><trkpt lat="45.54004246811009" lon="9.016588488862396"><ele>164.0</ele><time>2026-04-18T08:04:09Z</time></trkpt><trkpt lat="45.53997835119787" lon="9.016695804902584"><ele>164.0</ele><time>2026-04-18T08:04:10Z</time></trkpt><trkpt lat="45.53991638158168" lon="9.01680806373586"><ele>164.0</ele><time>2026-04-18T08:04:11Z</time></trkpt><trkpt lat="45.539854485778555" lon="9.016916699292544"><ele>164.0</ele><time>2026-04-18T08:04:12.001Z</time></trkpt><trkpt lat="45.53978490394262" lon="9.017033303637797"><ele>164.0</ele><time>2026-04-18T08:04:13.001Z</time></trkpt><trkpt lat="45.53970915668994" lon="9.017152166010298"><ele>164.0</ele><time>2026-04-18T08:04:14.001Z</time></trkpt><trkpt lat="45.53964100499105" lon="9.017260931423388"><ele>164.0</ele><time>2026-04-18T08:04:15.001Z</time></trkpt><trkpt lat="45.53957381573436" lon="9.017371586817704"><ele>164.0</ele><time>2026-04-18T08:04:16.001Z</time></trkpt><trkpt lat="45.53950467320909" lon="9.01748812565285"><ele>163.25</ele><time>2026-04-18T08:04:17.001Z</time></trkpt><trkpt lat="45.5394309996487" lon="9.01761047981414"><ele>162.5</ele><time>2026-04-18T08:04:18.001Z</time></trkpt><trkpt lat="45.539359083879745" lon="9.017738245816824"><ele>161.75</ele><time>2026-04-18T08:04:19.001Z</time></trkpt><trkpt lat="45.53928056298547" lon="9.017862808506532"><ele>161.0</ele><time>2026-04-18T08:04:20.001Z</time></trkpt><trkpt lat="45.539207418215526" lon="9.017984166227247"><ele>161.0</ele><time>2026-04-18T08:04:21.001Z</time></trkpt><trkpt lat="45.539129140850136" lon="9.018091280347088"><ele>161.0</ele><time>2026-04-18T08:04:22.001Z</time></trkpt><trkpt lat="45.53905363564073" lon="9.018185906595383"><ele>161.0</ele><time>2026-04-18T08:04:23.001Z</time></trkpt><trkpt lat="45.53897850809465" lon="9.018269684569956"><ele>161.0</ele><time>2026-04-18T08:04:24.001Z</time></trkpt><trkpt lat="45.5389064077004" lon="9.018330092294983"><ele>161.0</ele><time>2026-04-18T08:04:25.001Z</time></trkpt><trkpt lat="45.53883273751318" lon="9.018371524711783"><ele>161.20000000000002</ele><time>2026-04-18T08:04:26.001Z</time></trkpt><trkpt lat="45.53875972324787" lon="9.018382199759337"><ele>161.4</ele><time>2026-04-18T08:04:27.001Z</time></trkpt><trkpt lat="45.538688881268996" lon="9.018372357778272"><ele>161.6</ele><time>2026-04-18T08:04:28.001Z</time></trkpt><trkpt lat="45.538619786536955" lon="9.018383393639514"><ele>161.8</ele><time>2026-04-18T08:04:29.001Z</time></trkpt><trkpt lat="45.53852211867344" lon="9.018498516441964"><ele>162.0</ele><time>2026-04-18T08:04:31.001Z</time></trkpt><trkpt lat="45.53855709312811" lon="9.018748396202776"><ele>162.0</ele><time>2026-04-18T08:04:33.001Z</time></trkpt><trkpt lat="45.538559983418146" lon="9.018879633963307"><ele>162.0</ele><time>2026-04-18T08:04:34.001Z</time></trkpt><trkpt lat="45.53853114121377" lon="9.019016123912214"><ele>162.0</ele><time>2026-04-18T08:04:35.001Z</time></trkpt><trkpt lat="45.538471129485764" lon="9.019144135187533"><ele>162.0</ele><time>2026-04-18T08:04:36.001Z</time></trkpt><trkpt lat="45.538397658077045" lon="9.019269618630894"><ele>162.0</ele><time>2026-04-18T08:04:37.001Z</time></trkpt><trkpt lat="45.538324033551575" lon="9.019392619196495"><ele>162.0</ele><time>2026-04-18T08:04:38.001Z</time></trkpt><trkpt lat="45.53823770123161" lon="9.019524472062079"><ele>162.0</ele><time>2026-04-18T08:04:39.001Z</time></trkpt><trkpt lat="45.538152787377975" lon="9.019660446813035"><ele>162.0</ele><time>2026-04-18T08:04:40.001Z</time></trkpt><trkpt lat="45.53806791380472" lon="9.019804524032912"><ele>162.0</ele><time>2026-04-18T08:04:41.001Z</time></trkpt><trkpt lat="45.53798210992911" lon="9.019938534961517"><ele>161.5</ele><time>2026-04-18T08:04:42.001Z</time></trkpt><trkpt lat="45.53790198848753" lon="9.020074216473363"><ele>161.0</ele><time>2026-04-18T08:04:43.001Z</time></trkpt><trkpt lat="45.5378206274159" lon="9.020200194238708"><ele>160.5</ele><time>2026-04-18T08:04:44.001Z</time></trkpt><trkpt lat="45.53773540983581" lon="9.020332784204571"><ele>160.0</ele><time>2026-04-18T08:04:45.001Z</time></trkpt><trkpt lat="45.537652364482604" lon="9.020463407083867"><ele>160.0</ele><time>2026-04-18T08:04:46.001Z</time></trkpt><trkpt lat="45.53756883526771" lon="9.020599611613257"><ele>160.0</ele><time>2026-04-18T08:04:47.001Z</time></trkpt><trkpt lat="45.53748127036992" lon="9.020749552606926"><ele>160.0</ele><time>2026-04-18T08:04:48.001Z</time></trkpt><trkpt lat="45.53739256964591" lon="9.02089146078597"><ele>160.0</ele><time>2026-04-18T08:04:49.001Z</time></trkpt><trkpt lat="45.537311951446526" lon="9.021028928845325"><ele>159.8</ele><time>2026-04-18T08:04:50.001Z</time></trkpt><trkpt lat="45.53723496222415" lon="9.021158008572996"><ele>159.6</ele><time>2026-04-18T08:04:51.001Z</time></trkpt><trkpt lat="45.53716848401834" lon="9.021278037804635"><ele>159.4</ele><time>2026-04-18T08:04:52.001Z</time></trkpt><trkpt lat="45.53709909559485" lon="9.021387508400808"><ele>159.2</ele><time>2026-04-18T08:04:53.001Z</time></trkpt><trkpt lat="45.537027629284125" lon="9.02150196421657"><ele>159.0</ele><time>2026-04-18T08:04:54.001Z</time></trkpt><trkpt lat="45.53695487439463" lon="9.021618652083589"><ele>159.2</ele><time>2026-04-18T08:04:55.001Z</time></trkpt><trkpt lat="45.53688467037984" lon="9.021724981232481"><ele>159.4</ele><time>2026-04-18T08:04:56.001Z</time></trkpt><trkpt lat="45.5368146797986" lon="9.021834031866812"><ele>159.6</ele><time>2026-04-18T08:04:57.001Z</time></trkpt><trkpt lat="45.53674610954912" lon="9.021944334081335"><ele>159.8</ele><time>2026-04-18T08:04:58.001Z</time></trkpt><trkpt lat="45.53668619101198" lon="9.02204982244735"><ele>160.0</ele><time>2026-04-18T08:04:59.001Z</time></trkpt><trkpt lat="45.53662785182366" lon="9.02214945533255"><ele>160.0</ele><time>2026-04-18T08:05:00.001Z</time></trkpt><trkpt lat="45.53657224491982" lon="9.022245899565142"><ele>160.0</ele><time>2026-04-18T08:05:01.001Z</time></trkpt><trkpt lat="45.53650274308296" lon="9.022354472448855"><ele>160.0</ele><time>2026-04-18T08:05:03.001Z</time></trkpt><trkpt lat="45.53644065709674" lon="9.022443829564391"><ele>160.0</ele><time>2026-04-18T08:05:05.001Z</time></trkpt><trkpt lat="45.536397044508995" lon="9.022530260387894"><ele>160.0</ele><time>2026-04-18T08:05:07.001Z</time></trkpt><trkpt lat="45.53634111760768" lon="9.022659878398377"><ele>160.16666666666669</ele><time>2026-04-18T08:05:09.001Z</time></trkpt><trkpt lat="45.53628940938257" lon="9.022779177480734"><ele>160.33333333333334</ele><time>2026-04-18T08:05:11.001Z</time></trkpt><trkpt lat="45.536211837284775" lon="9.022849135040659"><ele>160.5</ele><time>2026-04-18T08:05:13.001Z</time></trkpt><trkpt lat="45.53614554816071" lon="9.022853292418127"><ele>160.66666666666666</ele><time>2026-04-18T08:05:14.001Z</time></trkpt><trkpt lat="45.536062611394954" lon="9.022869955460141"><ele>160.83333333333331</ele><time>2026-04-18T08:05:15.001Z</time></trkpt><trkpt lat="45.53597812504765" lon="9.022927965095345"><ele>161.0</ele><time>2026-04-18T08:05:16.001Z</time></trkpt><trkpt lat="45.53590296289931" lon="9.023010846694106"><ele>161.0</ele><time>2026-04-18T08:05:17.001Z</time></trkpt><trkpt lat="45.53583350165799" lon="9.023080300799844"><ele>161.0</ele><time>2026-04-18T08:05:18.001Z</time></trkpt><trkpt lat="45.53576080508403" lon="9.02312052605537"><ele>161.0</ele><time>2026-04-18T08:05:19.001Z</time></trkpt><trkpt lat="45.53568697868173" lon="9.023096716718982"><ele>161.0</ele><time>2026-04-18T08:05:20.001Z</time></trkpt><trkpt lat="45.535609799317285" lon="9.023123550324954"><ele>161.0</ele><time>2026-04-18T08:05:21.001Z</time></trkpt><trkpt lat="45.53553050492398" lon="9.023133293990089"><ele>161.0</ele><time>2026-04-18T08:05:22.001Z</time></trkpt><trkpt lat="45.53544695020094" lon="9.02314268919829"><ele>161.4</ele><time>2026-04-18T08:05:23.001Z</time></trkpt><trkpt lat="45.535361883712646" lon="9.023151982998304"><ele>161.8</ele><time>2026-04-18T08:05:24.001Z</time></trkpt><trkpt lat="45.53526768389044" lon="9.023159020523083"><ele>162.20000000000002</ele><time>2026-04-18T08:05:25.001Z</time></trkpt><trkpt lat="45.53517544291612" lon="9.023170250617433"><ele>162.60000000000002</ele><time>2026-04-18T08:05:26.001Z</time></trkpt><trkpt lat="45.535081187790894" lon="9.023181794766455"><ele>163.0</ele><time>2026-04-18T08:05:27.001Z</time></trkpt><trkpt lat="45.53498620421269" lon="9.023191435443014"><ele>163.0</ele><time>2026-04-18T08:05:28.001Z</time></trkpt><trkpt lat="45.53489773541945" lon="9.02320303322196"><ele>163.0</ele><time>2026-04-18T08:05:29.001Z</time></trkpt><trkpt lat="45.534818935735736" lon="9.023218686524164"><ele>163.0</ele><time>2026-04-18T08:05:30.001Z</time></trkpt><trkpt lat="45.534743119897875" lon="9.023226073358545"><ele>163.0</ele><time>2026-04-18T08:05:30.999Z</time></trkpt><trkpt lat="45.53466386368955" lon="9.023237303667118"><ele>163.0</ele><time>2026-04-18T08:05:31.999Z</time></trkpt><trkpt lat="45.534588345794056" lon="9.023247631152014"><ele>163.0</ele><time>2026-04-18T08:05:32.999Z</time></trkpt><trkpt lat="45.53451936532384" lon="9.023255416256443"><ele>162.4</ele><time>2026-04-18T08:05:33.999Z</time></trkpt><trkpt lat="45.534406351097985" lon="9.023270306757366"><ele>161.8</ele><time>2026-04-18T08:05:35.999Z</time></trkpt><trkpt lat="45.53430659134598" lon="9.023222163170367"><ele>161.2</ele><time>2026-04-18T08:05:37.999Z</time></trkpt><trkpt lat="45.534255487079896" lon="9.023076433240009"><ele>160.6</ele><time>2026-04-18T08:05:39.999Z</time></trkpt><trkpt lat="45.534188853146446" lon="9.02294593928509"><ele>160.0</ele><time>2026-04-18T08:05:41.999Z</time></trkpt><trkpt lat="45.53406488373724" lon="9.022940313508911"><ele>160.0</ele><time>2026-04-18T08:05:43.999Z</time></trkpt><trkpt lat="45.53401751243612" lon="9.023030906367035"><ele>160.0</ele><time>2026-04-18T08:05:44.999Z</time></trkpt><trkpt lat="45.53398586152792" lon="9.023112127687721"><ele>160.0</ele><time>2026-04-18T08:05:45.999Z</time></trkpt><trkpt lat="45.533956270413505" lon="9.023197462428255"><ele>160.0</ele><time>2026-04-18T08:05:46.999Z</time></trkpt><trkpt lat="45.53391154908363" lon="9.023272517354224"><ele>160.0</ele><time>2026-04-18T08:05:47.999Z</time></trkpt><trkpt lat="45.53384642174126" lon="9.02332136917962"><ele>160.0</ele><time>2026-04-18T08:05:48.999Z</time></trkpt><trkpt lat="45.53376313652592" lon="9.023348180151492"><ele>160.0</ele><time>2026-04-18T08:05:49.999Z</time></trkpt><trkpt lat="45.53367278735098" lon="9.02336077120675"><ele>159.8</ele><time>2026-04-18T08:05:50.999Z</time></trkpt><trkpt lat="45.53357972040407" lon="9.023370340446286"><ele>159.6</ele><time>2026-04-18T08:05:51.999Z</time></trkpt><trkpt lat="45.53348025773776" lon="9.023379041851278"><ele>159.4</ele><time>2026-04-18T08:05:52.999Z</time></trkpt><trkpt lat="45.53337752474403" lon="9.023388993416955"><ele>159.2</ele><time>2026-04-18T08:05:53.999Z</time></trkpt><trkpt lat="45.533262636696215" lon="9.023398371992046"><ele>159.0</ele><time>2026-04-18T08:05:54.999Z</time></trkpt><trkpt lat="45.533146167469944" lon="9.023411056773808"><ele>159.0</ele><time>2026-04-18T08:05:55.999Z</time></trkpt><trkpt lat="45.53302232194493" lon="9.023422013798347"><ele>159.0</ele><time>2026-04-18T08:05:56.999Z</time></trkpt><trkpt lat="45.53289401257779" lon="9.023428022963069"><ele>159.0</ele><time>2026-04-18T08:05:57.999Z</time></trkpt><trkpt lat="45.53276432448849" lon="9.02343000970319"><ele>159.0</ele><time>2026-04-18T08:05:58.999Z</time></trkpt><trkpt lat="45.53262891354477" lon="9.023435506284459"><ele>159.0</ele><time>2026-04-18T08:05:59.999Z</time></trkpt><trkpt lat="45.53249519092038" lon="9.023443367940448"><ele>159.0</ele><time>2026-04-18T08:06:00.999Z</time></trkpt><trkpt lat="45.532372126636645" lon="9.023452118834554"><ele>159.0</ele><time>2026-04-18T08:06:01.999Z</time></trkpt><trkpt lat="45.53225809666313" lon="9.023458568654837"><ele>159.0</ele><time>2026-04-18T08:06:03Z</time></trkpt><trkpt lat="45.532149619427344" lon="9.02346728958247"><ele>159.4</ele><time>2026-04-18T08:06:04Z</time></trkpt><trkpt lat="45.532044136295426" lon="9.023473654936305"><ele>159.8</ele><time>2026-04-18T08:06:05Z</time></trkpt><trkpt lat="45.53194955729956" lon="9.023478630480826"><ele>160.20000000000002</ele><time>2026-04-18T08:06:06Z</time></trkpt><trkpt lat="45.531860802032654" lon="9.023489467273302"><ele>160.60000000000002</ele><time>2026-04-18T08:06:07Z</time></trkpt><trkpt lat="45.53177684635411" lon="9.023491758523758"><ele>161.0</ele><time>2026-04-18T08:06:08Z</time></trkpt><trkpt lat="45.53169826219423" lon="9.023488141753225"><ele>161.0</ele><time>2026-04-18T08:06:09Z</time></trkpt><trkpt lat="45.53162719877036" lon="9.023478541947535"><ele>161.0</ele><time>2026-04-18T08:06:10Z</time></trkpt><trkpt lat="45.53154765456662" lon="9.023467560550833"><ele>161.0</ele><time>2026-04-18T08:06:11Z</time></trkpt><trkpt lat="45.53146703314415" lon="9.023451914716077"><ele>161.0</ele><time>2026-04-18T08:06:12Z</time></trkpt><trkpt lat="45.53137972659258" lon="9.023428579512911"><ele>161.0</ele><time>2026-04-18T08:06:13Z</time></trkpt><trkpt lat="45.531298103280804" lon="9.023402077795009"><ele>161.0</ele><time>2026-04-18T08:06:14Z</time></trkpt><trkpt lat="45.53122818677566" lon="9.023375742430146"><ele>161.0</ele><time>2026-04-18T08:06:15Z</time></trkpt><trkpt lat="45.53114975772361" lon="9.023327722947524"><ele>161.0</ele><time>2026-04-18T08:06:16Z</time></trkpt><trkpt lat="45.531091208161044" lon="9.023228703879088"><ele>161.0</ele><time>2026-04-18T08:06:17Z</time></trkpt><trkpt lat="45.53101546161936" lon="9.023180809396466"><ele>161.0</ele><time>2026-04-18T08:06:18Z</time></trkpt><trkpt lat="45.53093822562614" lon="9.023179211795512"><ele>161.0</ele><time>2026-04-18T08:06:19Z</time></trkpt><trkpt lat="45.53087343040242" lon="9.023235333124136"><ele>161.0</ele><time>2026-04-18T08:06:20Z</time></trkpt><trkpt lat="45.53083001237741" lon="9.023334675388936"><ele>161.0</ele><time>2026-04-18T08:06:21Z</time></trkpt><trkpt lat="45.53077901554125" lon="9.023407250486562"><ele>161.0</ele><time>2026-04-18T08:06:22Z</time></trkpt><trkpt lat="45.53071098641614" lon="9.023467207628348"><ele>161.0</ele><time>2026-04-18T08:06:23Z</time></trkpt><trkpt lat="45.53063504819329" lon="9.02351169557548"><ele>161.0</ele><time>2026-04-18T08:06:24Z</time></trkpt><trkpt lat="45.530541861480906" lon="9.023547534329067"><ele>161.0</ele><time>2026-04-18T08:06:25Z</time></trkpt><trkpt lat="45.53044585655626" lon="9.023551167886362"><ele>161.0</ele><time>2026-04-18T08:06:26Z</time></trkpt><trkpt lat="45.530341088155346" lon="9.023557359958792"><ele>160.25</ele><time>2026-04-18T08:06:27Z</time></trkpt><trkpt lat="45.5302297732318" lon="9.023562046598236"><ele>159.5</ele><time>2026-04-18T08:06:28Z</time></trkpt><trkpt lat="45.53011314727787" lon="9.023566956844041"><ele>158.75</ele><time>2026-04-18T08:06:29Z</time></trkpt><trkpt lat="45.52999723158467" lon="9.023578812429946"><ele>158.0</ele><time>2026-04-18T08:06:30Z</time></trkpt><trkpt lat="45.52988272057045" lon="9.02358903701359"><ele>158.0</ele><time>2026-04-18T08:06:31Z</time></trkpt><trkpt lat="45.529764073056015" lon="9.02359745419152"><ele>158.0</ele><time>2026-04-18T08:06:32Z</time></trkpt><trkpt lat="45.52963786537165" lon="9.023605665931065"><ele>158.0</ele><time>2026-04-18T08:06:33Z</time></trkpt><trkpt lat="45.529507587766524" lon="9.023613536877958"><ele>158.0</ele><time>2026-04-18T08:06:34Z</time></trkpt><trkpt lat="45.52936740505294" lon="9.023617577418467"><ele>157.0</ele><time>2026-04-18T08:06:35Z</time></trkpt><trkpt lat="45.52922493368747" lon="9.023622639583444"><ele>156.0</ele><time>2026-04-18T08:06:36Z</time></trkpt><trkpt lat="45.52907724303769" lon="9.023629110533408"><ele>155.0</ele><time>2026-04-18T08:06:37Z</time></trkpt><trkpt lat="45.528925882962504" lon="9.023634783725308"><ele>154.0</ele><time>2026-04-18T08:06:38Z</time></trkpt><trkpt lat="45.52877942242636" lon="9.023638336996864"><ele>153.5</ele><time>2026-04-18T08:06:39Z</time></trkpt><trkpt lat="45.52862940691132" lon="9.023645236482311"><ele>153.0</ele><time>2026-04-18T08:06:40Z</time></trkpt><trkpt lat="45.52848391649452" lon="9.023650661401783"><ele>152.5</ele><time>2026-04-18T08:06:41Z</time></trkpt><trkpt lat="45.528334530184374" lon="9.023660577143477"><ele>152.0</ele><time>2026-04-18T08:06:42Z</time></trkpt><trkpt lat="45.52818735986669" lon="9.023669933303065"><ele>152.0</ele><time>2026-04-18T08:06:43Z</time></trkpt><trkpt lat="45.528041548287874" lon="9.023676854052704"><ele>152.0</ele><time>2026-04-18T08:06:44Z</time></trkpt><trkpt lat="45.52789675913298" lon="9.023682864056884"><ele>152.0</ele><time>2026-04-18T08:06:45Z</time></trkpt><trkpt lat="45.52775156427693" lon="9.023690627833787"><ele>152.0</ele><time>2026-04-18T08:06:46Z</time></trkpt><trkpt lat="45.52760821901991" lon="9.0236981543335"><ele>152.33333333333331</ele><time>2026-04-18T08:06:47Z</time></trkpt><trkpt lat="45.52745940586676" lon="9.02371307223777"><ele>152.66666666666666</ele><time>2026-04-18T08:06:48Z</time></trkpt><trkpt lat="45.52729414116614" lon="9.02372955420158"><ele>153.0</ele><time>2026-04-18T08:06:49Z</time></trkpt><trkpt lat="45.52710065707545" lon="9.023736432473248"><ele>153.66666666666666</ele><time>2026-04-18T08:06:50Z</time></trkpt><trkpt lat="45.52691973655295" lon="9.023739899376267"><ele>154.33333333333331</ele><time>2026-04-18T08:06:51Z</time></trkpt><trkpt lat="45.52676386789275" lon="9.023745563222013"><ele>155.0</ele><time>2026-04-18T08:06:52Z</time></trkpt><trkpt lat="45.52661772028262" lon="9.023756921025615"><ele>155.0</ele><time>2026-04-18T08:06:53Z</time></trkpt><trkpt lat="45.52647633457301" lon="9.0237596499336"><ele>155.0</ele><time>2026-04-18T08:06:54Z</time></trkpt><trkpt lat="45.526330440254725" lon="9.023764917301804"><ele>155.0</ele><time>2026-04-18T08:06:55Z</time></trkpt><trkpt lat="45.526186945845936" lon="9.023774889846116"><ele>155.0</ele><time>2026-04-18T08:06:56Z</time></trkpt><trkpt lat="45.52604451132575" lon="9.02378906165819"><ele>155.75</ele><time>2026-04-18T08:06:57Z</time></trkpt><trkpt lat="45.525904211093696" lon="9.023808452536198"><ele>156.5</ele><time>2026-04-18T08:06:58Z</time></trkpt><trkpt lat="45.525764587324566" lon="9.023838984057805"><ele>157.25</ele><time>2026-04-18T08:06:59Z</time></trkpt><trkpt lat="45.525626496180486" lon="9.023881618944317"><ele>158.0</ele><time>2026-04-18T08:07:00Z</time></trkpt><trkpt lat="45.52549094866059" lon="9.023933681481013"><ele>156.5</ele><time>2026-04-18T08:07:01Z</time></trkpt><trkpt lat="45.525355369976374" lon="9.023992892923369"><ele>155.0</ele><time>2026-04-18T08:07:02Z</time></trkpt><trkpt lat="45.52522215400904" lon="9.024060670815462"><ele>153.5</ele><time>2026-04-18T08:07:03Z</time></trkpt><trkpt lat="45.52508974492669" lon="9.024131938421252"><ele>152.0</ele><time>2026-04-18T08:07:04.001Z</time></trkpt><trkpt lat="45.524968386004595" lon="9.024207865261012"><ele>151.79999999999998</ele><time>2026-04-18T08:07:05.001Z</time></trkpt><trkpt lat="45.52485548215044" lon="9.024287991786126"><ele>151.6</ele><time>2026-04-18T08:07:06.001Z</time></trkpt><trkpt lat="45.52476321622443" lon="9.024361248415836"><ele>151.39999999999998</ele><time>2026-04-18T08:07:07.001Z</time></trkpt><trkpt lat="45.52467740426656" lon="9.024433538722375"><ele>151.2</ele><time>2026-04-18T08:07:08.001Z</time></trkpt><trkpt lat="45.52459597212426" lon="9.024502990067251"><ele>151.0</ele><time>2026-04-18T08:07:09.001Z</time></trkpt><trkpt lat="45.5245232881563" lon="9.024565352967544"><ele>151.0</ele><time>2026-04-18T08:07:10.001Z</time></trkpt><trkpt lat="45.52446997887856" lon="9.024616066970468"><ele>151.0</ele><time>2026-04-18T08:07:11.001Z</time></trkpt><trkpt lat="45.52439393932679" lon="9.024650919960962"><ele>151.0</ele><time>2026-04-18T08:07:13.001Z</time></trkpt><trkpt lat="45.52429580191227" lon="9.02465378834668"><ele>151.0</ele><time>2026-04-18T08:07:15.001Z</time></trkpt><trkpt lat="45.52420792162924" lon="9.024651315867843"><ele>151.0</ele><time>2026-04-18T08:07:16.001Z</time></trkpt><trkpt lat="45.524126543172486" lon="9.024690998311538"><ele>151.0</ele><time>2026-04-18T08:07:17.001Z</time></trkpt><trkpt lat="45.524089950058254" lon="9.024797314583084"><ele>151.0</ele><time>2026-04-18T08:07:18.001Z</time></trkpt><trkpt lat="45.52407528688925" lon="9.024908084878852"><ele>151.0</ele><time>2026-04-18T08:07:19.001Z</time></trkpt><trkpt lat="45.52407732817006" lon="9.025036611293526"><ele>151.0</ele><time>2026-04-18T08:07:20.001Z</time></trkpt><trkpt lat="45.52393971275979" lon="9.02515155458507"><ele>151.0</ele><time>2026-04-18T08:07:21.001Z</time></trkpt><trkpt lat="45.52382974275867" lon="9.025247489317293"><ele>151.66666666666669</ele><time>2026-04-18T08:07:22.001Z</time></trkpt><trkpt lat="45.52370737669652" lon="9.025365188387012"><ele>152.33333333333334</ele><time>2026-04-18T08:07:23.001Z</time></trkpt><trkpt lat="45.52355971181671" lon="9.025513906059954"><ele>153.0</ele><time>2026-04-18T08:07:24.001Z</time></trkpt><trkpt lat="45.52340332214833" lon="9.025661565734694"><ele>153.33333333333334</ele><time>2026-04-18T08:07:25.001Z</time></trkpt><trkpt lat="45.5232345166964" lon="9.025822398454473"><ele>153.66666666666669</ele><time>2026-04-18T08:07:26.001Z</time></trkpt><trkpt lat="45.52304640439527" lon="9.025996870105283"><ele>154.0</ele><time>2026-04-18T08:07:27.001Z</time></trkpt><trkpt lat="45.52284691347943" lon="9.026174984567993"><ele>152.66666666666669</ele><time>2026-04-18T08:07:28.001Z</time></trkpt><trkpt lat="45.52266768914577" lon="9.026324038165022"><ele>151.33333333333334</ele><time>2026-04-18T08:07:29.001Z</time></trkpt><trkpt lat="45.52250392795237" lon="9.02646056002337"><ele>150.0</ele><time>2026-04-18T08:07:30.001Z</time></trkpt><trkpt lat="45.52234413364616" lon="9.026585364315585"><ele>150.33333333333334</ele><time>2026-04-18T08:07:31.001Z</time></trkpt><trkpt lat="45.52219909740799" lon="9.026704143389233"><ele>150.66666666666669</ele><time>2026-04-18T08:07:32.001Z</time></trkpt><trkpt lat="45.52206352811008" lon="9.026815840129602"><ele>151.0</ele><time>2026-04-18T08:07:33.001Z</time></trkpt><trkpt lat="45.52193716941964" lon="9.026925275963995"><ele>151.0</ele><time>2026-04-18T08:07:34.001Z</time></trkpt><trkpt lat="45.521820596984774" lon="9.027027679737294"><ele>151.0</ele><time>2026-04-18T08:07:35.001Z</time></trkpt><trkpt lat="45.52171394729931" lon="9.027141186859641"><ele>151.0</ele><time>2026-04-18T08:07:36.001Z</time></trkpt><trkpt lat="45.521626404793594" lon="9.027264318720793"><ele>151.0</ele><time>2026-04-18T08:07:36.998Z</time></trkpt><trkpt lat="45.521549974339514" lon="9.027385999196932"><ele>151.0</ele><time>2026-04-18T08:07:37.998Z</time></trkpt><trkpt lat="45.52148185799935" lon="9.027475391856864"><ele>151.0</ele><time>2026-04-18T08:07:38.998Z</time></trkpt><trkpt lat="45.52140913994653" lon="9.027525260555148"><ele>151.0</ele><time>2026-04-18T08:07:39.998Z</time></trkpt><trkpt lat="45.52132528410309" lon="9.027528403172033"><ele>151.0</ele><time>2026-04-18T08:07:40.998Z</time></trkpt><trkpt lat="45.52123867683454" lon="9.027479064181927"><ele>151.0</ele><time>2026-04-18T08:07:41.998Z</time></trkpt><trkpt lat="45.52117759100348" lon="9.027355504460486"><ele>151.0</ele><time>2026-04-18T08:07:42.998Z</time></trkpt><trkpt lat="45.52111351426776" lon="9.0272190859162"><ele>151.0</ele><time>2026-04-18T08:07:43.998Z</time></trkpt><trkpt lat="45.52104342594853" lon="9.027060862971634"><ele>151.0</ele><time>2026-04-18T08:07:44.998Z</time></trkpt><trkpt lat="45.52097361712538" lon="9.02688330638236"><ele>151.0</ele><time>2026-04-18T08:07:45.998Z</time></trkpt><trkpt lat="45.52090102461238" lon="9.026679815075944"><ele>150.33333333333334</ele><time>2026-04-18T08:07:46.998Z</time></trkpt><trkpt lat="45.52082053171988" lon="9.02647122301702"><ele>149.66666666666666</ele><time>2026-04-18T08:07:47.998Z</time></trkpt><trkpt lat="45.520754747534305" lon="9.026240861726118"><ele>149.0</ele><time>2026-04-18T08:07:48.999Z</time></trkpt><trkpt lat="45.5206892775057" lon="9.026003913345074"><ele>148.33333333333331</ele><time>2026-04-18T08:07:49.999Z</time></trkpt><trkpt lat="45.520616598031594" lon="9.025750805736381"><ele>147.66666666666666</ele><time>2026-04-18T08:07:50.999Z</time></trkpt><trkpt lat="45.520544629345" lon="9.025496293506329"><ele>147.0</ele><time>2026-04-18T08:07:51.999Z</time></trkpt><trkpt lat="45.5205005640384" lon="9.025233343293001"><ele>147.0</ele><time>2026-04-18T08:07:52.999Z</time></trkpt><trkpt lat="45.52043718480635" lon="9.024988375718586"><ele>147.0</ele><time>2026-04-18T08:07:53.999Z</time></trkpt><trkpt lat="45.52039322626478" lon="9.024742822742207"><ele>147.0</ele><time>2026-04-18T08:07:54.999Z</time></trkpt><trkpt lat="45.520340873092245" lon="9.024496297688637"><ele>148.0</ele><time>2026-04-18T08:07:55.999Z</time></trkpt><trkpt lat="45.52028974615849" lon="9.024253638408537"><ele>149.0</ele><time>2026-04-18T08:07:56.999Z</time></trkpt><trkpt lat="45.52024332973888" lon="9.024008034281021"><ele>150.0</ele><time>2026-04-18T08:07:57.999Z</time></trkpt><trkpt lat="45.520196621265285" lon="9.023758218116646"><ele>150.0</ele><time>2026-04-18T08:07:58.999Z</time></trkpt><trkpt lat="45.52014652748231" lon="9.023511391369711"><ele>150.0</ele><time>2026-04-18T08:07:59.999Z</time></trkpt><trkpt lat="45.52009309750439" lon="9.023264659936773"><ele>150.0</ele><time>2026-04-18T08:08:00.999Z</time></trkpt><trkpt lat="45.5200614560806" lon="9.023010662950457"><ele>150.33333333333334</ele><time>2026-04-18T08:08:01.999Z</time></trkpt><trkpt lat="45.5200159433747" lon="9.02276354379335"><ele>150.66666666666669</ele><time>2026-04-18T08:08:02.999Z</time></trkpt><trkpt lat="45.51997554004701" lon="9.022516071694234"><ele>151.0</ele><time>2026-04-18T08:08:03.999Z</time></trkpt><trkpt lat="45.51995317590153" lon="9.022260007864045"><ele>151.0</ele><time>2026-04-18T08:08:04.999Z</time></trkpt><trkpt lat="45.51994257972894" lon="9.022002288870288"><ele>151.0</ele><time>2026-04-18T08:08:05.999Z</time></trkpt><trkpt lat="45.51993603140653" lon="9.021742048589855"><ele>151.0</ele><time>2026-04-18T08:08:06.999Z</time></trkpt><trkpt lat="45.51991272107531" lon="9.021484625464549"><ele>151.0</ele><time>2026-04-18T08:08:07.999Z</time></trkpt><trkpt lat="45.51988974783749" lon="9.021224979855964"><ele>151.0</ele><time>2026-04-18T08:08:08.999Z</time></trkpt><trkpt lat="45.519849009107375" lon="9.020971370236898"><ele>151.0</ele><time>2026-04-18T08:08:09.999Z</time></trkpt><trkpt lat="45.519823804888965" lon="9.020713770501667"><ele>151.0</ele><time>2026-04-18T08:08:10.999Z</time></trkpt><trkpt lat="45.51978539932651" lon="9.020461331773708"><ele>151.0</ele><time>2026-04-18T08:08:12Z</time></trkpt><trkpt lat="45.51975130879721" lon="9.020224748662619"><ele>151.0</ele><time>2026-04-18T08:08:13Z</time></trkpt><trkpt lat="45.51972410961946" lon="9.020006371653889"><ele>151.5</ele><time>2026-04-18T08:08:14Z</time></trkpt><trkpt lat="45.51969998224125" lon="9.019800155709447"><ele>152.0</ele><time>2026-04-18T08:08:15Z</time></trkpt><trkpt lat="45.519664489949825" lon="9.01960882266709"><ele>152.5</ele><time>2026-04-18T08:08:16Z</time></trkpt><trkpt lat="45.51963499457196" lon="9.0194194071261"><ele>153.0</ele><time>2026-04-18T08:08:17Z</time></trkpt><trkpt lat="45.5196098166369" lon="9.019221436169634"><ele>153.0</ele><time>2026-04-18T08:08:18Z</time></trkpt><trkpt lat="45.51958407765054" lon="9.019021108225147"><ele>153.0</ele><time>2026-04-18T08:08:19Z</time></trkpt><trkpt lat="45.51955020227755" lon="9.01881774353739"><ele>153.0</ele><time>2026-04-18T08:08:20Z</time></trkpt><trkpt lat="45.51951940557544" lon="9.018612938206513"><ele>153.0</ele><time>2026-04-18T08:08:21Z</time></trkpt><trkpt lat="45.519491246250226" lon="9.018411002935212"><ele>152.75</ele><time>2026-04-18T08:08:22Z</time></trkpt><trkpt lat="45.51950254067581" lon="9.01822389696669"><ele>152.5</ele><time>2026-04-18T08:08:23Z</time></trkpt><trkpt lat="45.51950654173814" lon="9.018047959345397"><ele>152.25</ele><time>2026-04-18T08:08:24Z</time></trkpt><trkpt lat="45.519509981159544" lon="9.017878698347914"><ele>152.0</ele><time>2026-04-18T08:08:25Z</time></trkpt><trkpt lat="45.5195507930344" lon="9.017710824345532"><ele>152.25</ele><time>2026-04-18T08:08:26Z</time></trkpt><trkpt lat="45.51958649186863" lon="9.01753302704572"><ele>152.5</ele><time>2026-04-18T08:08:27Z</time></trkpt><trkpt lat="45.51962262034936" lon="9.017353012342516"><ele>152.75</ele><time>2026-04-18T08:08:28Z</time></trkpt><trkpt lat="45.519694318180335" lon="9.017209244450422"><ele>153.0</ele><time>2026-04-18T08:08:29Z</time></trkpt><trkpt lat="45.51969877449434" lon="9.01705398388423"><ele>153.0</ele><time>2026-04-18T08:08:30Z</time></trkpt><trkpt lat="45.51966663830185" lon="9.01691232837961"><ele>153.0</ele><time>2026-04-18T08:08:31Z</time></trkpt><trkpt lat="45.51959466314445" lon="9.016777233292432"><ele>153.0</ele><time>2026-04-18T08:08:32Z</time></trkpt><trkpt lat="45.51949245118418" lon="9.016673979718037"><ele>153.0</ele><time>2026-04-18T08:08:33Z</time></trkpt><trkpt lat="45.519372285588965" lon="9.016603988186317"><ele>152.75</ele><time>2026-04-18T08:08:34Z</time></trkpt><trkpt lat="45.51923880125389" lon="9.016585144794776"><ele>152.5</ele><time>2026-04-18T08:08:35Z</time></trkpt><trkpt lat="45.519111851179645" lon="9.016658411805945"><ele>152.25</ele><time>2026-04-18T08:08:36Z</time></trkpt><trkpt lat="45.51896881719114" lon="9.016712135258961"><ele>152.0</ele><time>2026-04-18T08:08:37Z</time></trkpt><trkpt lat="45.51882739693449" lon="9.016757313418506"><ele>152.66666666666666</ele><time>2026-04-18T08:08:38Z</time></trkpt><trkpt lat="45.51866792362731" lon="9.016760507661854"><ele>153.33333333333334</ele><time>2026-04-18T08:08:39Z</time></trkpt><trkpt lat="45.51850770953025" lon="9.016809213103155"><ele>154.0</ele><time>2026-04-18T08:08:40Z</time></trkpt><trkpt lat="45.51832504611905" lon="9.016763923546621"><ele>154.0</ele><time>2026-04-18T08:08:41Z</time></trkpt><trkpt lat="45.51814657918551" lon="9.016776525008268"><ele>154.0</ele><time>2026-04-18T08:08:42Z</time></trkpt><trkpt lat="45.51797978556797" lon="9.016787213180335"><ele>154.0</ele><time>2026-04-18T08:08:43Z</time></trkpt><trkpt lat="45.51782500229477" lon="9.016796729909798"><ele>154.0</ele><time>2026-04-18T08:08:44Z</time></trkpt><trkpt lat="45.51767058283007" lon="9.016790398842977"><ele>154.0</ele><time>2026-04-18T08:08:45Z</time></trkpt><trkpt lat="45.5175511812439" lon="9.016814696322752"><ele>154.0</ele><time>2026-04-18T08:08:46Z</time></trkpt><trkpt lat="45.51743318095117" lon="9.016828061038344"><ele>154.0</ele><time>2026-04-18T08:08:47Z</time></trkpt><trkpt lat="45.51732018250489" lon="9.016824711031886"><ele>154.0</ele><time>2026-04-18T08:08:48Z</time></trkpt><trkpt lat="45.51720912332375" lon="9.016813032537328"><ele>154.0</ele><time>2026-04-18T08:08:49Z</time></trkpt><trkpt lat="45.51710308834348" lon="9.016767188741838"><ele>154.0</ele><time>2026-04-18T08:08:50Z</time></trkpt><trkpt lat="45.517015359204365" lon="9.016658409653632"><ele>154.0</ele><time>2026-04-18T08:08:51Z</time></trkpt><trkpt lat="45.51693425309477" lon="9.016581455222363"><ele>154.0</ele><time>2026-04-18T08:08:52Z</time></trkpt><trkpt lat="45.51683224281466" lon="9.016587712186826"><ele>152.5</ele><time>2026-04-18T08:08:53Z</time></trkpt><trkpt lat="45.516757819880596" lon="9.016725077171175"><ele>151.0</ele><time>2026-04-18T08:08:54Z</time></trkpt><trkpt lat="45.51671110028016" lon="9.016862761217851"><ele>149.5</ele><time>2026-04-18T08:08:55Z</time></trkpt><trkpt lat="45.51654305763449" lon="9.016876547222841"><ele>148.0</ele><time>2026-04-18T08:08:56Z</time></trkpt><trkpt lat="45.51641805947114" lon="9.016901242285076"><ele>148.0</ele><time>2026-04-18T08:08:57.001Z</time></trkpt><trkpt lat="45.51628413479416" lon="9.01691736205282"><ele>148.0</ele><time>2026-04-18T08:08:58.001Z</time></trkpt><trkpt lat="45.51614387815489" lon="9.016949981173155"><ele>148.0</ele><time>2026-04-18T08:08:59.001Z</time></trkpt><trkpt lat="45.515999449209964" lon="9.017000450192738"><ele>148.0</ele><time>2026-04-18T08:09:00.001Z</time></trkpt><trkpt lat="45.51584415848355" lon="9.017061707091312"><ele>148.33333333333334</ele><time>2026-04-18T08:09:01.001Z</time></trkpt><trkpt lat="45.515685487272094" lon="9.017135628571635"><ele>148.66666666666666</ele><time>2026-04-18T08:09:02.001Z</time></trkpt><trkpt lat="45.51552159421374" lon="9.017214835714027"><ele>149.0</ele><time>2026-04-18T08:09:03.001Z</time></trkpt><trkpt lat="45.515356149327935" lon="9.017307367478612"><ele>149.33333333333331</ele><time>2026-04-18T08:09:04.001Z</time></trkpt><trkpt lat="45.51520219185386" lon="9.017416429382948"><ele>149.66666666666666</ele><time>2026-04-18T08:09:05.001Z</time></trkpt><trkpt lat="45.51503401713519" lon="9.017554417936044"><ele>150.0</ele><time>2026-04-18T08:09:06.001Z</time></trkpt><trkpt lat="45.51486324076674" lon="9.017687921973339"><ele>150.0</ele><time>2026-04-18T08:09:07.001Z</time></trkpt><trkpt lat="45.51469632898467" lon="9.01778645581481"><ele>150.0</ele><time>2026-04-18T08:09:08.001Z</time></trkpt><trkpt lat="45.51451681597195" lon="9.017927527261774"><ele>150.0</ele><time>2026-04-18T08:09:09.001Z</time></trkpt><trkpt lat="45.514341338288204" lon="9.018055938668196"><ele>150.0</ele><time>2026-04-18T08:09:10.001Z</time></trkpt><trkpt lat="45.51416657728893" lon="9.018184392645407"><ele>150.0</ele><time>2026-04-18T08:09:11.001Z</time></trkpt><trkpt lat="45.51399199755089" lon="9.018309375895877"><ele>150.0</ele><time>2026-04-18T08:09:12.001Z</time></trkpt><trkpt lat="45.51381871666179" lon="9.01843522374356"><ele>150.33333333333334</ele><time>2026-04-18T08:09:13.001Z</time></trkpt><trkpt lat="45.51365219910703" lon="9.018550698877903"><ele>150.66666666666669</ele><time>2026-04-18T08:09:14.001Z</time></trkpt><trkpt lat="45.513506271941196" lon="9.018655436318468"><ele>151.0</ele><time>2026-04-18T08:09:15.001Z</time></trkpt><trkpt lat="45.513367906621184" lon="9.018748553950502"><ele>151.0</ele><time>2026-04-18T08:09:16.001Z</time></trkpt><trkpt lat="45.51323247997899" lon="9.01884162807"><ele>151.0</ele><time>2026-04-18T08:09:17.001Z</time></trkpt><trkpt lat="45.513096646792256" lon="9.018932885436309"><ele>151.0</ele><time>2026-04-18T08:09:18.001Z</time></trkpt><trkpt lat="45.51295568342727" lon="9.01903265604375"><ele>151.0</ele><time>2026-04-18T08:09:19.001Z</time></trkpt><trkpt lat="45.51281415353244" lon="9.019135368970916"><ele>151.0</ele><time>2026-04-18T08:09:20.001Z</time></trkpt><trkpt lat="45.51266743177925" lon="9.019246075137847"><ele>151.0</ele><time>2026-04-18T08:09:21.001Z</time></trkpt><trkpt lat="45.51251865545368" lon="9.019354714810188"><ele>151.0</ele><time>2026-04-18T08:09:22.001Z</time></trkpt><trkpt lat="45.51236732341367" lon="9.019461624250232"><ele>151.0</ele><time>2026-04-18T08:09:23.001Z</time></trkpt><trkpt lat="45.512213860031025" lon="9.019571880165696"><ele>151.0</ele><time>2026-04-18T08:09:24.001Z</time></trkpt><trkpt lat="45.512067092757285" lon="9.01969207951452"><ele>151.0</ele><time>2026-04-18T08:09:25.001Z</time></trkpt><trkpt lat="45.51192340133207" lon="9.019809522789073"><ele>151.0</ele><time>2026-04-18T08:09:26.001Z</time></trkpt><trkpt lat="45.511781926162406" lon="9.019930285651949"><ele>151.0</ele><time>2026-04-18T08:09:27.001Z</time></trkpt><trkpt lat="45.511650117997405" lon="9.020056516013891"><ele>150.5</ele><time>2026-04-18T08:09:28.001Z</time></trkpt><trkpt lat="45.51153194480788" lon="9.020187663014152"><ele>150.0</ele><time>2026-04-18T08:09:29.001Z</time></trkpt><trkpt lat="45.51142353862064" lon="9.020306721791588"><ele>149.5</ele><time>2026-04-18T08:09:30.001Z</time></trkpt><trkpt lat="45.51132129930523" lon="9.020428991965588"><ele>149.0</ele><time>2026-04-18T08:09:31.001Z</time></trkpt><trkpt lat="45.511224278444274" lon="9.020528860032748"><ele>149.0</ele><time>2026-04-18T08:09:32.001Z</time></trkpt><trkpt lat="45.51113226606137" lon="9.020629779016152"><ele>149.0</ele><time>2026-04-18T08:09:33.001Z</time></trkpt><trkpt lat="45.51104510118882" lon="9.020725748522427"><ele>149.0</ele><time>2026-04-18T08:09:34.001Z</time></trkpt><trkpt lat="45.51096418064076" lon="9.020814948019684"><ele>149.0</ele><time>2026-04-18T08:09:35.001Z</time></trkpt><trkpt lat="45.510887515945505" lon="9.02089517945007"><ele>149.0</ele><time>2026-04-18T08:09:36.001Z</time></trkpt><trkpt lat="45.51081396185398" lon="9.020973921254429"><ele>149.0</ele><time>2026-04-18T08:09:37.001Z</time></trkpt><trkpt lat="45.51073932826636" lon="9.021055357402775"><ele>149.0</ele><time>2026-04-18T08:09:38.001Z</time></trkpt><trkpt lat="45.510659028682724" lon="9.021145860282822"><ele>149.0</ele><time>2026-04-18T08:09:39.001Z</time></trkpt><trkpt lat="45.51058597156461" lon="9.021229359956576"><ele>149.0</ele><time>2026-04-18T08:09:40.001Z</time></trkpt><trkpt lat="45.51051585286786" lon="9.021305314979092"><ele>149.0</ele><time>2026-04-18T08:09:41.001Z</time></trkpt><trkpt lat="45.510449410418474" lon="9.02136855690092"><ele>149.0</ele><time>2026-04-18T08:09:42.001Z</time></trkpt><trkpt lat="45.51037907314732" lon="9.021422375354806"><ele>149.0</ele><time>2026-04-18T08:09:42.998Z</time></trkpt><trkpt lat="45.51031473371702" lon="9.021452753235675"><ele>149.0</ele><time>2026-04-18T08:09:43.998Z</time></trkpt><trkpt lat="45.51019500593722" lon="9.021460566054293"><ele>149.0</ele><time>2026-04-18T08:09:45.999Z</time></trkpt><trkpt lat="45.51005271419201" lon="9.021429897989954"><ele>149.0</ele><time>2026-04-18T08:09:47.999Z</time></trkpt><trkpt lat="45.50997636143276" lon="9.021435993792988"><ele>149.0</ele><time>2026-04-18T08:09:48.999Z</time></trkpt><trkpt lat="45.50990939849049" lon="9.021463871724578"><ele>149.0</ele><time>2026-04-18T08:09:49.999Z</time></trkpt><trkpt lat="45.50984030505516" lon="9.021535903202118"><ele>149.0</ele><time>2026-04-18T08:09:50.999Z</time></trkpt><trkpt lat="45.509782500007525" lon="9.02161333396453"><ele>149.0</ele><time>2026-04-18T08:09:51.999Z</time></trkpt><trkpt lat="45.50962916228571" lon="9.021457474182752"><ele>149.0</ele><time>2026-04-18T08:09:53.999Z</time></trkpt><trkpt lat="45.50962262974719" lon="9.021318441922611"><ele>149.0</ele><time>2026-04-18T08:09:54.999Z</time></trkpt><trkpt lat="45.509582601333776" lon="9.021194277595068"><ele>149.0</ele><time>2026-04-18T08:09:55.999Z</time></trkpt><trkpt lat="45.50954007317207" lon="9.021066964391547"><ele>149.0</ele><time>2026-04-18T08:09:56.999Z</time></trkpt><trkpt lat="45.5095489455847" lon="9.020887946084068"><ele>149.0</ele><time>2026-04-18T08:09:57.999Z</time></trkpt><trkpt lat="45.50954024564495" lon="9.020742328869812"><ele>149.0</ele><time>2026-04-18T08:09:58.999Z</time></trkpt><trkpt lat="45.509534859974664" lon="9.020613747437785"><ele>149.0</ele><time>2026-04-18T08:09:59.999Z</time></trkpt><trkpt lat="45.50952281101589" lon="9.020487334982088"><ele>149.0</ele><time>2026-04-18T08:10:00.999Z</time></trkpt><trkpt lat="45.509500692172466" lon="9.020346435455844"><ele>149.0</ele><time>2026-04-18T08:10:01.999Z</time></trkpt><trkpt lat="45.50947117264838" lon="9.020214406401031"><ele>149.0</ele><time>2026-04-18T08:10:02.999Z</time></trkpt><trkpt lat="45.50943528380025" lon="9.020092857732648"><ele>149.0</ele><time>2026-04-18T08:10:03.999Z</time></trkpt><trkpt lat="45.509394713919015" lon="9.019981533773247"><ele>149.0</ele><time>2026-04-18T08:10:04.999Z</time></trkpt><trkpt lat="45.509347858590665" lon="9.019869735637151"><ele>149.0</ele><time>2026-04-18T08:10:05.999Z</time></trkpt><trkpt lat="45.509300222067154" lon="9.019753164045545"><ele>149.0</ele><time>2026-04-18T08:10:06.999Z</time></trkpt><trkpt lat="45.50925183729762" lon="9.019625068201579"><ele>149.0</ele><time>2026-04-18T08:10:07.999Z</time></trkpt><trkpt lat="45.50920382877541" lon="9.01948593235476"><ele>149.0</ele><time>2026-04-18T08:10:08.999Z</time></trkpt><trkpt lat="45.50915196113604" lon="9.019332756377503"><ele>149.0</ele><time>2026-04-18T08:10:09.999Z</time></trkpt><trkpt lat="45.50909641641699" lon="9.019165301933036"><ele>149.0</ele><time>2026-04-18T08:10:10.999Z</time></trkpt><trkpt lat="45.50903907162322" lon="9.018992405421763"><ele>149.0</ele><time>2026-04-18T08:10:12Z</time></trkpt><trkpt lat="45.508978368041994" lon="9.018817718598948"><ele>149.0</ele><time>2026-04-18T08:10:13Z</time></trkpt><trkpt lat="45.508911762532314" lon="9.018632279654035"><ele>149.0</ele><time>2026-04-18T08:10:14Z</time></trkpt><trkpt lat="45.508846025999034" lon="9.018447753421174"><ele>149.0</ele><time>2026-04-18T08:10:15Z</time></trkpt><trkpt lat="45.50877581275065" lon="9.01826568858369"><ele>149.0</ele><time>2026-04-18T08:10:16Z</time></trkpt><trkpt lat="45.508695230649714" lon="9.018092846433678"><ele>149.0</ele><time>2026-04-18T08:10:17Z</time></trkpt><trkpt lat="45.50859301752938" lon="9.017941174231984"><ele>149.33333333333331</ele><time>2026-04-18T08:10:18Z</time></trkpt><trkpt lat="45.50847152746733" lon="9.01781069428847"><ele>149.66666666666666</ele><time>2026-04-18T08:10:19Z</time></trkpt><trkpt lat="45.50833494881881" lon="9.017702135782725"><ele>150.0</ele><time>2026-04-18T08:10:20Z</time></trkpt><trkpt lat="45.50819238962278" lon="9.017619214677474"><ele>150.0</ele><time>2026-04-18T08:10:21Z</time></trkpt><trkpt lat="45.50805122142001" lon="9.017544971626418"><ele>150.0</ele><time>2026-04-18T08:10:22Z</time></trkpt><trkpt lat="45.50790862100417" lon="9.017465897015255"><ele>150.0</ele><time>2026-04-18T08:10:23Z</time></trkpt><trkpt lat="45.507766796645136" lon="9.017381541149255"><ele>149.66666666666666</ele><time>2026-04-18T08:10:24.017Z</time></trkpt><trkpt lat="45.50762547493732" lon="9.01729948866508"><ele>149.33333333333331</ele><time>2026-04-18T08:10:25.014Z</time></trkpt><trkpt lat="45.507480666885506" lon="9.017219842649268"><ele>149.0</ele><time>2026-04-18T08:10:26.025Z</time></trkpt><trkpt lat="45.50733883444583" lon="9.017171468851599"><ele>149.0</ele><time>2026-04-18T08:10:27.016Z</time></trkpt><trkpt lat="45.50720273207633" lon="9.017107603232205"><ele>149.0</ele><time>2026-04-18T08:10:28.017Z</time></trkpt><trkpt lat="45.50707276579177" lon="9.017048990365348"><ele>149.0</ele><time>2026-04-18T08:10:29Z</time></trkpt><trkpt lat="45.50692257921232" lon="9.017016610897423"><ele>149.0</ele><time>2026-04-18T08:10:31Z</time></trkpt><trkpt lat="45.506800047217396" lon="9.016966953332446"><ele>148.0</ele><time>2026-04-18T08:10:32Z</time></trkpt><trkpt lat="45.50667828389341" lon="9.01693984537205"><ele>147.0</ele><time>2026-04-18T08:10:33Z</time></trkpt><trkpt lat="45.50654871394746" lon="9.016910489937416"><ele>146.0</ele><time>2026-04-18T08:10:34Z</time></trkpt><trkpt lat="45.50643160556511" lon="9.016893374622072"><ele>145.0</ele><time>2026-04-18T08:10:35Z</time></trkpt><trkpt lat="45.506309029928474" lon="9.016880592755204"><ele>145.75</ele><time>2026-04-18T08:10:36Z</time></trkpt><trkpt lat="45.50619133512836" lon="9.016881098125666"><ele>146.5</ele><time>2026-04-18T08:10:37Z</time></trkpt><trkpt lat="45.506070888650925" lon="9.016888876517474"><ele>147.25</ele><time>2026-04-18T08:10:38Z</time></trkpt><trkpt lat="45.50595230623431" lon="9.016902065797215"><ele>148.0</ele><time>2026-04-18T08:10:39Z</time></trkpt><trkpt lat="45.505833350741305" lon="9.016926086654099"><ele>148.0</ele><time>2026-04-18T08:10:40Z</time></trkpt><trkpt lat="45.50571161937793" lon="9.016965732105762"><ele>148.0</ele><time>2026-04-18T08:10:41Z</time></trkpt><trkpt lat="45.50558627098835" lon="9.017013780041912"><ele>148.0</ele><time>2026-04-18T08:10:42Z</time></trkpt><trkpt lat="45.5054620145796" lon="9.017066669733191"><ele>148.0</ele><time>2026-04-18T08:10:43Z</time></trkpt><trkpt lat="45.5053359529095" lon="9.01712345353731"><ele>147.5</ele><time>2026-04-18T08:10:44Z</time></trkpt><trkpt lat="45.50520767153821" lon="9.017187209396068"><ele>147.0</ele><time>2026-04-18T08:10:45Z</time></trkpt><trkpt lat="45.50508211327318" lon="9.017254806671996"><ele>146.5</ele><time>2026-04-18T08:10:46Z</time></trkpt><trkpt lat="45.504970395006794" lon="9.017329850578959"><ele>146.0</ele><time>2026-04-18T08:10:47Z</time></trkpt><trkpt lat="45.50486852018975" lon="9.017392435555392"><ele>146.0</ele><time>2026-04-18T08:10:48.001Z</time></trkpt><trkpt lat="45.50476990580632" lon="9.017446831255864"><ele>146.0</ele><time>2026-04-18T08:10:49.001Z</time></trkpt><trkpt lat="45.504673214178666" lon="9.017493521202944"><ele>146.0</ele><time>2026-04-18T08:10:50.001Z</time></trkpt><trkpt lat="45.50457265015466" lon="9.01754739279923"><ele>146.0</ele><time>2026-04-18T08:10:51.001Z</time></trkpt><trkpt lat="45.50446709817547" lon="9.017594557831488"><ele>146.0</ele><time>2026-04-18T08:10:52.001Z</time></trkpt><trkpt lat="45.504356694729616" lon="9.017540765660469"><ele>146.0</ele><time>2026-04-18T08:10:53.001Z</time></trkpt><trkpt lat="45.504257035774124" lon="9.017575333238"><ele>146.0</ele><time>2026-04-18T08:10:54.001Z</time></trkpt><trkpt lat="45.504175839019325" lon="9.017623998192809"><ele>146.0</ele><time>2026-04-18T08:10:55.001Z</time></trkpt><trkpt lat="45.5041186074771" lon="9.017717601635049"><ele>146.0</ele><time>2026-04-18T08:10:56.001Z</time></trkpt><trkpt lat="45.50411059459218" lon="9.017857704732739"><ele>146.0</ele><time>2026-04-18T08:10:57.001Z</time></trkpt><trkpt lat="45.5040430732166" lon="9.017977345869058"><ele>146.0</ele><time>2026-04-18T08:10:58.001Z</time></trkpt><trkpt lat="45.50398767344619" lon="9.01810844828655"><ele>146.0</ele><time>2026-04-18T08:10:59.001Z</time></trkpt><trkpt lat="45.503943475596124" lon="9.018250093191995"><ele>146.0</ele><time>2026-04-18T08:11:00.001Z</time></trkpt><trkpt lat="45.50381718964793" lon="9.018330485853065"><ele>146.0</ele><time>2026-04-18T08:11:01.001Z</time></trkpt><trkpt lat="45.503716574906036" lon="9.018428604653709"><ele>146.5</ele><time>2026-04-18T08:11:02.001Z</time></trkpt><trkpt lat="45.50361126779826" lon="9.018524852819453"><ele>147.0</ele><time>2026-04-18T08:11:03.001Z</time></trkpt><trkpt lat="45.50350768352117" lon="9.01862319453415"><ele>147.5</ele><time>2026-04-18T08:11:04.001Z</time></trkpt><trkpt lat="45.503403419674086" lon="9.018722471523656"><ele>148.0</ele><time>2026-04-18T08:11:05.001Z</time></trkpt><trkpt lat="45.50329831590532" lon="9.01881957570173"><ele>148.0</ele><time>2026-04-18T08:11:06.001Z</time></trkpt><trkpt lat="45.50318971571736" lon="9.018899990852669"><ele>148.0</ele><time>2026-04-18T08:11:07.001Z</time></trkpt><trkpt lat="45.503084003893925" lon="9.01895531048801"><ele>148.0</ele><time>2026-04-18T08:11:08.001Z</time></trkpt><trkpt lat="45.5029840542387" lon="9.018990684164638"><ele>148.0</ele><time>2026-04-18T08:11:09.001Z</time></trkpt><trkpt lat="45.50288971687083" lon="9.019021091876992"><ele>148.0</ele><time>2026-04-18T08:11:10.001Z</time></trkpt><trkpt lat="45.50279820540656" lon="9.019051652899247"><ele>147.66666666666669</ele><time>2026-04-18T08:11:11.001Z</time></trkpt><trkpt lat="45.50270606693414" lon="9.019086920761392"><ele>147.33333333333334</ele><time>2026-04-18T08:11:12.001Z</time></trkpt><trkpt lat="45.50261393466446" lon="9.019123401993344"><ele>147.0</ele><time>2026-04-18T08:11:13.001Z</time></trkpt><trkpt lat="45.50252546904014" lon="9.019156514291259"><ele>146.66666666666666</ele><time>2026-04-18T08:11:14.001Z</time></trkpt><trkpt lat="45.5024443134693" lon="9.019183145507592"><ele>146.33333333333331</ele><time>2026-04-18T08:11:15.001Z</time></trkpt><trkpt lat="45.502369753386425" lon="9.019198134827489"><ele>146.0</ele><time>2026-04-18T08:11:16.001Z</time></trkpt><trkpt lat="45.50229508661066" lon="9.019170306246469"><ele>146.0</ele><time>2026-04-18T08:11:17.001Z</time></trkpt><trkpt lat="45.50222198785575" lon="9.019140835492228"><ele>146.0</ele><time>2026-04-18T08:11:18.001Z</time></trkpt><trkpt lat="45.50214766763954" lon="9.019106908486014"><ele>146.0</ele><time>2026-04-18T08:11:19.001Z</time></trkpt><trkpt lat="45.5020714772972" lon="9.019179280909974"><ele>146.0</ele><time>2026-04-18T08:11:20.001Z</time></trkpt><trkpt lat="45.50199627646411" lon="9.019264124802751"><ele>146.0</ele><time>2026-04-18T08:11:21.001Z</time></trkpt><trkpt lat="45.50190806315948" lon="9.01936397117999"><ele>146.0</ele><time>2026-04-18T08:11:22.001Z</time></trkpt><trkpt lat="45.50179851542042" lon="9.019424135243623"><ele>146.0</ele><time>2026-04-18T08:11:23.001Z</time></trkpt><trkpt lat="45.50167319250871" lon="9.019466398101706"><ele>146.0</ele><time>2026-04-18T08:11:24.001Z</time></trkpt><trkpt lat="45.501538463944264" lon="9.019509906747324"><ele>146.0</ele><time>2026-04-18T08:11:25.001Z</time></trkpt><trkpt lat="45.501398897625435" lon="9.019560604027093"><ele>146.0</ele><time>2026-04-18T08:11:26.001Z</time></trkpt><trkpt lat="45.50125143597252" lon="9.019614068032654"><ele>146.0</ele><time>2026-04-18T08:11:27.001Z</time></trkpt><trkpt lat="45.501103336277474" lon="9.019666254788532"><ele>146.0</ele><time>2026-04-18T08:11:28.001Z</time></trkpt><trkpt lat="45.50096720539415" lon="9.019713231569428"><ele>146.0</ele><time>2026-04-18T08:11:29.001Z</time></trkpt><trkpt lat="45.50084068409222" lon="9.019752675617372"><ele>146.25</ele><time>2026-04-18T08:11:30.001Z</time></trkpt><trkpt lat="45.500720833410135" lon="9.019785473455185"><ele>146.5</ele><time>2026-04-18T08:11:31.001Z</time></trkpt><trkpt lat="45.50060699851962" lon="9.01980694196411"><ele>146.75</ele><time>2026-04-18T08:11:32.002Z</time></trkpt><trkpt lat="45.500502529372866" lon="9.019827993754221"><ele>147.0</ele><time>2026-04-18T08:11:33.002Z</time></trkpt><trkpt lat="45.50039427834103" lon="9.01988538394425"><ele>147.0</ele><time>2026-04-18T08:11:34.002Z</time></trkpt><trkpt lat="45.50027315449956" lon="9.019950618471174"><ele>147.0</ele><time>2026-04-18T08:11:35.002Z</time></trkpt><trkpt lat="45.50014657380919" lon="9.020012000086783"><ele>147.0</ele><time>2026-04-18T08:11:36.002Z</time></trkpt><trkpt lat="45.5000148383706" lon="9.020068917517428"><ele>147.0</ele><time>2026-04-18T08:11:37.002Z</time></trkpt><trkpt lat="45.49987750761765" lon="9.020121776633864"><ele>146.33333333333334</ele><time>2026-04-18T08:11:38.002Z</time></trkpt><trkpt lat="45.49973364680795" lon="9.02017129482982"><ele>145.66666666666669</ele><time>2026-04-18T08:11:39.002Z</time></trkpt><trkpt lat="45.49958742959991" lon="9.020221095491388"><ele>145.0</ele><time>2026-04-18T08:11:40.002Z</time></trkpt><trkpt lat="45.499437534551966" lon="9.020270796076447"><ele>144.33333333333334</ele><time>2026-04-18T08:11:41.002Z</time></trkpt><trkpt lat="45.49928678374713" lon="9.020322610180562"><ele>143.66666666666666</ele><time>2026-04-18T08:11:42.002Z</time></trkpt><trkpt lat="45.49913458344793" lon="9.0203761354881"><ele>143.0</ele><time>2026-04-18T08:11:43.002Z</time></trkpt><trkpt lat="45.49898144816223" lon="9.020430285584148"><ele>143.0</ele><time>2026-04-18T08:11:44.002Z</time></trkpt><trkpt lat="45.4988377591634" lon="9.020480897956917"><ele>143.0</ele><time>2026-04-18T08:11:45.002Z</time></trkpt><trkpt lat="45.49870894732313" lon="9.020527019952922"><ele>143.0</ele><time>2026-04-18T08:11:46.002Z</time></trkpt><trkpt lat="45.49859035235629" lon="9.02056887661261"><ele>143.0</ele><time>2026-04-18T08:11:47.002Z</time></trkpt><trkpt lat="45.4984820601483" lon="9.020606411737363"><ele>142.6</ele><time>2026-04-18T08:11:48.002Z</time></trkpt><trkpt lat="45.498384936002225" lon="9.020642132526769"><ele>142.20000000000002</ele><time>2026-04-18T08:11:48.999Z</time></trkpt><trkpt lat="45.49829076240721" lon="9.020675214735745"><ele>141.8</ele><time>2026-04-18T08:11:49.999Z</time></trkpt><trkpt lat="45.49820357576948" lon="9.020704264450426"><ele>141.4</ele><time>2026-04-18T08:11:50.999Z</time></trkpt><trkpt lat="45.498119450657725" lon="9.020719606019526"><ele>141.0</ele><time>2026-04-18T08:11:51.999Z</time></trkpt><trkpt lat="45.498039731592044" lon="9.02072889639121"><ele>141.0</ele><time>2026-04-18T08:11:52.999Z</time></trkpt><trkpt lat="45.49795839960955" lon="9.020730948841347"><ele>141.0</ele><time>2026-04-18T08:11:53.999Z</time></trkpt><trkpt lat="45.49787670925732" lon="9.020673849501694"><ele>141.0</ele><time>2026-04-18T08:11:54.999Z</time></trkpt><trkpt lat="45.49777319289591" lon="9.020729996904802"><ele>141.0</ele><time>2026-04-18T08:11:55.999Z</time></trkpt><trkpt lat="45.49768389440217" lon="9.020839122072859"><ele>141.0</ele><time>2026-04-18T08:11:56.999Z</time></trkpt><trkpt lat="45.497584327879274" lon="9.020893600213574"><ele>141.5</ele><time>2026-04-18T08:11:57.999Z</time></trkpt><trkpt lat="45.49746828465151" lon="9.020929919881556"><ele>142.0</ele><time>2026-04-18T08:11:58.999Z</time></trkpt><trkpt lat="45.49734672630403" lon="9.02096210047619"><ele>142.5</ele><time>2026-04-18T08:11:59.999Z</time></trkpt><trkpt lat="45.49721973115327" lon="9.020995214795695"><ele>143.0</ele><time>2026-04-18T08:12:00.999Z</time></trkpt><trkpt lat="45.49708861790103" lon="9.021024051556989"><ele>143.5</ele><time>2026-04-18T08:12:01.999Z</time></trkpt><trkpt lat="45.49695119851479" lon="9.021045307749596"><ele>144.0</ele><time>2026-04-18T08:12:02.999Z</time></trkpt><trkpt lat="45.49681798446824" lon="9.021065380068217"><ele>144.5</ele><time>2026-04-18T08:12:03.999Z</time></trkpt><trkpt lat="45.49669185071122" lon="9.021086937279119"><ele>145.0</ele><time>2026-04-18T08:12:04.999Z</time></trkpt><trkpt lat="45.49657628301359" lon="9.021103451810975"><ele>145.0</ele><time>2026-04-18T08:12:05.999Z</time></trkpt><trkpt lat="45.4964705584417" lon="9.021116850057687"><ele>145.0</ele><time>2026-04-18T08:12:06.999Z</time></trkpt><trkpt lat="45.49636846757058" lon="9.021127606210365"><ele>145.0</ele><time>2026-04-18T08:12:07.999Z</time></trkpt><trkpt lat="45.496267556300175" lon="9.021142254511037"><ele>145.0</ele><time>2026-04-18T08:12:08.999Z</time></trkpt><trkpt lat="45.496159218041626" lon="9.021158666222528"><ele>145.0</ele><time>2026-04-18T08:12:10Z</time></trkpt><trkpt lat="45.49604475647863" lon="9.02117713556553"><ele>144.75</ele><time>2026-04-18T08:12:11Z</time></trkpt><trkpt lat="45.49592543789103" lon="9.021193353418333"><ele>144.5</ele><time>2026-04-18T08:12:12Z</time></trkpt><trkpt lat="45.4958031575918" lon="9.021209306677912"><ele>144.25</ele><time>2026-04-18T08:12:13Z</time></trkpt><trkpt lat="45.495677518726865" lon="9.021224697727492"><ele>144.0</ele><time>2026-04-18T08:12:14Z</time></trkpt><trkpt lat="45.495549188621" lon="9.021238807806348"><ele>143.5</ele><time>2026-04-18T08:12:15Z</time></trkpt><trkpt lat="45.495419715291874" lon="9.021258143850048"><ele>143.0</ele><time>2026-04-18T08:12:16Z</time></trkpt><trkpt lat="45.495291100705785" lon="9.021278992007906"><ele>142.5</ele><time>2026-04-18T08:12:17Z</time></trkpt><trkpt lat="45.49515728193389" lon="9.021297915302563"><ele>142.0</ele><time>2026-04-18T08:12:18Z</time></trkpt><trkpt lat="45.495029995465835" lon="9.021315450719426"><ele>142.0</ele><time>2026-04-18T08:12:19Z</time></trkpt><trkpt lat="45.49491550039395" lon="9.021326538338224"><ele>142.0</ele><time>2026-04-18T08:12:20Z</time></trkpt><trkpt lat="45.49481103072143" lon="9.021340818813359"><ele>142.0</ele><time>2026-04-18T08:12:21Z</time></trkpt><trkpt lat="45.494713145079636" lon="9.021355677853364"><ele>142.0</ele><time>2026-04-18T08:12:22Z</time></trkpt><trkpt lat="45.49461851636738" lon="9.021370370715442"><ele>142.0</ele><time>2026-04-18T08:12:23Z</time></trkpt><trkpt lat="45.4945275226074" lon="9.021382113223908"><ele>142.2</ele><time>2026-04-18T08:12:24Z</time></trkpt><trkpt lat="45.49443484827891" lon="9.021394750078425"><ele>142.39999999999998</ele><time>2026-04-18T08:12:25Z</time></trkpt><trkpt lat="45.49434612913647" lon="9.021406890250576"><ele>142.60000000000002</ele><time>2026-04-18T08:12:26Z</time></trkpt><trkpt lat="45.494254598379655" lon="9.021418115399126"><ele>142.8</ele><time>2026-04-18T08:12:27Z</time></trkpt><trkpt lat="45.4941566033954" lon="9.021427777542987"><ele>143.0</ele><time>2026-04-18T08:12:28Z</time></trkpt><trkpt lat="45.494061306046824" lon="9.0214355746714"><ele>143.0</ele><time>2026-04-18T08:12:29Z</time></trkpt><trkpt lat="45.49396360432181" lon="9.021444460408013"><ele>143.0</ele><time>2026-04-18T08:12:30Z</time></trkpt><trkpt lat="45.493861464130866" lon="9.021445510093185"><ele>143.0</ele><time>2026-04-18T08:12:31Z</time></trkpt><trkpt lat="45.4937496871131" lon="9.02142280849786"><ele>143.0</ele><time>2026-04-18T08:12:32Z</time></trkpt><trkpt lat="45.49363180313332" lon="9.021405278647162"><ele>143.0</ele><time>2026-04-18T08:12:33Z</time></trkpt><trkpt lat="45.493541110724024" lon="9.021498759437279"><ele>143.0</ele><time>2026-04-18T08:12:34Z</time></trkpt><trkpt lat="45.49344854502775" lon="9.021533331322301"><ele>143.0</ele><time>2026-04-18T08:12:35Z</time></trkpt><trkpt lat="45.493358254984656" lon="9.0215519490229"><ele>143.0</ele><time>2026-04-18T08:12:36Z</time></trkpt><trkpt lat="45.493277732504" lon="9.021565915747008"><ele>143.0</ele><time>2026-04-18T08:12:37Z</time></trkpt><trkpt lat="45.49319562907606" lon="9.02157749911939"><ele>143.0</ele><time>2026-04-18T08:12:38Z</time></trkpt><trkpt lat="45.49310318678294" lon="9.021587566182363"><ele>143.0</ele><time>2026-04-18T08:12:39Z</time></trkpt><trkpt lat="45.49300376014397" lon="9.021598189257945"><ele>142.8</ele><time>2026-04-18T08:12:40.001Z</time></trkpt><trkpt lat="45.49290021772279" lon="9.021609418739969"><ele>142.60000000000002</ele><time>2026-04-18T08:12:41.001Z</time></trkpt><trkpt lat="45.49279741836252" lon="9.021624342089341"><ele>142.39999999999998</ele><time>2026-04-18T08:12:42.001Z</time></trkpt><trkpt lat="45.492693753462625" lon="9.021638668783718"><ele>142.2</ele><time>2026-04-18T08:12:43.001Z</time></trkpt><trkpt lat="45.49258978526739" lon="9.021652684867469"><ele>142.0</ele><time>2026-04-18T08:12:44.001Z</time></trkpt><trkpt lat="45.492483219313876" lon="9.021667473410071"><ele>141.75</ele><time>2026-04-18T08:12:45.001Z</time></trkpt><trkpt lat="45.49237423485484" lon="9.02168100103137"><ele>141.5</ele><time>2026-04-18T08:12:46.001Z</time></trkpt><trkpt lat="45.4922551939089" lon="9.021695729880312"><ele>141.25</ele><time>2026-04-18T08:12:47.001Z</time></trkpt><trkpt lat="45.49213084507509" lon="9.021713822181837"><ele>141.0</ele><time>2026-04-18T08:12:48.001Z</time></trkpt><trkpt lat="45.49200704048347" lon="9.02173046752022"><ele>140.25</ele><time>2026-04-18T08:12:49.001Z</time></trkpt><trkpt lat="45.491881759006695" lon="9.02174826135766"><ele>139.5</ele><time>2026-04-18T08:12:50.001Z</time></trkpt><trkpt lat="45.491751264814155" lon="9.021766993716803"><ele>138.75</ele><time>2026-04-18T08:12:51.001Z</time></trkpt><trkpt lat="45.49162413192659" lon="9.021783315680379"><ele>138.0</ele><time>2026-04-18T08:12:52.001Z</time></trkpt><trkpt lat="45.491501166071494" lon="9.021799817599375"><ele>138.0</ele><time>2026-04-18T08:12:53.001Z</time></trkpt><trkpt lat="45.49138108426274" lon="9.021814368745964"><ele>138.0</ele><time>2026-04-18T08:12:54.001Z</time></trkpt><trkpt lat="45.491263582277604" lon="9.021827245150257"><ele>138.0</ele><time>2026-04-18T08:12:55.001Z</time></trkpt><trkpt lat="45.49114804257329" lon="9.02184267366967"><ele>138.0</ele><time>2026-04-18T08:12:56.001Z</time></trkpt><trkpt lat="45.491035276748185" lon="9.021859668074486"><ele>138.4</ele><time>2026-04-18T08:12:57.001Z</time></trkpt><trkpt lat="45.49092568129577" lon="9.021879947470177"><ele>138.8</ele><time>2026-04-18T08:12:58.001Z</time></trkpt><trkpt lat="45.490818251722786" lon="9.021896033297855"><ele>139.2</ele><time>2026-04-18T08:12:59.001Z</time></trkpt><trkpt lat="45.49070976981532" lon="9.021913450642453"><ele>139.6</ele><time>2026-04-18T08:13:00.001Z</time></trkpt><trkpt lat="45.490602396804945" lon="9.021925173722805"><ele>140.0</ele><time>2026-04-18T08:13:01.001Z</time></trkpt><trkpt lat="45.490496702408365" lon="9.021933748113508"><ele>140.0</ele><time>2026-04-18T08:13:02.001Z</time></trkpt><trkpt lat="45.49040124874024" lon="9.02194651985059"><ele>140.0</ele><time>2026-04-18T08:13:03.001Z</time></trkpt><trkpt lat="45.49031857276968" lon="9.021958545769765"><ele>140.0</ele><time>2026-04-18T08:13:04.001Z</time></trkpt><trkpt lat="45.49023231117935" lon="9.021953647532351"><ele>140.0</ele><time>2026-04-18T08:13:06.001Z</time></trkpt><trkpt lat="45.490168793175" lon="9.021920890018814"><ele>140.0</ele><time>2026-04-18T08:13:08.001Z</time></trkpt><trkpt lat="45.490103669598994" lon="9.021862558358526"><ele>140.0</ele><time>2026-04-18T08:13:09.001Z</time></trkpt><trkpt lat="45.49004285217336" lon="9.021797209110874"><ele>140.0</ele><time>2026-04-18T08:13:10.001Z</time></trkpt><trkpt lat="45.48996922038084" lon="9.02171839739665"><ele>140.0</ele><time>2026-04-18T08:13:11.001Z</time></trkpt><trkpt lat="45.48990426040192" lon="9.021610193329112"><ele>140.0</ele><time>2026-04-18T08:13:12.001Z</time></trkpt><trkpt lat="45.48985826288171" lon="9.021462269082033"><ele>140.0</ele><time>2026-04-18T08:13:13.001Z</time></trkpt><trkpt lat="45.48984160747602" lon="9.021290313033164"><ele>140.0</ele><time>2026-04-18T08:13:14.001Z</time></trkpt><trkpt lat="45.48984645853173" lon="9.021121576480283"><ele>139.75</ele><time>2026-04-18T08:13:15.001Z</time></trkpt><trkpt lat="45.48985132854423" lon="9.020946687155114"><ele>139.5</ele><time>2026-04-18T08:13:16.001Z</time></trkpt><trkpt lat="45.489845497286545" lon="9.020769909430742"><ele>139.25</ele><time>2026-04-18T08:13:17.001Z</time></trkpt><trkpt lat="45.489836728252975" lon="9.020590484254132"><ele>139.0</ele><time>2026-04-18T08:13:18.002Z</time></trkpt><trkpt lat="45.489829510360956" lon="9.020408422191245"><ele>139.0</ele><time>2026-04-18T08:13:19.002Z</time></trkpt><trkpt lat="45.489822238784946" lon="9.020227437973995"><ele>139.0</ele><time>2026-04-18T08:13:20.002Z</time></trkpt><trkpt lat="45.48982004131825" lon="9.020048519774463"><ele>139.0</ele><time>2026-04-18T08:13:21.002Z</time></trkpt><trkpt lat="45.4898309347745" lon="9.019884499606574"><ele>139.0</ele><time>2026-04-18T08:13:22.002Z</time></trkpt><trkpt lat="45.489852277228465" lon="9.019733017816998"><ele>139.2</ele><time>2026-04-18T08:13:23.002Z</time></trkpt><trkpt lat="45.48987131568517" lon="9.01958306435754"><ele>139.4</ele><time>2026-04-18T08:13:24.002Z</time></trkpt><trkpt lat="45.48989777253705" lon="9.01943080434309"><ele>139.6</ele><time>2026-04-18T08:13:25.002Z</time></trkpt><trkpt lat="45.48993026826961" lon="9.019283124666536"><ele>139.8</ele><time>2026-04-18T08:13:26.002Z</time></trkpt><trkpt lat="45.4899697266879" lon="9.019125647742197"><ele>140.0</ele><time>2026-04-18T08:13:27.002Z</time></trkpt><trkpt lat="45.49000728350746" lon="9.018958246563257"><ele>140.0</ele><time>2026-04-18T08:13:28.002Z</time></trkpt><trkpt lat="45.4900440819252" lon="9.018778361596022"><ele>140.0</ele><time>2026-04-18T08:13:29.002Z</time></trkpt><trkpt lat="45.49008608862246" lon="9.018590428281735"><ele>140.0</ele><time>2026-04-18T08:13:30.002Z</time></trkpt><trkpt lat="45.490131848076864" lon="9.01840145711184"><ele>140.0</ele><time>2026-04-18T08:13:31.002Z</time></trkpt><trkpt lat="45.490175364054586" lon="9.01820487799224"><ele>140.25</ele><time>2026-04-18T08:13:32.002Z</time></trkpt><trkpt lat="45.490215376932035" lon="9.018010253425377"><ele>140.5</ele><time>2026-04-18T08:13:33.002Z</time></trkpt><trkpt lat="45.49025712959359" lon="9.017814957479294"><ele>140.75</ele><time>2026-04-18T08:13:34.002Z</time></trkpt><trkpt lat="45.49030374706734" lon="9.017613409008606"><ele>141.0</ele><time>2026-04-18T08:13:35.002Z</time></trkpt><trkpt lat="45.49035379434495" lon="9.017410559576918"><ele>140.75</ele><time>2026-04-18T08:13:36.002Z</time></trkpt><trkpt lat="45.490400242896335" lon="9.01720763372007"><ele>140.5</ele><time>2026-04-18T08:13:37.002Z</time></trkpt><trkpt lat="45.4904417969865" lon="9.01700726405161"><ele>140.25</ele><time>2026-04-18T08:13:38.002Z</time></trkpt><trkpt lat="45.49048076886341" lon="9.016809521926804"><ele>140.0</ele><time>2026-04-18T08:13:39.002Z</time></trkpt><trkpt lat="45.49050584043884" lon="9.016632797370718"><ele>140.0</ele><time>2026-04-18T08:13:40.002Z</time></trkpt><trkpt lat="45.49053057667224" lon="9.01643736767303"><ele>140.0</ele><time>2026-04-18T08:13:41.002Z</time></trkpt><trkpt lat="45.49053857815799" lon="9.016235216391774"><ele>140.0</ele><time>2026-04-18T08:13:42.002Z</time></trkpt><trkpt lat="45.490530951154796" lon="9.016027696947578"><ele>140.0</ele><time>2026-04-18T08:13:43.002Z</time></trkpt><trkpt lat="45.4905208517977" lon="9.01581573321428"><ele>139.33333333333331</ele><time>2026-04-18T08:13:44.002Z</time></trkpt><trkpt lat="45.49050591078873" lon="9.01560051993268"><ele>138.66666666666666</ele><time>2026-04-18T08:13:45.002Z</time></trkpt><trkpt lat="45.490487924673396" lon="9.01537601190118"><ele>138.0</ele><time>2026-04-18T08:13:46.002Z</time></trkpt><trkpt lat="45.49046703713163" lon="9.015152160851237"><ele>138.0</ele><time>2026-04-18T08:13:47.002Z</time></trkpt><trkpt lat="45.49045188916251" lon="9.014948330558171"><ele>138.0</ele><time>2026-04-18T08:13:48.002Z</time></trkpt><trkpt lat="45.49043719975904" lon="9.01475690145203"><ele>138.0</ele><time>2026-04-18T08:13:49.002Z</time></trkpt><trkpt lat="45.49042277939856" lon="9.014579621594391"><ele>138.0</ele><time>2026-04-18T08:13:50.002Z</time></trkpt><trkpt lat="45.490411415896176" lon="9.014412105127773"><ele>138.33333333333334</ele><time>2026-04-18T08:13:51.002Z</time></trkpt><trkpt lat="45.49039888032777" lon="9.014258639790494"><ele>138.66666666666666</ele><time>2026-04-18T08:13:52.002Z</time></trkpt><trkpt lat="45.49038450577843" lon="9.014126158099224"><ele>139.0</ele><time>2026-04-18T08:13:53.002Z</time></trkpt><trkpt lat="45.490375881088966" lon="9.014004861421043"><ele>139.33333333333331</ele><time>2026-04-18T08:13:54.002Z</time></trkpt><trkpt lat="45.490383364638404" lon="9.013900113506715"><ele>139.66666666666666</ele><time>2026-04-18T08:13:55Z</time></trkpt><trkpt lat="45.49040755315274" lon="9.013815305448695"><ele>140.0</ele><time>2026-04-18T08:13:56Z</time></trkpt><trkpt lat="45.49046366956293" lon="9.013678040480464"><ele>140.42857142857142</ele><time>2026-04-18T08:13:58Z</time></trkpt><trkpt lat="45.490480504926914" lon="9.013591030200503"><ele>140.85714285714286</ele><time>2026-04-18T08:13:59Z</time></trkpt><trkpt lat="45.49047178348227" lon="9.013498142932672"><ele>141.28571428571428</ele><time>2026-04-18T08:14:00Z</time></trkpt><trkpt lat="45.49044052426283" lon="9.013409695811704"><ele>141.71428571428572</ele><time>2026-04-18T08:14:01Z</time></trkpt><trkpt lat="45.490358530733104" lon="9.013396755961873"><ele>142.14285714285714</ele><time>2026-04-18T08:14:02Z</time></trkpt><trkpt lat="45.49028521240736" lon="9.013411818676003"><ele>142.57142857142856</ele><time>2026-04-18T08:14:03Z</time></trkpt><trkpt lat="45.490214830566174" lon="9.013433995605231"><ele>143.0</ele><time>2026-04-18T08:14:04Z</time></trkpt><trkpt lat="45.49011015182585" lon="9.01343358231348"><ele>143.33333333333331</ele><time>2026-04-18T08:14:06Z</time></trkpt><trkpt lat="45.490074095638924" lon="9.013266648879048"><ele>143.66666666666666</ele><time>2026-04-18T08:14:08Z</time></trkpt><trkpt lat="45.49006381682599" lon="9.013173247752842"><ele>144.0</ele><time>2026-04-18T08:14:09Z</time></trkpt><trkpt lat="45.49004280657328" lon="9.013074741038983"><ele>144.33333333333334</ele><time>2026-04-18T08:14:10Z</time></trkpt><trkpt lat="45.49001617365305" lon="9.012976789865148"><ele>144.66666666666669</ele><time>2026-04-18T08:14:11Z</time></trkpt><trkpt lat="45.48998293782046" lon="9.012835600500548"><ele>145.0</ele><time>2026-04-18T08:14:13Z</time></trkpt><trkpt lat="45.48998760170579" lon="9.012743180679664"><ele>145.0</ele><time>2026-04-18T08:14:16Z</time></trkpt><trkpt lat="45.49013137928273" lon="9.012681175580944"><ele>145.0</ele><time>2026-04-18T08:14:17Z</time></trkpt><trkpt lat="45.490206542910734" lon="9.012658728427336"><ele>145.0</ele><time>2026-04-18T08:14:18Z</time></trkpt><trkpt lat="45.49029170596784" lon="9.012629218486895"><ele>145.0</ele><time>2026-04-18T08:14:19Z</time></trkpt><trkpt lat="45.49037046075235" lon="9.012585427596408"><ele>145.0</ele><time>2026-04-18T08:14:20Z</time></trkpt><trkpt lat="45.49044403048601" lon="9.012546782654839"><ele>144.5</ele><time>2026-04-18T08:14:21Z</time></trkpt><trkpt lat="45.49050385774766" lon="9.01251665729337"><ele>144.0</ele><time>2026-04-18T08:14:22.001Z</time></trkpt><trkpt lat="45.49059842216095" lon="9.012468552703027"><ele>143.5</ele><time>2026-04-18T08:14:24.001Z</time></trkpt><trkpt lat="45.4906697447064" lon="9.012416725353335"><ele>143.0</ele><time>2026-04-18T08:14:26.001Z</time></trkpt><trkpt lat="45.49066792953137" lon="9.0123199155427"><ele>142.5</ele><time>2026-04-18T08:14:27.001Z</time></trkpt><trkpt lat="45.49065120518814" lon="9.012214200575388"><ele>142.0</ele><time>2026-04-18T08:14:42.001Z</time></trkpt><trkpt lat="45.49069452970555" lon="9.012046465464776"><ele>142.0</ele><time>2026-04-18T08:14:44.001Z</time></trkpt><trkpt lat="45.490678727960585" lon="9.011928860052864"><ele>142.0</ele><time>2026-04-18T08:14:45.001Z</time></trkpt><trkpt lat="45.49064752783585" lon="9.011800176663332"><ele>142.0</ele><time>2026-04-18T08:14:46.001Z</time></trkpt><trkpt lat="45.49061300173923" lon="9.011657776113974"><ele>142.0</ele><time>2026-04-18T08:14:47.001Z</time></trkpt><trkpt lat="45.49057513840544" lon="9.011502065311202"><ele>142.0</ele><time>2026-04-18T08:14:48.001Z</time></trkpt><trkpt lat="45.49052324444429" lon="9.011349849741455"><ele>142.0</ele><time>2026-04-18T08:14:49.001Z</time></trkpt><trkpt lat="45.49048998201742" lon="9.011204023393818"><ele>142.0</ele><time>2026-04-18T08:14:50.001Z</time></trkpt><trkpt lat="45.490454578939804" lon="9.011073032221697"><ele>142.0</ele><time>2026-04-18T08:14:51.001Z</time></trkpt><trkpt lat="45.490425692912694" lon="9.010957166560626"><ele>142.0</ele><time>2026-04-18T08:14:52.001Z</time></trkpt><trkpt lat="45.490400324213226" lon="9.010853999479307"><ele>142.0</ele><time>2026-04-18T08:14:53.001Z</time></trkpt><trkpt lat="45.490382939559765" lon="9.010761389470343"><ele>142.0</ele><time>2026-04-18T08:14:54.001Z</time></trkpt><trkpt lat="45.490358087157404" lon="9.010678542928463"><ele>142.0</ele><time>2026-04-18T08:14:55.001Z</time></trkpt><trkpt lat="45.49032492300907" lon="9.010528662155291"><ele>142.0</ele><time>2026-04-18T08:14:57.001Z</time></trkpt><trkpt lat="45.4902903272946" lon="9.010377390277394"><ele>142.0</ele><time>2026-04-18T08:14:59.001Z</time></trkpt><trkpt lat="45.49023075848211" lon="9.010329118421787"><ele>142.0</ele><time>2026-04-18T08:15:00.001Z</time></trkpt><trkpt lat="45.4901603784959" lon="9.010317867252256"><ele>142.0</ele><time>2026-04-18T08:15:01.001Z</time></trkpt><trkpt lat="45.490081508906044" lon="9.010391743125203"><ele>142.0</ele><time>2026-04-18T08:15:02.001Z</time></trkpt><trkpt lat="45.490006801693504" lon="9.010434537546379"><ele>142.0</ele><time>2026-04-18T08:15:03.002Z</time></trkpt><trkpt lat="45.489923917757835" lon="9.010480018550988"><ele>142.0</ele><time>2026-04-18T08:15:04.002Z</time></trkpt><trkpt lat="45.48984719333499" lon="9.010519037408143"><ele>142.0</ele><time>2026-04-18T08:15:05.002Z</time></trkpt><trkpt lat="45.48978159702497" lon="9.010549838708316"><ele>142.0</ele><time>2026-04-18T08:15:06.002Z</time></trkpt><trkpt lat="45.489674267488745" lon="9.010603779945688"><ele>142.0</ele><time>2026-04-18T08:15:08.002Z</time></trkpt><trkpt lat="45.48958373225948" lon="9.010467295909859"><ele>142.0</ele><time>2026-04-18T08:15:11.002Z</time></trkpt><trkpt lat="45.489564882322995" lon="9.010367386879462"><ele>142.0</ele><time>2026-04-18T08:15:12.002Z</time></trkpt><trkpt lat="45.489543457854204" lon="9.01025790315859"><ele>142.0</ele><time>2026-04-18T08:15:13.002Z</time></trkpt><trkpt lat="45.48952127902379" lon="9.010136282423215"><ele>142.0</ele><time>2026-04-18T08:15:14.002Z</time></trkpt><trkpt lat="45.48948960176015" lon="9.010012151418314"><ele>142.0</ele><time>2026-04-18T08:15:15.002Z</time></trkpt><trkpt lat="45.48945871604383" lon="9.009882596236622"><ele>142.0</ele><time>2026-04-18T08:15:16.002Z</time></trkpt><trkpt lat="45.48942872891013" lon="9.009751289404345"><ele>142.0</ele><time>2026-04-18T08:15:17.002Z</time></trkpt><trkpt lat="45.489397799657375" lon="9.009623155467162"><ele>142.0</ele><time>2026-04-18T08:15:18.002Z</time></trkpt><trkpt lat="45.489365590187624" lon="9.009501631085511"><ele>142.0</ele><time>2026-04-18T08:15:19.002Z</time></trkpt><trkpt lat="45.489337069690734" lon="9.009384101941347"><ele>142.0</ele><time>2026-04-18T08:15:20.002Z</time></trkpt><trkpt lat="45.48930857393814" lon="9.009263508345558"><ele>142.0</ele><time>2026-04-18T08:15:21.002Z</time></trkpt><trkpt lat="45.48927555854363" lon="9.009138753233689"><ele>142.0</ele><time>2026-04-18T08:15:22.002Z</time></trkpt><trkpt lat="45.48923856330497" lon="9.009008572358347"><ele>142.0</ele><time>2026-04-18T08:15:23.002Z</time></trkpt><trkpt lat="45.48920135151266" lon="9.008871977935577"><ele>142.0</ele><time>2026-04-18T08:15:24.002Z</time></trkpt><trkpt lat="45.489166594021825" lon="9.008741894220988"><ele>142.0</ele><time>2026-04-18T08:15:25.002Z</time></trkpt><trkpt lat="45.48914182477037" lon="9.008625761037688"><ele>142.0</ele><time>2026-04-18T08:15:26.002Z</time></trkpt><trkpt lat="45.48912429447031" lon="9.008508776770622"><ele>142.0</ele><time>2026-04-18T08:15:27.002Z</time></trkpt><trkpt lat="45.48910568893799" lon="9.008392624218638"><ele>142.0</ele><time>2026-04-18T08:15:28.002Z</time></trkpt><trkpt lat="45.489074945805996" lon="9.008294430511977"><ele>142.0</ele><time>2026-04-18T08:15:29.002Z</time></trkpt><trkpt lat="45.48904349151347" lon="9.008196824504306"><ele>142.0</ele><time>2026-04-18T08:15:30.002Z</time></trkpt><trkpt lat="45.4890096823935" lon="9.008088146206896"><ele>142.0</ele><time>2026-04-18T08:15:31.002Z</time></trkpt><trkpt lat="45.488984835049656" lon="9.007997558690239"><ele>142.0</ele><time>2026-04-18T08:15:32.002Z</time></trkpt><trkpt lat="45.48895023173514" lon="9.007863159866933"><ele>142.0</ele><time>2026-04-18T08:15:34.002Z</time></trkpt><trkpt lat="45.48893011777506" lon="9.007775079891433"><ele>142.0</ele><time>2026-04-18T08:15:36.002Z</time></trkpt><trkpt lat="45.48889238925232" lon="9.00762643664741"><ele>142.0</ele><time>2026-04-18T08:15:39.002Z</time></trkpt><trkpt lat="45.48887003262471" lon="9.007536326026452"><ele>142.0</ele><time>2026-04-18T08:15:40.002Z</time></trkpt><trkpt lat="45.488837978908734" lon="9.007431980403892"><ele>142.0</ele><time>2026-04-18T08:15:41.002Z</time></trkpt><trkpt lat="45.48880290299606" lon="9.007323115670644"><ele>142.0</ele><time>2026-04-18T08:15:42.002Z</time></trkpt><trkpt lat="45.48876892706354" lon="9.007209066228512"><ele>142.16666666666669</ele><time>2026-04-18T08:15:43.003Z</time></trkpt><trkpt lat="45.48874147059678" lon="9.007092383850974"><ele>142.33333333333334</ele><time>2026-04-18T08:15:44.003Z</time></trkpt><trkpt lat="45.48871861845017" lon="9.006989884418484"><ele>142.5</ele><time>2026-04-18T08:15:45.003Z</time></trkpt><trkpt lat="45.48869429858933" lon="9.006886123762905"><ele>142.66666666666666</ele><time>2026-04-18T08:15:46.003Z</time></trkpt><trkpt lat="45.488664392123304" lon="9.006780625371258"><ele>142.83333333333331</ele><time>2026-04-18T08:15:47.003Z</time></trkpt><trkpt lat="45.48863214351244" lon="9.006671225426986"><ele>143.0</ele><time>2026-04-18T08:15:48.003Z</time></trkpt><trkpt lat="45.4886004232727" lon="9.006566039806367"><ele>143.0</ele><time>2026-04-18T08:15:49.003Z</time></trkpt><trkpt lat="45.488573267509146" lon="9.006473935488305"><ele>143.0</ele><time>2026-04-18T08:15:50.003Z</time></trkpt><trkpt lat="45.48855119980367" lon="9.006388272707543"><ele>143.0</ele><time>2026-04-18T08:15:51.003Z</time></trkpt><trkpt lat="45.48854900709815" lon="9.006295334306706"><ele>143.0</ele><time>2026-04-18T08:15:52.003Z</time></trkpt><trkpt lat="45.4885184080982" lon="9.00620817105737"><ele>143.0</ele><time>2026-04-18T08:15:53.003Z</time></trkpt><trkpt lat="45.488495971534206" lon="9.00610641603379"><ele>143.0</ele><time>2026-04-18T08:15:54.003Z</time></trkpt><trkpt lat="45.48844951367958" lon="9.005944591623559"><ele>143.0</ele><time>2026-04-18T08:15:56.003Z</time></trkpt><trkpt lat="45.48841996425378" lon="9.005843054708722"><ele>143.0</ele><time>2026-04-18T08:15:57.003Z</time></trkpt><trkpt lat="45.48838822882588" lon="9.005727398107151"><ele>143.0</ele><time>2026-04-18T08:15:58.003Z</time></trkpt><trkpt lat="45.488361902075596" lon="9.005609323829505"><ele>143.0</ele><time>2026-04-18T08:15:59.003Z</time></trkpt><trkpt lat="45.48834864525451" lon="9.005507235645467"><ele>143.0</ele><time>2026-04-18T08:16:00.003Z</time></trkpt><trkpt lat="45.48836482470765" lon="9.005332380464818"><ele>143.0</ele><time>2026-04-18T08:16:02Z</time></trkpt><trkpt lat="45.48839709737265" lon="9.005232254262971"><ele>143.0</ele><time>2026-04-18T08:16:03Z</time></trkpt><trkpt lat="45.48846135564499" lon="9.005164056217996"><ele>143.0</ele><time>2026-04-18T08:16:04Z</time></trkpt><trkpt lat="45.48854064846624" lon="9.005132645201856"><ele>143.0</ele><time>2026-04-18T08:16:05Z</time></trkpt><trkpt lat="45.48862557758381" lon="9.005111724231806"><ele>143.0</ele><time>2026-04-18T08:16:06Z</time></trkpt><trkpt lat="45.48869712405587" lon="9.005085268518325"><ele>143.0</ele><time>2026-04-18T08:16:07Z</time></trkpt><trkpt lat="45.48878954765123" lon="9.00504640750815"><ele>143.0</ele><time>2026-04-18T08:16:09Z</time></trkpt><trkpt lat="45.488817210366825" lon="9.004894456747918"><ele>143.0</ele><time>2026-04-18T08:16:13Z</time></trkpt><trkpt lat="45.48879826650748" lon="9.004776564859235"><ele>143.0</ele><time>2026-04-18T08:16:14Z</time></trkpt><trkpt lat="45.48877749950617" lon="9.004653696611369"><ele>143.0</ele><time>2026-04-18T08:16:15Z</time></trkpt><trkpt lat="45.488753323543875" lon="9.004520169428385"><ele>143.0</ele><time>2026-04-18T08:16:16Z</time></trkpt><trkpt lat="45.488725827930466" lon="9.00436545743524"><ele>143.0</ele><time>2026-04-18T08:16:17Z</time></trkpt><trkpt lat="45.48869551628492" lon="9.004178478854964"><ele>143.20000000000002</ele><time>2026-04-18T08:16:18Z</time></trkpt><trkpt lat="45.48867354102748" lon="9.004020710490163"><ele>143.4</ele><time>2026-04-18T08:16:19Z</time></trkpt><trkpt lat="45.48865417688056" lon="9.003888043394596"><ele>143.60000000000002</ele><time>2026-04-18T08:16:20Z</time></trkpt><trkpt lat="45.48863062423506" lon="9.003773071107661"><ele>143.8</ele><time>2026-04-18T08:16:21Z</time></trkpt><trkpt lat="45.48861449381295" lon="9.003676163305855"><ele>144.0</ele><time>2026-04-18T08:16:22Z</time></trkpt><trkpt lat="45.488600565179" lon="9.003524812037558"><ele>144.0</ele><time>2026-04-18T08:16:24Z</time></trkpt><trkpt lat="45.48858033926277" lon="9.00343556374251"><ele>144.0</ele><time>2026-04-18T08:16:27.001Z</time></trkpt><trkpt lat="45.48844083904485" lon="9.003428243704471"><ele>144.0</ele><time>2026-04-18T08:16:31.001Z</time></trkpt><trkpt lat="45.48836461413759" lon="9.003440388909077"><ele>144.0</ele><time>2026-04-18T08:16:32.001Z</time></trkpt><trkpt lat="45.48828061217204" lon="9.003475997293863"><ele>144.0</ele><time>2026-04-18T08:16:33.001Z</time></trkpt><trkpt lat="45.488193150490254" lon="9.003514554934634"><ele>144.0</ele><time>2026-04-18T08:16:34.001Z</time></trkpt><trkpt lat="45.48809591330515" lon="9.003558514000359"><ele>144.0</ele><time>2026-04-18T08:16:35.001Z</time></trkpt><trkpt lat="45.48799680231921" lon="9.003621782603835"><ele>144.0</ele><time>2026-04-18T08:16:36.001Z</time></trkpt><trkpt lat="45.48788037179594" lon="9.003664933984803"><ele>144.0</ele><time>2026-04-18T08:16:37.001Z</time></trkpt><trkpt lat="45.487768423889975" lon="9.003710407391111"><ele>144.0</ele><time>2026-04-18T08:16:38.001Z</time></trkpt><trkpt lat="45.48765969143722" lon="9.003758732025938"><ele>144.25</ele><time>2026-04-18T08:16:39.001Z</time></trkpt><trkpt lat="45.487534280458085" lon="9.00379692519958"><ele>144.5</ele><time>2026-04-18T08:16:40.001Z</time></trkpt><trkpt lat="45.48741657342699" lon="9.0038451146314"><ele>144.75</ele><time>2026-04-18T08:16:41.001Z</time></trkpt><trkpt lat="45.48729265735771" lon="9.003894121953783"><ele>145.0</ele><time>2026-04-18T08:16:42.001Z</time></trkpt><trkpt lat="45.48716748596559" lon="9.003945445807897"><ele>144.75</ele><time>2026-04-18T08:16:43.001Z</time></trkpt><trkpt lat="45.48704556614954" lon="9.003992636801609"><ele>144.5</ele><time>2026-04-18T08:16:44.001Z</time></trkpt><trkpt lat="45.48692298189079" lon="9.004018781048012"><ele>144.25</ele><time>2026-04-18T08:16:45.001Z</time></trkpt><trkpt lat="45.48681777690623" lon="9.004058011857298"><ele>144.0</ele><time>2026-04-18T08:16:46.001Z</time></trkpt><trkpt lat="45.48672268777628" lon="9.004093470441616"><ele>144.0</ele><time>2026-04-18T08:16:47.001Z</time></trkpt><trkpt lat="45.4866395017488" lon="9.004124490521608"><ele>144.0</ele><time>2026-04-18T08:16:48.001Z</time></trkpt><trkpt lat="45.486566706369395" lon="9.004169152336921"><ele>144.0</ele><time>2026-04-18T08:16:49.001Z</time></trkpt><trkpt lat="45.48649376660293" lon="9.0041610897213"><ele>144.0</ele><time>2026-04-18T08:16:50.001Z</time></trkpt><trkpt lat="45.486429340353475" lon="9.004183626967496"><ele>144.0</ele><time>2026-04-18T08:16:51.001Z</time></trkpt><trkpt lat="45.486326729035106" lon="9.004168241155929"><ele>144.0</ele><time>2026-04-18T08:16:53.001Z</time></trkpt><trkpt lat="45.48623548104925" lon="9.003922518866482"><ele>143.6</ele><time>2026-04-18T08:16:56.001Z</time></trkpt><trkpt lat="45.48621520626333" lon="9.003801360597839"><ele>143.2</ele><time>2026-04-18T08:16:57.001Z</time></trkpt><trkpt lat="45.486191893984916" lon="9.003669478103795"><ele>142.79999999999998</ele><time>2026-04-18T08:16:58.001Z</time></trkpt><trkpt lat="45.486158089036834" lon="9.003525285003542"><ele>142.4</ele><time>2026-04-18T08:16:59.001Z</time></trkpt><trkpt lat="45.486118853168556" lon="9.003376477336392"><ele>142.0</ele><time>2026-04-18T08:17:00.001Z</time></trkpt><trkpt lat="45.48608156880494" lon="9.003240799502343"><ele>142.0</ele><time>2026-04-18T08:17:01.001Z</time></trkpt><trkpt lat="45.4860690885811" lon="9.003117343910422"><ele>142.0</ele><time>2026-04-18T08:17:02.001Z</time></trkpt><trkpt lat="45.486061382582" lon="9.002978047820568"><ele>142.0</ele><time>2026-04-18T08:17:03.001Z</time></trkpt><trkpt lat="45.486074459593475" lon="9.002830537035566"><ele>142.0</ele><time>2026-04-18T08:17:04.001Z</time></trkpt><trkpt lat="45.4860868474412" lon="9.002665170941405"><ele>142.0</ele><time>2026-04-18T08:17:05.001Z</time></trkpt><trkpt lat="45.48608473736041" lon="9.002498175050741"><ele>142.0</ele><time>2026-04-18T08:17:06.001Z</time></trkpt><trkpt lat="45.48609401481146" lon="9.002349542399829"><ele>142.0</ele><time>2026-04-18T08:17:07.001Z</time></trkpt><trkpt lat="45.48612035339587" lon="9.002221296492333"><ele>142.0</ele><time>2026-04-18T08:17:08.001Z</time></trkpt><trkpt lat="45.486127629400016" lon="9.002105835561911"><ele>142.0</ele><time>2026-04-18T08:17:09.001Z</time></trkpt><trkpt lat="45.48612893208606" lon="9.001998649418619"><ele>142.0</ele><time>2026-04-18T08:17:10.002Z</time></trkpt><trkpt lat="45.48610458443396" lon="9.001904800352941"><ele>142.0</ele><time>2026-04-18T08:17:11.002Z</time></trkpt><trkpt lat="45.486070690312424" lon="9.001787740270013"><ele>142.0</ele><time>2026-04-18T08:17:13.002Z</time></trkpt><trkpt lat="45.48605450683409" lon="9.001695546642585"><ele>142.0</ele><time>2026-04-18T08:17:17.002Z</time></trkpt><trkpt lat="45.48593948071547" lon="9.001761933024394"><ele>142.0</ele><time>2026-04-18T08:17:18.002Z</time></trkpt><trkpt lat="45.48586052666607" lon="9.001817740755861"><ele>142.0</ele><time>2026-04-18T08:17:19.002Z</time></trkpt><trkpt lat="45.48577614419598" lon="9.001857696430596"><ele>142.0</ele><time>2026-04-18T08:17:20.002Z</time></trkpt><trkpt lat="45.4856924382818" lon="9.001893218879228"><ele>142.0</ele><time>2026-04-18T08:17:21.002Z</time></trkpt><trkpt lat="45.48562558119452" lon="9.00192088297384"><ele>142.0</ele><time>2026-04-18T08:17:22.002Z</time></trkpt><trkpt lat="45.48552869428685" lon="9.001969522869432"><ele>142.0</ele><time>2026-04-18T08:17:24.002Z</time></trkpt><trkpt lat="45.485456836865744" lon="9.002009686210604"><ele>142.0</ele><time>2026-04-18T08:17:26.002Z</time></trkpt><trkpt lat="45.48538657015413" lon="9.002010670934848"><ele>142.0</ele><time>2026-04-18T08:17:29.002Z</time></trkpt><trkpt lat="45.48537809634249" lon="9.0019025652285"><ele>142.0</ele><time>2026-04-18T08:17:45.002Z</time></trkpt><trkpt lat="45.485387565725354" lon="9.001756994359901"><ele>141.83333333333334</ele><time>2026-04-18T08:17:47.002Z</time></trkpt><trkpt lat="45.485378608032164" lon="9.001616427582466"><ele>141.66666666666669</ele><time>2026-04-18T08:17:49.002Z</time></trkpt><trkpt lat="45.48538750778288" lon="9.001525445570918"><ele>141.5</ele><time>2026-04-18T08:17:50.002Z</time></trkpt><trkpt lat="45.48539544445507" lon="9.001435371539449"><ele>141.33333333333334</ele><time>2026-04-18T08:17:51.002Z</time></trkpt><trkpt lat="45.485401305028184" lon="9.001345931882135"><ele>141.16666666666666</ele><time>2026-04-18T08:17:52.003Z</time></trkpt><trkpt lat="45.485410226077846" lon="9.001198027198525"><ele>141.0</ele><time>2026-04-18T08:17:54.003Z</time></trkpt><trkpt lat="45.48541416368949" lon="9.001082910618155"><ele>141.2</ele><time>2026-04-18T08:17:56.003Z</time></trkpt><trkpt lat="45.48542894578278" lon="9.000955023320982"><ele>141.39999999999998</ele><time>2026-04-18T08:17:59.003Z</time></trkpt><trkpt lat="45.4854630884386" lon="9.000833604746939"><ele>141.6</ele><time>2026-04-18T08:18:01.003Z</time></trkpt><trkpt lat="45.485498227221676" lon="9.000696015350432"><ele>141.79999999999998</ele><time>2026-04-18T08:18:03.003Z</time></trkpt><trkpt lat="45.485493737920926" lon="9.00055135311402"><ele>142.0</ele><time>2026-04-18T08:18:05.003Z</time></trkpt><trkpt lat="45.48544954250332" lon="9.000398924368884"><ele>142.0</ele><time>2026-04-18T08:18:07Z</time></trkpt><trkpt lat="45.485431261574995" lon="9.000304727948684"><ele>142.0</ele><time>2026-04-18T08:18:09Z</time></trkpt><trkpt lat="45.48545936106845" lon="9.000168504641302"><ele>142.0</ele><time>2026-04-18T08:18:11Z</time></trkpt><trkpt lat="45.4854700523053" lon="9.000047349868906"><ele>142.0</ele><time>2026-04-18T08:18:14Z</time></trkpt><trkpt lat="45.48548453563456" lon="8.999885612076499"><ele>142.0</ele><time>2026-04-18T08:18:16Z</time></trkpt><trkpt lat="45.48551619015591" lon="8.999794028094277"><ele>142.0</ele><time>2026-04-18T08:18:17Z</time></trkpt><trkpt lat="45.48552362270328" lon="8.999689028063003"><ele>142.0</ele><time>2026-04-18T08:18:18Z</time></trkpt><trkpt lat="45.48553008969557" lon="8.999584320603013"><ele>142.0</ele><time>2026-04-18T08:18:19Z</time></trkpt><trkpt lat="45.48553650878089" lon="8.999473113134668"><ele>142.0</ele><time>2026-04-18T08:18:20Z</time></trkpt><trkpt lat="45.485543140203106" lon="8.999358907345679"><ele>142.0</ele><time>2026-04-18T08:18:21Z</time></trkpt><trkpt lat="45.48555013145271" lon="8.999244096732708"><ele>142.0</ele><time>2026-04-18T08:18:22Z</time></trkpt><trkpt lat="45.485556720870946" lon="8.999135884948352"><ele>142.0</ele><time>2026-04-18T08:18:23Z</time></trkpt><trkpt lat="45.48556304595636" lon="8.999032014038054"><ele>142.0</ele><time>2026-04-18T08:18:24Z</time></trkpt><trkpt lat="45.48556917230303" lon="8.99893140652728"><ele>142.0</ele><time>2026-04-18T08:18:25Z</time></trkpt><trkpt lat="45.485550640202966" lon="8.998829880910105"><ele>142.0</ele><time>2026-04-18T08:18:26Z</time></trkpt><trkpt lat="45.48555810005106" lon="8.99873548659071"><ele>142.0</ele><time>2026-04-18T08:18:27Z</time></trkpt><trkpt lat="45.48556203267481" lon="8.99864187834886"><ele>142.0</ele><time>2026-04-18T08:18:28Z</time></trkpt><trkpt lat="45.48556964430605" lon="8.998543053668271"><ele>142.0</ele><time>2026-04-18T08:18:29Z</time></trkpt><trkpt lat="45.48557636842996" lon="8.998439907165448"><ele>142.0</ele><time>2026-04-18T08:18:30Z</time></trkpt><trkpt lat="45.48558546942802" lon="8.99833095934989"><ele>142.16666666666669</ele><time>2026-04-18T08:18:31Z</time></trkpt><trkpt lat="45.48559390320907" lon="8.998218525327566"><ele>142.33333333333334</ele><time>2026-04-18T08:18:32Z</time></trkpt><trkpt lat="45.48560147886459" lon="8.998106116151224"><ele>142.5</ele><time>2026-04-18T08:18:33Z</time></trkpt><trkpt lat="45.48561138440083" lon="8.99798901440602"><ele>142.66666666666666</ele><time>2026-04-18T08:18:34Z</time></trkpt><trkpt lat="45.4856214796789" lon="8.997854476322521"><ele>142.83333333333331</ele><time>2026-04-18T08:18:35Z</time></trkpt><trkpt lat="45.485633735760956" lon="8.997709170256387"><ele>143.0</ele><time>2026-04-18T08:18:36Z</time></trkpt><trkpt lat="45.485644241268645" lon="8.99755213096428"><ele>142.5</ele><time>2026-04-18T08:18:37Z</time></trkpt><trkpt lat="45.485656619183644" lon="8.997389356232464"><ele>142.0</ele><time>2026-04-18T08:18:38Z</time></trkpt><trkpt lat="45.48566809899797" lon="8.997224141446369"><ele>141.5</ele><time>2026-04-18T08:18:39Z</time></trkpt><trkpt lat="45.48568064873346" lon="8.997053482692596"><ele>141.0</ele><time>2026-04-18T08:18:40Z</time></trkpt><trkpt lat="45.485693523182746" lon="8.99688161423988"><ele>141.0</ele><time>2026-04-18T08:18:41Z</time></trkpt><trkpt lat="45.485704386565104" lon="8.996712119007286"><ele>141.0</ele><time>2026-04-18T08:18:42Z</time></trkpt><trkpt lat="45.48574231778633" lon="8.99654604382556"><ele>141.0</ele><time>2026-04-18T08:18:43Z</time></trkpt><trkpt lat="45.48575436544967" lon="8.996366849703762"><ele>141.0</ele><time>2026-04-18T08:18:44Z</time></trkpt><trkpt lat="45.485767712101556" lon="8.996167716623"><ele>141.0</ele><time>2026-04-18T08:18:45Z</time></trkpt><trkpt lat="45.48578262949133" lon="8.995942205542685"><ele>141.0</ele><time>2026-04-18T08:18:46.001Z</time></trkpt><trkpt lat="45.48579792913192" lon="8.995744225157035"><ele>141.0</ele><time>2026-04-18T08:18:47.001Z</time></trkpt><trkpt lat="45.48580988897354" lon="8.995566399972752"><ele>141.0</ele><time>2026-04-18T08:18:48.001Z</time></trkpt><trkpt lat="45.4858204379824" lon="8.995391722467927"><ele>141.25</ele><time>2026-04-18T08:18:49.001Z</time></trkpt><trkpt lat="45.485830056652524" lon="8.995232446996022"><ele>141.5</ele><time>2026-04-18T08:18:50.001Z</time></trkpt><trkpt lat="45.48583145795495" lon="8.995068105930724"><ele>141.75</ele><time>2026-04-18T08:18:51.001Z</time></trkpt><trkpt lat="45.485823081820165" lon="8.994905406751478"><ele>142.0</ele><time>2026-04-18T08:18:52.001Z</time></trkpt><trkpt lat="45.485833845709244" lon="8.994751594701311"><ele>141.6</ele><time>2026-04-18T08:18:53.001Z</time></trkpt><trkpt lat="45.48584580866675" lon="8.994615734090782"><ele>141.2</ele><time>2026-04-18T08:18:54.001Z</time></trkpt><trkpt lat="45.48585488195852" lon="8.99448856117502"><ele>140.8</ele><time>2026-04-18T08:18:55.001Z</time></trkpt><trkpt lat="45.4858625236197" lon="8.994369233407092"><ele>140.4</ele><time>2026-04-18T08:18:56.001Z</time></trkpt><trkpt lat="45.485870434265465" lon="8.994270625693625"><ele>140.0</ele><time>2026-04-18T08:18:57.001Z</time></trkpt><trkpt lat="45.48588008811106" lon="8.994107313039308"><ele>140.0</ele><time>2026-04-18T08:18:59.001Z</time></trkpt><trkpt lat="45.4858850979008" lon="8.99397966858018"><ele>140.0</ele><time>2026-04-18T08:19:01.001Z</time></trkpt><trkpt lat="45.4858979064552" lon="8.993839500858913"><ele>140.0</ele><time>2026-04-18T08:19:04.001Z</time></trkpt><trkpt lat="45.48591264115052" lon="8.993656429849203"><ele>140.0</ele><time>2026-04-18T08:19:06.001Z</time></trkpt><trkpt lat="45.48591968145089" lon="8.99355034194414"><ele>140.0</ele><time>2026-04-18T08:19:07.001Z</time></trkpt><trkpt lat="45.4859267323741" lon="8.993452765370872"><ele>140.2</ele><time>2026-04-18T08:19:08.001Z</time></trkpt><trkpt lat="45.485933290737115" lon="8.993286404446295"><ele>140.4</ele><time>2026-04-18T08:19:10.001Z</time></trkpt><trkpt lat="45.485939726623876" lon="8.99316451421008"><ele>140.6</ele><time>2026-04-18T08:19:11.001Z</time></trkpt><trkpt lat="45.485978094040014" lon="8.993019480196454"><ele>140.8</ele><time>2026-04-18T08:19:12.001Z</time></trkpt><trkpt lat="45.485972445449455" lon="8.992858871668286"><ele>141.0</ele><time>2026-04-18T08:19:13.001Z</time></trkpt><trkpt lat="45.485984574458925" lon="8.99268892785383"><ele>141.0</ele><time>2026-04-18T08:19:14.001Z</time></trkpt><trkpt lat="45.48599244327563" lon="8.9925181035763"><ele>141.0</ele><time>2026-04-18T08:19:15.001Z</time></trkpt><trkpt lat="45.48601627560345" lon="8.992339779332202"><ele>141.0</ele><time>2026-04-18T08:19:16.001Z</time></trkpt><trkpt lat="45.48601581154962" lon="8.992160362897092"><ele>141.0</ele><time>2026-04-18T08:19:17.001Z</time></trkpt><trkpt lat="45.48603050551691" lon="8.992004859981622"><ele>141.0</ele><time>2026-04-18T08:19:18.001Z</time></trkpt><trkpt lat="45.48603761375945" lon="8.991861897724728"><ele>141.0</ele><time>2026-04-18T08:19:19.001Z</time></trkpt><trkpt lat="45.48604562561923" lon="8.99172102989771"><ele>141.0</ele><time>2026-04-18T08:19:20.001Z</time></trkpt><trkpt lat="45.486056149502524" lon="8.991589691632138"><ele>141.0</ele><time>2026-04-18T08:19:21.001Z</time></trkpt><trkpt lat="45.486062739187126" lon="8.991456169457576"><ele>141.0</ele><time>2026-04-18T08:19:22.001Z</time></trkpt><trkpt lat="45.486072600600444" lon="8.991318450488977"><ele>141.0</ele><time>2026-04-18T08:19:23.001Z</time></trkpt><trkpt lat="45.4860949930128" lon="8.99119437812304"><ele>141.0</ele><time>2026-04-18T08:19:24.001Z</time></trkpt><trkpt lat="45.486104062720386" lon="8.99106622932186"><ele>141.0</ele><time>2026-04-18T08:19:25.002Z</time></trkpt><trkpt lat="45.486110446507745" lon="8.990953166055723"><ele>141.0</ele><time>2026-04-18T08:19:26.002Z</time></trkpt><trkpt lat="45.48611801792826" lon="8.99084020662345"><ele>141.0</ele><time>2026-04-18T08:19:27.002Z</time></trkpt><trkpt lat="45.48612610127005" lon="8.990716721304674"><ele>141.0</ele><time>2026-04-18T08:19:28.002Z</time></trkpt><trkpt lat="45.48613442471303" lon="8.990590669988412"><ele>141.0</ele><time>2026-04-18T08:19:29.002Z</time></trkpt><trkpt lat="45.48614149504424" lon="8.990486489444999"><ele>141.0</ele><time>2026-04-18T08:19:30.002Z</time></trkpt><trkpt lat="45.486136335704764" lon="8.990370148831365"><ele>141.0</ele><time>2026-04-18T08:19:31.002Z</time></trkpt><trkpt lat="45.486145427640004" lon="8.990244408299581"><ele>141.0</ele><time>2026-04-18T08:19:32.002Z</time></trkpt><trkpt lat="45.486156969485286" lon="8.990117955151344"><ele>141.0</ele><time>2026-04-18T08:19:33.002Z</time></trkpt><trkpt lat="45.4861674647594" lon="8.98998938694474"><ele>141.0</ele><time>2026-04-18T08:19:34.002Z</time></trkpt><trkpt lat="45.486175392421806" lon="8.989846945837762"><ele>141.0</ele><time>2026-04-18T08:19:35.002Z</time></trkpt><trkpt lat="45.48619600381711" lon="8.989677142021826"><ele>141.0</ele><time>2026-04-18T08:19:36.002Z</time></trkpt><trkpt lat="45.48620996843723" lon="8.989468572661782"><ele>141.0</ele><time>2026-04-18T08:19:37.002Z</time></trkpt><trkpt lat="45.48622589579644" lon="8.9892262625897"><ele>141.0</ele><time>2026-04-18T08:19:38.002Z</time></trkpt><trkpt lat="45.48623730451481" lon="8.9890047610617"><ele>141.0</ele><time>2026-04-18T08:19:39.002Z</time></trkpt><trkpt lat="45.48621461030743" lon="8.988794962166153"><ele>141.0</ele><time>2026-04-18T08:19:40.002Z</time></trkpt><trkpt lat="45.48621302738963" lon="8.988630485330784"><ele>141.0</ele><time>2026-04-18T08:19:41.002Z</time></trkpt><trkpt lat="45.48620323814567" lon="8.988466658882176"><ele>141.0</ele><time>2026-04-18T08:19:42.002Z</time></trkpt><trkpt lat="45.48618987538018" lon="8.988314100467655"><ele>141.0</ele><time>2026-04-18T08:19:43.002Z</time></trkpt><trkpt lat="45.48618005630756" lon="8.988165133167696"><ele>141.0</ele><time>2026-04-18T08:19:44.002Z</time></trkpt><trkpt lat="45.48617329039871" lon="8.988020479543604"><ele>141.0</ele><time>2026-04-18T08:19:45.002Z</time></trkpt><trkpt lat="45.48616393282889" lon="8.987862310621775"><ele>141.0</ele><time>2026-04-18T08:19:46.002Z</time></trkpt><trkpt lat="45.486163430361145" lon="8.987708548891936"><ele>141.0</ele><time>2026-04-18T08:19:47.002Z</time></trkpt><trkpt lat="45.48616682161661" lon="8.987548765363078"><ele>141.4</ele><time>2026-04-18T08:19:48.002Z</time></trkpt><trkpt lat="45.48616411584112" lon="8.987387955451243"><ele>141.8</ele><time>2026-04-18T08:19:49.002Z</time></trkpt><trkpt lat="45.48615252868099" lon="8.987230785868551"><ele>142.20000000000002</ele><time>2026-04-18T08:19:50.002Z</time></trkpt><trkpt lat="45.48614636602066" lon="8.987073953841168"><ele>142.6</ele><time>2026-04-18T08:19:51.002Z</time></trkpt><trkpt lat="45.48614764031171" lon="8.986912737972345"><ele>143.0</ele><time>2026-04-18T08:19:52.002Z</time></trkpt><trkpt lat="45.48616563815237" lon="8.98675428939935"><ele>143.0</ele><time>2026-04-18T08:19:53.002Z</time></trkpt><trkpt lat="45.48616023342398" lon="8.986596440805611"><ele>143.0</ele><time>2026-04-18T08:19:54.002Z</time></trkpt><trkpt lat="45.48615499483369" lon="8.986443444189009"><ele>143.0</ele><time>2026-04-18T08:19:55.002Z</time></trkpt><trkpt lat="45.48613971440059" lon="8.986297135202145"><ele>143.0</ele><time>2026-04-18T08:19:56.002Z</time></trkpt><trkpt lat="45.48614834112131" lon="8.986146784842962"><ele>143.0</ele><time>2026-04-18T08:19:57.002Z</time></trkpt><trkpt lat="45.48618542854382" lon="8.985998081367416"><ele>143.0</ele><time>2026-04-18T08:19:58.002Z</time></trkpt><trkpt lat="45.48620496023621" lon="8.985842632443134"><ele>143.0</ele><time>2026-04-18T08:19:59.002Z</time></trkpt><trkpt lat="45.486241110417765" lon="8.985685690290225"><ele>143.0</ele><time>2026-04-18T08:20:00.002Z</time></trkpt><trkpt lat="45.48626751796363" lon="8.985521504448105"><ele>143.0</ele><time>2026-04-18T08:20:01.002Z</time></trkpt><trkpt lat="45.486293169385576" lon="8.985353053669167"><ele>142.75</ele><time>2026-04-18T08:20:02.002Z</time></trkpt><trkpt lat="45.4863192258561" lon="8.98518228898788"><ele>142.5</ele><time>2026-04-18T08:20:03.002Z</time></trkpt><trkpt lat="45.48634151972165" lon="8.98502311144302"><ele>142.25</ele><time>2026-04-18T08:20:04.002Z</time></trkpt><trkpt lat="45.48636776701424" lon="8.984871649742457"><ele>142.0</ele><time>2026-04-18T08:20:05.003Z</time></trkpt><trkpt lat="45.486393139757546" lon="8.984718528261519"><ele>142.0</ele><time>2026-04-18T08:20:06.003Z</time></trkpt><trkpt lat="45.486416902761" lon="8.984576418693004"><ele>142.0</ele><time>2026-04-18T08:20:07.003Z</time></trkpt><trkpt lat="45.48643732951567" lon="8.984435597205866"><ele>142.0</ele><time>2026-04-18T08:20:08.003Z</time></trkpt><trkpt lat="45.48645707362989" lon="8.984307174383511"><ele>142.0</ele><time>2026-04-18T08:20:09.003Z</time></trkpt><trkpt lat="45.486477280572885" lon="8.98417908636628"><ele>142.0</ele><time>2026-04-18T08:20:10.003Z</time></trkpt><trkpt lat="45.486496551403455" lon="8.984042376473377"><ele>142.2</ele><time>2026-04-18T08:20:11.003Z</time></trkpt><trkpt lat="45.48651575789343" lon="8.98389202723984"><ele>142.39999999999998</ele><time>2026-04-18T08:20:12.003Z</time></trkpt><trkpt lat="45.48653899923234" lon="8.983739951016782"><ele>142.60000000000002</ele><time>2026-04-18T08:20:13Z</time></trkpt><trkpt lat="45.48656732336377" lon="8.983587183620928"><ele>142.8</ele><time>2026-04-18T08:20:14Z</time></trkpt><trkpt lat="45.48659243394461" lon="8.983431816170459"><ele>143.0</ele><time>2026-04-18T08:20:15Z</time></trkpt><trkpt lat="45.48661659818068" lon="8.983267888459745"><ele>143.0</ele><time>2026-04-18T08:20:16Z</time></trkpt><trkpt lat="45.48663869219158" lon="8.983112417710107"><ele>143.0</ele><time>2026-04-18T08:20:17Z</time></trkpt><trkpt lat="45.48665992735655" lon="8.98295849418537"><ele>143.0</ele><time>2026-04-18T08:20:18Z</time></trkpt><trkpt lat="45.48668532542838" lon="8.982803853807123"><ele>143.0</ele><time>2026-04-18T08:20:19Z</time></trkpt><trkpt lat="45.486710441849716" lon="8.982653688355242"><ele>143.0</ele><time>2026-04-18T08:20:20Z</time></trkpt><trkpt lat="45.4867321606049" lon="8.982500188631455"><ele>143.20000000000002</ele><time>2026-04-18T08:20:21Z</time></trkpt><trkpt lat="45.486751238795485" lon="8.982344063308652"><ele>143.4</ele><time>2026-04-18T08:20:22Z</time></trkpt><trkpt lat="45.48677512096619" lon="8.982195308592233"><ele>143.60000000000002</ele><time>2026-04-18T08:20:23Z</time></trkpt><trkpt lat="45.486799032904315" lon="8.982046777733952"><ele>143.8</ele><time>2026-04-18T08:20:24Z</time></trkpt><trkpt lat="45.4868230684358" lon="8.981898529626886"><ele>144.0</ele><time>2026-04-18T08:20:25Z</time></trkpt><trkpt lat="45.48684492337824" lon="8.98174971889105"><ele>144.25</ele><time>2026-04-18T08:20:26Z</time></trkpt><trkpt lat="45.48686636245066" lon="8.981600954039722"><ele>144.5</ele><time>2026-04-18T08:20:27Z</time></trkpt><trkpt lat="45.486889083762875" lon="8.981450326718766"><ele>144.75</ele><time>2026-04-18T08:20:28Z</time></trkpt><trkpt lat="45.4869141675266" lon="8.981291178129533"><ele>145.0</ele><time>2026-04-18T08:20:29Z</time></trkpt><trkpt lat="45.4869391234413" lon="8.981119153914042"><ele>145.0</ele><time>2026-04-18T08:20:30Z</time></trkpt><trkpt lat="45.48696689364938" lon="8.980936122425707"><ele>145.0</ele><time>2026-04-18T08:20:31Z</time></trkpt><trkpt lat="45.487000790684824" lon="8.98073522567199"><ele>145.0</ele><time>2026-04-18T08:20:32Z</time></trkpt><trkpt lat="45.48703381557957" lon="8.980513948015654"><ele>145.0</ele><time>2026-04-18T08:20:33Z</time></trkpt><trkpt lat="45.48706887922516" lon="8.980275921422548"><ele>144.33333333333334</ele><time>2026-04-18T08:20:34Z</time></trkpt><trkpt lat="45.48712187698481" lon="8.980032764319208"><ele>143.66666666666666</ele><time>2026-04-18T08:20:35Z</time></trkpt><trkpt lat="45.487149158198015" lon="8.979788747361798"><ele>143.0</ele><time>2026-04-18T08:20:36Z</time></trkpt><trkpt lat="45.4871887598408" lon="8.979576553774105"><ele>142.75</ele><time>2026-04-18T08:20:37Z</time></trkpt><trkpt lat="45.487231236602504" lon="8.979384718100585"><ele>142.5</ele><time>2026-04-18T08:20:38Z</time></trkpt><trkpt lat="45.48726259964576" lon="8.979205074173489"><ele>142.25</ele><time>2026-04-18T08:20:39Z</time></trkpt><trkpt lat="45.48728683136426" lon="8.979035229167579"><ele>142.0</ele><time>2026-04-18T08:20:40Z</time></trkpt><trkpt lat="45.487310651881025" lon="8.978875681466203"><ele>141.75</ele><time>2026-04-18T08:20:41Z</time></trkpt><trkpt lat="45.487331956981315" lon="8.978724161078496"><ele>141.5</ele><time>2026-04-18T08:20:42Z</time></trkpt><trkpt lat="45.4873554944116" lon="8.97856900552089"><ele>141.25</ele><time>2026-04-18T08:20:43Z</time></trkpt><trkpt lat="45.487387345961395" lon="8.978410533182265"><ele>141.0</ele><time>2026-04-18T08:20:44Z</time></trkpt><trkpt lat="45.487437404288436" lon="8.978255320290568"><ele>141.4</ele><time>2026-04-18T08:20:45Z</time></trkpt><trkpt lat="45.487518709045354" lon="8.978105141683793"><ele>141.8</ele><time>2026-04-18T08:20:46Z</time></trkpt><trkpt lat="45.487613095560825" lon="8.977988693662233"><ele>142.20000000000002</ele><time>2026-04-18T08:20:47Z</time></trkpt><trkpt lat="45.487697084528556" lon="8.977908317309025"><ele>142.6</ele><time>2026-04-18T08:20:48Z</time></trkpt><trkpt lat="45.487745468178986" lon="8.97781411320471"><ele>143.0</ele><time>2026-04-18T08:20:49Z</time></trkpt><trkpt lat="45.48774544296489" lon="8.977700312345107"><ele>143.0</ele><time>2026-04-18T08:20:50Z</time></trkpt><trkpt lat="45.48770400003806" lon="8.97759952459815"><ele>143.0</ele><time>2026-04-18T08:20:51Z</time></trkpt><trkpt lat="45.48763432802055" lon="8.977514674043848"><ele>143.0</ele><time>2026-04-18T08:20:52Z</time></trkpt><trkpt lat="45.48754577948261" lon="8.977468804195352"><ele>143.0</ele><time>2026-04-18T08:20:53Z</time></trkpt><trkpt lat="45.487473908363754" lon="8.977414454502975"><ele>143.0</ele><time>2026-04-18T08:20:54Z</time></trkpt><trkpt lat="45.48748036215676" lon="8.977194997336749"><ele>142.83333333333331</ele><time>2026-04-18T08:20:55.001Z</time></trkpt><trkpt lat="45.48746987441268" lon="8.977069167235001"><ele>142.66666666666666</ele><time>2026-04-18T08:20:56.001Z</time></trkpt><trkpt lat="45.487465851510954" lon="8.97694747431163"><ele>142.5</ele><time>2026-04-18T08:20:57.001Z</time></trkpt><trkpt lat="45.487466463406705" lon="8.976824794798137"><ele>142.33333333333334</ele><time>2026-04-18T08:20:58.001Z</time></trkpt><trkpt lat="45.48746807424342" lon="8.976697522254543"><ele>142.16666666666669</ele><time>2026-04-18T08:20:59.001Z</time></trkpt><trkpt lat="45.48746807091911" lon="8.976570369932427"><ele>142.0</ele><time>2026-04-18T08:21:00.001Z</time></trkpt><trkpt lat="45.48746912880791" lon="8.97643354856152"><ele>142.0</ele><time>2026-04-18T08:21:01.001Z</time></trkpt><trkpt lat="45.487470030946206" lon="8.976291291504262"><ele>142.0</ele><time>2026-04-18T08:21:02.001Z</time></trkpt><trkpt lat="45.48747019462367" lon="8.9761473748659"><ele>142.0</ele><time>2026-04-18T08:21:03.001Z</time></trkpt><trkpt lat="45.487458175034384" lon="8.97600883550084"><ele>142.0</ele><time>2026-04-18T08:21:04.001Z</time></trkpt><trkpt lat="45.487443694608565" lon="8.975880033064133"><ele>142.0</ele><time>2026-04-18T08:21:05.001Z</time></trkpt><trkpt lat="45.4874394513434" lon="8.975737204258897"><ele>142.25</ele><time>2026-04-18T08:21:06.001Z</time></trkpt><trkpt lat="45.48745130382425" lon="8.975585880439828"><ele>142.5</ele><time>2026-04-18T08:21:07.001Z</time></trkpt><trkpt lat="45.4874612788207" lon="8.975430585707867"><ele>142.75</ele><time>2026-04-18T08:21:08.001Z</time></trkpt><trkpt lat="45.48746665162497" lon="8.975264562578289"><ele>143.0</ele><time>2026-04-18T08:21:09.001Z</time></trkpt><trkpt lat="45.4874666600228" lon="8.975096689869389"><ele>143.0</ele><time>2026-04-18T08:21:10.001Z</time></trkpt><trkpt lat="45.487467198261506" lon="8.97493628413732"><ele>143.0</ele><time>2026-04-18T08:21:11.001Z</time></trkpt><trkpt lat="45.48746871781151" lon="8.974774014264801"><ele>143.0</ele><time>2026-04-18T08:21:12.001Z</time></trkpt><trkpt lat="45.48747268694278" lon="8.974605224403557"><ele>143.0</ele><time>2026-04-18T08:21:13.001Z</time></trkpt><trkpt lat="45.48747406334312" lon="8.974436284116381"><ele>143.0</ele><time>2026-04-18T08:21:14.001Z</time></trkpt><trkpt lat="45.48747515473788" lon="8.974272334277668"><ele>143.0</ele><time>2026-04-18T08:21:15.001Z</time></trkpt><trkpt lat="45.48747572868998" lon="8.974120732930256"><ele>143.0</ele><time>2026-04-18T08:21:16.001Z</time></trkpt><trkpt lat="45.48747388438638" lon="8.973982300545769"><ele>143.0</ele><time>2026-04-18T08:21:17.001Z</time></trkpt><trkpt lat="45.48747788859663" lon="8.973855382102977"><ele>143.0</ele><time>2026-04-18T08:21:18.001Z</time></trkpt><trkpt lat="45.48748627979753" lon="8.973732568260248"><ele>143.5</ele><time>2026-04-18T08:21:19.001Z</time></trkpt><trkpt lat="45.487490734860664" lon="8.973627172085248"><ele>144.0</ele><time>2026-04-18T08:21:20.001Z</time></trkpt><trkpt lat="45.48749362415015" lon="8.973528399366712"><ele>144.5</ele><time>2026-04-18T08:21:21.001Z</time></trkpt><trkpt lat="45.487492849158826" lon="8.973402382306961"><ele>145.0</ele><time>2026-04-18T08:21:22.001Z</time></trkpt><trkpt lat="45.48748151985546" lon="8.973265677901397"><ele>145.5</ele><time>2026-04-18T08:21:23.001Z</time></trkpt><trkpt lat="45.48746908817227" lon="8.973126949200978"><ele>146.0</ele><time>2026-04-18T08:21:24.001Z</time></trkpt><trkpt lat="45.487466114080966" lon="8.972995357665221"><ele>146.16666666666666</ele><time>2026-04-18T08:21:25.001Z</time></trkpt><trkpt lat="45.48746797073959" lon="8.972865274182166"><ele>146.33333333333331</ele><time>2026-04-18T08:21:26.001Z</time></trkpt><trkpt lat="45.48747327485403" lon="8.97274043083808"><ele>146.5</ele><time>2026-04-18T08:21:27.001Z</time></trkpt><trkpt lat="45.48747901763182" lon="8.972620002762474"><ele>146.66666666666666</ele><time>2026-04-18T08:21:28.001Z</time></trkpt><trkpt lat="45.48747862983939" lon="8.972487827489056"><ele>146.83333333333334</ele><time>2026-04-18T08:21:29.001Z</time></trkpt><trkpt lat="45.48748203607462" lon="8.972365970302189"><ele>147.0</ele><time>2026-04-18T08:21:30.001Z</time></trkpt><trkpt lat="45.48748622429121" lon="8.972223305735136"><ele>146.6</ele><time>2026-04-18T08:21:31.001Z</time></trkpt><trkpt lat="45.487483617490966" lon="8.972072586042644"><ele>146.2</ele><time>2026-04-18T08:21:32.001Z</time></trkpt><trkpt lat="45.48748118615145" lon="8.971917121143244"><ele>145.8</ele><time>2026-04-18T08:21:33.002Z</time></trkpt><trkpt lat="45.48747986518307" lon="8.97174985538587"><ele>145.4</ele><time>2026-04-18T08:21:34.002Z</time></trkpt><trkpt lat="45.48748009090202" lon="8.971587849137048"><ele>145.0</ele><time>2026-04-18T08:21:35.002Z</time></trkpt><trkpt lat="45.48747567464153" lon="8.97145637319735"><ele>145.0</ele><time>2026-04-18T08:21:36.002Z</time></trkpt><trkpt lat="45.48747331172524" lon="8.971358974992347"><ele>145.0</ele><time>2026-04-18T08:21:37.002Z</time></trkpt><trkpt lat="45.4874753550322" lon="8.971209441798386"><ele>145.0</ele><time>2026-04-18T08:21:39.002Z</time></trkpt><trkpt lat="45.48747549232084" lon="8.971109913387869"><ele>145.0</ele><time>2026-04-18T08:21:40.002Z</time></trkpt><trkpt lat="45.48747353511433" lon="8.97099106673082"><ele>145.0</ele><time>2026-04-18T08:21:41.002Z</time></trkpt><trkpt lat="45.48747701829634" lon="8.97085238031788"><ele>145.0</ele><time>2026-04-18T08:21:42.002Z</time></trkpt><trkpt lat="45.48747339806328" lon="8.97068027195037"><ele>145.0</ele><time>2026-04-18T08:21:43.002Z</time></trkpt><trkpt lat="45.487472982626734" lon="8.970495337614704"><ele>145.0</ele><time>2026-04-18T08:21:44.002Z</time></trkpt><trkpt lat="45.487473639911954" lon="8.970322179687434"><ele>145.0</ele><time>2026-04-18T08:21:45.002Z</time></trkpt><trkpt lat="45.487483328306844" lon="8.970158461351206"><ele>145.0</ele><time>2026-04-18T08:21:46.002Z</time></trkpt><trkpt lat="45.48748963234878" lon="8.96999237446078"><ele>145.0</ele><time>2026-04-18T08:21:47.002Z</time></trkpt><trkpt lat="45.48749376083199" lon="8.969839486923151"><ele>145.0</ele><time>2026-04-18T08:21:48.002Z</time></trkpt><trkpt lat="45.4875091558479" lon="8.96968630575784"><ele>145.0</ele><time>2026-04-18T08:21:49.002Z</time></trkpt><trkpt lat="45.4875072197827" lon="8.96954247501495"><ele>145.0</ele><time>2026-04-18T08:21:50.002Z</time></trkpt><trkpt lat="45.48749434423851" lon="8.969394323110638"><ele>145.0</ele><time>2026-04-18T08:21:51.002Z</time></trkpt><trkpt lat="45.4874714071607" lon="8.96924469619959"><ele>145.0</ele><time>2026-04-18T08:21:52.002Z</time></trkpt><trkpt lat="45.48744610559107" lon="8.969086202055983"><ele>145.0</ele><time>2026-04-18T08:21:53.002Z</time></trkpt><trkpt lat="45.487403241651926" lon="8.96895776337596"><ele>145.0</ele><time>2026-04-18T08:21:54.002Z</time></trkpt><trkpt lat="45.48737956071118" lon="8.968837891369105"><ele>145.0</ele><time>2026-04-18T08:21:55.002Z</time></trkpt><trkpt lat="45.487345040035976" lon="8.968743164537548"><ele>145.0</ele><time>2026-04-18T08:21:56.002Z</time></trkpt><trkpt lat="45.487311352328035" lon="8.968660777213628"><ele>145.0</ele><time>2026-04-18T08:21:57.002Z</time></trkpt><trkpt lat="45.487272192560106" lon="8.968533489003958"><ele>145.0</ele><time>2026-04-18T08:21:59.002Z</time></trkpt><trkpt lat="45.487243245897155" lon="8.968443276027669"><ele>145.0</ele><time>2026-04-18T08:22:02.002Z</time></trkpt><trkpt lat="45.48720307052831" lon="8.96834054419741"><ele>145.0</ele><time>2026-04-18T08:22:06.002Z</time></trkpt><trkpt lat="45.487177644983284" lon="8.968248317207006"><ele>145.0</ele><time>2026-04-18T08:22:09.002Z</time></trkpt><trkpt lat="45.487135216673984" lon="8.968124554125316"><ele>145.0</ele><time>2026-04-18T08:22:12.003Z</time></trkpt><trkpt lat="45.487111765219" lon="8.96797414558242"><ele>145.0</ele><time>2026-04-18T08:22:14.003Z</time></trkpt><trkpt lat="45.487072320632635" lon="8.967821758763254"><ele>145.0</ele><time>2026-04-18T08:22:16.003Z</time></trkpt><trkpt lat="45.487032591053854" lon="8.967670303264223"><ele>145.0</ele><time>2026-04-18T08:22:18.003Z</time></trkpt><trkpt lat="45.48698368043409" lon="8.967530806017567"><ele>145.0</ele><time>2026-04-18T08:22:19.999Z</time></trkpt><trkpt lat="45.486949672926904" lon="8.967403083704266"><ele>145.0</ele><time>2026-04-18T08:22:21.999Z</time></trkpt><trkpt lat="45.48692169142031" lon="8.967281268343246"><ele>145.0</ele><time>2026-04-18T08:22:23.999Z</time></trkpt><trkpt lat="45.48688476752098" lon="8.967145504146993"><ele>144.8</ele><time>2026-04-18T08:22:25.999Z</time></trkpt><trkpt lat="45.48684221873261" lon="8.966997827733213"><ele>144.6</ele><time>2026-04-18T08:22:27.999Z</time></trkpt><trkpt lat="45.48681663710987" lon="8.966911834265575"><ele>144.4</ele><time>2026-04-18T08:22:28.999Z</time></trkpt><trkpt lat="45.48679462127195" lon="8.966747877867661"><ele>144.2</ele><time>2026-04-18T08:22:30.999Z</time></trkpt><trkpt lat="45.486767731873634" lon="8.966615989534013"><ele>144.0</ele><time>2026-04-18T08:22:32.999Z</time></trkpt><trkpt lat="45.486737823468665" lon="8.966514315904535"><ele>143.83333333333334</ele><time>2026-04-18T08:22:35Z</time></trkpt><trkpt lat="45.48671087337663" lon="8.966408038564463"><ele>143.66666666666666</ele><time>2026-04-18T08:22:37Z</time></trkpt><trkpt lat="45.486679395044625" lon="8.966320997620057"><ele>143.5</ele><time>2026-04-18T08:22:39Z</time></trkpt><trkpt lat="45.4866411752118" lon="8.966206448855123"><ele>143.33333333333331</ele><time>2026-04-18T08:22:41Z</time></trkpt><trkpt lat="45.48662221001216" lon="8.966092337818376"><ele>143.16666666666666</ele><time>2026-04-18T08:22:42Z</time></trkpt><trkpt lat="45.48659817888379" lon="8.96594577572162"><ele>143.0</ele><time>2026-04-18T08:22:44Z</time></trkpt><trkpt lat="45.48657541878309" lon="8.965854670410597"><ele>142.8</ele><time>2026-04-18T08:22:48Z</time></trkpt><trkpt lat="45.48654062061417" lon="8.965724656510668"><ele>142.60000000000002</ele><time>2026-04-18T08:22:51Z</time></trkpt><trkpt lat="45.48650973466811" lon="8.9656090620934"><ele>142.39999999999998</ele><time>2026-04-18T08:22:53Z</time></trkpt><trkpt lat="45.48647361208285" lon="8.96547200269681"><ele>142.2</ele><time>2026-04-18T08:22:55Z</time></trkpt><trkpt lat="45.48643150873723" lon="8.965319960270122"><ele>142.0</ele><time>2026-04-18T08:22:57Z</time></trkpt><trkpt lat="45.486389384151664" lon="8.965155626844373"><ele>142.0</ele><time>2026-04-18T08:22:59Z</time></trkpt><trkpt lat="45.48636679002523" lon="8.965069374849335"><ele>142.0</ele><time>2026-04-18T08:23:00Z</time></trkpt><trkpt lat="45.48634367795984" lon="8.964980161213171"><ele>142.0</ele><time>2026-04-18T08:23:01Z</time></trkpt><trkpt lat="45.486321712087125" lon="8.964890167613778"><ele>142.0</ele><time>2026-04-18T08:23:02.001Z</time></trkpt><trkpt lat="45.48630069942931" lon="8.964802675406393"><ele>142.0</ele><time>2026-04-18T08:23:03.001Z</time></trkpt><trkpt lat="45.48627945225985" lon="8.96471476810518"><ele>142.0</ele><time>2026-04-18T08:23:04.001Z</time></trkpt><trkpt lat="45.48625618612889" lon="8.964629003148417"><ele>142.0</ele><time>2026-04-18T08:23:05.001Z</time></trkpt><trkpt lat="45.486232867479444" lon="8.964543341208858"><ele>142.0</ele><time>2026-04-18T08:23:06.001Z</time></trkpt><trkpt lat="45.48621362590821" lon="8.964457741766449"><ele>142.0</ele><time>2026-04-18T08:23:07.001Z</time></trkpt><trkpt lat="45.48619540967819" lon="8.964369687892166"><ele>142.0</ele><time>2026-04-18T08:23:08.001Z</time></trkpt><trkpt lat="45.486173644009256" lon="8.964206098299647"><ele>142.0</ele><time>2026-04-18T08:23:10.001Z</time></trkpt><trkpt lat="45.48618439462951" lon="8.964037955051092"><ele>142.0</ele><time>2026-04-18T08:23:12.001Z</time></trkpt><trkpt lat="45.48618822130166" lon="8.963860292873939"><ele>141.79999999999998</ele><time>2026-04-18T08:23:14.001Z</time></trkpt><trkpt lat="45.48614042190467" lon="8.96372509841079"><ele>141.6</ele><time>2026-04-18T08:23:16.001Z</time></trkpt><trkpt lat="45.486068357737295" lon="8.963717489952563"><ele>141.39999999999998</ele><time>2026-04-18T08:23:27.001Z</time></trkpt><trkpt lat="45.48600511468151" lon="8.963525983923175"><ele>141.2</ele><time>2026-04-18T08:23:29.001Z</time></trkpt><trkpt lat="45.48596766423135" lon="8.963432470337082"><ele>141.0</ele><time>2026-04-18T08:23:30.001Z</time></trkpt><trkpt lat="45.485932969544514" lon="8.963325475427835"><ele>141.33333333333334</ele><time>2026-04-18T08:23:31.001Z</time></trkpt><trkpt lat="45.48590517080076" lon="8.963216638707104"><ele>141.66666666666666</ele><time>2026-04-18T08:23:32.001Z</time></trkpt><trkpt lat="45.48587553200793" lon="8.963107161539773"><ele>142.0</ele><time>2026-04-18T08:23:33.001Z</time></trkpt><trkpt lat="45.4858477145373" lon="8.962996798181502"><ele>142.33333333333331</ele><time>2026-04-18T08:23:34.001Z</time></trkpt><trkpt lat="45.48581602919971" lon="8.962885985498252"><ele>142.66666666666666</ele><time>2026-04-18T08:23:35.001Z</time></trkpt><trkpt lat="45.48578606663156" lon="8.96276578601654"><ele>143.0</ele><time>2026-04-18T08:23:36.001Z</time></trkpt><trkpt lat="45.48575494847556" lon="8.962646154466544"><ele>143.20000000000002</ele><time>2026-04-18T08:23:37.002Z</time></trkpt><trkpt lat="45.48572361632836" lon="8.96252228668347"><ele>143.4</ele><time>2026-04-18T08:23:38.002Z</time></trkpt><trkpt lat="45.48569419376031" lon="8.962394371666289"><ele>143.60000000000002</ele><time>2026-04-18T08:23:39.002Z</time></trkpt><trkpt lat="45.48564726485182" lon="8.962268001065379"><ele>143.8</ele><time>2026-04-18T08:23:40.002Z</time></trkpt><trkpt lat="45.48561724073621" lon="8.96214458623591"><ele>144.0</ele><time>2026-04-18T08:23:41.002Z</time></trkpt><trkpt lat="45.48558586150319" lon="8.962029862882265"><ele>144.0</ele><time>2026-04-18T08:23:42.002Z</time></trkpt><trkpt lat="45.485569183671366" lon="8.961920185997428"><ele>144.0</ele><time>2026-04-18T08:23:43.002Z</time></trkpt><trkpt lat="45.485551356311916" lon="8.961814511614753"><ele>144.0</ele><time>2026-04-18T08:23:44.002Z</time></trkpt><trkpt lat="45.485526346385875" lon="8.961693695411487"><ele>144.0</ele><time>2026-04-18T08:23:45.002Z</time></trkpt><trkpt lat="45.4854900462199" lon="8.961560600520702"><ele>144.0</ele><time>2026-04-18T08:23:46.002Z</time></trkpt><trkpt lat="45.485450659074395" lon="8.961421608163652"><ele>144.0</ele><time>2026-04-18T08:23:47.002Z</time></trkpt><trkpt lat="45.485413103078706" lon="8.961277167727987"><ele>144.0</ele><time>2026-04-18T08:23:48.002Z</time></trkpt><trkpt lat="45.48538154094042" lon="8.961147523252006"><ele>144.0</ele><time>2026-04-18T08:23:49.002Z</time></trkpt><trkpt lat="45.485352368476185" lon="8.961033544004758"><ele>144.0</ele><time>2026-04-18T08:23:50.002Z</time></trkpt><trkpt lat="45.48532444592004" lon="8.960927077736985"><ele>144.0</ele><time>2026-04-18T08:23:51.002Z</time></trkpt><trkpt lat="45.48529241162889" lon="8.960811350267619"><ele>144.0</ele><time>2026-04-18T08:23:52.002Z</time></trkpt><trkpt lat="45.485256754788495" lon="8.960684323630945"><ele>144.0</ele><time>2026-04-18T08:23:53.002Z</time></trkpt><trkpt lat="45.4852202895188" lon="8.960558162512234"><ele>144.0</ele><time>2026-04-18T08:23:54.002Z</time></trkpt><trkpt lat="45.48518930549434" lon="8.960424896344014"><ele>144.0</ele><time>2026-04-18T08:23:55.002Z</time></trkpt><trkpt lat="45.4851557109546" lon="8.960288281876263"><ele>144.0</ele><time>2026-04-18T08:23:56.002Z</time></trkpt><trkpt lat="45.48512037674108" lon="8.96014667351018"><ele>144.0</ele><time>2026-04-18T08:23:57.002Z</time></trkpt><trkpt lat="45.48508282710971" lon="8.96000636687485"><ele>144.0</ele><time>2026-04-18T08:23:58.002Z</time></trkpt><trkpt lat="45.48504106363749" lon="8.959872214635718"><ele>143.8</ele><time>2026-04-18T08:23:59.002Z</time></trkpt><trkpt lat="45.48500492799994" lon="8.959745678866843"><ele>143.60000000000002</ele><time>2026-04-18T08:24:00.002Z</time></trkpt><trkpt lat="45.48497561003729" lon="8.959610573125014"><ele>143.4</ele><time>2026-04-18T08:24:01.002Z</time></trkpt><trkpt lat="45.48494129238641" lon="8.959463740699652"><ele>143.20000000000002</ele><time>2026-04-18T08:24:02.002Z</time></trkpt><trkpt lat="45.48490483054957" lon="8.959322551647812"><ele>143.0</ele><time>2026-04-18T08:24:03.002Z</time></trkpt><trkpt lat="45.484866413993856" lon="8.959190656457563"><ele>143.4</ele><time>2026-04-18T08:24:04.002Z</time></trkpt><trkpt lat="45.48482486115633" lon="8.959046309460808"><ele>143.8</ele><time>2026-04-18T08:24:05.002Z</time></trkpt><trkpt lat="45.484783466721595" lon="8.958904206600307"><ele>144.2</ele><time>2026-04-18T08:24:06.002Z</time></trkpt><trkpt lat="45.484743944177296" lon="8.958754976435264"><ele>144.6</ele><time>2026-04-18T08:24:07.002Z</time></trkpt><trkpt lat="45.48470581646704" lon="8.958602409135377"><ele>145.0</ele><time>2026-04-18T08:24:08.002Z</time></trkpt><trkpt lat="45.48466381852425" lon="8.958444896826409"><ele>145.2</ele><time>2026-04-18T08:24:09.002Z</time></trkpt><trkpt lat="45.48462542994285" lon="8.958297209533075"><ele>145.4</ele><time>2026-04-18T08:24:10.002Z</time></trkpt><trkpt lat="45.484592750974855" lon="8.958164967487106"><ele>145.6</ele><time>2026-04-18T08:24:11.002Z</time></trkpt><trkpt lat="45.484564071324805" lon="8.958040731612392"><ele>145.8</ele><time>2026-04-18T08:24:12.003Z</time></trkpt><trkpt lat="45.484534568959084" lon="8.95791712583997"><ele>146.0</ele><time>2026-04-18T08:24:13.003Z</time></trkpt><trkpt lat="45.484503888568" lon="8.957806157715305"><ele>145.6</ele><time>2026-04-18T08:24:14.003Z</time></trkpt><trkpt lat="45.48447387738584" lon="8.957678885290065"><ele>145.2</ele><time>2026-04-18T08:24:15.003Z</time></trkpt><trkpt lat="45.48444363669616" lon="8.957549842025589"><ele>144.8</ele><time>2026-04-18T08:24:16.003Z</time></trkpt><trkpt lat="45.484405971816074" lon="8.957424487889499"><ele>144.4</ele><time>2026-04-18T08:24:17.003Z</time></trkpt><trkpt lat="45.484372771501334" lon="8.957313680192495"><ele>144.0</ele><time>2026-04-18T08:24:18.003Z</time></trkpt><trkpt lat="45.48434118134025" lon="8.957188247773585"><ele>144.0</ele><time>2026-04-18T08:24:19.003Z</time></trkpt><trkpt lat="45.48431000728666" lon="8.957067173545115"><ele>144.0</ele><time>2026-04-18T08:24:20.003Z</time></trkpt><trkpt lat="45.4842922142138" lon="8.956939848900962"><ele>144.0</ele><time>2026-04-18T08:24:21.003Z</time></trkpt><trkpt lat="45.48424828701958" lon="8.956822381172186"><ele>144.0</ele><time>2026-04-18T08:24:22.003Z</time></trkpt><trkpt lat="45.484215825753" lon="8.956688591497244"><ele>144.0</ele><time>2026-04-18T08:24:23.003Z</time></trkpt><trkpt lat="45.48418388202627" lon="8.956563843835035"><ele>143.83333333333334</ele><time>2026-04-18T08:24:24.003Z</time></trkpt><trkpt lat="45.48415291047481" lon="8.956434403247815"><ele>143.66666666666666</ele><time>2026-04-18T08:24:25Z</time></trkpt><trkpt lat="45.48412190999797" lon="8.956323580493386"><ele>143.5</ele><time>2026-04-18T08:24:26Z</time></trkpt><trkpt lat="45.48410470804225" lon="8.956201533468983"><ele>143.33333333333331</ele><time>2026-04-18T08:24:27Z</time></trkpt><trkpt lat="45.484061109778224" lon="8.956105519648077"><ele>143.16666666666666</ele><time>2026-04-18T08:24:28Z</time></trkpt><trkpt lat="45.4840421352877" lon="8.956000785824937"><ele>143.0</ele><time>2026-04-18T08:24:29Z</time></trkpt><trkpt lat="45.48402086187169" lon="8.95590643190386"><ele>143.0</ele><time>2026-04-18T08:24:30Z</time></trkpt><trkpt lat="45.48397892041635" lon="8.955759955402865"><ele>143.0</ele><time>2026-04-18T08:24:32Z</time></trkpt><trkpt lat="45.48394581328445" lon="8.95563462867738"><ele>143.0</ele><time>2026-04-18T08:24:34Z</time></trkpt><trkpt lat="45.48390291184231" lon="8.95546842130434"><ele>143.0</ele><time>2026-04-18T08:24:36Z</time></trkpt><trkpt lat="45.48389392424981" lon="8.955363610790055"><ele>143.0</ele><time>2026-04-18T08:24:37Z</time></trkpt><trkpt lat="45.483852228037776" lon="8.955211768878097"><ele>143.0</ele><time>2026-04-18T08:24:39Z</time></trkpt><trkpt lat="45.483815286658036" lon="8.955048859300815"><ele>143.0</ele><time>2026-04-18T08:24:41Z</time></trkpt><trkpt lat="45.48377399199523" lon="8.954874811711836"><ele>143.0</ele><time>2026-04-18T08:24:43Z</time></trkpt><trkpt lat="45.48374516842292" lon="8.954754217385352"><ele>143.0</ele><time>2026-04-18T08:24:44Z</time></trkpt><trkpt lat="45.483706059693525" lon="8.95461475042366"><ele>143.0</ele><time>2026-04-18T08:24:45Z</time></trkpt><trkpt lat="45.48365505666239" lon="8.95444518034106"><ele>142.5</ele><time>2026-04-18T08:24:46Z</time></trkpt><trkpt lat="45.48361237390603" lon="8.954255084179017"><ele>142.0</ele><time>2026-04-18T08:24:47Z</time></trkpt><trkpt lat="45.483578682334745" lon="8.95406447024683"><ele>141.5</ele><time>2026-04-18T08:24:48Z</time></trkpt><trkpt lat="45.48354276285901" lon="8.953901202083335"><ele>141.0</ele><time>2026-04-18T08:24:49Z</time></trkpt><trkpt lat="45.48350548630489" lon="8.953764578739056"><ele>141.0</ele><time>2026-04-18T08:24:50Z</time></trkpt><trkpt lat="45.483471214344455" lon="8.95363381374884"><ele>141.0</ele><time>2026-04-18T08:24:51Z</time></trkpt><trkpt lat="45.48343802890835" lon="8.953516718102636"><ele>141.0</ele><time>2026-04-18T08:24:52Z</time></trkpt><trkpt lat="45.48340996563223" lon="8.953410357929716"><ele>141.0</ele><time>2026-04-18T08:24:53Z</time></trkpt><trkpt lat="45.48338635808986" lon="8.953311311940022"><ele>141.0</ele><time>2026-04-18T08:24:54Z</time></trkpt><trkpt lat="45.4833647820682" lon="8.953213948221109"><ele>141.0</ele><time>2026-04-18T08:24:55Z</time></trkpt><trkpt lat="45.48334703896006" lon="8.953124529549141"><ele>141.4</ele><time>2026-04-18T08:24:56Z</time></trkpt><trkpt lat="45.48332637512892" lon="8.953034684434993"><ele>141.8</ele><time>2026-04-18T08:24:57Z</time></trkpt><trkpt lat="45.4832781990183" lon="8.952873234174715"><ele>142.20000000000002</ele><time>2026-04-18T08:24:59Z</time></trkpt><trkpt lat="45.48323117172497" lon="8.952720237004373"><ele>142.6</ele><time>2026-04-18T08:25:01.001Z</time></trkpt><trkpt lat="45.48320450700778" lon="8.952545016604939"><ele>143.0</ele><time>2026-04-18T08:25:03.001Z</time></trkpt><trkpt lat="45.48320881296537" lon="8.952399287050117"><ele>143.0</ele><time>2026-04-18T08:25:05.001Z</time></trkpt><trkpt lat="45.483154473442625" lon="8.952298667186088"><ele>143.0</ele><time>2026-04-18T08:25:07.001Z</time></trkpt><trkpt lat="45.48309116234808" lon="8.952302837156168"><ele>143.0</ele><time>2026-04-18T08:25:08.001Z</time></trkpt><trkpt lat="45.483033099384166" lon="8.952373978664262"><ele>143.0</ele><time>2026-04-18T08:25:09.001Z</time></trkpt><trkpt lat="45.482973614172714" lon="8.952437681840005"><ele>143.0</ele><time>2026-04-18T08:25:10.001Z</time></trkpt><trkpt lat="45.48290640037171" lon="8.952492858778015"><ele>143.0</ele><time>2026-04-18T08:25:11.001Z</time></trkpt><trkpt lat="45.48282009839263" lon="8.952517583150044"><ele>142.20000000000002</ele><time>2026-04-18T08:25:12.001Z</time></trkpt><trkpt lat="45.48273941104734" lon="8.952580907219394"><ele>141.4</ele><time>2026-04-18T08:25:13.001Z</time></trkpt><trkpt lat="45.482641137800556" lon="8.952618309389406"><ele>140.60000000000002</ele><time>2026-04-18T08:25:14.001Z</time></trkpt><trkpt lat="45.48253570843444" lon="8.952612498882036"><ele>139.8</ele><time>2026-04-18T08:25:15.001Z</time></trkpt><trkpt lat="45.48243205197635" lon="8.952616561907217"><ele>139.0</ele><time>2026-04-18T08:25:16.001Z</time></trkpt><trkpt lat="45.48232996132096" lon="8.952636179669073"><ele>139.0</ele><time>2026-04-18T08:25:17.001Z</time></trkpt><trkpt lat="45.48224671083854" lon="8.952632675895325"><ele>139.0</ele><time>2026-04-18T08:25:18.001Z</time></trkpt><trkpt lat="45.482170164155114" lon="8.952632238328272"><ele>139.0</ele><time>2026-04-18T08:25:19.001Z</time></trkpt><trkpt lat="45.48209374854109" lon="8.952634935772013"><ele>139.0</ele><time>2026-04-18T08:25:20.001Z</time></trkpt><trkpt lat="45.48201630651618" lon="8.95263663085045"><ele>139.0</ele><time>2026-04-18T08:25:21.001Z</time></trkpt><trkpt lat="45.48194890029041" lon="8.952628191392753"><ele>139.0</ele><time>2026-04-18T08:25:22.001Z</time></trkpt><trkpt lat="45.481842017521195" lon="8.952565220881713"><ele>139.0</ele><time>2026-04-18T08:25:24.001Z</time></trkpt><trkpt lat="45.4818022150709" lon="8.952421518352567"><ele>139.0</ele><time>2026-04-18T08:25:26.001Z</time></trkpt><trkpt lat="45.4817787136412" lon="8.952336942869628"><ele>139.0</ele><time>2026-04-18T08:25:27.001Z</time></trkpt><trkpt lat="45.4817753970565" lon="8.952225965192415"><ele>139.0</ele><time>2026-04-18T08:25:28.001Z</time></trkpt><trkpt lat="45.481770020289616" lon="8.952103753202998"><ele>139.0</ele><time>2026-04-18T08:25:29.001Z</time></trkpt><trkpt lat="45.48176267048394" lon="8.951964204424623"><ele>139.0</ele><time>2026-04-18T08:25:30.001Z</time></trkpt><trkpt lat="45.48175306825422" lon="8.951816251933092"><ele>139.8</ele><time>2026-04-18T08:25:31.001Z</time></trkpt><trkpt lat="45.48174629716681" lon="8.951650484642448"><ele>140.60000000000002</ele><time>2026-04-18T08:25:32.001Z</time></trkpt><trkpt lat="45.48174164211118" lon="8.951495707846266"><ele>141.4</ele><time>2026-04-18T08:25:33.001Z</time></trkpt><trkpt lat="45.48173526750737" lon="8.951339865379147"><ele>142.20000000000002</ele><time>2026-04-18T08:25:34.002Z</time></trkpt><trkpt lat="45.48173042417116" lon="8.951197067435565"><ele>143.0</ele><time>2026-04-18T08:25:35.002Z</time></trkpt><trkpt lat="45.4817248383137" lon="8.95107633785333"><ele>143.0</ele><time>2026-04-18T08:25:36.002Z</time></trkpt><trkpt lat="45.481721323917185" lon="8.950964505066205"><ele>143.0</ele><time>2026-04-18T08:25:37.002Z</time></trkpt><trkpt lat="45.48171823181159" lon="8.95086518033918"><ele>143.0</ele><time>2026-04-18T08:25:38.002Z</time></trkpt><trkpt lat="45.48171702102428" lon="8.95076975712645"><ele>143.0</ele><time>2026-04-18T08:25:39.002Z</time></trkpt><trkpt lat="45.4817205050646" lon="8.950674243601298"><ele>143.0</ele><time>2026-04-18T08:25:40.002Z</time></trkpt><trkpt lat="45.48172495433054" lon="8.950523533072756"><ele>143.0</ele><time>2026-04-18T08:25:42.002Z</time></trkpt><trkpt lat="45.48170567368727" lon="8.95041783437392"><ele>142.66666666666666</ele><time>2026-04-18T08:26:28.003Z</time></trkpt><trkpt lat="45.48169216005479" lon="8.950265558851074"><ele>142.33333333333331</ele><time>2026-04-18T08:26:30.003Z</time></trkpt><trkpt lat="45.48168566816982" lon="8.950167555903334"><ele>142.0</ele><time>2026-04-18T08:26:31Z</time></trkpt><trkpt lat="45.481676519756995" lon="8.950050824516286"><ele>141.66666666666666</ele><time>2026-04-18T08:26:32Z</time></trkpt><trkpt lat="45.481668439248196" lon="8.949940962412787"><ele>141.33333333333334</ele><time>2026-04-18T08:26:33Z</time></trkpt><trkpt lat="45.481666621149515" lon="8.949849766344048"><ele>141.0</ele><time>2026-04-18T08:26:34Z</time></trkpt><trkpt lat="45.481686043257724" lon="8.949697736465653"><ele>141.0</ele><time>2026-04-18T08:26:36Z</time></trkpt><trkpt lat="45.48175675380393" lon="8.949550258686136"><ele>141.0</ele><time>2026-04-18T08:26:38Z</time></trkpt><trkpt lat="45.481804853276806" lon="8.949453239455229"><ele>141.0</ele><time>2026-04-18T08:26:39Z</time></trkpt><trkpt lat="45.48185845196301" lon="8.949342909430591"><ele>141.0</ele><time>2026-04-18T08:26:40Z</time></trkpt><trkpt lat="45.48190229574289" lon="8.949222055066187"><ele>141.0</ele><time>2026-04-18T08:26:41Z</time></trkpt><trkpt lat="45.48192044747341" lon="8.949091972269365"><ele>141.2</ele><time>2026-04-18T08:26:42Z</time></trkpt><trkpt lat="45.48190663156884" lon="8.94895793453649"><ele>141.39999999999998</ele><time>2026-04-18T08:26:43Z</time></trkpt><trkpt lat="45.48186208356118" lon="8.948827350110733"><ele>141.6</ele><time>2026-04-18T08:26:44Z</time></trkpt><trkpt lat="45.48180550193414" lon="8.948733016883564"><ele>141.79999999999998</ele><time>2026-04-18T08:26:45Z</time></trkpt><trkpt lat="45.48173742887631" lon="8.948653584074014"><ele>142.0</ele><time>2026-04-18T08:26:46Z</time></trkpt><trkpt lat="45.48167391359731" lon="8.948566290481086"><ele>142.0</ele><time>2026-04-18T08:26:47Z</time></trkpt><trkpt lat="45.48162564515559" lon="8.94844682066924"><ele>142.0</ele><time>2026-04-18T08:26:48Z</time></trkpt><trkpt lat="45.481604251028834" lon="8.948296345301593"><ele>142.0</ele><time>2026-04-18T08:26:49Z</time></trkpt><trkpt lat="45.48160733534589" lon="8.948123356800211"><ele>142.0</ele><time>2026-04-18T08:26:50Z</time></trkpt><trkpt lat="45.481608757746805" lon="8.947937126357292"><ele>142.0</ele><time>2026-04-18T08:26:51Z</time></trkpt><trkpt lat="45.4816050120591" lon="8.94774008597272"><ele>142.0</ele><time>2026-04-18T08:26:52Z</time></trkpt><trkpt lat="45.48159589807902" lon="8.947533634657047"><ele>142.0</ele><time>2026-04-18T08:26:53Z</time></trkpt><trkpt lat="45.4815878486443" lon="8.947334658519308"><ele>142.0</ele><time>2026-04-18T08:26:54Z</time></trkpt><trkpt lat="45.48157774800636" lon="8.947146875166668"><ele>141.6</ele><time>2026-04-18T08:26:55Z</time></trkpt><trkpt lat="45.48156685933048" lon="8.94698063913508"><ele>141.2</ele><time>2026-04-18T08:26:56Z</time></trkpt><trkpt lat="45.481555707435206" lon="8.946829281096681"><ele>140.8</ele><time>2026-04-18T08:26:57Z</time></trkpt><trkpt lat="45.48154279906401" lon="8.946694660342192"><ele>140.4</ele><time>2026-04-18T08:26:58Z</time></trkpt><trkpt lat="45.48152719107358" lon="8.946572783902857"><ele>140.0</ele><time>2026-04-18T08:26:59Z</time></trkpt><trkpt lat="45.48153244328429" lon="8.946450475172508"><ele>139.8</ele><time>2026-04-18T08:27:00Z</time></trkpt><trkpt lat="45.48151895989201" lon="8.946323105760465"><ele>139.6</ele><time>2026-04-18T08:27:01Z</time></trkpt><trkpt lat="45.4815018796582" lon="8.946174265381485"><ele>139.4</ele><time>2026-04-18T08:27:02.001Z</time></trkpt><trkpt lat="45.481483539515956" lon="8.946035445934891"><ele>139.2</ele><time>2026-04-18T08:27:03.001Z</time></trkpt><trkpt lat="45.48146716581714" lon="8.94591049387234"><ele>139.0</ele><time>2026-04-18T08:27:04.001Z</time></trkpt><trkpt lat="45.48144676322486" lon="8.945784180753956"><ele>139.6</ele><time>2026-04-18T08:27:05.001Z</time></trkpt><trkpt lat="45.48142452624277" lon="8.945661562397147"><ele>140.2</ele><time>2026-04-18T08:27:06.001Z</time></trkpt><trkpt lat="45.4813998571509" lon="8.945529041815124"><ele>140.79999999999998</ele><time>2026-04-18T08:27:07.001Z</time></trkpt><trkpt lat="45.48136669205359" lon="8.945389762664647"><ele>141.4</ele><time>2026-04-18T08:27:08.001Z</time></trkpt><trkpt lat="45.48132760560526" lon="8.945233656476244"><ele>142.0</ele><time>2026-04-18T08:27:09.001Z</time></trkpt><trkpt lat="45.481281816122134" lon="8.945053686619262"><ele>142.0</ele><time>2026-04-18T08:27:10.001Z</time></trkpt><trkpt lat="45.481232829405485" lon="8.944861149834182"><ele>142.0</ele><time>2026-04-18T08:27:11.001Z</time></trkpt><trkpt lat="45.481182781529164" lon="8.944664442773156"><ele>142.0</ele><time>2026-04-18T08:27:12.001Z</time></trkpt><trkpt lat="45.48113682666115" lon="8.944483822706934"><ele>142.0</ele><time>2026-04-18T08:27:13.001Z</time></trkpt><trkpt lat="45.481094599055496" lon="8.944317852191569"><ele>142.0</ele><time>2026-04-18T08:27:14.001Z</time></trkpt><trkpt lat="45.48105461317285" lon="8.944160692518736"><ele>142.0</ele><time>2026-04-18T08:27:15.001Z</time></trkpt><trkpt lat="45.48100312935416" lon="8.944016061090093"><ele>142.0</ele><time>2026-04-18T08:27:16.001Z</time></trkpt><trkpt lat="45.48096947658714" lon="8.943872349551967"><ele>142.0</ele><time>2026-04-18T08:27:17.001Z</time></trkpt><trkpt lat="45.48093115088878" lon="8.943718498468371"><ele>142.0</ele><time>2026-04-18T08:27:18.001Z</time></trkpt><trkpt lat="45.480889798690626" lon="8.94356061247242"><ele>142.0</ele><time>2026-04-18T08:27:19.001Z</time></trkpt><trkpt lat="45.48084617901205" lon="8.943403112442557"><ele>142.0</ele><time>2026-04-18T08:27:20.001Z</time></trkpt><trkpt lat="45.480819727163976" lon="8.943236715269327"><ele>142.0</ele><time>2026-04-18T08:27:21.001Z</time></trkpt><trkpt lat="45.48076536591938" lon="8.943085629920565"><ele>141.75</ele><time>2026-04-18T08:27:22.001Z</time></trkpt><trkpt lat="45.4807268762506" lon="8.942928807784455"><ele>141.5</ele><time>2026-04-18T08:27:23.001Z</time></trkpt><trkpt lat="45.480686475861624" lon="8.942771304867874"><ele>141.25</ele><time>2026-04-18T08:27:24.001Z</time></trkpt><trkpt lat="45.48064575197489" lon="8.942613699859027"><ele>141.0</ele><time>2026-04-18T08:27:25.001Z</time></trkpt><trkpt lat="45.48060563868173" lon="8.942456881658755"><ele>141.5</ele><time>2026-04-18T08:27:26.001Z</time></trkpt><trkpt lat="45.48056441544666" lon="8.942300148763719"><ele>142.0</ele><time>2026-04-18T08:27:27.001Z</time></trkpt><trkpt lat="45.480523872530135" lon="8.942143785413954"><ele>142.5</ele><time>2026-04-18T08:27:28.001Z</time></trkpt><trkpt lat="45.480484574194115" lon="8.941989750352667"><ele>143.0</ele><time>2026-04-18T08:27:29.001Z</time></trkpt><trkpt lat="45.480448239763454" lon="8.941837026012493"><ele>142.8</ele><time>2026-04-18T08:27:30.001Z</time></trkpt><trkpt lat="45.480409069990394" lon="8.941681433177843"><ele>142.60000000000002</ele><time>2026-04-18T08:27:31.001Z</time></trkpt><trkpt lat="45.4803690564883" lon="8.941525180479735"><ele>142.39999999999998</ele><time>2026-04-18T08:27:32.001Z</time></trkpt><trkpt lat="45.480330722230605" lon="8.94137957862716"><ele>142.2</ele><time>2026-04-18T08:27:33.001Z</time></trkpt><trkpt lat="45.48029656320416" lon="8.94124943710743"><ele>142.0</ele><time>2026-04-18T08:27:34.001Z</time></trkpt><trkpt lat="45.48026614274873" lon="8.941127014472592"><ele>142.0</ele><time>2026-04-18T08:27:35.001Z</time></trkpt><trkpt lat="45.48023748251944" lon="8.941002697632207"><ele>142.0</ele><time>2026-04-18T08:27:36.002Z</time></trkpt><trkpt lat="45.4802096777789" lon="8.940876481183427"><ele>142.0</ele><time>2026-04-18T08:27:37.002Z</time></trkpt><trkpt lat="45.48017967641622" lon="8.940744377753644"><ele>142.0</ele><time>2026-04-18T08:27:38.002Z</time></trkpt><trkpt lat="45.480149585559026" lon="8.94060200541221"><ele>142.0</ele><time>2026-04-18T08:27:39.002Z</time></trkpt><trkpt lat="45.48010969702887" lon="8.940425896158057"><ele>142.0</ele><time>2026-04-18T08:27:40.002Z</time></trkpt><trkpt lat="45.48004862582243" lon="8.940224961501327"><ele>142.0</ele><time>2026-04-18T08:27:41.002Z</time></trkpt><trkpt lat="45.479989280543535" lon="8.939983069507807"><ele>142.0</ele><time>2026-04-18T08:27:42.002Z</time></trkpt><trkpt lat="45.47992148323139" lon="8.939717832911462"><ele>142.0</ele><time>2026-04-18T08:27:43.002Z</time></trkpt><trkpt lat="45.47985745171287" lon="8.939468177715302"><ele>142.0</ele><time>2026-04-18T08:27:44.002Z</time></trkpt><trkpt lat="45.479793737253324" lon="8.939260111136015"><ele>142.0</ele><time>2026-04-18T08:27:45.002Z</time></trkpt><trkpt lat="45.479752228085886" lon="8.93906907093082"><ele>141.75</ele><time>2026-04-18T08:27:46.002Z</time></trkpt><trkpt lat="45.479706961828605" lon="8.938893456525692"><ele>141.5</ele><time>2026-04-18T08:27:47.002Z</time></trkpt><trkpt lat="45.47966306751103" lon="8.938734989189955"><ele>141.25</ele><time>2026-04-18T08:27:48.002Z</time></trkpt><trkpt lat="45.47962312878805" lon="8.938584503706863"><ele>141.0</ele><time>2026-04-18T08:27:49.002Z</time></trkpt><trkpt lat="45.47959149142194" lon="8.938445766955649"><ele>141.2</ele><time>2026-04-18T08:27:50.002Z</time></trkpt><trkpt lat="45.47956103128143" lon="8.938313586399126"><ele>141.39999999999998</ele><time>2026-04-18T08:27:51.002Z</time></trkpt><trkpt lat="45.479539308475" lon="8.938195769835866"><ele>141.6</ele><time>2026-04-18T08:27:52.002Z</time></trkpt><trkpt lat="45.479515337961885" lon="8.938070704701019"><ele>141.79999999999998</ele><time>2026-04-18T08:27:53.002Z</time></trkpt><trkpt lat="45.47948512553284" lon="8.937933169292737"><ele>142.0</ele><time>2026-04-18T08:27:54.002Z</time></trkpt><trkpt lat="45.47945211191936" lon="8.937792744117953"><ele>142.0</ele><time>2026-04-18T08:27:55.002Z</time></trkpt><trkpt lat="45.479414104712426" lon="8.937640678033484"><ele>142.0</ele><time>2026-04-18T08:27:56.002Z</time></trkpt><trkpt lat="45.47937137798671" lon="8.937482366884844"><ele>142.0</ele><time>2026-04-18T08:27:57.002Z</time></trkpt><trkpt lat="45.47932366112527" lon="8.93731911680157"><ele>142.0</ele><time>2026-04-18T08:27:58.002Z</time></trkpt><trkpt lat="45.47927505221217" lon="8.937141691692942"><ele>142.0</ele><time>2026-04-18T08:27:59.002Z</time></trkpt><trkpt lat="45.47923138088444" lon="8.936964019044305"><ele>142.0</ele><time>2026-04-18T08:28:00.002Z</time></trkpt><trkpt lat="45.47918627024829" lon="8.936778175110547"><ele>142.0</ele><time>2026-04-18T08:28:01.002Z</time></trkpt><trkpt lat="45.479139861641166" lon="8.93659066082777"><ele>142.0</ele><time>2026-04-18T08:28:02.002Z</time></trkpt><trkpt lat="45.47909254008978" lon="8.936399097394501"><ele>142.0</ele><time>2026-04-18T08:28:03.002Z</time></trkpt><trkpt lat="45.479032475116725" lon="8.936213005494068"><ele>142.0</ele><time>2026-04-18T08:28:04.002Z</time></trkpt><trkpt lat="45.47897291298283" lon="8.936028243691366"><ele>142.0</ele><time>2026-04-18T08:28:05.002Z</time></trkpt><trkpt lat="45.4789274041186" lon="8.935859035565564"><ele>142.0</ele><time>2026-04-18T08:28:06.002Z</time></trkpt><trkpt lat="45.47888875811726" lon="8.935699223849106"><ele>141.75</ele><time>2026-04-18T08:28:07.002Z</time></trkpt><trkpt lat="45.47884739233199" lon="8.935539659962108"><ele>141.5</ele><time>2026-04-18T08:28:08.002Z</time></trkpt><trkpt lat="45.47880240142668" lon="8.935372026543565"><ele>141.25</ele><time>2026-04-18T08:28:09.002Z</time></trkpt><trkpt lat="45.47875301987465" lon="8.935198946362032"><ele>141.0</ele><time>2026-04-18T08:28:10.003Z</time></trkpt><trkpt lat="45.47870473473807" lon="8.935021362708879"><ele>140.75</ele><time>2026-04-18T08:28:11.003Z</time></trkpt><trkpt lat="45.47865730284381" lon="8.93483807178388"><ele>140.5</ele><time>2026-04-18T08:28:12.003Z</time></trkpt><trkpt lat="45.47861004740908" lon="8.934649452415384"><ele>140.25</ele><time>2026-04-18T08:28:13.003Z</time></trkpt><trkpt lat="45.47856103178306" lon="8.934459601906601"><ele>140.0</ele><time>2026-04-18T08:28:14.003Z</time></trkpt><trkpt lat="45.47851196043289" lon="8.934271632105855"><ele>140.5</ele><time>2026-04-18T08:28:15.003Z</time></trkpt><trkpt lat="45.478462047565365" lon="8.934086870564839"><ele>141.0</ele><time>2026-04-18T08:28:16.003Z</time></trkpt><trkpt lat="45.47841159832976" lon="8.933904344889193"><ele>141.5</ele><time>2026-04-18T08:28:17.003Z</time></trkpt><trkpt lat="45.4783603961707" lon="8.933724120269801"><ele>142.0</ele><time>2026-04-18T08:28:18.003Z</time></trkpt><trkpt lat="45.47831167852458" lon="8.933541971970076"><ele>141.75</ele><time>2026-04-18T08:28:19.003Z</time></trkpt><trkpt lat="45.478264744027456" lon="8.933361670876751"><ele>141.5</ele><time>2026-04-18T08:28:20.003Z</time></trkpt><trkpt lat="45.478219840842335" lon="8.933181824315492"><ele>141.25</ele><time>2026-04-18T08:28:21.003Z</time></trkpt><trkpt lat="45.47817579768768" lon="8.93300199305645"><ele>141.0</ele><time>2026-04-18T08:28:22.003Z</time></trkpt><trkpt lat="45.47812874256515" lon="8.932827738500682"><ele>141.0</ele><time>2026-04-18T08:28:23.003Z</time></trkpt><trkpt lat="45.47808234698909" lon="8.93265346397725"><ele>141.0</ele><time>2026-04-18T08:28:24.003Z</time></trkpt><trkpt lat="45.478036994340776" lon="8.932491390440498"><ele>141.0</ele><time>2026-04-18T08:28:25.003Z</time></trkpt><trkpt lat="45.47799582450857" lon="8.932343258714447"><ele>141.0</ele><time>2026-04-18T08:28:26.003Z</time></trkpt><trkpt lat="45.477957900799105" lon="8.932198284183416"><ele>141.5</ele><time>2026-04-18T08:28:27.003Z</time></trkpt><trkpt lat="45.47791762385449" lon="8.93204054683751"><ele>142.0</ele><time>2026-04-18T08:28:28.003Z</time></trkpt><trkpt lat="45.47787314220616" lon="8.93187150940213"><ele>142.5</ele><time>2026-04-18T08:28:29.003Z</time></trkpt><trkpt lat="45.47782171686016" lon="8.93169857936918"><ele>143.0</ele><time>2026-04-18T08:28:30.003Z</time></trkpt><trkpt lat="45.477770542348836" lon="8.931518319589353"><ele>143.0</ele><time>2026-04-18T08:28:31.003Z</time></trkpt><trkpt lat="45.47772315278011" lon="8.931340165868633"><ele>143.0</ele><time>2026-04-18T08:28:32.003Z</time></trkpt><trkpt lat="45.477679938867816" lon="8.931168543881512"><ele>143.0</ele><time>2026-04-18T08:28:33.003Z</time></trkpt><trkpt lat="45.47763625649383" lon="8.93099142403317"><ele>143.0</ele><time>2026-04-18T08:28:34.003Z</time></trkpt><trkpt lat="45.47759105054592" lon="8.93081528946643"><ele>142.8</ele><time>2026-04-18T08:28:35.003Z</time></trkpt><trkpt lat="45.47754858051504" lon="8.930656155405375"><ele>142.60000000000002</ele><time>2026-04-18T08:28:36.003Z</time></trkpt><trkpt lat="45.477509997092504" lon="8.930510702429332"><ele>142.39999999999998</ele><time>2026-04-18T08:28:37Z</time></trkpt><trkpt lat="45.477474475680616" lon="8.930369051069357"><ele>142.2</ele><time>2026-04-18T08:28:38Z</time></trkpt><trkpt lat="45.47743869632628" lon="8.930226083399795"><ele>142.0</ele><time>2026-04-18T08:28:39Z</time></trkpt><trkpt lat="45.47739876688424" lon="8.930072888427857"><ele>142.0</ele><time>2026-04-18T08:28:40Z</time></trkpt><trkpt lat="45.47735759895851" lon="8.929914280958782"><ele>142.0</ele><time>2026-04-18T08:28:41Z</time></trkpt><trkpt lat="45.47731733825562" lon="8.929763899907078"><ele>142.0</ele><time>2026-04-18T08:28:42Z</time></trkpt><trkpt lat="45.47728206742085" lon="8.929627974681651"><ele>142.0</ele><time>2026-04-18T08:28:43Z</time></trkpt><trkpt lat="45.47724673190616" lon="8.929503069682902"><ele>142.0</ele><time>2026-04-18T08:28:44Z</time></trkpt><trkpt lat="45.47721232785318" lon="8.92937870401986"><ele>142.0</ele><time>2026-04-18T08:28:45Z</time></trkpt><trkpt lat="45.47717907360822" lon="8.929251535043475"><ele>142.0</ele><time>2026-04-18T08:28:46Z</time></trkpt><trkpt lat="45.47714640527811" lon="8.929125278987646"><ele>142.0</ele><time>2026-04-18T08:28:47Z</time></trkpt><trkpt lat="45.4771147848023" lon="8.929000949441784"><ele>142.0</ele><time>2026-04-18T08:28:48Z</time></trkpt><trkpt lat="45.47707977487447" lon="8.928868291752682"><ele>142.0</ele><time>2026-04-18T08:28:49Z</time></trkpt><trkpt lat="45.47704192184339" lon="8.928727945634138"><ele>142.0</ele><time>2026-04-18T08:28:50Z</time></trkpt><trkpt lat="45.47699601326243" lon="8.928579800852438"><ele>142.0</ele><time>2026-04-18T08:28:51Z</time></trkpt><trkpt lat="45.47693946695289" lon="8.928410241582887"><ele>142.0</ele><time>2026-04-18T08:28:52Z</time></trkpt><trkpt lat="45.47690163063862" lon="8.928213277170313"><ele>142.0</ele><time>2026-04-18T08:28:53Z</time></trkpt><trkpt lat="45.47685009331252" lon="8.928018795764498"><ele>141.5</ele><time>2026-04-18T08:28:54Z</time></trkpt><trkpt lat="45.47679526359762" lon="8.927856009876857"><ele>141.0</ele><time>2026-04-18T08:28:55Z</time></trkpt><trkpt lat="45.47676091859069" lon="8.927700040811212"><ele>140.5</ele><time>2026-04-18T08:28:56Z</time></trkpt><trkpt lat="45.476722924204466" lon="8.92755738175288"><ele>140.0</ele><time>2026-04-18T08:28:57Z</time></trkpt><trkpt lat="45.476682632608664" lon="8.927424864564397"><ele>139.83333333333331</ele><time>2026-04-18T08:28:58Z</time></trkpt><trkpt lat="45.476646578323525" lon="8.927304551325769"><ele>139.66666666666666</ele><time>2026-04-18T08:28:59Z</time></trkpt><trkpt lat="45.476614468568414" lon="8.927179987133892"><ele>139.5</ele><time>2026-04-18T08:29:00Z</time></trkpt><trkpt lat="45.47658762427853" lon="8.927049121179312"><ele>139.33333333333334</ele><time>2026-04-18T08:29:01Z</time></trkpt><trkpt lat="45.47656486532903" lon="8.926925921456041"><ele>139.16666666666669</ele><time>2026-04-18T08:29:02Z</time></trkpt><trkpt lat="45.476546319195215" lon="8.92681553999051"><ele>139.0</ele><time>2026-04-18T08:29:03Z</time></trkpt><trkpt lat="45.47653820562161" lon="8.926718456684377"><ele>138.83333333333334</ele><time>2026-04-18T08:29:04Z</time></trkpt><trkpt lat="45.47653886725603" lon="8.926603179069605"><ele>138.66666666666669</ele><time>2026-04-18T08:29:05Z</time></trkpt><trkpt lat="45.47655519165561" lon="8.926491260631078"><ele>138.5</ele><time>2026-04-18T08:29:06Z</time></trkpt><trkpt lat="45.47656560812072" lon="8.926389798358633"><ele>138.33333333333334</ele><time>2026-04-18T08:29:07Z</time></trkpt><trkpt lat="45.47654504974043" lon="8.926290828953897"><ele>138.16666666666666</ele><time>2026-04-18T08:29:08Z</time></trkpt><trkpt lat="45.47649782148023" lon="8.926205053531746"><ele>138.0</ele><time>2026-04-18T08:29:09Z</time></trkpt><trkpt lat="45.476429590716975" lon="8.926130465809127"><ele>138.0</ele><time>2026-04-18T08:29:10.001Z</time></trkpt><trkpt lat="45.47635814473354" lon="8.926056740295214"><ele>138.0</ele><time>2026-04-18T08:29:11.001Z</time></trkpt><trkpt lat="45.476295227940014" lon="8.925952726260473"><ele>138.0</ele><time>2026-04-18T08:29:12.001Z</time></trkpt><trkpt lat="45.476246219017135" lon="8.925802503391033"><ele>138.0</ele><time>2026-04-18T08:29:13.001Z</time></trkpt><trkpt lat="45.476198565884324" lon="8.925629882331314"><ele>138.0</ele><time>2026-04-18T08:29:14.001Z</time></trkpt><trkpt lat="45.476150522364385" lon="8.925442737518582"><ele>138.5</ele><time>2026-04-18T08:29:15.001Z</time></trkpt><trkpt lat="45.47610439537053" lon="8.92524867266636"><ele>139.0</ele><time>2026-04-18T08:29:16.001Z</time></trkpt><trkpt lat="45.476062941267" lon="8.925078151077937"><ele>139.5</ele><time>2026-04-18T08:29:17.001Z</time></trkpt><trkpt lat="45.47602157036584" lon="8.924926301921627"><ele>140.0</ele><time>2026-04-18T08:29:18.001Z</time></trkpt><trkpt lat="45.47598042930189" lon="8.924774060070552"><ele>140.0</ele><time>2026-04-18T08:29:19.001Z</time></trkpt><trkpt lat="45.475938951503956" lon="8.924612360057898"><ele>140.0</ele><time>2026-04-18T08:29:20.001Z</time></trkpt><trkpt lat="45.47589805255963" lon="8.924446148511748"><ele>140.0</ele><time>2026-04-18T08:29:21.001Z</time></trkpt><trkpt lat="45.475854646536646" lon="8.924275802290019"><ele>140.0</ele><time>2026-04-18T08:29:22.001Z</time></trkpt><trkpt lat="45.47581077338508" lon="8.924106313814487"><ele>140.75</ele><time>2026-04-18T08:29:23.001Z</time></trkpt><trkpt lat="45.47576676388375" lon="8.92394084745737"><ele>141.5</ele><time>2026-04-18T08:29:24.001Z</time></trkpt><trkpt lat="45.47572076061639" lon="8.923773096985045"><ele>142.25</ele><time>2026-04-18T08:29:25.001Z</time></trkpt><trkpt lat="45.47567361419256" lon="8.923607829137616"><ele>143.0</ele><time>2026-04-18T08:29:26.001Z</time></trkpt><trkpt lat="45.47562769242081" lon="8.923441215759276"><ele>142.8</ele><time>2026-04-18T08:29:27.001Z</time></trkpt><trkpt lat="45.4755839104567" lon="8.923274507534543"><ele>142.60000000000002</ele><time>2026-04-18T08:29:28.001Z</time></trkpt><trkpt lat="45.475540484868795" lon="8.923115514647158"><ele>142.39999999999998</ele><time>2026-04-18T08:29:29.001Z</time></trkpt><trkpt lat="45.475502296234374" lon="8.92297862535901"><ele>142.2</ele><time>2026-04-18T08:29:30.001Z</time></trkpt><trkpt lat="45.47547359335325" lon="8.922864936720227"><ele>142.0</ele><time>2026-04-18T08:29:31.001Z</time></trkpt><trkpt lat="45.47544861291287" lon="8.922762839650193"><ele>142.0</ele><time>2026-04-18T08:29:32.001Z</time></trkpt><trkpt lat="45.47542302000461" lon="8.92267231948493"><ele>142.0</ele><time>2026-04-18T08:29:33.001Z</time></trkpt><trkpt lat="45.475404363515594" lon="8.92258023701571"><ele>142.0</ele><time>2026-04-18T08:29:34.001Z</time></trkpt><trkpt lat="45.475362525543495" lon="8.922437397724327"><ele>142.0</ele><time>2026-04-18T08:29:36.001Z</time></trkpt><trkpt lat="45.475331173977885" lon="8.92233435024233"><ele>142.0</ele><time>2026-04-18T08:29:39.001Z</time></trkpt><trkpt lat="45.475296885074535" lon="8.922190561576524"><ele>142.0</ele><time>2026-04-18T08:29:54.002Z</time></trkpt><trkpt lat="45.47527718518497" lon="8.922097355707194"><ele>141.79999999999998</ele><time>2026-04-18T08:29:55.002Z</time></trkpt><trkpt lat="45.475249655850575" lon="8.921985699823074"><ele>141.6</ele><time>2026-04-18T08:29:56.002Z</time></trkpt><trkpt lat="45.475215354595754" lon="8.921853336710296"><ele>141.39999999999998</ele><time>2026-04-18T08:29:57.002Z</time></trkpt><trkpt lat="45.47517908966476" lon="8.92170982068217"><ele>141.2</ele><time>2026-04-18T08:29:58.002Z</time></trkpt><trkpt lat="45.47514229950191" lon="8.921556792440274"><ele>141.0</ele><time>2026-04-18T08:29:59.002Z</time></trkpt><trkpt lat="45.47510187423097" lon="8.921393576420309"><ele>140.8</ele><time>2026-04-18T08:30:00.002Z</time></trkpt><trkpt lat="45.47506144657698" lon="8.921227282926198"><ele>140.6</ele><time>2026-04-18T08:30:01.002Z</time></trkpt><trkpt lat="45.47502205890116" lon="8.9210822384481"><ele>140.4</ele><time>2026-04-18T08:30:02.002Z</time></trkpt><trkpt lat="45.47498714162605" lon="8.920956928348772"><ele>140.2</ele><time>2026-04-18T08:30:03.002Z</time></trkpt><trkpt lat="45.47495641400756" lon="8.920840036576672"><ele>140.0</ele><time>2026-04-18T08:30:04.002Z</time></trkpt><trkpt lat="45.474927134158115" lon="8.92073449910538"><ele>140.33333333333331</ele><time>2026-04-18T08:30:05.002Z</time></trkpt><trkpt lat="45.474897737839335" lon="8.920631529723604"><ele>140.66666666666666</ele><time>2026-04-18T08:30:06.002Z</time></trkpt><trkpt lat="45.47486783685318" lon="8.92052427084215"><ele>141.0</ele><time>2026-04-18T08:30:07.002Z</time></trkpt><trkpt lat="45.474843248474954" lon="8.92043386219135"><ele>141.33333333333334</ele><time>2026-04-18T08:30:08.002Z</time></trkpt><trkpt lat="45.4747896274623" lon="8.920288188543863"><ele>141.66666666666669</ele><time>2026-04-18T08:30:10.002Z</time></trkpt><trkpt lat="45.47476656822268" lon="8.920146783701691"><ele>142.0</ele><time>2026-04-18T08:30:12.002Z</time></trkpt><trkpt lat="45.47473826834372" lon="8.920046496474077"><ele>142.0</ele><time>2026-04-18T08:30:13.002Z</time></trkpt><trkpt lat="45.474696920528615" lon="8.91994634137844"><ele>142.0</ele><time>2026-04-18T08:30:14.002Z</time></trkpt><trkpt lat="45.47467065516546" lon="8.919830143008166"><ele>142.0</ele><time>2026-04-18T08:30:15.002Z</time></trkpt><trkpt lat="45.47463145870311" lon="8.919699611277398"><ele>142.0</ele><time>2026-04-18T08:30:16.002Z</time></trkpt><trkpt lat="45.47458868249157" lon="8.9195547796222"><ele>142.0</ele><time>2026-04-18T08:30:17.002Z</time></trkpt><trkpt lat="45.47454684557976" lon="8.919401050333681"><ele>142.0</ele><time>2026-04-18T08:30:18.003Z</time></trkpt><trkpt lat="45.47452445049905" lon="8.919236793898778"><ele>142.0</ele><time>2026-04-18T08:30:19.003Z</time></trkpt><trkpt lat="45.47448661793802" lon="8.919080382140097"><ele>142.0</ele><time>2026-04-18T08:30:20.003Z</time></trkpt><trkpt lat="45.47444753287074" lon="8.918918792031434"><ele>142.0</ele><time>2026-04-18T08:30:21.003Z</time></trkpt><trkpt lat="45.47440725845334" lon="8.918753977736325"><ele>142.75</ele><time>2026-04-18T08:30:22.003Z</time></trkpt><trkpt lat="45.47436427905694" lon="8.918584738958698"><ele>143.5</ele><time>2026-04-18T08:30:23.003Z</time></trkpt><trkpt lat="45.474319595911325" lon="8.918412167584618"><ele>144.25</ele><time>2026-04-18T08:30:24.003Z</time></trkpt><trkpt lat="45.47427423089458" lon="8.918240219958085"><ele>145.0</ele><time>2026-04-18T08:30:25.003Z</time></trkpt><trkpt lat="45.474228090937004" lon="8.918066259878227"><ele>145.0</ele><time>2026-04-18T08:30:26.003Z</time></trkpt><trkpt lat="45.47418253956682" lon="8.917894521312101"><ele>145.0</ele><time>2026-04-18T08:30:27.003Z</time></trkpt><trkpt lat="45.474138232273106" lon="8.917732272996707"><ele>145.0</ele><time>2026-04-18T08:30:28.003Z</time></trkpt><trkpt lat="45.474099643042145" lon="8.917589802254573"><ele>145.0</ele><time>2026-04-18T08:30:29.003Z</time></trkpt><trkpt lat="45.47406503685173" lon="8.917461745104639"><ele>144.6</ele><time>2026-04-18T08:30:30.003Z</time></trkpt><trkpt lat="45.474032691520854" lon="8.917342054113458"><ele>144.2</ele><time>2026-04-18T08:30:31.003Z</time></trkpt><trkpt lat="45.47399813092125" lon="8.91721627610312"><ele>143.8</ele><time>2026-04-18T08:30:32.003Z</time></trkpt><trkpt lat="45.473958365439806" lon="8.917077920924998"><ele>143.4</ele><time>2026-04-18T08:30:33.003Z</time></trkpt><trkpt lat="45.473903290577525" lon="8.916942270086293"><ele>143.0</ele><time>2026-04-18T08:30:34.003Z</time></trkpt><trkpt lat="45.47387712880057" lon="8.916783555780334"><ele>143.25</ele><time>2026-04-18T08:30:35.003Z</time></trkpt><trkpt lat="45.473832909471774" lon="8.916620504725461"><ele>143.5</ele><time>2026-04-18T08:30:36.003Z</time></trkpt><trkpt lat="45.473789307658016" lon="8.916459567466447"><ele>143.75</ele><time>2026-04-18T08:30:37.003Z</time></trkpt><trkpt lat="45.47374904405502" lon="8.91631095202606"><ele>144.0</ele><time>2026-04-18T08:30:38.003Z</time></trkpt><trkpt lat="45.47371314655234" lon="8.916178291389668"><ele>143.2</ele><time>2026-04-18T08:30:39.003Z</time></trkpt><trkpt lat="45.473679721663736" lon="8.916053540333865"><ele>142.4</ele><time>2026-04-18T08:30:40.003Z</time></trkpt><trkpt lat="45.473650567524956" lon="8.915944729149219"><ele>141.6</ele><time>2026-04-18T08:30:41.003Z</time></trkpt><trkpt lat="45.47362591024707" lon="8.91585270118226"><ele>140.8</ele><time>2026-04-18T08:30:42.003Z</time></trkpt><trkpt lat="45.47358356108342" lon="8.91569464269502"><ele>140.0</ele><time>2026-04-18T08:30:44Z</time></trkpt><trkpt lat="45.47353749314925" lon="8.915571532127927"><ele>139.8</ele><time>2026-04-18T08:30:46Z</time></trkpt><trkpt lat="45.473525524716855" lon="8.915439931145704"><ele>139.6</ele><time>2026-04-18T08:30:48Z</time></trkpt><trkpt lat="45.47353463525053" lon="8.915347532814428"><ele>139.4</ele><time>2026-04-18T08:30:49Z</time></trkpt><trkpt lat="45.473557015815125" lon="8.915204146784665"><ele>139.2</ele><time>2026-04-18T08:30:51Z</time></trkpt><trkpt lat="45.47351149222848" lon="8.915051448821936"><ele>139.0</ele><time>2026-04-18T08:30:53Z</time></trkpt><trkpt lat="45.47343204735083" lon="8.914967486755886"><ele>139.0</ele><time>2026-04-18T08:30:54Z</time></trkpt><trkpt lat="45.47335411048245" lon="8.914820479039498"><ele>139.0</ele><time>2026-04-18T08:30:55Z</time></trkpt><trkpt lat="45.473308282527384" lon="8.914636321039028"><ele>139.0</ele><time>2026-04-18T08:30:56Z</time></trkpt><trkpt lat="45.47326046634115" lon="8.91444685670519"><ele>139.0</ele><time>2026-04-18T08:30:57Z</time></trkpt><trkpt lat="45.47320554544624" lon="8.914254146737235"><ele>138.75</ele><time>2026-04-18T08:30:58Z</time></trkpt><trkpt lat="45.47314989310077" lon="8.914059457827355"><ele>138.5</ele><time>2026-04-18T08:30:59Z</time></trkpt><trkpt lat="45.473095291377774" lon="8.913864735282734"><ele>138.25</ele><time>2026-04-18T08:31:00Z</time></trkpt><trkpt lat="45.473045407703864" lon="8.913671050214615"><ele>138.0</ele><time>2026-04-18T08:31:01Z</time></trkpt><trkpt lat="45.47299513978431" lon="8.913474229400475"><ele>139.0</ele><time>2026-04-18T08:31:02Z</time></trkpt><trkpt lat="45.47293690540156" lon="8.913272285935358"><ele>140.0</ele><time>2026-04-18T08:31:03Z</time></trkpt><trkpt lat="45.472880262227314" lon="8.9130600905515"><ele>141.0</ele><time>2026-04-18T08:31:04Z</time></trkpt><trkpt lat="45.47281994124124" lon="8.912847233288707"><ele>141.0</ele><time>2026-04-18T08:31:05Z</time></trkpt><trkpt lat="45.47276683115253" lon="8.912646770713673"><ele>141.0</ele><time>2026-04-18T08:31:06Z</time></trkpt><trkpt lat="45.472716082688805" lon="8.912459200373577"><ele>141.0</ele><time>2026-04-18T08:31:07Z</time></trkpt><trkpt lat="45.472666308298045" lon="8.912278486523173"><ele>141.0</ele><time>2026-04-18T08:31:08Z</time></trkpt><trkpt lat="45.47261725726286" lon="8.91209845232258"><ele>140.75</ele><time>2026-04-18T08:31:09Z</time></trkpt><trkpt lat="45.47256952026176" lon="8.911922282865454"><ele>140.5</ele><time>2026-04-18T08:31:10Z</time></trkpt><trkpt lat="45.47252422896426" lon="8.911750179922784"><ele>140.25</ele><time>2026-04-18T08:31:11Z</time></trkpt><trkpt lat="45.472482011833975" lon="8.911578795541573"><ele>140.0</ele><time>2026-04-18T08:31:12Z</time></trkpt><trkpt lat="45.47243931818431" lon="8.91141295276965"><ele>139.75</ele><time>2026-04-18T08:31:13Z</time></trkpt><trkpt lat="45.472397336714096" lon="8.911251479789346"><ele>139.5</ele><time>2026-04-18T08:31:14Z</time></trkpt><trkpt lat="45.472357647977226" lon="8.911087252255491"><ele>139.25</ele><time>2026-04-18T08:31:15Z</time></trkpt><trkpt lat="45.47231591463393" lon="8.910921264189804"><ele>139.0</ele><time>2026-04-18T08:31:16.001Z</time></trkpt><trkpt lat="45.47226463994408" lon="8.910744419849578"><ele>139.0</ele><time>2026-04-18T08:31:17.001Z</time></trkpt><trkpt lat="45.47221085278102" lon="8.910570533489107"><ele>139.0</ele><time>2026-04-18T08:31:18.001Z</time></trkpt><trkpt lat="45.47217676504963" lon="8.910391898590007"><ele>139.0</ele><time>2026-04-18T08:31:19.001Z</time></trkpt><trkpt lat="45.47213300176751" lon="8.910227085051753"><ele>139.0</ele><time>2026-04-18T08:31:20.001Z</time></trkpt><trkpt lat="45.47209304997741" lon="8.91007744812658"><ele>139.2</ele><time>2026-04-18T08:31:21.001Z</time></trkpt><trkpt lat="45.47205637329157" lon="8.909940077827725"><ele>139.4</ele><time>2026-04-18T08:31:22.001Z</time></trkpt><trkpt lat="45.47202915279326" lon="8.909833096123874"><ele>139.6</ele><time>2026-04-18T08:31:23.001Z</time></trkpt><trkpt lat="45.471979264551045" lon="8.909705709065568"><ele>139.8</ele><time>2026-04-18T08:31:25.001Z</time></trkpt><trkpt lat="45.4719643456762" lon="8.909570577233863"><ele>140.0</ele><time>2026-04-18T08:31:27.001Z</time></trkpt><trkpt lat="45.471992163003556" lon="8.909420826521103"><ele>140.0</ele><time>2026-04-18T08:31:29.001Z</time></trkpt><trkpt lat="45.47196743829843" lon="8.909269721899157"><ele>140.0</ele><time>2026-04-18T08:31:31.001Z</time></trkpt><trkpt lat="45.4719287839283" lon="8.909170491999726"><ele>140.0</ele><time>2026-04-18T08:31:32.001Z</time></trkpt><trkpt lat="45.47187950717626" lon="8.909059178145966"><ele>140.0</ele><time>2026-04-18T08:31:33.001Z</time></trkpt><trkpt lat="45.471830388178084" lon="8.908939048334384"><ele>140.0</ele><time>2026-04-18T08:31:34.001Z</time></trkpt><trkpt lat="45.4717841650066" lon="8.908811632045888"><ele>139.83333333333331</ele><time>2026-04-18T08:31:35.001Z</time></trkpt><trkpt lat="45.47174630241306" lon="8.90870073440756"><ele>139.66666666666666</ele><time>2026-04-18T08:31:36.001Z</time></trkpt><trkpt lat="45.471711034365796" lon="8.908590914528935"><ele>139.5</ele><time>2026-04-18T08:31:37.001Z</time></trkpt><trkpt lat="45.471680027890635" lon="8.908482650415179"><ele>139.33333333333334</ele><time>2026-04-18T08:31:38.001Z</time></trkpt><trkpt lat="45.471645457836686" lon="8.908365529115637"><ele>139.16666666666669</ele><time>2026-04-18T08:31:39.001Z</time></trkpt><trkpt lat="45.47161395337159" lon="8.908247975230825"><ele>139.0</ele><time>2026-04-18T08:31:40.001Z</time></trkpt><trkpt lat="45.47158179386105" lon="8.908113749330639"><ele>139.0</ele><time>2026-04-18T08:31:41.001Z</time></trkpt><trkpt lat="45.47154264760092" lon="8.907979237309926"><ele>139.0</ele><time>2026-04-18T08:31:42.001Z</time></trkpt><trkpt lat="45.47150798122494" lon="8.907839078092747"><ele>139.0</ele><time>2026-04-18T08:31:43.001Z</time></trkpt><trkpt lat="45.471474776036096" lon="8.907695499069378"><ele>139.0</ele><time>2026-04-18T08:31:44.001Z</time></trkpt><trkpt lat="45.47144542879141" lon="8.907560299542245"><ele>139.0</ele><time>2026-04-18T08:31:45.001Z</time></trkpt><trkpt lat="45.47141357031263" lon="8.907426863124847"><ele>139.2</ele><time>2026-04-18T08:31:46.001Z</time></trkpt><trkpt lat="45.47137698577759" lon="8.90727828665361"><ele>139.4</ele><time>2026-04-18T08:31:47.001Z</time></trkpt><trkpt lat="45.47134155985627" lon="8.907132032430491"><ele>139.6</ele><time>2026-04-18T08:31:48.002Z</time></trkpt><trkpt lat="45.47131084832242" lon="8.906980293505427"><ele>139.8</ele><time>2026-04-18T08:31:49.002Z</time></trkpt><trkpt lat="45.47128722179943" lon="8.906829534697383"><ele>140.0</ele><time>2026-04-18T08:31:50.002Z</time></trkpt><trkpt lat="45.471268220752584" lon="8.906680280208452"><ele>140.0</ele><time>2026-04-18T08:31:51.002Z</time></trkpt><trkpt lat="45.47124973087516" lon="8.906531383536084"><ele>140.0</ele><time>2026-04-18T08:31:52.002Z</time></trkpt><trkpt lat="45.47123194401546" lon="8.906391122533611"><ele>140.0</ele><time>2026-04-18T08:31:53.002Z</time></trkpt><trkpt lat="45.47121939624629" lon="8.906270582783101"><ele>140.0</ele><time>2026-04-18T08:31:54.002Z</time></trkpt><trkpt lat="45.4712070026806" lon="8.906153493387137"><ele>140.0</ele><time>2026-04-18T08:31:55.002Z</time></trkpt><trkpt lat="45.471192462123554" lon="8.90604128070807"><ele>140.0</ele><time>2026-04-18T08:31:56.002Z</time></trkpt><trkpt lat="45.471171017455504" lon="8.905945393502005"><ele>140.0</ele><time>2026-04-18T08:31:57.002Z</time></trkpt><trkpt lat="45.47111355531807" lon="8.905835730106714"><ele>140.0</ele><time>2026-04-18T08:31:59.002Z</time></trkpt><trkpt lat="45.47109508326742" lon="8.905728760229842"><ele>140.0</ele><time>2026-04-18T08:32:01.002Z</time></trkpt><trkpt lat="45.471119959139045" lon="8.905543785141552"><ele>140.0</ele><time>2026-04-18T08:32:03.002Z</time></trkpt><trkpt lat="45.47113974168932" lon="8.905449638303079"><ele>140.0</ele><time>2026-04-18T08:32:04.002Z</time></trkpt><trkpt lat="45.47114317049404" lon="8.90534036203257"><ele>139.75</ele><time>2026-04-18T08:32:05.002Z</time></trkpt><trkpt lat="45.4711292117552" lon="8.905204196326606"><ele>139.5</ele><time>2026-04-18T08:32:06.002Z</time></trkpt><trkpt lat="45.47108523813982" lon="8.905059645493244"><ele>139.25</ele><time>2026-04-18T08:32:07.002Z</time></trkpt><trkpt lat="45.471145656605515" lon="8.904814960697356"><ele>139.0</ele><time>2026-04-18T08:32:08.002Z</time></trkpt><trkpt lat="45.471188463280946" lon="8.90457624733089"><ele>138.66666666666669</ele><time>2026-04-18T08:32:09.002Z</time></trkpt><trkpt lat="45.47124184174529" lon="8.904318691202112"><ele>138.33333333333334</ele><time>2026-04-18T08:32:10.002Z</time></trkpt><trkpt lat="45.47130528512784" lon="8.90402888442434"><ele>138.0</ele><time>2026-04-18T08:32:11.002Z</time></trkpt><trkpt lat="45.47136740433822" lon="8.903764995600023"><ele>138.66666666666666</ele><time>2026-04-18T08:32:12.002Z</time></trkpt><trkpt lat="45.47142402596263" lon="8.903533938447055"><ele>139.33333333333331</ele><time>2026-04-18T08:32:13.002Z</time></trkpt><trkpt lat="45.471480580758545" lon="8.903321701406853"><ele>140.0</ele><time>2026-04-18T08:32:14.002Z</time></trkpt><trkpt lat="45.47154296258852" lon="8.903107430967538"><ele>140.0</ele><time>2026-04-18T08:32:15.002Z</time></trkpt><trkpt lat="45.471612368720294" lon="8.902901806637571"><ele>140.0</ele><time>2026-04-18T08:32:16.002Z</time></trkpt><trkpt lat="45.47168971718701" lon="8.902699991047541"><ele>140.0</ele><time>2026-04-18T08:32:17.002Z</time></trkpt><trkpt lat="45.47176847573025" lon="8.902499873883635"><ele>139.66666666666666</ele><time>2026-04-18T08:32:18.002Z</time></trkpt><trkpt lat="45.47185624985812" lon="8.902304378322382"><ele>139.33333333333334</ele><time>2026-04-18T08:32:19.002Z</time></trkpt><trkpt lat="45.47194816480802" lon="8.902120204191016"><ele>139.0</ele><time>2026-04-18T08:32:20.002Z</time></trkpt><trkpt lat="45.47204219184572" lon="8.901936415632068"><ele>139.33333333333334</ele><time>2026-04-18T08:32:21.003Z</time></trkpt><trkpt lat="45.47213897645068" lon="8.901744030759794"><ele>139.66666666666666</ele><time>2026-04-18T08:32:22.003Z</time></trkpt><trkpt lat="45.47223552635292" lon="8.901559031749228"><ele>140.0</ele><time>2026-04-18T08:32:23.003Z</time></trkpt><trkpt lat="45.472336116881394" lon="8.901371854566163"><ele>140.0</ele><time>2026-04-18T08:32:24.003Z</time></trkpt><trkpt lat="45.472434188209924" lon="8.901184382320192"><ele>140.0</ele><time>2026-04-18T08:32:25.003Z</time></trkpt><trkpt lat="45.4725357407234" lon="8.900994757488638"><ele>140.0</ele><time>2026-04-18T08:32:26.003Z</time></trkpt><trkpt lat="45.47263491039955" lon="8.900801533815267"><ele>140.66666666666666</ele><time>2026-04-18T08:32:27.003Z</time></trkpt><trkpt lat="45.472731900260904" lon="8.900606886090854"><ele>141.33333333333334</ele><time>2026-04-18T08:32:28.003Z</time></trkpt><trkpt lat="45.472832968383116" lon="8.900411067686512"><ele>142.0</ele><time>2026-04-18T08:32:29.003Z</time></trkpt><trkpt lat="45.47293463172644" lon="8.900216598464814"><ele>142.66666666666669</ele><time>2026-04-18T08:32:30.003Z</time></trkpt><trkpt lat="45.473040360965555" lon="8.900026159890942"><ele>143.33333333333334</ele><time>2026-04-18T08:32:31.003Z</time></trkpt><trkpt lat="45.473144710692694" lon="8.8998363136796"><ele>144.0</ele><time>2026-04-18T08:32:32.003Z</time></trkpt><trkpt lat="45.47324872358023" lon="8.899643868263883"><ele>144.0</ele><time>2026-04-18T08:32:33.003Z</time></trkpt><trkpt lat="45.47334953359498" lon="8.899446726623731"><ele>144.0</ele><time>2026-04-18T08:32:34.003Z</time></trkpt><trkpt lat="45.4734491714493" lon="8.899241445259737"><ele>144.0</ele><time>2026-04-18T08:32:35.003Z</time></trkpt><trkpt lat="45.47354915468673" lon="8.89904375086688"><ele>143.66666666666666</ele><time>2026-04-18T08:32:36.003Z</time></trkpt><trkpt lat="45.473652277720085" lon="8.898843520935833"><ele>143.33333333333331</ele><time>2026-04-18T08:32:37.003Z</time></trkpt><trkpt lat="45.473753522534786" lon="8.89864414604886"><ele>143.0</ele><time>2026-04-18T08:32:38.003Z</time></trkpt><trkpt lat="45.47385649846748" lon="8.898443760768078"><ele>142.66666666666666</ele><time>2026-04-18T08:32:39.003Z</time></trkpt><trkpt lat="45.47396090582159" lon="8.898238657073557"><ele>142.33333333333334</ele><time>2026-04-18T08:32:40.003Z</time></trkpt><trkpt lat="45.4740647908815" lon="8.898034796210132"><ele>142.0</ele><time>2026-04-18T08:32:41.003Z</time></trkpt><trkpt lat="45.47416618844182" lon="8.897831040821922"><ele>142.0</ele><time>2026-04-18T08:32:42.003Z</time></trkpt><trkpt lat="45.47427353467374" lon="8.89762951986773"><ele>142.0</ele><time>2026-04-18T08:32:43.003Z</time></trkpt><trkpt lat="45.47437862141335" lon="8.897422421791251"><ele>142.0</ele><time>2026-04-18T08:32:44.003Z</time></trkpt><trkpt lat="45.474484950336674" lon="8.897212973230735"><ele>142.0</ele><time>2026-04-18T08:32:45.003Z</time></trkpt><trkpt lat="45.47458853004454" lon="8.89700489178971"><ele>142.0</ele><time>2026-04-18T08:32:46.003Z</time></trkpt><trkpt lat="45.47468724457221" lon="8.896814488511303"><ele>142.0</ele><time>2026-04-18T08:32:47.003Z</time></trkpt><trkpt lat="45.474780084442" lon="8.896632647339958"><ele>143.0</ele><time>2026-04-18T08:32:48.003Z</time></trkpt><trkpt lat="45.47487495164067" lon="8.896451734790345"><ele>144.0</ele><time>2026-04-18T08:32:49Z</time></trkpt><trkpt lat="45.47497513327251" lon="8.896266061108602"><ele>145.0</ele><time>2026-04-18T08:32:50Z</time></trkpt><trkpt lat="45.47508112669809" lon="8.896072071323974"><ele>144.33333333333334</ele><time>2026-04-18T08:32:51Z</time></trkpt><trkpt lat="45.4751911895058" lon="8.89587515063879"><ele>143.66666666666666</ele><time>2026-04-18T08:32:52Z</time></trkpt><trkpt lat="45.47530412433468" lon="8.895668563456558"><ele>143.0</ele><time>2026-04-18T08:32:53Z</time></trkpt><trkpt lat="45.4754215132503" lon="8.89544361168645"><ele>142.66666666666666</ele><time>2026-04-18T08:32:54Z</time></trkpt><trkpt lat="45.475538406306974" lon="8.895215599549148"><ele>142.33333333333334</ele><time>2026-04-18T08:32:55Z</time></trkpt><trkpt lat="45.47564753868051" lon="8.894999533568578"><ele>142.0</ele><time>2026-04-18T08:32:56Z</time></trkpt><trkpt lat="45.47575491782451" lon="8.894796478605196"><ele>142.0</ele><time>2026-04-18T08:32:57Z</time></trkpt><trkpt lat="45.4758620683956" lon="8.894583970951475"><ele>142.0</ele><time>2026-04-18T08:32:58Z</time></trkpt><trkpt lat="45.475973367141016" lon="8.894366639940264"><ele>142.0</ele><time>2026-04-18T08:32:59Z</time></trkpt><trkpt lat="45.476078918699194" lon="8.89416429038364"><ele>142.0</ele><time>2026-04-18T08:33:00Z</time></trkpt><trkpt lat="45.4761788827736" lon="8.893969385304121"><ele>142.0</ele><time>2026-04-18T08:33:01Z</time></trkpt><trkpt lat="45.47627089386976" lon="8.893786409807388"><ele>142.0</ele><time>2026-04-18T08:33:02Z</time></trkpt><trkpt lat="45.47635498293207" lon="8.893598763190584"><ele>142.33333333333334</ele><time>2026-04-18T08:33:03Z</time></trkpt><trkpt lat="45.47643420246623" lon="8.893409400825465"><ele>142.66666666666666</ele><time>2026-04-18T08:33:04Z</time></trkpt><trkpt lat="45.47651230292681" lon="8.893206458727796"><ele>143.0</ele><time>2026-04-18T08:33:05Z</time></trkpt><trkpt lat="45.476594205450404" lon="8.89299555473764"><ele>143.0</ele><time>2026-04-18T08:33:06Z</time></trkpt><trkpt lat="45.476672883008696" lon="8.892786126315512"><ele>143.0</ele><time>2026-04-18T08:33:07Z</time></trkpt><trkpt lat="45.47675450204774" lon="8.892560972930784"><ele>143.0</ele><time>2026-04-18T08:33:08Z</time></trkpt><trkpt lat="45.47683744289039" lon="8.892339633635018"><ele>143.33333333333331</ele><time>2026-04-18T08:33:09Z</time></trkpt><trkpt lat="45.47692027263454" lon="8.892108540774371"><ele>143.66666666666666</ele><time>2026-04-18T08:33:10Z</time></trkpt><trkpt lat="45.477000465807194" lon="8.891863657928347"><ele>144.0</ele><time>2026-04-18T08:33:11Z</time></trkpt><trkpt lat="45.47707628456265" lon="8.891611796554034"><ele>143.66666666666666</ele><time>2026-04-18T08:33:12Z</time></trkpt><trkpt lat="45.47714770869911" lon="8.891351480193537"><ele>143.33333333333331</ele><time>2026-04-18T08:33:13Z</time></trkpt><trkpt lat="45.477217438902144" lon="8.891088341510862"><ele>143.0</ele><time>2026-04-18T08:33:14Z</time></trkpt><trkpt lat="45.47728393275149" lon="8.890822929659594"><ele>142.33333333333331</ele><time>2026-04-18T08:33:15Z</time></trkpt><trkpt lat="45.477343015526" lon="8.890579104716261"><ele>141.66666666666666</ele><time>2026-04-18T08:33:16Z</time></trkpt><trkpt lat="45.47739310751026" lon="8.89034534540918"><ele>141.0</ele><time>2026-04-18T08:33:17Z</time></trkpt><trkpt lat="45.477433950596264" lon="8.890109973340431"><ele>140.66666666666666</ele><time>2026-04-18T08:33:18Z</time></trkpt><trkpt lat="45.47747479493823" lon="8.889868458730897"><ele>140.33333333333331</ele><time>2026-04-18T08:33:19Z</time></trkpt><trkpt lat="45.47751389621965" lon="8.889636636295934"><ele>140.0</ele><time>2026-04-18T08:33:20Z</time></trkpt><trkpt lat="45.477550805216694" lon="8.889416776543008"><ele>140.25</ele><time>2026-04-18T08:33:21.001Z</time></trkpt><trkpt lat="45.47758272898929" lon="8.889203315918776"><ele>140.5</ele><time>2026-04-18T08:33:22.001Z</time></trkpt><trkpt lat="45.47760824076252" lon="8.888995119639189"><ele>140.75</ele><time>2026-04-18T08:33:23.001Z</time></trkpt><trkpt lat="45.477631933048244" lon="8.888789260349652"><ele>141.0</ele><time>2026-04-18T08:33:24.001Z</time></trkpt><trkpt lat="45.47765289725877" lon="8.888586905967301"><ele>141.25</ele><time>2026-04-18T08:33:25.001Z</time></trkpt><trkpt lat="45.47767082558772" lon="8.888390172112706"><ele>141.5</ele><time>2026-04-18T08:33:26.001Z</time></trkpt><trkpt lat="45.477685153579735" lon="8.888197660876333"><ele>141.75</ele><time>2026-04-18T08:33:27.001Z</time></trkpt><trkpt lat="45.477696657701316" lon="8.888011657793294"><ele>142.0</ele><time>2026-04-18T08:33:28.001Z</time></trkpt><trkpt lat="45.477706445053634" lon="8.887847904586113"><ele>142.0</ele><time>2026-04-18T08:33:29.001Z</time></trkpt><trkpt lat="45.47771458913927" lon="8.887708587347694"><ele>142.0</ele><time>2026-04-18T08:33:30.001Z</time></trkpt><trkpt lat="45.47772696299416" lon="8.887583445506806"><ele>142.0</ele><time>2026-04-18T08:33:31.001Z</time></trkpt><trkpt lat="45.47774052024217" lon="8.887492153120586"><ele>142.0</ele><time>2026-04-18T08:33:32.001Z</time></trkpt><trkpt lat="45.477771321220295" lon="8.88738395614833"><ele>142.0</ele><time>2026-04-18T08:33:34.001Z</time></trkpt><trkpt lat="45.477844610580746" lon="8.887263029610473"><ele>142.0</ele><time>2026-04-18T08:33:36.001Z</time></trkpt><trkpt lat="45.47789673451392" lon="8.887179818427244"><ele>141.79999999999998</ele><time>2026-04-18T08:33:37.001Z</time></trkpt><trkpt lat="45.477936233251086" lon="8.887068388898042"><ele>141.6</ele><time>2026-04-18T08:33:38.001Z</time></trkpt><trkpt lat="45.477934201097824" lon="8.886923617907943"><ele>141.39999999999998</ele><time>2026-04-18T08:33:39.001Z</time></trkpt><trkpt lat="45.477896035025594" lon="8.886779996996557"><ele>141.2</ele><time>2026-04-18T08:33:40.001Z</time></trkpt><trkpt lat="45.47783077757905" lon="8.886655603489105"><ele>141.0</ele><time>2026-04-18T08:33:41.001Z</time></trkpt><trkpt lat="45.4778105172679" lon="8.886473660919807"><ele>140.75</ele><time>2026-04-18T08:33:42.001Z</time></trkpt><trkpt lat="45.477808763168895" lon="8.886294471905158"><ele>140.5</ele><time>2026-04-18T08:33:43.001Z</time></trkpt><trkpt lat="45.47782548963778" lon="8.886103959099028"><ele>140.25</ele><time>2026-04-18T08:33:44.001Z</time></trkpt><trkpt lat="45.47784076178499" lon="8.885905644386535"><ele>140.0</ele><time>2026-04-18T08:33:45.001Z</time></trkpt><trkpt lat="45.477851378325965" lon="8.885716041865836"><ele>140.0</ele><time>2026-04-18T08:33:46.001Z</time></trkpt><trkpt lat="45.47786255630479" lon="8.885546528999248"><ele>140.0</ele><time>2026-04-18T08:33:47.001Z</time></trkpt><trkpt lat="45.477875317018594" lon="8.885387454471905"><ele>140.0</ele><time>2026-04-18T08:33:48.001Z</time></trkpt><trkpt lat="45.477886275174356" lon="8.885233788090991"><ele>140.0</ele><time>2026-04-18T08:33:49.001Z</time></trkpt><trkpt lat="45.477895319803466" lon="8.885069481933636"><ele>140.0</ele><time>2026-04-18T08:33:50.001Z</time></trkpt><trkpt lat="45.477910242680885" lon="8.884899287696765"><ele>140.0</ele><time>2026-04-18T08:33:51.001Z</time></trkpt><trkpt lat="45.477920663217965" lon="8.884717657151038"><ele>140.0</ele><time>2026-04-18T08:33:52.001Z</time></trkpt><trkpt lat="45.4779320125758" lon="8.884524927893093"><ele>140.0</ele><time>2026-04-18T08:33:53.002Z</time></trkpt><trkpt lat="45.47794511845675" lon="8.884314068148825"><ele>139.66666666666666</ele><time>2026-04-18T08:33:54.002Z</time></trkpt><trkpt lat="45.47795624284968" lon="8.884086853110235"><ele>139.33333333333334</ele><time>2026-04-18T08:33:55.002Z</time></trkpt><trkpt lat="45.477966431991405" lon="8.883852725718315"><ele>139.0</ele><time>2026-04-18T08:33:56.002Z</time></trkpt><trkpt lat="45.477977707869286" lon="8.883611756926092"><ele>139.33333333333334</ele><time>2026-04-18T08:33:57.002Z</time></trkpt><trkpt lat="45.477982386314835" lon="8.883374689379517"><ele>139.66666666666666</ele><time>2026-04-18T08:33:58.002Z</time></trkpt><trkpt lat="45.47797929085563" lon="8.883125211650743"><ele>140.0</ele><time>2026-04-18T08:33:59.002Z</time></trkpt><trkpt lat="45.47796942557696" lon="8.882861913027483"><ele>140.33333333333331</ele><time>2026-04-18T08:34:00.002Z</time></trkpt><trkpt lat="45.477973254342864" lon="8.882556324344089"><ele>140.66666666666666</ele><time>2026-04-18T08:34:01.002Z</time></trkpt><trkpt lat="45.4779402249773" lon="8.882248590663131"><ele>141.0</ele><time>2026-04-18T08:34:02.002Z</time></trkpt><trkpt lat="45.47792927120065" lon="8.881974081942808"><ele>141.0</ele><time>2026-04-18T08:34:03.002Z</time></trkpt><trkpt lat="45.47791318760241" lon="8.881723632538382"><ele>141.0</ele><time>2026-04-18T08:34:04.002Z</time></trkpt><trkpt lat="45.47789507353842" lon="8.881493869159717"><ele>141.0</ele><time>2026-04-18T08:34:05.002Z</time></trkpt><trkpt lat="45.477871953336205" lon="8.881273964185961"><ele>141.0</ele><time>2026-04-18T08:34:06.002Z</time></trkpt><trkpt lat="45.47783963451843" lon="8.881065364415027"><ele>141.0</ele><time>2026-04-18T08:34:07.002Z</time></trkpt><trkpt lat="45.4778029335458" lon="8.880872514649846"><ele>141.0</ele><time>2026-04-18T08:34:08.002Z</time></trkpt><trkpt lat="45.47776296818798" lon="8.88067716083113"><ele>141.0</ele><time>2026-04-18T08:34:09.002Z</time></trkpt><trkpt lat="45.47771793199801" lon="8.880474685271183"><ele>141.66666666666666</ele><time>2026-04-18T08:34:10.002Z</time></trkpt><trkpt lat="45.47766984211783" lon="8.88027052264443"><ele>142.33333333333331</ele><time>2026-04-18T08:34:11.002Z</time></trkpt><trkpt lat="45.47762154808093" lon="8.880063320131258"><ele>143.0</ele><time>2026-04-18T08:34:12.002Z</time></trkpt><trkpt lat="45.47757311692202" lon="8.879853552409433"><ele>143.0</ele><time>2026-04-18T08:34:13.002Z</time></trkpt><trkpt lat="45.47752624556152" lon="8.879650714682601"><ele>143.0</ele><time>2026-04-18T08:34:14.002Z</time></trkpt><trkpt lat="45.47748234886391" lon="8.87945406783672"><ele>143.0</ele><time>2026-04-18T08:34:15.002Z</time></trkpt><trkpt lat="45.47743711927902" lon="8.879260905146042"><ele>143.0</ele><time>2026-04-18T08:34:16.002Z</time></trkpt><trkpt lat="45.47738932585711" lon="8.879070207401881"><ele>142.75</ele><time>2026-04-18T08:34:17.002Z</time></trkpt><trkpt lat="45.477335749300586" lon="8.878898800939153"><ele>142.5</ele><time>2026-04-18T08:34:18.002Z</time></trkpt><trkpt lat="45.477283729440956" lon="8.878744618339622"><ele>142.25</ele><time>2026-04-18T08:34:19.002Z</time></trkpt><trkpt lat="45.477241448710224" lon="8.878596862041896"><ele>142.0</ele><time>2026-04-18T08:34:20.002Z</time></trkpt><trkpt lat="45.47720821845243" lon="8.878457651216968"><ele>142.0</ele><time>2026-04-18T08:34:21.002Z</time></trkpt><trkpt lat="45.47718324573912" lon="8.878323596298479"><ele>142.0</ele><time>2026-04-18T08:34:22.002Z</time></trkpt><trkpt lat="45.47716832078523" lon="8.878192150784187"><ele>142.0</ele><time>2026-04-18T08:34:23.002Z</time></trkpt><trkpt lat="45.47716462483385" lon="8.878075572252644"><ele>142.0</ele><time>2026-04-18T08:34:24.002Z</time></trkpt><trkpt lat="45.477166240605364" lon="8.87796345183394"><ele>142.0</ele><time>2026-04-18T08:34:25.002Z</time></trkpt><trkpt lat="45.47717559783924" lon="8.877864211024344"><ele>142.0</ele><time>2026-04-18T08:34:26.003Z</time></trkpt><trkpt lat="45.47719959040655" lon="8.877774421373404"><ele>142.0</ele><time>2026-04-18T08:34:27.003Z</time></trkpt><trkpt lat="45.47727383419612" lon="8.877638632291704"><ele>142.0</ele><time>2026-04-18T08:34:29.003Z</time></trkpt><trkpt lat="45.477306151789406" lon="8.877549756604282"><ele>142.0</ele><time>2026-04-18T08:34:30.003Z</time></trkpt><trkpt lat="45.477304406185816" lon="8.877386243114664"><ele>142.0</ele><time>2026-04-18T08:34:32.003Z</time></trkpt><trkpt lat="45.47723324133733" lon="8.877254051851638"><ele>142.0</ele><time>2026-04-18T08:34:34.003Z</time></trkpt><trkpt lat="45.477172636125246" lon="8.877204874434476"><ele>141.83333333333334</ele><time>2026-04-18T08:34:35.003Z</time></trkpt><trkpt lat="45.477101138018966" lon="8.877187719650584"><ele>141.66666666666669</ele><time>2026-04-18T08:34:36.003Z</time></trkpt><trkpt lat="45.47702546684981" lon="8.87719663815502"><ele>141.5</ele><time>2026-04-18T08:34:37.003Z</time></trkpt><trkpt lat="45.476951609833726" lon="8.877207251020566"><ele>141.33333333333334</ele><time>2026-04-18T08:34:38.003Z</time></trkpt><trkpt lat="45.476864066172645" lon="8.87719877561026"><ele>141.16666666666666</ele><time>2026-04-18T08:34:39.003Z</time></trkpt><trkpt lat="45.476768280703425" lon="8.877168403509835"><ele>141.0</ele><time>2026-04-18T08:34:40.003Z</time></trkpt><trkpt lat="45.47667070046639" lon="8.877109900277315"><ele>141.0</ele><time>2026-04-18T08:34:41.003Z</time></trkpt><trkpt lat="45.476586573018146" lon="8.876998068726552"><ele>141.0</ele><time>2026-04-18T08:34:42.003Z</time></trkpt><trkpt lat="45.47650274513448" lon="8.87689410479883"><ele>141.0</ele><time>2026-04-18T08:34:43.003Z</time></trkpt><trkpt lat="45.47643450271612" lon="8.876763878379482"><ele>141.0</ele><time>2026-04-18T08:34:44.003Z</time></trkpt><trkpt lat="45.47636151275612" lon="8.876609570659724"><ele>141.0</ele><time>2026-04-18T08:34:45.003Z</time></trkpt><trkpt lat="45.47627595414118" lon="8.87641927859875"><ele>141.0</ele><time>2026-04-18T08:34:46.003Z</time></trkpt><trkpt lat="45.476182756687365" lon="8.876206780784068"><ele>141.0</ele><time>2026-04-18T08:34:47.003Z</time></trkpt><trkpt lat="45.47607398285663" lon="8.876008443403046"><ele>141.33333333333334</ele><time>2026-04-18T08:34:48.003Z</time></trkpt><trkpt lat="45.475991097066675" lon="8.875810714705189"><ele>141.66666666666669</ele><time>2026-04-18T08:34:49.003Z</time></trkpt><trkpt lat="45.475910362131536" lon="8.875619097483499"><ele>142.0</ele><time>2026-04-18T08:34:50.003Z</time></trkpt><trkpt lat="45.47582795213832" lon="8.875433135474593"><ele>142.0</ele><time>2026-04-18T08:34:51.003Z</time></trkpt><trkpt lat="45.47573964660639" lon="8.875238809461138"><ele>142.0</ele><time>2026-04-18T08:34:52.003Z</time></trkpt><trkpt lat="45.475648301582694" lon="8.875035944509987"><ele>142.0</ele><time>2026-04-18T08:34:53.003Z</time></trkpt><trkpt lat="45.4755567957385" lon="8.874824580169738"><ele>142.0</ele><time>2026-04-18T08:34:54.003Z</time></trkpt><trkpt lat="45.47546210038696" lon="8.874608728991525"><ele>142.0</ele><time>2026-04-18T08:34:55Z</time></trkpt><trkpt lat="45.47535887505348" lon="8.874384447539127"><ele>142.0</ele><time>2026-04-18T08:34:56Z</time></trkpt><trkpt lat="45.475266885286366" lon="8.87413795671869"><ele>142.0</ele><time>2026-04-18T08:34:57Z</time></trkpt><trkpt lat="45.47515631236253" lon="8.873890222046132"><ele>142.0</ele><time>2026-04-18T08:34:58Z</time></trkpt><trkpt lat="45.47504037040942" lon="8.87363092137583"><ele>142.0</ele><time>2026-04-18T08:34:59Z</time></trkpt><trkpt lat="45.47491483538588" lon="8.873379974186479"><ele>141.66666666666669</ele><time>2026-04-18T08:35:00Z</time></trkpt><trkpt lat="45.47481256855293" lon="8.873110998575463"><ele>141.33333333333334</ele><time>2026-04-18T08:35:01Z</time></trkpt><trkpt lat="45.474697762553106" lon="8.872829422781688"><ele>141.0</ele><time>2026-04-18T08:35:02Z</time></trkpt><trkpt lat="45.47457202168546" lon="8.87255438863633"><ele>141.0</ele><time>2026-04-18T08:35:03Z</time></trkpt><trkpt lat="45.474442668280055" lon="8.872286197746028"><ele>141.0</ele><time>2026-04-18T08:35:04Z</time></trkpt><trkpt lat="45.474320145794884" lon="8.87202631463032"><ele>141.0</ele><time>2026-04-18T08:35:05Z</time></trkpt><trkpt lat="45.47420935036625" lon="8.871783948732533"><ele>141.33333333333334</ele><time>2026-04-18T08:35:06Z</time></trkpt><trkpt lat="45.47410969569218" lon="8.871560002705186"><ele>141.66666666666669</ele><time>2026-04-18T08:35:07Z</time></trkpt><trkpt lat="45.47400895196794" lon="8.871335593397268"><ele>142.0</ele><time>2026-04-18T08:35:08Z</time></trkpt><trkpt lat="45.473914857698354" lon="8.871122162906154"><ele>141.66666666666669</ele><time>2026-04-18T08:35:09Z</time></trkpt><trkpt lat="45.47381845832882" lon="8.870904695567503"><ele>141.33333333333334</ele><time>2026-04-18T08:35:10Z</time></trkpt><trkpt lat="45.473723811406636" lon="8.870694432119885"><ele>141.0</ele><time>2026-04-18T08:35:11Z</time></trkpt><trkpt lat="45.473626355403276" lon="8.87048729593215"><ele>140.66666666666666</ele><time>2026-04-18T08:35:12Z</time></trkpt><trkpt lat="45.473528996476944" lon="8.870287448710764"><ele>140.33333333333331</ele><time>2026-04-18T08:35:13Z</time></trkpt><trkpt lat="45.4734252013743" lon="8.870087644600522"><ele>140.0</ele><time>2026-04-18T08:35:14Z</time></trkpt><trkpt lat="45.47331532836854" lon="8.869888581734287"><ele>140.66666666666666</ele><time>2026-04-18T08:35:15Z</time></trkpt><trkpt lat="45.473203034135" lon="8.86969407100079"><ele>141.33333333333334</ele><time>2026-04-18T08:35:16Z</time></trkpt><trkpt lat="45.47308592952203" lon="8.86950192311097"><ele>142.0</ele><time>2026-04-18T08:35:17Z</time></trkpt><trkpt lat="45.47296607090598" lon="8.869314965298999"><ele>140.66666666666669</ele><time>2026-04-18T08:35:18Z</time></trkpt><trkpt lat="45.47284459010323" lon="8.869126380041186"><ele>139.33333333333334</ele><time>2026-04-18T08:35:19Z</time></trkpt><trkpt lat="45.47272389169086" lon="8.86894140240678"><ele>138.0</ele><time>2026-04-18T08:35:20Z</time></trkpt><trkpt lat="45.472599001465596" lon="8.86875888052485"><ele>138.0</ele><time>2026-04-18T08:35:21Z</time></trkpt><trkpt lat="45.47247598276599" lon="8.868588924625904"><ele>138.0</ele><time>2026-04-18T08:35:22Z</time></trkpt><trkpt lat="45.47235511286763" lon="8.868434553152293"><ele>138.0</ele><time>2026-04-18T08:35:23Z</time></trkpt><trkpt lat="45.47222999123289" lon="8.86827917288928"><ele>138.0</ele><time>2026-04-18T08:35:24Z</time></trkpt><trkpt lat="45.47210738814675" lon="8.868100426706976"><ele>138.0</ele><time>2026-04-18T08:35:25Z</time></trkpt><trkpt lat="45.471967551565285" lon="8.867931410494826"><ele>138.0</ele><time>2026-04-18T08:35:26Z</time></trkpt><trkpt lat="45.47181419017624" lon="8.867752465199604"><ele>139.33333333333334</ele><time>2026-04-18T08:35:27.001Z</time></trkpt><trkpt lat="45.47164260856994" lon="8.867569520151838"><ele>140.66666666666669</ele><time>2026-04-18T08:35:28.001Z</time></trkpt><trkpt lat="45.47146508960479" lon="8.867385068990059"><ele>142.0</ele><time>2026-04-18T08:35:29.001Z</time></trkpt><trkpt lat="45.47126964015263" lon="8.86721504047544"><ele>142.0</ele><time>2026-04-18T08:35:30.001Z</time></trkpt><trkpt lat="45.47108622071514" lon="8.867025914791068"><ele>142.0</ele><time>2026-04-18T08:35:31.001Z</time></trkpt><trkpt lat="45.47090557927361" lon="8.866853499849515"><ele>142.0</ele><time>2026-04-18T08:35:32.001Z</time></trkpt><trkpt lat="45.47073307745729" lon="8.866709879233616"><ele>141.0</ele><time>2026-04-18T08:35:33.001Z</time></trkpt><trkpt lat="45.47056616703766" lon="8.86658009336972"><ele>140.0</ele><time>2026-04-18T08:35:34.001Z</time></trkpt><trkpt lat="45.470404967928616" lon="8.86646075978983"><ele>139.0</ele><time>2026-04-18T08:35:35.001Z</time></trkpt><trkpt lat="45.47025315396795" lon="8.866351202152153"><ele>138.75</ele><time>2026-04-18T08:35:36.001Z</time></trkpt><trkpt lat="45.47012428344265" lon="8.866259396744608"><ele>138.5</ele><time>2026-04-18T08:35:37.001Z</time></trkpt><trkpt lat="45.47001040988996" lon="8.866178310516744"><ele>138.25</ele><time>2026-04-18T08:35:38.001Z</time></trkpt><trkpt lat="45.46991325175766" lon="8.866107540519893"><ele>138.0</ele><time>2026-04-18T08:35:39.001Z</time></trkpt><trkpt lat="45.46983607403963" lon="8.866051657375852"><ele>138.0</ele><time>2026-04-18T08:35:40.001Z</time></trkpt><trkpt lat="45.46976348317429" lon="8.865947763040317"><ele>138.0</ele><time>2026-04-18T08:35:42.001Z</time></trkpt><trkpt lat="45.46974385314847" lon="8.86573987527681"><ele>138.0</ele><time>2026-04-18T08:35:44.001Z</time></trkpt><trkpt lat="45.469732674600884" lon="8.86562197216713"><ele>138.0</ele><time>2026-04-18T08:35:45.001Z</time></trkpt><trkpt lat="45.469721861663196" lon="8.86547263428583"><ele>138.0</ele><time>2026-04-18T08:35:46.001Z</time></trkpt><trkpt lat="45.469714955262226" lon="8.86528696559703"><ele>138.5</ele><time>2026-04-18T08:35:47.001Z</time></trkpt><trkpt lat="45.46971209770957" lon="8.865082717744711"><ele>139.0</ele><time>2026-04-18T08:35:48.001Z</time></trkpt><trkpt lat="45.4697068333419" lon="8.864883132338738"><ele>139.5</ele><time>2026-04-18T08:35:49.001Z</time></trkpt><trkpt lat="45.46970200188397" lon="8.864708047406381"><ele>140.0</ele><time>2026-04-18T08:35:50.001Z</time></trkpt><trkpt lat="45.469700084893574" lon="8.864563063371303"><ele>140.0</ele><time>2026-04-18T08:35:51.001Z</time></trkpt><trkpt lat="45.46970461791082" lon="8.864431841169486"><ele>140.0</ele><time>2026-04-18T08:35:52.001Z</time></trkpt><trkpt lat="45.46970984575466" lon="8.864314660692889"><ele>140.0</ele><time>2026-04-18T08:35:53.001Z</time></trkpt><trkpt lat="45.46970566373132" lon="8.86420933972874"><ele>140.0</ele><time>2026-04-18T08:35:54.001Z</time></trkpt><trkpt lat="45.46970532850596" lon="8.864033531288408"><ele>140.0</ele><time>2026-04-18T08:35:56.001Z</time></trkpt><trkpt lat="45.46971772008067" lon="8.863898035030546"><ele>140.25</ele><time>2026-04-18T08:35:58.002Z</time></trkpt><trkpt lat="45.46973012839212" lon="8.863697448830573"><ele>140.5</ele><time>2026-04-18T08:36:00.002Z</time></trkpt><trkpt lat="45.46967220966786" lon="8.863545195155282"><ele>140.75</ele><time>2026-04-18T08:36:01.002Z</time></trkpt><trkpt lat="45.469598658309664" lon="8.86339072035329"><ele>141.0</ele><time>2026-04-18T08:36:02.002Z</time></trkpt><trkpt lat="45.469561360241805" lon="8.86326942641557"><ele>140.66666666666666</ele><time>2026-04-18T08:36:03.002Z</time></trkpt><trkpt lat="45.469534547291154" lon="8.863187383590365"><ele>140.33333333333334</ele><time>2026-04-18T08:36:04.002Z</time></trkpt><trkpt lat="45.46950813407659" lon="8.863072314932417"><ele>140.0</ele><time>2026-04-18T08:36:05.002Z</time></trkpt><trkpt lat="45.469527002954216" lon="8.862933710261458"><ele>139.66666666666669</ele><time>2026-04-18T08:36:06.002Z</time></trkpt><trkpt lat="45.46952292163884" lon="8.862822462309833"><ele>139.33333333333334</ele><time>2026-04-18T08:36:07.002Z</time></trkpt><trkpt lat="45.469520345136324" lon="8.862716009976461"><ele>139.0</ele><time>2026-04-18T08:36:08.002Z</time></trkpt><trkpt lat="45.46952396582868" lon="8.86253060638535"><ele>139.0</ele><time>2026-04-18T08:36:10.002Z</time></trkpt><trkpt lat="45.469512398750915" lon="8.862441404500268"><ele>139.0</ele><time>2026-04-18T08:36:11.002Z</time></trkpt><trkpt lat="45.46948971136648" lon="8.86234951886284"><ele>139.0</ele><time>2026-04-18T08:36:12.002Z</time></trkpt><trkpt lat="45.469447077364585" lon="8.862257720192213"><ele>139.0</ele><time>2026-04-18T08:36:13.002Z</time></trkpt><trkpt lat="45.469414283700026" lon="8.862130487210333"><ele>139.0</ele><time>2026-04-18T08:36:14.002Z</time></trkpt><trkpt lat="45.46938196298468" lon="8.862013841271239"><ele>139.0</ele><time>2026-04-18T08:36:15.002Z</time></trkpt><trkpt lat="45.46935008737191" lon="8.861922494499636"><ele>139.0</ele><time>2026-04-18T08:36:16.002Z</time></trkpt><trkpt lat="45.469289530495715" lon="8.86178926662738"><ele>139.0</ele><time>2026-04-18T08:36:18.002Z</time></trkpt><trkpt lat="45.469241703591635" lon="8.861676568938716"><ele>139.0</ele><time>2026-04-18T08:36:20.002Z</time></trkpt><trkpt lat="45.46921749461562" lon="8.861582247077568"><ele>139.0</ele><time>2026-04-18T08:36:22.002Z</time></trkpt><trkpt lat="45.46919831239133" lon="8.861490380543119"><ele>139.0</ele><time>2026-04-18T08:36:24.002Z</time></trkpt><trkpt lat="45.46919380193015" lon="8.861385341276636"><ele>139.0</ele><time>2026-04-18T08:36:26.002Z</time></trkpt><trkpt lat="45.46919417006359" lon="8.861263953425718"><ele>139.0</ele><time>2026-04-18T08:36:28.002Z</time></trkpt><trkpt lat="45.46921217313316" lon="8.861126420845768"><ele>139.0</ele><time>2026-04-18T08:36:30.002Z</time></trkpt><trkpt lat="45.46922291130519" lon="8.86102103270292"><ele>139.0</ele><time>2026-04-18T08:36:31.002Z</time></trkpt><trkpt lat="45.46923757266256" lon="8.860914709795315"><ele>139.0</ele><time>2026-04-18T08:36:32.003Z</time></trkpt><trkpt lat="45.469261098978386" lon="8.860783591371783"><ele>139.0</ele><time>2026-04-18T08:36:33.003Z</time></trkpt><trkpt lat="45.469289681652405" lon="8.860654348381296"><ele>139.0</ele><time>2026-04-18T08:36:34.003Z</time></trkpt><trkpt lat="45.46930868641295" lon="8.860549759940488"><ele>139.0</ele><time>2026-04-18T08:36:35.003Z</time></trkpt><trkpt lat="45.4693284557842" lon="8.860456378188873"><ele>139.0</ele><time>2026-04-18T08:36:36.003Z</time></trkpt><trkpt lat="45.46934669763601" lon="8.860369747254298"><ele>139.0</ele><time>2026-04-18T08:36:37.003Z</time></trkpt><trkpt lat="45.469355312991524" lon="8.860279936047343"><ele>139.0</ele><time>2026-04-18T08:36:38.003Z</time></trkpt><trkpt lat="45.46936424082452" lon="8.860190940582857"><ele>139.0</ele><time>2026-04-18T08:36:39.003Z</time></trkpt><trkpt lat="45.46936910864943" lon="8.860086446975375"><ele>139.0</ele><time>2026-04-18T08:36:40.003Z</time></trkpt><trkpt lat="45.469374309832354" lon="8.859960641249398"><ele>139.0</ele><time>2026-04-18T08:36:41.003Z</time></trkpt><trkpt lat="45.4693678808913" lon="8.859842546119621"><ele>139.0</ele><time>2026-04-18T08:36:42.003Z</time></trkpt><trkpt lat="45.46937383642114" lon="8.859720940695869"><ele>139.0</ele><time>2026-04-18T08:36:43.003Z</time></trkpt><trkpt lat="45.469374833320096" lon="8.85961460723013"><ele>139.0</ele><time>2026-04-18T08:36:44.003Z</time></trkpt><trkpt lat="45.46937986212245" lon="8.859437029037494"><ele>139.0</ele><time>2026-04-18T08:36:46.003Z</time></trkpt><trkpt lat="45.46938445129777" lon="8.859334200462209"><ele>139.0</ele><time>2026-04-18T08:36:47.003Z</time></trkpt><trkpt lat="45.46938847603451" lon="8.859211807345499"><ele>139.0</ele><time>2026-04-18T08:36:48.003Z</time></trkpt><trkpt lat="45.46940312117673" lon="8.859096480554564"><ele>139.0</ele><time>2026-04-18T08:36:49.003Z</time></trkpt><trkpt lat="45.46941011991366" lon="8.8589731971489"><ele>139.0</ele><time>2026-04-18T08:36:50.003Z</time></trkpt><trkpt lat="45.46941810754815" lon="8.85883454712672"><ele>139.0</ele><time>2026-04-18T08:36:51.003Z</time></trkpt><trkpt lat="45.46942478171452" lon="8.858707323107875"><ele>139.0</ele><time>2026-04-18T08:36:52.003Z</time></trkpt><trkpt lat="45.46942969194615" lon="8.858579134546131"><ele>139.0</ele><time>2026-04-18T08:36:53.003Z</time></trkpt><trkpt lat="45.46943611199372" lon="8.858460714581502"><ele>139.0</ele><time>2026-04-18T08:36:54.003Z</time></trkpt><trkpt lat="45.46944788835252" lon="8.858342398299566"><ele>139.0</ele><time>2026-04-18T08:36:55.003Z</time></trkpt><trkpt lat="45.46944863121406" lon="8.85824430429927"><ele>139.0</ele><time>2026-04-18T08:36:56.003Z</time></trkpt><trkpt lat="45.46945023181077" lon="8.858133623190204"><ele>139.0</ele><time>2026-04-18T08:36:57.003Z</time></trkpt><trkpt lat="45.469456088770144" lon="8.858018856301959"><ele>139.0</ele><time>2026-04-18T08:36:58.003Z</time></trkpt><trkpt lat="45.46945499740318" lon="8.857922886636308"><ele>139.0</ele><time>2026-04-18T08:36:59.003Z</time></trkpt><trkpt lat="45.46945458730057" lon="8.857809633109586"><ele>139.0</ele><time>2026-04-18T08:37:00.003Z</time></trkpt><trkpt lat="45.46944976172235" lon="8.857703167216615"><ele>139.0</ele><time>2026-04-18T08:37:01Z</time></trkpt><trkpt lat="45.46945297122268" lon="8.857610567546464"><ele>139.0</ele><time>2026-04-18T08:37:02Z</time></trkpt><trkpt lat="45.46944510865975" lon="8.857425111552622"><ele>139.0</ele><time>2026-04-18T08:37:04Z</time></trkpt><trkpt lat="45.46944066766126" lon="8.857323460384869"><ele>139.0</ele><time>2026-04-18T08:37:05Z</time></trkpt><trkpt lat="45.4694335357819" lon="8.857232448213072"><ele>139.0</ele><time>2026-04-18T08:37:06Z</time></trkpt><trkpt lat="45.46942563589126" lon="8.857134427686985"><ele>139.0</ele><time>2026-04-18T08:37:07Z</time></trkpt><trkpt lat="45.469418173266256" lon="8.856974436224652"><ele>139.0</ele><time>2026-04-18T08:37:09Z</time></trkpt><trkpt lat="45.46941460747467" lon="8.856806092909542"><ele>139.0</ele><time>2026-04-18T08:37:11Z</time></trkpt><trkpt lat="45.469405283011035" lon="8.856713727124056"><ele>139.0</ele><time>2026-04-18T08:37:12Z</time></trkpt><trkpt lat="45.46940010977464" lon="8.856621691521037"><ele>139.0</ele><time>2026-04-18T08:37:13Z</time></trkpt><trkpt lat="45.46939343997032" lon="8.85648736685937"><ele>139.0</ele><time>2026-04-18T08:37:15Z</time></trkpt><trkpt lat="45.46938414962709" lon="8.856351027719759"><ele>139.0</ele><time>2026-04-18T08:37:17Z</time></trkpt><trkpt lat="45.4693774931805" lon="8.85620617012239"><ele>139.0</ele><time>2026-04-18T08:37:19Z</time></trkpt><trkpt lat="45.46937296204902" lon="8.85605695588151"><ele>138.8</ele><time>2026-04-18T08:37:21Z</time></trkpt><trkpt lat="45.469371525873385" lon="8.8558990706984"><ele>138.60000000000002</ele><time>2026-04-18T08:37:23Z</time></trkpt><trkpt lat="45.46936323034796" lon="8.855724410207062"><ele>138.4</ele><time>2026-04-18T08:37:25Z</time></trkpt><trkpt lat="45.46935806223254" lon="8.855551641423734"><ele>138.20000000000002</ele><time>2026-04-18T08:37:27Z</time></trkpt><trkpt lat="45.46935775090691" lon="8.855450507431874"><ele>138.0</ele><time>2026-04-18T08:37:28Z</time></trkpt><trkpt lat="45.469360205459466" lon="8.855327093076193"><ele>138.0</ele><time>2026-04-18T08:37:29Z</time></trkpt><trkpt lat="45.46936543355938" lon="8.855193665627946"><ele>138.0</ele><time>2026-04-18T08:37:30Z</time></trkpt><trkpt lat="45.46936424659914" lon="8.855058873319651"><ele>138.0</ele><time>2026-04-18T08:37:31Z</time></trkpt><trkpt lat="45.469386431510635" lon="8.854912036663139"><ele>138.0</ele><time>2026-04-18T08:37:32.001Z</time></trkpt><trkpt lat="45.46938327849701" lon="8.854754025160407"><ele>138.0</ele><time>2026-04-18T08:37:33.001Z</time></trkpt><trkpt lat="45.46939177112806" lon="8.854598137449827"><ele>138.0</ele><time>2026-04-18T08:37:34.001Z</time></trkpt><trkpt lat="45.46940624560418" lon="8.85443131479167"><ele>138.0</ele><time>2026-04-18T08:37:35.001Z</time></trkpt><trkpt lat="45.469421478202946" lon="8.854279898246475"><ele>138.0</ele><time>2026-04-18T08:37:36.001Z</time></trkpt><trkpt lat="45.46943518182489" lon="8.85411861955328"><ele>138.0</ele><time>2026-04-18T08:37:37.001Z</time></trkpt><trkpt lat="45.46944783440731" lon="8.853965539104054"><ele>138.0</ele><time>2026-04-18T08:37:38.001Z</time></trkpt><trkpt lat="45.469464142820435" lon="8.853808929559252"><ele>138.0</ele><time>2026-04-18T08:37:39.001Z</time></trkpt><trkpt lat="45.46947925948151" lon="8.853660872466131"><ele>138.0</ele><time>2026-04-18T08:37:40.001Z</time></trkpt><trkpt lat="45.46949736285529" lon="8.853518303156418"><ele>138.0</ele><time>2026-04-18T08:37:41.001Z</time></trkpt><trkpt lat="45.46951281593448" lon="8.853393797528005"><ele>138.0</ele><time>2026-04-18T08:37:42.001Z</time></trkpt><trkpt lat="45.469530738879264" lon="8.853293742824393"><ele>138.0</ele><time>2026-04-18T08:37:43.001Z</time></trkpt><trkpt lat="45.46954062303349" lon="8.853186481107024"><ele>138.0</ele><time>2026-04-18T08:37:44.001Z</time></trkpt><trkpt lat="45.46955932074768" lon="8.853077014457046"><ele>138.14285714285714</ele><time>2026-04-18T08:37:45.001Z</time></trkpt><trkpt lat="45.46958203694053" lon="8.852979176489175"><ele>138.2857142857143</ele><time>2026-04-18T08:37:46.001Z</time></trkpt><trkpt lat="45.469611293078344" lon="8.852881200761152"><ele>138.42857142857144</ele><time>2026-04-18T08:37:47.001Z</time></trkpt><trkpt lat="45.469633588095526" lon="8.852781982389864"><ele>138.57142857142858</ele><time>2026-04-18T08:37:48.001Z</time></trkpt><trkpt lat="45.46965057968409" lon="8.852678192138171"><ele>138.71428571428572</ele><time>2026-04-18T08:37:49.001Z</time></trkpt><trkpt lat="45.46966367569859" lon="8.85257729131665"><ele>138.85714285714286</ele><time>2026-04-18T08:37:50.001Z</time></trkpt><trkpt lat="45.46967575291838" lon="8.852463401825121"><ele>139.0</ele><time>2026-04-18T08:37:51.001Z</time></trkpt><trkpt lat="45.46968045105335" lon="8.85235679220348"><ele>139.0</ele><time>2026-04-18T08:37:52.001Z</time></trkpt><trkpt lat="45.46969076962671" lon="8.852205966287295"><ele>139.0</ele><time>2026-04-18T08:37:54.001Z</time></trkpt><trkpt lat="45.46969583618293" lon="8.852027693644336"><ele>139.0</ele><time>2026-04-18T08:37:56.001Z</time></trkpt><trkpt lat="45.46965869268868" lon="8.85193039504334"><ele>139.0</ele><time>2026-04-18T08:37:57.001Z</time></trkpt><trkpt lat="45.4696467243215" lon="8.851800367007462"><ele>139.0</ele><time>2026-04-18T08:37:58.001Z</time></trkpt><trkpt lat="45.4696074243526" lon="8.851679827568159"><ele>139.2</ele><time>2026-04-18T08:37:59.001Z</time></trkpt><trkpt lat="45.46958577445539" lon="8.851557281072322"><ele>139.4</ele><time>2026-04-18T08:38:00.001Z</time></trkpt><trkpt lat="45.469557843057466" lon="8.851420255475174"><ele>139.6</ele><time>2026-04-18T08:38:01.001Z</time></trkpt><trkpt lat="45.46953907965584" lon="8.851288028928959"><ele>139.8</ele><time>2026-04-18T08:38:02.001Z</time></trkpt><trkpt lat="45.46952741072374" lon="8.851161541532234"><ele>140.0</ele><time>2026-04-18T08:38:03.001Z</time></trkpt><trkpt lat="45.469514213077304" lon="8.851030904020176"><ele>140.0</ele><time>2026-04-18T08:38:04.001Z</time></trkpt><trkpt lat="45.46949398431234" lon="8.850899029797683"><ele>140.0</ele><time>2026-04-18T08:38:05.001Z</time></trkpt><trkpt lat="45.469474819688585" lon="8.850766019958801"><ele>140.0</ele><time>2026-04-18T08:38:06.002Z</time></trkpt><trkpt lat="45.46946386284838" lon="8.850634558729974"><ele>140.0</ele><time>2026-04-18T08:38:07.002Z</time></trkpt><trkpt lat="45.4694546603132" lon="8.850500351563678"><ele>140.0</ele><time>2026-04-18T08:38:08.002Z</time></trkpt><trkpt lat="45.46944433728559" lon="8.85036999059535"><ele>140.0</ele><time>2026-04-18T08:38:09.002Z</time></trkpt><trkpt lat="45.469438877313486" lon="8.850230552463904"><ele>140.0</ele><time>2026-04-18T08:38:10.002Z</time></trkpt><trkpt lat="45.46944136882725" lon="8.850090053972002"><ele>140.0</ele><time>2026-04-18T08:38:11.002Z</time></trkpt><trkpt lat="45.46945143719956" lon="8.849953941110732"><ele>140.0</ele><time>2026-04-18T08:38:12.002Z</time></trkpt><trkpt lat="45.469464250072484" lon="8.849809974134871"><ele>140.0</ele><time>2026-04-18T08:38:13.002Z</time></trkpt><trkpt lat="45.46947948994187" lon="8.849673362060228"><ele>140.0</ele><time>2026-04-18T08:38:14.002Z</time></trkpt><trkpt lat="45.469496111039405" lon="8.849533365792334"><ele>140.0</ele><time>2026-04-18T08:38:15.002Z</time></trkpt><trkpt lat="45.46950996308682" lon="8.849396987282649"><ele>140.0</ele><time>2026-04-18T08:38:16.002Z</time></trkpt><trkpt lat="45.46952544664344" lon="8.849253096728765"><ele>140.0</ele><time>2026-04-18T08:38:17.002Z</time></trkpt><trkpt lat="45.46954114179078" lon="8.849102252905313"><ele>140.0</ele><time>2026-04-18T08:38:18.002Z</time></trkpt><trkpt lat="45.46956188815508" lon="8.848947335148278"><ele>139.6</ele><time>2026-04-18T08:38:19.002Z</time></trkpt><trkpt lat="45.46958175771498" lon="8.848811001715703"><ele>139.2</ele><time>2026-04-18T08:38:20.002Z</time></trkpt><trkpt lat="45.46960099890054" lon="8.848677546718369"><ele>138.8</ele><time>2026-04-18T08:38:21.002Z</time></trkpt><trkpt lat="45.46962054872865" lon="8.848536337953988"><ele>138.4</ele><time>2026-04-18T08:38:22.002Z</time></trkpt><trkpt lat="45.469637529803805" lon="8.848382935593758"><ele>138.0</ele><time>2026-04-18T08:38:23.002Z</time></trkpt><trkpt lat="45.46965598684639" lon="8.848230533262141"><ele>138.0</ele><time>2026-04-18T08:38:24.002Z</time></trkpt><trkpt lat="45.46967432113906" lon="8.848073769967433"><ele>138.0</ele><time>2026-04-18T08:38:25.002Z</time></trkpt><trkpt lat="45.46969603414206" lon="8.847906743753363"><ele>138.0</ele><time>2026-04-18T08:38:26.002Z</time></trkpt><trkpt lat="45.469716604892895" lon="8.847734972354127"><ele>138.0</ele><time>2026-04-18T08:38:27.002Z</time></trkpt><trkpt lat="45.4697382634151" lon="8.847548907572625"><ele>137.75</ele><time>2026-04-18T08:38:28.002Z</time></trkpt><trkpt lat="45.469777175607604" lon="8.847354332568967"><ele>137.5</ele><time>2026-04-18T08:38:29.002Z</time></trkpt><trkpt lat="45.46980063856398" lon="8.847147929756062"><ele>137.25</ele><time>2026-04-18T08:38:30.002Z</time></trkpt><trkpt lat="45.46980736658206" lon="8.846929199029857"><ele>137.0</ele><time>2026-04-18T08:38:31.002Z</time></trkpt><trkpt lat="45.46983075867774" lon="8.84670714314097"><ele>137.0</ele><time>2026-04-18T08:38:32.002Z</time></trkpt><trkpt lat="45.46984337811761" lon="8.84647448515306"><ele>137.0</ele><time>2026-04-18T08:38:33.002Z</time></trkpt><trkpt lat="45.469842037799985" lon="8.84623845585237"><ele>137.0</ele><time>2026-04-18T08:38:34.002Z</time></trkpt><trkpt lat="45.46982816513575" lon="8.84600021852351"><ele>137.66666666666666</ele><time>2026-04-18T08:38:35.002Z</time></trkpt><trkpt lat="45.46981074352294" lon="8.845750814485083"><ele>138.33333333333334</ele><time>2026-04-18T08:38:36.002Z</time></trkpt><trkpt lat="45.46979275953955" lon="8.845497924271632"><ele>139.0</ele><time>2026-04-18T08:38:37.002Z</time></trkpt><trkpt lat="45.469776426967485" lon="8.84524378133592"><ele>139.0</ele><time>2026-04-18T08:38:38.002Z</time></trkpt><trkpt lat="45.46976127333036" lon="8.84499583772125"><ele>139.0</ele><time>2026-04-18T08:38:39.002Z</time></trkpt><trkpt lat="45.469736049627244" lon="8.844756586120734"><ele>139.0</ele><time>2026-04-18T08:38:40.003Z</time></trkpt><trkpt lat="45.46970849138159" lon="8.844522527409545"><ele>139.0</ele><time>2026-04-18T08:38:41.003Z</time></trkpt><trkpt lat="45.46970013383373" lon="8.844275235864815"><ele>139.0</ele><time>2026-04-18T08:38:42.003Z</time></trkpt><trkpt lat="45.469674857385016" lon="8.84403712820165"><ele>139.0</ele><time>2026-04-18T08:38:43.003Z</time></trkpt><trkpt lat="45.46964822956434" lon="8.843791084402055"><ele>139.0</ele><time>2026-04-18T08:38:44.003Z</time></trkpt><trkpt lat="45.469621580566375" lon="8.843553396148527"><ele>139.0</ele><time>2026-04-18T08:38:45.003Z</time></trkpt><trkpt lat="45.46959730553788" lon="8.843340882276529"><ele>139.0</ele><time>2026-04-18T08:38:46.003Z</time></trkpt><trkpt lat="45.46957363968725" lon="8.843143772734216"><ele>139.0</ele><time>2026-04-18T08:38:47.003Z</time></trkpt><trkpt lat="45.469551861273935" lon="8.842963670960241"><ele>139.0</ele><time>2026-04-18T08:38:48.003Z</time></trkpt><trkpt lat="45.469524735686896" lon="8.842796832229952"><ele>139.0</ele><time>2026-04-18T08:38:49.003Z</time></trkpt><trkpt lat="45.469508122247305" lon="8.84263872372484"><ele>139.0</ele><time>2026-04-18T08:38:50.003Z</time></trkpt><trkpt lat="45.46948523292946" lon="8.84249020061165"><ele>139.0</ele><time>2026-04-18T08:38:51.003Z</time></trkpt><trkpt lat="45.46946516198665" lon="8.842358654827205"><ele>139.0</ele><time>2026-04-18T08:38:52.003Z</time></trkpt><trkpt lat="45.46945153466499" lon="8.842228403875122"><ele>139.0</ele><time>2026-04-18T08:38:53.003Z</time></trkpt><trkpt lat="45.4694359167076" lon="8.842109972043465"><ele>139.0</ele><time>2026-04-18T08:38:54.003Z</time></trkpt><trkpt lat="45.46942472964178" lon="8.842002270190779"><ele>139.0</ele><time>2026-04-18T08:38:55.003Z</time></trkpt><trkpt lat="45.46941298056211" lon="8.841908535805361"><ele>139.0</ele><time>2026-04-18T08:38:56.003Z</time></trkpt><trkpt lat="45.469397246239616" lon="8.841784657528088"><ele>139.33333333333334</ele><time>2026-04-18T08:38:58.003Z</time></trkpt><trkpt lat="45.46938622693909" lon="8.841689668533695"><ele>139.66666666666669</ele><time>2026-04-18T08:39:02.003Z</time></trkpt><trkpt lat="45.4693648141981" lon="8.84154147999701"><ele>140.0</ele><time>2026-04-18T08:39:10.999Z</time></trkpt><trkpt lat="45.46934873665268" lon="8.841451744151778"><ele>140.33333333333334</ele><time>2026-04-18T08:39:11.999Z</time></trkpt><trkpt lat="45.469329367913986" lon="8.841346933094957"><ele>140.66666666666666</ele><time>2026-04-18T08:39:12.999Z</time></trkpt><trkpt lat="45.46930666252021" lon="8.841231778426193"><ele>141.0</ele><time>2026-04-18T08:39:13.999Z</time></trkpt><trkpt lat="45.46928248330278" lon="8.841091198800257"><ele>140.75</ele><time>2026-04-18T08:39:14.999Z</time></trkpt><trkpt lat="45.469258087786464" lon="8.840923721944188"><ele>140.5</ele><time>2026-04-18T08:39:15.999Z</time></trkpt><trkpt lat="45.469230440452336" lon="8.840725540061605"><ele>140.25</ele><time>2026-04-18T08:39:16.999Z</time></trkpt><trkpt lat="45.469199929579474" lon="8.840488552494781"><ele>140.0</ele><time>2026-04-18T08:39:17.999Z</time></trkpt><trkpt lat="45.46916659277031" lon="8.84022738777189"><ele>140.0</ele><time>2026-04-18T08:39:18.999Z</time></trkpt><trkpt lat="45.46913937038881" lon="8.839974243807498"><ele>140.0</ele><time>2026-04-18T08:39:19.999Z</time></trkpt><trkpt lat="45.469121970507615" lon="8.839763344339453"><ele>140.0</ele><time>2026-04-18T08:39:21Z</time></trkpt><trkpt lat="45.469111323843606" lon="8.839563887779565"><ele>140.0</ele><time>2026-04-18T08:39:22Z</time></trkpt><trkpt lat="45.46910791164061" lon="8.839358058558332"><ele>140.0</ele><time>2026-04-18T08:39:23Z</time></trkpt><trkpt lat="45.46911421191788" lon="8.839093152133156"><ele>140.0</ele><time>2026-04-18T08:39:24Z</time></trkpt><trkpt lat="45.46912748378663" lon="8.838802051376328"><ele>140.0</ele><time>2026-04-18T08:39:25Z</time></trkpt><trkpt lat="45.46912962193614" lon="8.838531065504771"><ele>140.0</ele><time>2026-04-18T08:39:26Z</time></trkpt><trkpt lat="45.46912464718004" lon="8.838294164216968"><ele>140.0</ele><time>2026-04-18T08:39:27Z</time></trkpt><trkpt lat="45.46912055812016" lon="8.838074400091967"><ele>140.0</ele><time>2026-04-18T08:39:28Z</time></trkpt><trkpt lat="45.46912171422832" lon="8.837874005608175"><ele>140.0</ele><time>2026-04-18T08:39:29Z</time></trkpt><trkpt lat="45.46912403982389" lon="8.837685813442313"><ele>140.0</ele><time>2026-04-18T08:39:30Z</time></trkpt><trkpt lat="45.469128148021134" lon="8.83750876485134"><ele>140.0</ele><time>2026-04-18T08:39:31Z</time></trkpt><trkpt lat="45.46913336007935" lon="8.837346778062681"><ele>139.8</ele><time>2026-04-18T08:39:32Z</time></trkpt><trkpt lat="45.46913665651075" lon="8.837192560695245"><ele>139.6</ele><time>2026-04-18T08:39:33Z</time></trkpt><trkpt lat="45.469132388734465" lon="8.837055259562007"><ele>139.4</ele><time>2026-04-18T08:39:34Z</time></trkpt><trkpt lat="45.46912756578789" lon="8.836919107370242"><ele>139.2</ele><time>2026-04-18T08:39:35Z</time></trkpt><trkpt lat="45.46912962498297" lon="8.836786529512327"><ele>139.0</ele><time>2026-04-18T08:39:36Z</time></trkpt><trkpt lat="45.46913803036459" lon="8.836667903040526"><ele>139.0</ele><time>2026-04-18T08:39:37Z</time></trkpt><trkpt lat="45.4691437214987" lon="8.8365529653942"><ele>139.0</ele><time>2026-04-18T08:39:38Z</time></trkpt><trkpt lat="45.46914349474946" lon="8.836437603319371"><ele>139.0</ele><time>2026-04-18T08:39:39Z</time></trkpt><trkpt lat="45.46914371609135" lon="8.83632425848946"><ele>139.0</ele><time>2026-04-18T08:39:40Z</time></trkpt><trkpt lat="45.469148616786725" lon="8.83623097426154"><ele>139.0</ele><time>2026-04-18T08:39:41Z</time></trkpt><trkpt lat="45.4691526186344" lon="8.83611950420891"><ele>139.0</ele><time>2026-04-18T08:39:42.001Z</time></trkpt><trkpt lat="45.469158634762856" lon="8.836000968834716"><ele>139.2</ele><time>2026-04-18T08:39:43.001Z</time></trkpt><trkpt lat="45.46916022477525" lon="8.835868964847819"><ele>139.4</ele><time>2026-04-18T08:39:44.001Z</time></trkpt><trkpt lat="45.469164929316236" lon="8.835725451398895"><ele>139.6</ele><time>2026-04-18T08:39:45.001Z</time></trkpt><trkpt lat="45.469170545721646" lon="8.835576186125849"><ele>139.8</ele><time>2026-04-18T08:39:46.001Z</time></trkpt><trkpt lat="45.46917346536117" lon="8.83542861194094"><ele>140.0</ele><time>2026-04-18T08:39:47.001Z</time></trkpt><trkpt lat="45.469175564038906" lon="8.83527697114842"><ele>140.2</ele><time>2026-04-18T08:39:48.001Z</time></trkpt><trkpt lat="45.46917928168756" lon="8.835128758169349"><ele>140.4</ele><time>2026-04-18T08:39:49.001Z</time></trkpt><trkpt lat="45.469182755814124" lon="8.834984274346986"><ele>140.6</ele><time>2026-04-18T08:39:50.001Z</time></trkpt><trkpt lat="45.46918330542975" lon="8.834854918569464"><ele>140.8</ele><time>2026-04-18T08:39:51.001Z</time></trkpt><trkpt lat="45.46918474891766" lon="8.834738856156696"><ele>141.0</ele><time>2026-04-18T08:39:52.001Z</time></trkpt><trkpt lat="45.46918596428712" lon="8.834634445342607"><ele>141.0</ele><time>2026-04-18T08:39:53.001Z</time></trkpt><trkpt lat="45.46918783295674" lon="8.83446935425975"><ele>141.0</ele><time>2026-04-18T08:39:55.001Z</time></trkpt><trkpt lat="45.469190493702364" lon="8.834379010170148"><ele>141.0</ele><time>2026-04-18T08:39:57.001Z</time></trkpt><trkpt lat="45.46919451842867" lon="8.834235555927426"><ele>141.0</ele><time>2026-04-18T08:40:41.002Z</time></trkpt><trkpt lat="45.46918770325599" lon="8.834038704253707"><ele>141.0</ele><time>2026-04-18T08:40:43.002Z</time></trkpt><trkpt lat="45.46918830277956" lon="8.833906606390492"><ele>141.0</ele><time>2026-04-18T08:40:44.003Z</time></trkpt><trkpt lat="45.46919557968116" lon="8.833752342771554"><ele>141.0</ele><time>2026-04-18T08:40:45.003Z</time></trkpt><trkpt lat="45.46919937231466" lon="8.833598313351409"><ele>141.0</ele><time>2026-04-18T08:40:46.003Z</time></trkpt><trkpt lat="45.46919783497624" lon="8.833434938441428"><ele>141.0</ele><time>2026-04-18T08:40:47.003Z</time></trkpt><trkpt lat="45.46918992655661" lon="8.833257976211492"><ele>141.0</ele><time>2026-04-18T08:40:48.003Z</time></trkpt><trkpt lat="45.46918405932105" lon="8.833101733002882"><ele>141.0</ele><time>2026-04-18T08:40:49.003Z</time></trkpt><trkpt lat="45.469180902719344" lon="8.832969483995777"><ele>141.0</ele><time>2026-04-18T08:40:50.003Z</time></trkpt><trkpt lat="45.469183882455894" lon="8.832853753144377"><ele>141.0</ele><time>2026-04-18T08:40:51.003Z</time></trkpt><trkpt lat="45.46918647282302" lon="8.832745950516285"><ele>141.0</ele><time>2026-04-18T08:40:52.003Z</time></trkpt><trkpt lat="45.469189511637154" lon="8.832651911169808"><ele>141.0</ele><time>2026-04-18T08:40:53.003Z</time></trkpt><trkpt lat="45.46919308723576" lon="8.832561974728216"><ele>140.83333333333334</ele><time>2026-04-18T08:40:54.003Z</time></trkpt><trkpt lat="45.46919311896744" lon="8.832417212293226"><ele>140.66666666666666</ele><time>2026-04-18T08:40:56.003Z</time></trkpt><trkpt lat="45.46918358207346" lon="8.832293741277539"><ele>140.5</ele><time>2026-04-18T08:40:58.003Z</time></trkpt><trkpt lat="45.46919118512833" lon="8.832184724371194"><ele>140.33333333333331</ele><time>2026-04-18T08:41:00.003Z</time></trkpt><trkpt lat="45.46919602723313" lon="8.832090464727786"><ele>140.16666666666666</ele><time>2026-04-18T08:41:03.003Z</time></trkpt><trkpt lat="45.469190861856276" lon="8.831998003304786"><ele>140.0</ele><time>2026-04-18T08:41:18Z</time></trkpt><trkpt lat="45.46919110314309" lon="8.831839242562777"><ele>140.8</ele><time>2026-04-18T08:41:20Z</time></trkpt><trkpt lat="45.469204335881514" lon="8.83171058778206"><ele>141.6</ele><time>2026-04-18T08:41:22Z</time></trkpt><trkpt lat="45.46906909416279" lon="8.831665884396276"><ele>142.4</ele><time>2026-04-18T08:41:23Z</time></trkpt><trkpt lat="45.46899730629917" lon="8.831633397977951"><ele>143.2</ele><time>2026-04-18T08:41:24Z</time></trkpt><trkpt lat="45.4689244679587" lon="8.831598137517203"><ele>144.0</ele><time>2026-04-18T08:41:25Z</time></trkpt><trkpt lat="45.46884587553658" lon="8.831565879149775"><ele>143.16666666666666</ele><time>2026-04-18T08:41:26Z</time></trkpt><trkpt lat="45.46876344430594" lon="8.831537033592612"><ele>142.33333333333334</ele><time>2026-04-18T08:41:27Z</time></trkpt><trkpt lat="45.468679429420675" lon="8.83150943988357"><ele>141.5</ele><time>2026-04-18T08:41:28Z</time></trkpt><trkpt lat="45.46860010223198" lon="8.83147879233004"><ele>140.66666666666669</ele><time>2026-04-18T08:41:29Z</time></trkpt><trkpt lat="45.46851053211746" lon="8.831464683077373"><ele>139.83333333333334</ele><time>2026-04-18T08:41:30Z</time></trkpt><trkpt lat="45.46844041800852" lon="8.831425902907773"><ele>139.0</ele><time>2026-04-18T08:41:31Z</time></trkpt><trkpt lat="45.46837539817314" lon="8.831375468969883"><ele>139.0</ele><time>2026-04-18T08:41:32Z</time></trkpt><trkpt lat="45.46830305194268" lon="8.831234663683869"><ele>139.0</ele><time>2026-04-18T08:41:34Z</time></trkpt><trkpt lat="45.468266178124594" lon="8.831151980100625"><ele>139.0</ele><time>2026-04-18T08:41:35Z</time></trkpt><trkpt lat="45.4682269278797" lon="8.831062015409204"><ele>139.0</ele><time>2026-04-18T08:41:36Z</time></trkpt><trkpt lat="45.46816712053937" lon="8.830973711178364"><ele>139.0</ele><time>2026-04-18T08:41:37Z</time></trkpt><trkpt lat="45.468097750521544" lon="8.830892985314401"><ele>139.0</ele><time>2026-04-18T08:41:38Z</time></trkpt><trkpt lat="45.46803317938237" lon="8.830827409376342"><ele>138.83333333333334</ele><time>2026-04-18T08:41:39Z</time></trkpt><trkpt lat="45.46796947965225" lon="8.830770198355705"><ele>138.66666666666669</ele><time>2026-04-18T08:41:40Z</time></trkpt><trkpt lat="45.467897978976765" lon="8.830730668237443"><ele>138.5</ele><time>2026-04-18T08:41:41Z</time></trkpt><trkpt lat="45.46783486440656" lon="8.830675500958009"><ele>138.33333333333334</ele><time>2026-04-18T08:41:42Z</time></trkpt><trkpt lat="45.46776385325802" lon="8.830625538676987"><ele>138.16666666666666</ele><time>2026-04-18T08:41:43Z</time></trkpt><trkpt lat="45.467694852310075" lon="8.830582831078866"><ele>138.0</ele><time>2026-04-18T08:41:44Z</time></trkpt><trkpt lat="45.46762674043811" lon="8.830545472524683"><ele>138.0</ele><time>2026-04-18T08:41:45.001Z</time></trkpt><trkpt lat="45.46756387115751" lon="8.830514995094385"><ele>138.0</ele><time>2026-04-18T08:41:46.001Z</time></trkpt><trkpt lat="45.46750084729982" lon="8.830485643995218"><ele>138.0</ele><time>2026-04-18T08:41:47.001Z</time></trkpt><trkpt lat="45.46744016089324" lon="8.830445427523918"><ele>138.0</ele><time>2026-04-18T08:41:48.001Z</time></trkpt><trkpt lat="45.46738265862646" lon="8.83040750383609"><ele>138.0</ele><time>2026-04-18T08:41:49.001Z</time></trkpt><trkpt lat="45.467285277653374" lon="8.830305659142992"><ele>138.0</ele><time>2026-04-18T08:41:51.001Z</time></trkpt><trkpt lat="45.467227878459376" lon="8.830222023671492"><ele>138.0</ele><time>2026-04-18T08:41:53.001Z</time></trkpt><trkpt lat="45.46715102588991" lon="8.8301619070128"><ele>138.0</ele><time>2026-04-18T08:41:57.001Z</time></trkpt><trkpt lat="45.46706610956657" lon="8.830130442201543"><ele>138.0</ele><time>2026-04-18T08:42:00.001Z</time></trkpt><trkpt lat="45.466973485889646" lon="8.83009071287457"><ele>138.0</ele><time>2026-04-18T08:42:02.001Z</time></trkpt><trkpt lat="45.466912464823025" lon="8.830068006733157"><ele>138.0</ele><time>2026-04-18T08:42:04.001Z</time></trkpt><trkpt lat="45.466852030412184" lon="8.829994399875405"><ele>138.0</ele><time>2026-04-18T08:42:08.001Z</time></trkpt><trkpt lat="45.46680359641917" lon="8.829928421378145"><ele>136.85714285714286</ele><time>2026-04-18T08:42:11.001Z</time></trkpt><trkpt lat="45.4667453592346" lon="8.829855876777701"><ele>135.71428571428572</ele><time>2026-04-18T08:42:13.001Z</time></trkpt><trkpt lat="45.466671221540224" lon="8.829753579236133"><ele>134.57142857142858</ele><time>2026-04-18T08:42:15.001Z</time></trkpt><trkpt lat="45.46662374912041" lon="8.829684752320281"><ele>133.42857142857144</ele><time>2026-04-18T08:42:16.001Z</time></trkpt><trkpt lat="45.46657372780565" lon="8.829621171839726"><ele>132.28571428571428</ele><time>2026-04-18T08:42:17.001Z</time></trkpt><trkpt lat="45.466526086206215" lon="8.829557437998874"><ele>131.14285714285717</ele><time>2026-04-18T08:42:18.002Z</time></trkpt><trkpt lat="45.46647355963513" lon="8.829497041764858"><ele>130.0</ele><time>2026-04-18T08:42:19.002Z</time></trkpt><trkpt lat="45.46643969359915" lon="8.829419448422728"><ele>130.0</ele><time>2026-04-18T08:42:20.002Z</time></trkpt><trkpt lat="45.466396510495215" lon="8.829350564994826"><ele>130.0</ele><time>2026-04-18T08:42:21.002Z</time></trkpt><trkpt lat="45.46634375034878" lon="8.829294458522883"><ele>130.0</ele><time>2026-04-18T08:42:22.002Z</time></trkpt><trkpt lat="45.4662825036524" lon="8.829159014339918"><ele>130.0</ele><time>2026-04-18T08:42:24.002Z</time></trkpt><trkpt lat="45.466207109258285" lon="8.82902794767457"><ele>130.0</ele><time>2026-04-18T08:42:26.002Z</time></trkpt><trkpt lat="45.46614370510509" lon="8.828920940975385"><ele>129.5</ele><time>2026-04-18T08:42:28.002Z</time></trkpt><trkpt lat="45.46609558528551" lon="8.828823973191627"><ele>129.0</ele><time>2026-04-18T08:42:30.002Z</time></trkpt><trkpt lat="45.4660784997023" lon="8.828707434567297"><ele>128.5</ele><time>2026-04-18T08:42:32.002Z</time></trkpt><trkpt lat="45.4660651589957" lon="8.828588930967168"><ele>128.0</ele><time>2026-04-18T08:42:34.002Z</time></trkpt><trkpt lat="45.465952034281074" lon="8.828522672478972"><ele>127.50000000000001</ele><time>2026-04-18T08:42:37.002Z</time></trkpt><trkpt lat="45.46588669745093" lon="8.828528011968745"><ele>127.0</ele><time>2026-04-18T08:42:38.002Z</time></trkpt><trkpt lat="45.4658481410774" lon="8.828442558339448"><ele>126.6</ele><time>2026-04-18T08:42:39.002Z</time></trkpt><trkpt lat="45.465786301144036" lon="8.828356307665095"><ele>126.19999999999999</ele><time>2026-04-18T08:42:40.002Z</time></trkpt><trkpt lat="45.46572915337841" lon="8.828254593874544"><ele>125.8</ele><time>2026-04-18T08:42:41.002Z</time></trkpt><trkpt lat="45.46566491556993" lon="8.828152461474831"><ele>125.4</ele><time>2026-04-18T08:42:42.002Z</time></trkpt><trkpt lat="45.46559562756129" lon="8.828043487745779"><ele>125.0</ele><time>2026-04-18T08:42:43.002Z</time></trkpt><trkpt lat="45.46551847013577" lon="8.827924842137243"><ele>124.75</ele><time>2026-04-18T08:42:44.002Z</time></trkpt><trkpt lat="45.4654386783722" lon="8.827797396424122"><ele>124.5</ele><time>2026-04-18T08:42:45.002Z</time></trkpt><trkpt lat="45.46535532616136" lon="8.827658565719295"><ele>124.25</ele><time>2026-04-18T08:42:46.002Z</time></trkpt><trkpt lat="45.46527693129571" lon="8.827526280826989"><ele>124.0</ele><time>2026-04-18T08:42:47.002Z</time></trkpt><trkpt lat="45.465197590409765" lon="8.827390783969658"><ele>123.75</ele><time>2026-04-18T08:42:48.002Z</time></trkpt><trkpt lat="45.46511254958598" lon="8.82725794398622"><ele>123.5</ele><time>2026-04-18T08:42:49.002Z</time></trkpt><trkpt lat="45.465020019940944" lon="8.827130399576452"><ele>123.25</ele><time>2026-04-18T08:42:50.002Z</time></trkpt><trkpt lat="45.46492961809716" lon="8.826988800482404"><ele>123.0</ele><time>2026-04-18T08:42:51.003Z</time></trkpt><trkpt lat="45.46483881959564" lon="8.826838467067372"><ele>123.25</ele><time>2026-04-18T08:42:52.003Z</time></trkpt><trkpt lat="45.464748848338054" lon="8.826685362145806"><ele>123.5</ele><time>2026-04-18T08:42:53.003Z</time></trkpt><trkpt lat="45.46466566692573" lon="8.826550097644652"><ele>123.75</ele><time>2026-04-18T08:42:54.003Z</time></trkpt><trkpt lat="45.46459282586113" lon="8.826426009474542"><ele>124.0</ele><time>2026-04-18T08:42:55.003Z</time></trkpt><trkpt lat="45.464520795172014" lon="8.826312419125347"><ele>123.5</ele><time>2026-04-18T08:42:56.003Z</time></trkpt><trkpt lat="45.46444594070926" lon="8.826205658988444"><ele>123.0</ele><time>2026-04-18T08:42:57.003Z</time></trkpt><trkpt lat="45.464364770120426" lon="8.82607991893844"><ele>122.5</ele><time>2026-04-18T08:42:58.003Z</time></trkpt><trkpt lat="45.464276158445585" lon="8.825935072060119"><ele>122.0</ele><time>2026-04-18T08:42:59.003Z</time></trkpt><trkpt lat="45.46417927617958" lon="8.825789461545977"><ele>122.0</ele><time>2026-04-18T08:43:00.003Z</time></trkpt><trkpt lat="45.464085954602" lon="8.825632666093778"><ele>122.0</ele><time>2026-04-18T08:43:01.003Z</time></trkpt><trkpt lat="45.46398869065418" lon="8.82547477703477"><ele>122.0</ele><time>2026-04-18T08:43:02.003Z</time></trkpt><trkpt lat="45.463883045680554" lon="8.825312167758463"><ele>122.0</ele><time>2026-04-18T08:43:03.003Z</time></trkpt><trkpt lat="45.46378198166804" lon="8.8251462647078"><ele>122.0</ele><time>2026-04-18T08:43:04.003Z</time></trkpt><trkpt lat="45.463680645672476" lon="8.824977339165539"><ele>122.0</ele><time>2026-04-18T08:43:05.003Z</time></trkpt><trkpt lat="45.46357513161556" lon="8.824807733306576"><ele>122.0</ele><time>2026-04-18T08:43:06.003Z</time></trkpt><trkpt lat="45.46347983792746" lon="8.824650721798426"><ele>122.0</ele><time>2026-04-18T08:43:07.003Z</time></trkpt><trkpt lat="45.46339153321744" lon="8.824516382548754"><ele>122.0</ele><time>2026-04-18T08:43:08.003Z</time></trkpt><trkpt lat="45.46330296532017" lon="8.824378995244341"><ele>122.0</ele><time>2026-04-18T08:43:09.003Z</time></trkpt><trkpt lat="45.46323103483814" lon="8.824261601751646"><ele>122.0</ele><time>2026-04-18T08:43:10.003Z</time></trkpt><trkpt lat="45.463164256504406" lon="8.824149121630365"><ele>121.75</ele><time>2026-04-18T08:43:11.003Z</time></trkpt><trkpt lat="45.46308766435091" lon="8.824028958846108"><ele>121.5</ele><time>2026-04-18T08:43:12.003Z</time></trkpt><trkpt lat="45.46300009315058" lon="8.82389265572421"><ele>121.25</ele><time>2026-04-18T08:43:13.003Z</time></trkpt><trkpt lat="45.46291515358147" lon="8.823752369061815"><ele>121.0</ele><time>2026-04-18T08:43:14.003Z</time></trkpt><trkpt lat="45.46282407347176" lon="8.823608812088816"><ele>120.5</ele><time>2026-04-18T08:43:15.003Z</time></trkpt><trkpt lat="45.46273655458213" lon="8.823469441773572"><ele>120.0</ele><time>2026-04-18T08:43:16.003Z</time></trkpt><trkpt lat="45.4626537246731" lon="8.823343459737224"><ele>119.5</ele><time>2026-04-18T08:43:17.003Z</time></trkpt><trkpt lat="45.462570829916665" lon="8.823217525785898"><ele>119.0</ele><time>2026-04-18T08:43:18.003Z</time></trkpt><trkpt lat="45.46248602403827" lon="8.823086635995777"><ele>119.0</ele><time>2026-04-18T08:43:18.999Z</time></trkpt><trkpt lat="45.46240351771746" lon="8.82295768461426"><ele>119.0</ele><time>2026-04-18T08:43:19.999Z</time></trkpt><trkpt lat="45.46233265478543" lon="8.822805507010175"><ele>119.0</ele><time>2026-04-18T08:43:20.999Z</time></trkpt><trkpt lat="45.462246299819896" lon="8.82266216244249"><ele>119.0</ele><time>2026-04-18T08:43:21.999Z</time></trkpt><trkpt lat="45.46215408625263" lon="8.822514921719655"><ele>119.25</ele><time>2026-04-18T08:43:22.999Z</time></trkpt><trkpt lat="45.46206107039086" lon="8.822366057371076"><ele>119.5</ele><time>2026-04-18T08:43:23.999Z</time></trkpt><trkpt lat="45.46196687147993" lon="8.822214497942957"><ele>119.75</ele><time>2026-04-18T08:43:24.999Z</time></trkpt><trkpt lat="45.461876390881685" lon="8.822067571177138"><ele>120.0</ele><time>2026-04-18T08:43:25.999Z</time></trkpt><trkpt lat="45.461787699546214" lon="8.821922130103628"><ele>119.75</ele><time>2026-04-18T08:43:27Z</time></trkpt><trkpt lat="45.46169911157132" lon="8.82177496561988"><ele>119.5</ele><time>2026-04-18T08:43:28Z</time></trkpt><trkpt lat="45.461608884453106" lon="8.821625112381705"><ele>119.25</ele><time>2026-04-18T08:43:29Z</time></trkpt><trkpt lat="45.461519095771436" lon="8.821474410429014"><ele>119.0</ele><time>2026-04-18T08:43:30Z</time></trkpt><trkpt lat="45.461429931734514" lon="8.821324636649448"><ele>119.0</ele><time>2026-04-18T08:43:31Z</time></trkpt><trkpt lat="45.46133887197947" lon="8.821171678385495"><ele>119.0</ele><time>2026-04-18T08:43:32Z</time></trkpt><trkpt lat="45.46124802858556" lon="8.821019980829469"><ele>119.0</ele><time>2026-04-18T08:43:33Z</time></trkpt><trkpt lat="45.46115634414452" lon="8.820867361591407"><ele>119.0</ele><time>2026-04-18T08:43:34Z</time></trkpt><trkpt lat="45.46105426368643" lon="8.820738693783506"><ele>118.5</ele><time>2026-04-18T08:43:35Z</time></trkpt><trkpt lat="45.460972014592656" lon="8.820606969785477"><ele>118.0</ele><time>2026-04-18T08:43:36Z</time></trkpt><trkpt lat="45.460889920004256" lon="8.8204726022651"><ele>117.5</ele><time>2026-04-18T08:43:37Z</time></trkpt><trkpt lat="45.460832991611746" lon="8.82030312707275"><ele>117.0</ele><time>2026-04-18T08:43:38Z</time></trkpt><trkpt lat="45.46078680234372" lon="8.820146630607297"><ele>117.0</ele><time>2026-04-18T08:43:39Z</time></trkpt><trkpt lat="45.460756129884494" lon="8.819987824688406"><ele>117.0</ele><time>2026-04-18T08:43:40Z</time></trkpt><trkpt lat="45.46071606828684" lon="8.819813451888695"><ele>117.0</ele><time>2026-04-18T08:43:41Z</time></trkpt><trkpt lat="45.46069677528926" lon="8.819620997526897"><ele>117.0</ele><time>2026-04-18T08:43:42Z</time></trkpt><trkpt lat="45.46067684016448" lon="8.819423034426226"><ele>116.75</ele><time>2026-04-18T08:43:43Z</time></trkpt><trkpt lat="45.4606571788556" lon="8.819228595754257"><ele>116.5</ele><time>2026-04-18T08:43:44Z</time></trkpt><trkpt lat="45.46063814999732" lon="8.819045092698445"><ele>116.25</ele><time>2026-04-18T08:43:45Z</time></trkpt><trkpt lat="45.46061834837739" lon="8.818876747115823"><ele>116.0</ele><time>2026-04-18T08:43:46Z</time></trkpt><trkpt lat="45.46060336045918" lon="8.81872382663168"><ele>116.0</ele><time>2026-04-18T08:43:47Z</time></trkpt><trkpt lat="45.46059125004218" lon="8.81858393641324"><ele>116.0</ele><time>2026-04-18T08:43:48Z</time></trkpt><trkpt lat="45.46058040786907" lon="8.818449429472214"><ele>116.0</ele><time>2026-04-18T08:43:49Z</time></trkpt><trkpt lat="45.460570837543834" lon="8.818322805286503"><ele>116.0</ele><time>2026-04-18T08:43:50Z</time></trkpt><trkpt lat="45.460559896705796" lon="8.818193614062329"><ele>116.0</ele><time>2026-04-18T08:43:51Z</time></trkpt><trkpt lat="45.460545513008924" lon="8.818063802363373"><ele>116.33333333333333</ele><time>2026-04-18T08:43:52Z</time></trkpt><trkpt lat="45.46052823833648" lon="8.817939323699779"><ele>116.66666666666666</ele><time>2026-04-18T08:43:53Z</time></trkpt><trkpt lat="45.46051782309012" lon="8.817816294643361"><ele>117.0</ele><time>2026-04-18T08:43:54.001Z</time></trkpt><trkpt lat="45.46050358972642" lon="8.817695093682067"><ele>117.33333333333334</ele><time>2026-04-18T08:43:55.001Z</time></trkpt><trkpt lat="45.46049830101579" lon="8.817590700968072"><ele>117.66666666666667</ele><time>2026-04-18T08:43:56.001Z</time></trkpt><trkpt lat="45.46048569524555" lon="8.817494442850874"><ele>118.0</ele><time>2026-04-18T08:43:57.001Z</time></trkpt><trkpt lat="45.46047479885698" lon="8.817364903257296"><ele>118.0</ele><time>2026-04-18T08:43:59.001Z</time></trkpt><trkpt lat="45.46049608449162" lon="8.817478302832056"><ele>118.00000000000001</ele><time>2026-04-18T08:44:12.001Z</time></trkpt><trkpt lat="45.460516139106566" lon="8.817707730640786"><ele>118.00000000000001</ele><time>2026-04-18T08:44:14.001Z</time></trkpt><trkpt lat="45.46052880175091" lon="8.817834360243623"><ele>118.0</ele><time>2026-04-18T08:44:15.001Z</time></trkpt><trkpt lat="45.46054543809513" lon="8.817958610057719"><ele>118.0</ele><time>2026-04-18T08:44:16.001Z</time></trkpt><trkpt lat="45.460559967719206" lon="8.81809852035182"><ele>118.0</ele><time>2026-04-18T08:44:17.001Z</time></trkpt><trkpt lat="45.46057509694995" lon="8.818244204809275"><ele>118.00000000000001</ele><time>2026-04-18T08:44:18.001Z</time></trkpt><trkpt lat="45.46058868429751" lon="8.818375039177251"><ele>118.00000000000001</ele><time>2026-04-18T08:44:19.001Z</time></trkpt><trkpt lat="45.46059836092959" lon="8.818487123184642"><ele>118.0</ele><time>2026-04-18T08:44:20.001Z</time></trkpt><trkpt lat="45.46060733700129" lon="8.818580895084573"><ele>118.0</ele><time>2026-04-18T08:44:21.001Z</time></trkpt><trkpt lat="45.46062071647341" lon="8.818736322755592"><ele>117.5</ele><time>2026-04-18T08:44:23.001Z</time></trkpt><trkpt lat="45.46063277519261" lon="8.818878328140595"><ele>117.0</ele><time>2026-04-18T08:44:25.002Z</time></trkpt><trkpt lat="45.46047796690368" lon="8.818846323794011"><ele>116.5</ele><time>2026-04-18T08:44:31.002Z</time></trkpt><trkpt lat="45.460362406801174" lon="8.818761287600962"><ele>116.0</ele><time>2026-04-18T08:44:33.002Z</time></trkpt><trkpt lat="45.46028998912637" lon="8.818712244348331"><ele>115.99999999999999</ele><time>2026-04-18T08:44:34.002Z</time></trkpt><trkpt lat="45.46021788736388" lon="8.818667020151164"><ele>116.0</ele><time>2026-04-18T08:44:35.002Z</time></trkpt><trkpt lat="45.460133433579124" lon="8.81861475319017"><ele>116.0</ele><time>2026-04-18T08:44:36.002Z</time></trkpt><trkpt lat="45.460060243265595" lon="8.818567322539748"><ele>116.0</ele><time>2026-04-18T08:44:37.002Z</time></trkpt><trkpt lat="45.460004941621115" lon="8.818520401580285"><ele>115.99999999999999</ele><time>2026-04-18T08:44:38.002Z</time></trkpt><trkpt lat="45.459946677174074" lon="8.818396797702338"><ele>116.0</ele><time>2026-04-18T08:44:40.002Z</time></trkpt><trkpt lat="45.459922781443034" lon="8.818208828799722"><ele>116.33333333333333</ele><time>2026-04-18T08:44:42.002Z</time></trkpt><trkpt lat="45.45988950023929" lon="8.81808799726185"><ele>116.66666666666666</ele><time>2026-04-18T08:44:43.002Z</time></trkpt><trkpt lat="45.4598835530516" lon="8.817953536230922"><ele>117.0</ele><time>2026-04-18T08:44:44.002Z</time></trkpt><trkpt lat="45.459866210693235" lon="8.817859871886606"><ele>117.33333333333334</ele><time>2026-04-18T08:44:45.002Z</time></trkpt><trkpt lat="45.459841926204405" lon="8.8177628481334"><ele>117.66666666666667</ele><time>2026-04-18T08:44:46.002Z</time></trkpt><trkpt lat="45.45979974657268" lon="8.81766572361818"><ele>118.0</ele><time>2026-04-18T08:44:47.002Z</time></trkpt><trkpt lat="45.45977327214067" lon="8.817554538496454"><ele>117.83333333333334</ele><time>2026-04-18T08:44:48.002Z</time></trkpt><trkpt lat="45.45973641543542" lon="8.817446448291"><ele>117.66666666666667</ele><time>2026-04-18T08:44:49.002Z</time></trkpt><trkpt lat="45.45969656542728" lon="8.817331608966038"><ele>117.5</ele><time>2026-04-18T08:44:50.002Z</time></trkpt><trkpt lat="45.45965392180704" lon="8.817208719930479"><ele>117.33333333333334</ele><time>2026-04-18T08:44:51.002Z</time></trkpt><trkpt lat="45.45960163465293" lon="8.817104771062228"><ele>117.16666666666667</ele><time>2026-04-18T08:44:52.002Z</time></trkpt><trkpt lat="45.45958325443671" lon="8.817001669313875"><ele>117.0</ele><time>2026-04-18T08:44:53.002Z</time></trkpt><trkpt lat="45.459532408601376" lon="8.816903532101762"><ele>117.0</ele><time>2026-04-18T08:44:54.002Z</time></trkpt><trkpt lat="45.45949930444229" lon="8.816799151362662"><ele>117.0</ele><time>2026-04-18T08:44:55.002Z</time></trkpt><trkpt lat="45.45946574722364" lon="8.816692066265146"><ele>117.0</ele><time>2026-04-18T08:44:56.002Z</time></trkpt><trkpt lat="45.45943431237455" lon="8.81659461799607"><ele>117.0</ele><time>2026-04-18T08:44:57.003Z</time></trkpt><trkpt lat="45.45940361642137" lon="8.816506652058859"><ele>117.0</ele><time>2026-04-18T08:44:58.003Z</time></trkpt><trkpt lat="45.459372554208635" lon="8.816422768091792"><ele>117.0</ele><time>2026-04-18T08:44:59.003Z</time></trkpt><trkpt lat="45.459316776159966" lon="8.816268320193709"><ele>117.0</ele><time>2026-04-18T08:45:01.003Z</time></trkpt><trkpt lat="45.45926629349475" lon="8.816110785618664"><ele>116.99999999999999</ele><time>2026-04-18T08:45:03.003Z</time></trkpt><trkpt lat="45.45921677116688" lon="8.81596815568784"><ele>116.99999999999999</ele><time>2026-04-18T08:45:05.003Z</time></trkpt><trkpt lat="45.459184527798406" lon="8.81581977423227"><ele>117.0</ele><time>2026-04-18T08:45:07.003Z</time></trkpt><trkpt lat="45.459153161377145" lon="8.815703863973551"><ele>117.0</ele><time>2026-04-18T08:45:09.003Z</time></trkpt><trkpt lat="45.459108616730056" lon="8.815578586601557"><ele>116.39999999999999</ele><time>2026-04-18T08:45:11.003Z</time></trkpt><trkpt lat="45.459097762085314" lon="8.8154338297742"><ele>115.79999999999998</ele><time>2026-04-18T08:45:13.003Z</time></trkpt><trkpt lat="45.45907756704119" lon="8.815293823036056"><ele>115.2</ele><time>2026-04-18T08:45:15.003Z</time></trkpt><trkpt lat="45.45906264889071" lon="8.815131985023417"><ele>114.6</ele><time>2026-04-18T08:45:17.003Z</time></trkpt><trkpt lat="45.459054304464" lon="8.814967295173275"><ele>114.0</ele><time>2026-04-18T08:45:19.003Z</time></trkpt><trkpt lat="45.459047643875266" lon="8.814852224054555"><ele>113.83333333333333</ele><time>2026-04-18T08:45:21.003Z</time></trkpt><trkpt lat="45.45902245833044" lon="8.814739903408492"><ele>113.66666666666666</ele><time>2026-04-18T08:45:23.003Z</time></trkpt><trkpt lat="45.45890205887478" lon="8.814742836518622"><ele>113.5</ele><time>2026-04-18T08:45:24.999Z</time></trkpt><trkpt lat="45.458845282100505" lon="8.814816694813334"><ele>113.33333333333333</ele><time>2026-04-18T08:45:25.999Z</time></trkpt><trkpt lat="45.45878700824997" lon="8.814851473325835"><ele>113.16666666666666</ele><time>2026-04-18T08:45:26.999Z</time></trkpt><trkpt lat="45.458712552485785" lon="8.814892528737142"><ele>113.0</ele><time>2026-04-18T08:45:27.999Z</time></trkpt><trkpt lat="45.45863882660387" lon="8.814953571057744"><ele>112.80000000000001</ele><time>2026-04-18T08:45:28.999Z</time></trkpt><trkpt lat="45.458552239055884" lon="8.814973047591286"><ele>112.60000000000001</ele><time>2026-04-18T08:45:29.999Z</time></trkpt><trkpt lat="45.45845653147402" lon="8.81502166996951"><ele>112.39999999999999</ele><time>2026-04-18T08:45:30.999Z</time></trkpt><trkpt lat="45.458358108419844" lon="8.815071671948"><ele>112.19999999999999</ele><time>2026-04-18T08:45:31.999Z</time></trkpt><trkpt lat="45.45826597059947" lon="8.815118480741347"><ele>112.0</ele><time>2026-04-18T08:45:32.999Z</time></trkpt><trkpt lat="45.458195849787494" lon="8.815178810197592"><ele>112.00000000000001</ele><time>2026-04-18T08:45:33.999Z</time></trkpt><trkpt lat="45.45812428469257" lon="8.815211353269472"><ele>112.0</ele><time>2026-04-18T08:45:34.999Z</time></trkpt><trkpt lat="45.458064046409085" lon="8.815242621023051"><ele>112.0</ele><time>2026-04-18T08:45:36Z</time></trkpt><trkpt lat="45.45799042547623" lon="8.815278294332003"><ele>112.0</ele><time>2026-04-18T08:45:37Z</time></trkpt><trkpt lat="45.45791362912751" lon="8.815314147792249"><ele>112.00000000000001</ele><time>2026-04-18T08:45:38Z</time></trkpt><trkpt lat="45.457838487689216" lon="8.81532294337642"><ele>112.0</ele><time>2026-04-18T08:45:39Z</time></trkpt><trkpt lat="45.45771913352251" lon="8.815364804811633"><ele>111.66666666666667</ele><time>2026-04-18T08:45:41Z</time></trkpt><trkpt lat="45.4575978335354" lon="8.815360741423682"><ele>111.33333333333334</ele><time>2026-04-18T08:45:43Z</time></trkpt><trkpt lat="45.45753546846106" lon="8.815373063200658"><ele>111.0</ele><time>2026-04-18T08:45:44Z</time></trkpt><trkpt lat="45.45741427316341" lon="8.815390847998334"><ele>110.66666666666666</ele><time>2026-04-18T08:45:46Z</time></trkpt><trkpt lat="45.45734964088937" lon="8.815376450797574"><ele>110.33333333333333</ele><time>2026-04-18T08:45:47Z</time></trkpt><trkpt lat="45.45728697878368" lon="8.81534362049564"><ele>110.0</ele><time>2026-04-18T08:45:48Z</time></trkpt><trkpt lat="45.45722727660639" lon="8.815314861409629"><ele>109.99999999999999</ele><time>2026-04-18T08:45:49Z</time></trkpt><trkpt lat="45.457157453858734" lon="8.815281226845944"><ele>110.0</ele><time>2026-04-18T08:45:50Z</time></trkpt><trkpt lat="45.457093407852255" lon="8.815247606830827"><ele>110.0</ele><time>2026-04-18T08:45:51Z</time></trkpt><trkpt lat="45.45703035379954" lon="8.815213233128656"><ele>110.0</ele><time>2026-04-18T08:45:52Z</time></trkpt><trkpt lat="45.45692436072813" lon="8.815138958836165"><ele>109.99999999999999</ele><time>2026-04-18T08:45:54Z</time></trkpt><trkpt lat="45.4568091582169" lon="8.815105080911502"><ele>110.0</ele><time>2026-04-18T08:45:56Z</time></trkpt><trkpt lat="45.45674422648253" lon="8.81510566829343"><ele>109.8</ele><time>2026-04-18T08:45:57Z</time></trkpt><trkpt lat="45.45663928540164" lon="8.81512487411944"><ele>109.6</ele><time>2026-04-18T08:45:59Z</time></trkpt><trkpt lat="45.456527997343336" lon="8.815161952463873"><ele>109.4</ele><time>2026-04-18T08:46:01.001Z</time></trkpt><trkpt lat="45.45647101018204" lon="8.815200372716337"><ele>109.2</ele><time>2026-04-18T08:46:02.001Z</time></trkpt><trkpt lat="45.45636354244331" lon="8.815241755648632"><ele>109.0</ele><time>2026-04-18T08:46:04.001Z</time></trkpt><trkpt lat="45.45624930949461" lon="8.815251376549963"><ele>109.6</ele><time>2026-04-18T08:46:06.001Z</time></trkpt><trkpt lat="45.456153951083834" lon="8.8152820757232"><ele>110.2</ele><time>2026-04-18T08:46:08.001Z</time></trkpt><trkpt lat="45.45610067519622" lon="8.815338243791524"><ele>110.79999999999998</ele><time>2026-04-18T08:46:09.001Z</time></trkpt><trkpt lat="45.45600225715672" lon="8.815404729870956"><ele>111.39999999999999</ele><time>2026-04-18T08:46:11.001Z</time></trkpt><trkpt lat="45.45590719239246" lon="8.815488296891898"><ele>112.0</ele><time>2026-04-18T08:46:13.001Z</time></trkpt><trkpt lat="45.45581017091468" lon="8.815575856998318"><ele>112.0</ele><time>2026-04-18T08:46:15.001Z</time></trkpt><trkpt lat="45.455715986844886" lon="8.81566416938418"><ele>111.99999999999999</ele><time>2026-04-18T08:46:17.001Z</time></trkpt><trkpt lat="45.45561988095667" lon="8.815724198131441"><ele>111.99999999999999</ele><time>2026-04-18T08:46:19.001Z</time></trkpt><trkpt lat="45.45555586807705" lon="8.815794365726761"><ele>112.0</ele><time>2026-04-18T08:46:21.001Z</time></trkpt><trkpt lat="45.455493258150625" lon="8.815839176222141"><ele>112.0</ele><time>2026-04-18T08:46:23.001Z</time></trkpt><trkpt lat="45.45542251284956" lon="8.815903854354808"><ele>112.33333333333334</ele><time>2026-04-18T08:46:25.001Z</time></trkpt><trkpt lat="45.45535856317385" lon="8.815972384256481"><ele>112.66666666666667</ele><time>2026-04-18T08:46:27.001Z</time></trkpt><trkpt lat="45.455290486222296" lon="8.815958558581475"><ele>113.0</ele><time>2026-04-18T08:46:30.001Z</time></trkpt><trkpt lat="45.455211948689815" lon="8.81594291881103"><ele>113.33333333333334</ele><time>2026-04-18T08:46:33.002Z</time></trkpt><trkpt lat="45.45513879275442" lon="8.815921393202622"><ele>113.66666666666667</ele><time>2026-04-18T08:46:36.002Z</time></trkpt><trkpt lat="45.4550556017786" lon="8.815937685129542"><ele>114.0</ele><time>2026-04-18T08:46:38.002Z</time></trkpt><trkpt lat="45.454996622344765" lon="8.815975283047518"><ele>113.5</ele><time>2026-04-18T08:46:39.002Z</time></trkpt><trkpt lat="45.45493806304122" lon="8.816010418212585"><ele>113.0</ele><time>2026-04-18T08:46:40.002Z</time></trkpt><trkpt lat="45.4548347687598" lon="8.816064872844844"><ele>112.5</ele><time>2026-04-18T08:46:42.002Z</time></trkpt><trkpt lat="45.45477566257997" lon="8.816106793678752"><ele>112.0</ele><time>2026-04-18T08:46:43.002Z</time></trkpt><trkpt lat="45.45470725370015" lon="8.816145933252958"><ele>111.5</ele><time>2026-04-18T08:46:44.002Z</time></trkpt><trkpt lat="45.45462363426376" lon="8.816167914858148"><ele>111.0</ele><time>2026-04-18T08:46:45.002Z</time></trkpt><trkpt lat="45.454562318406786" lon="8.816218540655784"><ele>111.0</ele><time>2026-04-18T08:46:46.002Z</time></trkpt><trkpt lat="45.45449099770193" lon="8.81623149224123"><ele>111.0</ele><time>2026-04-18T08:46:47.002Z</time></trkpt><trkpt lat="45.45441476108465" lon="8.816268035070573"><ele>111.0</ele><time>2026-04-18T08:46:48.002Z</time></trkpt><trkpt lat="45.454339404813794" lon="8.816304155988968"><ele>111.0</ele><time>2026-04-18T08:46:49.002Z</time></trkpt><trkpt lat="45.45426170921335" lon="8.816341398198443"><ele>111.0</ele><time>2026-04-18T08:46:50.002Z</time></trkpt><trkpt lat="45.4541879747774" lon="8.816376741696358"><ele>111.0</ele><time>2026-04-18T08:46:51.002Z</time></trkpt><trkpt lat="45.45411281914132" lon="8.816412766431107"><ele>111.0</ele><time>2026-04-18T08:46:52.002Z</time></trkpt><trkpt lat="45.45404104541255" lon="8.816447001832387"><ele>111.0</ele><time>2026-04-18T08:46:53.002Z</time></trkpt><trkpt lat="45.45395528162422" lon="8.816503984664982"><ele>111.0</ele><time>2026-04-18T08:46:54.002Z</time></trkpt><trkpt lat="45.45386387674419" lon="8.816529835002731"><ele>111.0</ele><time>2026-04-18T08:46:55.002Z</time></trkpt><trkpt lat="45.45378874092166" lon="8.816564924707201"><ele>111.0</ele><time>2026-04-18T08:46:56.002Z</time></trkpt><trkpt lat="45.45371162119779" lon="8.816601007692041"><ele>111.0</ele><time>2026-04-18T08:46:57.002Z</time></trkpt><trkpt lat="45.453632645437246" lon="8.816637959064492"><ele>110.83333333333333</ele><time>2026-04-18T08:46:58.002Z</time></trkpt><trkpt lat="45.45357238637876" lon="8.816689386877002"><ele>110.66666666666666</ele><time>2026-04-18T08:46:59.002Z</time></trkpt><trkpt lat="45.453470250724834" lon="8.816715082581705"><ele>110.5</ele><time>2026-04-18T08:47:01.002Z</time></trkpt><trkpt lat="45.45339870286852" lon="8.816750583164056"><ele>110.33333333333333</ele><time>2026-04-18T08:47:03.002Z</time></trkpt><trkpt lat="45.4533360288616" lon="8.816803511121893"><ele>110.16666666666666</ele><time>2026-04-18T08:47:13.003Z</time></trkpt><trkpt lat="45.45325372725738" lon="8.816852291183004"><ele>110.0</ele><time>2026-04-18T08:47:15.003Z</time></trkpt><trkpt lat="45.453178337613465" lon="8.816857502323755"><ele>110.66666666666666</ele><time>2026-04-18T08:47:24.003Z</time></trkpt><trkpt lat="45.45314112243626" lon="8.816729924849216"><ele>111.33333333333333</ele><time>2026-04-18T08:47:26.003Z</time></trkpt><trkpt lat="45.453126552969934" lon="8.816629450411197"><ele>112.0</ele><time>2026-04-18T08:47:27.003Z</time></trkpt><trkpt lat="45.453106605444844" lon="8.816518036236559"><ele>112.66666666666666</ele><time>2026-04-18T08:47:28.003Z</time></trkpt><trkpt lat="45.45308234049328" lon="8.816392227392718"><ele>113.33333333333333</ele><time>2026-04-18T08:47:29.003Z</time></trkpt><trkpt lat="45.45305797279539" lon="8.81625341446662"><ele>114.0</ele><time>2026-04-18T08:47:30.003Z</time></trkpt><trkpt lat="45.45302986179684" lon="8.81610798095793"><ele>114.0</ele><time>2026-04-18T08:47:31Z</time></trkpt><trkpt lat="45.453002019035594" lon="8.815959772805305"><ele>114.0</ele><time>2026-04-18T08:47:32Z</time></trkpt><trkpt lat="45.45297761285326" lon="8.815810843327393"><ele>114.0</ele><time>2026-04-18T08:47:33Z</time></trkpt><trkpt lat="45.45295313375174" lon="8.81566071776784"><ele>114.0</ele><time>2026-04-18T08:47:34Z</time></trkpt><trkpt lat="45.452928608221164" lon="8.815508834641228"><ele>114.0</ele><time>2026-04-18T08:47:35Z</time></trkpt><trkpt lat="45.45290359225232" lon="8.815355258636396"><ele>113.6</ele><time>2026-04-18T08:47:36Z</time></trkpt><trkpt lat="45.45287858781019" lon="8.815202573304736"><ele>113.2</ele><time>2026-04-18T08:47:37Z</time></trkpt><trkpt lat="45.45285425217316" lon="8.815051844815981"><ele>112.79999999999998</ele><time>2026-04-18T08:47:38Z</time></trkpt><trkpt lat="45.45283122585558" lon="8.81490094480745"><ele>112.39999999999999</ele><time>2026-04-18T08:47:39Z</time></trkpt><trkpt lat="45.45280745229185" lon="8.814747219796807"><ele>112.0</ele><time>2026-04-18T08:47:40Z</time></trkpt><trkpt lat="45.45278115351036" lon="8.814590235946419"><ele>112.0</ele><time>2026-04-18T08:47:41Z</time></trkpt><trkpt lat="45.45275566314449" lon="8.814431474994255"><ele>112.0</ele><time>2026-04-18T08:47:42Z</time></trkpt><trkpt lat="45.4527326488893" lon="8.814270207602453"><ele>112.0</ele><time>2026-04-18T08:47:43Z</time></trkpt><trkpt lat="45.45270731006002" lon="8.81410780833429"><ele>112.0</ele><time>2026-04-18T08:47:44Z</time></trkpt><trkpt lat="45.45267747491306" lon="8.813943972173977"><ele>112.0</ele><time>2026-04-18T08:47:45Z</time></trkpt><trkpt lat="45.452645777283635" lon="8.8137813516197"><ele>112.0</ele><time>2026-04-18T08:47:46Z</time></trkpt><trkpt lat="45.45261821164559" lon="8.813615421902217"><ele>112.0</ele><time>2026-04-18T08:47:47Z</time></trkpt><trkpt lat="45.45259232678811" lon="8.813445512080737"><ele>112.0</ele><time>2026-04-18T08:47:48Z</time></trkpt><trkpt lat="45.4525677797258" lon="8.813270809714911"><ele>112.5</ele><time>2026-04-18T08:47:49Z</time></trkpt><trkpt lat="45.45253964482689" lon="8.813092603284955"><ele>113.0</ele><time>2026-04-18T08:47:50Z</time></trkpt><trkpt lat="45.452510121258854" lon="8.812912789735536"><ele>113.5</ele><time>2026-04-18T08:47:51Z</time></trkpt><trkpt lat="45.45248138546431" lon="8.812736885413923"><ele>114.0</ele><time>2026-04-18T08:47:52Z</time></trkpt><trkpt lat="45.45245438859584" lon="8.812560770242104"><ele>114.25</ele><time>2026-04-18T08:47:53Z</time></trkpt><trkpt lat="45.45242516856067" lon="8.812385681811529"><ele>114.5</ele><time>2026-04-18T08:47:54Z</time></trkpt><trkpt lat="45.45240066782297" lon="8.812202838422984"><ele>114.75</ele><time>2026-04-18T08:47:55Z</time></trkpt><trkpt lat="45.45237466505716" lon="8.812024881456024"><ele>115.0</ele><time>2026-04-18T08:47:56Z</time></trkpt><trkpt lat="45.45234640842871" lon="8.811852483584936"><ele>115.0</ele><time>2026-04-18T08:47:57Z</time></trkpt><trkpt lat="45.452318217254394" lon="8.81167260542239"><ele>115.0</ele><time>2026-04-18T08:47:58Z</time></trkpt><trkpt lat="45.45229216886655" lon="8.811491464889652"><ele>115.0</ele><time>2026-04-18T08:47:59Z</time></trkpt><trkpt lat="45.452261694293576" lon="8.811309122416032"><ele>115.0</ele><time>2026-04-18T08:48:00.001Z</time></trkpt><trkpt lat="45.45223046817367" lon="8.81112825025381"><ele>115.5</ele><time>2026-04-18T08:48:01.001Z</time></trkpt><trkpt lat="45.452200286695735" lon="8.810943768511416"><ele>116.0</ele><time>2026-04-18T08:48:02.001Z</time></trkpt><trkpt lat="45.452172061954094" lon="8.810757150584788"><ele>116.5</ele><time>2026-04-18T08:48:03.001Z</time></trkpt><trkpt lat="45.45214187254451" lon="8.810571527388957"><ele>117.0</ele><time>2026-04-18T08:48:04.001Z</time></trkpt><trkpt lat="45.45211289001759" lon="8.81037920378563"><ele>117.0</ele><time>2026-04-18T08:48:05.001Z</time></trkpt><trkpt lat="45.45208123524082" lon="8.810185247084716"><ele>117.0</ele><time>2026-04-18T08:48:06.001Z</time></trkpt><trkpt lat="45.45204968941119" lon="8.80998980849855"><ele>117.0</ele><time>2026-04-18T08:48:07.001Z</time></trkpt><trkpt lat="45.45201818932216" lon="8.809786967858747"><ele>117.0</ele><time>2026-04-18T08:48:08.001Z</time></trkpt><trkpt lat="45.45198168332745" lon="8.809581941868954"><ele>117.0</ele><time>2026-04-18T08:48:09.001Z</time></trkpt><trkpt lat="45.451944194490586" lon="8.80937659937026"><ele>117.0</ele><time>2026-04-18T08:48:10.001Z</time></trkpt><trkpt lat="45.45190453511647" lon="8.809167058082645"><ele>117.0</ele><time>2026-04-18T08:48:11.001Z</time></trkpt><trkpt lat="45.45186239715681" lon="8.808959300091061"><ele>116.66666666666666</ele><time>2026-04-18T08:48:12.001Z</time></trkpt><trkpt lat="45.451820759577764" lon="8.808753742903068"><ele>116.33333333333333</ele><time>2026-04-18T08:48:13.001Z</time></trkpt><trkpt lat="45.45177892387101" lon="8.808548800032204"><ele>116.0</ele><time>2026-04-18T08:48:14.001Z</time></trkpt><trkpt lat="45.45173448528323" lon="8.808340242995117"><ele>115.0</ele><time>2026-04-18T08:48:15.001Z</time></trkpt><trkpt lat="45.451689411373245" lon="8.808130493341675"><ele>114.0</ele><time>2026-04-18T08:48:16.001Z</time></trkpt><trkpt lat="45.45164265987725" lon="8.807919502550284"><ele>113.0</ele><time>2026-04-18T08:48:17.001Z</time></trkpt><trkpt lat="45.451593749109534" lon="8.807703463925604"><ele>113.33333333333333</ele><time>2026-04-18T08:48:18.001Z</time></trkpt><trkpt lat="45.45154505732324" lon="8.807484225201993"><ele>113.66666666666666</ele><time>2026-04-18T08:48:19.001Z</time></trkpt><trkpt lat="45.45149316578092" lon="8.807264229643899"><ele>114.0</ele><time>2026-04-18T08:48:20.001Z</time></trkpt><trkpt lat="45.45144035823393" lon="8.807043758822092"><ele>113.66666666666666</ele><time>2026-04-18T08:48:21.001Z</time></trkpt><trkpt lat="45.451390382293475" lon="8.806819097726713"><ele>113.33333333333333</ele><time>2026-04-18T08:48:22.001Z</time></trkpt><trkpt lat="45.45133892091046" lon="8.80659667767597"><ele>113.0</ele><time>2026-04-18T08:48:23.001Z</time></trkpt><trkpt lat="45.45129096802232" lon="8.80636873995075"><ele>111.66666666666666</ele><time>2026-04-18T08:48:24.001Z</time></trkpt><trkpt lat="45.45123974553942" lon="8.806145973879625"><ele>110.33333333333334</ele><time>2026-04-18T08:48:25.001Z</time></trkpt><trkpt lat="45.45118788531405" lon="8.805925389269301"><ele>109.0</ele><time>2026-04-18T08:48:26.001Z</time></trkpt><trkpt lat="45.45113441947" lon="8.80570291692046"><ele>109.0</ele><time>2026-04-18T08:48:27.001Z</time></trkpt><trkpt lat="45.45107885651955" lon="8.805484590237258"><ele>109.0</ele><time>2026-04-18T08:48:28.001Z</time></trkpt><trkpt lat="45.45102671380173" lon="8.805260311537227"><ele>109.0</ele><time>2026-04-18T08:48:29.001Z</time></trkpt><trkpt lat="45.450977678261644" lon="8.805037251746073"><ele>109.0</ele><time>2026-04-18T08:48:30.001Z</time></trkpt><trkpt lat="45.45092568541716" lon="8.804814869230322"><ele>109.0</ele><time>2026-04-18T08:48:31.001Z</time></trkpt><trkpt lat="45.450873386264966" lon="8.804593381714888"><ele>109.0</ele><time>2026-04-18T08:48:32.002Z</time></trkpt><trkpt lat="45.4508174040634" lon="8.804360465920011"><ele>109.0</ele><time>2026-04-18T08:48:33.002Z</time></trkpt><trkpt lat="45.450759187454054" lon="8.804125020945214"><ele>109.0</ele><time>2026-04-18T08:48:34.002Z</time></trkpt><trkpt lat="45.4507003908085" lon="8.80388455358544"><ele>109.0</ele><time>2026-04-18T08:48:35.002Z</time></trkpt><trkpt lat="45.45065734672005" lon="8.803635724373047"><ele>109.33333333333334</ele><time>2026-04-18T08:48:36.002Z</time></trkpt><trkpt lat="45.45058927809809" lon="8.803408046927979"><ele>109.66666666666666</ele><time>2026-04-18T08:48:37.002Z</time></trkpt><trkpt lat="45.45053713614172" lon="8.803181326175524"><ele>110.0</ele><time>2026-04-18T08:48:38.002Z</time></trkpt><trkpt lat="45.45048730982198" lon="8.80295446937535"><ele>110.66666666666666</ele><time>2026-04-18T08:48:39.002Z</time></trkpt><trkpt lat="45.45043589783223" lon="8.802727903005016"><ele>111.33333333333334</ele><time>2026-04-18T08:48:40.002Z</time></trkpt><trkpt lat="45.45038494776458" lon="8.802507411271712"><ele>112.0</ele><time>2026-04-18T08:48:41.002Z</time></trkpt><trkpt lat="45.45032875489104" lon="8.80227748997787"><ele>112.66666666666667</ele><time>2026-04-18T08:48:42.002Z</time></trkpt><trkpt lat="45.45027263504854" lon="8.802050083157708"><ele>113.33333333333334</ele><time>2026-04-18T08:48:43.002Z</time></trkpt><trkpt lat="45.45021622935637" lon="8.801822456355927"><ele>114.0</ele><time>2026-04-18T08:48:44.002Z</time></trkpt><trkpt lat="45.450158196408026" lon="8.80159144714852"><ele>114.33333333333334</ele><time>2026-04-18T08:48:45.002Z</time></trkpt><trkpt lat="45.45009777482606" lon="8.801357145695219"><ele>114.66666666666667</ele><time>2026-04-18T08:48:46.002Z</time></trkpt><trkpt lat="45.45003836363568" lon="8.80113040222904"><ele>115.0</ele><time>2026-04-18T08:48:47.002Z</time></trkpt><trkpt lat="45.44997620113366" lon="8.800909347964506"><ele>114.33333333333334</ele><time>2026-04-18T08:48:48.002Z</time></trkpt><trkpt lat="45.4499143221499" lon="8.800693393498085"><ele>113.66666666666666</ele><time>2026-04-18T08:48:49.002Z</time></trkpt><trkpt lat="45.44985545078616" lon="8.800491499634692"><ele>113.0</ele><time>2026-04-18T08:48:50.002Z</time></trkpt><trkpt lat="45.44979508273574" lon="8.800297426565084"><ele>113.5</ele><time>2026-04-18T08:48:51.002Z</time></trkpt><trkpt lat="45.44975488126479" lon="8.800110074552913"><ele>114.0</ele><time>2026-04-18T08:48:52.002Z</time></trkpt><trkpt lat="45.44970178101424" lon="8.799937932221509"><ele>114.5</ele><time>2026-04-18T08:48:53.002Z</time></trkpt><trkpt lat="45.44965288784223" lon="8.799780902642212"><ele>115.0</ele><time>2026-04-18T08:48:54.002Z</time></trkpt><trkpt lat="45.449606915943654" lon="8.799633572704565"><ele>115.4</ele><time>2026-04-18T08:48:55.002Z</time></trkpt><trkpt lat="45.449571846937886" lon="8.79952144819841"><ele>115.8</ele><time>2026-04-18T08:48:56.002Z</time></trkpt><trkpt lat="45.44954365557039" lon="8.79943073548522"><ele>116.19999999999999</ele><time>2026-04-18T08:48:57.002Z</time></trkpt><trkpt lat="45.44951018659834" lon="8.799323010583128"><ele>116.6</ele><time>2026-04-18T08:48:59.002Z</time></trkpt><trkpt lat="45.44936293379408" lon="8.799396701693018"><ele>117.0</ele><time>2026-04-18T08:49:00.002Z</time></trkpt><trkpt lat="45.44925754945574" lon="8.799425599664255"><ele>117.0</ele><time>2026-04-18T08:49:02.002Z</time></trkpt><trkpt lat="45.44915392808054" lon="8.799442051598502"><ele>117.0</ele><time>2026-04-18T08:49:04.002Z</time></trkpt><trkpt lat="45.4490807394371" lon="8.799215130644413"><ele>117.0</ele><time>2026-04-18T08:49:06.003Z</time></trkpt><trkpt lat="45.44905170435403" lon="8.799101901639569"><ele>117.0</ele><time>2026-04-18T08:49:07.003Z</time></trkpt><trkpt lat="45.44901783863291" lon="8.798969834301083"><ele>117.0</ele><time>2026-04-18T08:49:08.003Z</time></trkpt><trkpt lat="45.44898161188021" lon="8.79882666565701"><ele>117.0</ele><time>2026-04-18T08:49:09.003Z</time></trkpt><trkpt lat="45.44894482438438" lon="8.798677701010817"><ele>117.0</ele><time>2026-04-18T08:49:10.003Z</time></trkpt><trkpt lat="45.44890522179854" lon="8.798514324479772"><ele>117.0</ele><time>2026-04-18T08:49:11.003Z</time></trkpt><trkpt lat="45.448865173739954" lon="8.798346724840963"><ele>117.0</ele><time>2026-04-18T08:49:12.003Z</time></trkpt><trkpt lat="45.44882416024156" lon="8.798175084941048"><ele>117.0</ele><time>2026-04-18T08:49:13.003Z</time></trkpt><trkpt lat="45.44878491668485" lon="8.79800842905133"><ele>117.0</ele><time>2026-04-18T08:49:14.003Z</time></trkpt><trkpt lat="45.448746267046445" lon="8.79784319535326"><ele>117.0</ele><time>2026-04-18T08:49:15.003Z</time></trkpt><trkpt lat="45.448708940591416" lon="8.797682385062153"><ele>116.5</ele><time>2026-04-18T08:49:16.003Z</time></trkpt><trkpt lat="45.44867051291173" lon="8.797514582137758"><ele>116.0</ele><time>2026-04-18T08:49:17.003Z</time></trkpt><trkpt lat="45.44863249165537" lon="8.797348553837308"><ele>115.5</ele><time>2026-04-18T08:49:18.003Z</time></trkpt><trkpt lat="45.44859441105382" lon="8.797182266422963"><ele>115.0</ele><time>2026-04-18T08:49:19.003Z</time></trkpt><trkpt lat="45.44855557343553" lon="8.797012673360003"><ele>115.0</ele><time>2026-04-18T08:49:20.003Z</time></trkpt><trkpt lat="45.44851838849534" lon="8.79685829979844"><ele>115.0</ele><time>2026-04-18T08:49:21.003Z</time></trkpt><trkpt lat="45.448490302946176" lon="8.796744915837568"><ele>115.0</ele><time>2026-04-18T08:49:22.003Z</time></trkpt><trkpt lat="45.44844954899085" lon="8.796580387884976"><ele>115.0</ele><time>2026-04-18T08:49:24.003Z</time></trkpt><trkpt lat="45.44842330418012" lon="8.796474435103617"><ele>115.0</ele><time>2026-04-18T08:49:25.003Z</time></trkpt><trkpt lat="45.44839081231241" lon="8.79637348933978"><ele>115.50000000000001</ele><time>2026-04-18T08:49:26.003Z</time></trkpt><trkpt lat="45.448381567764464" lon="8.796283326878118"><ele>116.0</ele><time>2026-04-18T08:49:27.003Z</time></trkpt><trkpt lat="45.44836220462082" lon="8.79619486149889"><ele>116.5</ele><time>2026-04-18T08:49:29.003Z</time></trkpt><trkpt lat="45.44833898726471" lon="8.796088789721685"><ele>117.0</ele><time>2026-04-18T08:49:45Z</time></trkpt><trkpt lat="45.448242838463365" lon="8.796097816105126"><ele>117.50000000000001</ele><time>2026-04-18T08:49:46Z</time></trkpt><trkpt lat="45.448187799790965" lon="8.795942482800974"><ele>118.0</ele><time>2026-04-18T08:49:48Z</time></trkpt><trkpt lat="45.448159730603315" lon="8.795838998511806"><ele>118.16666666666667</ele><time>2026-04-18T08:49:49Z</time></trkpt><trkpt lat="45.44813297045543" lon="8.795727572049026"><ele>118.33333333333334</ele><time>2026-04-18T08:49:50Z</time></trkpt><trkpt lat="45.44810637866955" lon="8.795613814294132"><ele>118.5</ele><time>2026-04-18T08:49:51Z</time></trkpt><trkpt lat="45.44808181242864" lon="8.795511529416787"><ele>118.66666666666666</ele><time>2026-04-18T08:49:52Z</time></trkpt><trkpt lat="45.44805884884985" lon="8.795420592431865"><ele>118.83333333333333</ele><time>2026-04-18T08:49:53Z</time></trkpt><trkpt lat="45.44803505818936" lon="8.795332039596248"><ele>119.0</ele><time>2026-04-18T08:49:54Z</time></trkpt><trkpt lat="45.44797738309037" lon="8.795164840379353"><ele>119.25</ele><time>2026-04-18T08:49:56Z</time></trkpt><trkpt lat="45.4479422729877" lon="8.795058018913439"><ele>119.5</ele><time>2026-04-18T08:49:57Z</time></trkpt><trkpt lat="45.44787687327732" lon="8.795007080187952"><ele>119.75</ele><time>2026-04-18T08:49:58Z</time></trkpt><trkpt lat="45.44802031386702" lon="8.794698034177541"><ele>120.0</ele><time>2026-04-18T08:49:59Z</time></trkpt><trkpt lat="45.447990917996655" lon="8.794537890336148"><ele>120.0</ele><time>2026-04-18T08:50:00Z</time></trkpt><trkpt lat="45.4479456683988" lon="8.794363107761715"><ele>120.0</ele><time>2026-04-18T08:50:01Z</time></trkpt><trkpt lat="45.44789172470368" lon="8.794179433731625"><ele>120.0</ele><time>2026-04-18T08:50:02Z</time></trkpt><trkpt lat="45.44783809592752" lon="8.793986071220223"><ele>120.0</ele><time>2026-04-18T08:50:03Z</time></trkpt><trkpt lat="45.44779247097204" lon="8.79378841354574"><ele>120.0</ele><time>2026-04-18T08:50:04.001Z</time></trkpt><trkpt lat="45.44774906002648" lon="8.793585385690209"><ele>120.0</ele><time>2026-04-18T08:50:05.001Z</time></trkpt><trkpt lat="45.44769958815767" lon="8.793376064461354"><ele>120.0</ele><time>2026-04-18T08:50:06.001Z</time></trkpt><trkpt lat="45.447646110418425" lon="8.793158699578195"><ele>121.0</ele><time>2026-04-18T08:50:07.001Z</time></trkpt><trkpt lat="45.44759031708181" lon="8.792936680545266"><ele>122.0</ele><time>2026-04-18T08:50:08.001Z</time></trkpt><trkpt lat="45.44754014327756" lon="8.792710006305086"><ele>123.0</ele><time>2026-04-18T08:50:09.001Z</time></trkpt><trkpt lat="45.447489296584095" lon="8.792479829955367"><ele>124.33333333333334</ele><time>2026-04-18T08:50:10.001Z</time></trkpt><trkpt lat="45.44743567079018" lon="8.792248567305055"><ele>125.66666666666667</ele><time>2026-04-18T08:50:11.001Z</time></trkpt><trkpt lat="45.44738219259155" lon="8.79202022351313"><ele>127.0</ele><time>2026-04-18T08:50:12.001Z</time></trkpt><trkpt lat="45.447327582633626" lon="8.791781633458063"><ele>128.66666666666669</ele><time>2026-04-18T08:50:13.001Z</time></trkpt><trkpt lat="45.4472687770712" lon="8.79154890923938"><ele>130.33333333333334</ele><time>2026-04-18T08:50:14.001Z</time></trkpt><trkpt lat="45.44722208866243" lon="8.791329704097373"><ele>132.0</ele><time>2026-04-18T08:50:15.001Z</time></trkpt><trkpt lat="45.4471744354497" lon="8.791140077205474"><ele>132.5</ele><time>2026-04-18T08:50:16.001Z</time></trkpt><trkpt lat="45.44713500427178" lon="8.790967095788552"><ele>133.0</ele><time>2026-04-18T08:50:17.001Z</time></trkpt><trkpt lat="45.44710496608992" lon="8.790802294902472"><ele>133.5</ele><time>2026-04-18T08:50:18.001Z</time></trkpt><trkpt lat="45.4470636790975" lon="8.790642552738664"><ele>134.0</ele><time>2026-04-18T08:50:19.001Z</time></trkpt><trkpt lat="45.44702924023172" lon="8.790484183541418"><ele>133.66666666666666</ele><time>2026-04-18T08:50:20.001Z</time></trkpt><trkpt lat="45.447001006156974" lon="8.790350176048081"><ele>133.33333333333331</ele><time>2026-04-18T08:50:21.001Z</time></trkpt><trkpt lat="45.44696732515587" lon="8.790227435103029"><ele>133.0</ele><time>2026-04-18T08:50:22.001Z</time></trkpt><trkpt lat="45.446933429195475" lon="8.790112566705305"><ele>132.66666666666666</ele><time>2026-04-18T08:50:23.001Z</time></trkpt><trkpt lat="45.446890370521515" lon="8.790023896420193"><ele>132.33333333333334</ele><time>2026-04-18T08:50:24.001Z</time></trkpt><trkpt lat="45.446854750218655" lon="8.789938358352588"><ele>132.0</ele><time>2026-04-18T08:50:25.001Z</time></trkpt><trkpt lat="45.446825157120735" lon="8.789849003691346"><ele>132.0</ele><time>2026-04-18T08:50:26.001Z</time></trkpt><trkpt lat="45.44675350511362" lon="8.789736703582511"><ele>132.0</ele><time>2026-04-18T08:50:28.001Z</time></trkpt><trkpt lat="45.446674511569796" lon="8.789650324370138"><ele>132.0</ele><time>2026-04-18T08:50:30.001Z</time></trkpt><trkpt lat="45.44654287090485" lon="8.789761334836232"><ele>132.0</ele><time>2026-04-18T08:50:31.001Z</time></trkpt><trkpt lat="45.44645194092229" lon="8.789738291902205"><ele>132.0</ele><time>2026-04-18T08:50:32.001Z</time></trkpt><trkpt lat="45.4463587424714" lon="8.789683895014852"><ele>132.0</ele><time>2026-04-18T08:50:33.001Z</time></trkpt><trkpt lat="45.44626072742081" lon="8.78961955515979"><ele>132.0</ele><time>2026-04-18T08:50:34.001Z</time></trkpt><trkpt lat="45.44616191485361" lon="8.78956972018098"><ele>132.0</ele><time>2026-04-18T08:50:35.001Z</time></trkpt><trkpt lat="45.446062348878996" lon="8.78953285086328"><ele>132.0</ele><time>2026-04-18T08:50:36.001Z</time></trkpt><trkpt lat="45.44595829398775" lon="8.789498032194835"><ele>131.66666666666666</ele><time>2026-04-18T08:50:37.001Z</time></trkpt><trkpt lat="45.44585959131723" lon="8.789455973975246"><ele>131.33333333333334</ele><time>2026-04-18T08:50:38.001Z</time></trkpt><trkpt lat="45.445765458487394" lon="8.789412258531469"><ele>131.0</ele><time>2026-04-18T08:50:39.001Z</time></trkpt><trkpt lat="45.44568190036325" lon="8.789376119477277"><ele>130.66666666666669</ele><time>2026-04-18T08:50:40.001Z</time></trkpt><trkpt lat="45.44560728385969" lon="8.789343698065561"><ele>130.33333333333334</ele><time>2026-04-18T08:50:41.002Z</time></trkpt><trkpt lat="45.445539136217675" lon="8.789313569886437"><ele>130.0</ele><time>2026-04-18T08:50:42.002Z</time></trkpt><trkpt lat="45.445477354839994" lon="8.789288471843848"><ele>129.83333333333334</ele><time>2026-04-18T08:50:43.002Z</time></trkpt><trkpt lat="45.44536772623344" lon="8.789243687444065"><ele>129.66666666666669</ele><time>2026-04-18T08:50:45.002Z</time></trkpt><trkpt lat="45.44527907649158" lon="8.789204251763643"><ele>129.5</ele><time>2026-04-18T08:50:47.002Z</time></trkpt><trkpt lat="45.44519981290516" lon="8.789170769199186"><ele>129.33333333333334</ele><time>2026-04-18T08:50:49.002Z</time></trkpt><trkpt lat="45.44512272247191" lon="8.789140202579572"><ele>129.16666666666666</ele><time>2026-04-18T08:50:51.002Z</time></trkpt><trkpt lat="45.445052628412384" lon="8.789108371565694"><ele>129.0</ele><time>2026-04-18T08:50:53.002Z</time></trkpt><trkpt lat="45.44497465428114" lon="8.789078290759045"><ele>129.0</ele><time>2026-04-18T08:50:56.002Z</time></trkpt><trkpt lat="45.44491315174487" lon="8.789035572640056"><ele>129.0</ele><time>2026-04-18T08:51:04.002Z</time></trkpt><trkpt lat="45.44500886282726" lon="8.78907721791328"><ele>129.0</ele><time>2026-04-18T08:51:09.002Z</time></trkpt><trkpt lat="45.44511329504257" lon="8.789122657768681"><ele>129.0</ele><time>2026-04-18T08:51:11.002Z</time></trkpt><trkpt lat="45.445194369454384" lon="8.78915793433157"><ele>129.0</ele><time>2026-04-18T08:51:13.002Z</time></trkpt><trkpt lat="45.44525454375306" lon="8.789184981252811"><ele>129.0</ele><time>2026-04-18T08:52:12Z</time></trkpt><trkpt lat="45.44532530388388" lon="8.7892157465813"><ele>129.0</ele><time>2026-04-18T08:52:42.001Z</time></trkpt><trkpt lat="45.44541068846262" lon="8.789252869947303"><ele>129.0</ele><time>2026-04-18T08:52:44.001Z</time></trkpt><trkpt lat="45.445517787572804" lon="8.7893837062557"><ele>129.0</ele><time>2026-04-18T08:52:45.001Z</time></trkpt><trkpt lat="45.44560928212232" lon="8.789415949857393"><ele>129.0</ele><time>2026-04-18T08:52:46.001Z</time></trkpt><trkpt lat="45.44570683973581" lon="8.789463794534827"><ele>129.0</ele><time>2026-04-18T08:52:47.001Z</time></trkpt><trkpt lat="45.44581144701555" lon="8.789510221772398"><ele>129.2</ele><time>2026-04-18T08:52:48.001Z</time></trkpt><trkpt lat="45.4459157930943" lon="8.789557750446093"><ele>129.4</ele><time>2026-04-18T08:52:49.001Z</time></trkpt><trkpt lat="45.44602146408985" lon="8.789603221732513"><ele>129.6</ele><time>2026-04-18T08:52:50.001Z</time></trkpt><trkpt lat="45.44613104143087" lon="8.789647078688507"><ele>129.8</ele><time>2026-04-18T08:52:51.001Z</time></trkpt><trkpt lat="45.44623867691902" lon="8.78969538664336"><ele>130.0</ele><time>2026-04-18T08:52:52.001Z</time></trkpt><trkpt lat="45.44633481346962" lon="8.789745338770336"><ele>130.4</ele><time>2026-04-18T08:52:53.002Z</time></trkpt><trkpt lat="45.446415807540866" lon="8.789787297726614"><ele>130.8</ele><time>2026-04-18T08:52:54.002Z</time></trkpt><trkpt lat="45.44648127191028" lon="8.789828123015246"><ele>131.2</ele><time>2026-04-18T08:52:55.002Z</time></trkpt><trkpt lat="45.446538383445905" lon="8.789867872378776"><ele>131.6</ele><time>2026-04-18T08:52:56.002Z</time></trkpt><trkpt lat="45.4466376651482" lon="8.789988206001203"><ele>132.0</ele><time>2026-04-18T08:52:58.002Z</time></trkpt><trkpt lat="45.44673579419679" lon="8.790050166639858"><ele>132.0</ele><time>2026-04-18T08:53:00.002Z</time></trkpt><trkpt lat="45.44682896599747" lon="8.790011897901753"><ele>132.0</ele><time>2026-04-18T08:53:02.002Z</time></trkpt><trkpt lat="45.44683158483366" lon="8.789795086376397"><ele>132.0</ele><time>2026-04-18T08:53:04.002Z</time></trkpt><trkpt lat="45.44680691330287" lon="8.789701142104251"><ele>132.0</ele><time>2026-04-18T08:53:05.002Z</time></trkpt><trkpt lat="45.44677538168622" lon="8.789585783494474"><ele>132.0</ele><time>2026-04-18T08:53:06.002Z</time></trkpt><trkpt lat="45.44675308981623" lon="8.789459293295005"><ele>132.0</ele><time>2026-04-18T08:53:07.002Z</time></trkpt><trkpt lat="45.44672939732121" lon="8.789320337880904"><ele>132.0</ele><time>2026-04-18T08:53:08.002Z</time></trkpt><trkpt lat="45.4466955666702" lon="8.789177589734075"><ele>132.0</ele><time>2026-04-18T08:53:09.002Z</time></trkpt><trkpt lat="45.446651965902305" lon="8.789033826087925"><ele>132.0</ele><time>2026-04-18T08:53:10.002Z</time></trkpt><trkpt lat="45.44660782160946" lon="8.788877864982243"><ele>132.0</ele><time>2026-04-18T08:53:11.002Z</time></trkpt><trkpt lat="45.446567012691894" lon="8.788721396543787"><ele>132.0</ele><time>2026-04-18T08:53:12.002Z</time></trkpt><trkpt lat="45.44652457922418" lon="8.788551405810567"><ele>132.0</ele><time>2026-04-18T08:53:13.002Z</time></trkpt><trkpt lat="45.44648014836014" lon="8.78837543003895"><ele>132.0</ele><time>2026-04-18T08:53:14.002Z</time></trkpt><trkpt lat="45.446435630152095" lon="8.788198115454469"><ele>132.0</ele><time>2026-04-18T08:53:15.002Z</time></trkpt><trkpt lat="45.44638797993611" lon="8.788015906221426"><ele>132.0</ele><time>2026-04-18T08:53:16.002Z</time></trkpt><trkpt lat="45.446338418638966" lon="8.78783883908815"><ele>132.0</ele><time>2026-04-18T08:53:17.002Z</time></trkpt><trkpt lat="45.44628604844499" lon="8.78765909588506"><ele>132.0</ele><time>2026-04-18T08:53:18.002Z</time></trkpt><trkpt lat="45.44623362158514" lon="8.787478690905598"><ele>132.0</ele><time>2026-04-18T08:53:19.002Z</time></trkpt><trkpt lat="45.44618194916814" lon="8.787296949324643"><ele>132.0</ele><time>2026-04-18T08:53:20.002Z</time></trkpt><trkpt lat="45.446133974812255" lon="8.787113242758656"><ele>132.0</ele><time>2026-04-18T08:53:21.002Z</time></trkpt><trkpt lat="45.44608772606565" lon="8.786926880886908"><ele>132.0</ele><time>2026-04-18T08:53:22.002Z</time></trkpt><trkpt lat="45.44603952895494" lon="8.786737823834772"><ele>132.0</ele><time>2026-04-18T08:53:23.002Z</time></trkpt><trkpt lat="45.44598641050489" lon="8.78654447771804"><ele>132.0</ele><time>2026-04-18T08:53:24.002Z</time></trkpt><trkpt lat="45.44592920047019" lon="8.786344763231327"><ele>132.0</ele><time>2026-04-18T08:53:25.002Z</time></trkpt><trkpt lat="45.4458648802894" lon="8.786134621102356"><ele>132.0</ele><time>2026-04-18T08:53:26.002Z</time></trkpt><trkpt lat="45.44580206113416" lon="8.785920516133077"><ele>130.66666666666666</ele><time>2026-04-18T08:53:27.002Z</time></trkpt><trkpt lat="45.445740913653324" lon="8.785695073203282"><ele>129.33333333333331</ele><time>2026-04-18T08:53:28.002Z</time></trkpt><trkpt lat="45.445679765359685" lon="8.785468319440014"><ele>128.0</ele><time>2026-04-18T08:53:29.003Z</time></trkpt><trkpt lat="45.44561872946195" lon="8.785235485017088"><ele>128.0</ele><time>2026-04-18T08:53:30.003Z</time></trkpt><trkpt lat="45.445557203207606" lon="8.78501264195203"><ele>128.0</ele><time>2026-04-18T08:53:31.003Z</time></trkpt><trkpt lat="45.44550112835528" lon="8.784814154330034"><ele>128.0</ele><time>2026-04-18T08:53:32.003Z</time></trkpt><trkpt lat="45.445448306026016" lon="8.784629882884541"><ele>128.0</ele><time>2026-04-18T08:53:33.003Z</time></trkpt><trkpt lat="45.44539969452421" lon="8.78445190909915"><ele>128.0</ele><time>2026-04-18T08:53:34.003Z</time></trkpt><trkpt lat="45.44534955934856" lon="8.784267382827307"><ele>128.0</ele><time>2026-04-18T08:53:35.003Z</time></trkpt><trkpt lat="45.44529828611664" lon="8.784079898498266"><ele>128.0</ele><time>2026-04-18T08:53:36.003Z</time></trkpt><trkpt lat="45.445254085138416" lon="8.783915415116773"><ele>128.0</ele><time>2026-04-18T08:53:37.003Z</time></trkpt><trkpt lat="45.44521638241787" lon="8.78376531385996"><ele>128.0</ele><time>2026-04-18T08:53:38.003Z</time></trkpt><trkpt lat="45.44518335951751" lon="8.783628795937377"><ele>128.0</ele><time>2026-04-18T08:53:39.003Z</time></trkpt><trkpt lat="45.44516092571469" lon="8.783497863948599"><ele>128.0</ele><time>2026-04-18T08:53:40.003Z</time></trkpt><trkpt lat="45.44515349414338" lon="8.78337044545887"><ele>128.0</ele><time>2026-04-18T08:53:41.003Z</time></trkpt><trkpt lat="45.44517420385273" lon="8.783237368326366"><ele>128.0</ele><time>2026-04-18T08:53:42.003Z</time></trkpt><trkpt lat="45.445207666741084" lon="8.78310296046931"><ele>128.0</ele><time>2026-04-18T08:53:43.003Z</time></trkpt><trkpt lat="45.44522152830067" lon="8.782967335130202"><ele>128.0</ele><time>2026-04-18T08:53:44.003Z</time></trkpt><trkpt lat="45.44522392359949" lon="8.782845176448706"><ele>128.0</ele><time>2026-04-18T08:53:45.003Z</time></trkpt><trkpt lat="45.445200302896765" lon="8.782733234240398"><ele>128.0</ele><time>2026-04-18T08:53:46.003Z</time></trkpt><trkpt lat="45.445087873874556" lon="8.782654882547629"><ele>128.25</ele><time>2026-04-18T08:53:47.003Z</time></trkpt><trkpt lat="45.44500498472285" lon="8.782577833690434"><ele>128.5</ele><time>2026-04-18T08:53:48.003Z</time></trkpt><trkpt lat="45.44490960569609" lon="8.782496274059596"><ele>128.75</ele><time>2026-04-18T08:53:49Z</time></trkpt><trkpt lat="45.44484518251139" lon="8.782349299723888"><ele>129.0</ele><time>2026-04-18T08:53:50Z</time></trkpt><trkpt lat="45.4447686446725" lon="8.782219273121683"><ele>129.0</ele><time>2026-04-18T08:53:51Z</time></trkpt><trkpt lat="45.44474715182695" lon="8.782026070441567"><ele>129.0</ele><time>2026-04-18T08:53:52Z</time></trkpt><trkpt lat="45.44468283013004" lon="8.781853090500952"><ele>129.0</ele><time>2026-04-18T08:53:53Z</time></trkpt><trkpt lat="45.444635124372695" lon="8.781672571942616"><ele>129.0</ele><time>2026-04-18T08:53:54Z</time></trkpt><trkpt lat="45.44458311918925" lon="8.78148439440698"><ele>129.0</ele><time>2026-04-18T08:53:55Z</time></trkpt><trkpt lat="45.44452949902072" lon="8.781292208635733"><ele>129.0</ele><time>2026-04-18T08:53:56Z</time></trkpt><trkpt lat="45.44447406081175" lon="8.781095698450358"><ele>129.0</ele><time>2026-04-18T08:53:57Z</time></trkpt><trkpt lat="45.44442347566632" lon="8.780890419910437"><ele>129.0</ele><time>2026-04-18T08:53:58Z</time></trkpt><trkpt lat="45.44436599462152" lon="8.78068507505065"><ele>129.0</ele><time>2026-04-18T08:53:59Z</time></trkpt><trkpt lat="45.444310541254254" lon="8.780474430770006"><ele>129.0</ele><time>2026-04-18T08:54:00Z</time></trkpt><trkpt lat="45.44425424841548" lon="8.780263487602811"><ele>129.0</ele><time>2026-04-18T08:54:01Z</time></trkpt><trkpt lat="45.44419499531412" lon="8.780047919284291"><ele>130.0</ele><time>2026-04-18T08:54:02Z</time></trkpt><trkpt lat="45.44413836376019" lon="8.779829567128347"><ele>131.0</ele><time>2026-04-18T08:54:03Z</time></trkpt><trkpt lat="45.444080401970275" lon="8.779605639736209"><ele>132.0</ele><time>2026-04-18T08:54:04Z</time></trkpt><trkpt lat="45.444021777443076" lon="8.779384068113625"><ele>131.0</ele><time>2026-04-18T08:54:05Z</time></trkpt><trkpt lat="45.44395849412287" lon="8.779153924883303"><ele>130.0</ele><time>2026-04-18T08:54:06Z</time></trkpt><trkpt lat="45.44389470546789" lon="8.778919666750124"><ele>129.0</ele><time>2026-04-18T08:54:07Z</time></trkpt><trkpt lat="45.44382811619979" lon="8.778682564199512"><ele>128.66666666666666</ele><time>2026-04-18T08:54:08Z</time></trkpt><trkpt lat="45.4437651650102" lon="8.77844766078363"><ele>128.33333333333331</ele><time>2026-04-18T08:54:09Z</time></trkpt><trkpt lat="45.443698707993526" lon="8.778211506435547"><ele>128.0</ele><time>2026-04-18T08:54:10Z</time></trkpt><trkpt lat="45.44363296440017" lon="8.777977276676943"><ele>128.0</ele><time>2026-04-18T08:54:11Z</time></trkpt><trkpt lat="45.443570712186336" lon="8.77774815272627"><ele>128.0</ele><time>2026-04-18T08:54:12Z</time></trkpt><trkpt lat="45.443508881637676" lon="8.77751690688187"><ele>128.0</ele><time>2026-04-18T08:54:13Z</time></trkpt><trkpt lat="45.443448186919824" lon="8.777290577238947"><ele>128.0</ele><time>2026-04-18T08:54:14Z</time></trkpt><trkpt lat="45.44338592212218" lon="8.777063764053791"><ele>128.0</ele><time>2026-04-18T08:54:15Z</time></trkpt><trkpt lat="45.443324790174444" lon="8.776844635394374"><ele>128.0</ele><time>2026-04-18T08:54:16Z</time></trkpt><trkpt lat="45.44326605071094" lon="8.776633482972295"><ele>128.66666666666666</ele><time>2026-04-18T08:54:17Z</time></trkpt><trkpt lat="45.44320584289029" lon="8.776418905746027"><ele>129.33333333333334</ele><time>2026-04-18T08:54:18Z</time></trkpt><trkpt lat="45.44314528819134" lon="8.776207829713782"><ele>130.0</ele><time>2026-04-18T08:54:19Z</time></trkpt><trkpt lat="45.44310022408339" lon="8.775978041722075"><ele>130.66666666666669</ele><time>2026-04-18T08:54:20.001Z</time></trkpt><trkpt lat="45.44302747879754" lon="8.77576618982677"><ele>131.33333333333334</ele><time>2026-04-18T08:54:21.001Z</time></trkpt><trkpt lat="45.44296953435932" lon="8.775534980324439"><ele>132.0</ele><time>2026-04-18T08:54:22.001Z</time></trkpt><trkpt lat="45.442912281941815" lon="8.77530798619975"><ele>133.33333333333334</ele><time>2026-04-18T08:54:23.001Z</time></trkpt><trkpt lat="45.44285559568087" lon="8.775086961158557"><ele>134.66666666666669</ele><time>2026-04-18T08:54:24.001Z</time></trkpt><trkpt lat="45.4427914921922" lon="8.77486146779137"><ele>136.0</ele><time>2026-04-18T08:54:25.001Z</time></trkpt><trkpt lat="45.442726241401736" lon="8.77463579949684"><ele>136.0</ele><time>2026-04-18T08:54:26.001Z</time></trkpt><trkpt lat="45.4426623459457" lon="8.774409534576298"><ele>136.0</ele><time>2026-04-18T08:54:27.001Z</time></trkpt><trkpt lat="45.44260182172863" lon="8.774185696605059"><ele>136.0</ele><time>2026-04-18T08:54:28.001Z</time></trkpt><trkpt lat="45.4425423045907" lon="8.77395835759154"><ele>135.66666666666669</ele><time>2026-04-18T08:54:29.001Z</time></trkpt><trkpt lat="45.44248118568952" lon="8.773726781465301"><ele>135.33333333333334</ele><time>2026-04-18T08:54:30.001Z</time></trkpt><trkpt lat="45.44242097385938" lon="8.773496641780424"><ele>135.0</ele><time>2026-04-18T08:54:31.001Z</time></trkpt><trkpt lat="45.442359057212826" lon="8.773263830367048"><ele>134.0</ele><time>2026-04-18T08:54:32.001Z</time></trkpt><trkpt lat="45.442299002056394" lon="8.773033759161482"><ele>133.0</ele><time>2026-04-18T08:54:33.001Z</time></trkpt><trkpt lat="45.44223692108615" lon="8.77280814782683"><ele>132.0</ele><time>2026-04-18T08:54:34.001Z</time></trkpt><trkpt lat="45.44217653039388" lon="8.772599965583566"><ele>131.33333333333334</ele><time>2026-04-18T08:54:35.001Z</time></trkpt><trkpt lat="45.44212280805512" lon="8.77240517772055"><ele>130.66666666666669</ele><time>2026-04-18T08:54:36.001Z</time></trkpt><trkpt lat="45.44206763757309" lon="8.772199071734265"><ele>130.0</ele><time>2026-04-18T08:54:37.001Z</time></trkpt><trkpt lat="45.44201007914456" lon="8.771983848808693"><ele>130.0</ele><time>2026-04-18T08:54:38.001Z</time></trkpt><trkpt lat="45.44195100904541" lon="8.771767597133124"><ele>130.0</ele><time>2026-04-18T08:54:39.001Z</time></trkpt><trkpt lat="45.44188983187487" lon="8.77155416586531"><ele>130.0</ele><time>2026-04-18T08:54:40.001Z</time></trkpt><trkpt lat="45.44182634650634" lon="8.771329942234361"><ele>130.0</ele><time>2026-04-18T08:54:41.001Z</time></trkpt><trkpt lat="45.44176240616522" lon="8.771100026617638"><ele>130.0</ele><time>2026-04-18T08:54:42.001Z</time></trkpt><trkpt lat="45.44169196843861" lon="8.770856593448453"><ele>130.0</ele><time>2026-04-18T08:54:43.001Z</time></trkpt><trkpt lat="45.4416229085135" lon="8.770606777573716"><ele>130.0</ele><time>2026-04-18T08:54:44.001Z</time></trkpt><trkpt lat="45.44156941889297" lon="8.770347539955498"><ele>130.0</ele><time>2026-04-18T08:54:45.001Z</time></trkpt><trkpt lat="45.441507901630665" lon="8.770118717331036"><ele>130.0</ele><time>2026-04-18T08:54:46.001Z</time></trkpt><trkpt lat="45.44144910605291" lon="8.769900018336392"><ele>130.0</ele><time>2026-04-18T08:54:47.001Z</time></trkpt><trkpt lat="45.441396592192675" lon="8.769705113857366"><ele>130.0</ele><time>2026-04-18T08:54:48.001Z</time></trkpt><trkpt lat="45.44134875971213" lon="8.769528909686072"><ele>130.0</ele><time>2026-04-18T08:54:49.001Z</time></trkpt><trkpt lat="45.44130825947586" lon="8.769379715981746"><ele>130.0</ele><time>2026-04-18T08:54:50.001Z</time></trkpt><trkpt lat="45.44127111396656" lon="8.769242880180848"><ele>130.2</ele><time>2026-04-18T08:54:51.001Z</time></trkpt><trkpt lat="45.441246373072374" lon="8.769151740281018"><ele>130.4</ele><time>2026-04-18T08:54:52.001Z</time></trkpt><trkpt lat="45.44121122232718" lon="8.769068997667604"><ele>130.6</ele><time>2026-04-18T08:54:55.001Z</time></trkpt><trkpt lat="45.441015194179066" lon="8.769138045517158"><ele>130.8</ele><time>2026-04-18T08:54:57.001Z</time></trkpt><trkpt lat="45.44095119956881" lon="8.769173692037905"><ele>131.0</ele><time>2026-04-18T08:54:58.002Z</time></trkpt><trkpt lat="45.44088261691313" lon="8.769218828458822"><ele>131.0</ele><time>2026-04-18T08:54:59.002Z</time></trkpt><trkpt lat="45.44080409077407" lon="8.769257977644553"><ele>131.0</ele><time>2026-04-18T08:55:00.002Z</time></trkpt><trkpt lat="45.44072323211747" lon="8.769304673318238"><ele>131.0</ele><time>2026-04-18T08:55:01.002Z</time></trkpt><trkpt lat="45.44063282844664" lon="8.76936314898029"><ele>131.0</ele><time>2026-04-18T08:55:02.002Z</time></trkpt><trkpt lat="45.440536618787796" lon="8.76941799905907"><ele>131.0</ele><time>2026-04-18T08:55:03.002Z</time></trkpt><trkpt lat="45.4404480009173" lon="8.769477584120303"><ele>131.0</ele><time>2026-04-18T08:55:04.002Z</time></trkpt><trkpt lat="45.440364825056236" lon="8.76950940278469"><ele>131.0</ele><time>2026-04-18T08:55:05.002Z</time></trkpt><trkpt lat="45.44025661665112" lon="8.76957581136807"><ele>131.0</ele><time>2026-04-18T08:55:07.002Z</time></trkpt><trkpt lat="45.44017257920558" lon="8.769598957068498"><ele>131.0</ele><time>2026-04-18T08:55:09.002Z</time></trkpt><trkpt lat="45.44004863167202" lon="8.76960332241686"><ele>131.0</ele><time>2026-04-18T08:55:11.002Z</time></trkpt><trkpt lat="45.439971757498114" lon="8.769596891211584"><ele>131.0</ele><time>2026-04-18T08:55:12.002Z</time></trkpt><trkpt lat="45.43989103496867" lon="8.769568612110085"><ele>131.0</ele><time>2026-04-18T08:55:13.002Z</time></trkpt><trkpt lat="45.43979910000232" lon="8.769527019759071"><ele>131.0</ele><time>2026-04-18T08:55:14.002Z</time></trkpt><trkpt lat="45.43969975654508" lon="8.769480700068694"><ele>131.0</ele><time>2026-04-18T08:55:15.002Z</time></trkpt><trkpt lat="45.43959963067222" lon="8.769431270843146"><ele>131.0</ele><time>2026-04-18T08:55:16.002Z</time></trkpt><trkpt lat="45.43948448738185" lon="8.769397882687528"><ele>131.25</ele><time>2026-04-18T08:55:17.002Z</time></trkpt><trkpt lat="45.43937334375733" lon="8.76934198653666"><ele>131.5</ele><time>2026-04-18T08:55:18.002Z</time></trkpt><trkpt lat="45.43926557860856" lon="8.76928817877083"><ele>131.75</ele><time>2026-04-18T08:55:19.002Z</time></trkpt><trkpt lat="45.439148557094285" lon="8.769273439567542"><ele>132.0</ele><time>2026-04-18T08:55:20.002Z</time></trkpt><trkpt lat="45.439029334771405" lon="8.76928698904753"><ele>132.0</ele><time>2026-04-18T08:55:21.002Z</time></trkpt><trkpt lat="45.4389286442109" lon="8.769311112286283"><ele>132.0</ele><time>2026-04-18T08:55:22.002Z</time></trkpt><trkpt lat="45.43884587291857" lon="8.7693538868843"><ele>132.0</ele><time>2026-04-18T08:55:23.002Z</time></trkpt><trkpt lat="45.43877172667825" lon="8.769411222256547"><ele>132.0</ele><time>2026-04-18T08:55:24.002Z</time></trkpt><trkpt lat="45.43871156239683" lon="8.769460349164065"><ele>132.0</ele><time>2026-04-18T08:55:25.002Z</time></trkpt><trkpt lat="45.43865622437953" lon="8.769504765919594"><ele>132.0</ele><time>2026-04-18T08:55:26.002Z</time></trkpt><trkpt lat="45.43859875260074" lon="8.769543421717271"><ele>132.0</ele><time>2026-04-18T08:55:27.002Z</time></trkpt><trkpt lat="45.438534037602295" lon="8.7695807355356"><ele>132.0</ele><time>2026-04-18T08:55:28.002Z</time></trkpt><trkpt lat="45.438463659859174" lon="8.769634624570761"><ele>132.0</ele><time>2026-04-18T08:55:29.002Z</time></trkpt><trkpt lat="45.43838190124773" lon="8.769686490480442"><ele>132.0</ele><time>2026-04-18T08:55:30.002Z</time></trkpt><trkpt lat="45.438292322776036" lon="8.769748299054676"><ele>132.0</ele><time>2026-04-18T08:55:31.002Z</time></trkpt><trkpt lat="45.43819952708138" lon="8.769814875023775"><ele>132.0</ele><time>2026-04-18T08:55:32.002Z</time></trkpt><trkpt lat="45.43810564412772" lon="8.769890048817578"><ele>132.0</ele><time>2026-04-18T08:55:33.002Z</time></trkpt><trkpt lat="45.43801813669481" lon="8.769978513135891"><ele>132.0</ele><time>2026-04-18T08:55:34.002Z</time></trkpt><trkpt lat="45.4379451359371" lon="8.7700751793037"><ele>132.0</ele><time>2026-04-18T08:55:35.003Z</time></trkpt><trkpt lat="45.43788752188235" lon="8.770189438753238"><ele>132.0</ele><time>2026-04-18T08:55:36.003Z</time></trkpt><trkpt lat="45.43783824604371" lon="8.770319205263645"><ele>132.0</ele><time>2026-04-18T08:55:37.003Z</time></trkpt><trkpt lat="45.437796274369916" lon="8.770463329724896"><ele>131.79999999999998</ele><time>2026-04-18T08:55:38.003Z</time></trkpt><trkpt lat="45.437762795249654" lon="8.770604064051657"><ele>131.6</ele><time>2026-04-18T08:55:39.003Z</time></trkpt><trkpt lat="45.4377375343332" lon="8.770737055573647"><ele>131.39999999999998</ele><time>2026-04-18T08:55:40.003Z</time></trkpt><trkpt lat="45.4377138771265" lon="8.770857915648747"><ele>131.2</ele><time>2026-04-18T08:55:41.003Z</time></trkpt><trkpt lat="45.437686958333835" lon="8.770977077466293"><ele>131.0</ele><time>2026-04-18T08:55:42.003Z</time></trkpt><trkpt lat="45.437649314140906" lon="8.771085002200207"><ele>131.5</ele><time>2026-04-18T08:55:43.003Z</time></trkpt><trkpt lat="45.43759772517103" lon="8.771178420137005"><ele>132.0</ele><time>2026-04-18T08:55:44.003Z</time></trkpt><trkpt lat="45.43753903803625" lon="8.771259931539907"><ele>132.5</ele><time>2026-04-18T08:55:45.003Z</time></trkpt><trkpt lat="45.43747036178783" lon="8.77131037311475"><ele>133.0</ele><time>2026-04-18T08:55:46.003Z</time></trkpt><trkpt lat="45.43738637174749" lon="8.771361845690897"><ele>133.5</ele><time>2026-04-18T08:55:47.003Z</time></trkpt><trkpt lat="45.437294597526005" lon="8.77141149557564"><ele>134.0</ele><time>2026-04-18T08:55:48.003Z</time></trkpt><trkpt lat="45.43719851902279" lon="8.771466730584306"><ele>133.2</ele><time>2026-04-18T08:55:49.003Z</time></trkpt><trkpt lat="45.43710745723151" lon="8.771520845551322"><ele>132.4</ele><time>2026-04-18T08:55:50.003Z</time></trkpt><trkpt lat="45.4370094716932" lon="8.771579572517105"><ele>131.6</ele><time>2026-04-18T08:55:51.003Z</time></trkpt><trkpt lat="45.43690862336327" lon="8.771642799916103"><ele>130.8</ele><time>2026-04-18T08:55:52.003Z</time></trkpt><trkpt lat="45.43680351582642" lon="8.771708081377568"><ele>130.0</ele><time>2026-04-18T08:55:53.003Z</time></trkpt><trkpt lat="45.43669683287435" lon="8.771767069500374"><ele>130.0</ele><time>2026-04-18T08:55:54.003Z</time></trkpt><trkpt lat="45.43659661860687" lon="8.77183111307268"><ele>130.0</ele><time>2026-04-18T08:55:55Z</time></trkpt><trkpt lat="45.43649931687365" lon="8.771887063862009"><ele>130.0</ele><time>2026-04-18T08:55:56Z</time></trkpt><trkpt lat="45.43641091958309" lon="8.771946634264884"><ele>130.0</ele><time>2026-04-18T08:55:57Z</time></trkpt><trkpt lat="45.43632479337879" lon="8.771993867494569"><ele>130.0</ele><time>2026-04-18T08:55:58Z</time></trkpt><trkpt lat="45.436248686411744" lon="8.772047563524607"><ele>130.0</ele><time>2026-04-18T08:55:59Z</time></trkpt><trkpt lat="45.43617469747339" lon="8.772088615883966"><ele>130.0</ele><time>2026-04-18T08:56:00Z</time></trkpt><trkpt lat="45.436106268736275" lon="8.772132725055222"><ele>130.0</ele><time>2026-04-18T08:56:01Z</time></trkpt><trkpt lat="45.43604354507624" lon="8.772170626237855"><ele>130.0</ele><time>2026-04-18T08:56:02Z</time></trkpt><trkpt lat="45.435983424681204" lon="8.772208372024796"><ele>130.0</ele><time>2026-04-18T08:56:03Z</time></trkpt><trkpt lat="45.43588999033672" lon="8.77226449255403"><ele>130.0</ele><time>2026-04-18T08:56:05Z</time></trkpt><trkpt lat="45.43581627519677" lon="8.772285407953591"><ele>130.0</ele><time>2026-04-18T08:56:08Z</time></trkpt><trkpt lat="45.435740211351394" lon="8.77233368159206"><ele>130.0</ele><time>2026-04-18T08:56:10Z</time></trkpt><trkpt lat="45.43576359552648" lon="8.772495383693649"><ele>130.0</ele><time>2026-04-18T08:56:11Z</time></trkpt><trkpt lat="45.43577447087391" lon="8.77261522228499"><ele>130.0</ele><time>2026-04-18T08:56:12Z</time></trkpt><trkpt lat="45.43578324482068" lon="8.77275529790059"><ele>130.0</ele><time>2026-04-18T08:56:13Z</time></trkpt><trkpt lat="45.43578830794795" lon="8.772902726224519"><ele>129.75</ele><time>2026-04-18T08:56:14Z</time></trkpt><trkpt lat="45.43579402105859" lon="8.773072986953945"><ele>129.5</ele><time>2026-04-18T08:56:15Z</time></trkpt><trkpt lat="45.43580649867295" lon="8.773268080063104"><ele>129.25</ele><time>2026-04-18T08:56:16Z</time></trkpt><trkpt lat="45.435816494653494" lon="8.773479008154933"><ele>129.0</ele><time>2026-04-18T08:56:17Z</time></trkpt><trkpt lat="45.43583382450484" lon="8.773698845098242"><ele>128.0</ele><time>2026-04-18T08:56:18Z</time></trkpt><trkpt lat="45.43584247996107" lon="8.773926138671097"><ele>127.0</ele><time>2026-04-18T08:56:19Z</time></trkpt><trkpt lat="45.43585431411791" lon="8.774152258984678"><ele>126.0</ele><time>2026-04-18T08:56:20Z</time></trkpt><trkpt lat="45.435870156022084" lon="8.774380560066893"><ele>125.66666666666666</ele><time>2026-04-18T08:56:21Z</time></trkpt><trkpt lat="45.435879899886814" lon="8.774611068855224"><ele>125.33333333333333</ele><time>2026-04-18T08:56:22Z</time></trkpt><trkpt lat="45.43589131562854" lon="8.774844696945314"><ele>125.0</ele><time>2026-04-18T08:56:23Z</time></trkpt><trkpt lat="45.43590119414398" lon="8.775072284755602"><ele>124.66666666666666</ele><time>2026-04-18T08:56:24Z</time></trkpt><trkpt lat="45.43591401801306" lon="8.775296988866303"><ele>124.33333333333334</ele><time>2026-04-18T08:56:25Z</time></trkpt><trkpt lat="45.43592616066206" lon="8.775520507960646"><ele>124.0</ele><time>2026-04-18T08:56:26Z</time></trkpt><trkpt lat="45.43593849953673" lon="8.775737933201256"><ele>124.0</ele><time>2026-04-18T08:56:27.001Z</time></trkpt><trkpt lat="45.43594860697064" lon="8.77594989597522"><ele>124.0</ele><time>2026-04-18T08:56:28.001Z</time></trkpt><trkpt lat="45.43595995948092" lon="8.77616466127413"><ele>124.0</ele><time>2026-04-18T08:56:29.001Z</time></trkpt><trkpt lat="45.435971532939654" lon="8.776379481534354"><ele>124.5</ele><time>2026-04-18T08:56:30.001Z</time></trkpt><trkpt lat="45.435983009477575" lon="8.776597830040142"><ele>125.0</ele><time>2026-04-18T08:56:31.001Z</time></trkpt><trkpt lat="45.43599327285225" lon="8.776795472778947"><ele>125.5</ele><time>2026-04-18T08:56:32.001Z</time></trkpt><trkpt lat="45.43600245731751" lon="8.776980776217943"><ele>126.0</ele><time>2026-04-18T08:56:33.001Z</time></trkpt><trkpt lat="45.43600854873489" lon="8.77715614497317"><ele>126.0</ele><time>2026-04-18T08:56:34.001Z</time></trkpt><trkpt lat="45.43601975934662" lon="8.777337177175253"><ele>126.0</ele><time>2026-04-18T08:56:35.001Z</time></trkpt><trkpt lat="45.436024319319166" lon="8.777526880229635"><ele>126.0</ele><time>2026-04-18T08:56:36.001Z</time></trkpt><trkpt lat="45.436046588413284" lon="8.777716646263924"><ele>126.0</ele><time>2026-04-18T08:56:37.001Z</time></trkpt><trkpt lat="45.4360570040235" lon="8.777913123664115"><ele>126.0</ele><time>2026-04-18T08:56:38.001Z</time></trkpt><trkpt lat="45.436068025871826" lon="8.778119489960321"><ele>126.0</ele><time>2026-04-18T08:56:39.001Z</time></trkpt><trkpt lat="45.43607971835012" lon="8.778319576665158"><ele>126.0</ele><time>2026-04-18T08:56:40.001Z</time></trkpt><trkpt lat="45.43609126116648" lon="8.778528387068171"><ele>126.0</ele><time>2026-04-18T08:56:41.001Z</time></trkpt><trkpt lat="45.43608996209614" lon="8.778741003494591"><ele>126.33333333333334</ele><time>2026-04-18T08:56:42.001Z</time></trkpt><trkpt lat="45.436116732400606" lon="8.778954256412824"><ele>126.66666666666667</ele><time>2026-04-18T08:56:43.001Z</time></trkpt><trkpt lat="45.436138329970426" lon="8.779169059579985"><ele>127.0</ele><time>2026-04-18T08:56:44.001Z</time></trkpt><trkpt lat="45.43615804751494" lon="8.779389156987511"><ele>127.66666666666667</ele><time>2026-04-18T08:56:45.001Z</time></trkpt><trkpt lat="45.436167195520284" lon="8.779614533924244"><ele>128.33333333333334</ele><time>2026-04-18T08:56:46.001Z</time></trkpt><trkpt lat="45.43617761202744" lon="8.779845128924201"><ele>129.0</ele><time>2026-04-18T08:56:47.001Z</time></trkpt><trkpt lat="45.43618956121025" lon="8.780078372711268"><ele>130.0</ele><time>2026-04-18T08:56:48.001Z</time></trkpt><trkpt lat="45.436193570363756" lon="8.780309753974537"><ele>131.0</ele><time>2026-04-18T08:56:49.001Z</time></trkpt><trkpt lat="45.43620203424679" lon="8.780549719898987"><ele>132.0</ele><time>2026-04-18T08:56:50.001Z</time></trkpt><trkpt lat="45.43621065514663" lon="8.780785217162752"><ele>132.0</ele><time>2026-04-18T08:56:51.001Z</time></trkpt><trkpt lat="45.43622476252095" lon="8.781014328933407"><ele>132.0</ele><time>2026-04-18T08:56:52.001Z</time></trkpt><trkpt lat="45.436234959580844" lon="8.781213840628668"><ele>132.0</ele><time>2026-04-18T08:56:53.001Z</time></trkpt><trkpt lat="45.43624511341463" lon="8.781407412412284"><ele>132.0</ele><time>2026-04-18T08:56:54.001Z</time></trkpt><trkpt lat="45.436255351894296" lon="8.781601030188556"><ele>131.75</ele><time>2026-04-18T08:56:55.001Z</time></trkpt><trkpt lat="45.43626442761864" lon="8.781783569906814"><ele>131.5</ele><time>2026-04-18T08:56:56.001Z</time></trkpt><trkpt lat="45.43627441621246" lon="8.781947254247042"><ele>131.25</ele><time>2026-04-18T08:56:57.001Z</time></trkpt><trkpt lat="45.43628724417016" lon="8.782129640825197"><ele>131.0</ele><time>2026-04-18T08:56:58.001Z</time></trkpt><trkpt lat="45.43630081781833" lon="8.78231825170803"><ele>131.0</ele><time>2026-04-18T08:56:59.001Z</time></trkpt><trkpt lat="45.43631576295572" lon="8.782513130694236"><ele>131.0</ele><time>2026-04-18T08:57:00.001Z</time></trkpt><trkpt lat="45.43632781528371" lon="8.782711171196679"><ele>131.0</ele><time>2026-04-18T08:57:01.001Z</time></trkpt><trkpt lat="45.4363395159641" lon="8.782902113960477"><ele>131.0</ele><time>2026-04-18T08:57:02.001Z</time></trkpt><trkpt lat="45.43634911240732" lon="8.783095105397509"><ele>131.25</ele><time>2026-04-18T08:57:03.001Z</time></trkpt><trkpt lat="45.436358277124754" lon="8.783282452102792"><ele>131.5</ele><time>2026-04-18T08:57:04.002Z</time></trkpt><trkpt lat="45.43636991804909" lon="8.783473798310395"><ele>131.75</ele><time>2026-04-18T08:57:05.002Z</time></trkpt><trkpt lat="45.43637817086697" lon="8.78366288224099"><ele>132.0</ele><time>2026-04-18T08:57:06.002Z</time></trkpt><trkpt lat="45.43638293029957" lon="8.783851020405475"><ele>132.0</ele><time>2026-04-18T08:57:07.002Z</time></trkpt><trkpt lat="45.43638840095337" lon="8.78404587728027"><ele>132.0</ele><time>2026-04-18T08:57:08.002Z</time></trkpt><trkpt lat="45.436396373433475" lon="8.784223451555341"><ele>132.0</ele><time>2026-04-18T08:57:09.002Z</time></trkpt><trkpt lat="45.4364051872891" lon="8.784404178329662"><ele>132.0</ele><time>2026-04-18T08:57:10.002Z</time></trkpt><trkpt lat="45.43641432440875" lon="8.784568255392507"><ele>132.0</ele><time>2026-04-18T08:57:11.002Z</time></trkpt><trkpt lat="45.43641811383948" lon="8.784686307055155"><ele>132.0</ele><time>2026-04-18T08:57:12.002Z</time></trkpt><trkpt lat="45.43641930020699" lon="8.784835036442457"><ele>132.0</ele><time>2026-04-18T08:57:14.002Z</time></trkpt><trkpt lat="45.43642084084398" lon="8.784951081419278"><ele>132.0</ele><time>2026-04-18T08:57:17.002Z</time></trkpt><trkpt lat="45.43642759938103" lon="8.78508515164755"><ele>132.0</ele><time>2026-04-18T08:58:10Z</time></trkpt><trkpt lat="45.436442818499415" lon="8.785213817287804"><ele>132.75</ele><time>2026-04-18T08:58:12Z</time></trkpt><trkpt lat="45.43626288392005" lon="8.785249639446388"><ele>133.5</ele><time>2026-04-18T08:58:15Z</time></trkpt><trkpt lat="45.43618375711472" lon="8.785213353291635"><ele>134.25</ele><time>2026-04-18T08:58:16Z</time></trkpt><trkpt lat="45.436086833645376" lon="8.785161108880821"><ele>135.0</ele><time>2026-04-18T08:58:17Z</time></trkpt><trkpt lat="45.43597156787964" lon="8.785102370572895"><ele>135.25</ele><time>2026-04-18T08:58:18Z</time></trkpt><trkpt lat="45.43584891245739" lon="8.785046990185242"><ele>135.5</ele><time>2026-04-18T08:58:19Z</time></trkpt><trkpt lat="45.435715463143225" lon="8.78499354316825"><ele>135.75</ele><time>2026-04-18T08:58:20Z</time></trkpt><trkpt lat="45.43557704139085" lon="8.784930818135766"><ele>136.0</ele><time>2026-04-18T08:58:21Z</time></trkpt><trkpt lat="45.43543629167908" lon="8.784868780436009"><ele>134.0</ele><time>2026-04-18T08:58:22Z</time></trkpt><trkpt lat="45.43529212883517" lon="8.78480350572545"><ele>132.0</ele><time>2026-04-18T08:58:23Z</time></trkpt><trkpt lat="45.435145046885076" lon="8.7847404223164"><ele>130.0</ele><time>2026-04-18T08:58:24Z</time></trkpt><trkpt lat="45.43499181517921" lon="8.784673958973844"><ele>130.0</ele><time>2026-04-18T08:58:25Z</time></trkpt><trkpt lat="45.43483423506042" lon="8.784608270635033"><ele>130.0</ele><time>2026-04-18T08:58:26Z</time></trkpt><trkpt lat="45.434671493108084" lon="8.784537779985985"><ele>130.0</ele><time>2026-04-18T08:58:27Z</time></trkpt><trkpt lat="45.43450922261224" lon="8.784462477242775"><ele>129.66666666666669</ele><time>2026-04-18T08:58:28Z</time></trkpt><trkpt lat="45.43434369200369" lon="8.784393185023958"><ele>129.33333333333334</ele><time>2026-04-18T08:58:29Z</time></trkpt><trkpt lat="45.434174870989814" lon="8.784321142077818"><ele>129.0</ele><time>2026-04-18T08:58:30Z</time></trkpt><trkpt lat="45.434006762910165" lon="8.784250843033387"><ele>128.66666666666666</ele><time>2026-04-18T08:58:31Z</time></trkpt><trkpt lat="45.43383834503536" lon="8.78417626475069"><ele>128.33333333333331</ele><time>2026-04-18T08:58:32Z</time></trkpt><trkpt lat="45.43366658522769" lon="8.784100923278949"><ele>128.0</ele><time>2026-04-18T08:58:33Z</time></trkpt><trkpt lat="45.43349329782517" lon="8.784023514159921"><ele>128.0</ele><time>2026-04-18T08:58:34Z</time></trkpt><trkpt lat="45.43331993622558" lon="8.78394836970941"><ele>128.0</ele><time>2026-04-18T08:58:35Z</time></trkpt><trkpt lat="45.433146057431856" lon="8.783871161732232"><ele>128.0</ele><time>2026-04-18T08:58:36Z</time></trkpt><trkpt lat="45.43296829370027" lon="8.783789641981357"><ele>128.33333333333331</ele><time>2026-04-18T08:58:37Z</time></trkpt><trkpt lat="45.43279167617566" lon="8.783711572365949"><ele>128.66666666666666</ele><time>2026-04-18T08:58:38Z</time></trkpt><trkpt lat="45.43261119236752" lon="8.783632661289309"><ele>129.0</ele><time>2026-04-18T08:58:39Z</time></trkpt><trkpt lat="45.432427502525044" lon="8.783553349160728"><ele>129.0</ele><time>2026-04-18T08:58:40.001Z</time></trkpt><trkpt lat="45.432245343332774" lon="8.783474072291808"><ele>129.0</ele><time>2026-04-18T08:58:41.001Z</time></trkpt><trkpt lat="45.43206163888017" lon="8.783397047663678"><ele>129.0</ele><time>2026-04-18T08:58:42.001Z</time></trkpt><trkpt lat="45.43187645152279" lon="8.783316750205211"><ele>129.0</ele><time>2026-04-18T08:58:43.001Z</time></trkpt><trkpt lat="45.431693214929886" lon="8.783236025582125"><ele>129.0</ele><time>2026-04-18T08:58:44.001Z</time></trkpt><trkpt lat="45.43150690504212" lon="8.783152216246899"><ele>129.0</ele><time>2026-04-18T08:58:45.001Z</time></trkpt><trkpt lat="45.43131940379076" lon="8.78307065645824"><ele>130.0</ele><time>2026-04-18T08:58:46.001Z</time></trkpt><trkpt lat="45.43113426097742" lon="8.78298996062879"><ele>131.0</ele><time>2026-04-18T08:58:47.001Z</time></trkpt><trkpt lat="45.430947518812935" lon="8.782908663323866"><ele>132.0</ele><time>2026-04-18T08:58:48.001Z</time></trkpt><trkpt lat="45.43075971005303" lon="8.782821385120466"><ele>132.0</ele><time>2026-04-18T08:58:49.001Z</time></trkpt><trkpt lat="45.43057317123035" lon="8.782731995764799"><ele>132.0</ele><time>2026-04-18T08:58:50.001Z</time></trkpt><trkpt lat="45.430386334051725" lon="8.782645120810516"><ele>132.0</ele><time>2026-04-18T08:58:51.001Z</time></trkpt><trkpt lat="45.43019890896059" lon="8.782565718752668"><ele>132.0</ele><time>2026-04-18T08:58:52.001Z</time></trkpt><trkpt lat="45.43000888798518" lon="8.782489116092322"><ele>132.0</ele><time>2026-04-18T08:58:53.001Z</time></trkpt><trkpt lat="45.42982214662485" lon="8.782414203939252"><ele>132.0</ele><time>2026-04-18T08:58:54.001Z</time></trkpt><trkpt lat="45.42964344707856" lon="8.782314138913083"><ele>131.0</ele><time>2026-04-18T08:58:55.001Z</time></trkpt><trkpt lat="45.42945653648791" lon="8.782232613719767"><ele>130.0</ele><time>2026-04-18T08:58:56.001Z</time></trkpt><trkpt lat="45.42927222005032" lon="8.78215278983856"><ele>129.0</ele><time>2026-04-18T08:58:57.001Z</time></trkpt><trkpt lat="45.42908839568578" lon="8.782070998056172"><ele>129.0</ele><time>2026-04-18T08:58:58.001Z</time></trkpt><trkpt lat="45.42890178401402" lon="8.781989900605112"><ele>129.0</ele><time>2026-04-18T08:58:59.001Z</time></trkpt><trkpt lat="45.42871845568497" lon="8.781912301843393"><ele>129.0</ele><time>2026-04-18T08:59:00.001Z</time></trkpt><trkpt lat="45.42853199074188" lon="8.78183266133252"><ele>128.33333333333334</ele><time>2026-04-18T08:59:01.001Z</time></trkpt><trkpt lat="45.4283370536166" lon="8.781773129046522"><ele>127.66666666666667</ele><time>2026-04-18T08:59:02.001Z</time></trkpt><trkpt lat="45.42815173146089" lon="8.781690211051693"><ele>127.0</ele><time>2026-04-18T08:59:03.001Z</time></trkpt><trkpt lat="45.42796663157187" lon="8.781608012939287"><ele>127.0</ele><time>2026-04-18T08:59:04.001Z</time></trkpt><trkpt lat="45.427792607169096" lon="8.781531480606995"><ele>127.0</ele><time>2026-04-18T08:59:05.001Z</time></trkpt><trkpt lat="45.427634752830976" lon="8.781463078917104"><ele>127.0</ele><time>2026-04-18T08:59:06.001Z</time></trkpt><trkpt lat="45.4274815930641" lon="8.781396496529782"><ele>127.0</ele><time>2026-04-18T08:59:07.001Z</time></trkpt><trkpt lat="45.42732273831765" lon="8.78133070382288"><ele>127.0</ele><time>2026-04-18T08:59:08.001Z</time></trkpt><trkpt lat="45.427165479236756" lon="8.781264332579859"><ele>127.0</ele><time>2026-04-18T08:59:09.001Z</time></trkpt><trkpt lat="45.427008939075655" lon="8.781195510535445"><ele>127.0</ele><time>2026-04-18T08:59:10.001Z</time></trkpt><trkpt lat="45.426846679794885" lon="8.781126020175666"><ele>127.0</ele><time>2026-04-18T08:59:11.001Z</time></trkpt><trkpt lat="45.42668563535184" lon="8.781057938859805"><ele>127.0</ele><time>2026-04-18T08:59:12.001Z</time></trkpt><trkpt lat="45.42652077174952" lon="8.780991185738769"><ele>126.66666666666667</ele><time>2026-04-18T08:59:13.001Z</time></trkpt><trkpt lat="45.42635459056985" lon="8.780899571142063"><ele>126.33333333333334</ele><time>2026-04-18T08:59:14.001Z</time></trkpt><trkpt lat="45.42618051096648" lon="8.780847252234611"><ele>126.0</ele><time>2026-04-18T08:59:15.002Z</time></trkpt><trkpt lat="45.42600510607036" lon="8.780771569463948"><ele>125.66666666666666</ele><time>2026-04-18T08:59:16.002Z</time></trkpt><trkpt lat="45.425829011777466" lon="8.780671513714134"><ele>125.33333333333333</ele><time>2026-04-18T08:59:17.002Z</time></trkpt><trkpt lat="45.42564814800403" lon="8.780594000669065"><ele>125.0</ele><time>2026-04-18T08:59:18.002Z</time></trkpt><trkpt lat="45.425463848800554" lon="8.780515015295583"><ele>125.0</ele><time>2026-04-18T08:59:19.002Z</time></trkpt><trkpt lat="45.42527215307619" lon="8.780432859986547"><ele>125.0</ele><time>2026-04-18T08:59:20.002Z</time></trkpt><trkpt lat="45.42507329050627" lon="8.780372314750638"><ele>125.0</ele><time>2026-04-18T08:59:21.002Z</time></trkpt><trkpt lat="45.424901742114216" lon="8.78027937927169"><ele>125.0</ele><time>2026-04-18T08:59:22.002Z</time></trkpt><trkpt lat="45.42473901667843" lon="8.780235181007022"><ele>125.0</ele><time>2026-04-18T08:59:23.002Z</time></trkpt><trkpt lat="45.42458715495777" lon="8.780172818833385"><ele>125.0</ele><time>2026-04-18T08:59:24.002Z</time></trkpt><trkpt lat="45.42444642941067" lon="8.780089519555924"><ele>124.5</ele><time>2026-04-18T08:59:25.002Z</time></trkpt><trkpt lat="45.424310017184794" lon="8.78005411282023"><ele>124.0</ele><time>2026-04-18T08:59:26.002Z</time></trkpt><trkpt lat="45.42418516081902" lon="8.779978645826947"><ele>123.5</ele><time>2026-04-18T08:59:27.002Z</time></trkpt><trkpt lat="45.42405965963987" lon="8.779925521770398"><ele>123.0</ele><time>2026-04-18T08:59:28.002Z</time></trkpt><trkpt lat="45.423936197377714" lon="8.779874525398931"><ele>123.0</ele><time>2026-04-18T08:59:29.002Z</time></trkpt><trkpt lat="45.423830159235955" lon="8.779851418228027"><ele>123.00000000000001</ele><time>2026-04-18T08:59:30.002Z</time></trkpt><trkpt lat="45.423753139426736" lon="8.779811667948316"><ele>123.00000000000001</ele><time>2026-04-18T08:59:31.002Z</time></trkpt><trkpt lat="45.42368811238247" lon="8.779781027012382"><ele>123.0</ele><time>2026-04-18T08:59:32.002Z</time></trkpt><trkpt lat="45.42358658993213" lon="8.779677677868959"><ele>123.0</ele><time>2026-04-18T08:59:34.002Z</time></trkpt><trkpt lat="45.42353983539509" lon="8.779592126916716"><ele>123.0</ele><time>2026-04-18T08:59:35.002Z</time></trkpt><trkpt lat="45.42348202735805" lon="8.77948870863655"><ele>123.00000000000001</ele><time>2026-04-18T08:59:36.002Z</time></trkpt><trkpt lat="45.42340828116325" lon="8.77938180504725"><ele>123.00000000000001</ele><time>2026-04-18T08:59:37.002Z</time></trkpt><trkpt lat="45.423328584272845" lon="8.779328008143402"><ele>123.0</ele><time>2026-04-18T08:59:38.002Z</time></trkpt><trkpt lat="45.42324896977895" lon="8.779341417292091"><ele>123.0</ele><time>2026-04-18T08:59:39.002Z</time></trkpt><trkpt lat="45.42318107463088" lon="8.779410061561522"><ele>123.0</ele><time>2026-04-18T08:59:40.002Z</time></trkpt><trkpt lat="45.42312844084007" lon="8.779520516365645"><ele>123.00000000000001</ele><time>2026-04-18T08:59:41.002Z</time></trkpt><trkpt lat="45.42310602146407" lon="8.779645909429581"><ele>123.00000000000001</ele><time>2026-04-18T08:59:42.002Z</time></trkpt><trkpt lat="45.42312470010658" lon="8.779792225978959"><ele>123.0</ele><time>2026-04-18T08:59:43.002Z</time></trkpt><trkpt lat="45.4231804067355" lon="8.779913782960843"><ele>123.0</ele><time>2026-04-18T08:59:44.002Z</time></trkpt><trkpt lat="45.423209084071665" lon="8.78007162115005"><ele>123.5</ele><time>2026-04-18T08:59:45.002Z</time></trkpt><trkpt lat="45.423240911124225" lon="8.780228881486412"><ele>124.0</ele><time>2026-04-18T08:59:46.002Z</time></trkpt><trkpt lat="45.4232444397886" lon="8.780405458044129"><ele>124.5</ele><time>2026-04-18T08:59:47.002Z</time></trkpt><trkpt lat="45.42322335609188" lon="8.78059709162198"><ele>125.0</ele><time>2026-04-18T08:59:48.002Z</time></trkpt><trkpt lat="45.42319083394307" lon="8.780792610612473"><ele>125.0</ele><time>2026-04-18T08:59:49.002Z</time></trkpt><trkpt lat="45.423150060060486" lon="8.780988113837854"><ele>125.0</ele><time>2026-04-18T08:59:50.003Z</time></trkpt><trkpt lat="45.42310876485144" lon="8.781177921371068"><ele>125.0</ele><time>2026-04-18T08:59:51.003Z</time></trkpt><trkpt lat="45.423069668771035" lon="8.781378304248845"><ele>125.0</ele><time>2026-04-18T08:59:52.003Z</time></trkpt><trkpt lat="45.42302941338776" lon="8.781579952634495"><ele>125.0</ele><time>2026-04-18T08:59:53.003Z</time></trkpt><trkpt lat="45.42298669367879" lon="8.781784124577834"><ele>125.0</ele><time>2026-04-18T08:59:54.003Z</time></trkpt><trkpt lat="45.422931157283635" lon="8.781983523864284"><ele>125.0</ele><time>2026-04-18T08:59:55.003Z</time></trkpt><trkpt lat="45.4228713430673" lon="8.782185743658886"><ele>125.0</ele><time>2026-04-18T08:59:56.003Z</time></trkpt><trkpt lat="45.42280774722254" lon="8.782390194395497"><ele>125.0</ele><time>2026-04-18T08:59:57.003Z</time></trkpt><trkpt lat="45.42274053126866" lon="8.782595844303692"><ele>125.0</ele><time>2026-04-18T08:59:58.003Z</time></trkpt><trkpt lat="45.422670328655684" lon="8.782806096605729"><ele>124.66666666666666</ele><time>2026-04-18T08:59:59.003Z</time></trkpt><trkpt lat="45.42259747751422" lon="8.783010506805583"><ele>124.33333333333334</ele><time>2026-04-18T09:00:00.003Z</time></trkpt><trkpt lat="45.422516820464274" lon="8.783214608856364"><ele>124.0</ele><time>2026-04-18T09:00:01.003Z</time></trkpt><trkpt lat="45.42243281567842" lon="8.783416207904528"><ele>124.33333333333334</ele><time>2026-04-18T09:00:02.003Z</time></trkpt><trkpt lat="45.42234988562887" lon="8.783609167469123"><ele>124.66666666666666</ele><time>2026-04-18T09:00:03.003Z</time></trkpt><trkpt lat="45.42226123352321" lon="8.783805911063668"><ele>125.0</ele><time>2026-04-18T09:00:04.003Z</time></trkpt><trkpt lat="45.422166695205384" lon="8.784000902273329"><ele>125.0</ele><time>2026-04-18T09:00:05.003Z</time></trkpt><trkpt lat="45.42206749218796" lon="8.784192124121873"><ele>125.0</ele><time>2026-04-18T09:00:06.003Z</time></trkpt><trkpt lat="45.421967211313486" lon="8.78438614832153"><ele>125.0</ele><time>2026-04-18T09:00:07Z</time></trkpt><trkpt lat="45.42186564212538" lon="8.784572555573547"><ele>125.0</ele><time>2026-04-18T09:00:08Z</time></trkpt><trkpt lat="45.42175702325827" lon="8.784761575020617"><ele>125.0</ele><time>2026-04-18T09:00:09Z</time></trkpt><trkpt lat="45.421641204641865" lon="8.784935581649219"><ele>125.0</ele><time>2026-04-18T09:00:10Z</time></trkpt><trkpt lat="45.4215228160087" lon="8.785108733830574"><ele>125.0</ele><time>2026-04-18T09:00:11Z</time></trkpt><trkpt lat="45.42139971217251" lon="8.785272181963997"><ele>125.0</ele><time>2026-04-18T09:00:12Z</time></trkpt><trkpt lat="45.42127336526704" lon="8.785433269677936"><ele>125.0</ele><time>2026-04-18T09:00:13Z</time></trkpt><trkpt lat="45.42114444046144" lon="8.785600501772924"><ele>124.66666666666666</ele><time>2026-04-18T09:00:14Z</time></trkpt><trkpt lat="45.42101499764425" lon="8.785748145407108"><ele>124.33333333333334</ele><time>2026-04-18T09:00:15Z</time></trkpt><trkpt lat="45.420875178225" lon="8.785903245832948"><ele>124.0</ele><time>2026-04-18T09:00:16Z</time></trkpt><trkpt lat="45.420736286250296" lon="8.786048036272609"><ele>124.0</ele><time>2026-04-18T09:00:17Z</time></trkpt><trkpt lat="45.42059240413596" lon="8.786195606972106"><ele>124.0</ele><time>2026-04-18T09:00:18Z</time></trkpt><trkpt lat="45.42045134463477" lon="8.786334772309356"><ele>124.0</ele><time>2026-04-18T09:00:19Z</time></trkpt><trkpt lat="45.42030882841031" lon="8.786464879183075"><ele>123.33333333333334</ele><time>2026-04-18T09:00:20Z</time></trkpt><trkpt lat="45.42016885066568" lon="8.786583078689597"><ele>122.66666666666666</ele><time>2026-04-18T09:00:21Z</time></trkpt><trkpt lat="45.42002600067497" lon="8.786707339722454"><ele>122.0</ele><time>2026-04-18T09:00:22Z</time></trkpt><trkpt lat="45.41988351724737" lon="8.786834054752479"><ele>122.0</ele><time>2026-04-18T09:00:23Z</time></trkpt><trkpt lat="45.41974574264067" lon="8.786955433614036"><ele>122.0</ele><time>2026-04-18T09:00:24Z</time></trkpt><trkpt lat="45.4196007321055" lon="8.78708885893092"><ele>122.0</ele><time>2026-04-18T09:00:25Z</time></trkpt><trkpt lat="45.41946010189941" lon="8.787213763120434"><ele>122.33333333333333</ele><time>2026-04-18T09:00:26Z</time></trkpt><trkpt lat="45.419320225128956" lon="8.787339103044456"><ele>122.66666666666666</ele><time>2026-04-18T09:00:27Z</time></trkpt><trkpt lat="45.41917849014486" lon="8.787467098842233"><ele>123.0</ele><time>2026-04-18T09:00:28Z</time></trkpt><trkpt lat="45.41903763019119" lon="8.787595890107067"><ele>122.66666666666666</ele><time>2026-04-18T09:00:29Z</time></trkpt><trkpt lat="45.41889820717501" lon="8.787722923584532"><ele>122.33333333333333</ele><time>2026-04-18T09:00:30Z</time></trkpt><trkpt lat="45.418756033483454" lon="8.787851263444283"><ele>122.0</ele><time>2026-04-18T09:00:31Z</time></trkpt><trkpt lat="45.41861207013396" lon="8.787980609120098"><ele>121.0</ele><time>2026-04-18T09:00:32Z</time></trkpt><trkpt lat="45.418465006340746" lon="8.788110750537028"><ele>120.0</ele><time>2026-04-18T09:00:33Z</time></trkpt><trkpt lat="45.41831737295776" lon="8.788239050281367"><ele>119.0</ele><time>2026-04-18T09:00:34Z</time></trkpt><trkpt lat="45.418166899050426" lon="8.788366923120677"><ele>119.0</ele><time>2026-04-18T09:00:35Z</time></trkpt><trkpt lat="45.41801649771614" lon="8.78849604512783"><ele>119.0</ele><time>2026-04-18T09:00:36Z</time></trkpt><trkpt lat="45.41787584475926" lon="8.78860993991577"><ele>119.0</ele><time>2026-04-18T09:00:37.001Z</time></trkpt><trkpt lat="45.417743562114694" lon="8.788709287764084"><ele>120.0</ele><time>2026-04-18T09:00:38.001Z</time></trkpt><trkpt lat="45.41761685774229" lon="8.78880300505765"><ele>121.0</ele><time>2026-04-18T09:00:39.001Z</time></trkpt><trkpt lat="45.417501915020914" lon="8.788888522373885"><ele>122.0</ele><time>2026-04-18T09:00:40.001Z</time></trkpt><trkpt lat="45.41738359733525" lon="8.78897870725481"><ele>123.0</ele><time>2026-04-18T09:00:41.001Z</time></trkpt><trkpt lat="45.41725864327873" lon="8.789070828810612"><ele>123.0</ele><time>2026-04-18T09:00:42.001Z</time></trkpt><trkpt lat="45.417133066151244" lon="8.78916086313942"><ele>123.0</ele><time>2026-04-18T09:00:43.001Z</time></trkpt><trkpt lat="45.41701815044766" lon="8.789233857291652"><ele>123.0</ele><time>2026-04-18T09:00:44.001Z</time></trkpt><trkpt lat="45.41691398667159" lon="8.78929637510799"><ele>123.0</ele><time>2026-04-18T09:00:45.001Z</time></trkpt><trkpt lat="45.416805363514655" lon="8.789361068705697"><ele>123.0</ele><time>2026-04-18T09:00:46.001Z</time></trkpt><trkpt lat="45.41668526970882" lon="8.789414111323785"><ele>123.0</ele><time>2026-04-18T09:00:47.001Z</time></trkpt><trkpt lat="45.416556599267736" lon="8.789424588615132"><ele>123.0</ele><time>2026-04-18T09:00:48.001Z</time></trkpt><trkpt lat="45.41642930313317" lon="8.789395108226568"><ele>123.0</ele><time>2026-04-18T09:00:49.001Z</time></trkpt><trkpt lat="45.416316832445396" lon="8.78941032079062"><ele>122.75</ele><time>2026-04-18T09:00:50.001Z</time></trkpt><trkpt lat="45.41621753813557" lon="8.789468879321372"><ele>122.5</ele><time>2026-04-18T09:00:51.001Z</time></trkpt><trkpt lat="45.416146937801294" lon="8.789631971870586"><ele>122.25</ele><time>2026-04-18T09:00:52.001Z</time></trkpt><trkpt lat="45.41605143406975" lon="8.789738427859293"><ele>122.0</ele><time>2026-04-18T09:00:53.001Z</time></trkpt><trkpt lat="45.415931376623526" lon="8.789816424101396"><ele>122.0</ele><time>2026-04-18T09:00:54.001Z</time></trkpt><trkpt lat="45.41580402013663" lon="8.789872419222428"><ele>122.0</ele><time>2026-04-18T09:00:55.001Z</time></trkpt><trkpt lat="45.415665396664345" lon="8.789916653064678"><ele>122.0</ele><time>2026-04-18T09:00:56.001Z</time></trkpt><trkpt lat="45.4155192940365" lon="8.789962589438245"><ele>122.0</ele><time>2026-04-18T09:00:57.001Z</time></trkpt><trkpt lat="45.415378004871165" lon="8.790010678570976"><ele>121.75</ele><time>2026-04-18T09:00:58.001Z</time></trkpt><trkpt lat="45.415236719717385" lon="8.790056078792723"><ele>121.5</ele><time>2026-04-18T09:00:59.001Z</time></trkpt><trkpt lat="45.41509407110206" lon="8.79009523492735"><ele>121.25</ele><time>2026-04-18T09:01:00.001Z</time></trkpt><trkpt lat="45.41494762722598" lon="8.7901327960786"><ele>121.0</ele><time>2026-04-18T09:01:01.001Z</time></trkpt><trkpt lat="45.414802477634424" lon="8.790165693374403"><ele>120.75</ele><time>2026-04-18T09:01:02.001Z</time></trkpt><trkpt lat="45.41465432923243" lon="8.790200079955031"><ele>120.5</ele><time>2026-04-18T09:01:03.001Z</time></trkpt><trkpt lat="45.41450468950923" lon="8.790232563909594"><ele>120.25</ele><time>2026-04-18T09:01:04.001Z</time></trkpt><trkpt lat="45.414359517489295" lon="8.79026299333849"><ele>120.0</ele><time>2026-04-18T09:01:05.001Z</time></trkpt><trkpt lat="45.41422023628171" lon="8.790289005664457"><ele>120.0</ele><time>2026-04-18T09:01:06.001Z</time></trkpt><trkpt lat="45.41407784095906" lon="8.79031174366326"><ele>120.0</ele><time>2026-04-18T09:01:07.001Z</time></trkpt><trkpt lat="45.413931582665725" lon="8.790330109666206"><ele>120.0</ele><time>2026-04-18T09:01:08.001Z</time></trkpt><trkpt lat="45.4137816931739" lon="8.790348344423816"><ele>120.0</ele><time>2026-04-18T09:01:09.001Z</time></trkpt><trkpt lat="45.41363747940982" lon="8.790366874767559"><ele>120.25</ele><time>2026-04-18T09:01:10.001Z</time></trkpt><trkpt lat="45.41349201357603" lon="8.790389728407725"><ele>120.5</ele><time>2026-04-18T09:01:11.001Z</time></trkpt><trkpt lat="45.41334405946393" lon="8.790422007135854"><ele>120.75</ele><time>2026-04-18T09:01:12.001Z</time></trkpt><trkpt lat="45.4131960700998" lon="8.790447086444361"><ele>121.0</ele><time>2026-04-18T09:01:13.001Z</time></trkpt><trkpt lat="45.41305003475896" lon="8.79046908516092"><ele>121.33333333333334</ele><time>2026-04-18T09:01:14.002Z</time></trkpt><trkpt lat="45.412899109386764" lon="8.790496345489668"><ele>121.66666666666666</ele><time>2026-04-18T09:01:15.002Z</time></trkpt><trkpt lat="45.412751883149895" lon="8.79051560911186"><ele>122.0</ele><time>2026-04-18T09:01:16.002Z</time></trkpt><trkpt lat="45.41260269755489" lon="8.790544674140857"><ele>122.0</ele><time>2026-04-18T09:01:17.002Z</time></trkpt><trkpt lat="45.41245503745966" lon="8.790568858462107"><ele>122.0</ele><time>2026-04-18T09:01:18.002Z</time></trkpt><trkpt lat="45.4123072083531" lon="8.790593491546282"><ele>122.0</ele><time>2026-04-18T09:01:19.002Z</time></trkpt><trkpt lat="45.412157299154025" lon="8.790623296760986"><ele>122.0</ele><time>2026-04-18T09:01:20.002Z</time></trkpt><trkpt lat="45.41200372057978" lon="8.790649775346807"><ele>122.0</ele><time>2026-04-18T09:01:21.002Z</time></trkpt><trkpt lat="45.41184419671075" lon="8.790676864877735"><ele>122.0</ele><time>2026-04-18T09:01:22.002Z</time></trkpt><trkpt lat="45.4116841231615" lon="8.790706294591336"><ele>122.0</ele><time>2026-04-18T09:01:23.002Z</time></trkpt><trkpt lat="45.411516301149895" lon="8.790741334437408"><ele>122.0</ele><time>2026-04-18T09:01:24.002Z</time></trkpt><trkpt lat="45.41135155483753" lon="8.790765582042448"><ele>122.0</ele><time>2026-04-18T09:01:25.002Z</time></trkpt><trkpt lat="45.41118434593014" lon="8.790791643693359"><ele>122.0</ele><time>2026-04-18T09:01:26.002Z</time></trkpt><trkpt lat="45.411013420220655" lon="8.790822462270294"><ele>122.0</ele><time>2026-04-18T09:01:27.002Z</time></trkpt><trkpt lat="45.41084223179934" lon="8.790843499818658"><ele>122.0</ele><time>2026-04-18T09:01:28.002Z</time></trkpt><trkpt lat="45.410668086184856" lon="8.790876897442272"><ele>122.0</ele><time>2026-04-18T09:01:29.002Z</time></trkpt><trkpt lat="45.41049609295892" lon="8.79090868994118"><ele>121.33333333333333</ele><time>2026-04-18T09:01:30.002Z</time></trkpt><trkpt lat="45.41032289127772" lon="8.79094109879743"><ele>120.66666666666666</ele><time>2026-04-18T09:01:31.002Z</time></trkpt><trkpt lat="45.410150406515235" lon="8.790976448829488"><ele>120.0</ele><time>2026-04-18T09:01:32.002Z</time></trkpt><trkpt lat="45.40997708285501" lon="8.791006688198678"><ele>120.33333333333334</ele><time>2026-04-18T09:01:33.002Z</time></trkpt><trkpt lat="45.40980310107352" lon="8.791035633821583"><ele>120.66666666666667</ele><time>2026-04-18T09:01:34.002Z</time></trkpt><trkpt lat="45.4096302665044" lon="8.791064318923189"><ele>121.0</ele><time>2026-04-18T09:01:35.002Z</time></trkpt><trkpt lat="45.40945656282302" lon="8.791091895276985"><ele>121.0</ele><time>2026-04-18T09:01:36.002Z</time></trkpt><trkpt lat="45.40929571936007" lon="8.791119008216016"><ele>121.0</ele><time>2026-04-18T09:01:37.002Z</time></trkpt><trkpt lat="45.409144018572746" lon="8.791144441346011"><ele>121.0</ele><time>2026-04-18T09:01:38.002Z</time></trkpt><trkpt lat="45.40898728400687" lon="8.791170054732552"><ele>121.0</ele><time>2026-04-18T09:01:39.002Z</time></trkpt><trkpt lat="45.40883942052831" lon="8.79119354795256"><ele>121.0</ele><time>2026-04-18T09:01:40.002Z</time></trkpt><trkpt lat="45.40870209909334" lon="8.791219491234692"><ele>121.0</ele><time>2026-04-18T09:01:41.002Z</time></trkpt><trkpt lat="45.40857316547028" lon="8.791243342333463"><ele>121.0</ele><time>2026-04-18T09:01:42.002Z</time></trkpt><trkpt lat="45.40845125722925" lon="8.791264435095014"><ele>121.0</ele><time>2026-04-18T09:01:43.002Z</time></trkpt><trkpt lat="45.40833531970699" lon="8.79128606525859"><ele>121.0</ele><time>2026-04-18T09:01:44.002Z</time></trkpt><trkpt lat="45.40822145667263" lon="8.791305955536208"><ele>121.0</ele><time>2026-04-18T09:01:45.002Z</time></trkpt><trkpt lat="45.40809984090629" lon="8.791332659031443"><ele>121.0</ele><time>2026-04-18T09:01:46.002Z</time></trkpt><trkpt lat="45.407979425857526" lon="8.791354299244771"><ele>121.0</ele><time>2026-04-18T09:01:47.002Z</time></trkpt><trkpt lat="45.40786579746342" lon="8.79135411830427"><ele>121.0</ele><time>2026-04-18T09:01:48.002Z</time></trkpt><trkpt lat="45.407762645027844" lon="8.791308828703169"><ele>121.0</ele><time>2026-04-18T09:01:49.002Z</time></trkpt><trkpt lat="45.40767476675186" lon="8.791206224692285"><ele>121.0</ele><time>2026-04-18T09:01:50.003Z</time></trkpt><trkpt lat="45.407586297972465" lon="8.79110733186242"><ele>121.0</ele><time>2026-04-18T09:01:51.003Z</time></trkpt><trkpt lat="45.4074840347263" lon="8.791048847152249"><ele>121.0</ele><time>2026-04-18T09:01:52.003Z</time></trkpt><trkpt lat="45.40738360145682" lon="8.791055206429958"><ele>121.0</ele><time>2026-04-18T09:01:53.003Z</time></trkpt><trkpt lat="45.40728471790121" lon="8.791106584604579"><ele>121.0</ele><time>2026-04-18T09:01:54.003Z</time></trkpt><trkpt lat="45.407192616125876" lon="8.79119646628434"><ele>121.0</ele><time>2026-04-18T09:01:55.003Z</time></trkpt><trkpt lat="45.40711435624416" lon="8.791314626223102"><ele>121.0</ele><time>2026-04-18T09:01:56.003Z</time></trkpt><trkpt lat="45.40703448193021" lon="8.791431827181766"><ele>120.5</ele><time>2026-04-18T09:01:57.003Z</time></trkpt><trkpt lat="45.406940589048176" lon="8.791516796126137"><ele>120.0</ele><time>2026-04-18T09:01:58.003Z</time></trkpt><trkpt lat="45.406825691332834" lon="8.791563582302333"><ele>119.5</ele><time>2026-04-18T09:01:59.003Z</time></trkpt><trkpt lat="45.406699083271384" lon="8.791566419186152"><ele>119.0</ele><time>2026-04-18T09:02:00.003Z</time></trkpt><trkpt lat="45.406571053309484" lon="8.791559410873491"><ele>119.0</ele><time>2026-04-18T09:02:01.003Z</time></trkpt><trkpt lat="45.406444871134056" lon="8.791554777475323"><ele>119.0</ele><time>2026-04-18T09:02:02.003Z</time></trkpt><trkpt lat="45.40632094848581" lon="8.791554373801926"><ele>119.0</ele><time>2026-04-18T09:02:03.003Z</time></trkpt><trkpt lat="45.40619251155029" lon="8.791552132849501"><ele>119.0</ele><time>2026-04-18T09:02:04.003Z</time></trkpt><trkpt lat="45.406061011879395" lon="8.791549807123769"><ele>119.25</ele><time>2026-04-18T09:02:05.003Z</time></trkpt><trkpt lat="45.40592989330578" lon="8.791542838036813"><ele>119.5</ele><time>2026-04-18T09:02:06.003Z</time></trkpt><trkpt lat="45.40580504907611" lon="8.791535735569724"><ele>119.75</ele><time>2026-04-18T09:02:07.003Z</time></trkpt><trkpt lat="45.40568448773256" lon="8.791531131250933"><ele>120.0</ele><time>2026-04-18T09:02:08.003Z</time></trkpt><trkpt lat="45.405566545905494" lon="8.791520490631825"><ele>119.75</ele><time>2026-04-18T09:02:09.003Z</time></trkpt><trkpt lat="45.40544225853939" lon="8.791509747882868"><ele>119.5</ele><time>2026-04-18T09:02:10.003Z</time></trkpt><trkpt lat="45.40531553012463" lon="8.791500843506089"><ele>119.25</ele><time>2026-04-18T09:02:11.003Z</time></trkpt><trkpt lat="45.405187834444874" lon="8.791486604385684"><ele>119.0</ele><time>2026-04-18T09:02:12.003Z</time></trkpt><trkpt lat="45.40506228488686" lon="8.791473606960626"><ele>119.0</ele><time>2026-04-18T09:02:13Z</time></trkpt><trkpt lat="45.40493489907228" lon="8.791464902401737"><ele>119.0</ele><time>2026-04-18T09:02:14Z</time></trkpt><trkpt lat="45.40480346121294" lon="8.791459073092009"><ele>119.0</ele><time>2026-04-18T09:02:15Z</time></trkpt><trkpt lat="45.404665556158974" lon="8.7914540678504"><ele>119.0</ele><time>2026-04-18T09:02:16Z</time></trkpt><trkpt lat="45.40452415193264" lon="8.7914470299724"><ele>119.5</ele><time>2026-04-18T09:02:17Z</time></trkpt><trkpt lat="45.40438155219509" lon="8.791435461129025"><ele>120.0</ele><time>2026-04-18T09:02:18Z</time></trkpt><trkpt lat="45.40423252574169" lon="8.791423852222277"><ele>120.5</ele><time>2026-04-18T09:02:19Z</time></trkpt><trkpt lat="45.40408796201275" lon="8.791418558326498"><ele>121.0</ele><time>2026-04-18T09:02:20Z</time></trkpt><trkpt lat="45.403945502799594" lon="8.791416383179376"><ele>120.5</ele><time>2026-04-18T09:02:21Z</time></trkpt><trkpt lat="45.40380557661166" lon="8.791407426877296"><ele>120.0</ele><time>2026-04-18T09:02:22Z</time></trkpt><trkpt lat="45.40366186173614" lon="8.791392494284885"><ele>119.5</ele><time>2026-04-18T09:02:23Z</time></trkpt><trkpt lat="45.40351606105187" lon="8.791375569064291"><ele>119.0</ele><time>2026-04-18T09:02:24Z</time></trkpt><trkpt lat="45.40337060332086" lon="8.791360762307136"><ele>119.0</ele><time>2026-04-18T09:02:25Z</time></trkpt><trkpt lat="45.403221768274406" lon="8.791351928727076"><ele>119.0</ele><time>2026-04-18T09:02:26Z</time></trkpt><trkpt lat="45.40307152009774" lon="8.791337656330855"><ele>119.0</ele><time>2026-04-18T09:02:27Z</time></trkpt><trkpt lat="45.40292607593623" lon="8.79132394334614"><ele>119.0</ele><time>2026-04-18T09:02:28Z</time></trkpt><trkpt lat="45.40277981552409" lon="8.791316729389989"><ele>119.5</ele><time>2026-04-18T09:02:29Z</time></trkpt><trkpt lat="45.402636412312496" lon="8.791313286510896"><ele>120.0</ele><time>2026-04-18T09:02:30Z</time></trkpt><trkpt lat="45.40249334218054" lon="8.791305667445457"><ele>120.5</ele><time>2026-04-18T09:02:31Z</time></trkpt><trkpt lat="45.402350955108865" lon="8.791289752676777"><ele>121.0</ele><time>2026-04-18T09:02:32Z</time></trkpt><trkpt lat="45.402208580407965" lon="8.79127335256278"><ele>120.75</ele><time>2026-04-18T09:02:33Z</time></trkpt><trkpt lat="45.402065037723574" lon="8.791259552189324"><ele>120.5</ele><time>2026-04-18T09:02:34Z</time></trkpt><trkpt lat="45.40192445807922" lon="8.791253671711091"><ele>120.25</ele><time>2026-04-18T09:02:35Z</time></trkpt><trkpt lat="45.40178438617919" lon="8.791246712978712"><ele>120.0</ele><time>2026-04-18T09:02:36Z</time></trkpt><trkpt lat="45.40164325179564" lon="8.791235665689461"><ele>120.0</ele><time>2026-04-18T09:02:37Z</time></trkpt><trkpt lat="45.40150780038251" lon="8.791225526578115"><ele>120.0</ele><time>2026-04-18T09:02:38.001Z</time></trkpt><trkpt lat="45.40136916987223" lon="8.791219268524586"><ele>120.0</ele><time>2026-04-18T09:02:39.001Z</time></trkpt><trkpt lat="45.4012367549001" lon="8.79121136498672"><ele>120.0</ele><time>2026-04-18T09:02:40.001Z</time></trkpt><trkpt lat="45.401108168196785" lon="8.791204400433367"><ele>119.75</ele><time>2026-04-18T09:02:41.001Z</time></trkpt><trkpt lat="45.400977770006136" lon="8.79119838730705"><ele>119.5</ele><time>2026-04-18T09:02:42.001Z</time></trkpt><trkpt lat="45.400846279805734" lon="8.79118730749363"><ele>119.25</ele><time>2026-04-18T09:02:43.001Z</time></trkpt><trkpt lat="45.40070944400333" lon="8.79117311235445"><ele>119.0</ele><time>2026-04-18T09:02:44.001Z</time></trkpt><trkpt lat="45.400569704730806" lon="8.791160579780664"><ele>119.75</ele><time>2026-04-18T09:02:45.001Z</time></trkpt><trkpt lat="45.40042828642298" lon="8.791147901456803"><ele>120.5</ele><time>2026-04-18T09:02:46.001Z</time></trkpt><trkpt lat="45.40028109490352" lon="8.791136663297786"><ele>121.25</ele><time>2026-04-18T09:02:47.001Z</time></trkpt><trkpt lat="45.400128075266785" lon="8.791129813208334"><ele>122.0</ele><time>2026-04-18T09:02:48.001Z</time></trkpt><trkpt lat="45.399978980997965" lon="8.791116072983495"><ele>122.0</ele><time>2026-04-18T09:02:49.001Z</time></trkpt><trkpt lat="45.399825020492685" lon="8.791101144144994"><ele>122.0</ele><time>2026-04-18T09:02:50.001Z</time></trkpt><trkpt lat="45.399671947417716" lon="8.791083302485381"><ele>122.0</ele><time>2026-04-18T09:02:51.001Z</time></trkpt><trkpt lat="45.39952455627129" lon="8.791074570759735"><ele>122.0</ele><time>2026-04-18T09:02:52.001Z</time></trkpt><trkpt lat="45.39938077810744" lon="8.791072816781504"><ele>122.0</ele><time>2026-04-18T09:02:53.001Z</time></trkpt><trkpt lat="45.39923461025725" lon="8.791066823714754"><ele>122.0</ele><time>2026-04-18T09:02:54.001Z</time></trkpt><trkpt lat="45.39908742354554" lon="8.791053306651323"><ele>122.0</ele><time>2026-04-18T09:02:55.001Z</time></trkpt><trkpt lat="45.39894085706157" lon="8.791037783554264"><ele>122.0</ele><time>2026-04-18T09:02:56.001Z</time></trkpt><trkpt lat="45.39879681062101" lon="8.791026475399969"><ele>122.0</ele><time>2026-04-18T09:02:57.001Z</time></trkpt><trkpt lat="45.39865302170223" lon="8.791016895423635"><ele>122.0</ele><time>2026-04-18T09:02:58.001Z</time></trkpt><trkpt lat="45.39851008432002" lon="8.79101076414813"><ele>122.0</ele><time>2026-04-18T09:02:59.001Z</time></trkpt><trkpt lat="45.39836434146985" lon="8.791006481643587"><ele>122.0</ele><time>2026-04-18T09:03:00.001Z</time></trkpt><trkpt lat="45.39822001984175" lon="8.790993132314012"><ele>122.0</ele><time>2026-04-18T09:03:01.001Z</time></trkpt><trkpt lat="45.398070127557745" lon="8.790985904142367"><ele>122.0</ele><time>2026-04-18T09:03:02.001Z</time></trkpt><trkpt lat="45.39791802951159" lon="8.790978023204143"><ele>122.0</ele><time>2026-04-18T09:03:03.001Z</time></trkpt><trkpt lat="45.39776817816864" lon="8.790966363743053"><ele>122.0</ele><time>2026-04-18T09:03:04.001Z</time></trkpt><trkpt lat="45.39762628081966" lon="8.790955288121417"><ele>122.0</ele><time>2026-04-18T09:03:05.001Z</time></trkpt><trkpt lat="45.39750004240036" lon="8.790935566421044"><ele>122.0</ele><time>2026-04-18T09:03:06.001Z</time></trkpt><trkpt lat="45.39737959979167" lon="8.79093294824968"><ele>122.0</ele><time>2026-04-18T09:03:07.001Z</time></trkpt><trkpt lat="45.397267805304125" lon="8.790925201172012"><ele>121.8</ele><time>2026-04-18T09:03:08.001Z</time></trkpt><trkpt lat="45.397162711660336" lon="8.790915234527738"><ele>121.6</ele><time>2026-04-18T09:03:09.001Z</time></trkpt><trkpt lat="45.39706694016298" lon="8.790907012193891"><ele>121.39999999999999</ele><time>2026-04-18T09:03:10.001Z</time></trkpt><trkpt lat="45.396987986361275" lon="8.79089411559095"><ele>121.19999999999999</ele><time>2026-04-18T09:03:11.001Z</time></trkpt><trkpt lat="45.39692161692525" lon="8.790869677997398"><ele>121.0</ele><time>2026-04-18T09:03:12.001Z</time></trkpt><trkpt lat="45.39681603181138" lon="8.790769894876021"><ele>121.00000000000001</ele><time>2026-04-18T09:03:14.001Z</time></trkpt><trkpt lat="45.39677297344248" lon="8.790693743483116"><ele>121.0</ele><time>2026-04-18T09:03:15.001Z</time></trkpt><trkpt lat="45.396700817374146" lon="8.790584206353952"><ele>121.0</ele><time>2026-04-18T09:03:17.002Z</time></trkpt><trkpt lat="45.396763980811734" lon="8.790426410156803"><ele>121.0</ele><time>2026-04-18T09:03:18.002Z</time></trkpt><trkpt lat="45.396791379325514" lon="8.790336043685603"><ele>121.00000000000001</ele><time>2026-04-18T09:03:19.002Z</time></trkpt><trkpt lat="45.396838332434946" lon="8.790271942698292"><ele>121.0</ele><time>2026-04-18T09:03:20.002Z</time></trkpt><trkpt lat="45.39688071525827" lon="8.790177621048375"><ele>121.0</ele><time>2026-04-18T09:03:22.002Z</time></trkpt><trkpt lat="45.39682007998345" lon="8.79006934220631"><ele>121.0</ele><time>2026-04-18T09:03:24.002Z</time></trkpt><trkpt lat="45.396698918450845" lon="8.790127293422776"><ele>121.0</ele><time>2026-04-18T09:03:26.002Z</time></trkpt><trkpt lat="45.39663183917676" lon="8.790174163000387"><ele>121.0</ele><time>2026-04-18T09:03:27.002Z</time></trkpt><trkpt lat="45.39654801990527" lon="8.79019926793883"><ele>121.0</ele><time>2026-04-18T09:03:28.002Z</time></trkpt><trkpt lat="45.39646280556968" lon="8.790247448079802"><ele>121.0</ele><time>2026-04-18T09:03:29.002Z</time></trkpt><trkpt lat="45.39636723676836" lon="8.790301386918431"><ele>121.0</ele><time>2026-04-18T09:03:30.002Z</time></trkpt><trkpt lat="45.396265767521065" lon="8.790358655992163"><ele>121.0</ele><time>2026-04-18T09:03:31.002Z</time></trkpt><trkpt lat="45.39616400692286" lon="8.790437185297849"><ele>121.0</ele><time>2026-04-18T09:03:32.002Z</time></trkpt><trkpt lat="45.39605659911013" lon="8.790495757938462"><ele>121.0</ele><time>2026-04-18T09:03:33.002Z</time></trkpt><trkpt lat="45.3959477650885" lon="8.790559378406073"><ele>120.75</ele><time>2026-04-18T09:03:34.002Z</time></trkpt><trkpt lat="45.39582502395865" lon="8.790601854164592"><ele>120.5</ele><time>2026-04-18T09:03:35.002Z</time></trkpt><trkpt lat="45.39571152480765" lon="8.790685969828662"><ele>120.25</ele><time>2026-04-18T09:03:36.002Z</time></trkpt><trkpt lat="45.395591917046396" lon="8.790730169136511"><ele>120.0</ele><time>2026-04-18T09:03:37.002Z</time></trkpt><trkpt lat="45.3954743039431" lon="8.7907957469097"><ele>120.0</ele><time>2026-04-18T09:03:38.002Z</time></trkpt><trkpt lat="45.39536422896756" lon="8.790873221491443"><ele>120.0</ele><time>2026-04-18T09:03:39.002Z</time></trkpt><trkpt lat="45.39525326754654" lon="8.790939516886132"><ele>120.0</ele><time>2026-04-18T09:03:40.002Z</time></trkpt><trkpt lat="45.3951405357909" lon="8.791003346727441"><ele>120.0</ele><time>2026-04-18T09:03:41.002Z</time></trkpt><trkpt lat="45.39502853590337" lon="8.791056378217176"><ele>120.2</ele><time>2026-04-18T09:03:42.002Z</time></trkpt><trkpt lat="45.39491284037975" lon="8.791083236665758"><ele>120.4</ele><time>2026-04-18T09:03:43.002Z</time></trkpt><trkpt lat="45.39480205916968" lon="8.7911299183761"><ele>120.6</ele><time>2026-04-18T09:03:44.002Z</time></trkpt><trkpt lat="45.39469841281923" lon="8.791170323994125"><ele>120.8</ele><time>2026-04-18T09:03:45.002Z</time></trkpt><trkpt lat="45.39459453611148" lon="8.791210819398056"><ele>121.0</ele><time>2026-04-18T09:03:46.002Z</time></trkpt><trkpt lat="45.39449171699715" lon="8.791250902508736"><ele>121.0</ele><time>2026-04-18T09:03:47.002Z</time></trkpt><trkpt lat="45.394381852870914" lon="8.791293732013965"><ele>121.0</ele><time>2026-04-18T09:03:48.002Z</time></trkpt><trkpt lat="45.39427669092406" lon="8.791334728430828"><ele>121.0</ele><time>2026-04-18T09:03:49.002Z</time></trkpt><trkpt lat="45.39417964326168" lon="8.791390391643064"><ele>121.0</ele><time>2026-04-18T09:03:50.002Z</time></trkpt><trkpt lat="45.39407569530191" lon="8.79141636058893"><ele>121.0</ele><time>2026-04-18T09:03:51.002Z</time></trkpt><trkpt lat="45.39398259480697" lon="8.791478182188559"><ele>121.0</ele><time>2026-04-18T09:03:52.002Z</time></trkpt><trkpt lat="45.39387845813556" lon="8.7915316707124"><ele>121.0</ele><time>2026-04-18T09:03:53.002Z</time></trkpt><trkpt lat="45.393794277440485" lon="8.791573090454412"><ele>121.0</ele><time>2026-04-18T09:03:54.003Z</time></trkpt><trkpt lat="45.39371054858911" lon="8.791621069042538"><ele>121.0</ele><time>2026-04-18T09:03:55.003Z</time></trkpt><trkpt lat="45.39362234477125" lon="8.79164322799727"><ele>121.0</ele><time>2026-04-18T09:03:56.003Z</time></trkpt><trkpt lat="45.39354638700642" lon="8.791682454891731"><ele>121.00000000000001</ele><time>2026-04-18T09:03:57.003Z</time></trkpt><trkpt lat="45.393482379092376" lon="8.79170994789279"><ele>121.0</ele><time>2026-04-18T09:03:58.003Z</time></trkpt><trkpt lat="45.393383381909615" lon="8.791750186849198"><ele>121.0</ele><time>2026-04-18T09:04:00.003Z</time></trkpt><trkpt lat="45.39331532848356" lon="8.79173532629116"><ele>121.0</ele><time>2026-04-18T09:04:02.003Z</time></trkpt><trkpt lat="45.393252224981445" lon="8.791607282802714"><ele>121.00000000000001</ele><time>2026-04-18T09:04:04.003Z</time></trkpt><trkpt lat="45.393274575151935" lon="8.791497309227342"><ele>121.0</ele><time>2026-04-18T09:04:05.003Z</time></trkpt><trkpt lat="45.393254164337684" lon="8.791390658228996"><ele>121.0</ele><time>2026-04-18T09:04:06.003Z</time></trkpt><trkpt lat="45.39323334152191" lon="8.791281854719971"><ele>121.0</ele><time>2026-04-18T09:04:07.003Z</time></trkpt><trkpt lat="45.393207432674856" lon="8.79115924099654"><ele>121.0</ele><time>2026-04-18T09:04:08.003Z</time></trkpt><trkpt lat="45.39317927765655" lon="8.791034265399254"><ele>121.0</ele><time>2026-04-18T09:04:09.003Z</time></trkpt><trkpt lat="45.39314942676887" lon="8.790891216394863"><ele>121.0</ele><time>2026-04-18T09:04:10.003Z</time></trkpt><trkpt lat="45.39311992073212" lon="8.790741285148487"><ele>121.0</ele><time>2026-04-18T09:04:11.003Z</time></trkpt><trkpt lat="45.393090454749135" lon="8.790588062024225"><ele>121.0</ele><time>2026-04-18T09:04:12.003Z</time></trkpt><trkpt lat="45.39306309718683" lon="8.790445802651776"><ele>121.0</ele><time>2026-04-18T09:04:13.003Z</time></trkpt><trkpt lat="45.39304233119828" lon="8.790335858357563"><ele>121.0</ele><time>2026-04-18T09:04:14.003Z</time></trkpt><trkpt lat="45.39301997600309" lon="8.790214233496274"><ele>121.0</ele><time>2026-04-18T09:04:15.003Z</time></trkpt><trkpt lat="45.3929977963556" lon="8.790093563535049"><ele>121.0</ele><time>2026-04-18T09:04:16.003Z</time></trkpt><trkpt lat="45.39298066124879" lon="8.790001937886336"><ele>120.99999999999999</ele><time>2026-04-18T09:04:17.003Z</time></trkpt><trkpt lat="45.39296252911075" lon="8.789908336282995"><ele>121.0</ele><time>2026-04-18T09:04:18.003Z</time></trkpt><trkpt lat="45.39294207011499" lon="8.789809073693874"><ele>121.0</ele><time>2026-04-18T09:04:19.001Z</time></trkpt><trkpt lat="45.392920945266184" lon="8.789706580729119"><ele>120.99999999999999</ele><time>2026-04-18T09:04:20.001Z</time></trkpt><trkpt lat="45.39290096206205" lon="8.789609627255336"><ele>121.0</ele><time>2026-04-18T09:04:21.001Z</time></trkpt><trkpt lat="45.39287883306334" lon="8.789502262138896"><ele>121.0</ele><time>2026-04-18T09:04:22.001Z</time></trkpt><trkpt lat="45.39285693882702" lon="8.78939712290731"><ele>121.16666666666667</ele><time>2026-04-18T09:04:23.001Z</time></trkpt><trkpt lat="45.39283553847761" lon="8.789294643061734"><ele>121.33333333333334</ele><time>2026-04-18T09:04:24.001Z</time></trkpt><trkpt lat="45.392812639634705" lon="8.789184987216164"><ele>121.5</ele><time>2026-04-18T09:04:25.001Z</time></trkpt><trkpt lat="45.39279277819825" lon="8.789089877072275"><ele>121.66666666666666</ele><time>2026-04-18T09:04:26.001Z</time></trkpt><trkpt lat="45.392770564444334" lon="8.788982011514854"><ele>121.83333333333333</ele><time>2026-04-18T09:04:27.001Z</time></trkpt><trkpt lat="45.39274451557013" lon="8.788854702099307"><ele>122.0</ele><time>2026-04-18T09:04:28.001Z</time></trkpt><trkpt lat="45.39271854087138" lon="8.788727754793092"><ele>121.99999999999999</ele><time>2026-04-18T09:04:29.001Z</time></trkpt><trkpt lat="45.39269504208679" lon="8.788612907929734"><ele>122.0</ele><time>2026-04-18T09:04:30.001Z</time></trkpt><trkpt lat="45.39267280326099" lon="8.788504219071456"><ele>122.0</ele><time>2026-04-18T09:04:31.001Z</time></trkpt><trkpt lat="45.392650814548894" lon="8.788396752570732"><ele>122.0</ele><time>2026-04-18T09:04:32.001Z</time></trkpt><trkpt lat="45.39263070857745" lon="8.78829848773716"><ele>121.99999999999999</ele><time>2026-04-18T09:04:33.001Z</time></trkpt><trkpt lat="45.392609821307886" lon="8.788196404355476"><ele>122.0</ele><time>2026-04-18T09:04:34.001Z</time></trkpt><trkpt lat="45.392588602820275" lon="8.78809270219068"><ele>121.99999999999999</ele><time>2026-04-18T09:04:35.001Z</time></trkpt><trkpt lat="45.39256774826073" lon="8.787990778696726"><ele>122.0</ele><time>2026-04-18T09:04:36.001Z</time></trkpt><trkpt lat="45.39254466208857" lon="8.787879034114386"><ele>122.0</ele><time>2026-04-18T09:04:37.001Z</time></trkpt><trkpt lat="45.39252116676987" lon="8.787766702903276"><ele>122.0</ele><time>2026-04-18T09:04:38.001Z</time></trkpt><trkpt lat="45.39249734475999" lon="8.787652809848831"><ele>121.99999999999999</ele><time>2026-04-18T09:04:39.001Z</time></trkpt><trkpt lat="45.39247225629645" lon="8.787532861793482"><ele>122.0</ele><time>2026-04-18T09:04:40.001Z</time></trkpt><trkpt lat="45.39245120502512" lon="8.787427338126662"><ele>121.99999999999999</ele><time>2026-04-18T09:04:41.001Z</time></trkpt><trkpt lat="45.39242747328292" lon="8.787305722827842"><ele>122.0</ele><time>2026-04-18T09:04:42.001Z</time></trkpt><trkpt lat="45.39240780639244" lon="8.787204938071492"><ele>122.0</ele><time>2026-04-18T09:04:43.001Z</time></trkpt><trkpt lat="45.3923881445303" lon="8.78711533299952"><ele>122.0</ele><time>2026-04-18T09:04:44.001Z</time></trkpt><trkpt lat="45.39234545910089" lon="8.786969219799726"><ele>121.99999999999999</ele><time>2026-04-18T09:04:46.001Z</time></trkpt><trkpt lat="45.39232172776941" lon="8.786861218289253"><ele>122.0</ele><time>2026-04-18T09:04:47.001Z</time></trkpt><trkpt lat="45.392313620653084" lon="8.786735968650541"><ele>121.8</ele><time>2026-04-18T09:04:48.001Z</time></trkpt><trkpt lat="45.3922878513095" lon="8.786605575163515"><ele>121.6</ele><time>2026-04-18T09:04:49.001Z</time></trkpt><trkpt lat="45.392248387472925" lon="8.786477066672466"><ele>121.39999999999999</ele><time>2026-04-18T09:04:50.001Z</time></trkpt><trkpt lat="45.39222778387814" lon="8.786351637606028"><ele>121.19999999999999</ele><time>2026-04-18T09:04:51.001Z</time></trkpt><trkpt lat="45.39219476744153" lon="8.786225374676748"><ele>121.0</ele><time>2026-04-18T09:04:52.001Z</time></trkpt><trkpt lat="45.392172302195306" lon="8.78609528305777"><ele>121.19999999999999</ele><time>2026-04-18T09:04:53.001Z</time></trkpt><trkpt lat="45.39214630502747" lon="8.785958056156517"><ele>121.39999999999999</ele><time>2026-04-18T09:04:54.001Z</time></trkpt><trkpt lat="45.392117947450025" lon="8.78583243651988"><ele>121.6</ele><time>2026-04-18T09:04:55.001Z</time></trkpt><trkpt lat="45.392093851559196" lon="8.785704967292657"><ele>121.8</ele><time>2026-04-18T09:04:56.001Z</time></trkpt><trkpt lat="45.392070432662344" lon="8.785575664120008"><ele>122.0</ele><time>2026-04-18T09:04:57.001Z</time></trkpt><trkpt lat="45.39204030890863" lon="8.785454048098718"><ele>121.99999999999999</ele><time>2026-04-18T09:04:58.001Z</time></trkpt><trkpt lat="45.39201488295083" lon="8.785332100640339"><ele>122.0</ele><time>2026-04-18T09:04:59.001Z</time></trkpt><trkpt lat="45.39199419900525" lon="8.785243293661269"><ele>122.0</ele><time>2026-04-18T09:05:00.001Z</time></trkpt><trkpt lat="45.39198079294255" lon="8.785059662849198"><ele>122.0</ele><time>2026-04-18T09:05:02.001Z</time></trkpt><trkpt lat="45.39197108336174" lon="8.784969554874456"><ele>121.99999999999999</ele><time>2026-04-18T09:05:03.001Z</time></trkpt><trkpt lat="45.39194227209546" lon="8.784863371517346"><ele>122.0</ele><time>2026-04-18T09:05:04.001Z</time></trkpt><trkpt lat="45.39190791863692" lon="8.784743689844676"><ele>121.99999999999999</ele><time>2026-04-18T09:05:05.001Z</time></trkpt><trkpt lat="45.39189439945051" lon="8.784628858970283"><ele>122.0</ele><time>2026-04-18T09:05:06.001Z</time></trkpt><trkpt lat="45.39187817401046" lon="8.784514790363144"><ele>122.0</ele><time>2026-04-18T09:05:07.001Z</time></trkpt><trkpt lat="45.39185560781539" lon="8.784374771661552"><ele>122.0</ele><time>2026-04-18T09:05:08.001Z</time></trkpt><trkpt lat="45.39183650532482" lon="8.784253269840777"><ele>121.99999999999999</ele><time>2026-04-18T09:05:09.001Z</time></trkpt><trkpt lat="45.39181760257747" lon="8.784152578311827"><ele>122.0</ele><time>2026-04-18T09:05:10.001Z</time></trkpt><trkpt lat="45.391798040839376" lon="8.784053308566609"><ele>121.99999999999999</ele><time>2026-04-18T09:05:11.001Z</time></trkpt><trkpt lat="45.39177715711909" lon="8.783947329879414"><ele>122.0</ele><time>2026-04-18T09:05:12.001Z</time></trkpt><trkpt lat="45.39175035869133" lon="8.783820981662974"><ele>122.0</ele><time>2026-04-18T09:05:13.001Z</time></trkpt><trkpt lat="45.39172499815187" lon="8.78370221908642"><ele>122.0</ele><time>2026-04-18T09:05:14.001Z</time></trkpt><trkpt lat="45.39169619470408" lon="8.783572549783564"><ele>121.99999999999999</ele><time>2026-04-18T09:05:15.001Z</time></trkpt><trkpt lat="45.39166742342895" lon="8.783445553146507"><ele>122.0</ele><time>2026-04-18T09:05:16.001Z</time></trkpt><trkpt lat="45.391622591833006" lon="8.783332595735352"><ele>122.0</ele><time>2026-04-18T09:05:17.001Z</time></trkpt><trkpt lat="45.39160251511878" lon="8.783244666557017"><ele>121.99999999999999</ele><time>2026-04-18T09:05:18.001Z</time></trkpt><trkpt lat="45.39156705858671" lon="8.783084589116836"><ele>121.99999999999999</ele><time>2026-04-18T09:05:20.001Z</time></trkpt><trkpt lat="45.39154085426599" lon="8.782933345172061"><ele>122.0</ele><time>2026-04-18T09:05:22.002Z</time></trkpt><trkpt lat="45.39151858105865" lon="8.78283005537211"><ele>122.0</ele><time>2026-04-18T09:05:23.002Z</time></trkpt><trkpt lat="45.391489621964396" lon="8.782710724240285"><ele>121.8</ele><time>2026-04-18T09:05:24.002Z</time></trkpt><trkpt lat="45.391463095324006" lon="8.782585834150055"><ele>121.6</ele><time>2026-04-18T09:05:25.002Z</time></trkpt><trkpt lat="45.391433312300315" lon="8.782454652242059"><ele>121.39999999999999</ele><time>2026-04-18T09:05:26.002Z</time></trkpt><trkpt lat="45.39140419989368" lon="8.7823253054831"><ele>121.19999999999999</ele><time>2026-04-18T09:05:27.002Z</time></trkpt><trkpt lat="45.39138033953934" lon="8.782199678872022"><ele>121.0</ele><time>2026-04-18T09:05:28.002Z</time></trkpt><trkpt lat="45.39135028612639" lon="8.782074291656219"><ele>121.00000000000001</ele><time>2026-04-18T09:05:29.002Z</time></trkpt><trkpt lat="45.39132624396981" lon="8.781965025403236"><ele>121.0</ele><time>2026-04-18T09:05:30.002Z</time></trkpt><trkpt lat="45.39130087962799" lon="8.781858101473496"><ele>121.0</ele><time>2026-04-18T09:05:31.002Z</time></trkpt><trkpt lat="45.39128211991345" lon="8.781767039713845"><ele>121.0</ele><time>2026-04-18T09:05:32.002Z</time></trkpt><trkpt lat="45.39126030360483" lon="8.781661810454354"><ele>121.00000000000001</ele><time>2026-04-18T09:05:33.002Z</time></trkpt><trkpt lat="45.39123750342921" lon="8.781560739318113"><ele>121.0</ele><time>2026-04-18T09:05:34.002Z</time></trkpt><trkpt lat="45.39121319586561" lon="8.781459787594178"><ele>121.00000000000001</ele><time>2026-04-18T09:05:35.002Z</time></trkpt><trkpt lat="45.391185865074036" lon="8.781335184643728"><ele>121.0</ele><time>2026-04-18T09:05:36.002Z</time></trkpt><trkpt lat="45.3911681164615" lon="8.781232299384623"><ele>121.0</ele><time>2026-04-18T09:05:37.002Z</time></trkpt><trkpt lat="45.39114406261743" lon="8.781132569980821"><ele>121.0</ele><time>2026-04-18T09:05:38.002Z</time></trkpt><trkpt lat="45.39111514371206" lon="8.78101469932121"><ele>121.00000000000001</ele><time>2026-04-18T09:05:39.002Z</time></trkpt><trkpt lat="45.391090868950684" lon="8.780903738904671"><ele>121.0</ele><time>2026-04-18T09:05:40.002Z</time></trkpt><trkpt lat="45.39106467867829" lon="8.780786785489244"><ele>121.00000000000001</ele><time>2026-04-18T09:05:41.002Z</time></trkpt><trkpt lat="45.391039367410265" lon="8.780675676235617"><ele>121.0</ele><time>2026-04-18T09:05:42.002Z</time></trkpt><trkpt lat="45.391009333710365" lon="8.780564874786801"><ele>121.0</ele><time>2026-04-18T09:05:43.002Z</time></trkpt><trkpt lat="45.390988531894266" lon="8.780460684822668"><ele>121.0</ele><time>2026-04-18T09:05:44.002Z</time></trkpt><trkpt lat="45.39096877839074" lon="8.780361084991853"><ele>121.00000000000001</ele><time>2026-04-18T09:05:45.002Z</time></trkpt><trkpt lat="45.39094440822673" lon="8.780258944144173"><ele>121.0</ele><time>2026-04-18T09:05:46.002Z</time></trkpt><trkpt lat="45.390936581912946" lon="8.78014872002853"><ele>121.00000000000001</ele><time>2026-04-18T09:05:47.002Z</time></trkpt><trkpt lat="45.390918332502395" lon="8.78005112902561"><ele>121.0</ele><time>2026-04-18T09:05:48.002Z</time></trkpt><trkpt lat="45.39089826660267" lon="8.779943824047821"><ele>121.0</ele><time>2026-04-18T09:05:49.002Z</time></trkpt><trkpt lat="45.39087917377755" lon="8.779841722760324"><ele>121.0</ele><time>2026-04-18T09:05:50.002Z</time></trkpt><trkpt lat="45.39085909373522" lon="8.779734342160294"><ele>121.00000000000001</ele><time>2026-04-18T09:05:51.002Z</time></trkpt><trkpt lat="45.390836815851834" lon="8.77961520839315"><ele>121.0</ele><time>2026-04-18T09:05:52.002Z</time></trkpt><trkpt lat="45.39081702345448" lon="8.779509366066758"><ele>121.00000000000001</ele><time>2026-04-18T09:05:53.002Z</time></trkpt><trkpt lat="45.39079638081833" lon="8.779398976915822"><ele>121.0</ele><time>2026-04-18T09:05:54.002Z</time></trkpt><trkpt lat="45.390772475131115" lon="8.779271138253366"><ele>121.0</ele><time>2026-04-18T09:05:55.002Z</time></trkpt><trkpt lat="45.39075073634571" lon="8.779154887586705"><ele>121.0</ele><time>2026-04-18T09:05:56.002Z</time></trkpt><trkpt lat="45.39072276351636" lon="8.779038643216722"><ele>121.00000000000001</ele><time>2026-04-18T09:05:57.002Z</time></trkpt><trkpt lat="45.390697234710174" lon="8.778932120175579"><ele>121.0</ele><time>2026-04-18T09:05:58.002Z</time></trkpt><trkpt lat="45.3906575496921" lon="8.778835068937902"><ele>121.00000000000001</ele><time>2026-04-18T09:05:59.002Z</time></trkpt><trkpt lat="45.39064403338854" lon="8.77870942384179"><ele>121.0</ele><time>2026-04-18T09:06:00.002Z</time></trkpt><trkpt lat="45.39061385642277" lon="8.778583091077497"><ele>121.0</ele><time>2026-04-18T09:06:01.002Z</time></trkpt><trkpt lat="45.3905848025197" lon="8.778461459801331"><ele>121.0</ele><time>2026-04-18T09:06:02.002Z</time></trkpt><trkpt lat="45.39055873673199" lon="8.778352337993272"><ele>121.00000000000001</ele><time>2026-04-18T09:06:03.003Z</time></trkpt><trkpt lat="45.390533386346014" lon="8.778246211102362"><ele>121.0</ele><time>2026-04-18T09:06:04.003Z</time></trkpt><trkpt lat="45.39050644911513" lon="8.778133441198591"><ele>121.16666666666667</ele><time>2026-04-18T09:06:05.003Z</time></trkpt><trkpt lat="45.39046575993104" lon="8.778033172815263"><ele>121.33333333333334</ele><time>2026-04-18T09:06:06.003Z</time></trkpt><trkpt lat="45.39043635703393" lon="8.777906988222645"><ele>121.5</ele><time>2026-04-18T09:06:07.003Z</time></trkpt><trkpt lat="45.390415201340815" lon="8.777814358792707"><ele>121.66666666666666</ele><time>2026-04-18T09:06:08.003Z</time></trkpt><trkpt lat="45.390396573508795" lon="8.777706733356338"><ele>121.83333333333333</ele><time>2026-04-18T09:06:09.003Z</time></trkpt><trkpt lat="45.3903590060205" lon="8.777601722090294"><ele>122.0</ele><time>2026-04-18T09:06:10.003Z</time></trkpt><trkpt lat="45.39033073515717" lon="8.777487370412086"><ele>121.99999999999999</ele><time>2026-04-18T09:06:11.003Z</time></trkpt><trkpt lat="45.39031739059314" lon="8.777364988200612"><ele>122.0</ele><time>2026-04-18T09:06:12.003Z</time></trkpt><trkpt lat="45.39029171534748" lon="8.777261031996057"><ele>122.0</ele><time>2026-04-18T09:06:13.003Z</time></trkpt><trkpt lat="45.39026758563145" lon="8.777163658861518"><ele>122.0</ele><time>2026-04-18T09:06:14.003Z</time></trkpt><trkpt lat="45.39024534286063" lon="8.777068511951018"><ele>121.99999999999999</ele><time>2026-04-18T09:06:15.003Z</time></trkpt><trkpt lat="45.39022281373109" lon="8.776966958447941"><ele>122.0</ele><time>2026-04-18T09:06:16.003Z</time></trkpt><trkpt lat="45.3902006381727" lon="8.776860894390405"><ele>121.85714285714283</ele><time>2026-04-18T09:06:17.003Z</time></trkpt><trkpt lat="45.39017831294988" lon="8.776754114489384"><ele>121.71428571428571</ele><time>2026-04-18T09:06:18.003Z</time></trkpt><trkpt lat="45.390157004417716" lon="8.776652197367046"><ele>121.57142857142856</ele><time>2026-04-18T09:06:19.003Z</time></trkpt><trkpt lat="45.390123395262414" lon="8.77656693204917"><ele>121.42857142857142</ele><time>2026-04-18T09:06:20.003Z</time></trkpt><trkpt lat="45.39010414398884" lon="8.776467008182893"><ele>121.28571428571428</ele><time>2026-04-18T09:06:21.003Z</time></trkpt><trkpt lat="45.390088803415836" lon="8.776365448567566"><ele>121.14285714285714</ele><time>2026-04-18T09:06:22.003Z</time></trkpt><trkpt lat="45.390060055128004" lon="8.776268712544969"><ele>121.0</ele><time>2026-04-18T09:06:23.003Z</time></trkpt><trkpt lat="45.390039688075014" lon="8.776169597148892"><ele>121.00000000000001</ele><time>2026-04-18T09:06:24.003Z</time></trkpt><trkpt lat="45.39002350606775" lon="8.77606278889281"><ele>121.0</ele><time>2026-04-18T09:06:25.001Z</time></trkpt><trkpt lat="45.3900029519906" lon="8.775959183350889"><ele>121.0</ele><time>2026-04-18T09:06:26.001Z</time></trkpt><trkpt lat="45.389980315297635" lon="8.775852578801151"><ele>121.0</ele><time>2026-04-18T09:06:27.001Z</time></trkpt><trkpt lat="45.38995600465221" lon="8.775740514384337"><ele>121.00000000000001</ele><time>2026-04-18T09:06:28.001Z</time></trkpt><trkpt lat="45.389934025150325" lon="8.775627568301964"><ele>121.0</ele><time>2026-04-18T09:06:29.001Z</time></trkpt><trkpt lat="45.389911555410784" lon="8.775518510263186"><ele>121.16666666666667</ele><time>2026-04-18T09:06:30.001Z</time></trkpt><trkpt lat="45.38988699273081" lon="8.775402413941103"><ele>121.33333333333334</ele><time>2026-04-18T09:06:31.001Z</time></trkpt><trkpt lat="45.38986327442883" lon="8.775297340077284"><ele>121.5</ele><time>2026-04-18T09:06:32.001Z</time></trkpt><trkpt lat="45.38985105421556" lon="8.775187438263002"><ele>121.66666666666666</ele><time>2026-04-18T09:06:33.001Z</time></trkpt><trkpt lat="45.3898187354405" lon="8.77507113278863"><ele>121.83333333333333</ele><time>2026-04-18T09:06:34.001Z</time></trkpt><trkpt lat="45.38979118411519" lon="8.774964619102498"><ele>122.0</ele><time>2026-04-18T09:06:35.001Z</time></trkpt><trkpt lat="45.38976148613699" lon="8.774847839564872"><ele>121.99999999999999</ele><time>2026-04-18T09:06:36.001Z</time></trkpt><trkpt lat="45.38973842835224" lon="8.774734191872605"><ele>122.0</ele><time>2026-04-18T09:06:37Z</time></trkpt><trkpt lat="45.389712111769775" lon="8.774616827403284"><ele>122.0</ele><time>2026-04-18T09:06:38Z</time></trkpt><trkpt lat="45.38968501346402" lon="8.774495308898583"><ele>122.0</ele><time>2026-04-18T09:06:39Z</time></trkpt><trkpt lat="45.389656157611924" lon="8.774377597498443"><ele>121.99999999999999</ele><time>2026-04-18T09:06:40Z</time></trkpt><trkpt lat="45.389640957654585" lon="8.774253951017423"><ele>122.0</ele><time>2026-04-18T09:06:41.001Z</time></trkpt><trkpt lat="45.38960316825732" lon="8.774155120803774"><ele>121.99999999999999</ele><time>2026-04-18T09:06:42.001Z</time></trkpt><trkpt lat="45.389581904561624" lon="8.77404312251462"><ele>122.0</ele><time>2026-04-18T09:06:43.001Z</time></trkpt><trkpt lat="45.389559490183885" lon="8.77392368950426"><ele>122.0</ele><time>2026-04-18T09:06:44.001Z</time></trkpt><trkpt lat="45.389537903776684" lon="8.77381026070529"><ele>122.0</ele><time>2026-04-18T09:06:45.001Z</time></trkpt><trkpt lat="45.38951817285775" lon="8.773708880924943"><ele>121.99999999999999</ele><time>2026-04-18T09:06:46.001Z</time></trkpt><trkpt lat="45.389498169195456" lon="8.773604905664383"><ele>122.0</ele><time>2026-04-18T09:06:47.001Z</time></trkpt><trkpt lat="45.389472309981926" lon="8.773506672194797"><ele>121.99999999999999</ele><time>2026-04-18T09:06:48.001Z</time></trkpt><trkpt lat="45.38945117782022" lon="8.773411443881976"><ele>122.0</ele><time>2026-04-18T09:06:49.001Z</time></trkpt><trkpt lat="45.38942693556772" lon="8.773306505640445"><ele>122.0</ele><time>2026-04-18T09:06:50.001Z</time></trkpt><trkpt lat="45.38941165031171" lon="8.773203348242193"><ele>122.0</ele><time>2026-04-18T09:06:51.001Z</time></trkpt><trkpt lat="45.38938429697405" lon="8.77309155559554"><ele>121.99999999999999</ele><time>2026-04-18T09:06:52.001Z</time></trkpt><trkpt lat="45.38936015950397" lon="8.772986803823212"><ele>122.0</ele><time>2026-04-18T09:06:53.001Z</time></trkpt><trkpt lat="45.389338365588735" lon="8.772891113907964"><ele>121.99999999999999</ele><time>2026-04-18T09:06:54.001Z</time></trkpt><trkpt lat="45.3893131104567" lon="8.772795098040989"><ele>122.0</ele><time>2026-04-18T09:06:55.001Z</time></trkpt><trkpt lat="45.38928436332692" lon="8.77269814262499"><ele>122.0</ele><time>2026-04-18T09:06:56.001Z</time></trkpt><trkpt lat="45.38924077795735" lon="8.772594616071817"><ele>122.0</ele><time>2026-04-18T09:06:57.001Z</time></trkpt><trkpt lat="45.38921148234137" lon="8.77247316615942"><ele>121.99999999999999</ele><time>2026-04-18T09:06:58.001Z</time></trkpt><trkpt lat="45.38918794353901" lon="8.77235148134894"><ele>122.0</ele><time>2026-04-18T09:06:59.001Z</time></trkpt><trkpt lat="45.389162892015946" lon="8.772245306280729"><ele>121.99999999999999</ele><time>2026-04-18T09:07:00.001Z</time></trkpt><trkpt lat="45.389136548870766" lon="8.772145887279144"><ele>122.0</ele><time>2026-04-18T09:07:01.001Z</time></trkpt><trkpt lat="45.389114211425145" lon="8.77203406667287"><ele>122.0</ele><time>2026-04-18T09:07:02.001Z</time></trkpt><trkpt lat="45.38909175257238" lon="8.771928496923987"><ele>122.0</ele><time>2026-04-18T09:07:03.001Z</time></trkpt><trkpt lat="45.389073362719095" lon="8.771828801702606"><ele>121.99999999999999</ele><time>2026-04-18T09:07:04.001Z</time></trkpt><trkpt lat="45.38904248599177" lon="8.771723721914768"><ele>122.0</ele><time>2026-04-18T09:07:05.001Z</time></trkpt><trkpt lat="45.389014114218305" lon="8.771613230838204"><ele>121.99999999999999</ele><time>2026-04-18T09:07:06.001Z</time></trkpt><trkpt lat="45.38898926261988" lon="8.771505214168696"><ele>122.0</ele><time>2026-04-18T09:07:07.001Z</time></trkpt><trkpt lat="45.38896705568514" lon="8.771397818030598"><ele>122.0</ele><time>2026-04-18T09:07:08.001Z</time></trkpt><trkpt lat="45.388935063608685" lon="8.771291129949018"><ele>122.0</ele><time>2026-04-18T09:07:09.001Z</time></trkpt><trkpt lat="45.388910306983185" lon="8.771176675987336"><ele>121.99999999999999</ele><time>2026-04-18T09:07:10.001Z</time></trkpt><trkpt lat="45.388890014543904" lon="8.77105263788137"><ele>122.0</ele><time>2026-04-18T09:07:11.001Z</time></trkpt><trkpt lat="45.388865558591995" lon="8.770931625608103"><ele>121.99999999999999</ele><time>2026-04-18T09:07:12.001Z</time></trkpt><trkpt lat="45.38886162385712" lon="8.770810784804338"><ele>122.0</ele><time>2026-04-18T09:07:13.001Z</time></trkpt><trkpt lat="45.38884159155573" lon="8.770689105632195"><ele>122.0</ele><time>2026-04-18T09:07:14.001Z</time></trkpt><trkpt lat="45.38882399044161" lon="8.770575229017886"><ele>122.0</ele><time>2026-04-18T09:07:15.001Z</time></trkpt><trkpt lat="45.38880526461787" lon="8.770451013253702"><ele>121.99999999999999</ele><time>2026-04-18T09:07:16.001Z</time></trkpt><trkpt lat="45.38878685588635" lon="8.770328900890158"><ele>122.0</ele><time>2026-04-18T09:07:17.001Z</time></trkpt><trkpt lat="45.38876941754138" lon="8.77021322548244"><ele>121.99999999999999</ele><time>2026-04-18T09:07:18.001Z</time></trkpt><trkpt lat="45.38874980110229" lon="8.770083101918425"><ele>122.0</ele><time>2026-04-18T09:07:19.001Z</time></trkpt><trkpt lat="45.38873104241639" lon="8.76995866816441"><ele>122.0</ele><time>2026-04-18T09:07:20.001Z</time></trkpt><trkpt lat="45.3887128070774" lon="8.769847456701182"><ele>122.0</ele><time>2026-04-18T09:07:21.001Z</time></trkpt><trkpt lat="45.388694647868775" lon="8.769740187323702"><ele>121.99999999999999</ele><time>2026-04-18T09:07:22.001Z</time></trkpt><trkpt lat="45.388672439085994" lon="8.7696155756118"><ele>122.0</ele><time>2026-04-18T09:07:23.001Z</time></trkpt><trkpt lat="45.38865408319196" lon="8.769514686187527"><ele>121.99999999999999</ele><time>2026-04-18T09:07:24.001Z</time></trkpt><trkpt lat="45.38862912968765" lon="8.769390586181258"><ele>122.0</ele><time>2026-04-18T09:07:25.001Z</time></trkpt><trkpt lat="45.388590832597764" lon="8.769275109208994"><ele>122.0</ele><time>2026-04-18T09:07:26.001Z</time></trkpt><trkpt lat="45.38856564512744" lon="8.769146408056233"><ele>122.0</ele><time>2026-04-18T09:07:27.001Z</time></trkpt><trkpt lat="45.388544679114304" lon="8.769034952775726"><ele>121.99999999999999</ele><time>2026-04-18T09:07:28.001Z</time></trkpt><trkpt lat="45.38851698959878" lon="8.76893315707873"><ele>122.0</ele><time>2026-04-18T09:07:29.001Z</time></trkpt><trkpt lat="45.38849282363383" lon="8.76882389536101"><ele>122.16666666666666</ele><time>2026-04-18T09:07:30.001Z</time></trkpt><trkpt lat="45.38846864995177" lon="8.768718330286692"><ele>122.33333333333333</ele><time>2026-04-18T09:07:31.001Z</time></trkpt><trkpt lat="45.38844025756154" lon="8.768615227047134"><ele>122.5</ele><time>2026-04-18T09:07:32.002Z</time></trkpt><trkpt lat="45.38841429215464" lon="8.76850048774895"><ele>122.66666666666666</ele><time>2026-04-18T09:07:33.002Z</time></trkpt><trkpt lat="45.38839244925248" lon="8.76838919152166"><ele>122.83333333333333</ele><time>2026-04-18T09:07:34.002Z</time></trkpt><trkpt lat="45.38836607780949" lon="8.768264953112757"><ele>123.0</ele><time>2026-04-18T09:07:35.002Z</time></trkpt><trkpt lat="45.38834162375175" lon="8.768155507544147"><ele>122.85714285714288</ele><time>2026-04-18T09:07:36.002Z</time></trkpt><trkpt lat="45.38832231792096" lon="8.768063185097535"><ele>122.71428571428572</ele><time>2026-04-18T09:07:37.002Z</time></trkpt><trkpt lat="45.38830177861774" lon="8.767972535408143"><ele>122.57142857142857</ele><time>2026-04-18T09:07:38.002Z</time></trkpt><trkpt lat="45.38828639143486" lon="8.767883452678417"><ele>122.42857142857143</ele><time>2026-04-18T09:07:39.002Z</time></trkpt><trkpt lat="45.38830308999557" lon="8.767728039565474"><ele>122.28571428571428</ele><time>2026-04-18T09:07:41.002Z</time></trkpt><trkpt lat="45.38833812333781" lon="8.76765135632768"><ele>122.14285714285712</ele><time>2026-04-18T09:07:42.002Z</time></trkpt><trkpt lat="45.38839261552423" lon="8.767587393783003"><ele>121.99999999999999</ele><time>2026-04-18T09:07:43.002Z</time></trkpt><trkpt lat="45.3884570508802" lon="8.767521977303833"><ele>122.0</ele><time>2026-04-18T09:07:44.002Z</time></trkpt><trkpt lat="45.388525525225546" lon="8.76743756199772"><ele>121.99999999999999</ele><time>2026-04-18T09:07:45.002Z</time></trkpt><trkpt lat="45.38859300967125" lon="8.767338913670871"><ele>121.99999999999999</ele><time>2026-04-18T09:07:46.002Z</time></trkpt><trkpt lat="45.38864462996983" lon="8.767234665512992"><ele>122.0</ele><time>2026-04-18T09:07:47.002Z</time></trkpt><trkpt lat="45.3886849032149" lon="8.767112561494102"><ele>122.0</ele><time>2026-04-18T09:07:48.002Z</time></trkpt><trkpt lat="45.38872015534963" lon="8.766994937083911"><ele>122.0</ele><time>2026-04-18T09:07:49.002Z</time></trkpt><trkpt lat="45.3887595585595" lon="8.766877711366737"><ele>121.99999999999999</ele><time>2026-04-18T09:07:50.002Z</time></trkpt><trkpt lat="45.38879859739097" lon="8.766764323010632"><ele>121.99999999999999</ele><time>2026-04-18T09:07:51.002Z</time></trkpt><trkpt lat="45.38883942294141" lon="8.766648444611869"><ele>122.0</ele><time>2026-04-18T09:07:52.002Z</time></trkpt><trkpt lat="45.38887884605594" lon="8.766533810660322"><ele>122.0</ele><time>2026-04-18T09:07:53.002Z</time></trkpt><trkpt lat="45.38892256592368" lon="8.766419045557269"><ele>122.0</ele><time>2026-04-18T09:07:54.002Z</time></trkpt><trkpt lat="45.388959860944865" lon="8.7662973861091"><ele>121.99999999999999</ele><time>2026-04-18T09:07:55.002Z</time></trkpt><trkpt lat="45.38898706455668" lon="8.766182596830516"><ele>121.99999999999999</ele><time>2026-04-18T09:07:56.002Z</time></trkpt><trkpt lat="45.38901283707924" lon="8.76605608138042"><ele>122.0</ele><time>2026-04-18T09:07:57.002Z</time></trkpt><trkpt lat="45.38904437972979" lon="8.765928573984944"><ele>122.0</ele><time>2026-04-18T09:07:58.002Z</time></trkpt><trkpt lat="45.389081150960926" lon="8.765802019204346"><ele>121.99999999999999</ele><time>2026-04-18T09:07:59.002Z</time></trkpt><trkpt lat="45.38910737339179" lon="8.76566982281722"><ele>122.0</ele><time>2026-04-18T09:08:00.002Z</time></trkpt><trkpt lat="45.389130744442916" lon="8.765547574625895"><ele>122.0</ele><time>2026-04-18T09:08:01.002Z</time></trkpt><trkpt lat="45.389151354712354" lon="8.765422341566856"><ele>122.0</ele><time>2026-04-18T09:08:02.002Z</time></trkpt><trkpt lat="45.38917096694176" lon="8.765308310087772"><ele>121.99999999999999</ele><time>2026-04-18T09:08:03.002Z</time></trkpt><trkpt lat="45.38918147076313" lon="8.7652145491614"><ele>122.0</ele><time>2026-04-18T09:08:04.002Z</time></trkpt><trkpt lat="45.38918768309898" lon="8.765124161460655"><ele>122.6</ele><time>2026-04-18T09:08:05.002Z</time></trkpt><trkpt lat="45.38919574450612" lon="8.764960697308146"><ele>123.19999999999999</ele><time>2026-04-18T09:08:07.002Z</time></trkpt><trkpt lat="45.38920023790081" lon="8.764853535055938"><ele>123.8</ele><time>2026-04-18T09:08:09.002Z</time></trkpt><trkpt lat="45.38922543119286" lon="8.764758984696003"><ele>124.4</ele><time>2026-04-18T09:08:12.002Z</time></trkpt><trkpt lat="45.38910296454595" lon="8.764558313677103"><ele>125.0</ele><time>2026-04-18T09:09:00Z</time></trkpt><trkpt lat="45.38905535299175" lon="8.764463191535336"><ele>124.6</ele><time>2026-04-18T09:09:01Z</time></trkpt><trkpt lat="45.389006151041514" lon="8.764353717374506"><ele>124.2</ele><time>2026-04-18T09:09:02Z</time></trkpt><trkpt lat="45.38895359943528" lon="8.76423009996383"><ele>123.80000000000001</ele><time>2026-04-18T09:09:03Z</time></trkpt><trkpt lat="45.3888992116629" lon="8.764096124075357"><ele>123.4</ele><time>2026-04-18T09:09:04Z</time></trkpt><trkpt lat="45.38884087759373" lon="8.763948973248423"><ele>123.0</ele><time>2026-04-18T09:09:05Z</time></trkpt><trkpt lat="45.3887790759506" lon="8.76379275807779"><ele>122.5</ele><time>2026-04-18T09:09:06Z</time></trkpt><trkpt lat="45.3887178960015" lon="8.763631746426123"><ele>122.0</ele><time>2026-04-18T09:09:07.001Z</time></trkpt><trkpt lat="45.3886547035511" lon="8.763465438330538"><ele>121.5</ele><time>2026-04-18T09:09:08.001Z</time></trkpt><trkpt lat="45.38859034723315" lon="8.763303567787004"><ele>121.0</ele><time>2026-04-18T09:09:09.001Z</time></trkpt><trkpt lat="45.38851440400528" lon="8.763163917515069"><ele>121.0</ele><time>2026-04-18T09:09:10.001Z</time></trkpt><trkpt lat="45.38846616968332" lon="8.763005184684964"><ele>121.0</ele><time>2026-04-18T09:09:11.001Z</time></trkpt><trkpt lat="45.38840148503785" lon="8.762863462678729"><ele>121.0</ele><time>2026-04-18T09:09:12.001Z</time></trkpt><trkpt lat="45.38831877369583" lon="8.762740351845032"><ele>121.0</ele><time>2026-04-18T09:09:13.001Z</time></trkpt><trkpt lat="45.388258247392926" lon="8.762587938190219"><ele>121.0</ele><time>2026-04-18T09:09:14.001Z</time></trkpt><trkpt lat="45.38817422458851" lon="8.76247053883209"><ele>121.0</ele><time>2026-04-18T09:09:15.001Z</time></trkpt><trkpt lat="45.38809603192187" lon="8.762346957186198"><ele>121.0</ele><time>2026-04-18T09:09:16.001Z</time></trkpt><trkpt lat="45.3880035679264" lon="8.76222176475937"><ele>121.0</ele><time>2026-04-18T09:09:17.001Z</time></trkpt><trkpt lat="45.38790617963972" lon="8.762099316464306"><ele>121.0</ele><time>2026-04-18T09:09:18.001Z</time></trkpt><trkpt lat="45.38780032891573" lon="8.761990982952764"><ele>121.0</ele><time>2026-04-18T09:09:19.001Z</time></trkpt><trkpt lat="45.3876880280077" lon="8.761886741987498"><ele>121.0</ele><time>2026-04-18T09:09:20.001Z</time></trkpt><trkpt lat="45.387567515454776" lon="8.761814213930652"><ele>121.0</ele><time>2026-04-18T09:09:21.001Z</time></trkpt><trkpt lat="45.38744276976215" lon="8.761753601276954"><ele>121.0</ele><time>2026-04-18T09:09:22.001Z</time></trkpt><trkpt lat="45.38732041845245" lon="8.761701687595625"><ele>121.0</ele><time>2026-04-18T09:09:23.001Z</time></trkpt><trkpt lat="45.38721253555189" lon="8.761660196342964"><ele>121.0</ele><time>2026-04-18T09:09:24.001Z</time></trkpt><trkpt lat="45.38711435772309" lon="8.761622411259209"><ele>121.0</ele><time>2026-04-18T09:09:25.001Z</time></trkpt><trkpt lat="45.38703400033168" lon="8.761589526892632"><ele>121.0</ele><time>2026-04-18T09:09:26.001Z</time></trkpt><trkpt lat="45.38696129435166" lon="8.761549394155743"><ele>121.0</ele><time>2026-04-18T09:09:27.001Z</time></trkpt><trkpt lat="45.3869272818878" lon="8.76144517567935"><ele>121.0</ele><time>2026-04-18T09:09:28.001Z</time></trkpt><trkpt lat="45.38691151605398" lon="8.761340961681974"><ele>121.0</ele><time>2026-04-18T09:09:29.001Z</time></trkpt><trkpt lat="45.38688497440544" lon="8.761218118476718"><ele>121.0</ele><time>2026-04-18T09:09:30.001Z</time></trkpt><trkpt lat="45.38685289851776" lon="8.761074397782199"><ele>121.0</ele><time>2026-04-18T09:09:31.001Z</time></trkpt><trkpt lat="45.38681798040474" lon="8.760918780620091"><ele>121.0</ele><time>2026-04-18T09:09:32.001Z</time></trkpt><trkpt lat="45.386780907804116" lon="8.760753561701488"><ele>121.0</ele><time>2026-04-18T09:09:33.001Z</time></trkpt><trkpt lat="45.38674160159318" lon="8.76057838840525"><ele>121.0</ele><time>2026-04-18T09:09:34.001Z</time></trkpt><trkpt lat="45.38670096570318" lon="8.760397289216689"><ele>121.0</ele><time>2026-04-18T09:09:35.001Z</time></trkpt><trkpt lat="45.38665951169651" lon="8.760212543985167"><ele>120.75</ele><time>2026-04-18T09:09:36.001Z</time></trkpt><trkpt lat="45.38661840164262" lon="8.760029331625981"><ele>120.5</ele><time>2026-04-18T09:09:37.001Z</time></trkpt><trkpt lat="45.386577221478795" lon="8.759845806809732"><ele>120.25</ele><time>2026-04-18T09:09:38.001Z</time></trkpt><trkpt lat="45.386520017869906" lon="8.75966810604285"><ele>120.0</ele><time>2026-04-18T09:09:39.001Z</time></trkpt><trkpt lat="45.38649516972655" lon="8.759480132386352"><ele>120.0</ele><time>2026-04-18T09:09:40.001Z</time></trkpt><trkpt lat="45.386451592662524" lon="8.75928592547581"><ele>120.0</ele><time>2026-04-18T09:09:41.001Z</time></trkpt><trkpt lat="45.38640740845943" lon="8.759089012762512"><ele>120.0</ele><time>2026-04-18T09:09:42.001Z</time></trkpt><trkpt lat="45.38636263322385" lon="8.75888946603493"><ele>120.0</ele><time>2026-04-18T09:09:43.001Z</time></trkpt><trkpt lat="45.38631669212118" lon="8.758684723471054"><ele>120.0</ele><time>2026-04-18T09:09:44.001Z</time></trkpt><trkpt lat="45.386269416468615" lon="8.758474033308104"><ele>120.0</ele><time>2026-04-18T09:09:45.001Z</time></trkpt><trkpt lat="45.38622242919437" lon="8.758264387554668"><ele>120.0</ele><time>2026-04-18T09:09:46.001Z</time></trkpt><trkpt lat="45.38617531346849" lon="8.758051796350946"><ele>120.0</ele><time>2026-04-18T09:09:47.001Z</time></trkpt><trkpt lat="45.386126946121486" lon="8.75783355770546"><ele>120.0</ele><time>2026-04-18T09:09:48.001Z</time></trkpt><trkpt lat="45.38608221618131" lon="8.75763173142081"><ele>120.0</ele><time>2026-04-18T09:09:49.001Z</time></trkpt><trkpt lat="45.38604214109902" lon="8.75745090835428"><ele>120.0</ele><time>2026-04-18T09:09:50.002Z</time></trkpt><trkpt lat="45.386007173542794" lon="8.757284006139635"><ele>120.0</ele><time>2026-04-18T09:09:51.002Z</time></trkpt><trkpt lat="45.385975062155566" lon="8.75712765143577"><ele>120.0</ele><time>2026-04-18T09:09:52.002Z</time></trkpt><trkpt lat="45.385944833225814" lon="8.756982776797532"><ele>120.0</ele><time>2026-04-18T09:09:53.002Z</time></trkpt><trkpt lat="45.3859129871367" lon="8.756838392477864"><ele>120.0</ele><time>2026-04-18T09:09:54.002Z</time></trkpt><trkpt lat="45.385882286310874" lon="8.756702966968495"><ele>120.0</ele><time>2026-04-18T09:09:55.002Z</time></trkpt><trkpt lat="45.385855551534505" lon="8.756585355516513"><ele>120.16666666666667</ele><time>2026-04-18T09:09:56.002Z</time></trkpt><trkpt lat="45.385830990201335" lon="8.756480552297537"><ele>120.33333333333334</ele><time>2026-04-18T09:09:57.002Z</time></trkpt><trkpt lat="45.385807159216824" lon="8.756392124789123"><ele>120.5</ele><time>2026-04-18T09:09:58.002Z</time></trkpt><trkpt lat="45.385779996994295" lon="8.756306100549926"><ele>120.66666666666667</ele><time>2026-04-18T09:09:59.002Z</time></trkpt><trkpt lat="45.38572280109937" lon="8.756161714195363"><ele>120.83333333333334</ele><time>2026-04-18T09:10:01.002Z</time></trkpt><trkpt lat="45.38567678394412" lon="8.756064626242267"><ele>121.0</ele><time>2026-04-18T09:10:03.002Z</time></trkpt><trkpt lat="45.38562770757708" lon="8.755959809044741"><ele>121.0</ele><time>2026-04-18T09:10:05.002Z</time></trkpt><trkpt lat="45.38554518870599" lon="8.7558619285269"><ele>121.0</ele><time>2026-04-18T09:10:07.002Z</time></trkpt><trkpt lat="45.38539511274196" lon="8.755904055447889"><ele>121.0</ele><time>2026-04-18T09:10:09.002Z</time></trkpt><trkpt lat="45.38533237863551" lon="8.755933504070363"><ele>121.0</ele><time>2026-04-18T09:10:10.002Z</time></trkpt><trkpt lat="45.38525915657431" lon="8.755972480247353"><ele>121.0</ele><time>2026-04-18T09:10:11.002Z</time></trkpt><trkpt lat="45.38517532604755" lon="8.756021263108703"><ele>120.83333333333334</ele><time>2026-04-18T09:10:12.002Z</time></trkpt><trkpt lat="45.38510716157212" lon="8.756077206307678"><ele>120.66666666666667</ele><time>2026-04-18T09:10:13.002Z</time></trkpt><trkpt lat="45.385018130108044" lon="8.756136395858372"><ele>120.5</ele><time>2026-04-18T09:10:14.002Z</time></trkpt><trkpt lat="45.384954146428655" lon="8.756194749593183"><ele>120.33333333333334</ele><time>2026-04-18T09:10:15.002Z</time></trkpt><trkpt lat="45.38488202143888" lon="8.75621706244391"><ele>120.16666666666667</ele><time>2026-04-18T09:10:16.002Z</time></trkpt><trkpt lat="45.38481767919371" lon="8.756258239166343"><ele>120.0</ele><time>2026-04-18T09:10:17.002Z</time></trkpt><trkpt lat="45.38472239477399" lon="8.756309401176974"><ele>120.0</ele><time>2026-04-18T09:10:19.002Z</time></trkpt><trkpt lat="45.384638904753984" lon="8.756256596609862"><ele>120.0</ele><time>2026-04-18T09:10:21.002Z</time></trkpt><trkpt lat="45.38461186805376" lon="8.756121311926004"><ele>120.0</ele><time>2026-04-18T09:10:23.002Z</time></trkpt><trkpt lat="45.38457574496338" lon="8.75595600667102"><ele>120.0</ele><time>2026-04-18T09:10:25.002Z</time></trkpt><trkpt lat="45.384545969776866" lon="8.755851992727543"><ele>120.0</ele><time>2026-04-18T09:10:26.002Z</time></trkpt><trkpt lat="45.38451439769248" lon="8.7557417016637"><ele>120.33333333333333</ele><time>2026-04-18T09:10:27.002Z</time></trkpt><trkpt lat="45.384483266144976" lon="8.755630229049807"><ele>120.66666666666666</ele><time>2026-04-18T09:10:28.002Z</time></trkpt><trkpt lat="45.384452160920056" lon="8.755517358073678"><ele>121.0</ele><time>2026-04-18T09:10:29.002Z</time></trkpt><trkpt lat="45.384421955679194" lon="8.75540775285577"><ele>121.33333333333333</ele><time>2026-04-18T09:10:30.002Z</time></trkpt><trkpt lat="45.384392734555725" lon="8.755301718684482"><ele>121.66666666666666</ele><time>2026-04-18T09:10:31.002Z</time></trkpt><trkpt lat="45.38435921125092" lon="8.755212680166505"><ele>122.0</ele><time>2026-04-18T09:10:32.002Z</time></trkpt><trkpt lat="45.38432954520221" lon="8.755132805542777"><ele>122.16666666666666</ele><time>2026-04-18T09:10:33.002Z</time></trkpt><trkpt lat="45.38427286300184" lon="8.75499346996145"><ele>122.33333333333333</ele><time>2026-04-18T09:10:35.003Z</time></trkpt><trkpt lat="45.38422016024094" lon="8.754940713161258"><ele>122.5</ele><time>2026-04-18T09:10:36.003Z</time></trkpt><trkpt lat="45.38414378360831" lon="8.75481824835713"><ele>122.66666666666666</ele><time>2026-04-18T09:10:38Z</time></trkpt><trkpt lat="45.38411106021417" lon="8.75473394183345"><ele>122.83333333333333</ele><time>2026-04-18T09:10:39Z</time></trkpt><trkpt lat="45.38408083331222" lon="8.754636473036998"><ele>123.0</ele><time>2026-04-18T09:10:40Z</time></trkpt><trkpt lat="45.38405256189752" lon="8.754525291085487"><ele>123.0</ele><time>2026-04-18T09:10:41Z</time></trkpt><trkpt lat="45.38402321380988" lon="8.754418507456851"><ele>123.0</ele><time>2026-04-18T09:10:42Z</time></trkpt><trkpt lat="45.38400015559752" lon="8.754322539893025"><ele>123.0</ele><time>2026-04-18T09:10:43Z</time></trkpt><trkpt lat="45.38397152092962" lon="8.754226394684554"><ele>123.0</ele><time>2026-04-18T09:10:44Z</time></trkpt><trkpt lat="45.383944287411204" lon="8.754134012574044"><ele>123.0</ele><time>2026-04-18T09:10:45Z</time></trkpt><trkpt lat="45.383916704683074" lon="8.754030193841302"><ele>123.0</ele><time>2026-04-18T09:10:46Z</time></trkpt><trkpt lat="45.383885951695156" lon="8.753923690609799"><ele>122.83333333333333</ele><time>2026-04-18T09:10:47Z</time></trkpt><trkpt lat="45.3838607203275" lon="8.753826756992755"><ele>122.66666666666666</ele><time>2026-04-18T09:10:48Z</time></trkpt><trkpt lat="45.38382416387304" lon="8.75370747807238"><ele>122.5</ele><time>2026-04-18T09:10:49Z</time></trkpt><trkpt lat="45.38379402254891" lon="8.753586749752989"><ele>122.33333333333333</ele><time>2026-04-18T09:10:50Z</time></trkpt><trkpt lat="45.383760918973536" lon="8.753455776879994"><ele>122.16666666666666</ele><time>2026-04-18T09:10:51Z</time></trkpt><trkpt lat="45.38372731656094" lon="8.753337194253257"><ele>122.0</ele><time>2026-04-18T09:10:52Z</time></trkpt><trkpt lat="45.38369227167602" lon="8.75321999381629"><ele>121.6</ele><time>2026-04-18T09:10:53Z</time></trkpt><trkpt lat="45.38365947739398" lon="8.753092859014734"><ele>121.19999999999999</ele><time>2026-04-18T09:10:54Z</time></trkpt><trkpt lat="45.383623079331485" lon="8.75297698278493"><ele>120.8</ele><time>2026-04-18T09:10:55Z</time></trkpt><trkpt lat="45.38360506481385" lon="8.752851190385238"><ele>120.4</ele><time>2026-04-18T09:10:56Z</time></trkpt><trkpt lat="45.38357056379544" lon="8.752727415456421"><ele>120.0</ele><time>2026-04-18T09:10:57Z</time></trkpt><trkpt lat="45.38353493209948" lon="8.752599584062054"><ele>120.0</ele><time>2026-04-18T09:10:58Z</time></trkpt><trkpt lat="45.383496869761835" lon="8.75246425604556"><ele>120.0</ele><time>2026-04-18T09:10:59Z</time></trkpt><trkpt lat="45.3834579666035" lon="8.752326463404422"><ele>120.0</ele><time>2026-04-18T09:11:00Z</time></trkpt><trkpt lat="45.38341828573323" lon="8.752185916152477"><ele>120.0</ele><time>2026-04-18T09:11:01Z</time></trkpt><trkpt lat="45.38337853923249" lon="8.752045136445052"><ele>120.0</ele><time>2026-04-18T09:11:02Z</time></trkpt><trkpt lat="45.38333795566231" lon="8.751901391885756"><ele>120.0</ele><time>2026-04-18T09:11:03Z</time></trkpt><trkpt lat="45.38329858542735" lon="8.751761944888546"><ele>120.0</ele><time>2026-04-18T09:11:04Z</time></trkpt><trkpt lat="45.3832601670515" lon="8.751625869318742"><ele>120.0</ele><time>2026-04-18T09:11:05Z</time></trkpt><trkpt lat="45.383223568157824" lon="8.751496238244583"><ele>120.0</ele><time>2026-04-18T09:11:06Z</time></trkpt><trkpt lat="45.383188280585486" lon="8.751370833632127"><ele>120.0</ele><time>2026-04-18T09:11:07Z</time></trkpt><trkpt lat="45.38315123094473" lon="8.751239092614373"><ele>120.0</ele><time>2026-04-18T09:11:08Z</time></trkpt><trkpt lat="45.383116280262044" lon="8.751114815064858"><ele>120.0</ele><time>2026-04-18T09:11:09Z</time></trkpt><trkpt lat="45.383081255804534" lon="8.750990275185972"><ele>120.0</ele><time>2026-04-18T09:11:10Z</time></trkpt><trkpt lat="45.38304681716002" lon="8.750867818341243"><ele>120.0</ele><time>2026-04-18T09:11:11Z</time></trkpt><trkpt lat="45.38301242326048" lon="8.750744111409643"><ele>120.0</ele><time>2026-04-18T09:11:12Z</time></trkpt><trkpt lat="45.382978988203995" lon="8.750623115486666"><ele>119.8</ele><time>2026-04-18T09:11:13Z</time></trkpt><trkpt lat="45.38294578038728" lon="8.75050294190865"><ele>119.6</ele><time>2026-04-18T09:11:14Z</time></trkpt><trkpt lat="45.38291282747969" lon="8.750383690801195"><ele>119.4</ele><time>2026-04-18T09:11:15Z</time></trkpt><trkpt lat="45.38286646057772" lon="8.750274671886046"><ele>119.2</ele><time>2026-04-18T09:11:16Z</time></trkpt><trkpt lat="45.38283221728108" lon="8.750151594537416"><ele>119.0</ele><time>2026-04-18T09:11:17.001Z</time></trkpt><trkpt lat="45.38281528953887" lon="8.750024379884103"><ele>119.0</ele><time>2026-04-18T09:11:18.001Z</time></trkpt><trkpt lat="45.38278074204046" lon="8.74989680434982"><ele>119.0</ele><time>2026-04-18T09:11:19.001Z</time></trkpt><trkpt lat="45.38274465759639" lon="8.749763553247051"><ele>119.0</ele><time>2026-04-18T09:11:20.001Z</time></trkpt><trkpt lat="45.38270819103972" lon="8.749628891095556"><ele>119.0</ele><time>2026-04-18T09:11:21.001Z</time></trkpt><trkpt lat="45.38267069328911" lon="8.74949035677522"><ele>119.0</ele><time>2026-04-18T09:11:22.001Z</time></trkpt><trkpt lat="45.382635154058676" lon="8.749358835367913"><ele>119.2</ele><time>2026-04-18T09:11:23.001Z</time></trkpt><trkpt lat="45.38259848397475" lon="8.749223128974762"><ele>119.4</ele><time>2026-04-18T09:11:24.001Z</time></trkpt><trkpt lat="45.38256304526894" lon="8.749091979581669"><ele>119.6</ele><time>2026-04-18T09:11:25.001Z</time></trkpt><trkpt lat="45.382527505907326" lon="8.74896045770041"><ele>119.8</ele><time>2026-04-18T09:11:26.001Z</time></trkpt><trkpt lat="45.38249371860419" lon="8.748835419720777"><ele>120.0</ele><time>2026-04-18T09:11:27.001Z</time></trkpt><trkpt lat="45.38245961115949" lon="8.748709196983803"><ele>120.0</ele><time>2026-04-18T09:11:28.001Z</time></trkpt><trkpt lat="45.382425766410186" lon="8.748583946416277"><ele>120.0</ele><time>2026-04-18T09:11:29.001Z</time></trkpt><trkpt lat="45.38239698890195" lon="8.748477448380642"><ele>120.0</ele><time>2026-04-18T09:11:30.001Z</time></trkpt><trkpt lat="45.38237077600182" lon="8.748380441289644"><ele>120.0</ele><time>2026-04-18T09:11:31.001Z</time></trkpt><trkpt lat="45.38234487295381" lon="8.748284580877714"><ele>120.0</ele><time>2026-04-18T09:11:32.001Z</time></trkpt><trkpt lat="45.38231877246286" lon="8.748187989779272"><ele>120.0</ele><time>2026-04-18T09:11:33.001Z</time></trkpt><trkpt lat="45.38229478545945" lon="8.748099220153673"><ele>120.0</ele><time>2026-04-18T09:11:34.001Z</time></trkpt><trkpt lat="45.38226990404637" lon="8.748007140545296"><ele>120.0</ele><time>2026-04-18T09:11:35.001Z</time></trkpt><trkpt lat="45.3822268113099" lon="8.747905557820893"><ele>120.0</ele><time>2026-04-18T09:11:36.001Z</time></trkpt><trkpt lat="45.38220578026946" lon="8.747778382140584"><ele>120.0</ele><time>2026-04-18T09:11:37.001Z</time></trkpt><trkpt lat="45.38217025759402" lon="8.74764957594595"><ele>120.0</ele><time>2026-04-18T09:11:38.001Z</time></trkpt><trkpt lat="45.382133328814795" lon="8.747528069918733"><ele>120.0</ele><time>2026-04-18T09:11:39.001Z</time></trkpt><trkpt lat="45.38210004310289" lon="8.74741646831956"><ele>120.0</ele><time>2026-04-18T09:11:40.001Z</time></trkpt><trkpt lat="45.382066915022456" lon="8.747286542353493"><ele>120.0</ele><time>2026-04-18T09:11:41.001Z</time></trkpt><trkpt lat="45.38203440835578" lon="8.747157306626113"><ele>120.0</ele><time>2026-04-18T09:11:42.001Z</time></trkpt><trkpt lat="45.38199903830092" lon="8.747033008669945"><ele>120.0</ele><time>2026-04-18T09:11:43.001Z</time></trkpt><trkpt lat="45.38196378505684" lon="8.746897851619604"><ele>120.0</ele><time>2026-04-18T09:11:44.001Z</time></trkpt><trkpt lat="45.38193013652335" lon="8.746763281981924"><ele>120.0</ele><time>2026-04-18T09:11:45.001Z</time></trkpt><trkpt lat="45.38189604762627" lon="8.746626238703067"><ele>120.0</ele><time>2026-04-18T09:11:46.001Z</time></trkpt><trkpt lat="45.3818560664874" lon="8.746493842836129"><ele>120.0</ele><time>2026-04-18T09:11:47.001Z</time></trkpt><trkpt lat="45.38181403791233" lon="8.74635262977949"><ele>120.0</ele><time>2026-04-18T09:11:48.001Z</time></trkpt><trkpt lat="45.38177064750949" lon="8.746201737247818"><ele>120.0</ele><time>2026-04-18T09:11:49.001Z</time></trkpt><trkpt lat="45.381728453138656" lon="8.74605331084322"><ele>120.2</ele><time>2026-04-18T09:11:50.001Z</time></trkpt><trkpt lat="45.38168872189363" lon="8.74591630332847"><ele>120.4</ele><time>2026-04-18T09:11:51.001Z</time></trkpt><trkpt lat="45.38165369144298" lon="8.745778999630906"><ele>120.6</ele><time>2026-04-18T09:11:52.001Z</time></trkpt><trkpt lat="45.38161915243123" lon="8.745631370215673"><ele>120.8</ele><time>2026-04-18T09:11:53.001Z</time></trkpt><trkpt lat="45.3815751002547" lon="8.745475303895432"><ele>121.0</ele><time>2026-04-18T09:11:54.001Z</time></trkpt><trkpt lat="45.38153092320354" lon="8.745327911954252"><ele>121.0</ele><time>2026-04-18T09:11:55.001Z</time></trkpt><trkpt lat="45.381493732748744" lon="8.745183336336229"><ele>121.0</ele><time>2026-04-18T09:11:56.001Z</time></trkpt><trkpt lat="45.38145737162802" lon="8.745033808699468"><ele>121.0</ele><time>2026-04-18T09:11:57.001Z</time></trkpt><trkpt lat="45.38141800107407" lon="8.744886483770912"><ele>121.0</ele><time>2026-04-18T09:11:58.002Z</time></trkpt><trkpt lat="45.381378220875256" lon="8.744739154771226"><ele>121.0</ele><time>2026-04-18T09:11:59.002Z</time></trkpt><trkpt lat="45.38133689502917" lon="8.744564769296453"><ele>121.0</ele><time>2026-04-18T09:12:00.002Z</time></trkpt><trkpt lat="45.38128323679749" lon="8.744350845090757"><ele>121.0</ele><time>2026-04-18T09:12:01.002Z</time></trkpt><trkpt lat="45.3812292556082" lon="8.74413847072262"><ele>121.0</ele><time>2026-04-18T09:12:02.002Z</time></trkpt><trkpt lat="45.38116072259215" lon="8.743910258532852"><ele>121.0</ele><time>2026-04-18T09:12:03.002Z</time></trkpt><trkpt lat="45.38108591778546" lon="8.743668684993256"><ele>121.0</ele><time>2026-04-18T09:12:04.002Z</time></trkpt><trkpt lat="45.381023165148804" lon="8.743431563048064"><ele>121.0</ele><time>2026-04-18T09:12:05.002Z</time></trkpt><trkpt lat="45.380968362348575" lon="8.743228635196573"><ele>121.0</ele><time>2026-04-18T09:12:06.002Z</time></trkpt><trkpt lat="45.38092919827487" lon="8.743043477075636"><ele>121.0</ele><time>2026-04-18T09:12:07.002Z</time></trkpt><trkpt lat="45.380883730671215" lon="8.742875145541706"><ele>121.0</ele><time>2026-04-18T09:12:08.002Z</time></trkpt><trkpt lat="45.38083450604201" lon="8.742692904633868"><ele>121.0</ele><time>2026-04-18T09:12:09.002Z</time></trkpt><trkpt lat="45.3807832593635" lon="8.742503177634015"><ele>121.0</ele><time>2026-04-18T09:12:10.002Z</time></trkpt><trkpt lat="45.38073307765988" lon="8.742316295874746"><ele>121.0</ele><time>2026-04-18T09:12:11.002Z</time></trkpt><trkpt lat="45.38068120410301" lon="8.742122183431599"><ele>121.0</ele><time>2026-04-18T09:12:12.002Z</time></trkpt><trkpt lat="45.380634540816835" lon="8.74194756797458"><ele>121.0</ele><time>2026-04-18T09:12:13.002Z</time></trkpt><trkpt lat="45.38058154567937" lon="8.74174925853249"><ele>120.75</ele><time>2026-04-18T09:12:14.002Z</time></trkpt><trkpt lat="45.380515588428246" lon="8.741568705186651"><ele>120.5</ele><time>2026-04-18T09:12:15.002Z</time></trkpt><trkpt lat="45.38048607069838" lon="8.741391988201615"><ele>120.25</ele><time>2026-04-18T09:12:16.002Z</time></trkpt><trkpt lat="45.38044449101213" lon="8.741236086305346"><ele>120.0</ele><time>2026-04-18T09:12:17.002Z</time></trkpt><trkpt lat="45.380402541615375" lon="8.741078017714942"><ele>119.75</ele><time>2026-04-18T09:12:18.002Z</time></trkpt><trkpt lat="45.38035867566317" lon="8.740912727396209"><ele>119.5</ele><time>2026-04-18T09:12:19.002Z</time></trkpt><trkpt lat="45.38031218409395" lon="8.740737543547857"><ele>119.25</ele><time>2026-04-18T09:12:20.002Z</time></trkpt><trkpt lat="45.38026701368495" lon="8.740567337928711"><ele>119.0</ele><time>2026-04-18T09:12:21.002Z</time></trkpt><trkpt lat="45.38022020191116" lon="8.740390947525952"><ele>119.0</ele><time>2026-04-18T09:12:22.002Z</time></trkpt><trkpt lat="45.38017391806018" lon="8.740216546369956"><ele>119.0</ele><time>2026-04-18T09:12:23.002Z</time></trkpt><trkpt lat="45.38013231725089" lon="8.740059791286834"><ele>119.0</ele><time>2026-04-18T09:12:24.002Z</time></trkpt><trkpt lat="45.38009584696853" lon="8.73992236842698"><ele>119.0</ele><time>2026-04-18T09:12:25.002Z</time></trkpt><trkpt lat="45.38006377267511" lon="8.739801509991356"><ele>119.0</ele><time>2026-04-18T09:12:26.002Z</time></trkpt><trkpt lat="45.3800338223067" lon="8.739688654679064"><ele>118.99999999999999</ele><time>2026-04-18T09:12:27.002Z</time></trkpt><trkpt lat="45.38000800809934" lon="8.739591384740184"><ele>119.0</ele><time>2026-04-18T09:12:28.002Z</time></trkpt><trkpt lat="45.379982236267935" lon="8.739494274471825"><ele>119.0</ele><time>2026-04-18T09:12:29.002Z</time></trkpt><trkpt lat="45.37994814074098" lon="8.73936579992373"><ele>119.0</ele><time>2026-04-18T09:12:31.002Z</time></trkpt><trkpt lat="45.379925911969785" lon="8.739281862229381"><ele>118.99999999999999</ele><time>2026-04-18T09:12:33.002Z</time></trkpt><trkpt lat="45.37979217044789" lon="8.739297879257748"><ele>119.0</ele><time>2026-04-18T09:12:35.002Z</time></trkpt><trkpt lat="45.37966770958153" lon="8.739345768161803"><ele>119.2</ele><time>2026-04-18T09:12:37.002Z</time></trkpt><trkpt lat="45.37958880523609" lon="8.739389265330946"><ele>119.4</ele><time>2026-04-18T09:12:38.002Z</time></trkpt><trkpt lat="45.379502549901346" lon="8.739435148917947"><ele>119.6</ele><time>2026-04-18T09:12:39.002Z</time></trkpt><trkpt lat="45.379416103338166" lon="8.739477433802042"><ele>119.8</ele><time>2026-04-18T09:12:40.003Z</time></trkpt><trkpt lat="45.37931230677155" lon="8.739510012844018"><ele>120.0</ele><time>2026-04-18T09:12:41.003Z</time></trkpt><trkpt lat="45.37921012702851" lon="8.739575121067038"><ele>120.0</ele><time>2026-04-18T09:12:42.003Z</time></trkpt><trkpt lat="45.37910473148129" lon="8.739628250589808"><ele>120.0</ele><time>2026-04-18T09:12:42.999Z</time></trkpt><trkpt lat="45.37899739755838" lon="8.739665331957143"><ele>120.0</ele><time>2026-04-18T09:12:43.999Z</time></trkpt><trkpt lat="45.378888361262504" lon="8.739716235894575"><ele>120.0</ele><time>2026-04-18T09:12:44.999Z</time></trkpt><trkpt lat="45.37877789107606" lon="8.739759962576336"><ele>119.6</ele><time>2026-04-18T09:12:45.999Z</time></trkpt><trkpt lat="45.37867155855908" lon="8.739804437946978"><ele>119.2</ele><time>2026-04-18T09:12:46.999Z</time></trkpt><trkpt lat="45.37856028539866" lon="8.739854904198692"><ele>118.80000000000001</ele><time>2026-04-18T09:12:47.999Z</time></trkpt><trkpt lat="45.37846323464399" lon="8.739906971007823"><ele>118.4</ele><time>2026-04-18T09:12:48.999Z</time></trkpt><trkpt lat="45.37836299520469" lon="8.73995368962846"><ele>118.0</ele><time>2026-04-18T09:12:49.999Z</time></trkpt><trkpt lat="45.378253803811305" lon="8.739959212311902"><ele>118.0</ele><time>2026-04-18T09:12:51Z</time></trkpt><trkpt lat="45.378151837794896" lon="8.739999047274878"><ele>118.00000000000001</ele><time>2026-04-18T09:12:52Z</time></trkpt><trkpt lat="45.37804761300347" lon="8.740062578714511"><ele>118.00000000000001</ele><time>2026-04-18T09:12:53Z</time></trkpt><trkpt lat="45.377934194217275" lon="8.740098948019474"><ele>118.0</ele><time>2026-04-18T09:12:54Z</time></trkpt><trkpt lat="45.37782427366197" lon="8.740136955045253"><ele>118.0</ele><time>2026-04-18T09:12:55Z</time></trkpt><trkpt lat="45.377717819074526" lon="8.740204290305538"><ele>118.75</ele><time>2026-04-18T09:12:56Z</time></trkpt><trkpt lat="45.377602453968514" lon="8.74024882211674"><ele>119.5</ele><time>2026-04-18T09:12:57Z</time></trkpt><trkpt lat="45.37749231253788" lon="8.740306676908329"><ele>120.25</ele><time>2026-04-18T09:12:58Z</time></trkpt><trkpt lat="45.37738367412171" lon="8.740354314650242"><ele>121.0</ele><time>2026-04-18T09:12:59Z</time></trkpt><trkpt lat="45.37728508554567" lon="8.740399420922197"><ele>121.0</ele><time>2026-04-18T09:13:00Z</time></trkpt><trkpt lat="45.37719687680144" lon="8.740449642315776"><ele>121.0</ele><time>2026-04-18T09:13:01Z</time></trkpt><trkpt lat="45.377094625457815" lon="8.74052779297389"><ele>121.0</ele><time>2026-04-18T09:13:02Z</time></trkpt><trkpt lat="45.377011582595365" lon="8.740601793731392"><ele>121.0</ele><time>2026-04-18T09:13:03Z</time></trkpt><trkpt lat="45.376923009180906" lon="8.740695135356226"><ele>121.0</ele><time>2026-04-18T09:13:04Z</time></trkpt><trkpt lat="45.37682188931433" lon="8.740815150177365"><ele>121.0</ele><time>2026-04-18T09:13:05Z</time></trkpt><trkpt lat="45.376724443099285" lon="8.740919480648506"><ele>121.0</ele><time>2026-04-18T09:13:06Z</time></trkpt><trkpt lat="45.376635376554866" lon="8.741018036440915"><ele>121.0</ele><time>2026-04-18T09:13:07Z</time></trkpt><trkpt lat="45.37655004075199" lon="8.741100419367703"><ele>121.0</ele><time>2026-04-18T09:13:08Z</time></trkpt><trkpt lat="45.3764681195436" lon="8.741191537810675"><ele>121.0</ele><time>2026-04-18T09:13:09Z</time></trkpt><trkpt lat="45.376388165105546" lon="8.741277290175528"><ele>120.4</ele><time>2026-04-18T09:13:10Z</time></trkpt><trkpt lat="45.37630715450257" lon="8.74135866256911"><ele>119.8</ele><time>2026-04-18T09:13:11Z</time></trkpt><trkpt lat="45.3762232834424" lon="8.741402092320248"><ele>119.20000000000002</ele><time>2026-04-18T09:13:12Z</time></trkpt><trkpt lat="45.376146547744746" lon="8.741483532096934"><ele>118.60000000000001</ele><time>2026-04-18T09:13:13Z</time></trkpt><trkpt lat="45.37605521120628" lon="8.741547917248703"><ele>118.0</ele><time>2026-04-18T09:13:14Z</time></trkpt><trkpt lat="45.37595030961243" lon="8.741621312976013"><ele>118.0</ele><time>2026-04-18T09:13:15Z</time></trkpt><trkpt lat="45.37584888853141" lon="8.74168825421302"><ele>118.00000000000001</ele><time>2026-04-18T09:13:16Z</time></trkpt><trkpt lat="45.37574451231328" lon="8.741753376480863"><ele>118.00000000000001</ele><time>2026-04-18T09:13:17Z</time></trkpt><trkpt lat="45.37564754006905" lon="8.741818362253678"><ele>118.0</ele><time>2026-04-18T09:13:18Z</time></trkpt><trkpt lat="45.37554828453518" lon="8.741886729500116"><ele>118.0</ele><time>2026-04-18T09:13:19Z</time></trkpt><trkpt lat="45.375443604431666" lon="8.741959528862173"><ele>118.4</ele><time>2026-04-18T09:13:20Z</time></trkpt><trkpt lat="45.37535304423467" lon="8.742022908886632"><ele>118.80000000000001</ele><time>2026-04-18T09:13:21Z</time></trkpt><trkpt lat="45.37525873640418" lon="8.742091808147062"><ele>119.2</ele><time>2026-04-18T09:13:22Z</time></trkpt><trkpt lat="45.375168411263054" lon="8.742159713234278"><ele>119.6</ele><time>2026-04-18T09:13:23Z</time></trkpt><trkpt lat="45.37506981706745" lon="8.742229298526107"><ele>120.0</ele><time>2026-04-18T09:13:24Z</time></trkpt><trkpt lat="45.37497225146368" lon="8.742275428679017"><ele>120.0</ele><time>2026-04-18T09:13:25.001Z</time></trkpt><trkpt lat="45.37488516782052" lon="8.742351832905028"><ele>120.0</ele><time>2026-04-18T09:13:26.001Z</time></trkpt><trkpt lat="45.37478641342175" lon="8.742425989372839"><ele>120.0</ele><time>2026-04-18T09:13:27.001Z</time></trkpt><trkpt lat="45.3746940651851" lon="8.742490785810094"><ele>120.0</ele><time>2026-04-18T09:13:28.001Z</time></trkpt><trkpt lat="45.37458807637022" lon="8.74255868711624"><ele>120.0</ele><time>2026-04-18T09:13:29.001Z</time></trkpt><trkpt lat="45.374476695648816" lon="8.742617346078898"><ele>120.0</ele><time>2026-04-18T09:13:30.001Z</time></trkpt><trkpt lat="45.37438588934799" lon="8.742705740793035"><ele>120.0</ele><time>2026-04-18T09:13:31.001Z</time></trkpt><trkpt lat="45.374279360650235" lon="8.742753500800223"><ele>120.0</ele><time>2026-04-18T09:13:32.001Z</time></trkpt><trkpt lat="45.37418199150853" lon="8.742820682361353"><ele>120.0</ele><time>2026-04-18T09:13:33.001Z</time></trkpt><trkpt lat="45.37409101314026" lon="8.742907658844516"><ele>120.0</ele><time>2026-04-18T09:13:34.001Z</time></trkpt><trkpt lat="45.37399310169187" lon="8.742974072802097"><ele>120.0</ele><time>2026-04-18T09:13:35.001Z</time></trkpt><trkpt lat="45.37389011058711" lon="8.743022072501176"><ele>120.0</ele><time>2026-04-18T09:13:36.001Z</time></trkpt><trkpt lat="45.37379352750836" lon="8.743088711425631"><ele>120.0</ele><time>2026-04-18T09:13:37.001Z</time></trkpt><trkpt lat="45.373696240328826" lon="8.74317889587129"><ele>120.0</ele><time>2026-04-18T09:13:38.001Z</time></trkpt><trkpt lat="45.373597687548155" lon="8.743244737777438"><ele>120.0</ele><time>2026-04-18T09:13:39.001Z</time></trkpt><trkpt lat="45.37346925379223" lon="8.743331273400116"><ele>120.0</ele><time>2026-04-18T09:13:40.001Z</time></trkpt><trkpt lat="45.37333054176884" lon="8.743408156789274"><ele>120.0</ele><time>2026-04-18T09:13:41.001Z</time></trkpt><trkpt lat="45.37320301498398" lon="8.743520714502369"><ele>120.0</ele><time>2026-04-18T09:13:42.001Z</time></trkpt><trkpt lat="45.37308577943516" lon="8.743601189115385"><ele>120.0</ele><time>2026-04-18T09:13:43.001Z</time></trkpt><trkpt lat="45.372984768157345" lon="8.743666891273861"><ele>119.75</ele><time>2026-04-18T09:13:44.001Z</time></trkpt><trkpt lat="45.37288362805976" lon="8.74373729393512"><ele>119.5</ele><time>2026-04-18T09:13:45.001Z</time></trkpt><trkpt lat="45.37278242917285" lon="8.743797211066783"><ele>119.25</ele><time>2026-04-18T09:13:46.001Z</time></trkpt><trkpt lat="45.37267698237531" lon="8.743871869672756"><ele>119.0</ele><time>2026-04-18T09:13:47.001Z</time></trkpt><trkpt lat="45.37256905424341" lon="8.743945527399573"><ele>119.0</ele><time>2026-04-18T09:13:48.001Z</time></trkpt><trkpt lat="45.37246509570589" lon="8.744017117129093"><ele>119.0</ele><time>2026-04-18T09:13:49.001Z</time></trkpt><trkpt lat="45.37234864018067" lon="8.744100696007255"><ele>119.0</ele><time>2026-04-18T09:13:50.001Z</time></trkpt><trkpt lat="45.37224821434117" lon="8.74417088756811"><ele>119.0</ele><time>2026-04-18T09:13:51.001Z</time></trkpt><trkpt lat="45.37214251188726" lon="8.744247592495599"><ele>119.0</ele><time>2026-04-18T09:13:52.001Z</time></trkpt><trkpt lat="45.37204840925721" lon="8.744309405098491"><ele>119.0</ele><time>2026-04-18T09:13:53.001Z</time></trkpt><trkpt lat="45.371945948358956" lon="8.74438445670323"><ele>119.0</ele><time>2026-04-18T09:13:54.001Z</time></trkpt><trkpt lat="45.37185143705315" lon="8.744448513109658"><ele>119.0</ele><time>2026-04-18T09:13:55.001Z</time></trkpt><trkpt lat="45.37174799097751" lon="8.744514930703705"><ele>119.0</ele><time>2026-04-18T09:13:56.001Z</time></trkpt><trkpt lat="45.371659938375466" lon="8.744580842350596"><ele>119.0</ele><time>2026-04-18T09:13:57.001Z</time></trkpt><trkpt lat="45.37156063972302" lon="8.74464233109424"><ele>119.0</ele><time>2026-04-18T09:13:58.001Z</time></trkpt><trkpt lat="45.37145967235398" lon="8.744714987168903"><ele>119.0</ele><time>2026-04-18T09:13:59.001Z</time></trkpt><trkpt lat="45.37136131636009" lon="8.744779485700297"><ele>119.0</ele><time>2026-04-18T09:14:00.001Z</time></trkpt><trkpt lat="45.37126485390064" lon="8.744847515826521"><ele>119.0</ele><time>2026-04-18T09:14:01.001Z</time></trkpt><trkpt lat="45.371170177265114" lon="8.744913113649732"><ele>119.0</ele><time>2026-04-18T09:14:02.002Z</time></trkpt><trkpt lat="45.37107645645865" lon="8.74498173481912"><ele>119.0</ele><time>2026-04-18T09:14:03.002Z</time></trkpt><trkpt lat="45.37097602364566" lon="8.745048076044613"><ele>119.0</ele><time>2026-04-18T09:14:04.002Z</time></trkpt><trkpt lat="45.3708807065598" lon="8.745108913802168"><ele>119.0</ele><time>2026-04-18T09:14:05.002Z</time></trkpt><trkpt lat="45.370790434911434" lon="8.745163506713713"><ele>119.0</ele><time>2026-04-18T09:14:06.002Z</time></trkpt><trkpt lat="45.37068690293275" lon="8.74523686424718"><ele>118.80000000000001</ele><time>2026-04-18T09:14:07.002Z</time></trkpt><trkpt lat="45.37058846560512" lon="8.74530498726776"><ele>118.60000000000001</ele><time>2026-04-18T09:14:08.002Z</time></trkpt><trkpt lat="45.37048619277323" lon="8.745380349336735"><ele>118.4</ele><time>2026-04-18T09:14:09.002Z</time></trkpt><trkpt lat="45.37039055073749" lon="8.745448842052106"><ele>118.2</ele><time>2026-04-18T09:14:10.002Z</time></trkpt><trkpt lat="45.37029559699596" lon="8.745519486721891"><ele>118.0</ele><time>2026-04-18T09:14:11.002Z</time></trkpt><trkpt lat="45.37019646903028" lon="8.745584454664364"><ele>118.0</ele><time>2026-04-18T09:14:12.002Z</time></trkpt><trkpt lat="45.3700973480101" lon="8.74563327338881"><ele>118.00000000000001</ele><time>2026-04-18T09:14:13.002Z</time></trkpt><trkpt lat="45.370004164247106" lon="8.745701861470835"><ele>118.00000000000001</ele><time>2026-04-18T09:14:14.002Z</time></trkpt><trkpt lat="45.369903408340065" lon="8.745774815656512"><ele>118.0</ele><time>2026-04-18T09:14:15.002Z</time></trkpt><trkpt lat="45.36982279686326" lon="8.745834059497613"><ele>118.0</ele><time>2026-04-18T09:14:16.002Z</time></trkpt><trkpt lat="45.369727568126805" lon="8.745899955612439"><ele>118.0</ele><time>2026-04-18T09:14:17.002Z</time></trkpt><trkpt lat="45.36963601694885" lon="8.745967684483748"><ele>118.00000000000001</ele><time>2026-04-18T09:14:18.002Z</time></trkpt><trkpt lat="45.36953758739277" lon="8.746033687460624"><ele>118.00000000000001</ele><time>2026-04-18T09:14:19.002Z</time></trkpt><trkpt lat="45.369439699495054" lon="8.746100097834782"><ele>118.0</ele><time>2026-04-18T09:14:20.002Z</time></trkpt><trkpt lat="45.36934457027938" lon="8.746169187536932"><ele>118.0</ele><time>2026-04-18T09:14:21.002Z</time></trkpt><trkpt lat="45.36924967456814" lon="8.746226209134122"><ele>118.0</ele><time>2026-04-18T09:14:22.002Z</time></trkpt><trkpt lat="45.36915371811986" lon="8.74628671814093"><ele>118.00000000000001</ele><time>2026-04-18T09:14:23.002Z</time></trkpt><trkpt lat="45.36905539594044" lon="8.74635120823529"><ele>118.00000000000001</ele><time>2026-04-18T09:14:24.002Z</time></trkpt><trkpt lat="45.36895942817475" lon="8.74642662505838"><ele>118.0</ele><time>2026-04-18T09:14:25.002Z</time></trkpt><trkpt lat="45.368858711562645" lon="8.74649851923403"><ele>118.0</ele><time>2026-04-18T09:14:26.002Z</time></trkpt><trkpt lat="45.36875540657925" lon="8.746568902564134"><ele>117.80000000000001</ele><time>2026-04-18T09:14:27.002Z</time></trkpt><trkpt lat="45.36865945058571" lon="8.746642147108348"><ele>117.60000000000001</ele><time>2026-04-18T09:14:28.002Z</time></trkpt><trkpt lat="45.36856233193262" lon="8.74670447074343"><ele>117.39999999999999</ele><time>2026-04-18T09:14:29.002Z</time></trkpt><trkpt lat="45.36844946577155" lon="8.746777423220687"><ele>117.19999999999999</ele><time>2026-04-18T09:14:30.002Z</time></trkpt><trkpt lat="45.36835344273836" lon="8.74684255355151"><ele>117.0</ele><time>2026-04-18T09:14:31.002Z</time></trkpt><trkpt lat="45.36825368891007" lon="8.746918849112529"><ele>117.0</ele><time>2026-04-18T09:14:32.002Z</time></trkpt><trkpt lat="45.36815421907826" lon="8.74698837462062"><ele>116.99999999999999</ele><time>2026-04-18T09:14:33.002Z</time></trkpt><trkpt lat="45.36805507309285" lon="8.747056571164014"><ele>116.99999999999999</ele><time>2026-04-18T09:14:34.002Z</time></trkpt><trkpt lat="45.36795685804525" lon="8.747128744619236"><ele>117.0</ele><time>2026-04-18T09:14:35.002Z</time></trkpt><trkpt lat="45.36785356904318" lon="8.747189513801947"><ele>117.0</ele><time>2026-04-18T09:14:36.002Z</time></trkpt><trkpt lat="45.3677568747498" lon="8.74726468126861"><ele>117.0</ele><time>2026-04-18T09:14:37.002Z</time></trkpt><trkpt lat="45.367658402631356" lon="8.747327620016097"><ele>116.99999999999999</ele><time>2026-04-18T09:14:38.002Z</time></trkpt><trkpt lat="45.367561897826604" lon="8.747389822083612"><ele>116.99999999999999</ele><time>2026-04-18T09:14:39.002Z</time></trkpt><trkpt lat="45.36746858324999" lon="8.747450725487433"><ele>117.0</ele><time>2026-04-18T09:14:40.002Z</time></trkpt><trkpt lat="45.36736666472752" lon="8.747515271059083"><ele>117.0</ele><time>2026-04-18T09:14:41.002Z</time></trkpt><trkpt lat="45.367283258225534" lon="8.747578324288833"><ele>117.0</ele><time>2026-04-18T09:14:42.003Z</time></trkpt><trkpt lat="45.367179932976185" lon="8.74764848329133"><ele>116.99999999999999</ele><time>2026-04-18T09:14:43.003Z</time></trkpt><trkpt lat="45.36708579994635" lon="8.747715080366666"><ele>116.99999999999999</ele><time>2026-04-18T09:14:44.003Z</time></trkpt><trkpt lat="45.36699318731319" lon="8.747781066252207"><ele>117.0</ele><time>2026-04-18T09:14:45.003Z</time></trkpt><trkpt lat="45.36689081321082" lon="8.747847813435643"><ele>117.0</ele><time>2026-04-18T09:14:46.003Z</time></trkpt><trkpt lat="45.36679515393233" lon="8.747913744289063"><ele>117.0</ele><time>2026-04-18T09:14:47.003Z</time></trkpt><trkpt lat="45.36670245678278" lon="8.7479829463931"><ele>116.99999999999999</ele><time>2026-04-18T09:14:48.003Z</time></trkpt><trkpt lat="45.36660636148952" lon="8.74805087458429"><ele>116.99999999999999</ele><time>2026-04-18T09:14:48.999Z</time></trkpt><trkpt lat="45.366512991021544" lon="8.748112561531448"><ele>117.0</ele><time>2026-04-18T09:14:49.999Z</time></trkpt><trkpt lat="45.366422774087965" lon="8.748173364760488"><ele>117.0</ele><time>2026-04-18T09:14:50.999Z</time></trkpt><trkpt lat="45.366323310416185" lon="8.748234896015433"><ele>117.19999999999999</ele><time>2026-04-18T09:14:51.999Z</time></trkpt><trkpt lat="45.366231232556295" lon="8.74830238462136"><ele>117.39999999999999</ele><time>2026-04-18T09:14:52.999Z</time></trkpt><trkpt lat="45.36613736520829" lon="8.748370510110401"><ele>117.60000000000001</ele><time>2026-04-18T09:14:53.999Z</time></trkpt><trkpt lat="45.366049700242705" lon="8.748450498458208"><ele>117.80000000000001</ele><time>2026-04-18T09:14:54.999Z</time></trkpt><trkpt lat="45.36595480909448" lon="8.748536449300639"><ele>118.0</ele><time>2026-04-18T09:14:55.999Z</time></trkpt><trkpt lat="45.36586535105726" lon="8.74862190892599"><ele>118.4</ele><time>2026-04-18T09:14:56.999Z</time></trkpt><trkpt lat="45.36577904075914" lon="8.748706095723504"><ele>118.80000000000001</ele><time>2026-04-18T09:14:57.999Z</time></trkpt><trkpt lat="45.36569510887512" lon="8.748792558546018"><ele>119.2</ele><time>2026-04-18T09:14:58.999Z</time></trkpt><trkpt lat="45.36561589441863" lon="8.748864661231714"><ele>119.6</ele><time>2026-04-18T09:14:59.999Z</time></trkpt><trkpt lat="45.365543351166174" lon="8.74892559079329"><ele>120.0</ele><time>2026-04-18T09:15:00.999Z</time></trkpt><trkpt lat="45.36547525665286" lon="8.748984171575785"><ele>120.0</ele><time>2026-04-18T09:15:01.999Z</time></trkpt><trkpt lat="45.36542093644062" lon="8.749043218698858"><ele>120.0</ele><time>2026-04-18T09:15:02.999Z</time></trkpt><trkpt lat="45.36532681771373" lon="8.749150030731304"><ele>120.0</ele><time>2026-04-18T09:15:05Z</time></trkpt><trkpt lat="45.365241433178205" lon="8.749256527929246"><ele>120.0</ele><time>2026-04-18T09:15:07Z</time></trkpt><trkpt lat="45.36517734553357" lon="8.7493391813239"><ele>120.0</ele><time>2026-04-18T09:15:09Z</time></trkpt><trkpt lat="45.36512621690291" lon="8.749416181274686"><ele>120.0</ele><time>2026-04-18T09:15:11Z</time></trkpt><trkpt lat="45.36506624348181" lon="8.749486686303332"><ele>120.0</ele><time>2026-04-18T09:15:13Z</time></trkpt><trkpt lat="45.36498875114502" lon="8.749592205689977"><ele>120.0</ele><time>2026-04-18T09:15:15Z</time></trkpt><trkpt lat="45.36490522036145" lon="8.749686749207791"><ele>120.0</ele><time>2026-04-18T09:15:17Z</time></trkpt><trkpt lat="45.36487095521992" lon="8.749762701699906"><ele>120.0</ele><time>2026-04-18T09:15:18Z</time></trkpt><trkpt lat="45.36482251424605" lon="8.74982264184775"><ele>120.0</ele><time>2026-04-18T09:15:19Z</time></trkpt><trkpt lat="45.36474788524828" lon="8.749896566722793"><ele>120.2</ele><time>2026-04-18T09:15:20Z</time></trkpt><trkpt lat="45.36466478250703" lon="8.750028686486662"><ele>120.4</ele><time>2026-04-18T09:15:22Z</time></trkpt><trkpt lat="45.364615489168386" lon="8.75009708116552"><ele>120.6</ele><time>2026-04-18T09:15:23Z</time></trkpt><trkpt lat="45.36456494998784" lon="8.750158919145731"><ele>120.8</ele><time>2026-04-18T09:15:24Z</time></trkpt><trkpt lat="45.3644578359521" lon="8.750262919334604"><ele>121.0</ele><time>2026-04-18T09:15:26Z</time></trkpt><trkpt lat="45.36440033184302" lon="8.750321618779862"><ele>120.66666666666667</ele><time>2026-04-18T09:15:27Z</time></trkpt><trkpt lat="45.36433938844323" lon="8.750377189046613"><ele>120.33333333333334</ele><time>2026-04-18T09:15:28Z</time></trkpt><trkpt lat="45.36427605457359" lon="8.750432421552926"><ele>120.0</ele><time>2026-04-18T09:15:29Z</time></trkpt><trkpt lat="45.36420512322414" lon="8.750492939014553"><ele>119.66666666666666</ele><time>2026-04-18T09:15:30Z</time></trkpt><trkpt lat="45.3640906847661" lon="8.750593312269876"><ele>119.33333333333333</ele><time>2026-04-18T09:15:32Z</time></trkpt><trkpt lat="45.364012647903635" lon="8.750643436518095"><ele>119.0</ele><time>2026-04-18T09:15:33.001Z</time></trkpt><trkpt lat="45.36394834552818" lon="8.750707186033877"><ele>119.0</ele><time>2026-04-18T09:15:34.001Z</time></trkpt><trkpt lat="45.36387049290543" lon="8.750773368955182"><ele>119.0</ele><time>2026-04-18T09:15:35.001Z</time></trkpt><trkpt lat="45.36379208690982" lon="8.750843803093979"><ele>119.0</ele><time>2026-04-18T09:15:36.001Z</time></trkpt><trkpt lat="45.36370870565121" lon="8.750917367584623"><ele>119.0</ele><time>2026-04-18T09:15:37.001Z</time></trkpt><trkpt lat="45.363621455471375" lon="8.750979503814587"><ele>119.0</ele><time>2026-04-18T09:15:38.001Z</time></trkpt><trkpt lat="45.36353001833226" lon="8.751046410337743"><ele>118.80000000000001</ele><time>2026-04-18T09:15:39.001Z</time></trkpt><trkpt lat="45.36344532168054" lon="8.751113982563202"><ele>118.60000000000001</ele><time>2026-04-18T09:15:40.001Z</time></trkpt><trkpt lat="45.36337842012709" lon="8.751174722556504"><ele>118.4</ele><time>2026-04-18T09:15:41.001Z</time></trkpt><trkpt lat="45.363315196032715" lon="8.751223174295616"><ele>118.2</ele><time>2026-04-18T09:15:42.001Z</time></trkpt><trkpt lat="45.36325827958775" lon="8.751263625037037"><ele>118.0</ele><time>2026-04-18T09:15:43.001Z</time></trkpt><trkpt lat="45.36312421564982" lon="8.75133013892489"><ele>118.0</ele><time>2026-04-18T09:15:45.001Z</time></trkpt><trkpt lat="45.363041802432996" lon="8.751356189517294"><ele>118.00000000000001</ele><time>2026-04-18T09:15:46.001Z</time></trkpt><trkpt lat="45.36293712644594" lon="8.751354806997883"><ele>118.00000000000001</ele><time>2026-04-18T09:15:47.001Z</time></trkpt><trkpt lat="45.362854142950866" lon="8.751377740447905"><ele>118.0</ele><time>2026-04-18T09:15:48.001Z</time></trkpt><trkpt lat="45.36275515149914" lon="8.751397732955793"><ele>118.0</ele><time>2026-04-18T09:15:49.001Z</time></trkpt><trkpt lat="45.36265188602736" lon="8.751414555350381"><ele>117.60000000000001</ele><time>2026-04-18T09:15:50.001Z</time></trkpt><trkpt lat="45.36254800412457" lon="8.751455959716399"><ele>117.20000000000002</ele><time>2026-04-18T09:15:51.001Z</time></trkpt><trkpt lat="45.36244399505169" lon="8.7514919690385"><ele>116.8</ele><time>2026-04-18T09:15:52.001Z</time></trkpt><trkpt lat="45.362340565808076" lon="8.751528734356663"><ele>116.4</ele><time>2026-04-18T09:15:53.001Z</time></trkpt><trkpt lat="45.36222653095852" lon="8.75158168408678"><ele>116.0</ele><time>2026-04-18T09:15:54.001Z</time></trkpt><trkpt lat="45.36209713851149" lon="8.751618272182098"><ele>115.75</ele><time>2026-04-18T09:15:55.001Z</time></trkpt><trkpt lat="45.36197544356794" lon="8.751684427847987"><ele>115.5</ele><time>2026-04-18T09:15:56.001Z</time></trkpt><trkpt lat="45.3618509408097" lon="8.751735282755044"><ele>115.25</ele><time>2026-04-18T09:15:57.001Z</time></trkpt><trkpt lat="45.36171959518861" lon="8.751784152457319"><ele>115.0</ele><time>2026-04-18T09:15:58.001Z</time></trkpt><trkpt lat="45.36159805364437" lon="8.751846385517764"><ele>115.25</ele><time>2026-04-18T09:15:59.001Z</time></trkpt><trkpt lat="45.361464381021236" lon="8.751911555216886"><ele>115.5</ele><time>2026-04-18T09:16:00.001Z</time></trkpt><trkpt lat="45.36133395477692" lon="8.751971619709096"><ele>115.75</ele><time>2026-04-18T09:16:01.001Z</time></trkpt><trkpt lat="45.361202794896435" lon="8.752033004134335"><ele>116.0</ele><time>2026-04-18T09:16:02.001Z</time></trkpt><trkpt lat="45.361073346605494" lon="8.752093588814605"><ele>116.25</ele><time>2026-04-18T09:16:03.001Z</time></trkpt><trkpt lat="45.36094256494065" lon="8.752157003650073"><ele>116.5</ele><time>2026-04-18T09:16:04.001Z</time></trkpt><trkpt lat="45.36080831070201" lon="8.752198905654913"><ele>116.75</ele><time>2026-04-18T09:16:05.001Z</time></trkpt><trkpt lat="45.3606807065726" lon="8.75227915378008"><ele>117.0</ele><time>2026-04-18T09:16:06.001Z</time></trkpt><trkpt lat="45.360544917073035" lon="8.752335823383252"><ele>117.0</ele><time>2026-04-18T09:16:07.001Z</time></trkpt><trkpt lat="45.36040366606723" lon="8.752389630334314"><ele>117.0</ele><time>2026-04-18T09:16:08.001Z</time></trkpt><trkpt lat="45.36025582058276" lon="8.752447009237487"><ele>117.0</ele><time>2026-04-18T09:16:09.002Z</time></trkpt><trkpt lat="45.360102918075405" lon="8.752480801238436"><ele>117.0</ele><time>2026-04-18T09:16:10.002Z</time></trkpt><trkpt lat="45.35996952632054" lon="8.752553739301067"><ele>117.0</ele><time>2026-04-18T09:16:11.002Z</time></trkpt><trkpt lat="45.3598435945859" lon="8.752577100479739"><ele>117.0</ele><time>2026-04-18T09:16:12.002Z</time></trkpt><trkpt lat="45.359740065722896" lon="8.75262977581668"><ele>117.0</ele><time>2026-04-18T09:16:13.002Z</time></trkpt><trkpt lat="45.359659981760366" lon="8.752667417343929"><ele>116.83333333333333</ele><time>2026-04-18T09:16:14.002Z</time></trkpt><trkpt lat="45.35957967910674" lon="8.752691394629867"><ele>116.66666666666666</ele><time>2026-04-18T09:16:15.002Z</time></trkpt><trkpt lat="45.359515023135444" lon="8.75270002844593"><ele>116.5</ele><time>2026-04-18T09:16:16.002Z</time></trkpt><trkpt lat="45.35945314553184" lon="8.7527224311699"><ele>116.33333333333333</ele><time>2026-04-18T09:16:17.002Z</time></trkpt><trkpt lat="45.35935339893947" lon="8.752753591770965"><ele>116.16666666666666</ele><time>2026-04-18T09:16:19.002Z</time></trkpt><trkpt lat="45.35927181311327" lon="8.752733043060532"><ele>116.0</ele><time>2026-04-18T09:16:21.002Z</time></trkpt><trkpt lat="45.3592380453228" lon="8.75260441743321"><ele>115.99999999999999</ele><time>2026-04-18T09:16:23.002Z</time></trkpt><trkpt lat="45.35917685613679" lon="8.752431072303843"><ele>116.0</ele><time>2026-04-18T09:16:25.002Z</time></trkpt><trkpt lat="45.35914488699461" lon="8.752339523835344"><ele>116.0</ele><time>2026-04-18T09:16:26.002Z</time></trkpt><trkpt lat="45.35911493964312" lon="8.752253763495478"><ele>116.0</ele><time>2026-04-18T09:16:27.002Z</time></trkpt><trkpt lat="45.35908354713483" lon="8.75216386539952"><ele>115.99999999999999</ele><time>2026-04-18T09:16:28.002Z</time></trkpt><trkpt lat="45.359050287025724" lon="8.752069197981324"><ele>116.0</ele><time>2026-04-18T09:16:29.002Z</time></trkpt><trkpt lat="45.3590135801341" lon="8.75196703963109"><ele>116.16666666666666</ele><time>2026-04-18T09:16:30.002Z</time></trkpt><trkpt lat="45.35897416722071" lon="8.751857350653905"><ele>116.33333333333333</ele><time>2026-04-18T09:16:31.002Z</time></trkpt><trkpt lat="45.35893771561604" lon="8.75175590316581"><ele>116.5</ele><time>2026-04-18T09:16:32.002Z</time></trkpt><trkpt lat="45.35890377828507" lon="8.751662340311466"><ele>116.66666666666666</ele><time>2026-04-18T09:16:33.002Z</time></trkpt><trkpt lat="45.35886960647199" lon="8.75157558760074"><ele>116.83333333333333</ele><time>2026-04-18T09:16:34.002Z</time></trkpt><trkpt lat="45.35880307032461" lon="8.75144822633628"><ele>117.0</ele><time>2026-04-18T09:16:36.002Z</time></trkpt><trkpt lat="45.35870703526572" lon="8.751346196632884"><ele>117.0</ele><time>2026-04-18T09:16:38.002Z</time></trkpt><trkpt lat="45.35864537676571" lon="8.751314772751348"><ele>117.0</ele><time>2026-04-18T09:16:39.002Z</time></trkpt><trkpt lat="45.35857472271546" lon="8.7513049135211"><ele>117.0</ele><time>2026-04-18T09:16:40.002Z</time></trkpt><trkpt lat="45.35849985616973" lon="8.751303403378556"><ele>117.0</ele><time>2026-04-18T09:16:41.002Z</time></trkpt><trkpt lat="45.35842273022872" lon="8.75130075836051"><ele>117.0</ele><time>2026-04-18T09:16:42.002Z</time></trkpt><trkpt lat="45.35833672879646" lon="8.751297808941642"><ele>117.0</ele><time>2026-04-18T09:16:43.002Z</time></trkpt><trkpt lat="45.35823726391266" lon="8.751294397807015"><ele>117.0</ele><time>2026-04-18T09:16:44.002Z</time></trkpt><trkpt lat="45.35813331465155" lon="8.75129221371772"><ele>116.99999999999999</ele><time>2026-04-18T09:16:45.002Z</time></trkpt><trkpt lat="45.3580240821678" lon="8.751289962359667"><ele>116.99999999999999</ele><time>2026-04-18T09:16:46.003Z</time></trkpt><trkpt lat="45.357918430083835" lon="8.75128797661923"><ele>117.0</ele><time>2026-04-18T09:16:47.003Z</time></trkpt><trkpt lat="45.357798872372186" lon="8.751286674694772"><ele>117.0</ele><time>2026-04-18T09:16:48.003Z</time></trkpt><trkpt lat="45.35768152249916" lon="8.751285346202591"><ele>116.5</ele><time>2026-04-18T09:16:49.003Z</time></trkpt><trkpt lat="45.35755230109578" lon="8.75128295459867"><ele>116.0</ele><time>2026-04-18T09:16:50.003Z</time></trkpt><trkpt lat="45.35742053485539" lon="8.751280087807032"><ele>115.5</ele><time>2026-04-18T09:16:51.003Z</time></trkpt><trkpt lat="45.35728812394664" lon="8.751277206988183"><ele>115.0</ele><time>2026-04-18T09:16:52.003Z</time></trkpt><trkpt lat="45.35715348812005" lon="8.751272809514916"><ele>115.0</ele><time>2026-04-18T09:16:53.003Z</time></trkpt><trkpt lat="45.357020079494056" lon="8.751268213153201"><ele>115.0</ele><time>2026-04-18T09:16:54.003Z</time></trkpt><trkpt lat="45.35688903687392" lon="8.751263698320535"><ele>115.0</ele><time>2026-04-18T09:16:54.999Z</time></trkpt><trkpt lat="45.3567619588465" lon="8.75125932007334"><ele>115.0</ele><time>2026-04-18T09:16:55.999Z</time></trkpt><trkpt lat="45.35663090132592" lon="8.75125322117805"><ele>115.0</ele><time>2026-04-18T09:16:56.999Z</time></trkpt><trkpt lat="45.35649649943829" lon="8.751244725960897"><ele>115.0</ele><time>2026-04-18T09:16:57.999Z</time></trkpt><trkpt lat="45.35636164347289" lon="8.751236300304322"><ele>115.0</ele><time>2026-04-18T09:16:58.999Z</time></trkpt><trkpt lat="45.35622454769282" lon="8.751228961547442"><ele>115.0</ele><time>2026-04-18T09:16:59.999Z</time></trkpt><trkpt lat="45.35608586553935" lon="8.751223185316446"><ele>114.75</ele><time>2026-04-18T09:17:00.999Z</time></trkpt><trkpt lat="45.35595096330587" lon="8.751219616263217"><ele>114.5</ele><time>2026-04-18T09:17:01.999Z</time></trkpt><trkpt lat="45.35581756132949" lon="8.751216086910924"><ele>114.25</ele><time>2026-04-18T09:17:02.999Z</time></trkpt><trkpt lat="45.355676451211245" lon="8.751212353631583"><ele>114.0</ele><time>2026-04-18T09:17:03.999Z</time></trkpt><trkpt lat="45.355532177063026" lon="8.751208536646313"><ele>114.0</ele><time>2026-04-18T09:17:04.999Z</time></trkpt><trkpt lat="45.355391995034616" lon="8.751224143876218"><ele>114.0</ele><time>2026-04-18T09:17:05.999Z</time></trkpt><trkpt lat="45.355257001839966" lon="8.751216641073194"><ele>114.0</ele><time>2026-04-18T09:17:06.999Z</time></trkpt><trkpt lat="45.35511875845043" lon="8.751193712901745"><ele>114.0</ele><time>2026-04-18T09:17:07.999Z</time></trkpt><trkpt lat="45.35497714938517" lon="8.751210498832794"><ele>114.0</ele><time>2026-04-18T09:17:08.999Z</time></trkpt><trkpt lat="45.35483602820717" lon="8.751199560010788"><ele>114.0</ele><time>2026-04-18T09:17:10Z</time></trkpt><trkpt lat="45.35468910718048" lon="8.751197258818113"><ele>114.0</ele><time>2026-04-18T09:17:11Z</time></trkpt><trkpt lat="45.35454668739127" lon="8.751187536824958"><ele>114.0</ele><time>2026-04-18T09:17:12Z</time></trkpt><trkpt lat="45.354400784813414" lon="8.751162542691254"><ele>114.25</ele><time>2026-04-18T09:17:13Z</time></trkpt><trkpt lat="45.35425989077243" lon="8.751156024970514"><ele>114.5</ele><time>2026-04-18T09:17:14Z</time></trkpt><trkpt lat="45.35411364505857" lon="8.75115208908758"><ele>114.75</ele><time>2026-04-18T09:17:15Z</time></trkpt><trkpt lat="45.35397566356642" lon="8.751148375616982"><ele>115.0</ele><time>2026-04-18T09:17:16Z</time></trkpt><trkpt lat="45.35384185699877" lon="8.751144774509068"><ele>115.0</ele><time>2026-04-18T09:17:17Z</time></trkpt><trkpt lat="45.35370165301101" lon="8.751140103790288"><ele>115.0</ele><time>2026-04-18T09:17:18Z</time></trkpt><trkpt lat="45.35355441431845" lon="8.751134954090139"><ele>115.0</ele><time>2026-04-18T09:17:19Z</time></trkpt><trkpt lat="45.35340775776941" lon="8.751129685057482"><ele>115.0</ele><time>2026-04-18T09:17:20Z</time></trkpt><trkpt lat="45.353267246350654" lon="8.751146204776603"><ele>115.0</ele><time>2026-04-18T09:17:21Z</time></trkpt><trkpt lat="45.3531280982694" lon="8.751139966981308"><ele>115.0</ele><time>2026-04-18T09:17:22Z</time></trkpt><trkpt lat="45.35298555318894" lon="8.751138378694554"><ele>115.0</ele><time>2026-04-18T09:17:23Z</time></trkpt><trkpt lat="45.352848331390426" lon="8.751120922314671"><ele>115.0</ele><time>2026-04-18T09:17:24Z</time></trkpt><trkpt lat="45.352711927351955" lon="8.75113525138288"><ele>115.0</ele><time>2026-04-18T09:17:25Z</time></trkpt><trkpt lat="45.35257215011517" lon="8.75115264925612"><ele>115.0</ele><time>2026-04-18T09:17:26Z</time></trkpt><trkpt lat="45.3524326909182" lon="8.751172516329131"><ele>115.0</ele><time>2026-04-18T09:17:27Z</time></trkpt><trkpt lat="45.35229456851732" lon="8.75119335930983"><ele>115.0</ele><time>2026-04-18T09:17:28Z</time></trkpt><trkpt lat="45.35215665755033" lon="8.75121458896982"><ele>115.5</ele><time>2026-04-18T09:17:29Z</time></trkpt><trkpt lat="45.35201650549954" lon="8.751231848780156"><ele>116.0</ele><time>2026-04-18T09:17:30Z</time></trkpt><trkpt lat="45.35187589739186" lon="8.751248720027245"><ele>116.5</ele><time>2026-04-18T09:17:31Z</time></trkpt><trkpt lat="45.35173554903779" lon="8.751266734659694"><ele>117.0</ele><time>2026-04-18T09:17:32Z</time></trkpt><trkpt lat="45.35159484484155" lon="8.751285585725444"><ele>117.0</ele><time>2026-04-18T09:17:33Z</time></trkpt><trkpt lat="45.35145659175997" lon="8.751302400011186"><ele>117.0</ele><time>2026-04-18T09:17:34Z</time></trkpt><trkpt lat="45.35131618652735" lon="8.751318323213974"><ele>117.0</ele><time>2026-04-18T09:17:35Z</time></trkpt><trkpt lat="45.35117919531519" lon="8.751333859239375"><ele>117.0</ele><time>2026-04-18T09:17:36Z</time></trkpt><trkpt lat="45.3510540232787" lon="8.751348550778745"><ele>117.0</ele><time>2026-04-18T09:17:37.001Z</time></trkpt><trkpt lat="45.35093818620742" lon="8.75136328482224"><ele>116.99999999999999</ele><time>2026-04-18T09:17:38.001Z</time></trkpt><trkpt lat="45.35082220812816" lon="8.751378036788557"><ele>116.99999999999999</ele><time>2026-04-18T09:17:39.001Z</time></trkpt><trkpt lat="45.35072055124165" lon="8.751396426997964"><ele>117.0</ele><time>2026-04-18T09:17:40.001Z</time></trkpt><trkpt lat="45.35063076854229" lon="8.75142101309684"><ele>117.0</ele><time>2026-04-18T09:17:41.001Z</time></trkpt><trkpt lat="45.350562008555166" lon="8.751467399486351"><ele>116.6</ele><time>2026-04-18T09:17:42.001Z</time></trkpt><trkpt lat="45.350501365673786" lon="8.75149719683949"><ele>116.19999999999999</ele><time>2026-04-18T09:17:43.001Z</time></trkpt><trkpt lat="45.35038296225132" lon="8.751558408901161"><ele>115.8</ele><time>2026-04-18T09:17:45.001Z</time></trkpt><trkpt lat="45.350270602166574" lon="8.751620750483536"><ele>115.4</ele><time>2026-04-18T09:17:47.001Z</time></trkpt><trkpt lat="45.35019128588732" lon="8.751695425682753"><ele>115.0</ele><time>2026-04-18T09:17:49.001Z</time></trkpt><trkpt lat="45.35012207619183" lon="8.751676387490086"><ele>115.0</ele><time>2026-04-18T09:17:52.001Z</time></trkpt><trkpt lat="45.35009929675159" lon="8.751528985583338"><ele>115.0</ele><time>2026-04-18T09:17:53.001Z</time></trkpt><trkpt lat="45.35006881922147" lon="8.75133473063836"><ele>115.0</ele><time>2026-04-18T09:17:55.001Z</time></trkpt><trkpt lat="45.35004063514398" lon="8.751185824033273"><ele>115.0</ele><time>2026-04-18T09:17:56.001Z</time></trkpt><trkpt lat="45.35000802407939" lon="8.751018343807942"><ele>115.0</ele><time>2026-04-18T09:17:57.001Z</time></trkpt><trkpt lat="45.349980305081786" lon="8.750845332073"><ele>115.0</ele><time>2026-04-18T09:17:58.001Z</time></trkpt><trkpt lat="45.34994386657219" lon="8.750657499794274"><ele>115.0</ele><time>2026-04-18T09:17:59.001Z</time></trkpt><trkpt lat="45.34990787261415" lon="8.750499444304607"><ele>115.0</ele><time>2026-04-18T09:18:00.001Z</time></trkpt><trkpt lat="45.349874408860686" lon="8.750355616466221"><ele>115.0</ele><time>2026-04-18T09:18:01.001Z</time></trkpt><trkpt lat="45.34984835877618" lon="8.750204276145448"><ele>115.0</ele><time>2026-04-18T09:18:02.001Z</time></trkpt><trkpt lat="45.34982005495374" lon="8.750049653919076"><ele>115.0</ele><time>2026-04-18T09:18:03.001Z</time></trkpt><trkpt lat="45.34979631499137" lon="8.749917785654134"><ele>115.0</ele><time>2026-04-18T09:18:04.001Z</time></trkpt><trkpt lat="45.34977410238519" lon="8.749795760112285"><ele>115.0</ele><time>2026-04-18T09:18:05.001Z</time></trkpt><trkpt lat="45.34975503119445" lon="8.749682510048247"><ele>115.0</ele><time>2026-04-18T09:18:06.001Z</time></trkpt><trkpt lat="45.349735157425194" lon="8.749589795912788"><ele>115.0</ele><time>2026-04-18T09:18:07.001Z</time></trkpt><trkpt lat="45.34969101976007" lon="8.749454584880938"><ele>115.0</ele><time>2026-04-18T09:18:09.001Z</time></trkpt><trkpt lat="45.34959585995344" lon="8.749394053034305"><ele>115.0</ele><time>2026-04-18T09:18:11.002Z</time></trkpt><trkpt lat="45.34947945398481" lon="8.749439749349824"><ele>115.0</ele><time>2026-04-18T09:18:13.002Z</time></trkpt><trkpt lat="45.349419183824324" lon="8.749471800931525"><ele>115.0</ele><time>2026-04-18T09:18:14.002Z</time></trkpt><trkpt lat="45.34931314955497" lon="8.749480951905415"><ele>115.0</ele><time>2026-04-18T09:18:16.002Z</time></trkpt><trkpt lat="45.34922365166599" lon="8.74936312013962"><ele>115.0</ele><time>2026-04-18T09:18:18.002Z</time></trkpt><trkpt lat="45.34919169205023" lon="8.749253338539127"><ele>115.0</ele><time>2026-04-18T09:18:19.002Z</time></trkpt><trkpt lat="45.34916307470018" lon="8.749114976139984"><ele>115.0</ele><time>2026-04-18T09:18:20.002Z</time></trkpt><trkpt lat="45.34912096596939" lon="8.748940985834901"><ele>115.0</ele><time>2026-04-18T09:18:21.002Z</time></trkpt><trkpt lat="45.34907564850582" lon="8.748763622705988"><ele>115.0</ele><time>2026-04-18T09:18:22.002Z</time></trkpt><trkpt lat="45.349025684286" lon="8.748596935673136"><ele>115.0</ele><time>2026-04-18T09:18:23.002Z</time></trkpt><trkpt lat="45.3489886757362" lon="8.748455687458652"><ele>115.0</ele><time>2026-04-18T09:18:24.002Z</time></trkpt><trkpt lat="45.34895082389683" lon="8.748331651674881"><ele>115.2</ele><time>2026-04-18T09:18:25.002Z</time></trkpt><trkpt lat="45.3489156808598" lon="8.748217772257354"><ele>115.4</ele><time>2026-04-18T09:18:26.002Z</time></trkpt><trkpt lat="45.34887956287183" lon="8.748122446528704"><ele>115.6</ele><time>2026-04-18T09:18:27.002Z</time></trkpt><trkpt lat="45.34884787301524" lon="8.748036837587295"><ele>115.8</ele><time>2026-04-18T09:18:28.002Z</time></trkpt><trkpt lat="45.3488082151153" lon="8.747871258846958"><ele>116.0</ele><time>2026-04-18T09:18:30.002Z</time></trkpt><trkpt lat="45.34879888945099" lon="8.747732455678417"><ele>116.19999999999999</ele><time>2026-04-18T09:18:32.002Z</time></trkpt><trkpt lat="45.34878033054323" lon="8.747621358539881"><ele>116.39999999999999</ele><time>2026-04-18T09:18:34.002Z</time></trkpt><trkpt lat="45.34859995849335" lon="8.747788676478468"><ele>116.6</ele><time>2026-04-18T09:18:37.002Z</time></trkpt><trkpt lat="45.34855403206845" lon="8.747852432098009"><ele>116.8</ele><time>2026-04-18T09:18:38.002Z</time></trkpt><trkpt lat="45.348508719182355" lon="8.747932580868046"><ele>117.0</ele><time>2026-04-18T09:18:39.002Z</time></trkpt><trkpt lat="45.348464129860396" lon="8.748016964777767"><ele>117.0</ele><time>2026-04-18T09:18:40.002Z</time></trkpt><trkpt lat="45.34841207604115" lon="8.748103606723733"><ele>117.0</ele><time>2026-04-18T09:18:41.002Z</time></trkpt><trkpt lat="45.34835653044654" lon="8.748184450105054"><ele>117.0</ele><time>2026-04-18T09:18:42.002Z</time></trkpt><trkpt lat="45.34829654237858" lon="8.74827018426371"><ele>117.0</ele><time>2026-04-18T09:18:43.002Z</time></trkpt><trkpt lat="45.348244033420606" lon="8.748358543926434"><ele>117.0</ele><time>2026-04-18T09:18:44.003Z</time></trkpt><trkpt lat="45.348184229773366" lon="8.748464452925754"><ele>117.0</ele><time>2026-04-18T09:18:45.003Z</time></trkpt><trkpt lat="45.348125411519966" lon="8.748551453828242"><ele>117.0</ele><time>2026-04-18T09:18:46.003Z</time></trkpt><trkpt lat="45.34807009455249" lon="8.748644319646017"><ele>117.0</ele><time>2026-04-18T09:18:47.003Z</time></trkpt><trkpt lat="45.34801790745317" lon="8.748729625610272"><ele>117.0</ele><time>2026-04-18T09:18:48.003Z</time></trkpt><trkpt lat="45.34796662996168" lon="8.748813825878129"><ele>117.0</ele><time>2026-04-18T09:18:49.003Z</time></trkpt><trkpt lat="45.34792052225138" lon="8.748880684408636"><ele>117.0</ele><time>2026-04-18T09:18:50.003Z</time></trkpt><trkpt lat="45.34785214138928" lon="8.7490098704924"><ele>117.0</ele><time>2026-04-18T09:18:52.003Z</time></trkpt><trkpt lat="45.347776859509466" lon="8.749127809760608"><ele>117.0</ele><time>2026-04-18T09:18:54.003Z</time></trkpt><trkpt lat="45.347703703567255" lon="8.749231218860523"><ele>117.0</ele><time>2026-04-18T09:18:56.003Z</time></trkpt><trkpt lat="45.34765470749343" lon="8.749302461368167"><ele>117.0</ele><time>2026-04-18T09:18:58.003Z</time></trkpt><trkpt lat="45.34758626062263" lon="8.749370803386745"><ele>117.0</ele><time>2026-04-18T09:19:01Z</time></trkpt><trkpt lat="45.347479126472315" lon="8.749336208947723"><ele>117.0</ele><time>2026-04-18T09:19:04Z</time></trkpt><trkpt lat="45.34744288257116" lon="8.749255558362462"><ele>117.0</ele><time>2026-04-18T09:19:05Z</time></trkpt><trkpt lat="45.347411089572745" lon="8.749162959975251"><ele>117.0</ele><time>2026-04-18T09:19:06Z</time></trkpt><trkpt lat="45.34739706250265" lon="8.749050672524518"><ele>117.0</ele><time>2026-04-18T09:19:07Z</time></trkpt><trkpt lat="45.347356838839566" lon="8.748950075480044"><ele>117.0</ele><time>2026-04-18T09:19:08Z</time></trkpt><trkpt lat="45.34731260963186" lon="8.748837566855254"><ele>117.0</ele><time>2026-04-18T09:19:09Z</time></trkpt><trkpt lat="45.34726711768939" lon="8.74871977381354"><ele>117.0</ele><time>2026-04-18T09:19:10Z</time></trkpt><trkpt lat="45.34721926781111" lon="8.748592693622083"><ele>117.0</ele><time>2026-04-18T09:19:11Z</time></trkpt><trkpt lat="45.347164014082644" lon="8.748467085597374"><ele>116.8</ele><time>2026-04-18T09:19:12Z</time></trkpt><trkpt lat="45.34710548450063" lon="8.748341476637345"><ele>116.6</ele><time>2026-04-18T09:19:13Z</time></trkpt><trkpt lat="45.34704603833553" lon="8.748220494865615"><ele>116.39999999999999</ele><time>2026-04-18T09:19:14Z</time></trkpt><trkpt lat="45.34698330807299" lon="8.748112949019129"><ele>116.19999999999999</ele><time>2026-04-18T09:19:15Z</time></trkpt><trkpt lat="45.346917137305915" lon="8.748026011990369"><ele>116.0</ele><time>2026-04-18T09:19:16Z</time></trkpt><trkpt lat="45.346852254110246" lon="8.74793229708814"><ele>116.0</ele><time>2026-04-18T09:19:17Z</time></trkpt><trkpt lat="45.34680244482037" lon="8.747875556909554"><ele>116.0</ele><time>2026-04-18T09:19:18Z</time></trkpt><trkpt lat="45.34675095318743" lon="8.747821436596034"><ele>116.0</ele><time>2026-04-18T09:19:19Z</time></trkpt><trkpt lat="45.34667060300081" lon="8.747782749373295"><ele>116.0</ele><time>2026-04-18T09:19:21Z</time></trkpt><trkpt lat="45.34673114447635" lon="8.747607218820107"><ele>116.0</ele><time>2026-04-18T09:19:27Z</time></trkpt><trkpt lat="45.346829661051316" lon="8.747475179312579"><ele>116.0</ele><time>2026-04-18T09:19:29Z</time></trkpt><trkpt lat="45.34688937019093" lon="8.747372737887336"><ele>116.0</ele><time>2026-04-18T09:19:30Z</time></trkpt><trkpt lat="45.346962823948495" lon="8.747291196126746"><ele>116.0</ele><time>2026-04-18T09:19:31Z</time></trkpt><trkpt lat="45.347046379870285" lon="8.747192534988322"><ele>116.0</ele><time>2026-04-18T09:19:32Z</time></trkpt><trkpt lat="45.34713879834575" lon="8.747091752924804"><ele>116.0</ele><time>2026-04-18T09:19:33Z</time></trkpt><trkpt lat="45.34722948697787" lon="8.746971984083435"><ele>116.75</ele><time>2026-04-18T09:19:34.001Z</time></trkpt><trkpt lat="45.34732762625909" lon="8.746854344651112"><ele>117.5</ele><time>2026-04-18T09:19:35.001Z</time></trkpt><trkpt lat="45.34741964862426" lon="8.746719221537491"><ele>118.25</ele><time>2026-04-18T09:19:36.001Z</time></trkpt><trkpt lat="45.34751081354181" lon="8.74659196943729"><ele>119.0</ele><time>2026-04-18T09:19:37.001Z</time></trkpt><trkpt lat="45.34760654426881" lon="8.746458839028913"><ele>119.0</ele><time>2026-04-18T09:19:38.001Z</time></trkpt><trkpt lat="45.34769602291675" lon="8.746325349884339"><ele>119.0</ele><time>2026-04-18T09:19:39.001Z</time></trkpt><trkpt lat="45.347788831165396" lon="8.74619083403867"><ele>119.0</ele><time>2026-04-18T09:19:40.001Z</time></trkpt><trkpt lat="45.34787643069497" lon="8.746054599720903"><ele>119.0</ele><time>2026-04-18T09:19:41.001Z</time></trkpt><trkpt lat="45.34797203816309" lon="8.74592048661452"><ele>119.0</ele><time>2026-04-18T09:19:42.001Z</time></trkpt><trkpt lat="45.348062179747295" lon="8.745778801468374"><ele>119.0</ele><time>2026-04-18T09:19:43.001Z</time></trkpt><trkpt lat="45.348164150002795" lon="8.745642060129727"><ele>119.0</ele><time>2026-04-18T09:19:44.001Z</time></trkpt><trkpt lat="45.34825737462188" lon="8.745506276467738"><ele>119.0</ele><time>2026-04-18T09:19:45.001Z</time></trkpt><trkpt lat="45.348349836756164" lon="8.745374259838172"><ele>119.0</ele><time>2026-04-18T09:19:46.001Z</time></trkpt><trkpt lat="45.34844500162785" lon="8.745238718635791"><ele>119.0</ele><time>2026-04-18T09:19:47.001Z</time></trkpt><trkpt lat="45.348541774775065" lon="8.74510499188448"><ele>119.0</ele><time>2026-04-18T09:19:48.001Z</time></trkpt><trkpt lat="45.34862160650084" lon="8.744950380644877"><ele>119.0</ele><time>2026-04-18T09:19:49.001Z</time></trkpt><trkpt lat="45.34871224051791" lon="8.74481532432255"><ele>119.0</ele><time>2026-04-18T09:19:50.001Z</time></trkpt><trkpt lat="45.34878074457897" lon="8.744648820303565"><ele>119.0</ele><time>2026-04-18T09:19:51.001Z</time></trkpt><trkpt lat="45.34884983094412" lon="8.744491979891377"><ele>119.0</ele><time>2026-04-18T09:19:52.001Z</time></trkpt><trkpt lat="45.34890198962002" lon="8.744361516473694"><ele>119.0</ele><time>2026-04-18T09:19:53.001Z</time></trkpt><trkpt lat="45.34895955285718" lon="8.744244761481665"><ele>119.25</ele><time>2026-04-18T09:19:54.001Z</time></trkpt><trkpt lat="45.34899584587643" lon="8.74411488323802"><ele>119.5</ele><time>2026-04-18T09:19:55.001Z</time></trkpt><trkpt lat="45.3490513701563" lon="8.743981870137322"><ele>119.75</ele><time>2026-04-18T09:19:56.001Z</time></trkpt><trkpt lat="45.349110645548706" lon="8.743820965328641"><ele>120.0</ele><time>2026-04-18T09:19:57.001Z</time></trkpt><trkpt lat="45.34917296594927" lon="8.743657150398176"><ele>120.25</ele><time>2026-04-18T09:19:58.001Z</time></trkpt><trkpt lat="45.34922821687915" lon="8.743482864138809"><ele>120.5</ele><time>2026-04-18T09:19:59.001Z</time></trkpt><trkpt lat="45.349282524196205" lon="8.743298997985253"><ele>120.75</ele><time>2026-04-18T09:20:00.001Z</time></trkpt><trkpt lat="45.349329273530856" lon="8.743114018236017"><ele>121.0</ele><time>2026-04-18T09:20:01.001Z</time></trkpt><trkpt lat="45.34937267853835" lon="8.742955507126943"><ele>121.0</ele><time>2026-04-18T09:20:02.001Z</time></trkpt><trkpt lat="45.34938893655923" lon="8.742787621302083"><ele>121.0</ele><time>2026-04-18T09:20:03.001Z</time></trkpt><trkpt lat="45.34940798653617" lon="8.742604744906938"><ele>121.0</ele><time>2026-04-18T09:20:04.001Z</time></trkpt><trkpt lat="45.34942945397066" lon="8.742412563090198"><ele>121.0</ele><time>2026-04-18T09:20:05.001Z</time></trkpt><trkpt lat="45.349465904796624" lon="8.742216624707462"><ele>120.5</ele><time>2026-04-18T09:20:06.002Z</time></trkpt><trkpt lat="45.34947646991905" lon="8.742013519548978"><ele>120.0</ele><time>2026-04-18T09:20:07.002Z</time></trkpt><trkpt lat="45.34949631786809" lon="8.741806016646823"><ele>119.5</ele><time>2026-04-18T09:20:08.002Z</time></trkpt><trkpt lat="45.34951642901503" lon="8.741588462106963"><ele>119.0</ele><time>2026-04-18T09:20:09.002Z</time></trkpt><trkpt lat="45.34953945364418" lon="8.741374535183175"><ele>118.66666666666666</ele><time>2026-04-18T09:20:10.002Z</time></trkpt><trkpt lat="45.349563564513865" lon="8.741156141191926"><ele>118.33333333333334</ele><time>2026-04-18T09:20:11.002Z</time></trkpt><trkpt lat="45.34958303688642" lon="8.740938486194915"><ele>118.0</ele><time>2026-04-18T09:20:12.002Z</time></trkpt><trkpt lat="45.349612580447946" lon="8.740719767334973"><ele>118.0</ele><time>2026-04-18T09:20:13.002Z</time></trkpt><trkpt lat="45.34964086161876" lon="8.740500895287111"><ele>118.0</ele><time>2026-04-18T09:20:14.002Z</time></trkpt><trkpt lat="45.34966446344247" lon="8.740283175340238"><ele>118.0</ele><time>2026-04-18T09:20:15.002Z</time></trkpt><trkpt lat="45.3496871047182" lon="8.740074229109963"><ele>118.75</ele><time>2026-04-18T09:20:16.002Z</time></trkpt><trkpt lat="45.349711120699894" lon="8.739877209681397"><ele>119.5</ele><time>2026-04-18T09:20:17.002Z</time></trkpt><trkpt lat="45.3497343063729" lon="8.739695801995744"><ele>120.25</ele><time>2026-04-18T09:20:18.002Z</time></trkpt><trkpt lat="45.34977195065135" lon="8.739536498697472"><ele>121.0</ele><time>2026-04-18T09:20:19.002Z</time></trkpt><trkpt lat="45.3497997781675" lon="8.739375862084184"><ele>121.0</ele><time>2026-04-18T09:20:20.002Z</time></trkpt><trkpt lat="45.3498342744113" lon="8.739207022899658"><ele>121.0</ele><time>2026-04-18T09:20:21.002Z</time></trkpt><trkpt lat="45.34985976296554" lon="8.739042886184514"><ele>121.0</ele><time>2026-04-18T09:20:22.002Z</time></trkpt><trkpt lat="45.3499027730981" lon="8.738912239009236"><ele>121.0</ele><time>2026-04-18T09:20:23.002Z</time></trkpt><trkpt lat="45.34995804682755" lon="8.738771759101127"><ele>121.0</ele><time>2026-04-18T09:20:24.002Z</time></trkpt><trkpt lat="45.35004013194952" lon="8.738632445033545"><ele>121.0</ele><time>2026-04-18T09:20:25.002Z</time></trkpt><trkpt lat="45.35010474918029" lon="8.738469313279325"><ele>121.0</ele><time>2026-04-18T09:20:26.002Z</time></trkpt><trkpt lat="45.350183726196015" lon="8.738308557869232"><ele>121.0</ele><time>2026-04-18T09:20:27.002Z</time></trkpt><trkpt lat="45.350261512676724" lon="8.738168023650356"><ele>120.4</ele><time>2026-04-18T09:20:28.002Z</time></trkpt><trkpt lat="45.35032246505019" lon="8.738032868387332"><ele>119.8</ele><time>2026-04-18T09:20:29.002Z</time></trkpt><trkpt lat="45.35036242455754" lon="8.73789946885403"><ele>119.20000000000002</ele><time>2026-04-18T09:20:30.002Z</time></trkpt><trkpt lat="45.350421629164885" lon="8.7377991955174"><ele>118.60000000000001</ele><time>2026-04-18T09:20:31.002Z</time></trkpt><trkpt lat="45.350459979027846" lon="8.73769583501459"><ele>118.0</ele><time>2026-04-18T09:20:32.002Z</time></trkpt><trkpt lat="45.350493705421584" lon="8.737594397626625"><ele>118.00000000000001</ele><time>2026-04-18T09:20:33.002Z</time></trkpt><trkpt lat="45.350519981393596" lon="8.737492396220805"><ele>118.0</ele><time>2026-04-18T09:20:34.002Z</time></trkpt><trkpt lat="45.35054225088688" lon="8.737388468704301"><ele>118.0</ele><time>2026-04-18T09:20:35.002Z</time></trkpt><trkpt lat="45.35056299547618" lon="8.737281443413234"><ele>118.0</ele><time>2026-04-18T09:20:36.002Z</time></trkpt><trkpt lat="45.350582579309595" lon="8.737166759026062"><ele>118.00000000000001</ele><time>2026-04-18T09:20:37.002Z</time></trkpt><trkpt lat="45.35059732258685" lon="8.73704608058924"><ele>118.0</ele><time>2026-04-18T09:20:38.002Z</time></trkpt><trkpt lat="45.35060764452044" lon="8.73689886966692"><ele>118.2</ele><time>2026-04-18T09:20:39.002Z</time></trkpt><trkpt lat="45.3506425728388" lon="8.736764055690896"><ele>118.4</ele><time>2026-04-18T09:20:40.003Z</time></trkpt><trkpt lat="45.35066523957992" lon="8.736619594234835"><ele>118.60000000000001</ele><time>2026-04-18T09:20:41.003Z</time></trkpt><trkpt lat="45.35068753564665" lon="8.736477495210634"><ele>118.80000000000001</ele><time>2026-04-18T09:20:42.003Z</time></trkpt><trkpt lat="45.350697710212806" lon="8.736326234687244"><ele>119.0</ele><time>2026-04-18T09:20:43.003Z</time></trkpt><trkpt lat="45.35073109191201" lon="8.736184691154307"><ele>118.80000000000001</ele><time>2026-04-18T09:20:44.003Z</time></trkpt><trkpt lat="45.35073577568221" lon="8.736039441828616"><ele>118.60000000000001</ele><time>2026-04-18T09:20:45.003Z</time></trkpt><trkpt lat="45.350759803335855" lon="8.735913888358214"><ele>118.4</ele><time>2026-04-18T09:20:46.003Z</time></trkpt><trkpt lat="45.350766844025635" lon="8.735796765895751"><ele>118.2</ele><time>2026-04-18T09:20:47.003Z</time></trkpt><trkpt lat="45.35077059118784" lon="8.735667338110074"><ele>118.0</ele><time>2026-04-18T09:20:48.003Z</time></trkpt><trkpt lat="45.350778480848795" lon="8.735524904632676"><ele>118.00000000000001</ele><time>2026-04-18T09:20:49.003Z</time></trkpt><trkpt lat="45.350779845733115" lon="8.735394011010571"><ele>118.0</ele><time>2026-04-18T09:20:50.003Z</time></trkpt><trkpt lat="45.35077229733178" lon="8.735277446726233"><ele>118.0</ele><time>2026-04-18T09:20:51.003Z</time></trkpt><trkpt lat="45.35076061240445" lon="8.735166294809178"><ele>118.0</ele><time>2026-04-18T09:20:52.003Z</time></trkpt><trkpt lat="45.35074149507971" lon="8.73503572676868"><ele>118.00000000000001</ele><time>2026-04-18T09:20:53.003Z</time></trkpt><trkpt lat="45.35072827384832" lon="8.734892091890174"><ele>118.0</ele><time>2026-04-18T09:20:54.003Z</time></trkpt><trkpt lat="45.35069407148254" lon="8.734748816360788"><ele>118.0</ele><time>2026-04-18T09:20:55.003Z</time></trkpt><trkpt lat="45.35066903215799" lon="8.734588474883958"><ele>118.00000000000001</ele><time>2026-04-18T09:20:56.003Z</time></trkpt><trkpt lat="45.35063688284802" lon="8.734428956548335"><ele>118.00000000000001</ele><time>2026-04-18T09:20:57.003Z</time></trkpt><trkpt lat="45.35061124173618" lon="8.734272441088844"><ele>118.0</ele><time>2026-04-18T09:20:58.003Z</time></trkpt><trkpt lat="45.350593055975246" lon="8.734133216272673"><ele>118.0</ele><time>2026-04-18T09:20:59.003Z</time></trkpt><trkpt lat="45.35057854630665" lon="8.73398849312956"><ele>118.0</ele><time>2026-04-18T09:21:00.003Z</time></trkpt><trkpt lat="45.35055697033995" lon="8.733839316047858"><ele>118.00000000000001</ele><time>2026-04-18T09:21:01.003Z</time></trkpt><trkpt lat="45.350554883886666" lon="8.73368239019722"><ele>118.00000000000001</ele><time>2026-04-18T09:21:02.003Z</time></trkpt><trkpt lat="45.35058132180968" lon="8.733537177458075"><ele>118.0</ele><time>2026-04-18T09:21:03.003Z</time></trkpt><trkpt lat="45.350604680573255" lon="8.733384290105498"><ele>118.0</ele><time>2026-04-18T09:21:04.003Z</time></trkpt><trkpt lat="45.350624149290624" lon="8.733242052842874"><ele>118.0</ele><time>2026-04-18T09:21:05.003Z</time></trkpt><trkpt lat="45.35066229149353" lon="8.733107557372664"><ele>118.00000000000001</ele><time>2026-04-18T09:21:06Z</time></trkpt><trkpt lat="45.35070832938903" lon="8.732967632358626"><ele>118.00000000000001</ele><time>2026-04-18T09:21:07Z</time></trkpt><trkpt lat="45.35077769553398" lon="8.7328343545859"><ele>118.0</ele><time>2026-04-18T09:21:08Z</time></trkpt><trkpt lat="45.35084634203834" lon="8.732706520205296"><ele>118.0</ele><time>2026-04-18T09:21:09Z</time></trkpt><trkpt lat="45.35090802913787" lon="8.732562079814711"><ele>118.75</ele><time>2026-04-18T09:21:10Z</time></trkpt><trkpt lat="45.35098801720731" lon="8.732425335617908"><ele>119.5</ele><time>2026-04-18T09:21:11Z</time></trkpt><trkpt lat="45.35106858434764" lon="8.732273094055445"><ele>120.25</ele><time>2026-04-18T09:21:12Z</time></trkpt><trkpt lat="45.35113904721895" lon="8.732141729585521"><ele>121.0</ele><time>2026-04-18T09:21:13Z</time></trkpt><trkpt lat="45.35120880668781" lon="8.732012263732114"><ele>121.25</ele><time>2026-04-18T09:21:14Z</time></trkpt><trkpt lat="45.35127993906557" lon="8.731879315836066"><ele>121.5</ele><time>2026-04-18T09:21:15Z</time></trkpt><trkpt lat="45.35135913791792" lon="8.731748783782026"><ele>121.75</ele><time>2026-04-18T09:21:16Z</time></trkpt><trkpt lat="45.351447423380606" lon="8.73161986361241"><ele>122.0</ele><time>2026-04-18T09:21:17Z</time></trkpt><trkpt lat="45.35152052113998" lon="8.731468200304546"><ele>122.0</ele><time>2026-04-18T09:21:18Z</time></trkpt><trkpt lat="45.351597909745536" lon="8.731317073841636"><ele>122.0</ele><time>2026-04-18T09:21:19Z</time></trkpt><trkpt lat="45.351675576341925" lon="8.73116982079614"><ele>122.0</ele><time>2026-04-18T09:21:20Z</time></trkpt><trkpt lat="45.35176567750855" lon="8.731030953317768"><ele>122.0</ele><time>2026-04-18T09:21:21Z</time></trkpt><trkpt lat="45.35183624406365" lon="8.73089964660728"><ele>121.5</ele><time>2026-04-18T09:21:22Z</time></trkpt><trkpt lat="45.35190981166235" lon="8.73076436950727"><ele>121.0</ele><time>2026-04-18T09:21:23Z</time></trkpt><trkpt lat="45.35198795775779" lon="8.730626249221668"><ele>120.5</ele><time>2026-04-18T09:21:24Z</time></trkpt><trkpt lat="45.352070130294855" lon="8.730486790759194"><ele>120.0</ele><time>2026-04-18T09:21:25Z</time></trkpt><trkpt lat="45.352162449953006" lon="8.730344882014352"><ele>119.5</ele><time>2026-04-18T09:21:26Z</time></trkpt><trkpt lat="45.35224749590722" lon="8.730199615302935"><ele>119.0</ele><time>2026-04-18T09:21:27Z</time></trkpt><trkpt lat="45.3523583017342" lon="8.730091050034204"><ele>118.5</ele><time>2026-04-18T09:21:28Z</time></trkpt><trkpt lat="45.35245499563982" lon="8.72995275336416"><ele>118.0</ele><time>2026-04-18T09:21:29Z</time></trkpt><trkpt lat="45.35256354667405" lon="8.729843173131"><ele>118.0</ele><time>2026-04-18T09:21:30Z</time></trkpt><trkpt lat="45.35266388607886" lon="8.729732862787756"><ele>118.00000000000001</ele><time>2026-04-18T09:21:31Z</time></trkpt><trkpt lat="45.35275141106213" lon="8.729639246259884"><ele>118.00000000000001</ele><time>2026-04-18T09:21:32Z</time></trkpt><trkpt lat="45.35283324628222" lon="8.729549245537068"><ele>118.0</ele><time>2026-04-18T09:21:33Z</time></trkpt><trkpt lat="45.3529084426305" lon="8.729467923248707"><ele>118.0</ele><time>2026-04-18T09:21:34Z</time></trkpt><trkpt lat="45.35299093941236" lon="8.729399708848453"><ele>118.2</ele><time>2026-04-18T09:21:35Z</time></trkpt><trkpt lat="45.35304942264529" lon="8.729311792415336"><ele>118.4</ele><time>2026-04-18T09:21:36Z</time></trkpt><trkpt lat="45.35311774265481" lon="8.729233753037995"><ele>118.60000000000001</ele><time>2026-04-18T09:21:37Z</time></trkpt><trkpt lat="45.353175049986746" lon="8.72915045551"><ele>118.80000000000001</ele><time>2026-04-18T09:21:38Z</time></trkpt><trkpt lat="45.35322782340906" lon="8.729060516328135"><ele>119.0</ele><time>2026-04-18T09:21:40Z</time></trkpt><trkpt lat="45.35313484110681" lon="8.72891581268466"><ele>119.0</ele><time>2026-04-18T09:21:44.001Z</time></trkpt><trkpt lat="45.353073895379026" lon="8.728869924832017"><ele>119.0</ele><time>2026-04-18T09:21:45.001Z</time></trkpt><trkpt lat="45.352997036633965" lon="8.728796699568505"><ele>119.0</ele><time>2026-04-18T09:21:46.001Z</time></trkpt><trkpt lat="45.35292300202227" lon="8.728716234754264"><ele>119.0</ele><time>2026-04-18T09:21:47.001Z</time></trkpt><trkpt lat="45.35282849153338" lon="8.728628327079422"><ele>119.0</ele><time>2026-04-18T09:21:48.001Z</time></trkpt><trkpt lat="45.35274200780659" lon="8.728542922556162"><ele>119.0</ele><time>2026-04-18T09:21:49.001Z</time></trkpt><trkpt lat="45.35266380609448" lon="8.728476391713876"><ele>119.0</ele><time>2026-04-18T09:21:50.001Z</time></trkpt><trkpt lat="45.35258775327348" lon="8.728437321296852"><ele>119.0</ele><time>2026-04-18T09:21:51.001Z</time></trkpt><trkpt lat="45.35250058241124" lon="8.728420836787764"><ele>119.0</ele><time>2026-04-18T09:21:52.001Z</time></trkpt><trkpt lat="45.35240088376057" lon="8.72841844398181"><ele>119.0</ele><time>2026-04-18T09:21:53.001Z</time></trkpt><trkpt lat="45.352289850585706" lon="8.728414876490854"><ele>119.25</ele><time>2026-04-18T09:21:54.001Z</time></trkpt><trkpt lat="45.35217038708593" lon="8.728400557028774"><ele>119.5</ele><time>2026-04-18T09:21:55.001Z</time></trkpt><trkpt lat="45.35205475957152" lon="8.72838339384059"><ele>119.75</ele><time>2026-04-18T09:21:56.001Z</time></trkpt><trkpt lat="45.35193260044912" lon="8.728351787866842"><ele>120.0</ele><time>2026-04-18T09:21:57.001Z</time></trkpt><trkpt lat="45.351812378493044" lon="8.728305864077198"><ele>120.0</ele><time>2026-04-18T09:21:58.001Z</time></trkpt><trkpt lat="45.35169346381985" lon="8.728233137774598"><ele>120.0</ele><time>2026-04-18T09:21:59.001Z</time></trkpt><trkpt lat="45.35158789391979" lon="8.728154623975177"><ele>120.0</ele><time>2026-04-18T09:22:00.001Z</time></trkpt><trkpt lat="45.351476262788594" lon="8.728081918130552"><ele>120.0</ele><time>2026-04-18T09:22:01.001Z</time></trkpt><trkpt lat="45.351362281996956" lon="8.728017844303322"><ele>119.8</ele><time>2026-04-18T09:22:02.001Z</time></trkpt><trkpt lat="45.35126482881116" lon="8.727962016309492"><ele>119.6</ele><time>2026-04-18T09:22:03.001Z</time></trkpt><trkpt lat="45.35117518156664" lon="8.727896562872303"><ele>119.4</ele><time>2026-04-18T09:22:04.001Z</time></trkpt><trkpt lat="45.35109159314634" lon="8.727826243588467"><ele>119.2</ele><time>2026-04-18T09:22:05.001Z</time></trkpt><trkpt lat="45.35102134702554" lon="8.727772171190898"><ele>119.0</ele><time>2026-04-18T09:22:06.001Z</time></trkpt><trkpt lat="45.35095644426253" lon="8.727728815282077"><ele>119.33333333333333</ele><time>2026-04-18T09:22:07.001Z</time></trkpt><trkpt lat="45.3509043792672" lon="8.727677633489812"><ele>119.66666666666666</ele><time>2026-04-18T09:22:08.001Z</time></trkpt><trkpt lat="45.350832759960035" lon="8.727559730416585"><ele>120.0</ele><time>2026-04-18T09:22:10.001Z</time></trkpt><trkpt lat="45.35081764615032" lon="8.727435406426638"><ele>120.33333333333334</ele><time>2026-04-18T09:22:12.001Z</time></trkpt><trkpt lat="45.350864498013664" lon="8.727314635300118"><ele>120.66666666666667</ele><time>2026-04-18T09:22:14.002Z</time></trkpt><trkpt lat="45.35088520066377" lon="8.727204314992228"><ele>121.0</ele><time>2026-04-18T09:22:16.002Z</time></trkpt><trkpt lat="45.350839348562204" lon="8.727104871764613"><ele>121.00000000000001</ele><time>2026-04-18T09:22:18.002Z</time></trkpt><trkpt lat="45.35074642609105" lon="8.72704143333089"><ele>121.0</ele><time>2026-04-18T09:22:20.002Z</time></trkpt><trkpt lat="45.35067910719185" lon="8.726976490593291"><ele>121.0</ele><time>2026-04-18T09:22:22.002Z</time></trkpt><trkpt lat="45.350612896598314" lon="8.726902257629863"><ele>121.0</ele><time>2026-04-18T09:22:25.002Z</time></trkpt><trkpt lat="45.35061525140456" lon="8.726752413532077"><ele>121.00000000000001</ele><time>2026-04-18T09:22:28.002Z</time></trkpt><trkpt lat="45.35066679370711" lon="8.726675271601835"><ele>121.0</ele><time>2026-04-18T09:22:29.002Z</time></trkpt><trkpt lat="45.35073637961134" lon="8.72659088369745"><ele>121.00000000000001</ele><time>2026-04-18T09:22:30.002Z</time></trkpt><trkpt lat="45.35080412350105" lon="8.72649711016328"><ele>121.0</ele><time>2026-04-18T09:22:31.002Z</time></trkpt><trkpt lat="45.35087324289204" lon="8.726387633572893"><ele>121.0</ele><time>2026-04-18T09:22:32.002Z</time></trkpt><trkpt lat="45.3509301524602" lon="8.72629113511154"><ele>121.0</ele><time>2026-04-18T09:22:33.002Z</time></trkpt><trkpt lat="45.350981166232714" lon="8.726205902135973"><ele>121.00000000000001</ele><time>2026-04-18T09:22:34.002Z</time></trkpt><trkpt lat="45.35102742424162" lon="8.726135088332418"><ele>121.0</ele><time>2026-04-18T09:22:35.002Z</time></trkpt><trkpt lat="45.35108734947491" lon="8.72606523054353"><ele>120.5</ele><time>2026-04-18T09:22:37.002Z</time></trkpt><trkpt lat="45.35096360407386" lon="8.72595289426955"><ele>120.0</ele><time>2026-04-18T09:22:40.002Z</time></trkpt><trkpt lat="45.35082500485696" lon="8.725928061731146"><ele>119.5</ele><time>2026-04-18T09:22:42.002Z</time></trkpt><trkpt lat="45.350738151564286" lon="8.72591938877887"><ele>119.0</ele><time>2026-04-18T09:22:43.002Z</time></trkpt><trkpt lat="45.35063913076794" lon="8.725906434732027"><ele>119.0</ele><time>2026-04-18T09:22:44.002Z</time></trkpt><trkpt lat="45.35053502501552" lon="8.725885664534047"><ele>119.0</ele><time>2026-04-18T09:22:45.002Z</time></trkpt><trkpt lat="45.35041862820177" lon="8.725873580690651"><ele>119.0</ele><time>2026-04-18T09:22:46.003Z</time></trkpt><trkpt lat="45.35029118006996" lon="8.725859747106945"><ele>119.0</ele><time>2026-04-18T09:22:47.003Z</time></trkpt><trkpt lat="45.35016241852443" lon="8.725829791043019"><ele>119.0</ele><time>2026-04-18T09:22:48.003Z</time></trkpt><trkpt lat="45.35002695601817" lon="8.725805496797122"><ele>119.0</ele><time>2026-04-18T09:22:49.003Z</time></trkpt><trkpt lat="45.34988875475633" lon="8.725791855963918"><ele>119.0</ele><time>2026-04-18T09:22:50.003Z</time></trkpt><trkpt lat="45.34977208865032" lon="8.725777004851267"><ele>119.0</ele><time>2026-04-18T09:22:51.003Z</time></trkpt><trkpt lat="45.34967190186272" lon="8.725759802859965"><ele>119.4</ele><time>2026-04-18T09:22:52.003Z</time></trkpt><trkpt lat="45.34957348520842" lon="8.725751176951318"><ele>119.80000000000001</ele><time>2026-04-18T09:22:53.003Z</time></trkpt><trkpt lat="45.34947901230358" lon="8.725741496901895"><ele>120.19999999999999</ele><time>2026-04-18T09:22:54.003Z</time></trkpt><trkpt lat="45.34937580485508" lon="8.725745897725025"><ele>120.6</ele><time>2026-04-18T09:22:55.003Z</time></trkpt><trkpt lat="45.34926431600008" lon="8.725759204702282"><ele>121.0</ele><time>2026-04-18T09:22:56.003Z</time></trkpt><trkpt lat="45.34914959980198" lon="8.72577292627523"><ele>121.00000000000001</ele><time>2026-04-18T09:22:57.003Z</time></trkpt><trkpt lat="45.34905152343369" lon="8.725774269364843"><ele>121.0</ele><time>2026-04-18T09:22:58.003Z</time></trkpt><trkpt lat="45.348963879767105" lon="8.725769788581875"><ele>121.0</ele><time>2026-04-18T09:22:59.003Z</time></trkpt><trkpt lat="45.34888901837903" lon="8.725750047621435"><ele>121.0</ele><time>2026-04-18T09:23:00.003Z</time></trkpt><trkpt lat="45.34881841529501" lon="8.725711653922657"><ele>121.00000000000001</ele><time>2026-04-18T09:23:01.003Z</time></trkpt><trkpt lat="45.3487460137887" lon="8.725655510621806"><ele>121.0</ele><time>2026-04-18T09:23:02.003Z</time></trkpt><trkpt lat="45.34868208767712" lon="8.725588758742596"><ele>120.8</ele><time>2026-04-18T09:23:03.003Z</time></trkpt><trkpt lat="45.34860747693055" lon="8.725545989101274"><ele>120.6</ele><time>2026-04-18T09:23:04.003Z</time></trkpt><trkpt lat="45.348524457036035" lon="8.72551828917365"><ele>120.4</ele><time>2026-04-18T09:23:05.003Z</time></trkpt><trkpt lat="45.34843068731524" lon="8.725499776859545"><ele>120.2</ele><time>2026-04-18T09:23:06.003Z</time></trkpt><trkpt lat="45.348326377524366" lon="8.72548843725678"><ele>120.0</ele><time>2026-04-18T09:23:07.003Z</time></trkpt><trkpt lat="45.34821768621975" lon="8.72548502598951"><ele>120.0</ele><time>2026-04-18T09:23:08.003Z</time></trkpt><trkpt lat="45.348101767531276" lon="8.7254865333676"><ele>120.0</ele><time>2026-04-18T09:23:09.003Z</time></trkpt><trkpt lat="45.347983182251646" lon="8.725481903169628"><ele>120.0</ele><time>2026-04-18T09:23:10.003Z</time></trkpt><trkpt lat="45.347867575856895" lon="8.725470046923437"><ele>120.0</ele><time>2026-04-18T09:23:11.003Z</time></trkpt><trkpt lat="45.34774799121617" lon="8.725448311670847"><ele>119.75</ele><time>2026-04-18T09:23:12Z</time></trkpt><trkpt lat="45.3476275718055" lon="8.725425823867562"><ele>119.5</ele><time>2026-04-18T09:23:13Z</time></trkpt><trkpt lat="45.34751356940705" lon="8.725397866540145"><ele>119.25</ele><time>2026-04-18T09:23:14Z</time></trkpt><trkpt lat="45.34739208442442" lon="8.725375813438742"><ele>119.0</ele><time>2026-04-18T09:23:15Z</time></trkpt><trkpt lat="45.34727114654754" lon="8.725353489445213"><ele>118.75</ele><time>2026-04-18T09:23:16Z</time></trkpt><trkpt lat="45.347151499733414" lon="8.725329938036705"><ele>118.5</ele><time>2026-04-18T09:23:17Z</time></trkpt><trkpt lat="45.347033610067115" lon="8.725304516650233"><ele>118.25</ele><time>2026-04-18T09:23:18Z</time></trkpt><trkpt lat="45.346912586764944" lon="8.725282263593176"><ele>118.0</ele><time>2026-04-18T09:23:19Z</time></trkpt><trkpt lat="45.3467905136583" lon="8.725259786965232"><ele>118.0</ele><time>2026-04-18T09:23:20Z</time></trkpt><trkpt lat="45.346665942736955" lon="8.725235273711418"><ele>118.0</ele><time>2026-04-18T09:23:21Z</time></trkpt><trkpt lat="45.34654097299824" lon="8.725214439509662"><ele>118.0</ele><time>2026-04-18T09:23:22Z</time></trkpt><trkpt lat="45.346417428222445" lon="8.725188811009682"><ele>118.0</ele><time>2026-04-18T09:23:23Z</time></trkpt><trkpt lat="45.34628818800406" lon="8.725162753050304"><ele>118.0</ele><time>2026-04-18T09:23:24Z</time></trkpt><trkpt lat="45.346162425706396" lon="8.72514194560285"><ele>118.0</ele><time>2026-04-18T09:23:25Z</time></trkpt><trkpt lat="45.346032626201726" lon="8.725122332717586"><ele>118.0</ele><time>2026-04-18T09:23:26Z</time></trkpt><trkpt lat="45.34591041222102" lon="8.725095989559238"><ele>118.0</ele><time>2026-04-18T09:23:27Z</time></trkpt><trkpt lat="45.34579182738863" lon="8.725071283181792"><ele>118.0</ele><time>2026-04-18T09:23:28Z</time></trkpt><trkpt lat="45.34569350255835" lon="8.725054153542724"><ele>118.0</ele><time>2026-04-18T09:23:29Z</time></trkpt><trkpt lat="45.345572944080324" lon="8.725026299972518"><ele>118.0</ele><time>2026-04-18T09:23:30Z</time></trkpt><trkpt lat="45.34545425018488" lon="8.725001051634635"><ele>118.0</ele><time>2026-04-18T09:23:31Z</time></trkpt><trkpt lat="45.34533572809201" lon="8.724979546148765"><ele>118.0</ele><time>2026-04-18T09:23:32Z</time></trkpt><trkpt lat="45.345217340973726" lon="8.724957691524011"><ele>118.0</ele><time>2026-04-18T09:23:33Z</time></trkpt><trkpt lat="45.345095088166" lon="8.724936919352304"><ele>118.0</ele><time>2026-04-18T09:23:34Z</time></trkpt><trkpt lat="45.34497882248508" lon="8.724909011526996"><ele>118.0</ele><time>2026-04-18T09:23:35Z</time></trkpt><trkpt lat="45.34486489785476" lon="8.724885044245"><ele>118.00000000000001</ele><time>2026-04-18T09:23:36Z</time></trkpt><trkpt lat="45.34476214474385" lon="8.724866478277736"><ele>118.0</ele><time>2026-04-18T09:23:37Z</time></trkpt><trkpt lat="45.34467640575641" lon="8.72485345951888"><ele>118.0</ele><time>2026-04-18T09:23:38Z</time></trkpt><trkpt lat="45.3445964154451" lon="8.724837496346616"><ele>118.0</ele><time>2026-04-18T09:23:39Z</time></trkpt><trkpt lat="45.344524610583235" lon="8.724820308131791"><ele>118.00000000000001</ele><time>2026-04-18T09:23:40Z</time></trkpt><trkpt lat="45.3444615321018" lon="8.724805119982138"><ele>118.0</ele><time>2026-04-18T09:23:41Z</time></trkpt><trkpt lat="45.34437264708122" lon="8.724786756257568"><ele>118.00000000000001</ele><time>2026-04-18T09:23:43.001Z</time></trkpt><trkpt lat="45.344337971294124" lon="8.72468860393354"><ele>118.0</ele><time>2026-04-18T09:23:46.001Z</time></trkpt><trkpt lat="45.344363601048734" lon="8.72454745608203"><ele>118.0</ele><time>2026-04-18T09:23:48.001Z</time></trkpt><trkpt lat="45.34438576008586" lon="8.724443453383222"><ele>118.0</ele><time>2026-04-18T09:23:49.001Z</time></trkpt><trkpt lat="45.34439794721053" lon="8.724338371986956"><ele>118.00000000000001</ele><time>2026-04-18T09:23:50.001Z</time></trkpt><trkpt lat="45.34441311479814" lon="8.724228170682629"><ele>118.0</ele><time>2026-04-18T09:23:51.001Z</time></trkpt><trkpt lat="45.34443112839324" lon="8.724103185536816"><ele>118.0</ele><time>2026-04-18T09:23:52.001Z</time></trkpt><trkpt lat="45.344448450255385" lon="8.723967296507633"><ele>118.00000000000001</ele><time>2026-04-18T09:23:53.001Z</time></trkpt><trkpt lat="45.344469017539275" lon="8.723813789655999"><ele>118.00000000000001</ele><time>2026-04-18T09:23:54.001Z</time></trkpt><trkpt lat="45.344492363620404" lon="8.723664276190819"><ele>118.0</ele><time>2026-04-18T09:23:55.001Z</time></trkpt><trkpt lat="45.34451627273622" lon="8.72352547306828"><ele>118.0</ele><time>2026-04-18T09:23:56.001Z</time></trkpt><trkpt lat="45.34454459713122" lon="8.723391495228483"><ele>118.0</ele><time>2026-04-18T09:23:57.001Z</time></trkpt><trkpt lat="45.34457500569845" lon="8.723267919270263"><ele>118.00000000000001</ele><time>2026-04-18T09:23:58.001Z</time></trkpt><trkpt lat="45.34460193779688" lon="8.723147846961606"><ele>118.00000000000001</ele><time>2026-04-18T09:23:59.001Z</time></trkpt><trkpt lat="45.34463441191021" lon="8.723021381666307"><ele>118.0</ele><time>2026-04-18T09:24:00.001Z</time></trkpt><trkpt lat="45.344667288709005" lon="8.722875693946124"><ele>118.0</ele><time>2026-04-18T09:24:01.001Z</time></trkpt><trkpt lat="45.344709059474695" lon="8.722742421249299"><ele>118.25</ele><time>2026-04-18T09:24:02.001Z</time></trkpt><trkpt lat="45.34475331008557" lon="8.722614051283207"><ele>118.5</ele><time>2026-04-18T09:24:03.001Z</time></trkpt><trkpt lat="45.34478165508124" lon="8.722469994302477"><ele>118.75</ele><time>2026-04-18T09:24:04.001Z</time></trkpt><trkpt lat="45.34480946748183" lon="8.722302425521649"><ele>119.0</ele><time>2026-04-18T09:24:05.001Z</time></trkpt><trkpt lat="45.34483536910488" lon="8.72212129862981"><ele>119.0</ele><time>2026-04-18T09:24:06.001Z</time></trkpt><trkpt lat="45.344859762438695" lon="8.721929403310488"><ele>119.0</ele><time>2026-04-18T09:24:07.001Z</time></trkpt><trkpt lat="45.34488489125816" lon="8.7217379306076"><ele>119.0</ele><time>2026-04-18T09:24:08.001Z</time></trkpt><trkpt lat="45.3449086236637" lon="8.721543827869889"><ele>119.0</ele><time>2026-04-18T09:24:09.001Z</time></trkpt><trkpt lat="45.34493128123874" lon="8.721342952535387"><ele>119.0</ele><time>2026-04-18T09:24:10.001Z</time></trkpt><trkpt lat="45.34495805869399" lon="8.721143325621622"><ele>119.0</ele><time>2026-04-18T09:24:11.001Z</time></trkpt><trkpt lat="45.34498163832132" lon="8.72095761330986"><ele>119.0</ele><time>2026-04-18T09:24:12.001Z</time></trkpt><trkpt lat="45.34500903526207" lon="8.72078286418322"><ele>119.0</ele><time>2026-04-18T09:24:13.001Z</time></trkpt><trkpt lat="45.345040583892334" lon="8.720601490656916"><ele>118.75</ele><time>2026-04-18T09:24:14.001Z</time></trkpt><trkpt lat="45.34507650771844" lon="8.720418492459984"><ele>118.5</ele><time>2026-04-18T09:24:15.001Z</time></trkpt><trkpt lat="45.34511537877604" lon="8.720237047938097"><ele>118.25</ele><time>2026-04-18T09:24:16.002Z</time></trkpt><trkpt lat="45.34515551541094" lon="8.720061127776173"><ele>118.0</ele><time>2026-04-18T09:24:17.002Z</time></trkpt><trkpt lat="45.34519239647792" lon="8.719872524876918"><ele>118.5</ele><time>2026-04-18T09:24:18.002Z</time></trkpt><trkpt lat="45.345223637133635" lon="8.719679124711215"><ele>119.0</ele><time>2026-04-18T09:24:19.002Z</time></trkpt><trkpt lat="45.34525011223783" lon="8.719480536443164"><ele>119.5</ele><time>2026-04-18T09:24:20.002Z</time></trkpt><trkpt lat="45.345280076919664" lon="8.71927494769667"><ele>120.0</ele><time>2026-04-18T09:24:21.002Z</time></trkpt><trkpt lat="45.34531189777703" lon="8.719073986993843"><ele>120.0</ele><time>2026-04-18T09:24:22.002Z</time></trkpt><trkpt lat="45.34534478193902" lon="8.718880089882393"><ele>120.0</ele><time>2026-04-18T09:24:23.002Z</time></trkpt><trkpt lat="45.34537439085456" lon="8.718688444993397"><ele>120.0</ele><time>2026-04-18T09:24:24.002Z</time></trkpt><trkpt lat="45.34540102218308" lon="8.718503158055315"><ele>120.0</ele><time>2026-04-18T09:24:25.002Z</time></trkpt><trkpt lat="45.34542822092029" lon="8.718328080519267"><ele>119.75</ele><time>2026-04-18T09:24:26.002Z</time></trkpt><trkpt lat="45.34545309378151" lon="8.718153790178308"><ele>119.5</ele><time>2026-04-18T09:24:27.002Z</time></trkpt><trkpt lat="45.345477138567524" lon="8.717970275162495"><ele>119.25</ele><time>2026-04-18T09:24:28.002Z</time></trkpt><trkpt lat="45.34550430662958" lon="8.717778619703592"><ele>119.0</ele><time>2026-04-18T09:24:29.002Z</time></trkpt><trkpt lat="45.345533931403494" lon="8.717586951083204"><ele>119.0</ele><time>2026-04-18T09:24:30.002Z</time></trkpt><trkpt lat="45.3455626455465" lon="8.717398773329357"><ele>119.0</ele><time>2026-04-18T09:24:31.002Z</time></trkpt><trkpt lat="45.345595118022075" lon="8.717216501925718"><ele>119.0</ele><time>2026-04-18T09:24:32.002Z</time></trkpt><trkpt lat="45.345629003658" lon="8.71702761093371"><ele>119.0</ele><time>2026-04-18T09:24:33.002Z</time></trkpt><trkpt lat="45.34566804971624" lon="8.716837140393606"><ele>119.0</ele><time>2026-04-18T09:24:34.002Z</time></trkpt><trkpt lat="45.34570286077967" lon="8.71665306197777"><ele>119.0</ele><time>2026-04-18T09:24:35.002Z</time></trkpt><trkpt lat="45.345746572362955" lon="8.716479383529537"><ele>119.0</ele><time>2026-04-18T09:24:36.002Z</time></trkpt><trkpt lat="45.345788014661174" lon="8.716327600152221"><ele>119.0</ele><time>2026-04-18T09:24:37.002Z</time></trkpt><trkpt lat="45.34582736761892" lon="8.716179537777224"><ele>119.2</ele><time>2026-04-18T09:24:38.002Z</time></trkpt><trkpt lat="45.34586788449509" lon="8.716023963974484"><ele>119.4</ele><time>2026-04-18T09:24:39.002Z</time></trkpt><trkpt lat="45.34590534064371" lon="8.715862505598706"><ele>119.6</ele><time>2026-04-18T09:24:40.002Z</time></trkpt><trkpt lat="45.34594367589633" lon="8.715711378921903"><ele>119.8</ele><time>2026-04-18T09:24:41.002Z</time></trkpt><trkpt lat="45.345975608387384" lon="8.715577403165033"><ele>120.0</ele><time>2026-04-18T09:24:42.002Z</time></trkpt><trkpt lat="45.346006752814986" lon="8.715450369974251"><ele>120.0</ele><time>2026-04-18T09:24:43.002Z</time></trkpt><trkpt lat="45.34603258135786" lon="8.715346620645267"><ele>120.0</ele><time>2026-04-18T09:24:44.002Z</time></trkpt><trkpt lat="45.34605653263245" lon="8.715247181082962"><ele>120.0</ele><time>2026-04-18T09:24:45.002Z</time></trkpt><trkpt lat="45.346083640186414" lon="8.715149635539005"><ele>120.0</ele><time>2026-04-18T09:24:46.002Z</time></trkpt><trkpt lat="45.34610316822977" lon="8.715057108607816"><ele>120.0</ele><time>2026-04-18T09:24:47.002Z</time></trkpt><trkpt lat="45.34614130798761" lon="8.714900598464878"><ele>120.0</ele><time>2026-04-18T09:24:49.002Z</time></trkpt><trkpt lat="45.34616231162139" lon="8.714768903077234"><ele>119.8</ele><time>2026-04-18T09:24:51.003Z</time></trkpt><trkpt lat="45.346176156382356" lon="8.71460619550341"><ele>119.6</ele><time>2026-04-18T09:24:53.003Z</time></trkpt><trkpt lat="45.346181310135734" lon="8.7144909082614"><ele>119.4</ele><time>2026-04-18T09:24:54.003Z</time></trkpt><trkpt lat="45.346187265202" lon="8.714350962885698"><ele>119.2</ele><time>2026-04-18T09:24:55.003Z</time></trkpt><trkpt lat="45.346194179956456" lon="8.714212221720073"><ele>119.0</ele><time>2026-04-18T09:24:56.003Z</time></trkpt><trkpt lat="45.346208350722755" lon="8.714056000249837"><ele>118.75</ele><time>2026-04-18T09:24:57.003Z</time></trkpt><trkpt lat="45.34622491592722" lon="8.71390113964649"><ele>118.5</ele><time>2026-04-18T09:24:58.003Z</time></trkpt><trkpt lat="45.34623829991475" lon="8.713729819965579"><ele>118.25</ele><time>2026-04-18T09:24:59.003Z</time></trkpt><trkpt lat="45.346261947671586" lon="8.713552885117085"><ele>118.0</ele><time>2026-04-18T09:25:00.003Z</time></trkpt><trkpt lat="45.34629035432555" lon="8.713370367292654"><ele>118.5</ele><time>2026-04-18T09:25:01.003Z</time></trkpt><trkpt lat="45.34631990772461" lon="8.713176561241864"><ele>119.0</ele><time>2026-04-18T09:25:02.003Z</time></trkpt><trkpt lat="45.34634308246885" lon="8.712998720381792"><ele>119.5</ele><time>2026-04-18T09:25:03.003Z</time></trkpt><trkpt lat="45.34636742544074" lon="8.712844158747824"><ele>120.0</ele><time>2026-04-18T09:25:04.003Z</time></trkpt><trkpt lat="45.346390331629486" lon="8.712690528759556"><ele>120.0</ele><time>2026-04-18T09:25:05.003Z</time></trkpt><trkpt lat="45.346407652121684" lon="8.7125272793789"><ele>120.0</ele><time>2026-04-18T09:25:06.003Z</time></trkpt><trkpt lat="45.346427878139565" lon="8.712349651970007"><ele>120.0</ele><time>2026-04-18T09:25:07.003Z</time></trkpt><trkpt lat="45.34644275391481" lon="8.712169775664826"><ele>120.0</ele><time>2026-04-18T09:25:08.003Z</time></trkpt><trkpt lat="45.34644342482278" lon="8.711972517310906"><ele>120.0</ele><time>2026-04-18T09:25:09.003Z</time></trkpt><trkpt lat="45.34644171452404" lon="8.711768897989444"><ele>120.0</ele><time>2026-04-18T09:25:10.003Z</time></trkpt><trkpt lat="45.346442885711795" lon="8.711559795814852"><ele>120.0</ele><time>2026-04-18T09:25:11.003Z</time></trkpt><trkpt lat="45.34644106724746" lon="8.711372380772767"><ele>120.0</ele><time>2026-04-18T09:25:12.003Z</time></trkpt><trkpt lat="45.34644021067968" lon="8.711202605687212"><ele>119.75</ele><time>2026-04-18T09:25:13.003Z</time></trkpt><trkpt lat="45.34643558947641" lon="8.711018854310485"><ele>119.5</ele><time>2026-04-18T09:25:14.003Z</time></trkpt><trkpt lat="45.346428214532764" lon="8.710828404499429"><ele>119.25</ele><time>2026-04-18T09:25:15.003Z</time></trkpt><trkpt lat="45.346419304869855" lon="8.710651328212334"><ele>119.0</ele><time>2026-04-18T09:25:16.003Z</time></trkpt><trkpt lat="45.3464121243279" lon="8.710471461999129"><ele>119.0</ele><time>2026-04-18T09:25:17.003Z</time></trkpt><trkpt lat="45.346409235452924" lon="8.710289639559631"><ele>119.0</ele><time>2026-04-18T09:25:18Z</time></trkpt><trkpt lat="45.34641685791567" lon="8.71013691376992"><ele>119.0</ele><time>2026-04-18T09:25:19Z</time></trkpt><trkpt lat="45.346423641380696" lon="8.709981334311543"><ele>119.0</ele><time>2026-04-18T09:25:20Z</time></trkpt><trkpt lat="45.346437205613626" lon="8.709836699970229"><ele>119.0</ele><time>2026-04-18T09:25:21Z</time></trkpt><trkpt lat="45.34645160844079" lon="8.709696508736831"><ele>118.99999999999999</ele><time>2026-04-18T09:25:22Z</time></trkpt><trkpt lat="45.34647045486447" lon="8.70957101264941"><ele>119.0</ele><time>2026-04-18T09:25:23Z</time></trkpt><trkpt lat="45.34649316581555" lon="8.70946470109225"><ele>119.0</ele><time>2026-04-18T09:25:24Z</time></trkpt><trkpt lat="45.34651572966277" lon="8.709369671114597"><ele>119.0</ele><time>2026-04-18T09:25:25Z</time></trkpt><trkpt lat="45.34653343906379" lon="8.709282751240561"><ele>118.99999999999999</ele><time>2026-04-18T09:25:26Z</time></trkpt><trkpt lat="45.34651332164768" lon="8.709082018797638"><ele>119.0</ele><time>2026-04-18T09:25:28Z</time></trkpt><trkpt lat="45.34647886626071" lon="8.708931395057508"><ele>118.75</ele><time>2026-04-18T09:25:29Z</time></trkpt><trkpt lat="45.34644775847826" lon="8.708778351443922"><ele>118.5</ele><time>2026-04-18T09:25:30Z</time></trkpt><trkpt lat="45.3464130798241" lon="8.708609705932984"><ele>118.25</ele><time>2026-04-18T09:25:31Z</time></trkpt><trkpt lat="45.34637908967615" lon="8.708421931634243"><ele>118.0</ele><time>2026-04-18T09:25:32Z</time></trkpt><trkpt lat="45.346342205175674" lon="8.708225566236493"><ele>118.0</ele><time>2026-04-18T09:25:33Z</time></trkpt><trkpt lat="45.34630939685119" lon="8.708019942927555"><ele>118.0</ele><time>2026-04-18T09:25:34Z</time></trkpt><trkpt lat="45.346274904382675" lon="8.707810500660296"><ele>118.0</ele><time>2026-04-18T09:25:35Z</time></trkpt><trkpt lat="45.34625108073228" lon="8.707606720444028"><ele>118.0</ele><time>2026-04-18T09:25:36Z</time></trkpt><trkpt lat="45.3462241906872" lon="8.707448806288891"><ele>118.0</ele><time>2026-04-18T09:25:37Z</time></trkpt><trkpt lat="45.34620091178192" lon="8.70728754604487"><ele>118.0</ele><time>2026-04-18T09:25:38Z</time></trkpt><trkpt lat="45.34618137365036" lon="8.707117802846424"><ele>118.0</ele><time>2026-04-18T09:25:39Z</time></trkpt><trkpt lat="45.34616330014883" lon="8.706939872099344"><ele>118.0</ele><time>2026-04-18T09:25:40Z</time></trkpt><trkpt lat="45.34615127753475" lon="8.706756047400189"><ele>118.0</ele><time>2026-04-18T09:25:41Z</time></trkpt><trkpt lat="45.34614374449773" lon="8.706580670496423"><ele>118.0</ele><time>2026-04-18T09:25:42Z</time></trkpt><trkpt lat="45.34613430709379" lon="8.70640582968531"><ele>118.0</ele><time>2026-04-18T09:25:43Z</time></trkpt><trkpt lat="45.34612372789743" lon="8.706225647225292"><ele>118.0</ele><time>2026-04-18T09:25:44Z</time></trkpt><trkpt lat="45.346105321441456" lon="8.706038005116989"><ele>118.0</ele><time>2026-04-18T09:25:45Z</time></trkpt><trkpt lat="45.346092456516324" lon="8.705880771373257"><ele>118.00000000000001</ele><time>2026-04-18T09:25:46Z</time></trkpt><trkpt lat="45.34608148540178" lon="8.705735327961706"><ele>118.00000000000001</ele><time>2026-04-18T09:25:47Z</time></trkpt><trkpt lat="45.34607183354568" lon="8.705603839467276"><ele>118.0</ele><time>2026-04-18T09:25:48.001Z</time></trkpt><trkpt lat="45.3460619316929" lon="8.705483237045883"><ele>118.0</ele><time>2026-04-18T09:25:49.001Z</time></trkpt><trkpt lat="45.346052753519515" lon="8.705362858818836"><ele>118.00000000000001</ele><time>2026-04-18T09:25:50.001Z</time></trkpt><trkpt lat="45.346045506656395" lon="8.705241358588465"><ele>118.0</ele><time>2026-04-18T09:25:51.001Z</time></trkpt><trkpt lat="45.34604212477076" lon="8.70511179628555"><ele>118.0</ele><time>2026-04-18T09:25:52.001Z</time></trkpt><trkpt lat="45.34604932335986" lon="8.704996839814937"><ele>118.0</ele><time>2026-04-18T09:25:53.001Z</time></trkpt><trkpt lat="45.34606726546031" lon="8.704875302889334"><ele>118.00000000000001</ele><time>2026-04-18T09:25:54.001Z</time></trkpt><trkpt lat="45.34608853753318" lon="8.704762061813941"><ele>118.0</ele><time>2026-04-18T09:25:55.001Z</time></trkpt><trkpt lat="45.34610663076053" lon="8.704648948880564"><ele>118.00000000000001</ele><time>2026-04-18T09:25:56.001Z</time></trkpt><trkpt lat="45.34612674491373" lon="8.704530605862523"><ele>118.0</ele><time>2026-04-18T09:25:57.001Z</time></trkpt><trkpt lat="45.3461452959251" lon="8.704416072930039"><ele>118.0</ele><time>2026-04-18T09:25:58.001Z</time></trkpt><trkpt lat="45.34616714953361" lon="8.704298419640194"><ele>118.0</ele><time>2026-04-18T09:25:59.001Z</time></trkpt><trkpt lat="45.34619585457869" lon="8.704173190206728"><ele>118.00000000000001</ele><time>2026-04-18T09:26:00.001Z</time></trkpt><trkpt lat="45.3462294031652" lon="8.704048442074118"><ele>118.0</ele><time>2026-04-18T09:26:01.001Z</time></trkpt><trkpt lat="45.346266630942544" lon="8.703904262994625"><ele>118.25</ele><time>2026-04-18T09:26:02.001Z</time></trkpt><trkpt lat="45.3463081024445" lon="8.703751753563179"><ele>118.5</ele><time>2026-04-18T09:26:03.001Z</time></trkpt><trkpt lat="45.34634873682342" lon="8.703597932874697"><ele>118.75</ele><time>2026-04-18T09:26:04.001Z</time></trkpt><trkpt lat="45.34638427290358" lon="8.703429459307014"><ele>119.0</ele><time>2026-04-18T09:26:05.001Z</time></trkpt><trkpt lat="45.346421660616215" lon="8.703260423625773"><ele>119.0</ele><time>2026-04-18T09:26:06.001Z</time></trkpt><trkpt lat="45.346466192133946" lon="8.703105915688301"><ele>119.0</ele><time>2026-04-18T09:26:07.001Z</time></trkpt><trkpt lat="45.34651283638305" lon="8.702960457462245"><ele>119.0</ele><time>2026-04-18T09:26:08.001Z</time></trkpt><trkpt lat="45.34655885126461" lon="8.702802795466532"><ele>119.0</ele><time>2026-04-18T09:26:09.001Z</time></trkpt><trkpt lat="45.34660259671324" lon="8.702650995976924"><ele>119.2</ele><time>2026-04-18T09:26:10.001Z</time></trkpt><trkpt lat="45.34664546567944" lon="8.702507475008597"><ele>119.4</ele><time>2026-04-18T09:26:11.001Z</time></trkpt><trkpt lat="45.34668314615623" lon="8.702372176949345"><ele>119.6</ele><time>2026-04-18T09:26:12.001Z</time></trkpt><trkpt lat="45.34671293823179" lon="8.70225144268232"><ele>119.8</ele><time>2026-04-18T09:26:13.001Z</time></trkpt><trkpt lat="45.34674237759679" lon="8.70212481209581"><ele>120.0</ele><time>2026-04-18T09:26:14.001Z</time></trkpt><trkpt lat="45.34676944760508" lon="8.701986499768692"><ele>120.2</ele><time>2026-04-18T09:26:15.001Z</time></trkpt><trkpt lat="45.34679034148306" lon="8.70184253134127"><ele>120.4</ele><time>2026-04-18T09:26:16.001Z</time></trkpt><trkpt lat="45.34680702828253" lon="8.70169733963738"><ele>120.6</ele><time>2026-04-18T09:26:17.001Z</time></trkpt><trkpt lat="45.34682294370991" lon="8.70156433072851"><ele>120.8</ele><time>2026-04-18T09:26:18.001Z</time></trkpt><trkpt lat="45.34683873194286" lon="8.701446432217569"><ele>121.0</ele><time>2026-04-18T09:26:19.001Z</time></trkpt><trkpt lat="45.346850009278434" lon="8.701345429137593"><ele>121.0</ele><time>2026-04-18T09:26:20.001Z</time></trkpt><trkpt lat="45.34686111942264" lon="8.701254715048393"><ele>121.0</ele><time>2026-04-18T09:26:21.001Z</time></trkpt><trkpt lat="45.346876727410745" lon="8.701106953967424"><ele>121.0</ele><time>2026-04-18T09:26:23.002Z</time></trkpt><trkpt lat="45.34687532962883" lon="8.70099957702338"><ele>121.0</ele><time>2026-04-18T09:26:26.002Z</time></trkpt><trkpt lat="45.34678373683279" lon="8.700974878832817"><ele>121.0</ele><time>2026-04-18T09:26:29.002Z</time></trkpt><trkpt lat="45.34666184789924" lon="8.701047015387351"><ele>121.0</ele><time>2026-04-18T09:26:31.002Z</time></trkpt><trkpt lat="45.34658942443175" lon="8.70107656586807"><ele>121.0</ele><time>2026-04-18T09:26:32.002Z</time></trkpt><trkpt lat="45.346504242601696" lon="8.701103902767764"><ele>121.0</ele><time>2026-04-18T09:26:33.002Z</time></trkpt><trkpt lat="45.34640363031907" lon="8.70114636925909"><ele>121.0</ele><time>2026-04-18T09:26:34.002Z</time></trkpt><trkpt lat="45.34629541871763" lon="8.701186733115772"><ele>121.0</ele><time>2026-04-18T09:26:35.002Z</time></trkpt><trkpt lat="45.34617868727326" lon="8.701237668717143"><ele>120.75</ele><time>2026-04-18T09:26:36.002Z</time></trkpt><trkpt lat="45.34606819116436" lon="8.70128605749139"><ele>120.5</ele><time>2026-04-18T09:26:37.002Z</time></trkpt><trkpt lat="45.345954419699325" lon="8.701333745385002"><ele>120.25</ele><time>2026-04-18T09:26:38.002Z</time></trkpt><trkpt lat="45.34583423436459" lon="8.701386838330967"><ele>120.0</ele><time>2026-04-18T09:26:39.002Z</time></trkpt><trkpt lat="45.345711344045064" lon="8.701435256834563"><ele>120.0</ele><time>2026-04-18T09:26:40.002Z</time></trkpt><trkpt lat="45.34558960657847" lon="8.701482726033836"><ele>120.0</ele><time>2026-04-18T09:26:41.002Z</time></trkpt><trkpt lat="45.34546803733702" lon="8.701526817167549"><ele>120.0</ele><time>2026-04-18T09:26:42.002Z</time></trkpt><trkpt lat="45.345340811006736" lon="8.701571527503186"><ele>120.0</ele><time>2026-04-18T09:26:43.002Z</time></trkpt><trkpt lat="45.345219037544204" lon="8.701595646091144"><ele>119.75</ele><time>2026-04-18T09:26:44.002Z</time></trkpt><trkpt lat="45.34511409777621" lon="8.701594164466004"><ele>119.5</ele><time>2026-04-18T09:26:45.002Z</time></trkpt><trkpt lat="45.34500724899676" lon="8.701584449994238"><ele>119.25</ele><time>2026-04-18T09:26:46.002Z</time></trkpt><trkpt lat="45.34488769184732" lon="8.70155859323766"><ele>119.0</ele><time>2026-04-18T09:26:47.002Z</time></trkpt><trkpt lat="45.34476615968756" lon="8.701531806823544"><ele>119.5</ele><time>2026-04-18T09:26:48.002Z</time></trkpt><trkpt lat="45.344636458194266" lon="8.70151033875481"><ele>120.0</ele><time>2026-04-18T09:26:49.002Z</time></trkpt><trkpt lat="45.344509012042295" lon="8.70148365310315"><ele>120.5</ele><time>2026-04-18T09:26:50.002Z</time></trkpt><trkpt lat="45.34438901054024" lon="8.701458826597548"><ele>121.0</ele><time>2026-04-18T09:26:51.002Z</time></trkpt><trkpt lat="45.3442840314142" lon="8.701437019921494"><ele>121.00000000000001</ele><time>2026-04-18T09:26:52.002Z</time></trkpt><trkpt lat="45.34420690864623" lon="8.701422697066873"><ele>121.0</ele><time>2026-04-18T09:26:53.002Z</time></trkpt><trkpt lat="45.34418125153414" lon="8.701317846756943"><ele>121.0</ele><time>2026-04-18T09:27:03.003Z</time></trkpt><trkpt lat="45.34420836961356" lon="8.701149125911723"><ele>121.0</ele><time>2026-04-18T09:27:05.003Z</time></trkpt><trkpt lat="45.34421842071522" lon="8.701041847113387"><ele>121.00000000000001</ele><time>2026-04-18T09:27:06.003Z</time></trkpt><trkpt lat="45.344231027264094" lon="8.700928400081498"><ele>121.0</ele><time>2026-04-18T09:27:07.003Z</time></trkpt><trkpt lat="45.344245790001615" lon="8.700801245987867"><ele>120.6</ele><time>2026-04-18T09:27:08.003Z</time></trkpt><trkpt lat="45.3442618373385" lon="8.700665127384674"><ele>120.19999999999999</ele><time>2026-04-18T09:27:09.003Z</time></trkpt><trkpt lat="45.34427792644864" lon="8.700518017331182"><ele>119.80000000000001</ele><time>2026-04-18T09:27:10.003Z</time></trkpt><trkpt lat="45.344298957027874" lon="8.700360540731891"><ele>119.4</ele><time>2026-04-18T09:27:11.003Z</time></trkpt><trkpt lat="45.344307503425725" lon="8.700219014647441"><ele>119.0</ele><time>2026-04-18T09:27:12.003Z</time></trkpt><trkpt lat="45.34432283407651" lon="8.700087146518225"><ele>118.99999999999999</ele><time>2026-04-18T09:27:13.003Z</time></trkpt><trkpt lat="45.34433500536674" lon="8.699953559242326"><ele>119.0</ele><time>2026-04-18T09:27:14.003Z</time></trkpt><trkpt lat="45.344346080073414" lon="8.699841132330173"><ele>119.0</ele><time>2026-04-18T09:27:15.003Z</time></trkpt><trkpt lat="45.34436030908079" lon="8.699725418842972"><ele>119.0</ele><time>2026-04-18T09:27:16.003Z</time></trkpt><trkpt lat="45.34438151272607" lon="8.699589298775315"><ele>118.99999999999999</ele><time>2026-04-18T09:27:17.003Z</time></trkpt><trkpt lat="45.344395931278484" lon="8.699463190826402"><ele>119.0</ele><time>2026-04-18T09:27:18.003Z</time></trkpt><trkpt lat="45.344414331617806" lon="8.69931919722161"><ele>119.2</ele><time>2026-04-18T09:27:19.003Z</time></trkpt><trkpt lat="45.34443228497702" lon="8.699178902963581"><ele>119.4</ele><time>2026-04-18T09:27:20.003Z</time></trkpt><trkpt lat="45.344449851836565" lon="8.69906478575053"><ele>119.6</ele><time>2026-04-18T09:27:21.003Z</time></trkpt><trkpt lat="45.34446492154571" lon="8.698943213015754"><ele>119.8</ele><time>2026-04-18T09:27:22.003Z</time></trkpt><trkpt lat="45.344480865632804" lon="8.698810813309644"><ele>120.0</ele><time>2026-04-18T09:27:23.003Z</time></trkpt><trkpt lat="45.344497120869036" lon="8.698673333549822"><ele>119.8</ele><time>2026-04-18T09:27:24Z</time></trkpt><trkpt lat="45.34451008865356" lon="8.698540007844661"><ele>119.6</ele><time>2026-04-18T09:27:25Z</time></trkpt><trkpt lat="45.34452965591949" lon="8.698379738016056"><ele>119.4</ele><time>2026-04-18T09:27:26Z</time></trkpt><trkpt lat="45.344553905936266" lon="8.698247186196747"><ele>119.2</ele><time>2026-04-18T09:27:27Z</time></trkpt><trkpt lat="45.344572914807074" lon="8.69811634341907"><ele>119.0</ele><time>2026-04-18T09:27:28Z</time></trkpt><trkpt lat="45.344590497924635" lon="8.697973464650683"><ele>119.0</ele><time>2026-04-18T09:27:29Z</time></trkpt><trkpt lat="45.34461495043134" lon="8.6978243560766"><ele>119.0</ele><time>2026-04-18T09:27:30Z</time></trkpt><trkpt lat="45.3446375113954" lon="8.697673529187597"><ele>119.0</ele><time>2026-04-18T09:27:31Z</time></trkpt><trkpt lat="45.34465793037652" lon="8.69753893843394"><ele>119.0</ele><time>2026-04-18T09:27:32Z</time></trkpt><trkpt lat="45.34467777668329" lon="8.697394385808936"><ele>119.0</ele><time>2026-04-18T09:27:33Z</time></trkpt><trkpt lat="45.34469980415237" lon="8.697253015169267"><ele>119.2</ele><time>2026-04-18T09:27:34Z</time></trkpt><trkpt lat="45.34472104741391" lon="8.69710583727721"><ele>119.4</ele><time>2026-04-18T09:27:35Z</time></trkpt><trkpt lat="45.34474278895646" lon="8.696979388572746"><ele>119.6</ele><time>2026-04-18T09:27:36Z</time></trkpt><trkpt lat="45.344757342847146" lon="8.696880203718326"><ele>119.8</ele><time>2026-04-18T09:27:37Z</time></trkpt><trkpt lat="45.344769787272696" lon="8.696744336660512"><ele>120.0</ele><time>2026-04-18T09:27:38Z</time></trkpt><trkpt lat="45.344785416648115" lon="8.69660328933551"><ele>120.0</ele><time>2026-04-18T09:27:39Z</time></trkpt><trkpt lat="45.34480337948261" lon="8.696471380062533"><ele>120.0</ele><time>2026-04-18T09:27:40Z</time></trkpt><trkpt lat="45.34482352642166" lon="8.696344335584289"><ele>120.0</ele><time>2026-04-18T09:27:41Z</time></trkpt><trkpt lat="45.34484376646002" lon="8.696210961590282"><ele>120.0</ele><time>2026-04-18T09:27:42Z</time></trkpt><trkpt lat="45.34486094442528" lon="8.696080967113922"><ele>120.0</ele><time>2026-04-18T09:27:43Z</time></trkpt><trkpt lat="45.34488157008661" lon="8.695940091745713"><ele>119.8</ele><time>2026-04-18T09:27:44Z</time></trkpt><trkpt lat="45.344903937562826" lon="8.695784998882129"><ele>119.6</ele><time>2026-04-18T09:27:45Z</time></trkpt><trkpt lat="45.344923516114896" lon="8.695646781233213"><ele>119.4</ele><time>2026-04-18T09:27:46Z</time></trkpt><trkpt lat="45.34493980033062" lon="8.695527249128842"><ele>119.2</ele><time>2026-04-18T09:27:47Z</time></trkpt><trkpt lat="45.34495731103228" lon="8.69542055910467"><ele>119.0</ele><time>2026-04-18T09:27:48Z</time></trkpt><trkpt lat="45.34497887064613" lon="8.695301741820224"><ele>119.0</ele><time>2026-04-18T09:27:49Z</time></trkpt><trkpt lat="45.34500726195311" lon="8.695167520082467"><ele>119.0</ele><time>2026-04-18T09:27:50Z</time></trkpt><trkpt lat="45.34503617871638" lon="8.695023850994898"><ele>119.0</ele><time>2026-04-18T09:27:51Z</time></trkpt><trkpt lat="45.345063073463756" lon="8.694866133751155"><ele>119.0</ele><time>2026-04-18T09:27:52Z</time></trkpt><trkpt lat="45.34508267152298" lon="8.694709094379967"><ele>119.0</ele><time>2026-04-18T09:27:53.001Z</time></trkpt><trkpt lat="45.345094297914876" lon="8.694548414976715"><ele>119.0</ele><time>2026-04-18T09:27:54.001Z</time></trkpt><trkpt lat="45.34509756556457" lon="8.694388903247418"><ele>119.0</ele><time>2026-04-18T09:27:55.001Z</time></trkpt><trkpt lat="45.345101101330016" lon="8.694233675676097"><ele>119.0</ele><time>2026-04-18T09:27:56.001Z</time></trkpt><trkpt lat="45.34510814236953" lon="8.694081074519044"><ele>119.0</ele><time>2026-04-18T09:27:57.001Z</time></trkpt><trkpt lat="45.3451102487396" lon="8.693929265256987"><ele>119.0</ele><time>2026-04-18T09:27:58.001Z</time></trkpt><trkpt lat="45.34511404255025" lon="8.693771645463743"><ele>119.0</ele><time>2026-04-18T09:27:59.001Z</time></trkpt><trkpt lat="45.345116984200224" lon="8.69360588040157"><ele>119.0</ele><time>2026-04-18T09:28:00.001Z</time></trkpt><trkpt lat="45.345119979394866" lon="8.693439931053831"><ele>119.0</ele><time>2026-04-18T09:28:01.001Z</time></trkpt><trkpt lat="45.345120249785225" lon="8.693277162020065"><ele>119.0</ele><time>2026-04-18T09:28:02.001Z</time></trkpt><trkpt lat="45.345121019888055" lon="8.693118827704453"><ele>119.2</ele><time>2026-04-18T09:28:03.001Z</time></trkpt><trkpt lat="45.34512268983211" lon="8.69295372478326"><ele>119.4</ele><time>2026-04-18T09:28:04.001Z</time></trkpt><trkpt lat="45.34512045640217" lon="8.692797737452432"><ele>119.6</ele><time>2026-04-18T09:28:05.001Z</time></trkpt><trkpt lat="45.34512326042039" lon="8.692638612518271"><ele>119.8</ele><time>2026-04-18T09:28:06.001Z</time></trkpt><trkpt lat="45.34512262980037" lon="8.6924816305456"><ele>120.0</ele><time>2026-04-18T09:28:07.001Z</time></trkpt><trkpt lat="45.34512404005145" lon="8.692322251652747"><ele>120.0</ele><time>2026-04-18T09:28:08.001Z</time></trkpt><trkpt lat="45.34512569026417" lon="8.692179631960554"><ele>120.0</ele><time>2026-04-18T09:28:09.001Z</time></trkpt><trkpt lat="45.345125647738435" lon="8.69204061631186"><ele>120.0</ele><time>2026-04-18T09:28:10.001Z</time></trkpt><trkpt lat="45.345129181134354" lon="8.691902853091115"><ele>120.0</ele><time>2026-04-18T09:28:11.001Z</time></trkpt><trkpt lat="45.34513493511351" lon="8.691760363608125"><ele>120.0</ele><time>2026-04-18T09:28:12.001Z</time></trkpt><trkpt lat="45.34515305286425" lon="8.691627257195366"><ele>120.0</ele><time>2026-04-18T09:28:13.001Z</time></trkpt><trkpt lat="45.345182799934605" lon="8.691485152928205"><ele>120.0</ele><time>2026-04-18T09:28:14.001Z</time></trkpt><trkpt lat="45.34522244418692" lon="8.69135276934195"><ele>120.0</ele><time>2026-04-18T09:28:15.001Z</time></trkpt><trkpt lat="45.34526165527619" lon="8.691212643717664"><ele>120.0</ele><time>2026-04-18T09:28:16.001Z</time></trkpt><trkpt lat="45.345298068779805" lon="8.691070304632847"><ele>120.0</ele><time>2026-04-18T09:28:17.001Z</time></trkpt><trkpt lat="45.345341832573624" lon="8.690924014684466"><ele>120.0</ele><time>2026-04-18T09:28:18.001Z</time></trkpt><trkpt lat="45.345380446776254" lon="8.690777472112108"><ele>120.0</ele><time>2026-04-18T09:28:19.001Z</time></trkpt><trkpt lat="45.34541828050819" lon="8.690625137285881"><ele>120.0</ele><time>2026-04-18T09:28:20.001Z</time></trkpt><trkpt lat="45.34545436069584" lon="8.690478585466039"><ele>120.0</ele><time>2026-04-18T09:28:21.001Z</time></trkpt><trkpt lat="45.34548576018644" lon="8.690327829015649"><ele>120.0</ele><time>2026-04-18T09:28:22.001Z</time></trkpt><trkpt lat="45.345514267600684" lon="8.690179779784215"><ele>119.8</ele><time>2026-04-18T09:28:23.001Z</time></trkpt><trkpt lat="45.345540221105715" lon="8.690033346909093"><ele>119.6</ele><time>2026-04-18T09:28:24.001Z</time></trkpt><trkpt lat="45.345560754559045" lon="8.68988295048103"><ele>119.4</ele><time>2026-04-18T09:28:25.001Z</time></trkpt><trkpt lat="45.34557728962581" lon="8.689746184532565"><ele>119.2</ele><time>2026-04-18T09:28:26.001Z</time></trkpt><trkpt lat="45.34559663279659" lon="8.689621550174492"><ele>119.0</ele><time>2026-04-18T09:28:27.001Z</time></trkpt><trkpt lat="45.34561512590053" lon="8.689490771441857"><ele>119.16666666666666</ele><time>2026-04-18T09:28:28.001Z</time></trkpt><trkpt lat="45.34563023419145" lon="8.689369299117947"><ele>119.33333333333333</ele><time>2026-04-18T09:28:29.001Z</time></trkpt><trkpt lat="45.34564398444176" lon="8.689266977180587"><ele>119.5</ele><time>2026-04-18T09:28:30.002Z</time></trkpt><trkpt lat="45.34565203625296" lon="8.689169826112325"><ele>119.66666666666666</ele><time>2026-04-18T09:28:31.002Z</time></trkpt><trkpt lat="45.345642698211556" lon="8.689071341981846"><ele>119.83333333333333</ele><time>2026-04-18T09:28:32.002Z</time></trkpt><trkpt lat="45.345675884879164" lon="8.688959671332528"><ele>120.0</ele><time>2026-04-18T09:28:33.002Z</time></trkpt><trkpt lat="45.345673870661805" lon="8.688823039621349"><ele>120.0</ele><time>2026-04-18T09:28:34.002Z</time></trkpt><trkpt lat="45.34567181634063" lon="8.688683687878008"><ele>120.0</ele><time>2026-04-18T09:28:35.002Z</time></trkpt><trkpt lat="45.345676481673074" lon="8.688526648395559"><ele>120.0</ele><time>2026-04-18T09:28:36.002Z</time></trkpt><trkpt lat="45.345683711419504" lon="8.688359318646842"><ele>120.0</ele><time>2026-04-18T09:28:37.002Z</time></trkpt><trkpt lat="45.34569281384992" lon="8.68818430205139"><ele>119.75</ele><time>2026-04-18T09:28:38.002Z</time></trkpt><trkpt lat="45.34570490355113" lon="8.688023956312065"><ele>119.5</ele><time>2026-04-18T09:28:39.002Z</time></trkpt><trkpt lat="45.34572081932502" lon="8.687854288134561"><ele>119.25</ele><time>2026-04-18T09:28:40.002Z</time></trkpt><trkpt lat="45.34573793370597" lon="8.687671842361059"><ele>119.0</ele><time>2026-04-18T09:28:41.002Z</time></trkpt><trkpt lat="45.34575435880997" lon="8.687490067502662"><ele>119.0</ele><time>2026-04-18T09:28:42.002Z</time></trkpt><trkpt lat="45.345764553067134" lon="8.687299438145486"><ele>119.0</ele><time>2026-04-18T09:28:43.002Z</time></trkpt><trkpt lat="45.34576916999764" lon="8.687115900259139"><ele>119.0</ele><time>2026-04-18T09:28:44.002Z</time></trkpt><trkpt lat="45.34576791842689" lon="8.686918589398045"><ele>119.0</ele><time>2026-04-18T09:28:45.002Z</time></trkpt><trkpt lat="45.34577099441475" lon="8.686738398483408"><ele>119.0</ele><time>2026-04-18T09:28:46.002Z</time></trkpt><trkpt lat="45.34578573600923" lon="8.686558366490944"><ele>119.0</ele><time>2026-04-18T09:28:47.002Z</time></trkpt><trkpt lat="45.345812010424694" lon="8.686374771746285"><ele>119.0</ele><time>2026-04-18T09:28:48.002Z</time></trkpt><trkpt lat="45.345832631117055" lon="8.686178633264172"><ele>119.0</ele><time>2026-04-18T09:28:49.002Z</time></trkpt><trkpt lat="45.34587956594838" lon="8.685984935494613"><ele>119.0</ele><time>2026-04-18T09:28:50.002Z</time></trkpt><trkpt lat="45.34591274501345" lon="8.68579026593191"><ele>119.0</ele><time>2026-04-18T09:28:51.002Z</time></trkpt><trkpt lat="45.345949175040566" lon="8.685588353561938"><ele>119.0</ele><time>2026-04-18T09:28:52.002Z</time></trkpt><trkpt lat="45.34598133035119" lon="8.68538499435638"><ele>119.0</ele><time>2026-04-18T09:28:53.002Z</time></trkpt><trkpt lat="45.34599768839984" lon="8.685175020058121"><ele>119.0</ele><time>2026-04-18T09:28:54.002Z</time></trkpt><trkpt lat="45.34602157291604" lon="8.684965595569944"><ele>119.0</ele><time>2026-04-18T09:28:55.002Z</time></trkpt><trkpt lat="45.34605559878369" lon="8.684759110886242"><ele>119.0</ele><time>2026-04-18T09:28:56.002Z</time></trkpt><trkpt lat="45.34608423764002" lon="8.6845611951805"><ele>119.0</ele><time>2026-04-18T09:28:57.002Z</time></trkpt><trkpt lat="45.34611319654536" lon="8.68436094449437"><ele>119.0</ele><time>2026-04-18T09:28:58.002Z</time></trkpt><trkpt lat="45.346144301978" lon="8.684169705090786"><ele>119.0</ele><time>2026-04-18T09:28:59.002Z</time></trkpt><trkpt lat="45.34616976862801" lon="8.683971020734367"><ele>119.0</ele><time>2026-04-18T09:29:00.002Z</time></trkpt><trkpt lat="45.34620116813623" lon="8.6837739526543"><ele>119.0</ele><time>2026-04-18T09:29:01.002Z</time></trkpt><trkpt lat="45.34622849722541" lon="8.683590099489509"><ele>119.0</ele><time>2026-04-18T09:29:02.002Z</time></trkpt><trkpt lat="45.34625508171659" lon="8.683393830357165"><ele>119.0</ele><time>2026-04-18T09:29:03.002Z</time></trkpt><trkpt lat="45.34628702594216" lon="8.683187099927629"><ele>119.0</ele><time>2026-04-18T09:29:04.002Z</time></trkpt><trkpt lat="45.346316702164756" lon="8.682988624239789"><ele>119.0</ele><time>2026-04-18T09:29:05.003Z</time></trkpt><trkpt lat="45.3463489058069" lon="8.682781127665292"><ele>119.0</ele><time>2026-04-18T09:29:06.003Z</time></trkpt><trkpt lat="45.34637553343716" lon="8.68257795468758"><ele>119.0</ele><time>2026-04-18T09:29:07.003Z</time></trkpt><trkpt lat="45.34640509814068" lon="8.682381031692202"><ele>119.0</ele><time>2026-04-18T09:29:08.003Z</time></trkpt><trkpt lat="45.34643338569587" lon="8.68218733256069"><ele>119.0</ele><time>2026-04-18T09:29:09.003Z</time></trkpt><trkpt lat="45.34645927805525" lon="8.682002705448227"><ele>119.25</ele><time>2026-04-18T09:29:10.003Z</time></trkpt><trkpt lat="45.346483306897674" lon="8.681811025059517"><ele>119.5</ele><time>2026-04-18T09:29:11.003Z</time></trkpt><trkpt lat="45.346500376883" lon="8.681617858399434"><ele>119.75</ele><time>2026-04-18T09:29:12.003Z</time></trkpt><trkpt lat="45.34653592001831" lon="8.68142934244257"><ele>120.0</ele><time>2026-04-18T09:29:13.003Z</time></trkpt><trkpt lat="45.34655072066104" lon="8.681241362698417"><ele>119.75</ele><time>2026-04-18T09:29:14.003Z</time></trkpt><trkpt lat="45.346561107221554" lon="8.68106529735783"><ele>119.5</ele><time>2026-04-18T09:29:15.003Z</time></trkpt><trkpt lat="45.346572808091565" lon="8.680898358419343"><ele>119.25</ele><time>2026-04-18T09:29:16.003Z</time></trkpt><trkpt lat="45.34659145142446" lon="8.680714352679354"><ele>119.0</ele><time>2026-04-18T09:29:17.003Z</time></trkpt><trkpt lat="45.346631310314805" lon="8.680540427404896"><ele>119.0</ele><time>2026-04-18T09:29:18.003Z</time></trkpt><trkpt lat="45.34668323768057" lon="8.680368051841793"><ele>119.0</ele><time>2026-04-18T09:29:19.003Z</time></trkpt><trkpt lat="45.34672107054856" lon="8.680187256478673"><ele>119.0</ele><time>2026-04-18T09:29:20.003Z</time></trkpt><trkpt lat="45.34676654038008" lon="8.680036751400365"><ele>119.0</ele><time>2026-04-18T09:29:21.003Z</time></trkpt><trkpt lat="45.34679739688992" lon="8.679879700434883"><ele>119.0</ele><time>2026-04-18T09:29:22.003Z</time></trkpt><trkpt lat="45.346821347158" lon="8.679701079493729"><ele>119.0</ele><time>2026-04-18T09:29:23.003Z</time></trkpt><trkpt lat="45.34683500261212" lon="8.679510673121326"><ele>119.0</ele><time>2026-04-18T09:29:24.003Z</time></trkpt><trkpt lat="45.34686737191518" lon="8.679324903119399"><ele>119.0</ele><time>2026-04-18T09:29:25.003Z</time></trkpt><trkpt lat="45.34688626568052" lon="8.679134507324163"><ele>119.25</ele><time>2026-04-18T09:29:26.003Z</time></trkpt><trkpt lat="45.346905520256826" lon="8.678947038968209"><ele>119.5</ele><time>2026-04-18T09:29:27.003Z</time></trkpt><trkpt lat="45.346910750243744" lon="8.678775653797091"><ele>119.75</ele><time>2026-04-18T09:29:28.003Z</time></trkpt><trkpt lat="45.34694161098872" lon="8.678622357924802"><ele>120.0</ele><time>2026-04-18T09:29:29.003Z</time></trkpt><trkpt lat="45.34694626559593" lon="8.67848988543317"><ele>120.0</ele><time>2026-04-18T09:29:30Z</time></trkpt><trkpt lat="45.34696026345675" lon="8.678357548909462"><ele>120.0</ele><time>2026-04-18T09:29:31Z</time></trkpt><trkpt lat="45.34697316581276" lon="8.678230497171782"><ele>120.0</ele><time>2026-04-18T09:29:32Z</time></trkpt><trkpt lat="45.34698157046359" lon="8.678116357579704"><ele>120.0</ele><time>2026-04-18T09:29:33Z</time></trkpt><trkpt lat="45.346984263771134" lon="8.678017500582824"><ele>120.0</ele><time>2026-04-18T09:29:34Z</time></trkpt><trkpt lat="45.34699461888763" lon="8.677913884347937"><ele>120.0</ele><time>2026-04-18T09:29:35Z</time></trkpt><trkpt lat="45.34697605082396" lon="8.677802370355943"><ele>120.0</ele><time>2026-04-18T09:29:36Z</time></trkpt><trkpt lat="45.346947126776406" lon="8.677696882159205"><ele>120.0</ele><time>2026-04-18T09:29:37Z</time></trkpt><trkpt lat="45.34687557282532" lon="8.67761300152798"><ele>120.0</ele><time>2026-04-18T09:29:38Z</time></trkpt><trkpt lat="45.34681589793537" lon="8.677543562758501"><ele>120.0</ele><time>2026-04-18T09:29:39Z</time></trkpt><trkpt lat="45.3467491534641" lon="8.67748487304636"><ele>120.0</ele><time>2026-04-18T09:29:40Z</time></trkpt><trkpt lat="45.3466913799989" lon="8.677426114828297"><ele>120.0</ele><time>2026-04-18T09:29:41Z</time></trkpt><trkpt lat="45.346616258523746" lon="8.677298944592383"><ele>120.0</ele><time>2026-04-18T09:29:43Z</time></trkpt><trkpt lat="45.346598083966946" lon="8.67716865267905"><ele>120.0</ele><time>2026-04-18T09:29:45Z</time></trkpt><trkpt lat="45.34662323002045" lon="8.677015257298077"><ele>120.0</ele><time>2026-04-18T09:29:47Z</time></trkpt><trkpt lat="45.34662226884057" lon="8.67690997898313"><ele>120.0</ele><time>2026-04-18T09:29:48Z</time></trkpt><trkpt lat="45.346652488673044" lon="8.67679230192955"><ele>120.0</ele><time>2026-04-18T09:29:49Z</time></trkpt><trkpt lat="45.34665619744036" lon="8.676671466662434"><ele>120.0</ele><time>2026-04-18T09:29:50Z</time></trkpt><trkpt lat="45.3466770236588" lon="8.676554789292599"><ele>120.0</ele><time>2026-04-18T09:29:51Z</time></trkpt><trkpt lat="45.34669388009013" lon="8.67642638147144"><ele>120.0</ele><time>2026-04-18T09:29:52Z</time></trkpt><trkpt lat="45.34672674395365" lon="8.676340094149465"><ele>120.0</ele><time>2026-04-18T09:29:53Z</time></trkpt><trkpt lat="45.346770676003494" lon="8.676187761064494"><ele>120.0</ele><time>2026-04-18T09:29:55Z</time></trkpt><trkpt lat="45.34684540934656" lon="8.67604460713882"><ele>120.2</ele><time>2026-04-18T09:29:57Z</time></trkpt><trkpt lat="45.34691222713262" lon="8.675973432751958"><ele>120.4</ele><time>2026-04-18T09:29:58Z</time></trkpt><trkpt lat="45.34698766441807" lon="8.675905890486522"><ele>120.6</ele><time>2026-04-18T09:29:59Z</time></trkpt><trkpt lat="45.347062580169755" lon="8.675826706006356"><ele>120.8</ele><time>2026-04-18T09:30:00Z</time></trkpt><trkpt lat="45.34713893639782" lon="8.67575584850177"><ele>121.0</ele><time>2026-04-18T09:30:01Z</time></trkpt><trkpt lat="45.347218107938026" lon="8.67567939265625"><ele>121.0</ele><time>2026-04-18T09:30:02Z</time></trkpt><trkpt lat="45.34729160225503" lon="8.675600079443395"><ele>121.0</ele><time>2026-04-18T09:30:03Z</time></trkpt><trkpt lat="45.34737043376668" lon="8.675517456791878"><ele>121.0</ele><time>2026-04-18T09:30:04.001Z</time></trkpt><trkpt lat="45.34745075981352" lon="8.675432293010587"><ele>121.0</ele><time>2026-04-18T09:30:05.001Z</time></trkpt><trkpt lat="45.34753028440412" lon="8.675349113722062"><ele>121.0</ele><time>2026-04-18T09:30:06.001Z</time></trkpt><trkpt lat="45.34760667435881" lon="8.6752718006279"><ele>121.00000000000001</ele><time>2026-04-18T09:30:07.001Z</time></trkpt><trkpt lat="45.34767835448797" lon="8.675198981695715"><ele>121.0</ele><time>2026-04-18T09:30:08.001Z</time></trkpt><trkpt lat="45.34774527477615" lon="8.675134705339023"><ele>121.0</ele><time>2026-04-18T09:30:09.001Z</time></trkpt><trkpt lat="45.347811773730214" lon="8.675063004218735"><ele>121.0</ele><time>2026-04-18T09:30:10.001Z</time></trkpt><trkpt lat="45.34787846200626" lon="8.674993654742469"><ele>121.00000000000001</ele><time>2026-04-18T09:30:11.001Z</time></trkpt><trkpt lat="45.34793528603785" lon="8.674931702802473"><ele>121.0</ele><time>2026-04-18T09:30:12.001Z</time></trkpt><trkpt lat="45.347993997475484" lon="8.674879190254046"><ele>121.0</ele><time>2026-04-18T09:30:13.001Z</time></trkpt><trkpt lat="45.34805189891113" lon="8.674833905244096"><ele>121.0</ele><time>2026-04-18T09:30:14.001Z</time></trkpt><trkpt lat="45.34813658968582" lon="8.67476286500019"><ele>121.0</ele><time>2026-04-18T09:30:16.001Z</time></trkpt><trkpt lat="45.34820020052973" lon="8.674719863071582"><ele>121.0</ele><time>2026-04-18T09:30:18.001Z</time></trkpt><trkpt lat="45.34818776173198" lon="8.67453782643581"><ele>121.0</ele><time>2026-04-18T09:30:22.001Z</time></trkpt><trkpt lat="45.348157417671786" lon="8.674420185810268"><ele>121.0</ele><time>2026-04-18T09:30:25.001Z</time></trkpt><trkpt lat="45.34814323715527" lon="8.674300384277135"><ele>121.0</ele><time>2026-04-18T09:30:28.001Z</time></trkpt><trkpt lat="45.34819718062829" lon="8.674210565124923"><ele>121.0</ele><time>2026-04-18T09:30:30.001Z</time></trkpt><trkpt lat="45.34828204229831" lon="8.674086788939768"><ele>121.0</ele><time>2026-04-18T09:30:32.001Z</time></trkpt><trkpt lat="45.34836850564069" lon="8.673974015391101"><ele>121.0</ele><time>2026-04-18T09:30:34.001Z</time></trkpt><trkpt lat="45.34841760847232" lon="8.67389574900648"><ele>121.00000000000001</ele><time>2026-04-18T09:30:35.001Z</time></trkpt><trkpt lat="45.348452229844376" lon="8.673797261044681"><ele>121.0</ele><time>2026-04-18T09:30:36.001Z</time></trkpt><trkpt lat="45.34847732771444" lon="8.673688641604414"><ele>121.0</ele><time>2026-04-18T09:30:37.001Z</time></trkpt><trkpt lat="45.34849161139747" lon="8.673571186178675"><ele>121.0</ele><time>2026-04-18T09:30:38.001Z</time></trkpt><trkpt lat="45.34850334320301" lon="8.67345873867128"><ele>121.00000000000001</ele><time>2026-04-18T09:30:39.002Z</time></trkpt><trkpt lat="45.34851608201975" lon="8.673327717508236"><ele>121.0</ele><time>2026-04-18T09:30:40.002Z</time></trkpt><trkpt lat="45.34853455262049" lon="8.67318800991029"><ele>121.19999999999999</ele><time>2026-04-18T09:30:41.002Z</time></trkpt><trkpt lat="45.348556698298246" lon="8.673050741391757"><ele>121.39999999999999</ele><time>2026-04-18T09:30:42.002Z</time></trkpt><trkpt lat="45.34858237082656" lon="8.672911738312887"><ele>121.6</ele><time>2026-04-18T09:30:43.002Z</time></trkpt><trkpt lat="45.3486090389691" lon="8.672764889181686"><ele>121.8</ele><time>2026-04-18T09:30:44.002Z</time></trkpt><trkpt lat="45.34863654528844" lon="8.672623275458623"><ele>122.0</ele><time>2026-04-18T09:30:45.002Z</time></trkpt><trkpt lat="45.34866404561856" lon="8.672477822708014"><ele>122.0</ele><time>2026-04-18T09:30:46.002Z</time></trkpt><trkpt lat="45.34869195341817" lon="8.672340220108287"><ele>121.99999999999999</ele><time>2026-04-18T09:30:47.002Z</time></trkpt><trkpt lat="45.3487150711894" lon="8.67220015108669"><ele>121.99999999999999</ele><time>2026-04-18T09:30:48.002Z</time></trkpt><trkpt lat="45.348740829331184" lon="8.672054153939392"><ele>122.0</ele><time>2026-04-18T09:30:49.002Z</time></trkpt><trkpt lat="45.348765057852724" lon="8.671904609867108"><ele>122.0</ele><time>2026-04-18T09:30:50.002Z</time></trkpt><trkpt lat="45.3487900737518" lon="8.671755796764122"><ele>122.0</ele><time>2026-04-18T09:30:51.002Z</time></trkpt><trkpt lat="45.34881426277146" lon="8.671600665879444"><ele>122.0</ele><time>2026-04-18T09:30:52.002Z</time></trkpt><trkpt lat="45.34883486306696" lon="8.671438024989884"><ele>122.0</ele><time>2026-04-18T09:30:53.002Z</time></trkpt><trkpt lat="45.34885383632395" lon="8.671278784019428"><ele>122.0</ele><time>2026-04-18T09:30:54.002Z</time></trkpt><trkpt lat="45.348877004566695" lon="8.671116331282334"><ele>122.0</ele><time>2026-04-18T09:30:55.002Z</time></trkpt><trkpt lat="45.348901419184934" lon="8.670952004832426"><ele>122.0</ele><time>2026-04-18T09:30:56.002Z</time></trkpt><trkpt lat="45.34892524662838" lon="8.670785738720227"><ele>122.0</ele><time>2026-04-18T09:30:57.002Z</time></trkpt><trkpt lat="45.34896461092612" lon="8.670621565519916"><ele>122.0</ele><time>2026-04-18T09:30:58.002Z</time></trkpt><trkpt lat="45.34898892509952" lon="8.670450419841885"><ele>122.0</ele><time>2026-04-18T09:30:59.002Z</time></trkpt><trkpt lat="45.34901120463275" lon="8.670293596073751"><ele>121.99999999999999</ele><time>2026-04-18T09:31:00.002Z</time></trkpt><trkpt lat="45.34903234457482" lon="8.67014946390069"><ele>121.99999999999999</ele><time>2026-04-18T09:31:01.002Z</time></trkpt><trkpt lat="45.34905153521732" lon="8.670018109326367"><ele>122.0</ele><time>2026-04-18T09:31:02.002Z</time></trkpt><trkpt lat="45.34907036605821" lon="8.66988680435948"><ele>122.0</ele><time>2026-04-18T09:31:03.002Z</time></trkpt><trkpt lat="45.349084490476535" lon="8.669770751790216"><ele>122.39999999999999</ele><time>2026-04-18T09:31:04.002Z</time></trkpt><trkpt lat="45.3490878352844" lon="8.66960834397593"><ele>122.79999999999998</ele><time>2026-04-18T09:31:06.002Z</time></trkpt><trkpt lat="45.349108001308366" lon="8.669493322648853"><ele>123.2</ele><time>2026-04-18T09:31:08.002Z</time></trkpt><trkpt lat="45.34912859345979" lon="8.669395910819075"><ele>123.6</ele><time>2026-04-18T09:31:11.002Z</time></trkpt><trkpt lat="45.349138545668225" lon="8.669258784399078"><ele>124.0</ele><time>2026-04-18T09:31:39.999Z</time></trkpt><trkpt lat="45.34915470001927" lon="8.669127666362694"><ele>124.16666666666667</ele><time>2026-04-18T09:31:41.999Z</time></trkpt><trkpt lat="45.3491813247666" lon="8.66903929546294"><ele>124.33333333333334</ele><time>2026-04-18T09:31:42.999Z</time></trkpt><trkpt lat="45.34919489155186" lon="8.668937835517252"><ele>124.5</ele><time>2026-04-18T09:31:43.999Z</time></trkpt><trkpt lat="45.349207923543915" lon="8.668840375047072"><ele>124.66666666666666</ele><time>2026-04-18T09:31:44.999Z</time></trkpt><trkpt lat="45.34922168464562" lon="8.668729329543542"><ele>124.83333333333333</ele><time>2026-04-18T09:31:45.999Z</time></trkpt><trkpt lat="45.34923604850596" lon="8.668611576331951"><ele>125.0</ele><time>2026-04-18T09:31:46.999Z</time></trkpt><trkpt lat="45.349248686321715" lon="8.668485937758685"><ele>124.66666666666666</ele><time>2026-04-18T09:31:47.999Z</time></trkpt><trkpt lat="45.349260155466524" lon="8.668366472832718"><ele>124.33333333333333</ele><time>2026-04-18T09:31:48.999Z</time></trkpt><trkpt lat="45.34927106070577" lon="8.668252881658358"><ele>124.0</ele><time>2026-04-18T09:31:49.999Z</time></trkpt><trkpt lat="45.34928212819011" lon="8.668140281745517"><ele>123.66666666666666</ele><time>2026-04-18T09:31:50.999Z</time></trkpt><trkpt lat="45.34929349962773" lon="8.668025878321691"><ele>123.33333333333333</ele><time>2026-04-18T09:31:52Z</time></trkpt><trkpt lat="45.34930566794849" lon="8.667909014385147"><ele>123.0</ele><time>2026-04-18T09:31:53Z</time></trkpt><trkpt lat="45.34931866082057" lon="8.667782333982434"><ele>123.0</ele><time>2026-04-18T09:31:54Z</time></trkpt><trkpt lat="45.349332487285196" lon="8.667633704551697"><ele>123.00000000000001</ele><time>2026-04-18T09:31:55Z</time></trkpt><trkpt lat="45.34934622230854" lon="8.667492469107986"><ele>123.00000000000001</ele><time>2026-04-18T09:31:56Z</time></trkpt><trkpt lat="45.34936307868947" lon="8.667334019126457"><ele>123.0</ele><time>2026-04-18T09:31:57Z</time></trkpt><trkpt lat="45.3493801477936" lon="8.667173569559452"><ele>123.0</ele><time>2026-04-18T09:31:58Z</time></trkpt><trkpt lat="45.34939861594688" lon="8.666999968909481"><ele>123.25</ele><time>2026-04-18T09:31:59Z</time></trkpt><trkpt lat="45.34941720071189" lon="8.666829162839454"><ele>123.5</ele><time>2026-04-18T09:32:00Z</time></trkpt><trkpt lat="45.34943694008637" lon="8.666661029054492"><ele>123.75</ele><time>2026-04-18T09:32:01Z</time></trkpt><trkpt lat="45.34945687439779" lon="8.666491234866687"><ele>124.0</ele><time>2026-04-18T09:32:02Z</time></trkpt><trkpt lat="45.34947617660191" lon="8.666328327540274"><ele>124.0</ele><time>2026-04-18T09:32:03Z</time></trkpt><trkpt lat="45.34949790371633" lon="8.666175784314412"><ele>124.0</ele><time>2026-04-18T09:32:04Z</time></trkpt><trkpt lat="45.34951971823519" lon="8.666022627429777"><ele>124.0</ele><time>2026-04-18T09:32:05Z</time></trkpt><trkpt lat="45.349539542258704" lon="8.665883445609673"><ele>124.0</ele><time>2026-04-18T09:32:06Z</time></trkpt><trkpt lat="45.3495549060004" lon="8.665761823669808"><ele>124.0</ele><time>2026-04-18T09:32:07Z</time></trkpt><trkpt lat="45.349568614804056" lon="8.665647822304082"><ele>123.83333333333334</ele><time>2026-04-18T09:32:08Z</time></trkpt><trkpt lat="45.34957903814632" lon="8.665556836418833"><ele>123.66666666666667</ele><time>2026-04-18T09:32:09Z</time></trkpt><trkpt lat="45.34959303312279" lon="8.665434673563825"><ele>123.5</ele><time>2026-04-18T09:32:11Z</time></trkpt><trkpt lat="45.34945163493743" lon="8.665387294959721"><ele>123.33333333333334</ele><time>2026-04-18T09:32:13Z</time></trkpt><trkpt lat="45.34938455821623" lon="8.665365466668863"><ele>123.16666666666667</ele><time>2026-04-18T09:32:14Z</time></trkpt><trkpt lat="45.34930316247499" lon="8.66535894549863"><ele>123.0</ele><time>2026-04-18T09:32:15Z</time></trkpt><trkpt lat="45.34921670192925" lon="8.66535584347935"><ele>123.0</ele><time>2026-04-18T09:32:16.001Z</time></trkpt><trkpt lat="45.349123895629695" lon="8.66535251378702"><ele>123.00000000000001</ele><time>2026-04-18T09:32:17.001Z</time></trkpt><trkpt lat="45.349025492416295" lon="8.665367374745887"><ele>123.00000000000001</ele><time>2026-04-18T09:32:18.001Z</time></trkpt><trkpt lat="45.34893768598908" lon="8.665329216302386"><ele>123.0</ele><time>2026-04-18T09:32:19.001Z</time></trkpt><trkpt lat="45.348844646532314" lon="8.665305378636043"><ele>123.0</ele><time>2026-04-18T09:32:20.001Z</time></trkpt><trkpt lat="45.34874609238412" lon="8.665282544592245"><ele>123.0</ele><time>2026-04-18T09:32:21.001Z</time></trkpt><trkpt lat="45.34864170727143" lon="8.66525835957388"><ele>123.00000000000001</ele><time>2026-04-18T09:32:22.001Z</time></trkpt><trkpt lat="45.34854684806702" lon="8.665236381611356"><ele>123.00000000000001</ele><time>2026-04-18T09:32:23.001Z</time></trkpt><trkpt lat="45.34844141699945" lon="8.665215649687175"><ele>123.0</ele><time>2026-04-18T09:32:24.001Z</time></trkpt><trkpt lat="45.34833970234086" lon="8.665195047730816"><ele>123.0</ele><time>2026-04-18T09:32:25.001Z</time></trkpt><trkpt lat="45.34823828762454" lon="8.665174947266637"><ele>123.0</ele><time>2026-04-18T09:32:26.001Z</time></trkpt><trkpt lat="45.348132628628456" lon="8.665154772095052"><ele>123.00000000000001</ele><time>2026-04-18T09:32:27.001Z</time></trkpt><trkpt lat="45.34802991421589" lon="8.665142381334283"><ele>123.00000000000001</ele><time>2026-04-18T09:32:28.001Z</time></trkpt><trkpt lat="45.347925337385284" lon="8.66513263977838"><ele>123.0</ele><time>2026-04-18T09:32:29.001Z</time></trkpt><trkpt lat="45.34782401504829" lon="8.66512810944718"><ele>123.0</ele><time>2026-04-18T09:32:30.001Z</time></trkpt><trkpt lat="45.34772520626218" lon="8.665128750351236"><ele>122.80000000000001</ele><time>2026-04-18T09:32:31.001Z</time></trkpt><trkpt lat="45.34763161427293" lon="8.665132728521131"><ele>122.60000000000001</ele><time>2026-04-18T09:32:32.001Z</time></trkpt><trkpt lat="45.34754367809318" lon="8.665133305909276"><ele>122.39999999999999</ele><time>2026-04-18T09:32:33.001Z</time></trkpt><trkpt lat="45.34744535949148" lon="8.665137135517865"><ele>122.19999999999999</ele><time>2026-04-18T09:32:34.001Z</time></trkpt><trkpt lat="45.34733266264097" lon="8.665136559964035"><ele>122.0</ele><time>2026-04-18T09:32:35.001Z</time></trkpt><trkpt lat="45.347234667095954" lon="8.66511639477888"><ele>122.25</ele><time>2026-04-18T09:32:36.001Z</time></trkpt><trkpt lat="45.34712322656016" lon="8.66511639477757"><ele>122.5</ele><time>2026-04-18T09:32:37.001Z</time></trkpt><trkpt lat="45.34700691311715" lon="8.665116394776735"><ele>122.75</ele><time>2026-04-18T09:32:38.001Z</time></trkpt><trkpt lat="45.3468881086183" lon="8.665138102349019"><ele>123.0</ele><time>2026-04-18T09:32:39.001Z</time></trkpt><trkpt lat="45.34676675342156" lon="8.665141687919617"><ele>123.0</ele><time>2026-04-18T09:32:40.001Z</time></trkpt><trkpt lat="45.34664020681537" lon="8.665156134521673"><ele>123.0</ele><time>2026-04-18T09:32:41.001Z</time></trkpt><trkpt lat="45.346513124808396" lon="8.665145300949968"><ele>123.0</ele><time>2026-04-18T09:32:42.001Z</time></trkpt><trkpt lat="45.346398162335454" lon="8.66517189537841"><ele>123.0</ele><time>2026-04-18T09:32:43.001Z</time></trkpt><trkpt lat="45.3463001595021" lon="8.6651787589392"><ele>122.60000000000001</ele><time>2026-04-18T09:32:44.001Z</time></trkpt><trkpt lat="45.346215479082346" lon="8.665173108060495"><ele>122.20000000000002</ele><time>2026-04-18T09:32:45.001Z</time></trkpt><trkpt lat="45.34613492191006" lon="8.665140731947062"><ele>121.8</ele><time>2026-04-18T09:32:46.001Z</time></trkpt><trkpt lat="45.346040330774656" lon="8.665101145539282"><ele>121.4</ele><time>2026-04-18T09:32:47.002Z</time></trkpt><trkpt lat="45.345943804573274" lon="8.665042823251571"><ele>121.0</ele><time>2026-04-18T09:32:48.002Z</time></trkpt><trkpt lat="45.345860836615344" lon="8.664944276710894"><ele>121.0</ele><time>2026-04-18T09:32:49.002Z</time></trkpt><trkpt lat="45.34576312639277" lon="8.664860053928333"><ele>121.0</ele><time>2026-04-18T09:32:50.002Z</time></trkpt><trkpt lat="45.34566733754439" lon="8.664795023995005"><ele>121.0</ele><time>2026-04-18T09:32:51.002Z</time></trkpt><trkpt lat="45.34557050763096" lon="8.664721492980865"><ele>121.0</ele><time>2026-04-18T09:32:52.002Z</time></trkpt><trkpt lat="45.345474941405165" lon="8.664654817764111"><ele>121.0</ele><time>2026-04-18T09:32:53.002Z</time></trkpt><trkpt lat="45.34537980068807" lon="8.664593986077625"><ele>121.0</ele><time>2026-04-18T09:32:54.002Z</time></trkpt><trkpt lat="45.345282088013676" lon="8.664536575178559"><ele>121.0</ele><time>2026-04-18T09:32:55.002Z</time></trkpt><trkpt lat="45.345185350532056" lon="8.66448070177047"><ele>121.0</ele><time>2026-04-18T09:32:56.002Z</time></trkpt><trkpt lat="45.34508110052508" lon="8.664427995827902"><ele>121.0</ele><time>2026-04-18T09:32:57.002Z</time></trkpt><trkpt lat="45.344968882567336" lon="8.664371087824847"><ele>121.0</ele><time>2026-04-18T09:32:58.002Z</time></trkpt><trkpt lat="45.3448570493964" lon="8.664318325468825"><ele>121.0</ele><time>2026-04-18T09:32:59.002Z</time></trkpt><trkpt lat="45.3447402964295" lon="8.66426569989931"><ele>121.0</ele><time>2026-04-18T09:33:00.002Z</time></trkpt><trkpt lat="45.34462413352101" lon="8.664213095251943"><ele>121.0</ele><time>2026-04-18T09:33:01.002Z</time></trkpt><trkpt lat="45.34450742217039" lon="8.664156752709442"><ele>121.0</ele><time>2026-04-18T09:33:02.002Z</time></trkpt><trkpt lat="45.34439080611264" lon="8.664098744831488"><ele>120.75</ele><time>2026-04-18T09:33:03.002Z</time></trkpt><trkpt lat="45.344281924762946" lon="8.664043491505671"><ele>120.5</ele><time>2026-04-18T09:33:04.002Z</time></trkpt><trkpt lat="45.344167338702874" lon="8.6639885349039"><ele>120.25</ele><time>2026-04-18T09:33:05.002Z</time></trkpt><trkpt lat="45.344049618107334" lon="8.663938139733016"><ele>120.0</ele><time>2026-04-18T09:33:06.002Z</time></trkpt><trkpt lat="45.343934180870846" lon="8.66389219423953"><ele>119.75</ele><time>2026-04-18T09:33:07.002Z</time></trkpt><trkpt lat="45.343821606785674" lon="8.663840508276534"><ele>119.5</ele><time>2026-04-18T09:33:08.002Z</time></trkpt><trkpt lat="45.343711973749926" lon="8.663795155737274"><ele>119.25</ele><time>2026-04-18T09:33:09.002Z</time></trkpt><trkpt lat="45.343600074415995" lon="8.663752740686094"><ele>119.0</ele><time>2026-04-18T09:33:10.002Z</time></trkpt><trkpt lat="45.34349036645588" lon="8.663700088519583"><ele>119.0</ele><time>2026-04-18T09:33:11.002Z</time></trkpt><trkpt lat="45.34337699976423" lon="8.66365674038147"><ele>119.0</ele><time>2026-04-18T09:33:12.002Z</time></trkpt><trkpt lat="45.3432787975085" lon="8.663595024198427"><ele>119.0</ele><time>2026-04-18T09:33:13.002Z</time></trkpt><trkpt lat="45.343186126109394" lon="8.663581477717681"><ele>119.0</ele><time>2026-04-18T09:33:14.002Z</time></trkpt><trkpt lat="45.34309707001707" lon="8.663542245301244"><ele>119.0</ele><time>2026-04-18T09:33:15.002Z</time></trkpt><trkpt lat="45.34300257332721" lon="8.663481569534868"><ele>119.0</ele><time>2026-04-18T09:33:16.002Z</time></trkpt><trkpt lat="45.34289603633502" lon="8.663454085703217"><ele>119.0</ele><time>2026-04-18T09:33:17.002Z</time></trkpt><trkpt lat="45.34279658531569" lon="8.663422783484487"><ele>119.0</ele><time>2026-04-18T09:33:18.002Z</time></trkpt><trkpt lat="45.342702100170186" lon="8.663360989387586"><ele>119.0</ele><time>2026-04-18T09:33:19.002Z</time></trkpt><trkpt lat="45.34259699863923" lon="8.663319404746895"><ele>119.0</ele><time>2026-04-18T09:33:20.003Z</time></trkpt><trkpt lat="45.342501460007774" lon="8.663281603779382"><ele>118.99999999999999</ele><time>2026-04-18T09:33:21.003Z</time></trkpt><trkpt lat="45.34240891565375" lon="8.66326159964655"><ele>119.0</ele><time>2026-04-18T09:33:22.003Z</time></trkpt><trkpt lat="45.34232648988373" lon="8.663241018412437"><ele>119.0</ele><time>2026-04-18T09:33:23.003Z</time></trkpt><trkpt lat="45.34224303075021" lon="8.663213660074984"><ele>119.0</ele><time>2026-04-18T09:33:24.003Z</time></trkpt><trkpt lat="45.34215096327883" lon="8.663187258310474"><ele>118.99999999999999</ele><time>2026-04-18T09:33:25.003Z</time></trkpt><trkpt lat="45.34206232101206" lon="8.663166084723027"><ele>119.0</ele><time>2026-04-18T09:33:26.003Z</time></trkpt><trkpt lat="45.34197107627553" lon="8.663148055621217"><ele>119.4</ele><time>2026-04-18T09:33:27.003Z</time></trkpt><trkpt lat="45.34188511611966" lon="8.663131803019045"><ele>119.80000000000001</ele><time>2026-04-18T09:33:28.003Z</time></trkpt><trkpt lat="45.3417977507334" lon="8.663118817918495"><ele>120.19999999999999</ele><time>2026-04-18T09:33:29.003Z</time></trkpt><trkpt lat="45.34170316266206" lon="8.663108917036025"><ele>120.6</ele><time>2026-04-18T09:33:30.003Z</time></trkpt><trkpt lat="45.34159392012155" lon="8.663066140357081"><ele>121.0</ele><time>2026-04-18T09:33:31.003Z</time></trkpt><trkpt lat="45.34147738100157" lon="8.663043059430032"><ele>120.5</ele><time>2026-04-18T09:33:32.003Z</time></trkpt><trkpt lat="45.34135768682428" lon="8.663019355642552"><ele>120.0</ele><time>2026-04-18T09:33:33.003Z</time></trkpt><trkpt lat="45.34123044624821" lon="8.662994155259927"><ele>119.5</ele><time>2026-04-18T09:33:34.003Z</time></trkpt><trkpt lat="45.34110389053064" lon="8.662992577809485"><ele>119.0</ele><time>2026-04-18T09:33:35.003Z</time></trkpt><trkpt lat="45.340980389459084" lon="8.662963912796043"><ele>119.0</ele><time>2026-04-18T09:33:36.003Z</time></trkpt><trkpt lat="45.34086227964256" lon="8.66294592191048"><ele>119.0</ele><time>2026-04-18T09:33:37.003Z</time></trkpt><trkpt lat="45.340746072938266" lon="8.66292013150826"><ele>119.0</ele><time>2026-04-18T09:33:38.003Z</time></trkpt><trkpt lat="45.34063558163823" lon="8.662906671703702"><ele>119.0</ele><time>2026-04-18T09:33:39.003Z</time></trkpt><trkpt lat="45.34053911424937" lon="8.662890461225967"><ele>119.0</ele><time>2026-04-18T09:33:40.003Z</time></trkpt><trkpt lat="45.34045517592878" lon="8.662879707772625"><ele>118.99999999999999</ele><time>2026-04-18T09:33:41.003Z</time></trkpt><trkpt lat="45.34037617067125" lon="8.66283991898774"><ele>119.0</ele><time>2026-04-18T09:33:41.999Z</time></trkpt><trkpt lat="45.340291304333505" lon="8.662842369169471"><ele>119.0</ele><time>2026-04-18T09:33:42.999Z</time></trkpt><trkpt lat="45.340201115189345" lon="8.662792236976543"><ele>119.0</ele><time>2026-04-18T09:33:43.999Z</time></trkpt><trkpt lat="45.340104788619165" lon="8.662784457415095"><ele>118.99999999999999</ele><time>2026-04-18T09:33:44.999Z</time></trkpt><trkpt lat="45.340029279235296" lon="8.662738442342203"><ele>119.0</ele><time>2026-04-18T09:33:45.999Z</time></trkpt><trkpt lat="45.33995957797193" lon="8.662716950295898"><ele>118.83333333333333</ele><time>2026-04-18T09:33:46.999Z</time></trkpt><trkpt lat="45.33989602909291" lon="8.662697355304262"><ele>118.66666666666666</ele><time>2026-04-18T09:33:47.999Z</time></trkpt><trkpt lat="45.33979736933563" lon="8.662664628220739"><ele>118.5</ele><time>2026-04-18T09:33:49.999Z</time></trkpt><trkpt lat="45.33971943740113" lon="8.662638782612376"><ele>118.33333333333334</ele><time>2026-04-18T09:33:52Z</time></trkpt><trkpt lat="45.339654174552884" lon="8.662555071269468"><ele>118.16666666666667</ele><time>2026-04-18T09:33:55Z</time></trkpt><trkpt lat="45.33966759722911" lon="8.662434302875806"><ele>118.0</ele><time>2026-04-18T09:33:57Z</time></trkpt><trkpt lat="45.33969587809394" lon="8.66229966088167"><ele>118.0</ele><time>2026-04-18T09:33:59Z</time></trkpt><trkpt lat="45.33972996210221" lon="8.662163654003232"><ele>118.00000000000001</ele><time>2026-04-18T09:34:01Z</time></trkpt><trkpt lat="45.33975329314649" lon="8.6620190051102"><ele>118.00000000000001</ele><time>2026-04-18T09:34:03Z</time></trkpt><trkpt lat="45.33974982957667" lon="8.661871594361365"><ele>118.0</ele><time>2026-04-18T09:34:05Z</time></trkpt><trkpt lat="45.33963320624033" lon="8.661778707874001"><ele>118.0</ele><time>2026-04-18T09:34:07Z</time></trkpt><trkpt lat="45.33956298359262" lon="8.66173446422129"><ele>118.0</ele><time>2026-04-18T09:34:08Z</time></trkpt><trkpt lat="45.33948774911543" lon="8.661688249787748"><ele>118.00000000000001</ele><time>2026-04-18T09:34:09Z</time></trkpt><trkpt lat="45.33939833961248" lon="8.661641731854742"><ele>118.00000000000001</ele><time>2026-04-18T09:34:10Z</time></trkpt><trkpt lat="45.33930554881756" lon="8.661621314678124"><ele>118.0</ele><time>2026-04-18T09:34:11Z</time></trkpt><trkpt lat="45.33920658792002" lon="8.661580443019362"><ele>118.0</ele><time>2026-04-18T09:34:12Z</time></trkpt><trkpt lat="45.33910466802426" lon="8.66155868207532"><ele>118.0</ele><time>2026-04-18T09:34:13Z</time></trkpt><trkpt lat="45.33900469301588" lon="8.661529138107989"><ele>118.0</ele><time>2026-04-18T09:34:14Z</time></trkpt><trkpt lat="45.33889390775624" lon="8.661511882948888"><ele>118.0</ele><time>2026-04-18T09:34:15Z</time></trkpt><trkpt lat="45.33877785964265" lon="8.661484164958718"><ele>118.0</ele><time>2026-04-18T09:34:16.001Z</time></trkpt><trkpt lat="45.33865568931959" lon="8.661457765288516"><ele>118.0</ele><time>2026-04-18T09:34:17.001Z</time></trkpt><trkpt lat="45.33853779962042" lon="8.661431359032685"><ele>118.0</ele><time>2026-04-18T09:34:18.001Z</time></trkpt><trkpt lat="45.3384251372999" lon="8.66140609508825"><ele>118.0</ele><time>2026-04-18T09:34:19.001Z</time></trkpt><trkpt lat="45.33831464892023" lon="8.661348130903916"><ele>118.0</ele><time>2026-04-18T09:34:20.001Z</time></trkpt><trkpt lat="45.338215787588915" lon="8.661281833326"><ele>118.00000000000001</ele><time>2026-04-18T09:34:21.001Z</time></trkpt><trkpt lat="45.33811676031724" lon="8.661214822813728"><ele>118.0</ele><time>2026-04-18T09:34:22.001Z</time></trkpt><trkpt lat="45.33802759052011" lon="8.661180511798662"><ele>118.0</ele><time>2026-04-18T09:34:23.001Z</time></trkpt><trkpt lat="45.337951299185725" lon="8.661125346901088"><ele>118.0</ele><time>2026-04-18T09:34:24.001Z</time></trkpt><trkpt lat="45.33788842824678" lon="8.661062317450913"><ele>118.00000000000001</ele><time>2026-04-18T09:34:25.001Z</time></trkpt><trkpt lat="45.33782719709338" lon="8.66102007505984"><ele>118.0</ele><time>2026-04-18T09:34:26.001Z</time></trkpt><trkpt lat="45.33776902071488" lon="8.660981929020144"><ele>117.80000000000001</ele><time>2026-04-18T09:34:27.001Z</time></trkpt><trkpt lat="45.33767391351993" lon="8.660913861459813"><ele>117.60000000000001</ele><time>2026-04-18T09:34:29.001Z</time></trkpt><trkpt lat="45.33760302438429" lon="8.660817449735047"><ele>117.39999999999999</ele><time>2026-04-18T09:34:31.001Z</time></trkpt><trkpt lat="45.337582566999565" lon="8.66068015860496"><ele>117.19999999999999</ele><time>2026-04-18T09:34:33.001Z</time></trkpt><trkpt lat="45.337588493640695" lon="8.660582550806181"><ele>117.0</ele><time>2026-04-18T09:34:34.001Z</time></trkpt><trkpt lat="45.337572368233744" lon="8.660466981972307"><ele>117.0</ele><time>2026-04-18T09:34:35.001Z</time></trkpt><trkpt lat="45.33757120339519" lon="8.660336064617526"><ele>116.99999999999999</ele><time>2026-04-18T09:34:36.001Z</time></trkpt><trkpt lat="45.337568918372675" lon="8.66018941871948"><ele>116.99999999999999</ele><time>2026-04-18T09:34:37.001Z</time></trkpt><trkpt lat="45.33756513086156" lon="8.660037553641072"><ele>117.0</ele><time>2026-04-18T09:34:38.001Z</time></trkpt><trkpt lat="45.337559324232856" lon="8.659880767805578"><ele>117.0</ele><time>2026-04-18T09:34:39.001Z</time></trkpt><trkpt lat="45.33757113763213" lon="8.659721006607032"><ele>117.0</ele><time>2026-04-18T09:34:40.001Z</time></trkpt><trkpt lat="45.337567930122766" lon="8.65955715067696"><ele>117.0</ele><time>2026-04-18T09:34:41.001Z</time></trkpt><trkpt lat="45.3375671455856" lon="8.659393070343071"><ele>117.0</ele><time>2026-04-18T09:34:42.001Z</time></trkpt><trkpt lat="45.33755768099718" lon="8.659225671620446"><ele>117.0</ele><time>2026-04-18T09:34:43.001Z</time></trkpt><trkpt lat="45.33756872861578" lon="8.659062116051542"><ele>117.0</ele><time>2026-04-18T09:34:44.001Z</time></trkpt><trkpt lat="45.33755200296119" lon="8.658903736691297"><ele>116.99999999999999</ele><time>2026-04-18T09:34:45.001Z</time></trkpt><trkpt lat="45.337546873096805" lon="8.65874417654641"><ele>116.99999999999999</ele><time>2026-04-18T09:34:46.002Z</time></trkpt><trkpt lat="45.337542539294816" lon="8.658578629056684"><ele>117.0</ele><time>2026-04-18T09:34:47.002Z</time></trkpt><trkpt lat="45.337541750074394" lon="8.658435674825508"><ele>117.0</ele><time>2026-04-18T09:34:48.002Z</time></trkpt><trkpt lat="45.33753575464814" lon="8.658294343060692"><ele>117.0</ele><time>2026-04-18T09:34:49.002Z</time></trkpt><trkpt lat="45.33752871504841" lon="8.658151695046579"><ele>116.99999999999999</ele><time>2026-04-18T09:34:50.002Z</time></trkpt><trkpt lat="45.337540536141454" lon="8.657997748560735"><ele>116.99999999999999</ele><time>2026-04-18T09:34:51.002Z</time></trkpt><trkpt lat="45.33753581534827" lon="8.65784095436624"><ele>117.0</ele><time>2026-04-18T09:34:52.002Z</time></trkpt><trkpt lat="45.33753063659786" lon="8.657686140356335"><ele>117.0</ele><time>2026-04-18T09:34:53.002Z</time></trkpt><trkpt lat="45.33752529807592" lon="8.657526550348964"><ele>117.0</ele><time>2026-04-18T09:34:54.002Z</time></trkpt><trkpt lat="45.337520059017" lon="8.65736993357912"><ele>116.99999999999999</ele><time>2026-04-18T09:34:55.002Z</time></trkpt><trkpt lat="45.33751511198009" lon="8.657220706662033"><ele>116.99999999999999</ele><time>2026-04-18T09:34:56.002Z</time></trkpt><trkpt lat="45.33751157855093" lon="8.657075621872178"><ele>117.0</ele><time>2026-04-18T09:34:57.002Z</time></trkpt><trkpt lat="45.337508363158115" lon="8.656939668758856"><ele>117.0</ele><time>2026-04-18T09:34:58.002Z</time></trkpt><trkpt lat="45.337505942487134" lon="8.65680571427367"><ele>116.8</ele><time>2026-04-18T09:34:59.002Z</time></trkpt><trkpt lat="45.33750375206528" lon="8.656684501287234"><ele>116.6</ele><time>2026-04-18T09:35:00.002Z</time></trkpt><trkpt lat="45.3374899344708" lon="8.656557207615213"><ele>116.39999999999999</ele><time>2026-04-18T09:35:01.002Z</time></trkpt><trkpt lat="45.337486572455006" lon="8.65641104799048"><ele>116.19999999999999</ele><time>2026-04-18T09:35:02.002Z</time></trkpt><trkpt lat="45.33748307099406" lon="8.656275863344526"><ele>116.0</ele><time>2026-04-18T09:35:03.002Z</time></trkpt><trkpt lat="45.33747850927857" lon="8.656123988527847"><ele>115.8</ele><time>2026-04-18T09:35:04.002Z</time></trkpt><trkpt lat="45.337490437851606" lon="8.655969521228126"><ele>115.6</ele><time>2026-04-18T09:35:05.002Z</time></trkpt><trkpt lat="45.337472179282095" lon="8.655834348534992"><ele>115.4</ele><time>2026-04-18T09:35:06.002Z</time></trkpt><trkpt lat="45.33746965877632" lon="8.655694886471528"><ele>115.2</ele><time>2026-04-18T09:35:07.002Z</time></trkpt><trkpt lat="45.33746884301694" lon="8.655558949572045"><ele>115.0</ele><time>2026-04-18T09:35:08.002Z</time></trkpt><trkpt lat="45.33746861688824" lon="8.655437841370125"><ele>115.6</ele><time>2026-04-18T09:35:09.002Z</time></trkpt><trkpt lat="45.337463595058885" lon="8.655273954351365"><ele>116.2</ele><time>2026-04-18T09:35:10.002Z</time></trkpt><trkpt lat="45.337463565035776" lon="8.655115174133286"><ele>116.80000000000001</ele><time>2026-04-18T09:35:11.002Z</time></trkpt><trkpt lat="45.3374566015882" lon="8.654977311825947"><ele>117.4</ele><time>2026-04-18T09:35:12.002Z</time></trkpt><trkpt lat="45.337456578040374" lon="8.654829756245388"><ele>118.0</ele><time>2026-04-18T09:35:13.002Z</time></trkpt><trkpt lat="45.33745318951412" lon="8.654691553161566"><ele>118.0</ele><time>2026-04-18T09:35:14.002Z</time></trkpt><trkpt lat="45.33746266899423" lon="8.65454989818498"><ele>118.00000000000001</ele><time>2026-04-18T09:35:15.002Z</time></trkpt><trkpt lat="45.33744436853865" lon="8.6544061763279"><ele>118.00000000000001</ele><time>2026-04-18T09:35:16.002Z</time></trkpt><trkpt lat="45.33744228065368" lon="8.654259965715095"><ele>118.0</ele><time>2026-04-18T09:35:17.002Z</time></trkpt><trkpt lat="45.337441062927525" lon="8.654118933873823"><ele>118.0</ele><time>2026-04-18T09:35:18.002Z</time></trkpt><trkpt lat="45.3374415841674" lon="8.653977838324503"><ele>117.80000000000001</ele><time>2026-04-18T09:35:19.003Z</time></trkpt><trkpt lat="45.33743835733663" lon="8.65383459565262"><ele>117.60000000000001</ele><time>2026-04-18T09:35:20.003Z</time></trkpt><trkpt lat="45.337448096123225" lon="8.65368929802371"><ele>117.39999999999999</ele><time>2026-04-18T09:35:21.003Z</time></trkpt><trkpt lat="45.33743413848106" lon="8.653553123381586"><ele>117.19999999999999</ele><time>2026-04-18T09:35:22.003Z</time></trkpt><trkpt lat="45.337431399932974" lon="8.653419415724638"><ele>117.0</ele><time>2026-04-18T09:35:23.003Z</time></trkpt><trkpt lat="45.337428867827114" lon="8.653296452622378"><ele>117.0</ele><time>2026-04-18T09:35:24.003Z</time></trkpt><trkpt lat="45.33742578286293" lon="8.653194898817658"><ele>117.0</ele><time>2026-04-18T09:35:25.003Z</time></trkpt><trkpt lat="45.33741973619612" lon="8.653094984786351"><ele>117.0</ele><time>2026-04-18T09:35:26.003Z</time></trkpt><trkpt lat="45.33743168568165" lon="8.652934075618607"><ele>117.0</ele><time>2026-04-18T09:35:28.003Z</time></trkpt><trkpt lat="45.3374189450195" lon="8.652836632787269"><ele>117.0</ele><time>2026-04-18T09:36:00.999Z</time></trkpt><trkpt lat="45.337497871324466" lon="8.652864533526277"><ele>117.0</ele><time>2026-04-18T09:36:03Z</time></trkpt><trkpt lat="45.337563553570874" lon="8.652862602604033"><ele>117.0</ele><time>2026-04-18T09:36:04Z</time></trkpt><trkpt lat="45.33763015193042" lon="8.652890347610514"><ele>117.0</ele><time>2026-04-18T09:36:05Z</time></trkpt><trkpt lat="45.33770497460039" lon="8.652905639816586"><ele>117.0</ele><time>2026-04-18T09:36:06Z</time></trkpt><trkpt lat="45.3377986857978" lon="8.652918984446707"><ele>117.0</ele><time>2026-04-18T09:36:07Z</time></trkpt><trkpt lat="45.337896553333856" lon="8.652923338750375"><ele>117.0</ele><time>2026-04-18T09:36:08Z</time></trkpt><trkpt lat="45.338000086499065" lon="8.65294353022765"><ele>117.0</ele><time>2026-04-18T09:36:09Z</time></trkpt><trkpt lat="45.33810974095975" lon="8.652961962975226"><ele>117.19999999999999</ele><time>2026-04-18T09:36:10Z</time></trkpt><trkpt lat="45.33821713120835" lon="8.65298526619667"><ele>117.39999999999999</ele><time>2026-04-18T09:36:11Z</time></trkpt><trkpt lat="45.33831815839142" lon="8.652996790296848"><ele>117.60000000000001</ele><time>2026-04-18T09:36:12Z</time></trkpt><trkpt lat="45.3384280672891" lon="8.653023345370185"><ele>117.80000000000001</ele><time>2026-04-18T09:36:13Z</time></trkpt><trkpt lat="45.33853414061098" lon="8.653047568782114"><ele>118.0</ele><time>2026-04-18T09:36:14Z</time></trkpt><trkpt lat="45.338633959082195" lon="8.65307332577421"><ele>118.0</ele><time>2026-04-18T09:36:15Z</time></trkpt><trkpt lat="45.33873459402866" lon="8.653092892073252"><ele>118.00000000000001</ele><time>2026-04-18T09:36:16Z</time></trkpt><trkpt lat="45.338833729154835" lon="8.653110050808316"><ele>118.00000000000001</ele><time>2026-04-18T09:36:17Z</time></trkpt><trkpt lat="45.338932272131345" lon="8.653127158062517"><ele>118.0</ele><time>2026-04-18T09:36:18Z</time></trkpt><trkpt lat="45.33903018362724" lon="8.653143581497154"><ele>118.0</ele><time>2026-04-18T09:36:19Z</time></trkpt><trkpt lat="45.33912699930593" lon="8.653157891925124"><ele>118.0</ele><time>2026-04-18T09:36:20Z</time></trkpt><trkpt lat="45.3392237280084" lon="8.65317428044731"><ele>118.00000000000001</ele><time>2026-04-18T09:36:21Z</time></trkpt><trkpt lat="45.33931782313185" lon="8.65319292670416"><ele>118.00000000000001</ele><time>2026-04-18T09:36:22Z</time></trkpt><trkpt lat="45.33941432486622" lon="8.65321073135593"><ele>118.0</ele><time>2026-04-18T09:36:23Z</time></trkpt><trkpt lat="45.339508476983745" lon="8.653228200535388"><ele>118.0</ele><time>2026-04-18T09:36:24Z</time></trkpt><trkpt lat="45.339601513486" lon="8.653247533346397"><ele>118.0</ele><time>2026-04-18T09:36:25.001Z</time></trkpt><trkpt lat="45.33969505948045" lon="8.653266109154313"><ele>118.00000000000001</ele><time>2026-04-18T09:36:26.001Z</time></trkpt><trkpt lat="45.33978739685552" lon="8.653282156098706"><ele>118.00000000000001</ele><time>2026-04-18T09:36:27.001Z</time></trkpt><trkpt lat="45.33987934819188" lon="8.653297022411309"><ele>118.0</ele><time>2026-04-18T09:36:28.001Z</time></trkpt><trkpt lat="45.33997017214998" lon="8.653313022267778"><ele>118.0</ele><time>2026-04-18T09:36:29.001Z</time></trkpt><trkpt lat="45.34006085114697" lon="8.65333217229927"><ele>118.2</ele><time>2026-04-18T09:36:30.001Z</time></trkpt><trkpt lat="45.34015113304016" lon="8.65335028416103"><ele>118.4</ele><time>2026-04-18T09:36:31.001Z</time></trkpt><trkpt lat="45.34024157246218" lon="8.65336968142004"><ele>118.60000000000001</ele><time>2026-04-18T09:36:32.001Z</time></trkpt><trkpt lat="45.34032984521126" lon="8.653384538102452"><ele>118.80000000000001</ele><time>2026-04-18T09:36:33.001Z</time></trkpt><trkpt lat="45.34042034150208" lon="8.653398981943319"><ele>119.0</ele><time>2026-04-18T09:36:34.001Z</time></trkpt><trkpt lat="45.34050916526141" lon="8.653409091094804"><ele>119.0</ele><time>2026-04-18T09:36:35.001Z</time></trkpt><trkpt lat="45.34060190452877" lon="8.653423355302728"><ele>119.0</ele><time>2026-04-18T09:36:36.001Z</time></trkpt><trkpt lat="45.340693474074605" lon="8.653440701087478"><ele>119.0</ele><time>2026-04-18T09:36:37.001Z</time></trkpt><trkpt lat="45.34078664093069" lon="8.653459238917018"><ele>119.0</ele><time>2026-04-18T09:36:38.001Z</time></trkpt><trkpt lat="45.34088168745928" lon="8.653478892977565"><ele>119.0</ele><time>2026-04-18T09:36:39.001Z</time></trkpt><trkpt lat="45.34097679208719" lon="8.65350012373546"><ele>119.0</ele><time>2026-04-18T09:36:40.001Z</time></trkpt><trkpt lat="45.34107317348751" lon="8.653520786905485"><ele>119.0</ele><time>2026-04-18T09:36:41.001Z</time></trkpt><trkpt lat="45.341169823215495" lon="8.65353844572674"><ele>119.0</ele><time>2026-04-18T09:36:42.001Z</time></trkpt><trkpt lat="45.34126676274656" lon="8.65355345269702"><ele>119.0</ele><time>2026-04-18T09:36:43.001Z</time></trkpt><trkpt lat="45.3413715874982" lon="8.65357379458542"><ele>119.0</ele><time>2026-04-18T09:36:44.001Z</time></trkpt><trkpt lat="45.34148189052678" lon="8.65359685146607"><ele>118.99999999999999</ele><time>2026-04-18T09:36:45.001Z</time></trkpt><trkpt lat="45.34158230170953" lon="8.65361836741376"><ele>119.0</ele><time>2026-04-18T09:36:46.001Z</time></trkpt><trkpt lat="45.34167273303444" lon="8.653636243660415"><ele>119.0</ele><time>2026-04-18T09:36:47.001Z</time></trkpt><trkpt lat="45.34175285264028" lon="8.653652346461971"><ele>119.0</ele><time>2026-04-18T09:36:48.001Z</time></trkpt><trkpt lat="45.341815378731475" lon="8.653665128715192"><ele>118.99999999999999</ele><time>2026-04-18T09:36:49.001Z</time></trkpt><trkpt lat="45.34189354046322" lon="8.653680453889546"><ele>119.0</ele><time>2026-04-18T09:36:51.001Z</time></trkpt><trkpt lat="45.341827153226845" lon="8.653635674373481"><ele>119.0</ele><time>2026-04-18T09:37:03.002Z</time></trkpt><trkpt lat="45.34166933678714" lon="8.653605950323536"><ele>119.0</ele><time>2026-04-18T09:37:26.002Z</time></trkpt><trkpt lat="45.341592156397056" lon="8.653569841188837"><ele>119.0</ele><time>2026-04-18T09:37:27.002Z</time></trkpt><trkpt lat="45.34150088541031" lon="8.65356010023007"><ele>119.0</ele><time>2026-04-18T09:37:28.003Z</time></trkpt><trkpt lat="45.34140291754501" lon="8.653539103725565"><ele>119.0</ele><time>2026-04-18T09:37:29.003Z</time></trkpt><trkpt lat="45.3412955722957" lon="8.653516429749859"><ele>119.0</ele><time>2026-04-18T09:37:30.003Z</time></trkpt><trkpt lat="45.34118093516463" lon="8.653494175107925"><ele>119.0</ele><time>2026-04-18T09:37:31.003Z</time></trkpt><trkpt lat="45.34105971582405" lon="8.65347205928281"><ele>119.0</ele><time>2026-04-18T09:37:32.003Z</time></trkpt><trkpt lat="45.34093447344964" lon="8.653425803926249"><ele>119.0</ele><time>2026-04-18T09:37:33.003Z</time></trkpt><trkpt lat="45.3408053274152" lon="8.653402836454585"><ele>119.0</ele><time>2026-04-18T09:37:34.003Z</time></trkpt><trkpt lat="45.34067278366882" lon="8.653379264744176"><ele>119.0</ele><time>2026-04-18T09:37:35.003Z</time></trkpt><trkpt lat="45.34053890022786" lon="8.653355454775712"><ele>119.0</ele><time>2026-04-18T09:37:36.003Z</time></trkpt><trkpt lat="45.34040090328003" lon="8.653330913241708"><ele>119.0</ele><time>2026-04-18T09:37:37.003Z</time></trkpt><trkpt lat="45.34026214478162" lon="8.653306236304582"><ele>119.0</ele><time>2026-04-18T09:37:38.003Z</time></trkpt><trkpt lat="45.34012161804293" lon="8.653281244872279"><ele>119.0</ele><time>2026-04-18T09:37:39.003Z</time></trkpt><trkpt lat="45.339979438828195" lon="8.65325595958039"><ele>119.0</ele><time>2026-04-18T09:37:40.003Z</time></trkpt><trkpt lat="45.339836077956164" lon="8.653230063583907"><ele>119.0</ele><time>2026-04-18T09:37:41.003Z</time></trkpt><trkpt lat="45.33969029017478" lon="8.653203484191662"><ele>118.75</ele><time>2026-04-18T09:37:42.003Z</time></trkpt><trkpt lat="45.339545927320245" lon="8.653177164599166"><ele>118.5</ele><time>2026-04-18T09:37:43.003Z</time></trkpt><trkpt lat="45.33940289037193" lon="8.653151086737196"><ele>118.25</ele><time>2026-04-18T09:37:44.003Z</time></trkpt><trkpt lat="45.33926099020848" lon="8.653125644661852"><ele>118.0</ele><time>2026-04-18T09:37:45.003Z</time></trkpt><trkpt lat="45.33911919777051" lon="8.653100413675014"><ele>118.0</ele><time>2026-04-18T09:37:46.003Z</time></trkpt><trkpt lat="45.338977782863076" lon="8.653075249856377"><ele>118.0</ele><time>2026-04-18T09:37:47.003Z</time></trkpt><trkpt lat="45.33883723647247" lon="8.653050240606783"><ele>118.0</ele><time>2026-04-18T09:37:48.003Z</time></trkpt><trkpt lat="45.338697037336445" lon="8.653025293154236"><ele>118.0</ele><time>2026-04-18T09:37:49.003Z</time></trkpt><trkpt lat="45.338555888732714" lon="8.653000176736303"><ele>118.0</ele><time>2026-04-18T09:37:50.003Z</time></trkpt><trkpt lat="45.33841325921809" lon="8.652974796781354"><ele>118.0</ele><time>2026-04-18T09:37:51.003Z</time></trkpt><trkpt lat="45.33826921512178" lon="8.65294947383478"><ele>118.0</ele><time>2026-04-18T09:37:52.003Z</time></trkpt><trkpt lat="45.33812360026734" lon="8.652924035626448"><ele>118.0</ele><time>2026-04-18T09:37:53.003Z</time></trkpt><trkpt lat="45.337979932717204" lon="8.652898939365041"><ele>117.75</ele><time>2026-04-18T09:37:53.999Z</time></trkpt><trkpt lat="45.337836558297745" lon="8.652874153389407"><ele>117.5</ele><time>2026-04-18T09:37:54.999Z</time></trkpt><trkpt lat="45.33769126798518" lon="8.652871485513833"><ele>117.25</ele><time>2026-04-18T09:37:55.999Z</time></trkpt><trkpt lat="45.33755135521893" lon="8.652842314385692"><ele>117.0</ele><time>2026-04-18T09:37:56.999Z</time></trkpt><trkpt lat="45.33741747812517" lon="8.65282527365894"><ele>117.0</ele><time>2026-04-18T09:37:57.999Z</time></trkpt><trkpt lat="45.337279629315766" lon="8.65280052149595"><ele>117.0</ele><time>2026-04-18T09:37:58.999Z</time></trkpt><trkpt lat="45.337139757274656" lon="8.652773584250582"><ele>117.0</ele><time>2026-04-18T09:37:59.999Z</time></trkpt><trkpt lat="45.33699918381787" lon="8.652748249517913"><ele>117.0</ele><time>2026-04-18T09:38:00.999Z</time></trkpt><trkpt lat="45.3368592995057" lon="8.652722881854386"><ele>117.25</ele><time>2026-04-18T09:38:02Z</time></trkpt><trkpt lat="45.33671894112626" lon="8.652698082684763"><ele>117.5</ele><time>2026-04-18T09:38:03Z</time></trkpt><trkpt lat="45.336577829980264" lon="8.652672877589296"><ele>117.75</ele><time>2026-04-18T09:38:04Z</time></trkpt><trkpt lat="45.336435787308865" lon="8.652647815051653"><ele>118.0</ele><time>2026-04-18T09:38:05Z</time></trkpt><trkpt lat="45.33629508705567" lon="8.652598343726089"><ele>118.0</ele><time>2026-04-18T09:38:06Z</time></trkpt><trkpt lat="45.33615210297827" lon="8.652570274776977"><ele>118.0</ele><time>2026-04-18T09:38:07Z</time></trkpt><trkpt lat="45.33600919119947" lon="8.65254253777814"><ele>118.0</ele><time>2026-04-18T09:38:08Z</time></trkpt><trkpt lat="45.33586723537639" lon="8.65251683887766"><ele>118.0</ele><time>2026-04-18T09:38:09Z</time></trkpt><trkpt lat="45.33572431616313" lon="8.652491484526925"><ele>118.0</ele><time>2026-04-18T09:38:10Z</time></trkpt><trkpt lat="45.33558339685024" lon="8.652469105838897"><ele>118.0</ele><time>2026-04-18T09:38:11Z</time></trkpt><trkpt lat="45.33544498156045" lon="8.652446769934043"><ele>118.0</ele><time>2026-04-18T09:38:12Z</time></trkpt><trkpt lat="45.33531007744069" lon="8.652442786506503"><ele>118.0</ele><time>2026-04-18T09:38:13Z</time></trkpt><trkpt lat="45.335186454478496" lon="8.652377175338433"><ele>118.0</ele><time>2026-04-18T09:38:14Z</time></trkpt><trkpt lat="45.33506620655657" lon="8.65230939219698"><ele>118.0</ele><time>2026-04-18T09:38:15Z</time></trkpt><trkpt lat="45.33495191593533" lon="8.65222016688011"><ele>118.0</ele><time>2026-04-18T09:38:16Z</time></trkpt><trkpt lat="45.33484593766318" lon="8.652112720903885"><ele>118.0</ele><time>2026-04-18T09:38:17Z</time></trkpt><trkpt lat="45.334747015033145" lon="8.651989771117908"><ele>119.5</ele><time>2026-04-18T09:38:18Z</time></trkpt><trkpt lat="45.334658966025586" lon="8.651850335952018"><ele>121.0</ele><time>2026-04-18T09:38:19Z</time></trkpt><trkpt lat="45.33456531138176" lon="8.651712944677813"><ele>122.5</ele><time>2026-04-18T09:38:20Z</time></trkpt><trkpt lat="45.3344962720205" lon="8.651550085979528"><ele>124.0</ele><time>2026-04-18T09:38:21Z</time></trkpt><trkpt lat="45.33443953303658" lon="8.651377773030285"><ele>124.0</ele><time>2026-04-18T09:38:22Z</time></trkpt><trkpt lat="45.33440065866072" lon="8.651196720416692"><ele>124.0</ele><time>2026-04-18T09:38:23Z</time></trkpt><trkpt lat="45.3343824369931" lon="8.651013107554842"><ele>124.0</ele><time>2026-04-18T09:38:24Z</time></trkpt><trkpt lat="45.33437082426625" lon="8.650825511237102"><ele>124.0</ele><time>2026-04-18T09:38:25Z</time></trkpt><trkpt lat="45.3343675694026" lon="8.6506290799381"><ele>124.25</ele><time>2026-04-18T09:38:26Z</time></trkpt><trkpt lat="45.33436758106303" lon="8.650421657351206"><ele>124.5</ele><time>2026-04-18T09:38:27Z</time></trkpt><trkpt lat="45.33436824238401" lon="8.650211029089675"><ele>124.75</ele><time>2026-04-18T09:38:28.001Z</time></trkpt><trkpt lat="45.334365126431145" lon="8.650001730250949"><ele>125.0</ele><time>2026-04-18T09:38:29.001Z</time></trkpt><trkpt lat="45.33436437648624" lon="8.64978918140079"><ele>125.33333333333333</ele><time>2026-04-18T09:38:30.001Z</time></trkpt><trkpt lat="45.3343622967931" lon="8.64956969171644"><ele>125.66666666666666</ele><time>2026-04-18T09:38:31.001Z</time></trkpt><trkpt lat="45.3343602924074" lon="8.649344328094786"><ele>126.0</ele><time>2026-04-18T09:38:32.001Z</time></trkpt><trkpt lat="45.33435834369168" lon="8.649117857457286"><ele>126.0</ele><time>2026-04-18T09:38:33.001Z</time></trkpt><trkpt lat="45.334355931013675" lon="8.648883447305742"><ele>126.0</ele><time>2026-04-18T09:38:34.001Z</time></trkpt><trkpt lat="45.3343534644774" lon="8.648651281715143"><ele>126.0</ele><time>2026-04-18T09:38:35.001Z</time></trkpt><trkpt lat="45.334349430049784" lon="8.64841125907586"><ele>126.0</ele><time>2026-04-18T09:38:36.001Z</time></trkpt><trkpt lat="45.334348230543256" lon="8.648173766521618"><ele>126.0</ele><time>2026-04-18T09:38:37.001Z</time></trkpt><trkpt lat="45.334344785674524" lon="8.647932232192957"><ele>126.0</ele><time>2026-04-18T09:38:38.001Z</time></trkpt><trkpt lat="45.33434618321433" lon="8.647696242554751"><ele>126.0</ele><time>2026-04-18T09:38:39.001Z</time></trkpt><trkpt lat="45.334345391224375" lon="8.647458234232875"><ele>126.0</ele><time>2026-04-18T09:38:40.001Z</time></trkpt><trkpt lat="45.3343409423314" lon="8.647215502433719"><ele>126.0</ele><time>2026-04-18T09:38:41.001Z</time></trkpt><trkpt lat="45.334333419183565" lon="8.646970439401452"><ele>126.0</ele><time>2026-04-18T09:38:42.001Z</time></trkpt><trkpt lat="45.33432727309644" lon="8.646733314826303"><ele>126.0</ele><time>2026-04-18T09:38:43.001Z</time></trkpt><trkpt lat="45.334324113418326" lon="8.646515763557417"><ele>126.0</ele><time>2026-04-18T09:38:44.001Z</time></trkpt><trkpt lat="45.33432543208838" lon="8.646314492760558"><ele>125.75</ele><time>2026-04-18T09:38:45.001Z</time></trkpt><trkpt lat="45.33433572573449" lon="8.646122790597072"><ele>125.5</ele><time>2026-04-18T09:38:46.001Z</time></trkpt><trkpt lat="45.334371982185495" lon="8.645946496613579"><ele>125.25</ele><time>2026-04-18T09:38:47.001Z</time></trkpt><trkpt lat="45.334405300848076" lon="8.645772399804196"><ele>125.0</ele><time>2026-04-18T09:38:48.001Z</time></trkpt><trkpt lat="45.33443456460001" lon="8.645585175845515"><ele>125.0</ele><time>2026-04-18T09:38:49.001Z</time></trkpt><trkpt lat="45.33450838835524" lon="8.64541183854433"><ele>125.0</ele><time>2026-04-18T09:38:50.001Z</time></trkpt><trkpt lat="45.334561637159226" lon="8.64522323346401"><ele>125.0</ele><time>2026-04-18T09:38:51.001Z</time></trkpt><trkpt lat="45.33463437914748" lon="8.64504440989872"><ele>125.0</ele><time>2026-04-18T09:38:52.001Z</time></trkpt><trkpt lat="45.33470351306066" lon="8.64486203723585"><ele>123.0</ele><time>2026-04-18T09:38:53.001Z</time></trkpt><trkpt lat="45.33476798646332" lon="8.644671389528128"><ele>121.0</ele><time>2026-04-18T09:38:54.001Z</time></trkpt><trkpt lat="45.33483419392243" lon="8.644474322390653"><ele>119.0</ele><time>2026-04-18T09:38:55.001Z</time></trkpt><trkpt lat="45.334902405602655" lon="8.644280485892086"><ele>118.75</ele><time>2026-04-18T09:38:56.001Z</time></trkpt><trkpt lat="45.3349742668575" lon="8.644084116477293"><ele>118.5</ele><time>2026-04-18T09:38:57.001Z</time></trkpt><trkpt lat="45.33504040195864" lon="8.643899737073745"><ele>118.25</ele><time>2026-04-18T09:38:58.002Z</time></trkpt><trkpt lat="45.33510419884819" lon="8.643728146042758"><ele>118.0</ele><time>2026-04-18T09:38:59.002Z</time></trkpt><trkpt lat="45.33516511299032" lon="8.643565066959026"><ele>117.75</ele><time>2026-04-18T09:39:00.002Z</time></trkpt><trkpt lat="45.33522728562409" lon="8.643404389931565"><ele>117.5</ele><time>2026-04-18T09:39:01.002Z</time></trkpt><trkpt lat="45.33529866796831" lon="8.64323419670786"><ele>117.25</ele><time>2026-04-18T09:39:02.002Z</time></trkpt><trkpt lat="45.335382621047955" lon="8.643064661836076"><ele>117.0</ele><time>2026-04-18T09:39:03.002Z</time></trkpt><trkpt lat="45.33546748360598" lon="8.64289706420921"><ele>117.0</ele><time>2026-04-18T09:39:04.002Z</time></trkpt><trkpt lat="45.33554883428383" lon="8.642713959152127"><ele>117.0</ele><time>2026-04-18T09:39:05.002Z</time></trkpt><trkpt lat="45.33562601758575" lon="8.642517907840467"><ele>117.0</ele><time>2026-04-18T09:39:06.002Z</time></trkpt><trkpt lat="45.33569974776206" lon="8.642311740934906"><ele>117.66666666666666</ele><time>2026-04-18T09:39:07.002Z</time></trkpt><trkpt lat="45.33576925669969" lon="8.642100886459678"><ele>118.33333333333333</ele><time>2026-04-18T09:39:08.002Z</time></trkpt><trkpt lat="45.335839613211974" lon="8.641882699112866"><ele>119.0</ele><time>2026-04-18T09:39:09.002Z</time></trkpt><trkpt lat="45.33591344961915" lon="8.641661914387585"><ele>119.0</ele><time>2026-04-18T09:39:10.002Z</time></trkpt><trkpt lat="45.33599064682141" lon="8.641438735560122"><ele>119.0</ele><time>2026-04-18T09:39:11.002Z</time></trkpt><trkpt lat="45.336068165279805" lon="8.641223894651722"><ele>119.0</ele><time>2026-04-18T09:39:12.002Z</time></trkpt><trkpt lat="45.336138865628556" lon="8.641024268099395"><ele>118.75</ele><time>2026-04-18T09:39:13.002Z</time></trkpt><trkpt lat="45.33619909033345" lon="8.64083383490007"><ele>118.5</ele><time>2026-04-18T09:39:14.002Z</time></trkpt><trkpt lat="45.336255556394256" lon="8.64065633442169"><ele>118.25</ele><time>2026-04-18T09:39:15.002Z</time></trkpt><trkpt lat="45.33631210261677" lon="8.640491772903864"><ele>118.0</ele><time>2026-04-18T09:39:16.002Z</time></trkpt><trkpt lat="45.33637007578362" lon="8.640323529535662"><ele>118.25</ele><time>2026-04-18T09:39:17.002Z</time></trkpt><trkpt lat="45.33643361830295" lon="8.640144967736672"><ele>118.5</ele><time>2026-04-18T09:39:18.002Z</time></trkpt><trkpt lat="45.33649863860391" lon="8.639962811622265"><ele>118.75</ele><time>2026-04-18T09:39:19.002Z</time></trkpt><trkpt lat="45.336562093873646" lon="8.639774419738846"><ele>119.0</ele><time>2026-04-18T09:39:20.002Z</time></trkpt><trkpt lat="45.33662752865572" lon="8.639581493615431"><ele>119.0</ele><time>2026-04-18T09:39:21.002Z</time></trkpt><trkpt lat="45.336695140265036" lon="8.639382617839981"><ele>119.0</ele><time>2026-04-18T09:39:22.002Z</time></trkpt><trkpt lat="45.33676513178169" lon="8.639184033754917"><ele>119.0</ele><time>2026-04-18T09:39:23.002Z</time></trkpt><trkpt lat="45.33683148775677" lon="8.638985066609761"><ele>119.0</ele><time>2026-04-18T09:39:24.002Z</time></trkpt><trkpt lat="45.336894448125584" lon="8.638804308102397"><ele>119.0</ele><time>2026-04-18T09:39:25.002Z</time></trkpt><trkpt lat="45.33694987244451" lon="8.638634137868813"><ele>119.0</ele><time>2026-04-18T09:39:26.002Z</time></trkpt><trkpt lat="45.33700639007259" lon="8.638477339902337"><ele>119.0</ele><time>2026-04-18T09:39:27.002Z</time></trkpt><trkpt lat="45.337061274719254" lon="8.63832709366391"><ele>118.80000000000001</ele><time>2026-04-18T09:39:28.002Z</time></trkpt><trkpt lat="45.33710992177377" lon="8.638199091978327"><ele>118.60000000000001</ele><time>2026-04-18T09:39:29.002Z</time></trkpt><trkpt lat="45.337146886231196" lon="8.63807216146891"><ele>118.4</ele><time>2026-04-18T09:39:30.002Z</time></trkpt><trkpt lat="45.33715439140323" lon="8.637938745991901"><ele>118.2</ele><time>2026-04-18T09:39:31.003Z</time></trkpt><trkpt lat="45.33712645247333" lon="8.63780476076702"><ele>118.0</ele><time>2026-04-18T09:39:32.003Z</time></trkpt><trkpt lat="45.33705340683855" lon="8.637680276495633"><ele>118.0</ele><time>2026-04-18T09:39:33.003Z</time></trkpt><trkpt lat="45.33699336595352" lon="8.63754869777579"><ele>118.0</ele><time>2026-04-18T09:39:34.003Z</time></trkpt><trkpt lat="45.33692700842006" lon="8.637403477824439"><ele>118.0</ele><time>2026-04-18T09:39:35.003Z</time></trkpt><trkpt lat="45.33686343869106" lon="8.63724212742035"><ele>118.0</ele><time>2026-04-18T09:39:36.003Z</time></trkpt><trkpt lat="45.33679813795746" lon="8.63707508730015"><ele>118.0</ele><time>2026-04-18T09:39:37.003Z</time></trkpt><trkpt lat="45.33672810102056" lon="8.63690608416594"><ele>118.0</ele><time>2026-04-18T09:39:38.003Z</time></trkpt><trkpt lat="45.33665492122713" lon="8.636737107845784"><ele>118.0</ele><time>2026-04-18T09:39:39.003Z</time></trkpt><trkpt lat="45.3365813575377" lon="8.636565964045033"><ele>118.0</ele><time>2026-04-18T09:39:40.003Z</time></trkpt><trkpt lat="45.336510511972506" lon="8.636395111497167"><ele>118.0</ele><time>2026-04-18T09:39:41.003Z</time></trkpt><trkpt lat="45.336438416256385" lon="8.636226999031987"><ele>118.0</ele><time>2026-04-18T09:39:42.003Z</time></trkpt><trkpt lat="45.33636287523796" lon="8.636059848717531"><ele>118.0</ele><time>2026-04-18T09:39:43.003Z</time></trkpt><trkpt lat="45.33629116566591" lon="8.635898695403533"><ele>118.0</ele><time>2026-04-18T09:39:44.003Z</time></trkpt><trkpt lat="45.33621789679232" lon="8.63572960071933"><ele>118.25</ele><time>2026-04-18T09:39:45.003Z</time></trkpt><trkpt lat="45.336143998216414" lon="8.63555160926649"><ele>118.5</ele><time>2026-04-18T09:39:46.003Z</time></trkpt><trkpt lat="45.33606811767013" lon="8.635371773288322"><ele>118.75</ele><time>2026-04-18T09:39:47.003Z</time></trkpt><trkpt lat="45.33599010639618" lon="8.635189130251629"><ele>119.0</ele><time>2026-04-18T09:39:48.003Z</time></trkpt><trkpt lat="45.335916065555836" lon="8.635010845331815"><ele>119.0</ele><time>2026-04-18T09:39:49.003Z</time></trkpt><trkpt lat="45.33584409707918" lon="8.634838923571248"><ele>119.0</ele><time>2026-04-18T09:39:50.003Z</time></trkpt><trkpt lat="45.33577665799874" lon="8.634678184511332"><ele>119.0</ele><time>2026-04-18T09:39:51.003Z</time></trkpt><trkpt lat="45.33570957055231" lon="8.634531966617132"><ele>119.0</ele><time>2026-04-18T09:39:52.003Z</time></trkpt><trkpt lat="45.33563685375968" lon="8.634401142373612"><ele>119.25</ele><time>2026-04-18T09:39:53.003Z</time></trkpt><trkpt lat="45.33555074631243" lon="8.634298475323922"><ele>119.5</ele><time>2026-04-18T09:39:54.003Z</time></trkpt><trkpt lat="45.33544497535199" lon="8.63422994452712"><ele>119.75</ele><time>2026-04-18T09:39:55.003Z</time></trkpt><trkpt lat="45.33533510585068" lon="8.63417461293677"><ele>120.0</ele><time>2026-04-18T09:39:56.003Z</time></trkpt><trkpt lat="45.33521359640939" lon="8.634120737446928"><ele>120.0</ele><time>2026-04-18T09:39:57.003Z</time></trkpt><trkpt lat="45.33508221207847" lon="8.634062778268225"><ele>120.0</ele><time>2026-04-18T09:39:58.003Z</time></trkpt><trkpt lat="45.334948113402085" lon="8.633998420242998"><ele>120.0</ele><time>2026-04-18T09:39:59.003Z</time></trkpt><trkpt lat="45.3348070171207" lon="8.633924028185222"><ele>120.0</ele><time>2026-04-18T09:40:00Z</time></trkpt><trkpt lat="45.33466073482023" lon="8.63384437584913"><ele>119.66666666666666</ele><time>2026-04-18T09:40:01Z</time></trkpt><trkpt lat="45.334510509067044" lon="8.633766153396797"><ele>119.33333333333333</ele><time>2026-04-18T09:40:02Z</time></trkpt><trkpt lat="45.334353959043135" lon="8.633690013801754"><ele>119.0</ele><time>2026-04-18T09:40:03Z</time></trkpt><trkpt lat="45.334195260123344" lon="8.633615781412892"><ele>119.0</ele><time>2026-04-18T09:40:04Z</time></trkpt><trkpt lat="45.33404741482961" lon="8.633540193674127"><ele>119.0</ele><time>2026-04-18T09:40:05Z</time></trkpt><trkpt lat="45.333897464221444" lon="8.633466404501197"><ele>119.0</ele><time>2026-04-18T09:40:06Z</time></trkpt><trkpt lat="45.33375343682287" lon="8.633397414321761"><ele>118.75</ele><time>2026-04-18T09:40:07Z</time></trkpt><trkpt lat="45.33361521161209" lon="8.633328327745357"><ele>118.5</ele><time>2026-04-18T09:40:08Z</time></trkpt><trkpt lat="45.333477547046826" lon="8.63325798333989"><ele>118.25</ele><time>2026-04-18T09:40:09Z</time></trkpt><trkpt lat="45.33333851753838" lon="8.633179650116443"><ele>118.0</ele><time>2026-04-18T09:40:10Z</time></trkpt><trkpt lat="45.33319787430344" lon="8.633087316607838"><ele>118.0</ele><time>2026-04-18T09:40:11Z</time></trkpt><trkpt lat="45.33306057897976" lon="8.632980585637618"><ele>118.0</ele><time>2026-04-18T09:40:12Z</time></trkpt><trkpt lat="45.332924316820225" lon="8.632860628630755"><ele>118.0</ele><time>2026-04-18T09:40:13Z</time></trkpt><trkpt lat="45.332787451068484" lon="8.632738832212704"><ele>118.0</ele><time>2026-04-18T09:40:14Z</time></trkpt><trkpt lat="45.332651090868595" lon="8.632622308906603"><ele>118.0</ele><time>2026-04-18T09:40:15Z</time></trkpt><trkpt lat="45.33250603475768" lon="8.632506758235005"><ele>118.0</ele><time>2026-04-18T09:40:16Z</time></trkpt><trkpt lat="45.332364248829904" lon="8.632394477654833"><ele>117.66666666666667</ele><time>2026-04-18T09:40:17Z</time></trkpt><trkpt lat="45.33222211866628" lon="8.632280038393503"><ele>117.33333333333334</ele><time>2026-04-18T09:40:18Z</time></trkpt><trkpt lat="45.332080493394834" lon="8.632166259144949"><ele>117.0</ele><time>2026-04-18T09:40:19Z</time></trkpt><trkpt lat="45.33194856492196" lon="8.632056637451187"><ele>117.75</ele><time>2026-04-18T09:40:20Z</time></trkpt><trkpt lat="45.331825262363054" lon="8.631957520360798"><ele>118.5</ele><time>2026-04-18T09:40:21Z</time></trkpt><trkpt lat="45.33170800672294" lon="8.631861214404104"><ele>119.25</ele><time>2026-04-18T09:40:22Z</time></trkpt><trkpt lat="45.33160058152787" lon="8.631768840890624"><ele>120.0</ele><time>2026-04-18T09:40:23Z</time></trkpt><trkpt lat="45.331498197022185" lon="8.63167850092221"><ele>120.0</ele><time>2026-04-18T09:40:24Z</time></trkpt><trkpt lat="45.33140752487391" lon="8.63159055056277"><ele>120.0</ele><time>2026-04-18T09:40:25Z</time></trkpt><trkpt lat="45.33133092606855" lon="8.631492360827158"><ele>120.0</ele><time>2026-04-18T09:40:26Z</time></trkpt><trkpt lat="45.331210069256066" lon="8.631468582184075"><ele>120.0</ele><time>2026-04-18T09:40:27Z</time></trkpt><trkpt lat="45.331102813995315" lon="8.631435043386004"><ele>120.0</ele><time>2026-04-18T09:40:28Z</time></trkpt><trkpt lat="45.330996097703505" lon="8.631432571761637"><ele>119.75</ele><time>2026-04-18T09:40:29Z</time></trkpt><trkpt lat="45.33087281222981" lon="8.63142818559293"><ele>119.5</ele><time>2026-04-18T09:40:30Z</time></trkpt><trkpt lat="45.33075293801618" lon="8.631431091120191"><ele>119.25</ele><time>2026-04-18T09:40:31Z</time></trkpt><trkpt lat="45.33062993281813" lon="8.631452096405852"><ele>119.0</ele><time>2026-04-18T09:40:32.001Z</time></trkpt><trkpt lat="45.33050640834445" lon="8.631489423251711"><ele>118.75</ele><time>2026-04-18T09:40:33.001Z</time></trkpt><trkpt lat="45.33037789409502" lon="8.631530866599471"><ele>118.5</ele><time>2026-04-18T09:40:34.001Z</time></trkpt><trkpt lat="45.33024975510008" lon="8.631573925370148"><ele>118.25</ele><time>2026-04-18T09:40:35.001Z</time></trkpt><trkpt lat="45.3301153077515" lon="8.631628594326342"><ele>118.0</ele><time>2026-04-18T09:40:36.001Z</time></trkpt><trkpt lat="45.329982577137386" lon="8.631688363796128"><ele>118.0</ele><time>2026-04-18T09:40:37.001Z</time></trkpt><trkpt lat="45.329843400250226" lon="8.631747900551646"><ele>118.0</ele><time>2026-04-18T09:40:38.001Z</time></trkpt><trkpt lat="45.32970352121121" lon="8.631807466936333"><ele>118.0</ele><time>2026-04-18T09:40:39.001Z</time></trkpt><trkpt lat="45.3295648911635" lon="8.631862966306766"><ele>118.0</ele><time>2026-04-18T09:40:40.001Z</time></trkpt><trkpt lat="45.32942101325149" lon="8.631925224923215"><ele>117.66666666666667</ele><time>2026-04-18T09:40:41.001Z</time></trkpt><trkpt lat="45.329273290659536" lon="8.63199207651926"><ele>117.33333333333334</ele><time>2026-04-18T09:40:42.001Z</time></trkpt><trkpt lat="45.32913023962684" lon="8.632044250704807"><ele>117.0</ele><time>2026-04-18T09:40:43.001Z</time></trkpt><trkpt lat="45.328986718707846" lon="8.632106165890587"><ele>117.0</ele><time>2026-04-18T09:40:44.001Z</time></trkpt><trkpt lat="45.32884354741616" lon="8.632167294760404"><ele>117.0</ele><time>2026-04-18T09:40:45.001Z</time></trkpt><trkpt lat="45.32869852776528" lon="8.632222657371711"><ele>117.0</ele><time>2026-04-18T09:40:46.001Z</time></trkpt><trkpt lat="45.32855355235905" lon="8.632277647885303"><ele>117.0</ele><time>2026-04-18T09:40:47.001Z</time></trkpt><trkpt lat="45.32840759154636" lon="8.63233752823916"><ele>117.0</ele><time>2026-04-18T09:40:48.001Z</time></trkpt><trkpt lat="45.32826184941609" lon="8.632392939038693"><ele>117.0</ele><time>2026-04-18T09:40:49.001Z</time></trkpt><trkpt lat="45.32811617438344" lon="8.632454025254694"><ele>117.0</ele><time>2026-04-18T09:40:50.001Z</time></trkpt><trkpt lat="45.32797133662195" lon="8.632511905575512"><ele>117.0</ele><time>2026-04-18T09:40:51.001Z</time></trkpt><trkpt lat="45.32782603227537" lon="8.632570949386682"><ele>117.0</ele><time>2026-04-18T09:40:52.001Z</time></trkpt><trkpt lat="45.32767737884843" lon="8.632618202959451"><ele>117.0</ele><time>2026-04-18T09:40:53.001Z</time></trkpt><trkpt lat="45.327529806766634" lon="8.632671706651124"><ele>117.0</ele><time>2026-04-18T09:40:54.001Z</time></trkpt><trkpt lat="45.327386273863915" lon="8.632728569222788"><ele>117.0</ele><time>2026-04-18T09:40:55.001Z</time></trkpt><trkpt lat="45.3272467020095" lon="8.632787085928923"><ele>117.0</ele><time>2026-04-18T09:40:56.001Z</time></trkpt><trkpt lat="45.32712345492523" lon="8.632843725418695"><ele>117.0</ele><time>2026-04-18T09:40:57.001Z</time></trkpt><trkpt lat="45.327012566404974" lon="8.63288615499239"><ele>117.0</ele><time>2026-04-18T09:40:58.001Z</time></trkpt><trkpt lat="45.32690188460113" lon="8.63293240780919"><ele>117.0</ele><time>2026-04-18T09:40:59.001Z</time></trkpt><trkpt lat="45.326779600174774" lon="8.63298806705872"><ele>117.0</ele><time>2026-04-18T09:41:00.001Z</time></trkpt><trkpt lat="45.32665892938103" lon="8.633031249750507"><ele>117.0</ele><time>2026-04-18T09:41:01.001Z</time></trkpt><trkpt lat="45.32654607522385" lon="8.633073281651622"><ele>116.99999999999999</ele><time>2026-04-18T09:41:02.001Z</time></trkpt><trkpt lat="45.32644955762532" lon="8.633118420148525"><ele>116.99999999999999</ele><time>2026-04-18T09:41:03.001Z</time></trkpt><trkpt lat="45.32636142935182" lon="8.633153378063085"><ele>117.0</ele><time>2026-04-18T09:41:04.002Z</time></trkpt><trkpt lat="45.32629144356183" lon="8.633180052145246"><ele>117.0</ele><time>2026-04-18T09:41:05.002Z</time></trkpt><trkpt lat="45.326227727532405" lon="8.633214048555253"><ele>117.19999999999999</ele><time>2026-04-18T09:41:06.002Z</time></trkpt><trkpt lat="45.32612729602636" lon="8.633249138952241"><ele>117.39999999999999</ele><time>2026-04-18T09:41:08.002Z</time></trkpt><trkpt lat="45.326030739232586" lon="8.633269755767602"><ele>117.60000000000001</ele><time>2026-04-18T09:41:10.002Z</time></trkpt><trkpt lat="45.32595687012077" lon="8.633287095914802"><ele>117.80000000000001</ele><time>2026-04-18T09:41:12.002Z</time></trkpt><trkpt lat="45.32591678197139" lon="8.633142524426185"><ele>118.0</ele><time>2026-04-18T09:41:13.002Z</time></trkpt><trkpt lat="45.32590595164242" lon="8.632971672306203"><ele>118.00000000000001</ele><time>2026-04-18T09:41:15.002Z</time></trkpt><trkpt lat="45.32591097485555" lon="8.632866075968439"><ele>118.0</ele><time>2026-04-18T09:41:16.002Z</time></trkpt><trkpt lat="45.325924131391304" lon="8.63274984907322"><ele>118.0</ele><time>2026-04-18T09:41:17.002Z</time></trkpt><trkpt lat="45.32594282974003" lon="8.632628299464525"><ele>118.0</ele><time>2026-04-18T09:41:18.002Z</time></trkpt><trkpt lat="45.32596301602134" lon="8.632511801201947"><ele>118.00000000000001</ele><time>2026-04-18T09:41:19.002Z</time></trkpt><trkpt lat="45.325975786110085" lon="8.632407137412695"><ele>118.0</ele><time>2026-04-18T09:41:20.002Z</time></trkpt><trkpt lat="45.32597467056198" lon="8.632251408202766"><ele>118.16666666666667</ele><time>2026-04-18T09:41:22.002Z</time></trkpt><trkpt lat="45.32590766581533" lon="8.63216828549927"><ele>118.33333333333334</ele><time>2026-04-18T09:41:24.002Z</time></trkpt><trkpt lat="45.325808505872914" lon="8.63214426404592"><ele>118.5</ele><time>2026-04-18T09:41:26.002Z</time></trkpt><trkpt lat="45.32573756672201" lon="8.632153280115947"><ele>118.66666666666666</ele><time>2026-04-18T09:41:27.002Z</time></trkpt><trkpt lat="45.32566556461187" lon="8.632165778375231"><ele>118.83333333333333</ele><time>2026-04-18T09:41:28.002Z</time></trkpt><trkpt lat="45.325582512509406" lon="8.63218042422371"><ele>119.0</ele><time>2026-04-18T09:41:29.002Z</time></trkpt><trkpt lat="45.32550066319035" lon="8.632189045193979"><ele>119.33333333333333</ele><time>2026-04-18T09:41:30.002Z</time></trkpt><trkpt lat="45.325420109276386" lon="8.6321837648882"><ele>119.66666666666666</ele><time>2026-04-18T09:41:31.002Z</time></trkpt><trkpt lat="45.32533534016617" lon="8.632172850540188"><ele>120.0</ele><time>2026-04-18T09:41:32.002Z</time></trkpt><trkpt lat="45.325246760705134" lon="8.632139990825618"><ele>120.33333333333334</ele><time>2026-04-18T09:41:33.002Z</time></trkpt><trkpt lat="45.325164669922735" lon="8.63209486245705"><ele>120.66666666666667</ele><time>2026-04-18T09:41:34.002Z</time></trkpt><trkpt lat="45.32507822113588" lon="8.632040687198897"><ele>121.0</ele><time>2026-04-18T09:41:35.002Z</time></trkpt><trkpt lat="45.32500838020776" lon="8.631995685581487"><ele>120.6</ele><time>2026-04-18T09:41:36.002Z</time></trkpt><trkpt lat="45.324942310351155" lon="8.631966429703555"><ele>120.19999999999999</ele><time>2026-04-18T09:41:37.003Z</time></trkpt><trkpt lat="45.3248344559283" lon="8.631952206242511"><ele>119.80000000000001</ele><time>2026-04-18T09:41:39.003Z</time></trkpt><trkpt lat="45.324718381732445" lon="8.631941859193294"><ele>119.4</ele><time>2026-04-18T09:41:41.003Z</time></trkpt><trkpt lat="45.324664658405425" lon="8.632002023194094"><ele>119.0</ele><time>2026-04-18T09:41:42.003Z</time></trkpt><trkpt lat="45.32454999699779" lon="8.632072640161617"><ele>119.0</ele><time>2026-04-18T09:41:44.003Z</time></trkpt><trkpt lat="45.32445347649632" lon="8.632119593906491"><ele>119.0</ele><time>2026-04-18T09:41:46.003Z</time></trkpt><trkpt lat="45.32436487999541" lon="8.632095415399816"><ele>119.0</ele><time>2026-04-18T09:41:48.003Z</time></trkpt><trkpt lat="45.324295270716135" lon="8.63199165669862"><ele>119.0</ele><time>2026-04-18T09:41:50.003Z</time></trkpt><trkpt lat="45.32428769699853" lon="8.631862434570778"><ele>119.0</ele><time>2026-04-18T09:41:52.003Z</time></trkpt><trkpt lat="45.32411725845374" lon="8.631963585132498"><ele>119.0</ele><time>2026-04-18T09:41:53.003Z</time></trkpt><trkpt lat="45.32403997422432" lon="8.631980162169777"><ele>119.0</ele><time>2026-04-18T09:41:54.003Z</time></trkpt><trkpt lat="45.323953849794975" lon="8.631982609752221"><ele>119.0</ele><time>2026-04-18T09:41:55.003Z</time></trkpt><trkpt lat="45.32385749158415" lon="8.631976555054568"><ele>119.0</ele><time>2026-04-18T09:41:56.003Z</time></trkpt><trkpt lat="45.32375083399793" lon="8.631969070479853"><ele>119.0</ele><time>2026-04-18T09:41:57.003Z</time></trkpt><trkpt lat="45.32364081984554" lon="8.631968389203244"><ele>118.5</ele><time>2026-04-18T09:41:58.003Z</time></trkpt><trkpt lat="45.3235218869409" lon="8.631966907778628"><ele>118.0</ele><time>2026-04-18T09:41:59.003Z</time></trkpt><trkpt lat="45.32340058339813" lon="8.631961237027351"><ele>117.5</ele><time>2026-04-18T09:42:00.003Z</time></trkpt><trkpt lat="45.32327539919253" lon="8.631957433377552"><ele>117.0</ele><time>2026-04-18T09:42:01.003Z</time></trkpt><trkpt lat="45.32315402996087" lon="8.63195177236911"><ele>117.25</ele><time>2026-04-18T09:42:02.003Z</time></trkpt><trkpt lat="45.323050558651964" lon="8.631959236578217"><ele>117.5</ele><time>2026-04-18T09:42:03.003Z</time></trkpt><trkpt lat="45.32294380409554" lon="8.631994062648793"><ele>117.75</ele><time>2026-04-18T09:42:04.003Z</time></trkpt><trkpt lat="45.3228287336877" lon="8.632040558391624"><ele>118.0</ele><time>2026-04-18T09:42:05.003Z</time></trkpt><trkpt lat="45.322708894600254" lon="8.632100638924044"><ele>118.0</ele><time>2026-04-18T09:42:05.999Z</time></trkpt><trkpt lat="45.32257848674831" lon="8.632165753760017"><ele>118.0</ele><time>2026-04-18T09:42:06.999Z</time></trkpt><trkpt lat="45.322443540839615" lon="8.632231988543264"><ele>118.0</ele><time>2026-04-18T09:42:07.999Z</time></trkpt><trkpt lat="45.322300644604766" lon="8.632300611438211"><ele>118.0</ele><time>2026-04-18T09:42:08.999Z</time></trkpt><trkpt lat="45.32216622732646" lon="8.632352536738022"><ele>117.66666666666667</ele><time>2026-04-18T09:42:09.999Z</time></trkpt><trkpt lat="45.32201409742982" lon="8.632411510446152"><ele>117.33333333333334</ele><time>2026-04-18T09:42:11Z</time></trkpt><trkpt lat="45.32185276422374" lon="8.632475544602714"><ele>117.0</ele><time>2026-04-18T09:42:12Z</time></trkpt><trkpt lat="45.32169329633418" lon="8.63254571307849"><ele>117.0</ele><time>2026-04-18T09:42:13Z</time></trkpt><trkpt lat="45.32151940257375" lon="8.632624053714704"><ele>117.0</ele><time>2026-04-18T09:42:14Z</time></trkpt><trkpt lat="45.32132288482737" lon="8.632719760836617"><ele>117.0</ele><time>2026-04-18T09:42:15Z</time></trkpt><trkpt lat="45.321145669842025" lon="8.632791740467777"><ele>117.33333333333334</ele><time>2026-04-18T09:42:16Z</time></trkpt><trkpt lat="45.32099079671057" lon="8.632853124470056"><ele>117.66666666666667</ele><time>2026-04-18T09:42:17Z</time></trkpt><trkpt lat="45.320840411689204" lon="8.63292642209045"><ele>118.0</ele><time>2026-04-18T09:42:18Z</time></trkpt><trkpt lat="45.320691593499696" lon="8.632988445998382"><ele>118.0</ele><time>2026-04-18T09:42:19Z</time></trkpt><trkpt lat="45.32053140673934" lon="8.633055767414033"><ele>118.0</ele><time>2026-04-18T09:42:20Z</time></trkpt><trkpt lat="45.32035557167949" lon="8.633132220403661"><ele>118.0</ele><time>2026-04-18T09:42:21Z</time></trkpt><trkpt lat="45.320181969645624" lon="8.63320847898818"><ele>118.0</ele><time>2026-04-18T09:42:22Z</time></trkpt><trkpt lat="45.32000375955065" lon="8.633271887106739"><ele>118.0</ele><time>2026-04-18T09:42:23Z</time></trkpt><trkpt lat="45.31981755397946" lon="8.633356207226509"><ele>118.0</ele><time>2026-04-18T09:42:24Z</time></trkpt><trkpt lat="45.319626657442036" lon="8.633440497123699"><ele>118.0</ele><time>2026-04-18T09:42:25Z</time></trkpt><trkpt lat="45.31944302625187" lon="8.633523304807717"><ele>118.0</ele><time>2026-04-18T09:42:26Z</time></trkpt><trkpt lat="45.31927981731439" lon="8.633597749202519"><ele>118.0</ele><time>2026-04-18T09:42:27Z</time></trkpt><trkpt lat="45.31913515304212" lon="8.633662453651889"><ele>118.0</ele><time>2026-04-18T09:42:28Z</time></trkpt><trkpt lat="45.3189961275928" lon="8.633718790778442"><ele>118.0</ele><time>2026-04-18T09:42:29Z</time></trkpt><trkpt lat="45.31885619775342" lon="8.633777959326995"><ele>118.0</ele><time>2026-04-18T09:42:30Z</time></trkpt><trkpt lat="45.318719847120086" lon="8.63383963373724"><ele>118.0</ele><time>2026-04-18T09:42:31Z</time></trkpt><trkpt lat="45.31858747378079" lon="8.633902686562978"><ele>117.80000000000001</ele><time>2026-04-18T09:42:32Z</time></trkpt><trkpt lat="45.318471099375515" lon="8.633952878704164"><ele>117.60000000000001</ele><time>2026-04-18T09:42:33Z</time></trkpt><trkpt lat="45.318359454677314" lon="8.63399896643292"><ele>117.39999999999999</ele><time>2026-04-18T09:42:34Z</time></trkpt><trkpt lat="45.31825844541076" lon="8.634044519480348"><ele>117.19999999999999</ele><time>2026-04-18T09:42:35Z</time></trkpt><trkpt lat="45.31815954216408" lon="8.634086205989098"><ele>117.0</ele><time>2026-04-18T09:42:36Z</time></trkpt><trkpt lat="45.31805316782637" lon="8.634120874913096"><ele>117.0</ele><time>2026-04-18T09:42:37Z</time></trkpt><trkpt lat="45.31794914865218" lon="8.63415137072922"><ele>117.0</ele><time>2026-04-18T09:42:38.001Z</time></trkpt><trkpt lat="45.3178583888916" lon="8.63417888231049"><ele>117.0</ele><time>2026-04-18T09:42:39.001Z</time></trkpt><trkpt lat="45.31777963331335" lon="8.634211041906788"><ele>117.0</ele><time>2026-04-18T09:42:40.001Z</time></trkpt><trkpt lat="45.31770871867969" lon="8.634244969110698"><ele>117.0</ele><time>2026-04-18T09:42:41.001Z</time></trkpt><trkpt lat="45.31763897172055" lon="8.634284026723552"><ele>117.0</ele><time>2026-04-18T09:42:42.001Z</time></trkpt><trkpt lat="45.31756166581674" lon="8.634324483326763"><ele>117.0</ele><time>2026-04-18T09:42:43.001Z</time></trkpt><trkpt lat="45.31747736337225" lon="8.634348234195732"><ele>116.99999999999999</ele><time>2026-04-18T09:42:44.001Z</time></trkpt><trkpt lat="45.31737854944581" lon="8.634356156395317"><ele>116.99999999999999</ele><time>2026-04-18T09:42:45.001Z</time></trkpt><trkpt lat="45.31727991433668" lon="8.634351625476306"><ele>117.0</ele><time>2026-04-18T09:42:46.001Z</time></trkpt><trkpt lat="45.31717679492824" lon="8.63434365173106"><ele>117.0</ele><time>2026-04-18T09:42:47.001Z</time></trkpt><trkpt lat="45.317075923116896" lon="8.634339359588576"><ele>116.8</ele><time>2026-04-18T09:42:48.001Z</time></trkpt><trkpt lat="45.31697678882988" lon="8.634337600246669"><ele>116.6</ele><time>2026-04-18T09:42:49.001Z</time></trkpt><trkpt lat="45.3168645641625" lon="8.63433017920688"><ele>116.39999999999999</ele><time>2026-04-18T09:42:50.001Z</time></trkpt><trkpt lat="45.31676099213814" lon="8.634318308788922"><ele>116.19999999999999</ele><time>2026-04-18T09:42:51.001Z</time></trkpt><trkpt lat="45.31666511870425" lon="8.634303607454491"><ele>116.0</ele><time>2026-04-18T09:42:52.001Z</time></trkpt><trkpt lat="45.316566945616366" lon="8.63428850694318"><ele>116.0</ele><time>2026-04-18T09:42:53.001Z</time></trkpt><trkpt lat="45.31645751545124" lon="8.634279532390499"><ele>116.0</ele><time>2026-04-18T09:42:54.001Z</time></trkpt><trkpt lat="45.31634651673842" lon="8.634275799799974"><ele>116.0</ele><time>2026-04-18T09:42:55.001Z</time></trkpt><trkpt lat="45.3162346410981" lon="8.63427132373711"><ele>116.0</ele><time>2026-04-18T09:42:56.001Z</time></trkpt><trkpt lat="45.31612081045196" lon="8.634264703435711"><ele>116.0</ele><time>2026-04-18T09:42:57.001Z</time></trkpt><trkpt lat="45.31600628091484" lon="8.634254674874523"><ele>116.0</ele><time>2026-04-18T09:42:58.001Z</time></trkpt><trkpt lat="45.315891549102766" lon="8.63423584295844"><ele>116.0</ele><time>2026-04-18T09:42:59.001Z</time></trkpt><trkpt lat="45.31577932978283" lon="8.634201029673182"><ele>116.0</ele><time>2026-04-18T09:43:00.001Z</time></trkpt><trkpt lat="45.3156641112526" lon="8.634169747170041"><ele>116.0</ele><time>2026-04-18T09:43:01.001Z</time></trkpt><trkpt lat="45.315566184815616" lon="8.634155712286264"><ele>116.0</ele><time>2026-04-18T09:43:02.001Z</time></trkpt><trkpt lat="45.31546061267618" lon="8.634145519626713"><ele>116.0</ele><time>2026-04-18T09:43:03.001Z</time></trkpt><trkpt lat="45.31534749407739" lon="8.634157734734654"><ele>116.0</ele><time>2026-04-18T09:43:04.001Z</time></trkpt><trkpt lat="45.3152322118621" lon="8.634173455902518"><ele>116.0</ele><time>2026-04-18T09:43:05.001Z</time></trkpt><trkpt lat="45.315115609412516" lon="8.634183562764283"><ele>116.0</ele><time>2026-04-18T09:43:06.001Z</time></trkpt><trkpt lat="45.314998265521055" lon="8.63419627678809"><ele>116.0</ele><time>2026-04-18T09:43:07.001Z</time></trkpt><trkpt lat="45.31488128644541" lon="8.634211555140011"><ele>116.0</ele><time>2026-04-18T09:43:08.002Z</time></trkpt><trkpt lat="45.31476192329371" lon="8.634231120411176"><ele>116.0</ele><time>2026-04-18T09:43:09.002Z</time></trkpt><trkpt lat="45.31464976382039" lon="8.634254606927115"><ele>116.0</ele><time>2026-04-18T09:43:10.002Z</time></trkpt><trkpt lat="45.31453937740579" lon="8.634283272008865"><ele>116.4</ele><time>2026-04-18T09:43:11.002Z</time></trkpt><trkpt lat="45.31442367182218" lon="8.63430814860564"><ele>116.8</ele><time>2026-04-18T09:43:12.002Z</time></trkpt><trkpt lat="45.3143245287165" lon="8.634313000682154"><ele>117.20000000000002</ele><time>2026-04-18T09:43:13.002Z</time></trkpt><trkpt lat="45.31423901676634" lon="8.634302029915796"><ele>117.60000000000001</ele><time>2026-04-18T09:43:14.002Z</time></trkpt><trkpt lat="45.314162645453514" lon="8.634296238102408"><ele>118.0</ele><time>2026-04-18T09:43:15.002Z</time></trkpt><trkpt lat="45.31409241428819" lon="8.634281390349491"><ele>118.00000000000001</ele><time>2026-04-18T09:43:16.002Z</time></trkpt><trkpt lat="45.31401620235642" lon="8.6342660628517"><ele>118.0</ele><time>2026-04-18T09:43:17.002Z</time></trkpt><trkpt lat="45.31393712108441" lon="8.634248056347387"><ele>118.0</ele><time>2026-04-18T09:43:18.002Z</time></trkpt><trkpt lat="45.31385368188775" lon="8.63421760958073"><ele>118.0</ele><time>2026-04-18T09:43:19.002Z</time></trkpt><trkpt lat="45.31378967266368" lon="8.634152850835132"><ele>118.00000000000001</ele><time>2026-04-18T09:43:20.002Z</time></trkpt><trkpt lat="45.313746997993725" lon="8.63407428573479"><ele>118.0</ele><time>2026-04-18T09:43:21.002Z</time></trkpt><trkpt lat="45.31370827665524" lon="8.633973485449781"><ele>117.80000000000001</ele><time>2026-04-18T09:43:22.002Z</time></trkpt><trkpt lat="45.31368394025712" lon="8.633858000682139"><ele>117.60000000000001</ele><time>2026-04-18T09:43:23.002Z</time></trkpt><trkpt lat="45.31367774956503" lon="8.633723908464919"><ele>117.39999999999999</ele><time>2026-04-18T09:43:24.002Z</time></trkpt><trkpt lat="45.31368401436157" lon="8.63358047740497"><ele>117.19999999999999</ele><time>2026-04-18T09:43:25.002Z</time></trkpt><trkpt lat="45.31369907619572" lon="8.633422529912524"><ele>117.0</ele><time>2026-04-18T09:43:26.002Z</time></trkpt><trkpt lat="45.313717341135145" lon="8.633266902451382"><ele>117.0</ele><time>2026-04-18T09:43:27.002Z</time></trkpt><trkpt lat="45.31373285186141" lon="8.633094962459271"><ele>116.99999999999999</ele><time>2026-04-18T09:43:28.002Z</time></trkpt><trkpt lat="45.31375395714078" lon="8.632936046915912"><ele>116.99999999999999</ele><time>2026-04-18T09:43:29.002Z</time></trkpt><trkpt lat="45.313751483377615" lon="8.632795061128983"><ele>117.0</ele><time>2026-04-18T09:43:30.002Z</time></trkpt><trkpt lat="45.31373773382454" lon="8.632652298557854"><ele>117.0</ele><time>2026-04-18T09:43:31.002Z</time></trkpt><trkpt lat="45.31372758529406" lon="8.632513233811519"><ele>116.83333333333333</ele><time>2026-04-18T09:43:32.002Z</time></trkpt><trkpt lat="45.31371276320159" lon="8.632380988625016"><ele>116.66666666666666</ele><time>2026-04-18T09:43:33.002Z</time></trkpt><trkpt lat="45.31370146688092" lon="8.63228471349297"><ele>116.5</ele><time>2026-04-18T09:43:34.002Z</time></trkpt><trkpt lat="45.3136640663425" lon="8.632154471836412"><ele>116.33333333333333</ele><time>2026-04-18T09:43:36.002Z</time></trkpt><trkpt lat="45.313578744022685" lon="8.632078896128885"><ele>116.16666666666666</ele><time>2026-04-18T09:43:38.002Z</time></trkpt><trkpt lat="45.31350225986524" lon="8.63210148053207"><ele>116.0</ele><time>2026-04-18T09:43:39.002Z</time></trkpt><trkpt lat="45.31342169634694" lon="8.632104284504399"><ele>116.0</ele><time>2026-04-18T09:43:40.002Z</time></trkpt><trkpt lat="45.31333294588421" lon="8.632103289592001"><ele>116.0</ele><time>2026-04-18T09:43:41.003Z</time></trkpt><trkpt lat="45.31322666767713" lon="8.632087719934516"><ele>116.0</ele><time>2026-04-18T09:43:42.003Z</time></trkpt><trkpt lat="45.31311628986864" lon="8.632060517784671"><ele>116.0</ele><time>2026-04-18T09:43:43.003Z</time></trkpt><trkpt lat="45.31299863131468" lon="8.632033026073318"><ele>116.0</ele><time>2026-04-18T09:43:44.003Z</time></trkpt><trkpt lat="45.31287853442448" lon="8.63201060606413"><ele>116.0</ele><time>2026-04-18T09:43:45.003Z</time></trkpt><trkpt lat="45.31274796474789" lon="8.631994056462343"><ele>116.0</ele><time>2026-04-18T09:43:46.003Z</time></trkpt><trkpt lat="45.312609101401385" lon="8.63197200049977"><ele>116.0</ele><time>2026-04-18T09:43:47.003Z</time></trkpt><trkpt lat="45.31246544279029" lon="8.631953047379904"><ele>116.0</ele><time>2026-04-18T09:43:48.003Z</time></trkpt><trkpt lat="45.31231576243272" lon="8.631930945766797"><ele>116.33333333333333</ele><time>2026-04-18T09:43:49.003Z</time></trkpt><trkpt lat="45.31216084061706" lon="8.631908551221395"><ele>116.66666666666666</ele><time>2026-04-18T09:43:50.003Z</time></trkpt><trkpt lat="45.312002192348466" lon="8.63188050407736"><ele>117.0</ele><time>2026-04-18T09:43:51.003Z</time></trkpt><trkpt lat="45.311837892604714" lon="8.631856928050706"><ele>117.0</ele><time>2026-04-18T09:43:52.003Z</time></trkpt><trkpt lat="45.31167130694333" lon="8.63183151540768"><ele>117.0</ele><time>2026-04-18T09:43:53.003Z</time></trkpt><trkpt lat="45.311497687211904" lon="8.631808272062683"><ele>117.0</ele><time>2026-04-18T09:43:54.003Z</time></trkpt><trkpt lat="45.31133328226183" lon="8.63177804888254"><ele>116.5</ele><time>2026-04-18T09:43:55.003Z</time></trkpt><trkpt lat="45.31117335001062" lon="8.631751697752277"><ele>116.0</ele><time>2026-04-18T09:43:56.003Z</time></trkpt><trkpt lat="45.31103767794302" lon="8.631736686541924"><ele>115.5</ele><time>2026-04-18T09:43:57.003Z</time></trkpt><trkpt lat="45.31091865704157" lon="8.631721285697973"><ele>115.0</ele><time>2026-04-18T09:43:58.003Z</time></trkpt><trkpt lat="45.31081238910782" lon="8.631713217847619"><ele>115.0</ele><time>2026-04-18T09:43:59.003Z</time></trkpt><trkpt lat="45.31071717265372" lon="8.63172423934842"><ele>115.0</ele><time>2026-04-18T09:44:00.003Z</time></trkpt><trkpt lat="45.31061582410596" lon="8.631764891380806"><ele>115.0</ele><time>2026-04-18T09:44:01.003Z</time></trkpt><trkpt lat="45.310524533811176" lon="8.631840077827672"><ele>115.0</ele><time>2026-04-18T09:44:02.003Z</time></trkpt><trkpt lat="45.31041492909817" lon="8.631915321158084"><ele>115.0</ele><time>2026-04-18T09:44:03.003Z</time></trkpt><trkpt lat="45.31029630013852" lon="8.631985494204343"><ele>115.25</ele><time>2026-04-18T09:44:04.003Z</time></trkpt><trkpt lat="45.310171099994896" lon="8.632050900801984"><ele>115.5</ele><time>2026-04-18T09:44:05.003Z</time></trkpt><trkpt lat="45.310040567131125" lon="8.632134298989078"><ele>115.75</ele><time>2026-04-18T09:44:06.003Z</time></trkpt><trkpt lat="45.30990166277942" lon="8.63222385428018"><ele>116.0</ele><time>2026-04-18T09:44:07.003Z</time></trkpt><trkpt lat="45.3097552989445" lon="8.63231559737781"><ele>116.33333333333333</ele><time>2026-04-18T09:44:08.003Z</time></trkpt><trkpt lat="45.30960284722657" lon="8.6324110871155"><ele>116.66666666666666</ele><time>2026-04-18T09:44:09.003Z</time></trkpt><trkpt lat="45.30944461852274" lon="8.632505764075338"><ele>117.0</ele><time>2026-04-18T09:44:10.003Z</time></trkpt><trkpt lat="45.30928627699123" lon="8.632599534287598"><ele>117.0</ele><time>2026-04-18T09:44:11.003Z</time></trkpt><trkpt lat="45.309122500019754" lon="8.632689637272783"><ele>117.0</ele><time>2026-04-18T09:44:12Z</time></trkpt><trkpt lat="45.30895321214169" lon="8.63277111164366"><ele>117.0</ele><time>2026-04-18T09:44:13Z</time></trkpt><trkpt lat="45.30879985514961" lon="8.63284729861277"><ele>117.0</ele><time>2026-04-18T09:44:14Z</time></trkpt><trkpt lat="45.30866340709481" lon="8.632920351699136"><ele>117.0</ele><time>2026-04-18T09:44:15Z</time></trkpt><trkpt lat="45.30854231015357" lon="8.632983859290011"><ele>117.0</ele><time>2026-04-18T09:44:16Z</time></trkpt><trkpt lat="45.30841808438384" lon="8.633040701957498"><ele>117.0</ele><time>2026-04-18T09:44:17Z</time></trkpt><trkpt lat="45.30828637905337" lon="8.633104811505893"><ele>117.0</ele><time>2026-04-18T09:44:18Z</time></trkpt><trkpt lat="45.30815673881126" lon="8.63318024835168"><ele>117.0</ele><time>2026-04-18T09:44:19Z</time></trkpt><trkpt lat="45.30802668774561" lon="8.633254833423955"><ele>117.0</ele><time>2026-04-18T09:44:20Z</time></trkpt><trkpt lat="45.30790239825961" lon="8.63334451309169"><ele>117.0</ele><time>2026-04-18T09:44:21Z</time></trkpt><trkpt lat="45.30778885295896" lon="8.633424336730165"><ele>117.19999999999999</ele><time>2026-04-18T09:44:22Z</time></trkpt><trkpt lat="45.30769153093935" lon="8.633498845663471"><ele>117.39999999999999</ele><time>2026-04-18T09:44:23Z</time></trkpt><trkpt lat="45.30760334193041" lon="8.633563318392554"><ele>117.60000000000001</ele><time>2026-04-18T09:44:24Z</time></trkpt><trkpt lat="45.307514474033496" lon="8.633617968653862"><ele>117.80000000000001</ele><time>2026-04-18T09:44:25Z</time></trkpt><trkpt lat="45.307432454832686" lon="8.633673045193172"><ele>118.0</ele><time>2026-04-18T09:44:26Z</time></trkpt><trkpt lat="45.30736719604725" lon="8.633716941423495"><ele>118.00000000000001</ele><time>2026-04-18T09:44:27Z</time></trkpt><trkpt lat="45.30730480469506" lon="8.633761997122889"><ele>118.0</ele><time>2026-04-18T09:44:28Z</time></trkpt><trkpt lat="45.307245551358584" lon="8.63379890301165"><ele>118.0</ele><time>2026-04-18T09:44:29Z</time></trkpt><trkpt lat="45.30714448797711" lon="8.633899917897425"><ele>118.0</ele><time>2026-04-18T09:44:31Z</time></trkpt><trkpt lat="45.30705384012147" lon="8.63397559752385"><ele>118.00000000000001</ele><time>2026-04-18T09:44:33Z</time></trkpt><trkpt lat="45.306995633203236" lon="8.634016510832137"><ele>118.0</ele><time>2026-04-18T09:44:34Z</time></trkpt><trkpt lat="45.306940324447275" lon="8.634061799301765"><ele>118.2</ele><time>2026-04-18T09:44:35Z</time></trkpt><trkpt lat="45.306846466387114" lon="8.634126181985287"><ele>118.4</ele><time>2026-04-18T09:44:37Z</time></trkpt><trkpt lat="45.30675016995389" lon="8.63419364308771"><ele>118.60000000000001</ele><time>2026-04-18T09:44:39Z</time></trkpt><trkpt lat="45.3066522402427" lon="8.634251558072563"><ele>118.80000000000001</ele><time>2026-04-18T09:44:41.001Z</time></trkpt><trkpt lat="45.30657745586254" lon="8.634281710536778"><ele>119.0</ele><time>2026-04-18T09:44:43.001Z</time></trkpt><trkpt lat="45.306512616958294" lon="8.634270345959873"><ele>118.99999999999999</ele><time>2026-04-18T09:44:45.001Z</time></trkpt><trkpt lat="45.30648859241169" lon="8.63416900767229"><ele>119.0</ele><time>2026-04-18T09:44:47.001Z</time></trkpt><trkpt lat="45.30643954996442" lon="8.634034140882006"><ele>119.0</ele><time>2026-04-18T09:44:49.001Z</time></trkpt><trkpt lat="45.30640806839304" lon="8.633947566623545"><ele>119.0</ele><time>2026-04-18T09:44:50.001Z</time></trkpt><trkpt lat="45.306373657363594" lon="8.63384952518398"><ele>118.99999999999999</ele><time>2026-04-18T09:44:51.001Z</time></trkpt><trkpt lat="45.30633486515344" lon="8.63373864550314"><ele>119.0</ele><time>2026-04-18T09:44:52.001Z</time></trkpt><trkpt lat="45.30629278388294" lon="8.63362312277472"><ele>118.6</ele><time>2026-04-18T09:44:53.001Z</time></trkpt><trkpt lat="45.3062497894727" lon="8.633508245125684"><ele>118.2</ele><time>2026-04-18T09:44:54.001Z</time></trkpt><trkpt lat="45.30618895332647" lon="8.63340002192008"><ele>117.79999999999998</ele><time>2026-04-18T09:44:55.001Z</time></trkpt><trkpt lat="45.30614629701159" lon="8.63329776736093"><ele>117.39999999999999</ele><time>2026-04-18T09:44:56.001Z</time></trkpt><trkpt lat="45.30610365725513" lon="8.633182012869943"><ele>117.0</ele><time>2026-04-18T09:44:57.001Z</time></trkpt><trkpt lat="45.306058809602504" lon="8.633068123496546"><ele>117.0</ele><time>2026-04-18T09:44:58.001Z</time></trkpt><trkpt lat="45.30601088648326" lon="8.632949139546552"><ele>116.99999999999999</ele><time>2026-04-18T09:44:59.001Z</time></trkpt><trkpt lat="45.30595970270029" lon="8.632837174234016"><ele>116.99999999999999</ele><time>2026-04-18T09:45:00.001Z</time></trkpt><trkpt lat="45.305910380731916" lon="8.632717291327205"><ele>117.0</ele><time>2026-04-18T09:45:01.001Z</time></trkpt><trkpt lat="45.3058600306628" lon="8.632606864396982"><ele>117.0</ele><time>2026-04-18T09:45:02.001Z</time></trkpt><trkpt lat="45.30581763363429" lon="8.632491053578265"><ele>117.0</ele><time>2026-04-18T09:45:03.001Z</time></trkpt><trkpt lat="45.305768427627775" lon="8.63237314252343"><ele>116.99999999999999</ele><time>2026-04-18T09:45:04.001Z</time></trkpt><trkpt lat="45.305720731853754" lon="8.632258416190838"><ele>116.99999999999999</ele><time>2026-04-18T09:45:05.001Z</time></trkpt><trkpt lat="45.30567003846298" lon="8.632139229542252"><ele>117.0</ele><time>2026-04-18T09:45:06.001Z</time></trkpt><trkpt lat="45.305624437891936" lon="8.632023230131981"><ele>117.0</ele><time>2026-04-18T09:45:07.001Z</time></trkpt><trkpt lat="45.30556895437054" lon="8.631901827041858"><ele>116.6</ele><time>2026-04-18T09:45:08.001Z</time></trkpt><trkpt lat="45.30551492011103" lon="8.63178089154021"><ele>116.19999999999999</ele><time>2026-04-18T09:45:09.001Z</time></trkpt><trkpt lat="45.30545040914864" lon="8.631664617798647"><ele>115.8</ele><time>2026-04-18T09:45:10.001Z</time></trkpt><trkpt lat="45.30538813718549" lon="8.6315490640647"><ele>115.4</ele><time>2026-04-18T09:45:11.001Z</time></trkpt><trkpt lat="45.30532771028051" lon="8.631438374664485"><ele>115.0</ele><time>2026-04-18T09:45:12.001Z</time></trkpt><trkpt lat="45.30526307666595" lon="8.631314342734434"><ele>115.0</ele><time>2026-04-18T09:45:13.001Z</time></trkpt><trkpt lat="45.30519031265445" lon="8.631184871095032"><ele>115.0</ele><time>2026-04-18T09:45:14.001Z</time></trkpt><trkpt lat="45.30512204805421" lon="8.631057728424476"><ele>115.0</ele><time>2026-04-18T09:45:15.001Z</time></trkpt><trkpt lat="45.305062032997256" lon="8.630937728264295"><ele>115.0</ele><time>2026-04-18T09:45:16.002Z</time></trkpt><trkpt lat="45.305003541781026" lon="8.630831534336897"><ele>115.0</ele><time>2026-04-18T09:45:17.002Z</time></trkpt><trkpt lat="45.304966336529425" lon="8.63072796887856"><ele>115.00000000000001</ele><time>2026-04-18T09:45:18.002Z</time></trkpt><trkpt lat="45.3049149745044" lon="8.630656291570409"><ele>115.0</ele><time>2026-04-18T09:45:19.002Z</time></trkpt><trkpt lat="45.30488254374143" lon="8.630547248904046"><ele>115.0</ele><time>2026-04-18T09:45:20.002Z</time></trkpt><trkpt lat="45.304835576260636" lon="8.63044393769686"><ele>115.0</ele><time>2026-04-18T09:45:21.002Z</time></trkpt><trkpt lat="45.30478994167481" lon="8.630343558305404"><ele>115.00000000000001</ele><time>2026-04-18T09:45:22.002Z</time></trkpt><trkpt lat="45.30474717033614" lon="8.630249476735218"><ele>115.0</ele><time>2026-04-18T09:45:23.002Z</time></trkpt><trkpt lat="45.30471201140579" lon="8.63017214016592"><ele>115.33333333333334</ele><time>2026-04-18T09:45:24.002Z</time></trkpt><trkpt lat="45.30465995252383" lon="8.630063119794922"><ele>115.66666666666667</ele><time>2026-04-18T09:45:26.002Z</time></trkpt><trkpt lat="45.30464059405258" lon="8.629955707135778"><ele>116.0</ele><time>2026-04-18T09:45:29.002Z</time></trkpt><trkpt lat="45.304749783513586" lon="8.62992845241673"><ele>116.33333333333334</ele><time>2026-04-18T09:45:33.002Z</time></trkpt><trkpt lat="45.30481370006746" lon="8.629924188327044"><ele>116.66666666666667</ele><time>2026-04-18T09:45:34.002Z</time></trkpt><trkpt lat="45.30488743352047" lon="8.629922815190884"><ele>117.0</ele><time>2026-04-18T09:45:35.002Z</time></trkpt><trkpt lat="45.30496955802181" lon="8.629905974745814"><ele>117.0</ele><time>2026-04-18T09:45:36.002Z</time></trkpt><trkpt lat="45.305066038901565" lon="8.62988856189686"><ele>116.99999999999999</ele><time>2026-04-18T09:45:37.002Z</time></trkpt><trkpt lat="45.30516731433519" lon="8.629870647983692"><ele>116.99999999999999</ele><time>2026-04-18T09:45:38.002Z</time></trkpt><trkpt lat="45.30527852998573" lon="8.62985063933567"><ele>117.0</ele><time>2026-04-18T09:45:39.002Z</time></trkpt><trkpt lat="45.30539292636108" lon="8.629833155217735"><ele>117.0</ele><time>2026-04-18T09:45:40.002Z</time></trkpt><trkpt lat="45.30551505787329" lon="8.629813789521831"><ele>117.25</ele><time>2026-04-18T09:45:41.002Z</time></trkpt><trkpt lat="45.30563760293548" lon="8.629794708197242"><ele>117.5</ele><time>2026-04-18T09:45:42.002Z</time></trkpt><trkpt lat="45.305779862201376" lon="8.629772966865605"><ele>117.75</ele><time>2026-04-18T09:45:43.002Z</time></trkpt><trkpt lat="45.30593885471108" lon="8.629746747849698"><ele>118.0</ele><time>2026-04-18T09:45:44.002Z</time></trkpt><trkpt lat="45.306098721055214" lon="8.62971863128011"><ele>118.0</ele><time>2026-04-18T09:45:45.002Z</time></trkpt><trkpt lat="45.306237749736496" lon="8.629692497398786"><ele>118.0</ele><time>2026-04-18T09:45:46.002Z</time></trkpt><trkpt lat="45.30636138236694" lon="8.629668603291353"><ele>118.0</ele><time>2026-04-18T09:45:47.002Z</time></trkpt><trkpt lat="45.30647814161338" lon="8.629655237547027"><ele>118.0</ele><time>2026-04-18T09:45:48.002Z</time></trkpt><trkpt lat="45.306590902446956" lon="8.629641940194713"><ele>118.0</ele><time>2026-04-18T09:45:49.002Z</time></trkpt><trkpt lat="45.30670352914195" lon="8.629627039771863"><ele>118.00000000000001</ele><time>2026-04-18T09:45:50.002Z</time></trkpt><trkpt lat="45.30680324151474" lon="8.629611410328689"><ele>118.00000000000001</ele><time>2026-04-18T09:45:51.002Z</time></trkpt><trkpt lat="45.30690067661594" lon="8.629594168220756"><ele>118.0</ele><time>2026-04-18T09:45:52.003Z</time></trkpt><trkpt lat="45.306999665624005" lon="8.629577393198739"><ele>118.0</ele><time>2026-04-18T09:45:53.003Z</time></trkpt><trkpt lat="45.30709141799965" lon="8.62955515871637"><ele>118.0</ele><time>2026-04-18T09:45:54.003Z</time></trkpt><trkpt lat="45.30718524757369" lon="8.629519308063959"><ele>118.00000000000001</ele><time>2026-04-18T09:45:55.003Z</time></trkpt><trkpt lat="45.30728432816177" lon="8.629482051762238"><ele>118.00000000000001</ele><time>2026-04-18T09:45:56.003Z</time></trkpt><trkpt lat="45.30738877877655" lon="8.629450899646358"><ele>118.0</ele><time>2026-04-18T09:45:57.003Z</time></trkpt><trkpt lat="45.30748682355896" lon="8.629424237559478"><ele>118.0</ele><time>2026-04-18T09:45:58.003Z</time></trkpt><trkpt lat="45.30757229574532" lon="8.629392136265102"><ele>118.0</ele><time>2026-04-18T09:45:59.003Z</time></trkpt><trkpt lat="45.30764894691137" lon="8.62936612922653"><ele>118.00000000000001</ele><time>2026-04-18T09:46:00.003Z</time></trkpt><trkpt lat="45.307713290239455" lon="8.629345634868113"><ele>118.00000000000001</ele><time>2026-04-18T09:46:01.003Z</time></trkpt><trkpt lat="45.30782538242155" lon="8.629313467426304"><ele>118.0</ele><time>2026-04-18T09:46:03.003Z</time></trkpt><trkpt lat="45.307909726021045" lon="8.62925177638103"><ele>118.0</ele><time>2026-04-18T09:46:05.003Z</time></trkpt><trkpt lat="45.30796161471089" lon="8.629131750395647"><ele>118.00000000000001</ele><time>2026-04-18T09:46:07.003Z</time></trkpt><trkpt lat="45.307985274208505" lon="8.628977461349487"><ele>118.0</ele><time>2026-04-18T09:46:09.003Z</time></trkpt><trkpt lat="45.307997669511636" lon="8.628812386876252"><ele>118.0</ele><time>2026-04-18T09:46:11.003Z</time></trkpt><trkpt lat="45.30800137120566" lon="8.628718013724782"><ele>118.0</ele><time>2026-04-18T09:46:12.003Z</time></trkpt><trkpt lat="45.30800530033166" lon="8.628624514793437"><ele>118.00000000000001</ele><time>2026-04-18T09:46:13.003Z</time></trkpt><trkpt lat="45.308016149716714" lon="8.628522108114016"><ele>118.0</ele><time>2026-04-18T09:46:14.003Z</time></trkpt><trkpt lat="45.308028254706386" lon="8.628409621801369"><ele>118.4</ele><time>2026-04-18T09:46:15.003Z</time></trkpt><trkpt lat="45.30803698291101" lon="8.628283607865708"><ele>118.80000000000001</ele><time>2026-04-18T09:46:16.003Z</time></trkpt><trkpt lat="45.30804264518121" lon="8.628148243234328"><ele>119.2</ele><time>2026-04-18T09:46:17.003Z</time></trkpt><trkpt lat="45.30805050121692" lon="8.62801329890177"><ele>119.6</ele><time>2026-04-18T09:46:18Z</time></trkpt><trkpt lat="45.30805768322999" lon="8.627876482632564"><ele>120.0</ele><time>2026-04-18T09:46:19Z</time></trkpt><trkpt lat="45.30807096108005" lon="8.627734246321213"><ele>120.75</ele><time>2026-04-18T09:46:20Z</time></trkpt><trkpt lat="45.30808370702553" lon="8.62757468697855"><ele>121.5</ele><time>2026-04-18T09:46:21Z</time></trkpt><trkpt lat="45.30809539278685" lon="8.627406462873719"><ele>122.25</ele><time>2026-04-18T09:46:22Z</time></trkpt><trkpt lat="45.30810532226618" lon="8.627233452575107"><ele>123.0</ele><time>2026-04-18T09:46:23Z</time></trkpt><trkpt lat="45.30811599003586" lon="8.627067990352494"><ele>123.0</ele><time>2026-04-18T09:46:24Z</time></trkpt><trkpt lat="45.30812790616422" lon="8.626893310480066"><ele>123.0</ele><time>2026-04-18T09:46:25Z</time></trkpt><trkpt lat="45.30813983600023" lon="8.6267244093387"><ele>123.0</ele><time>2026-04-18T09:46:26Z</time></trkpt><trkpt lat="45.30815394987843" lon="8.62656636295996"><ele>123.0</ele><time>2026-04-18T09:46:27Z</time></trkpt><trkpt lat="45.308169468399946" lon="8.626399307497143"><ele>123.0</ele><time>2026-04-18T09:46:28Z</time></trkpt><trkpt lat="45.30817999229297" lon="8.626235470041934"><ele>123.00000000000001</ele><time>2026-04-18T09:46:29Z</time></trkpt><trkpt lat="45.308191110803534" lon="8.626090018728414"><ele>123.00000000000001</ele><time>2026-04-18T09:46:30Z</time></trkpt><trkpt lat="45.30820498509322" lon="8.62596151400623"><ele>123.0</ele><time>2026-04-18T09:46:31Z</time></trkpt><trkpt lat="45.3082081671477" lon="8.625838623687933"><ele>123.0</ele><time>2026-04-18T09:46:32Z</time></trkpt><trkpt lat="45.30821832605254" lon="8.625718888732168"><ele>122.5</ele><time>2026-04-18T09:46:33Z</time></trkpt><trkpt lat="45.30822542492168" lon="8.625607576148372"><ele>122.0</ele><time>2026-04-18T09:46:34Z</time></trkpt><trkpt lat="45.30822988041106" lon="8.625515111413465"><ele>121.5</ele><time>2026-04-18T09:46:35Z</time></trkpt><trkpt lat="45.30823994024253" lon="8.625361577259023"><ele>121.0</ele><time>2026-04-18T09:46:37Z</time></trkpt><trkpt lat="45.308255529765255" lon="8.625247729373106"><ele>120.5</ele><time>2026-04-18T09:46:39Z</time></trkpt><trkpt lat="45.30835820288713" lon="8.625202587351046"><ele>120.0</ele><time>2026-04-18T09:46:42Z</time></trkpt><trkpt lat="45.3084727173295" lon="8.625140043540087"><ele>120.0</ele><time>2026-04-18T09:46:44Z</time></trkpt><trkpt lat="45.308514652842895" lon="8.624964290601701"><ele>120.0</ele><time>2026-04-18T09:46:46Z</time></trkpt><trkpt lat="45.30852759712151" lon="8.624850891660358"><ele>120.0</ele><time>2026-04-18T09:46:47.001Z</time></trkpt><trkpt lat="45.30854237073186" lon="8.624729300922976"><ele>120.0</ele><time>2026-04-18T09:46:48.001Z</time></trkpt><trkpt lat="45.308565464404204" lon="8.624600179325421"><ele>120.0</ele><time>2026-04-18T09:46:49.001Z</time></trkpt><trkpt lat="45.30858513061758" lon="8.624460674539357"><ele>120.0</ele><time>2026-04-18T09:46:50.001Z</time></trkpt><trkpt lat="45.30860825852312" lon="8.624322002874573"><ele>120.0</ele><time>2026-04-18T09:46:51.001Z</time></trkpt><trkpt lat="45.30863145157575" lon="8.624172322952305"><ele>120.0</ele><time>2026-04-18T09:46:52.001Z</time></trkpt><trkpt lat="45.30864958329433" lon="8.624014052459485"><ele>120.0</ele><time>2026-04-18T09:46:53.001Z</time></trkpt><trkpt lat="45.308677654891255" lon="8.623857467875784"><ele>120.0</ele><time>2026-04-18T09:46:54.001Z</time></trkpt><trkpt lat="45.30870350865631" lon="8.623714633534878"><ele>119.83333333333333</ele><time>2026-04-18T09:46:55.001Z</time></trkpt><trkpt lat="45.30871939062593" lon="8.623583696898908"><ele>119.66666666666666</ele><time>2026-04-18T09:46:56.001Z</time></trkpt><trkpt lat="45.30873736192316" lon="8.623472748763602"><ele>119.5</ele><time>2026-04-18T09:46:57.001Z</time></trkpt><trkpt lat="45.30875404582047" lon="8.623358906383814"><ele>119.33333333333333</ele><time>2026-04-18T09:46:58.001Z</time></trkpt><trkpt lat="45.30876566213127" lon="8.623248999120555"><ele>119.16666666666666</ele><time>2026-04-18T09:46:59.001Z</time></trkpt><trkpt lat="45.30878328479111" lon="8.623137141256452"><ele>119.0</ele><time>2026-04-18T09:47:00.001Z</time></trkpt><trkpt lat="45.30880452579173" lon="8.623048451256016"><ele>118.99999999999999</ele><time>2026-04-18T09:47:01.001Z</time></trkpt><trkpt lat="45.308829702193634" lon="8.62290020774675"><ele>119.0</ele><time>2026-04-18T09:47:03.001Z</time></trkpt><trkpt lat="45.308843450708814" lon="8.62279060089594"><ele>119.0</ele><time>2026-04-18T09:47:05.001Z</time></trkpt><trkpt lat="45.308807633288275" lon="8.622712799145337"><ele>119.0</ele><time>2026-04-18T09:47:07.001Z</time></trkpt><trkpt lat="45.308715514401236" lon="8.622666155868732"><ele>118.99999999999999</ele><time>2026-04-18T09:47:09.001Z</time></trkpt><trkpt lat="45.30864019904565" lon="8.622642085901632"><ele>119.0</ele><time>2026-04-18T09:47:10.001Z</time></trkpt><trkpt lat="45.30855647211226" lon="8.622608371383745"><ele>118.99999999999999</ele><time>2026-04-18T09:47:11.001Z</time></trkpt><trkpt lat="45.30846845022008" lon="8.622567791218097"><ele>119.0</ele><time>2026-04-18T09:47:12.001Z</time></trkpt><trkpt lat="45.30837220459847" lon="8.622525906317081"><ele>119.0</ele><time>2026-04-18T09:47:13.001Z</time></trkpt><trkpt lat="45.308282986630545" lon="8.62248569504499"><ele>119.0</ele><time>2026-04-18T09:47:14.001Z</time></trkpt><trkpt lat="45.30820178076841" lon="8.62246206078633"><ele>118.99999999999999</ele><time>2026-04-18T09:47:15.001Z</time></trkpt><trkpt lat="45.3081320121397" lon="8.622442627910253"><ele>119.0</ele><time>2026-04-18T09:47:16.001Z</time></trkpt><trkpt lat="45.308021986503086" lon="8.622381641281395"><ele>119.0</ele><time>2026-04-18T09:47:18.001Z</time></trkpt><trkpt lat="45.30793023362632" lon="8.622317707118828"><ele>119.0</ele><time>2026-04-18T09:47:20.001Z</time></trkpt><trkpt lat="45.30787511442841" lon="8.622209343297271"><ele>119.0</ele><time>2026-04-18T09:47:22.001Z</time></trkpt><trkpt lat="45.307880644535686" lon="8.622054226218266"><ele>119.0</ele><time>2026-04-18T09:47:24.001Z</time></trkpt><trkpt lat="45.30788812106255" lon="8.621945971652455"><ele>119.0</ele><time>2026-04-18T09:47:25.002Z</time></trkpt><trkpt lat="45.30789376286016" lon="8.62182137550221"><ele>119.0</ele><time>2026-04-18T09:47:26.002Z</time></trkpt><trkpt lat="45.30789832994302" lon="8.621688258651012"><ele>119.0</ele><time>2026-04-18T09:47:27.002Z</time></trkpt><trkpt lat="45.30790398279997" lon="8.621540897420488"><ele>119.0</ele><time>2026-04-18T09:47:28.002Z</time></trkpt><trkpt lat="45.307907682075374" lon="8.621386306984963"><ele>119.0</ele><time>2026-04-18T09:47:29.002Z</time></trkpt><trkpt lat="45.30791123316294" lon="8.621223408698844"><ele>119.0</ele><time>2026-04-18T09:47:30.002Z</time></trkpt><trkpt lat="45.307915278465295" lon="8.621055134900205"><ele>119.0</ele><time>2026-04-18T09:47:31.002Z</time></trkpt><trkpt lat="45.30791890170914" lon="8.620885787600189"><ele>119.0</ele><time>2026-04-18T09:47:32.002Z</time></trkpt><trkpt lat="45.307925896274966" lon="8.62071933551092"><ele>119.0</ele><time>2026-04-18T09:47:33.002Z</time></trkpt><trkpt lat="45.30792680822337" lon="8.620558657842816"><ele>119.0</ele><time>2026-04-18T09:47:34.002Z</time></trkpt><trkpt lat="45.30792180809993" lon="8.62039700232153"><ele>119.0</ele><time>2026-04-18T09:47:35.002Z</time></trkpt><trkpt lat="45.30791965991905" lon="8.620233715836356"><ele>119.0</ele><time>2026-04-18T09:47:36.002Z</time></trkpt><trkpt lat="45.30791347764355" lon="8.620110472459784"><ele>119.0</ele><time>2026-04-18T09:47:37.002Z</time></trkpt><trkpt lat="45.307893570825605" lon="8.619976441095394"><ele>119.0</ele><time>2026-04-18T09:47:38.002Z</time></trkpt><trkpt lat="45.30784975296489" lon="8.6198351841144"><ele>119.0</ele><time>2026-04-18T09:47:39.002Z</time></trkpt><trkpt lat="45.30779631850079" lon="8.619687626499925"><ele>119.0</ele><time>2026-04-18T09:47:40.002Z</time></trkpt><trkpt lat="45.30774121956591" lon="8.61954344214543"><ele>119.0</ele><time>2026-04-18T09:47:41.002Z</time></trkpt><trkpt lat="45.307685294711135" lon="8.61938209942135"><ele>119.0</ele><time>2026-04-18T09:47:42.002Z</time></trkpt><trkpt lat="45.307630416208" lon="8.619219690347316"><ele>119.0</ele><time>2026-04-18T09:47:43.002Z</time></trkpt><trkpt lat="45.30757237672489" lon="8.61905377412843"><ele>119.0</ele><time>2026-04-18T09:47:44.002Z</time></trkpt><trkpt lat="45.30750798318438" lon="8.618888113889176"><ele>119.0</ele><time>2026-04-18T09:47:45.002Z</time></trkpt><trkpt lat="45.30744456567738" lon="8.618718167874205"><ele>119.0</ele><time>2026-04-18T09:47:46.002Z</time></trkpt><trkpt lat="45.30738614468578" lon="8.618552485277853"><ele>119.0</ele><time>2026-04-18T09:47:47.002Z</time></trkpt><trkpt lat="45.307327564414656" lon="8.618402122686664"><ele>119.0</ele><time>2026-04-18T09:47:48.002Z</time></trkpt><trkpt lat="45.307257056333434" lon="8.618258536887382"><ele>119.0</ele><time>2026-04-18T09:47:49.002Z</time></trkpt><trkpt lat="45.307174795912964" lon="8.618119220531844"><ele>119.0</ele><time>2026-04-18T09:47:50.002Z</time></trkpt><trkpt lat="45.30708594557422" lon="8.617974558226603"><ele>119.0</ele><time>2026-04-18T09:47:51.002Z</time></trkpt><trkpt lat="45.30698789443181" lon="8.617838755263225"><ele>119.0</ele><time>2026-04-18T09:47:52.002Z</time></trkpt><trkpt lat="45.30688539992845" lon="8.617704971294945"><ele>119.0</ele><time>2026-04-18T09:47:53.002Z</time></trkpt><trkpt lat="45.30678347650105" lon="8.617573179358907"><ele>119.0</ele><time>2026-04-18T09:47:54.002Z</time></trkpt><trkpt lat="45.306688513393006" lon="8.61743830469157"><ele>119.0</ele><time>2026-04-18T09:47:55.002Z</time></trkpt><trkpt lat="45.30660092041705" lon="8.61729814079106"><ele>119.0</ele><time>2026-04-18T09:47:56.002Z</time></trkpt><trkpt lat="45.30651901141813" lon="8.617177907568403"><ele>119.0</ele><time>2026-04-18T09:47:57.002Z</time></trkpt><trkpt lat="45.30644320009317" lon="8.617071428858225"><ele>119.0</ele><time>2026-04-18T09:47:58.002Z</time></trkpt><trkpt lat="45.30637702118817" lon="8.616980278277627"><ele>119.0</ele><time>2026-04-18T09:47:59.002Z</time></trkpt><trkpt lat="45.306307535036325" lon="8.616891253916782"><ele>119.0</ele><time>2026-04-18T09:48:00.002Z</time></trkpt><trkpt lat="45.30624894638981" lon="8.616819518815362"><ele>118.99999999999999</ele><time>2026-04-18T09:48:01.002Z</time></trkpt><trkpt lat="45.30619149660049" lon="8.61674598307183"><ele>119.0</ele><time>2026-04-18T09:48:02.003Z</time></trkpt><trkpt lat="45.30613623088016" lon="8.616668940386312"><ele>119.0</ele><time>2026-04-18T09:48:03.003Z</time></trkpt><trkpt lat="45.30607528954767" lon="8.616605196597883"><ele>119.0</ele><time>2026-04-18T09:48:04.003Z</time></trkpt><trkpt lat="45.305957431472756" lon="8.616537044097806"><ele>118.99999999999999</ele><time>2026-04-18T09:48:06.003Z</time></trkpt><trkpt lat="45.3058823469721" lon="8.616514193515261"><ele>119.0</ele><time>2026-04-18T09:48:07.003Z</time></trkpt><trkpt lat="45.30580766782649" lon="8.616492652853598"><ele>119.0</ele><time>2026-04-18T09:48:08.003Z</time></trkpt><trkpt lat="45.305703712209805" lon="8.616487947954948"><ele>119.0</ele><time>2026-04-18T09:48:10.003Z</time></trkpt><trkpt lat="45.30563339216371" lon="8.616423733165707"><ele>119.0</ele><time>2026-04-18T09:48:12.003Z</time></trkpt><trkpt lat="45.30562310676659" lon="8.616278961996162"><ele>119.0</ele><time>2026-04-18T09:48:14.003Z</time></trkpt><trkpt lat="45.305660269938826" lon="8.616117719757309"><ele>119.0</ele><time>2026-04-18T09:48:16.003Z</time></trkpt><trkpt lat="45.30566774156408" lon="8.615985917917024"><ele>118.83333333333333</ele><time>2026-04-18T09:48:18.003Z</time></trkpt><trkpt lat="45.30561203038504" lon="8.615892408569986"><ele>118.66666666666666</ele><time>2026-04-18T09:48:20.003Z</time></trkpt><trkpt lat="45.305490370908544" lon="8.615848437025237"><ele>118.5</ele><time>2026-04-18T09:48:22.003Z</time></trkpt><trkpt lat="45.30542400709344" lon="8.615828059508296"><ele>118.33333333333334</ele><time>2026-04-18T09:48:23.003Z</time></trkpt><trkpt lat="45.30534697180168" lon="8.61579800012313"><ele>118.16666666666667</ele><time>2026-04-18T09:48:24Z</time></trkpt><trkpt lat="45.30526879513007" lon="8.615767331247072"><ele>118.0</ele><time>2026-04-18T09:48:25Z</time></trkpt><trkpt lat="45.30518123230458" lon="8.615731258753232"><ele>118.0</ele><time>2026-04-18T09:48:26Z</time></trkpt><trkpt lat="45.305090196948655" lon="8.615696829837852"><ele>118.00000000000001</ele><time>2026-04-18T09:48:27Z</time></trkpt><trkpt lat="45.30499038632469" lon="8.615658301115715"><ele>118.00000000000001</ele><time>2026-04-18T09:48:28Z</time></trkpt><trkpt lat="45.30488930960526" lon="8.6156182451437"><ele>118.0</ele><time>2026-04-18T09:48:29Z</time></trkpt><trkpt lat="45.30478116311139" lon="8.61557815618481"><ele>118.0</ele><time>2026-04-18T09:48:30Z</time></trkpt><trkpt lat="45.304664976491615" lon="8.615540354115856"><ele>118.25</ele><time>2026-04-18T09:48:31Z</time></trkpt><trkpt lat="45.30454708652066" lon="8.615506224397103"><ele>118.5</ele><time>2026-04-18T09:48:32Z</time></trkpt><trkpt lat="45.304425944978135" lon="8.61547148151518"><ele>118.75</ele><time>2026-04-18T09:48:33Z</time></trkpt><trkpt lat="45.30430225037002" lon="8.615434838399937"><ele>119.0</ele><time>2026-04-18T09:48:34Z</time></trkpt><trkpt lat="45.30417411057757" lon="8.615398853636192"><ele>119.0</ele><time>2026-04-18T09:48:35Z</time></trkpt><trkpt lat="45.304044569514915" lon="8.615363411283035"><ele>119.0</ele><time>2026-04-18T09:48:36Z</time></trkpt><trkpt lat="45.303911737085336" lon="8.615324663551169"><ele>119.0</ele><time>2026-04-18T09:48:37Z</time></trkpt><trkpt lat="45.3037824931525" lon="8.615280866129217"><ele>119.0</ele><time>2026-04-18T09:48:38Z</time></trkpt><trkpt lat="45.30363830043394" lon="8.615244588576834"><ele>119.0</ele><time>2026-04-18T09:48:39Z</time></trkpt><trkpt lat="45.30349647643314" lon="8.615207609423647"><ele>119.0</ele><time>2026-04-18T09:48:40Z</time></trkpt><trkpt lat="45.30335467746867" lon="8.615164648861745"><ele>119.0</ele><time>2026-04-18T09:48:41Z</time></trkpt><trkpt lat="45.30321239457514" lon="8.615122826584381"><ele>119.0</ele><time>2026-04-18T09:48:42Z</time></trkpt><trkpt lat="45.303065059870136" lon="8.615078095328968"><ele>119.0</ele><time>2026-04-18T09:48:43Z</time></trkpt><trkpt lat="45.30291758085445" lon="8.615030241393198"><ele>119.0</ele><time>2026-04-18T09:48:44Z</time></trkpt><trkpt lat="45.30276376329243" lon="8.614981457450401"><ele>119.0</ele><time>2026-04-18T09:48:45Z</time></trkpt><trkpt lat="45.302617988465336" lon="8.614937333566628"><ele>119.0</ele><time>2026-04-18T09:48:46Z</time></trkpt><trkpt lat="45.302470962840005" lon="8.614887355722674"><ele>119.0</ele><time>2026-04-18T09:48:47Z</time></trkpt><trkpt lat="45.302321126868" lon="8.614834970523768"><ele>119.0</ele><time>2026-04-18T09:48:48Z</time></trkpt><trkpt lat="45.302170000465686" lon="8.614793369998653"><ele>119.0</ele><time>2026-04-18T09:48:49Z</time></trkpt><trkpt lat="45.30201748340786" lon="8.61475413258458"><ele>119.0</ele><time>2026-04-18T09:48:50Z</time></trkpt><trkpt lat="45.30186649551323" lon="8.61471136782888"><ele>119.0</ele><time>2026-04-18T09:48:51Z</time></trkpt><trkpt lat="45.30171837424064" lon="8.6146668003718"><ele>119.0</ele><time>2026-04-18T09:48:52Z</time></trkpt><trkpt lat="45.30158551479858" lon="8.614628139299398"><ele>119.0</ele><time>2026-04-18T09:48:53Z</time></trkpt><trkpt lat="45.30145602757249" lon="8.614587895459538"><ele>119.0</ele><time>2026-04-18T09:48:54Z</time></trkpt><trkpt lat="45.30132037109308" lon="8.614535325472884"><ele>119.0</ele><time>2026-04-18T09:48:55Z</time></trkpt><trkpt lat="45.30118891666871" lon="8.614468372744339"><ele>118.75</ele><time>2026-04-18T09:48:56Z</time></trkpt><trkpt lat="45.3010705565944" lon="8.614398225546136"><ele>118.5</ele><time>2026-04-18T09:48:57.001Z</time></trkpt><trkpt lat="45.300960117816864" lon="8.614334603553752"><ele>118.25</ele><time>2026-04-18T09:48:58.001Z</time></trkpt><trkpt lat="45.30084410971073" lon="8.614268547237854"><ele>118.0</ele><time>2026-04-18T09:48:59.001Z</time></trkpt><trkpt lat="45.30072004455237" lon="8.614201773613695"><ele>118.0</ele><time>2026-04-18T09:49:00.001Z</time></trkpt><trkpt lat="45.3005913612133" lon="8.614130792947497"><ele>118.0</ele><time>2026-04-18T09:49:01.001Z</time></trkpt><trkpt lat="45.30046404496655" lon="8.614045916085319"><ele>118.0</ele><time>2026-04-18T09:49:02.001Z</time></trkpt><trkpt lat="45.300337506334415" lon="8.61393916829471"><ele>118.0</ele><time>2026-04-18T09:49:03.001Z</time></trkpt><trkpt lat="45.30021342583556" lon="8.613825948044322"><ele>118.0</ele><time>2026-04-18T09:49:04.001Z</time></trkpt><trkpt lat="45.3000836795471" lon="8.613718339226157"><ele>118.0</ele><time>2026-04-18T09:49:05.001Z</time></trkpt><trkpt lat="45.29996094379973" lon="8.613618230352975"><ele>118.0</ele><time>2026-04-18T09:49:06.001Z</time></trkpt><trkpt lat="45.299845108792674" lon="8.613526458448472"><ele>118.0</ele><time>2026-04-18T09:49:07.001Z</time></trkpt><trkpt lat="45.29972470974321" lon="8.613427966453067"><ele>118.5</ele><time>2026-04-18T09:49:08.001Z</time></trkpt><trkpt lat="45.29959978382911" lon="8.61332431448917"><ele>119.0</ele><time>2026-04-18T09:49:09.001Z</time></trkpt><trkpt lat="45.2994675821823" lon="8.613229989347097"><ele>119.5</ele><time>2026-04-18T09:49:10.001Z</time></trkpt><trkpt lat="45.299331473129186" lon="8.61314941150538"><ele>120.0</ele><time>2026-04-18T09:49:11.001Z</time></trkpt><trkpt lat="45.29918704160067" lon="8.613061929652744"><ele>120.0</ele><time>2026-04-18T09:49:12.001Z</time></trkpt><trkpt lat="45.29905991831855" lon="8.612964179146497"><ele>120.0</ele><time>2026-04-18T09:49:13.001Z</time></trkpt><trkpt lat="45.29892735330825" lon="8.612870939384326"><ele>120.0</ele><time>2026-04-18T09:49:14.001Z</time></trkpt><trkpt lat="45.298784550860375" lon="8.612795145089603"><ele>120.0</ele><time>2026-04-18T09:49:15.001Z</time></trkpt><trkpt lat="45.29863704474451" lon="8.6127354771237"><ele>119.33333333333334</ele><time>2026-04-18T09:49:16.001Z</time></trkpt><trkpt lat="45.29848410816779" lon="8.612679357848954"><ele>118.66666666666667</ele><time>2026-04-18T09:49:17.001Z</time></trkpt><trkpt lat="45.29832429243086" lon="8.612626502321056"><ele>118.0</ele><time>2026-04-18T09:49:18.001Z</time></trkpt><trkpt lat="45.29814986623361" lon="8.612576242408084"><ele>118.0</ele><time>2026-04-18T09:49:19.001Z</time></trkpt><trkpt lat="45.29797277705442" lon="8.612533004848837"><ele>118.0</ele><time>2026-04-18T09:49:20.001Z</time></trkpt><trkpt lat="45.29779303638627" lon="8.612480110829056"><ele>118.0</ele><time>2026-04-18T09:49:21.001Z</time></trkpt><trkpt lat="45.297608080788876" lon="8.612421715491891"><ele>118.0</ele><time>2026-04-18T09:49:22.001Z</time></trkpt><trkpt lat="45.29742006752373" lon="8.612365550322357"><ele>118.0</ele><time>2026-04-18T09:49:23.001Z</time></trkpt><trkpt lat="45.29723676330564" lon="8.612304747996394"><ele>118.0</ele><time>2026-04-18T09:49:24.001Z</time></trkpt><trkpt lat="45.29707940953265" lon="8.612240035312142"><ele>118.0</ele><time>2026-04-18T09:49:25.001Z</time></trkpt><trkpt lat="45.296934640808786" lon="8.612162750806323"><ele>118.0</ele><time>2026-04-18T09:49:26.001Z</time></trkpt><trkpt lat="45.29679069998517" lon="8.612077948967956"><ele>118.0</ele><time>2026-04-18T09:49:27.001Z</time></trkpt><trkpt lat="45.296644899912806" lon="8.612005608485735"><ele>117.75</ele><time>2026-04-18T09:49:28.001Z</time></trkpt><trkpt lat="45.296509428450236" lon="8.611962346867232"><ele>117.5</ele><time>2026-04-18T09:49:29.001Z</time></trkpt><trkpt lat="45.29638735249267" lon="8.611917653796713"><ele>117.25</ele><time>2026-04-18T09:49:30.001Z</time></trkpt><trkpt lat="45.29626248824837" lon="8.611855443876939"><ele>117.0</ele><time>2026-04-18T09:49:31.001Z</time></trkpt><trkpt lat="45.296137834522206" lon="8.611789149836843"><ele>117.0</ele><time>2026-04-18T09:49:32.001Z</time></trkpt><trkpt lat="45.296002406140886" lon="8.61173089407354"><ele>117.0</ele><time>2026-04-18T09:49:33.002Z</time></trkpt><trkpt lat="45.295858122774945" lon="8.611673387619348"><ele>117.0</ele><time>2026-04-18T09:49:34.002Z</time></trkpt><trkpt lat="45.29571266302042" lon="8.611610169426147"><ele>117.0</ele><time>2026-04-18T09:49:35.002Z</time></trkpt><trkpt lat="45.2955724312769" lon="8.611546202317776"><ele>116.75</ele><time>2026-04-18T09:49:36.002Z</time></trkpt><trkpt lat="45.29544294727562" lon="8.611484970180182"><ele>116.5</ele><time>2026-04-18T09:49:37.002Z</time></trkpt><trkpt lat="45.29532652609299" lon="8.611435939479382"><ele>116.25</ele><time>2026-04-18T09:49:38.002Z</time></trkpt><trkpt lat="45.29521996137985" lon="8.61139273343626"><ele>116.0</ele><time>2026-04-18T09:49:39.002Z</time></trkpt><trkpt lat="45.29510254157461" lon="8.611341567817112"><ele>116.0</ele><time>2026-04-18T09:49:40.002Z</time></trkpt><trkpt lat="45.29498856559415" lon="8.61128824785493"><ele>116.0</ele><time>2026-04-18T09:49:41.002Z</time></trkpt><trkpt lat="45.29488694943122" lon="8.61124217508617"><ele>116.0</ele><time>2026-04-18T09:49:42.002Z</time></trkpt><trkpt lat="45.2947982147419" lon="8.611200446162234"><ele>116.0</ele><time>2026-04-18T09:49:43.002Z</time></trkpt><trkpt lat="45.29472654623538" lon="8.611159404420688"><ele>116.0</ele><time>2026-04-18T09:49:44.002Z</time></trkpt><trkpt lat="45.29466664372522" lon="8.61110790076142"><ele>116.14285714285717</ele><time>2026-04-18T09:49:45.002Z</time></trkpt><trkpt lat="45.294613466197056" lon="8.611037644552969"><ele>116.28571428571429</ele><time>2026-04-18T09:49:46.002Z</time></trkpt><trkpt lat="45.29457706243177" lon="8.610944055921381"><ele>116.42857142857144</ele><time>2026-04-18T09:49:47.002Z</time></trkpt><trkpt lat="45.29454956346961" lon="8.610848289321494"><ele>116.57142857142858</ele><time>2026-04-18T09:49:48.002Z</time></trkpt><trkpt lat="45.29451373166161" lon="8.610769543579238"><ele>116.71428571428572</ele><time>2026-04-18T09:49:49.002Z</time></trkpt><trkpt lat="45.29445411660898" lon="8.61070267942202"><ele>116.85714285714286</ele><time>2026-04-18T09:49:50.002Z</time></trkpt><trkpt lat="45.294386434134836" lon="8.610657911573252"><ele>117.0</ele><time>2026-04-18T09:49:51.002Z</time></trkpt><trkpt lat="45.294317877134745" lon="8.61060700047281"><ele>117.0</ele><time>2026-04-18T09:49:52.002Z</time></trkpt><trkpt lat="45.294244354584734" lon="8.61058287547664"><ele>117.0</ele><time>2026-04-18T09:49:53.002Z</time></trkpt><trkpt lat="45.294166433862266" lon="8.610561023696095"><ele>117.0</ele><time>2026-04-18T09:49:54.002Z</time></trkpt><trkpt lat="45.29408234590738" lon="8.610555382241289"><ele>117.0</ele><time>2026-04-18T09:49:55.002Z</time></trkpt><trkpt lat="45.2939889186524" lon="8.61052302194372"><ele>117.0</ele><time>2026-04-18T09:49:56.002Z</time></trkpt><trkpt lat="45.2938974049666" lon="8.610504402558654"><ele>117.0</ele><time>2026-04-18T09:49:57.002Z</time></trkpt><trkpt lat="45.29379259138159" lon="8.610475278214881"><ele>116.75</ele><time>2026-04-18T09:49:58.002Z</time></trkpt><trkpt lat="45.293688560170146" lon="8.61043424436262"><ele>116.5</ele><time>2026-04-18T09:49:59.002Z</time></trkpt><trkpt lat="45.2935722336742" lon="8.610401995205946"><ele>116.25</ele><time>2026-04-18T09:50:00.002Z</time></trkpt><trkpt lat="45.29346000914655" lon="8.610363473894548"><ele>116.0</ele><time>2026-04-18T09:50:01.002Z</time></trkpt><trkpt lat="45.29335285072325" lon="8.610321451035679"><ele>116.49999999999999</ele><time>2026-04-18T09:50:02.002Z</time></trkpt><trkpt lat="45.29325047633405" lon="8.61028591119769"><ele>117.0</ele><time>2026-04-18T09:50:03.002Z</time></trkpt><trkpt lat="45.29316743712286" lon="8.61025139174476"><ele>117.5</ele><time>2026-04-18T09:50:04.002Z</time></trkpt><trkpt lat="45.29309079936114" lon="8.61021235732138"><ele>118.0</ele><time>2026-04-18T09:50:05.002Z</time></trkpt><trkpt lat="45.29301052020688" lon="8.610166893424442"><ele>118.49999999999999</ele><time>2026-04-18T09:50:06.002Z</time></trkpt><trkpt lat="45.29294863451062" lon="8.610106751108889"><ele>119.0</ele><time>2026-04-18T09:50:07.002Z</time></trkpt><trkpt lat="45.29289392918204" lon="8.609987775948486"><ele>119.0</ele><time>2026-04-18T09:50:08.002Z</time></trkpt><trkpt lat="45.292826329702585" lon="8.609878568199647"><ele>119.0</ele><time>2026-04-18T09:50:09.002Z</time></trkpt><trkpt lat="45.29281704510611" lon="8.609721345821976"><ele>119.0</ele><time>2026-04-18T09:50:10.003Z</time></trkpt><trkpt lat="45.2927900718223" lon="8.609574408785283"><ele>119.0</ele><time>2026-04-18T09:50:11.003Z</time></trkpt><trkpt lat="45.29274822038874" lon="8.609428686755404"><ele>119.0</ele><time>2026-04-18T09:50:12.003Z</time></trkpt><trkpt lat="45.292727974402695" lon="8.60930112915032"><ele>118.83333333333333</ele><time>2026-04-18T09:50:13.003Z</time></trkpt><trkpt lat="45.29269278901213" lon="8.609179972555928"><ele>118.66666666666666</ele><time>2026-04-18T09:50:14.003Z</time></trkpt><trkpt lat="45.29266619112854" lon="8.609068436882485"><ele>118.5</ele><time>2026-04-18T09:50:15.003Z</time></trkpt><trkpt lat="45.29265216642163" lon="8.608970756995555"><ele>118.33333333333334</ele><time>2026-04-18T09:50:16.003Z</time></trkpt><trkpt lat="45.29262266844083" lon="8.608869767701977"><ele>118.16666666666667</ele><time>2026-04-18T09:50:17.003Z</time></trkpt><trkpt lat="45.29259144295917" lon="8.608773757755097"><ele>118.0</ele><time>2026-04-18T09:50:18.003Z</time></trkpt><trkpt lat="45.2925889304414" lon="8.608683717276739"><ele>117.80000000000001</ele><time>2026-04-18T09:50:19.003Z</time></trkpt><trkpt lat="45.29256943380504" lon="8.608595822599009"><ele>117.60000000000001</ele><time>2026-04-18T09:50:20.003Z</time></trkpt><trkpt lat="45.29242163543788" lon="8.60856332255261"><ele>117.39999999999999</ele><time>2026-04-18T09:50:21.003Z</time></trkpt><trkpt lat="45.29234466325383" lon="8.608463749878512"><ele>117.19999999999999</ele><time>2026-04-18T09:50:22.003Z</time></trkpt><trkpt lat="45.29225827737328" lon="8.608379799768722"><ele>117.0</ele><time>2026-04-18T09:50:23.003Z</time></trkpt><trkpt lat="45.29217025559867" lon="8.60830646595451"><ele>117.0</ele><time>2026-04-18T09:50:24.003Z</time></trkpt><trkpt lat="45.29209031237781" lon="8.608210514357433"><ele>116.99999999999999</ele><time>2026-04-18T09:50:25.003Z</time></trkpt><trkpt lat="45.29202366341347" lon="8.608120240368162"><ele>116.99999999999999</ele><time>2026-04-18T09:50:26.003Z</time></trkpt><trkpt lat="45.29195743040414" lon="8.608018491652704"><ele>117.0</ele><time>2026-04-18T09:50:27.003Z</time></trkpt><trkpt lat="45.29190117419211" lon="8.607903606381818"><ele>117.0</ele><time>2026-04-18T09:50:28.003Z</time></trkpt><trkpt lat="45.291851759741355" lon="8.60777858403382"><ele>117.19999999999999</ele><time>2026-04-18T09:50:29.003Z</time></trkpt><trkpt lat="45.2918477293299" lon="8.607638102934562"><ele>117.39999999999999</ele><time>2026-04-18T09:50:30Z</time></trkpt><trkpt lat="45.291816879670165" lon="8.607499665855938"><ele>117.60000000000001</ele><time>2026-04-18T09:50:31Z</time></trkpt><trkpt lat="45.29182099956676" lon="8.607349597530114"><ele>117.80000000000001</ele><time>2026-04-18T09:50:32Z</time></trkpt><trkpt lat="45.29182600276816" lon="8.607214919263816"><ele>118.0</ele><time>2026-04-18T09:50:33Z</time></trkpt><trkpt lat="45.291823394851406" lon="8.607112993720047"><ele>117.80000000000001</ele><time>2026-04-18T09:50:34Z</time></trkpt><trkpt lat="45.29181176221077" lon="8.606960044034498"><ele>117.60000000000001</ele><time>2026-04-18T09:50:36Z</time></trkpt><trkpt lat="45.291776491984265" lon="8.606847121876273"><ele>117.39999999999999</ele><time>2026-04-18T09:50:38Z</time></trkpt><trkpt lat="45.29171710757306" lon="8.606770549250534"><ele>117.19999999999999</ele><time>2026-04-18T09:50:40Z</time></trkpt><trkpt lat="45.291603613766014" lon="8.606707856546302"><ele>117.0</ele><time>2026-04-18T09:50:42Z</time></trkpt><trkpt lat="45.29152569732381" lon="8.60666097931712"><ele>117.0</ele><time>2026-04-18T09:50:43Z</time></trkpt><trkpt lat="45.29144114005614" lon="8.606614305134972"><ele>116.99999999999999</ele><time>2026-04-18T09:50:44Z</time></trkpt><trkpt lat="45.29135073615668" lon="8.606573002608108"><ele>116.99999999999999</ele><time>2026-04-18T09:50:45Z</time></trkpt><trkpt lat="45.29124870555316" lon="8.606518983730554"><ele>117.0</ele><time>2026-04-18T09:50:46Z</time></trkpt><trkpt lat="45.29113386655369" lon="8.606459927245776"><ele>117.0</ele><time>2026-04-18T09:50:47Z</time></trkpt><trkpt lat="45.29103271119952" lon="8.606350999102437"><ele>117.0</ele><time>2026-04-18T09:50:48Z</time></trkpt><trkpt lat="45.29094197890621" lon="8.606221509979017"><ele>117.0</ele><time>2026-04-18T09:50:49Z</time></trkpt><trkpt lat="45.290870504439454" lon="8.60605407133647"><ele>117.0</ele><time>2026-04-18T09:50:50Z</time></trkpt><trkpt lat="45.290834504133635" lon="8.605864157737685"><ele>117.0</ele><time>2026-04-18T09:50:51Z</time></trkpt><trkpt lat="45.29079526187676" lon="8.605671317500596"><ele>117.0</ele><time>2026-04-18T09:50:52Z</time></trkpt><trkpt lat="45.290767465492664" lon="8.60550783295664"><ele>116.99999999999999</ele><time>2026-04-18T09:50:53Z</time></trkpt><trkpt lat="45.29073994527782" lon="8.605366078851839"><ele>116.99999999999999</ele><time>2026-04-18T09:50:54Z</time></trkpt><trkpt lat="45.290699388181956" lon="8.605244798306456"><ele>117.0</ele><time>2026-04-18T09:50:55Z</time></trkpt><trkpt lat="45.29066035243559" lon="8.605125719595481"><ele>117.0</ele><time>2026-04-18T09:50:56Z</time></trkpt><trkpt lat="45.29062137377299" lon="8.605022062078255"><ele>117.19999999999999</ele><time>2026-04-18T09:50:57Z</time></trkpt><trkpt lat="45.29057280378687" lon="8.604918968813163"><ele>117.39999999999999</ele><time>2026-04-18T09:50:58Z</time></trkpt><trkpt lat="45.29049896553083" lon="8.604835790920047"><ele>117.60000000000001</ele><time>2026-04-18T09:50:59Z</time></trkpt><trkpt lat="45.29043992708098" lon="8.604724604880394"><ele>117.80000000000001</ele><time>2026-04-18T09:51:00Z</time></trkpt><trkpt lat="45.29034583503975" lon="8.604651423389605"><ele>118.0</ele><time>2026-04-18T09:51:01Z</time></trkpt><trkpt lat="45.29026281735298" lon="8.604561614904593"><ele>118.16666666666667</ele><time>2026-04-18T09:51:02Z</time></trkpt><trkpt lat="45.29017670485645" lon="8.604480176590046"><ele>118.33333333333334</ele><time>2026-04-18T09:51:03Z</time></trkpt><trkpt lat="45.2900977108258" lon="8.604409531940297"><ele>118.5</ele><time>2026-04-18T09:51:04Z</time></trkpt><trkpt lat="45.29002700117425" lon="8.604348768257648"><ele>118.66666666666666</ele><time>2026-04-18T09:51:05Z</time></trkpt><trkpt lat="45.28996510562701" lon="8.604291055815045"><ele>118.83333333333333</ele><time>2026-04-18T09:51:06Z</time></trkpt><trkpt lat="45.28991226351576" lon="8.604237083158067"><ele>119.0</ele><time>2026-04-18T09:51:07Z</time></trkpt><trkpt lat="45.28982662818371" lon="8.604127057981033"><ele>118.99999999999999</ele><time>2026-04-18T09:51:09.001Z</time></trkpt><trkpt lat="45.289767856788565" lon="8.604034622041173"><ele>119.0</ele><time>2026-04-18T09:51:11.001Z</time></trkpt><trkpt lat="45.28972147976596" lon="8.603935052122077"><ele>119.0</ele><time>2026-04-18T09:51:14.001Z</time></trkpt><trkpt lat="45.289700785361404" lon="8.60379086822919"><ele>119.0</ele><time>2026-04-18T09:51:17.001Z</time></trkpt><trkpt lat="45.289707609336006" lon="8.603690319116762"><ele>118.99999999999999</ele><time>2026-04-18T09:51:18.001Z</time></trkpt><trkpt lat="45.28971127970445" lon="8.603563203877819"><ele>119.0</ele><time>2026-04-18T09:51:19.001Z</time></trkpt><trkpt lat="45.28970969698378" lon="8.603433445155076"><ele>119.0</ele><time>2026-04-18T09:51:20.001Z</time></trkpt><trkpt lat="45.28970542672898" lon="8.603297384348568"><ele>119.0</ele><time>2026-04-18T09:51:21.001Z</time></trkpt><trkpt lat="45.289704652848805" lon="8.603156855203478"><ele>119.0</ele><time>2026-04-18T09:51:22.001Z</time></trkpt><trkpt lat="45.28970119307154" lon="8.60301177642229"><ele>119.0</ele><time>2026-04-18T09:51:23.001Z</time></trkpt><trkpt lat="45.28969796674243" lon="8.602894542118326"><ele>119.0</ele><time>2026-04-18T09:51:24.001Z</time></trkpt><trkpt lat="45.2896969039769" lon="8.602790486436692"><ele>118.80000000000001</ele><time>2026-04-18T09:51:25.001Z</time></trkpt><trkpt lat="45.28969734642183" lon="8.602696313656807"><ele>118.60000000000001</ele><time>2026-04-18T09:51:26.001Z</time></trkpt><trkpt lat="45.28969098988405" lon="8.602540296405289"><ele>118.4</ele><time>2026-04-18T09:51:28.001Z</time></trkpt><trkpt lat="45.28970208226881" lon="8.602424357314609"><ele>118.2</ele><time>2026-04-18T09:51:30.001Z</time></trkpt><trkpt lat="45.28952103065785" lon="8.60239093351307"><ele>118.0</ele><time>2026-04-18T09:51:32.001Z</time></trkpt><trkpt lat="45.289434542493886" lon="8.602390275751377"><ele>118.0</ele><time>2026-04-18T09:51:33.001Z</time></trkpt><trkpt lat="45.28933996564296" lon="8.602383231360086"><ele>118.00000000000001</ele><time>2026-04-18T09:51:34.001Z</time></trkpt><trkpt lat="45.28923219673133" lon="8.602366361205053"><ele>118.00000000000001</ele><time>2026-04-18T09:51:35.001Z</time></trkpt><trkpt lat="45.28911772075666" lon="8.60234532512179"><ele>118.0</ele><time>2026-04-18T09:51:36.001Z</time></trkpt><trkpt lat="45.28899340824163" lon="8.60232451768027"><ele>118.0</ele><time>2026-04-18T09:51:37.001Z</time></trkpt><trkpt lat="45.2888642312738" lon="8.60230758827535"><ele>118.0</ele><time>2026-04-18T09:51:38.001Z</time></trkpt><trkpt lat="45.28873322192819" lon="8.60229303136926"><ele>118.0</ele><time>2026-04-18T09:51:39.001Z</time></trkpt><trkpt lat="45.28859667633577" lon="8.602278924943311"><ele>118.0</ele><time>2026-04-18T09:51:40.001Z</time></trkpt><trkpt lat="45.28845243470843" lon="8.602264180606625"><ele>118.0</ele><time>2026-04-18T09:51:41.001Z</time></trkpt><trkpt lat="45.28830833327888" lon="8.602246978582365"><ele>118.0</ele><time>2026-04-18T09:51:42.002Z</time></trkpt><trkpt lat="45.28816231507155" lon="8.60222183437054"><ele>118.0</ele><time>2026-04-18T09:51:43.002Z</time></trkpt><trkpt lat="45.28801673137638" lon="8.602198877399394"><ele>118.0</ele><time>2026-04-18T09:51:44.002Z</time></trkpt><trkpt lat="45.28787207100259" lon="8.602179254654327"><ele>118.0</ele><time>2026-04-18T09:51:45.002Z</time></trkpt><trkpt lat="45.28772823515907" lon="8.60216130573573"><ele>118.0</ele><time>2026-04-18T09:51:46.002Z</time></trkpt><trkpt lat="45.28758586337742" lon="8.602145071430213"><ele>118.0</ele><time>2026-04-18T09:51:47.002Z</time></trkpt><trkpt lat="45.287443658027016" lon="8.602128239988803"><ele>118.0</ele><time>2026-04-18T09:51:48.002Z</time></trkpt><trkpt lat="45.2873029428445" lon="8.60210932271543"><ele>118.0</ele><time>2026-04-18T09:51:49.002Z</time></trkpt><trkpt lat="45.28716277675924" lon="8.602088986256897"><ele>118.0</ele><time>2026-04-18T09:51:50.002Z</time></trkpt><trkpt lat="45.287035796883806" lon="8.60207388137307"><ele>118.0</ele><time>2026-04-18T09:51:51.002Z</time></trkpt><trkpt lat="45.28691892714517" lon="8.602058236941387"><ele>118.0</ele><time>2026-04-18T09:51:52.002Z</time></trkpt><trkpt lat="45.28681096278998" lon="8.602048155171413"><ele>118.0</ele><time>2026-04-18T09:51:53.002Z</time></trkpt><trkpt lat="45.28671059134458" lon="8.602035311048013"><ele>118.0</ele><time>2026-04-18T09:51:54.002Z</time></trkpt><trkpt lat="45.286618446754275" lon="8.602024729361888"><ele>118.00000000000001</ele><time>2026-04-18T09:51:55.002Z</time></trkpt><trkpt lat="45.286529712696506" lon="8.602012687862429"><ele>118.00000000000001</ele><time>2026-04-18T09:51:56.002Z</time></trkpt><trkpt lat="45.286434115378114" lon="8.601994258342797"><ele>118.0</ele><time>2026-04-18T09:51:57.002Z</time></trkpt><trkpt lat="45.28632319167239" lon="8.601966347249123"><ele>118.0</ele><time>2026-04-18T09:51:58.002Z</time></trkpt><trkpt lat="45.2862051524919" lon="8.601939781181972"><ele>118.0</ele><time>2026-04-18T09:51:59.002Z</time></trkpt><trkpt lat="45.28607705889168" lon="8.60191967225714"><ele>118.0</ele><time>2026-04-18T09:52:00.002Z</time></trkpt><trkpt lat="45.285940590628464" lon="8.601908444535004"><ele>118.0</ele><time>2026-04-18T09:52:01.002Z</time></trkpt><trkpt lat="45.28580262109892" lon="8.601887618132125"><ele>118.0</ele><time>2026-04-18T09:52:02.002Z</time></trkpt><trkpt lat="45.28566035668828" lon="8.601844396980276"><ele>118.0</ele><time>2026-04-18T09:52:03.002Z</time></trkpt><trkpt lat="45.2855174158976" lon="8.60178797178751"><ele>118.0</ele><time>2026-04-18T09:52:04.002Z</time></trkpt><trkpt lat="45.28538642783967" lon="8.601718901652207"><ele>118.0</ele><time>2026-04-18T09:52:05.002Z</time></trkpt><trkpt lat="45.28527336712185" lon="8.601634530973493"><ele>118.0</ele><time>2026-04-18T09:52:06.002Z</time></trkpt><trkpt lat="45.28517042071999" lon="8.60154912316217"><ele>118.0</ele><time>2026-04-18T09:52:07.002Z</time></trkpt><trkpt lat="45.285071336206464" lon="8.601474332419777"><ele>118.0</ele><time>2026-04-18T09:52:08.002Z</time></trkpt><trkpt lat="45.284964613390684" lon="8.601397780287254"><ele>118.0</ele><time>2026-04-18T09:52:09.002Z</time></trkpt><trkpt lat="45.28485453746459" lon="8.601305680805137"><ele>118.0</ele><time>2026-04-18T09:52:10.002Z</time></trkpt><trkpt lat="45.284751350319546" lon="8.601193638100915"><ele>118.25</ele><time>2026-04-18T09:52:11.002Z</time></trkpt><trkpt lat="45.28464859502113" lon="8.601076370783243"><ele>118.5</ele><time>2026-04-18T09:52:12.002Z</time></trkpt><trkpt lat="45.28454886917167" lon="8.600946783880133"><ele>118.75</ele><time>2026-04-18T09:52:13.002Z</time></trkpt><trkpt lat="45.28445710957362" lon="8.600829741254406"><ele>119.0</ele><time>2026-04-18T09:52:14.002Z</time></trkpt><trkpt lat="45.28437677991781" lon="8.600719104523524"><ele>119.0</ele><time>2026-04-18T09:52:15.002Z</time></trkpt><trkpt lat="45.284300727911614" lon="8.600605941653365"><ele>119.0</ele><time>2026-04-18T09:52:16.002Z</time></trkpt><trkpt lat="45.2842217506299" lon="8.600475707289352"><ele>119.0</ele><time>2026-04-18T09:52:17.002Z</time></trkpt><trkpt lat="45.284150413764486" lon="8.600363485282827"><ele>119.0</ele><time>2026-04-18T09:52:18.003Z</time></trkpt><trkpt lat="45.2840864674731" lon="8.600264357529102"><ele>119.0</ele><time>2026-04-18T09:52:19.003Z</time></trkpt><trkpt lat="45.284026238564635" lon="8.600172651855198"><ele>119.16666666666666</ele><time>2026-04-18T09:52:20.003Z</time></trkpt><trkpt lat="45.28397742476856" lon="8.600084105610007"><ele>119.33333333333333</ele><time>2026-04-18T09:52:21.003Z</time></trkpt><trkpt lat="45.283929445653214" lon="8.599989937318584"><ele>119.5</ele><time>2026-04-18T09:52:22.003Z</time></trkpt><trkpt lat="45.283893216585255" lon="8.59990374824998"><ele>119.66666666666666</ele><time>2026-04-18T09:52:23.003Z</time></trkpt><trkpt lat="45.28384146763057" lon="8.599784779307953"><ele>119.83333333333333</ele><time>2026-04-18T09:52:25.003Z</time></trkpt><trkpt lat="45.283814156638385" lon="8.599698332963113"><ele>120.0</ele><time>2026-04-18T09:52:28.003Z</time></trkpt><trkpt lat="45.283772618421594" lon="8.599626093562797"><ele>120.25</ele><time>2026-04-18T09:52:32.003Z</time></trkpt><trkpt lat="45.2835962175206" lon="8.59974978347135"><ele>120.5</ele><time>2026-04-18T09:52:35.999Z</time></trkpt><trkpt lat="45.283531796638435" lon="8.599831984157541"><ele>120.75</ele><time>2026-04-18T09:52:36.999Z</time></trkpt><trkpt lat="45.283460508225296" lon="8.599919171990242"><ele>121.0</ele><time>2026-04-18T09:52:37.999Z</time></trkpt><trkpt lat="45.28337761140695" lon="8.600017655950246"><ele>121.0</ele><time>2026-04-18T09:52:38.999Z</time></trkpt><trkpt lat="45.28328437548225" lon="8.600130103477772"><ele>121.0</ele><time>2026-04-18T09:52:39.999Z</time></trkpt><trkpt lat="45.28318091180227" lon="8.60025909043277"><ele>121.0</ele><time>2026-04-18T09:52:40.999Z</time></trkpt><trkpt lat="45.28307472683098" lon="8.600399416805523"><ele>121.0</ele><time>2026-04-18T09:52:41.999Z</time></trkpt><trkpt lat="45.2829485441296" lon="8.600524977368348"><ele>120.0</ele><time>2026-04-18T09:52:42.999Z</time></trkpt><trkpt lat="45.282839521670724" lon="8.600704931183593"><ele>119.0</ele><time>2026-04-18T09:52:43.999Z</time></trkpt><trkpt lat="45.282704460692685" lon="8.60084449960981"><ele>118.0</ele><time>2026-04-18T09:52:44.999Z</time></trkpt><trkpt lat="45.282571702197686" lon="8.600971124686716"><ele>118.0</ele><time>2026-04-18T09:52:45.999Z</time></trkpt><trkpt lat="45.28244499477842" lon="8.60110192118722"><ele>118.0</ele><time>2026-04-18T09:52:46.999Z</time></trkpt><trkpt lat="45.282338559054395" lon="8.601232028006205"><ele>118.0</ele><time>2026-04-18T09:52:47.999Z</time></trkpt><trkpt lat="45.28223925893616" lon="8.601355866696062"><ele>118.0</ele><time>2026-04-18T09:52:48.999Z</time></trkpt><trkpt lat="45.28214795638092" lon="8.601467804000798"><ele>118.2</ele><time>2026-04-18T09:52:49.999Z</time></trkpt><trkpt lat="45.282060789658296" lon="8.601570773585463"><ele>118.4</ele><time>2026-04-18T09:52:50.999Z</time></trkpt><trkpt lat="45.281978658561194" lon="8.60166151333847"><ele>118.60000000000001</ele><time>2026-04-18T09:52:51.999Z</time></trkpt><trkpt lat="45.28190186944225" lon="8.601748544395035"><ele>118.80000000000001</ele><time>2026-04-18T09:52:53Z</time></trkpt><trkpt lat="45.281831627836034" lon="8.601828999194444"><ele>119.0</ele><time>2026-04-18T09:52:54Z</time></trkpt><trkpt lat="45.28176701471946" lon="8.601899142366285"><ele>119.0</ele><time>2026-04-18T09:52:55Z</time></trkpt><trkpt lat="45.2817083571736" lon="8.601957909168632"><ele>119.0</ele><time>2026-04-18T09:52:56Z</time></trkpt><trkpt lat="45.281602495134806" lon="8.602006652143993"><ele>119.0</ele><time>2026-04-18T09:52:58Z</time></trkpt><trkpt lat="45.28150804141877" lon="8.601921751721262"><ele>119.0</ele><time>2026-04-18T09:53:00Z</time></trkpt><trkpt lat="45.28144969362652" lon="8.601884025872922"><ele>119.0</ele><time>2026-04-18T09:53:01Z</time></trkpt><trkpt lat="45.28134275855419" lon="8.601909677935064"><ele>118.6</ele><time>2026-04-18T09:53:03Z</time></trkpt><trkpt lat="45.28127893558154" lon="8.602062030264927"><ele>118.2</ele><time>2026-04-18T09:53:05Z</time></trkpt><trkpt lat="45.28126191772594" lon="8.602166778989368"><ele>117.79999999999998</ele><time>2026-04-18T09:53:06Z</time></trkpt><trkpt lat="45.2812512636575" lon="8.60228557153089"><ele>117.39999999999999</ele><time>2026-04-18T09:53:07Z</time></trkpt><trkpt lat="45.28122816067487" lon="8.602411486730118"><ele>117.0</ele><time>2026-04-18T09:53:08Z</time></trkpt><trkpt lat="45.28117868419821" lon="8.602526150063671"><ele>117.0</ele><time>2026-04-18T09:53:09Z</time></trkpt><trkpt lat="45.28113639850506" lon="8.602659714547617"><ele>117.0</ele><time>2026-04-18T09:53:10Z</time></trkpt><trkpt lat="45.281024755717596" lon="8.602758706019271"><ele>117.0</ele><time>2026-04-18T09:53:11Z</time></trkpt><trkpt lat="45.28093639046519" lon="8.60287482775108"><ele>117.0</ele><time>2026-04-18T09:53:12Z</time></trkpt><trkpt lat="45.28084325963677" lon="8.602992489824604"><ele>117.0</ele><time>2026-04-18T09:53:13Z</time></trkpt><trkpt lat="45.280741894309436" lon="8.603115173526136"><ele>117.0</ele><time>2026-04-18T09:53:14Z</time></trkpt><trkpt lat="45.280638086007336" lon="8.603236579651291"><ele>117.0</ele><time>2026-04-18T09:53:15Z</time></trkpt><trkpt lat="45.2805337541383" lon="8.603357459121089"><ele>117.0</ele><time>2026-04-18T09:53:16Z</time></trkpt><trkpt lat="45.280432581112265" lon="8.603476393883938"><ele>117.0</ele><time>2026-04-18T09:53:17Z</time></trkpt><trkpt lat="45.280332858750455" lon="8.603592952202701"><ele>117.0</ele><time>2026-04-18T09:53:18Z</time></trkpt><trkpt lat="45.280235323087986" lon="8.603708005220627"><ele>117.0</ele><time>2026-04-18T09:53:19.001Z</time></trkpt><trkpt lat="45.28013896174425" lon="8.60382308247553"><ele>117.0</ele><time>2026-04-18T09:53:20.001Z</time></trkpt><trkpt lat="45.28004559421692" lon="8.603935767921204"><ele>117.0</ele><time>2026-04-18T09:53:21.001Z</time></trkpt><trkpt lat="45.279953649238855" lon="8.604045048432226"><ele>117.0</ele><time>2026-04-18T09:53:22.001Z</time></trkpt><trkpt lat="45.27986222631179" lon="8.604151722750883"><ele>117.0</ele><time>2026-04-18T09:53:23.001Z</time></trkpt><trkpt lat="45.27977221762204" lon="8.604254366758221"><ele>117.0</ele><time>2026-04-18T09:53:24.001Z</time></trkpt><trkpt lat="45.279682420749715" lon="8.604361261143808"><ele>116.75</ele><time>2026-04-18T09:53:25.001Z</time></trkpt><trkpt lat="45.279591826249046" lon="8.604473230216204"><ele>116.5</ele><time>2026-04-18T09:53:26.001Z</time></trkpt><trkpt lat="45.279498189298614" lon="8.60458177364778"><ele>116.25</ele><time>2026-04-18T09:53:27.001Z</time></trkpt><trkpt lat="45.27940003903469" lon="8.6046995190153"><ele>116.0</ele><time>2026-04-18T09:53:28.001Z</time></trkpt><trkpt lat="45.279304863560164" lon="8.604816209937995"><ele>116.0</ele><time>2026-04-18T09:53:29.001Z</time></trkpt><trkpt lat="45.27921789136893" lon="8.604919290019263"><ele>116.0</ele><time>2026-04-18T09:53:30.001Z</time></trkpt><trkpt lat="45.27914589207347" lon="8.60500828578932"><ele>116.0</ele><time>2026-04-18T09:53:31.001Z</time></trkpt><trkpt lat="45.279074143025646" lon="8.605078700376211"><ele>116.0</ele><time>2026-04-18T09:53:32.001Z</time></trkpt><trkpt lat="45.27899968420241" lon="8.60511698187052"><ele>116.0</ele><time>2026-04-18T09:53:33.001Z</time></trkpt><trkpt lat="45.27888893254767" lon="8.605060611748184"><ele>116.0</ele><time>2026-04-18T09:53:34.001Z</time></trkpt><trkpt lat="45.278779159431906" lon="8.605058114932215"><ele>116.0</ele><time>2026-04-18T09:53:35.001Z</time></trkpt><trkpt lat="45.27865923511046" lon="8.60504986702963"><ele>116.0</ele><time>2026-04-18T09:53:36.001Z</time></trkpt><trkpt lat="45.27853941858116" lon="8.605023375462133"><ele>116.0</ele><time>2026-04-18T09:53:37.001Z</time></trkpt><trkpt lat="45.278406337777525" lon="8.605001928500206"><ele>116.0</ele><time>2026-04-18T09:53:38.001Z</time></trkpt><trkpt lat="45.2782693151347" lon="8.60497463013056"><ele>116.0</ele><time>2026-04-18T09:53:39.001Z</time></trkpt><trkpt lat="45.27812737682639" lon="8.604964469885088"><ele>116.0</ele><time>2026-04-18T09:53:40.001Z</time></trkpt><trkpt lat="45.27798575561422" lon="8.60491810715012"><ele>116.0</ele><time>2026-04-18T09:53:41.001Z</time></trkpt><trkpt lat="45.27784168216722" lon="8.604856175800784"><ele>115.33333333333333</ele><time>2026-04-18T09:53:42.001Z</time></trkpt><trkpt lat="45.27769262622988" lon="8.604812894491296"><ele>114.66666666666666</ele><time>2026-04-18T09:53:43.001Z</time></trkpt><trkpt lat="45.2775401384707" lon="8.60477006879634"><ele>114.0</ele><time>2026-04-18T09:53:44.001Z</time></trkpt><trkpt lat="45.27738755166883" lon="8.604727215301383"><ele>114.33333333333334</ele><time>2026-04-18T09:53:45.001Z</time></trkpt><trkpt lat="45.27722993014932" lon="8.604702578516418"><ele>114.66666666666667</ele><time>2026-04-18T09:53:46.001Z</time></trkpt><trkpt lat="45.277076403168984" lon="8.604639830261588"><ele>115.0</ele><time>2026-04-18T09:53:47.001Z</time></trkpt><trkpt lat="45.276915928285845" lon="8.604594761402561"><ele>115.0</ele><time>2026-04-18T09:53:48.001Z</time></trkpt><trkpt lat="45.27675665789437" lon="8.604552227830604"><ele>115.0</ele><time>2026-04-18T09:53:49.001Z</time></trkpt><trkpt lat="45.27659475303922" lon="8.604512494189114"><ele>115.0</ele><time>2026-04-18T09:53:50.001Z</time></trkpt><trkpt lat="45.27643007225555" lon="8.60447242644957"><ele>115.0</ele><time>2026-04-18T09:53:51.002Z</time></trkpt><trkpt lat="45.2762681989196" lon="8.604429231523735"><ele>115.0</ele><time>2026-04-18T09:53:52.002Z</time></trkpt><trkpt lat="45.2761187314897" lon="8.604385704626393"><ele>115.0</ele><time>2026-04-18T09:53:53.002Z</time></trkpt><trkpt lat="45.27598047148161" lon="8.604349936720896"><ele>115.0</ele><time>2026-04-18T09:53:54.002Z</time></trkpt><trkpt lat="45.275856078764576" lon="8.604323118894618"><ele>115.0</ele><time>2026-04-18T09:53:55.002Z</time></trkpt><trkpt lat="45.27571850806816" lon="8.604314656636772"><ele>115.0</ele><time>2026-04-18T09:53:56.002Z</time></trkpt><trkpt lat="45.275578622990345" lon="8.604320258478594"><ele>115.0</ele><time>2026-04-18T09:53:57.002Z</time></trkpt><trkpt lat="45.27543718033378" lon="8.604333109062546"><ele>115.0</ele><time>2026-04-18T09:53:58.002Z</time></trkpt><trkpt lat="45.275288414364134" lon="8.604348940770508"><ele>115.0</ele><time>2026-04-18T09:53:59.002Z</time></trkpt><trkpt lat="45.27513840824472" lon="8.604361873270848"><ele>115.0</ele><time>2026-04-18T09:54:00.002Z</time></trkpt><trkpt lat="45.274990407848534" lon="8.604372397932393"><ele>115.0</ele><time>2026-04-18T09:54:01.002Z</time></trkpt><trkpt lat="45.27483413077636" lon="8.60438237024651"><ele>115.0</ele><time>2026-04-18T09:54:02.002Z</time></trkpt><trkpt lat="45.27469504656263" lon="8.604389183439713"><ele>115.0</ele><time>2026-04-18T09:54:03.002Z</time></trkpt><trkpt lat="45.2745704067093" lon="8.604395289067144"><ele>115.0</ele><time>2026-04-18T09:54:04.002Z</time></trkpt><trkpt lat="45.27445562801682" lon="8.604400911623696"><ele>115.0</ele><time>2026-04-18T09:54:05.002Z</time></trkpt><trkpt lat="45.27434883301024" lon="8.604403360993219"><ele>115.0</ele><time>2026-04-18T09:54:06.002Z</time></trkpt><trkpt lat="45.274244573779185" lon="8.604405516226583"><ele>115.0</ele><time>2026-04-18T09:54:07.002Z</time></trkpt><trkpt lat="45.27413356916327" lon="8.604442538921345"><ele>115.0</ele><time>2026-04-18T09:54:08.002Z</time></trkpt><trkpt lat="45.27401789727465" lon="8.604453231843658"><ele>115.0</ele><time>2026-04-18T09:54:09.002Z</time></trkpt><trkpt lat="45.273911539728985" lon="8.604555847884953"><ele>115.25</ele><time>2026-04-18T09:54:10.002Z</time></trkpt><trkpt lat="45.27380920511332" lon="8.604630407579664"><ele>115.5</ele><time>2026-04-18T09:54:11.002Z</time></trkpt><trkpt lat="45.27371767203543" lon="8.60470429670129"><ele>115.75</ele><time>2026-04-18T09:54:12.002Z</time></trkpt><trkpt lat="45.27361849009711" lon="8.604792368208628"><ele>116.0</ele><time>2026-04-18T09:54:13.002Z</time></trkpt><trkpt lat="45.27350608424868" lon="8.604878952137943"><ele>116.0</ele><time>2026-04-18T09:54:14.002Z</time></trkpt><trkpt lat="45.273376921442996" lon="8.60497624499784"><ele>116.0</ele><time>2026-04-18T09:54:15.002Z</time></trkpt><trkpt lat="45.27324299096471" lon="8.605062151027155"><ele>116.0</ele><time>2026-04-18T09:54:16.002Z</time></trkpt><trkpt lat="45.2730961420746" lon="8.605154580989506"><ele>115.33333333333333</ele><time>2026-04-18T09:54:17.002Z</time></trkpt><trkpt lat="45.27294575579871" lon="8.605258692593242"><ele>114.66666666666666</ele><time>2026-04-18T09:54:18.002Z</time></trkpt><trkpt lat="45.27279071563107" lon="8.605361413493878"><ele>114.0</ele><time>2026-04-18T09:54:19.002Z</time></trkpt><trkpt lat="45.27263389525887" lon="8.605469311855716"><ele>114.0</ele><time>2026-04-18T09:54:20.002Z</time></trkpt><trkpt lat="45.27247565435661" lon="8.60557522863672"><ele>114.0</ele><time>2026-04-18T09:54:21.002Z</time></trkpt><trkpt lat="45.272315342434105" lon="8.605682702161957"><ele>114.0</ele><time>2026-04-18T09:54:22.002Z</time></trkpt><trkpt lat="45.272155262140025" lon="8.60579010609834"><ele>114.33333333333334</ele><time>2026-04-18T09:54:23.002Z</time></trkpt><trkpt lat="45.271993398635665" lon="8.60589532243992"><ele>114.66666666666667</ele><time>2026-04-18T09:54:24.003Z</time></trkpt><trkpt lat="45.271848596919426" lon="8.605992199851576"><ele>115.0</ele><time>2026-04-18T09:54:25.003Z</time></trkpt><trkpt lat="45.27171786482072" lon="8.606077212122264"><ele>115.0</ele><time>2026-04-18T09:54:26.003Z</time></trkpt><trkpt lat="45.271590820163695" lon="8.606151779657571"><ele>115.0</ele><time>2026-04-18T09:54:27.003Z</time></trkpt><trkpt lat="45.271452402318616" lon="8.60621865308069"><ele>115.0</ele><time>2026-04-18T09:54:28.003Z</time></trkpt><trkpt lat="45.2713079308564" lon="8.606266799841052"><ele>115.0</ele><time>2026-04-18T09:54:29.003Z</time></trkpt><trkpt lat="45.27115836016174" lon="8.606308149569726"><ele>115.0</ele><time>2026-04-18T09:54:30.003Z</time></trkpt><trkpt lat="45.271004243399375" lon="8.606352232549932"><ele>115.0</ele><time>2026-04-18T09:54:31.003Z</time></trkpt><trkpt lat="45.27085622187921" lon="8.606399345535351"><ele>115.0</ele><time>2026-04-18T09:54:32.003Z</time></trkpt><trkpt lat="45.27069987769988" lon="8.606453712196272"><ele>115.5</ele><time>2026-04-18T09:54:33.003Z</time></trkpt><trkpt lat="45.270545457281074" lon="8.606512197010899"><ele>116.0</ele><time>2026-04-18T09:54:34.003Z</time></trkpt><trkpt lat="45.270400209733694" lon="8.606557435449858"><ele>116.5</ele><time>2026-04-18T09:54:35.003Z</time></trkpt><trkpt lat="45.27027135439645" lon="8.606593789622751"><ele>117.0</ele><time>2026-04-18T09:54:36.003Z</time></trkpt><trkpt lat="45.27014000408091" lon="8.606634005984793"><ele>117.0</ele><time>2026-04-18T09:54:37.003Z</time></trkpt><trkpt lat="45.27000789723017" lon="8.606677720637537"><ele>117.0</ele><time>2026-04-18T09:54:38.003Z</time></trkpt><trkpt lat="45.26988656562764" lon="8.606718286701776"><ele>117.0</ele><time>2026-04-18T09:54:39.003Z</time></trkpt><trkpt lat="45.26977709660167" lon="8.606749250717174"><ele>117.0</ele><time>2026-04-18T09:54:40.003Z</time></trkpt><trkpt lat="45.26967428195023" lon="8.60678757990372"><ele>116.5</ele><time>2026-04-18T09:54:41.003Z</time></trkpt><trkpt lat="45.26956463122688" lon="8.606838812170468"><ele>116.0</ele><time>2026-04-18T09:54:41.999Z</time></trkpt><trkpt lat="45.26945214193045" lon="8.606902112054563"><ele>115.5</ele><time>2026-04-18T09:54:42.999Z</time></trkpt><trkpt lat="45.26933311369848" lon="8.606986591955666"><ele>115.0</ele><time>2026-04-18T09:54:43.999Z</time></trkpt><trkpt lat="45.269208088416235" lon="8.607085779829422"><ele>115.0</ele><time>2026-04-18T09:54:44.999Z</time></trkpt><trkpt lat="45.26909586678267" lon="8.607186253707535"><ele>115.0</ele><time>2026-04-18T09:54:45.999Z</time></trkpt><trkpt lat="45.26899255256619" lon="8.607288453648719"><ele>115.0</ele><time>2026-04-18T09:54:46.999Z</time></trkpt><trkpt lat="45.268882500406846" lon="8.607391785259328"><ele>115.0</ele><time>2026-04-18T09:54:47.999Z</time></trkpt><trkpt lat="45.268770540738586" lon="8.607483024560665"><ele>115.0</ele><time>2026-04-18T09:54:48.999Z</time></trkpt><trkpt lat="45.26865745202584" lon="8.607560589251632"><ele>115.0</ele><time>2026-04-18T09:54:50Z</time></trkpt><trkpt lat="45.26854819163879" lon="8.607633192838767"><ele>115.0</ele><time>2026-04-18T09:54:51Z</time></trkpt><trkpt lat="45.26844243022677" lon="8.607696848413458"><ele>115.0</ele><time>2026-04-18T09:54:52Z</time></trkpt><trkpt lat="45.26833913593322" lon="8.607736695847768"><ele>115.0</ele><time>2026-04-18T09:54:53Z</time></trkpt><trkpt lat="45.268220776205126" lon="8.607766984414692"><ele>115.0</ele><time>2026-04-18T09:54:54Z</time></trkpt><trkpt lat="45.26808671006285" lon="8.607789472837933"><ele>115.0</ele><time>2026-04-18T09:54:55Z</time></trkpt><trkpt lat="45.26794401462444" lon="8.607810439345167"><ele>115.0</ele><time>2026-04-18T09:54:56Z</time></trkpt><trkpt lat="45.26779932361686" lon="8.607828208802589"><ele>114.66666666666667</ele><time>2026-04-18T09:54:57Z</time></trkpt><trkpt lat="45.26764715374041" lon="8.607846090120066"><ele>114.33333333333334</ele><time>2026-04-18T09:54:58Z</time></trkpt><trkpt lat="45.267487743698155" lon="8.607869657242867"><ele>114.0</ele><time>2026-04-18T09:54:59Z</time></trkpt><trkpt lat="45.267328459059605" lon="8.60789103193064"><ele>113.66666666666666</ele><time>2026-04-18T09:55:00Z</time></trkpt><trkpt lat="45.2671665215139" lon="8.607913439429772"><ele>113.33333333333333</ele><time>2026-04-18T09:55:01Z</time></trkpt><trkpt lat="45.26700788869114" lon="8.607935670452699"><ele>113.0</ele><time>2026-04-18T09:55:02Z</time></trkpt><trkpt lat="45.266845802991256" lon="8.607958190731516"><ele>113.0</ele><time>2026-04-18T09:55:03Z</time></trkpt><trkpt lat="45.26668762130626" lon="8.607983182551797"><ele>113.0</ele><time>2026-04-18T09:55:04Z</time></trkpt><trkpt lat="45.26654304730412" lon="8.608010343356472"><ele>113.0</ele><time>2026-04-18T09:55:05Z</time></trkpt><trkpt lat="45.26640614326969" lon="8.608042597742246"><ele>113.0</ele><time>2026-04-18T09:55:06Z</time></trkpt><trkpt lat="45.26626568995988" lon="8.608075240732123"><ele>113.0</ele><time>2026-04-18T09:55:07Z</time></trkpt><trkpt lat="45.266120681940514" lon="8.608106385228425"><ele>113.0</ele><time>2026-04-18T09:55:08Z</time></trkpt><trkpt lat="45.26597488197608" lon="8.608132701261114"><ele>113.0</ele><time>2026-04-18T09:55:09Z</time></trkpt><trkpt lat="45.26583019221191" lon="8.608153634217397"><ele>113.0</ele><time>2026-04-18T09:55:10Z</time></trkpt><trkpt lat="45.26568103193248" lon="8.608166824333546"><ele>113.66666666666666</ele><time>2026-04-18T09:55:11Z</time></trkpt><trkpt lat="45.26553349146715" lon="8.608169300858238"><ele>114.33333333333334</ele><time>2026-04-18T09:55:12Z</time></trkpt><trkpt lat="45.2653740618704" lon="8.608139883270152"><ele>115.0</ele><time>2026-04-18T09:55:13Z</time></trkpt><trkpt lat="45.26522246381854" lon="8.608143659181327"><ele>115.0</ele><time>2026-04-18T09:55:14Z</time></trkpt><trkpt lat="45.26506928013309" lon="8.608122600102389"><ele>115.0</ele><time>2026-04-18T09:55:15.001Z</time></trkpt><trkpt lat="45.2649095731627" lon="8.608109738785222"><ele>115.0</ele><time>2026-04-18T09:55:16.001Z</time></trkpt><trkpt lat="45.26475219528755" lon="8.608096660904012"><ele>114.66666666666667</ele><time>2026-04-18T09:55:17.001Z</time></trkpt><trkpt lat="45.264591896830524" lon="8.608086555662467"><ele>114.33333333333334</ele><time>2026-04-18T09:55:18.001Z</time></trkpt><trkpt lat="45.264432055571866" lon="8.608079249957513"><ele>114.0</ele><time>2026-04-18T09:55:19.001Z</time></trkpt><trkpt lat="45.26427746196877" lon="8.608072742423982"><ele>114.0</ele><time>2026-04-18T09:55:20.001Z</time></trkpt><trkpt lat="45.26414271347512" lon="8.60806766971473"><ele>114.0</ele><time>2026-04-18T09:55:21.001Z</time></trkpt><trkpt lat="45.264016316104424" lon="8.608064072568165"><ele>114.0</ele><time>2026-04-18T09:55:22.001Z</time></trkpt><trkpt lat="45.26390243092704" lon="8.608057257771257"><ele>114.0</ele><time>2026-04-18T09:55:23.001Z</time></trkpt><trkpt lat="45.263784214394235" lon="8.608052017694595"><ele>113.75</ele><time>2026-04-18T09:55:24.001Z</time></trkpt><trkpt lat="45.26366096198084" lon="8.60805152662132"><ele>113.5</ele><time>2026-04-18T09:55:25.001Z</time></trkpt><trkpt lat="45.26353561881864" lon="8.608030727886613"><ele>113.25</ele><time>2026-04-18T09:55:26.001Z</time></trkpt><trkpt lat="45.263411279460755" lon="8.608041194424537"><ele>113.0</ele><time>2026-04-18T09:55:27.001Z</time></trkpt><trkpt lat="45.2632909822999" lon="8.608092081720965"><ele>113.0</ele><time>2026-04-18T09:55:28.001Z</time></trkpt><trkpt lat="45.26316320267316" lon="8.608126420178452"><ele>113.0</ele><time>2026-04-18T09:55:29.001Z</time></trkpt><trkpt lat="45.26303341949301" lon="8.608184916987073"><ele>113.0</ele><time>2026-04-18T09:55:30.001Z</time></trkpt><trkpt lat="45.26289498986721" lon="8.608250277252772"><ele>113.0</ele><time>2026-04-18T09:55:31.001Z</time></trkpt><trkpt lat="45.26276430945059" lon="8.608315020731233"><ele>113.0</ele><time>2026-04-18T09:55:32.001Z</time></trkpt><trkpt lat="45.26262374053225" lon="8.608374098057064"><ele>113.0</ele><time>2026-04-18T09:55:33.001Z</time></trkpt><trkpt lat="45.26248020655483" lon="8.608437507625332"><ele>113.0</ele><time>2026-04-18T09:55:34.001Z</time></trkpt><trkpt lat="45.26234478367882" lon="8.608478399222847"><ele>113.0</ele><time>2026-04-18T09:55:35.001Z</time></trkpt><trkpt lat="45.262233299359806" lon="8.608549019556381"><ele>113.0</ele><time>2026-04-18T09:55:36.001Z</time></trkpt><trkpt lat="45.26211755671367" lon="8.608604323644638"><ele>113.0</ele><time>2026-04-18T09:55:37.001Z</time></trkpt><trkpt lat="45.26198738000119" lon="8.608645315348696"><ele>113.0</ele><time>2026-04-18T09:55:38.001Z</time></trkpt><trkpt lat="45.261865202022456" lon="8.608717826714708"><ele>113.0</ele><time>2026-04-18T09:55:39.001Z</time></trkpt><trkpt lat="45.26173930056362" lon="8.60876947603264"><ele>113.0</ele><time>2026-04-18T09:55:40.001Z</time></trkpt><trkpt lat="45.261611999021945" lon="8.608807947404406"><ele>113.0</ele><time>2026-04-18T09:55:41.001Z</time></trkpt><trkpt lat="45.26148338702996" lon="8.608844676828921"><ele>113.0</ele><time>2026-04-18T09:55:42.001Z</time></trkpt><trkpt lat="45.26134279221991" lon="8.608883261509021"><ele>113.0</ele><time>2026-04-18T09:55:43.001Z</time></trkpt><trkpt lat="45.26120419840813" lon="8.608901612574794"><ele>113.0</ele><time>2026-04-18T09:55:44.001Z</time></trkpt><trkpt lat="45.26105845150924" lon="8.608911218629693"><ele>113.0</ele><time>2026-04-18T09:55:45.002Z</time></trkpt><trkpt lat="45.26091919787476" lon="8.608917466274942"><ele>113.0</ele><time>2026-04-18T09:55:46.002Z</time></trkpt><trkpt lat="45.26077650962798" lon="8.608920130167864"><ele>113.0</ele><time>2026-04-18T09:55:47.002Z</time></trkpt><trkpt lat="45.260628833796936" lon="8.608926065179576"><ele>113.33333333333333</ele><time>2026-04-18T09:55:48.002Z</time></trkpt><trkpt lat="45.26048016654647" lon="8.608936155150431"><ele>113.66666666666666</ele><time>2026-04-18T09:55:49.002Z</time></trkpt><trkpt lat="45.26033045116852" lon="8.608944581573384"><ele>114.0</ele><time>2026-04-18T09:55:50.002Z</time></trkpt><trkpt lat="45.26017736845395" lon="8.608952874268189"><ele>114.0</ele><time>2026-04-18T09:55:51.002Z</time></trkpt><trkpt lat="45.26002327284039" lon="8.608965251838164"><ele>114.0</ele><time>2026-04-18T09:55:52.002Z</time></trkpt><trkpt lat="45.25987116222439" lon="8.608985089898406"><ele>114.0</ele><time>2026-04-18T09:55:53.002Z</time></trkpt><trkpt lat="45.25973938148917" lon="8.60899384128683"><ele>114.0</ele><time>2026-04-18T09:55:54.002Z</time></trkpt><trkpt lat="45.259615178269115" lon="8.608998154467244"><ele>113.75</ele><time>2026-04-18T09:55:55.002Z</time></trkpt><trkpt lat="45.25950046647404" lon="8.60899945112916"><ele>113.5</ele><time>2026-04-18T09:55:56.002Z</time></trkpt><trkpt lat="45.25937080655784" lon="8.609011794948737"><ele>113.25</ele><time>2026-04-18T09:55:57.002Z</time></trkpt><trkpt lat="45.25923479764786" lon="8.60902727102731"><ele>113.0</ele><time>2026-04-18T09:55:58.002Z</time></trkpt><trkpt lat="45.25909603112966" lon="8.60906281958926"><ele>113.0</ele><time>2026-04-18T09:55:59.002Z</time></trkpt><trkpt lat="45.25895429964189" lon="8.609102667627864"><ele>113.0</ele><time>2026-04-18T09:56:00.002Z</time></trkpt><trkpt lat="45.25880975122227" lon="8.609138773182854"><ele>113.0</ele><time>2026-04-18T09:56:01.002Z</time></trkpt><trkpt lat="45.25866087942017" lon="8.60917548860986"><ele>113.0</ele><time>2026-04-18T09:56:02.002Z</time></trkpt><trkpt lat="45.25851043203483" lon="8.609215860740276"><ele>112.75</ele><time>2026-04-18T09:56:03.002Z</time></trkpt><trkpt lat="45.25837610598162" lon="8.60924673561197"><ele>112.5</ele><time>2026-04-18T09:56:04.002Z</time></trkpt><trkpt lat="45.25825496193392" lon="8.609265162797316"><ele>112.25</ele><time>2026-04-18T09:56:05.002Z</time></trkpt><trkpt lat="45.25814129724154" lon="8.609270915578639"><ele>112.0</ele><time>2026-04-18T09:56:06.002Z</time></trkpt><trkpt lat="45.25802538611767" lon="8.60927052827405"><ele>112.0</ele><time>2026-04-18T09:56:07.002Z</time></trkpt><trkpt lat="45.25790306342831" lon="8.609269944829105"><ele>112.0</ele><time>2026-04-18T09:56:08.002Z</time></trkpt><trkpt lat="45.25778706872032" lon="8.609259571779624"><ele>112.0</ele><time>2026-04-18T09:56:09.002Z</time></trkpt><trkpt lat="45.25767318757821" lon="8.609228801194924"><ele>112.0</ele><time>2026-04-18T09:56:10.002Z</time></trkpt><trkpt lat="45.257559646529415" lon="8.609173953698633"><ele>112.0</ele><time>2026-04-18T09:56:11.002Z</time></trkpt><trkpt lat="45.257449821453484" lon="8.609065110991654"><ele>112.0</ele><time>2026-04-18T09:56:12.002Z</time></trkpt><trkpt lat="45.25732601404132" lon="8.608954742875662"><ele>112.0</ele><time>2026-04-18T09:56:13.002Z</time></trkpt><trkpt lat="45.257189897771916" lon="8.608859033688969"><ele>112.0</ele><time>2026-04-18T09:56:14.002Z</time></trkpt><trkpt lat="45.257070848643345" lon="8.608742439803892"><ele>112.6</ele><time>2026-04-18T09:56:15.002Z</time></trkpt><trkpt lat="45.25696387846338" lon="8.608639161063667"><ele>113.19999999999999</ele><time>2026-04-18T09:56:16.002Z</time></trkpt><trkpt lat="45.2568697398844" lon="8.608550562136566"><ele>113.8</ele><time>2026-04-18T09:56:17.003Z</time></trkpt><trkpt lat="45.25677588335685" lon="8.608471106569304"><ele>114.4</ele><time>2026-04-18T09:56:18.003Z</time></trkpt><trkpt lat="45.25669462968767" lon="8.608402201618395"><ele>115.0</ele><time>2026-04-18T09:56:19.003Z</time></trkpt><trkpt lat="45.25662201599928" lon="8.60833986746263"><ele>115.0</ele><time>2026-04-18T09:56:20.003Z</time></trkpt><trkpt lat="45.256564544775884" lon="8.608273348453883"><ele>115.0</ele><time>2026-04-18T09:56:21.003Z</time></trkpt><trkpt lat="45.256466537466956" lon="8.608227736433246"><ele>115.0</ele><time>2026-04-18T09:56:23.003Z</time></trkpt><trkpt lat="45.25637461790775" lon="8.608206450888444"><ele>115.0</ele><time>2026-04-18T09:56:25.003Z</time></trkpt><trkpt lat="45.256278263750495" lon="8.608236045929456"><ele>115.0</ele><time>2026-04-18T09:56:27.003Z</time></trkpt><trkpt lat="45.256166230335616" lon="8.608291402864513"><ele>114.83333333333334</ele><time>2026-04-18T09:56:29.003Z</time></trkpt><trkpt lat="45.25608046593596" lon="8.608364605450797"><ele>114.66666666666667</ele><time>2026-04-18T09:56:31.003Z</time></trkpt><trkpt lat="45.25601672676533" lon="8.60842262667464"><ele>114.5</ele><time>2026-04-18T09:56:34.003Z</time></trkpt><trkpt lat="45.255942539544286" lon="8.608302800874332"><ele>114.33333333333334</ele><time>2026-04-18T09:56:37.003Z</time></trkpt><trkpt lat="45.255930226316494" lon="8.60818763930192"><ele>114.16666666666667</ele><time>2026-04-18T09:56:38.003Z</time></trkpt><trkpt lat="45.25591926191481" lon="8.608081649846593"><ele>114.0</ele><time>2026-04-18T09:56:39.003Z</time></trkpt><trkpt lat="45.25590150837903" lon="8.607960883514886"><ele>114.0</ele><time>2026-04-18T09:56:40.003Z</time></trkpt><trkpt lat="45.255881231028226" lon="8.60783231404939"><ele>114.0</ele><time>2026-04-18T09:56:41.003Z</time></trkpt><trkpt lat="45.255859334904834" lon="8.607695356811584"><ele>114.0</ele><time>2026-04-18T09:56:42.003Z</time></trkpt><trkpt lat="45.25584006239938" lon="8.607539462856323"><ele>114.0</ele><time>2026-04-18T09:56:43.003Z</time></trkpt><trkpt lat="45.255822275707125" lon="8.607378290816456"><ele>114.0</ele><time>2026-04-18T09:56:44.003Z</time></trkpt><trkpt lat="45.25581072045836" lon="8.607214695379461"><ele>114.0</ele><time>2026-04-18T09:56:45.003Z</time></trkpt><trkpt lat="45.255795999353545" lon="8.607048992537232"><ele>114.0</ele><time>2026-04-18T09:56:46.003Z</time></trkpt><trkpt lat="45.2557772316071" lon="8.606881645374274"><ele>114.0</ele><time>2026-04-18T09:56:47.003Z</time></trkpt><trkpt lat="45.255762730343996" lon="8.606710821696995"><ele>114.0</ele><time>2026-04-18T09:56:48Z</time></trkpt><trkpt lat="45.255754160618764" lon="8.606543419075829"><ele>113.80000000000001</ele><time>2026-04-18T09:56:49Z</time></trkpt><trkpt lat="45.25573483044385" lon="8.606379558893474"><ele>113.60000000000001</ele><time>2026-04-18T09:56:50Z</time></trkpt><trkpt lat="45.255722602370604" lon="8.60623140058124"><ele>113.4</ele><time>2026-04-18T09:56:51Z</time></trkpt><trkpt lat="45.25571342334405" lon="8.606102217149749"><ele>113.2</ele><time>2026-04-18T09:56:52Z</time></trkpt><trkpt lat="45.255703179850904" lon="8.605983709723219"><ele>113.0</ele><time>2026-04-18T09:56:53Z</time></trkpt><trkpt lat="45.255688550872804" lon="8.605844438466606"><ele>113.0</ele><time>2026-04-18T09:56:54Z</time></trkpt><trkpt lat="45.25567583987197" lon="8.605691165119813"><ele>113.0</ele><time>2026-04-18T09:56:55Z</time></trkpt><trkpt lat="45.25566872119501" lon="8.605530149160598"><ele>113.0</ele><time>2026-04-18T09:56:56Z</time></trkpt><trkpt lat="45.25566298985278" lon="8.605362172812708"><ele>113.0</ele><time>2026-04-18T09:56:57Z</time></trkpt><trkpt lat="45.25565719911758" lon="8.605205956724621"><ele>113.0</ele><time>2026-04-18T09:56:58Z</time></trkpt><trkpt lat="45.25564952456916" lon="8.605069734358286"><ele>113.00000000000001</ele><time>2026-04-18T09:56:59Z</time></trkpt><trkpt lat="45.25563428555452" lon="8.604949342271254"><ele>113.00000000000001</ele><time>2026-04-18T09:57:00Z</time></trkpt><trkpt lat="45.25557254730092" lon="8.604841247497825"><ele>113.0</ele><time>2026-04-18T09:57:01Z</time></trkpt><trkpt lat="45.25549085561026" lon="8.604718032340873"><ele>113.0</ele><time>2026-04-18T09:57:02Z</time></trkpt><trkpt lat="45.25537515557249" lon="8.604640429739288"><ele>112.75</ele><time>2026-04-18T09:57:03Z</time></trkpt><trkpt lat="45.255273848406496" lon="8.604541665978331"><ele>112.5</ele><time>2026-04-18T09:57:04Z</time></trkpt><trkpt lat="45.255175136789994" lon="8.604441837635012"><ele>112.25</ele><time>2026-04-18T09:57:05Z</time></trkpt><trkpt lat="45.25507087324869" lon="8.604353556751304"><ele>112.0</ele><time>2026-04-18T09:57:06Z</time></trkpt><trkpt lat="45.25496590475838" lon="8.604259038958958"><ele>112.0</ele><time>2026-04-18T09:57:07Z</time></trkpt><trkpt lat="45.254869565222585" lon="8.604152227053294"><ele>112.0</ele><time>2026-04-18T09:57:08Z</time></trkpt><trkpt lat="45.254772509626925" lon="8.604043594062865"><ele>112.0</ele><time>2026-04-18T09:57:09Z</time></trkpt><trkpt lat="45.25467698596064" lon="8.603940821366457"><ele>112.0</ele><time>2026-04-18T09:57:10Z</time></trkpt><trkpt lat="45.25457190903551" lon="8.603826351333604"><ele>112.0</ele><time>2026-04-18T09:57:11Z</time></trkpt><trkpt lat="45.2544714916" lon="8.603698318183044"><ele>112.0</ele><time>2026-04-18T09:57:12Z</time></trkpt><trkpt lat="45.254369330792386" lon="8.603556117427171"><ele>112.0</ele><time>2026-04-18T09:57:13Z</time></trkpt><trkpt lat="45.25427419247475" lon="8.603411173132763"><ele>112.0</ele><time>2026-04-18T09:57:14Z</time></trkpt><trkpt lat="45.2541937647545" lon="8.603240888400572"><ele>112.0</ele><time>2026-04-18T09:57:15Z</time></trkpt><trkpt lat="45.2541040954847" lon="8.603081049521446"><ele>112.0</ele><time>2026-04-18T09:57:16Z</time></trkpt><trkpt lat="45.254015888378085" lon="8.602918653244219"><ele>112.0</ele><time>2026-04-18T09:57:17Z</time></trkpt><trkpt lat="45.2539153851734" lon="8.602761224704018"><ele>112.0</ele><time>2026-04-18T09:57:18Z</time></trkpt><trkpt lat="45.253837740400435" lon="8.602589289145465"><ele>112.0</ele><time>2026-04-18T09:57:19Z</time></trkpt><trkpt lat="45.25378698683532" lon="8.602400401809248"><ele>112.0</ele><time>2026-04-18T09:57:20.001Z</time></trkpt><trkpt lat="45.25373213484951" lon="8.60221294402227"><ele>112.0</ele><time>2026-04-18T09:57:21.001Z</time></trkpt><trkpt lat="45.25366220783496" lon="8.6020336083825"><ele>112.0</ele><time>2026-04-18T09:57:22.001Z</time></trkpt><trkpt lat="45.25361667108314" lon="8.601840357781912"><ele>112.0</ele><time>2026-04-18T09:57:23.001Z</time></trkpt><trkpt lat="45.25356836915621" lon="8.601645690212798"><ele>112.0</ele><time>2026-04-18T09:57:24.001Z</time></trkpt><trkpt lat="45.25354408202292" lon="8.60143774293423"><ele>112.0</ele><time>2026-04-18T09:57:25.001Z</time></trkpt><trkpt lat="45.25351775822453" lon="8.601229098549116"><ele>112.0</ele><time>2026-04-18T09:57:26.001Z</time></trkpt><trkpt lat="45.25350252478959" lon="8.601018141750405"><ele>112.0</ele><time>2026-04-18T09:57:27.001Z</time></trkpt><trkpt lat="45.25350533869808" lon="8.600806652860001"><ele>112.0</ele><time>2026-04-18T09:57:28.001Z</time></trkpt><trkpt lat="45.25351944240684" lon="8.600596307982087"><ele>112.0</ele><time>2026-04-18T09:57:29.001Z</time></trkpt><trkpt lat="45.25352265434431" lon="8.600378145480848"><ele>112.25</ele><time>2026-04-18T09:57:30.001Z</time></trkpt><trkpt lat="45.2535405685158" lon="8.600178139223775"><ele>112.5</ele><time>2026-04-18T09:57:31.001Z</time></trkpt><trkpt lat="45.253586756272455" lon="8.599987656461114"><ele>112.75</ele><time>2026-04-18T09:57:32.001Z</time></trkpt><trkpt lat="45.2536594069574" lon="8.599818665378326"><ele>113.0</ele><time>2026-04-18T09:57:33.001Z</time></trkpt><trkpt lat="45.25374859323795" lon="8.599650082778272"><ele>112.66666666666666</ele><time>2026-04-18T09:57:34.001Z</time></trkpt><trkpt lat="45.25381953339987" lon="8.599457295198391"><ele>112.33333333333334</ele><time>2026-04-18T09:57:35.001Z</time></trkpt><trkpt lat="45.25389222064297" lon="8.599268989079462"><ele>112.0</ele><time>2026-04-18T09:57:36.001Z</time></trkpt><trkpt lat="45.25395107239009" lon="8.59907930336732"><ele>112.33333333333334</ele><time>2026-04-18T09:57:37.001Z</time></trkpt><trkpt lat="45.25398910335227" lon="8.598859815907636"><ele>112.66666666666666</ele><time>2026-04-18T09:57:38.001Z</time></trkpt><trkpt lat="45.25402040870774" lon="8.59864499202598"><ele>113.0</ele><time>2026-04-18T09:57:39.001Z</time></trkpt><trkpt lat="45.254056429606905" lon="8.59842647707231"><ele>113.0</ele><time>2026-04-18T09:57:40.001Z</time></trkpt><trkpt lat="45.25409615806942" lon="8.59822204857968"><ele>113.0</ele><time>2026-04-18T09:57:41.001Z</time></trkpt><trkpt lat="45.254138725050645" lon="8.598037489401444"><ele>113.0</ele><time>2026-04-18T09:57:42.001Z</time></trkpt><trkpt lat="45.254187469099264" lon="8.597862884006682"><ele>113.0</ele><time>2026-04-18T09:57:43.001Z</time></trkpt><trkpt lat="45.25423683323154" lon="8.597693363890642"><ele>112.80000000000001</ele><time>2026-04-18T09:57:44.001Z</time></trkpt><trkpt lat="45.25428424382223" lon="8.597536152288157"><ele>112.60000000000001</ele><time>2026-04-18T09:57:45.001Z</time></trkpt><trkpt lat="45.25433050369466" lon="8.597392626165792"><ele>112.39999999999999</ele><time>2026-04-18T09:57:46.001Z</time></trkpt><trkpt lat="45.25439199610212" lon="8.597273326725878"><ele>112.19999999999999</ele><time>2026-04-18T09:57:47.001Z</time></trkpt><trkpt lat="45.254427157796066" lon="8.597141005701978"><ele>112.0</ele><time>2026-04-18T09:57:48.001Z</time></trkpt><trkpt lat="45.25446597575972" lon="8.596998332957789"><ele>112.0</ele><time>2026-04-18T09:57:49.001Z</time></trkpt><trkpt lat="45.25447614982413" lon="8.596823534266278"><ele>112.0</ele><time>2026-04-18T09:57:50.001Z</time></trkpt><trkpt lat="45.254471478870926" lon="8.596621064596832"><ele>112.0</ele><time>2026-04-18T09:57:51.001Z</time></trkpt><trkpt lat="45.254474345187305" lon="8.596402185682907"><ele>112.0</ele><time>2026-04-18T09:57:52.001Z</time></trkpt><trkpt lat="45.25448932714685" lon="8.59616888443379"><ele>112.0</ele><time>2026-04-18T09:57:53.001Z</time></trkpt><trkpt lat="45.25451013517335" lon="8.595923663087275"><ele>112.0</ele><time>2026-04-18T09:57:54.002Z</time></trkpt><trkpt lat="45.254498771361256" lon="8.595676353736776"><ele>112.0</ele><time>2026-04-18T09:57:55.002Z</time></trkpt><trkpt lat="45.254504703772845" lon="8.595425815155242"><ele>111.66666666666667</ele><time>2026-04-18T09:57:56.002Z</time></trkpt><trkpt lat="45.25449654775705" lon="8.595174438127215"><ele>111.33333333333334</ele><time>2026-04-18T09:57:57.002Z</time></trkpt><trkpt lat="45.254485485249695" lon="8.594928728993981"><ele>111.0</ele><time>2026-04-18T09:57:58.002Z</time></trkpt><trkpt lat="45.254472649699125" lon="8.594679785493014"><ele>111.33333333333334</ele><time>2026-04-18T09:57:59.002Z</time></trkpt><trkpt lat="45.25445296499532" lon="8.59442847206413"><ele>111.66666666666667</ele><time>2026-04-18T09:58:00.002Z</time></trkpt><trkpt lat="45.254433776221255" lon="8.594185401719889"><ele>112.0</ele><time>2026-04-18T09:58:01.002Z</time></trkpt><trkpt lat="45.25441387903638" lon="8.593948341268533"><ele>112.0</ele><time>2026-04-18T09:58:02.002Z</time></trkpt><trkpt lat="45.254398948565225" lon="8.593712401726645"><ele>112.0</ele><time>2026-04-18T09:58:03.002Z</time></trkpt><trkpt lat="45.25439309734242" lon="8.593479617763952"><ele>112.0</ele><time>2026-04-18T09:58:04.002Z</time></trkpt><trkpt lat="45.254392493828796" lon="8.593241895121231"><ele>112.0</ele><time>2026-04-18T09:58:05.002Z</time></trkpt><trkpt lat="45.2543971520945" lon="8.593011381946043"><ele>112.0</ele><time>2026-04-18T09:58:06.002Z</time></trkpt><trkpt lat="45.254399234079415" lon="8.592769861420685"><ele>112.0</ele><time>2026-04-18T09:58:07.002Z</time></trkpt><trkpt lat="45.25439688668063" lon="8.592530580235104"><ele>112.0</ele><time>2026-04-18T09:58:08.002Z</time></trkpt><trkpt lat="45.254389157734096" lon="8.592287912544306"><ele>112.0</ele><time>2026-04-18T09:58:09.002Z</time></trkpt><trkpt lat="45.254380493996194" lon="8.592048262902749"><ele>112.0</ele><time>2026-04-18T09:58:10.002Z</time></trkpt><trkpt lat="45.25437213498642" lon="8.591800305485549"><ele>112.33333333333334</ele><time>2026-04-18T09:58:11.002Z</time></trkpt><trkpt lat="45.25436541039868" lon="8.591558994584776"><ele>112.66666666666666</ele><time>2026-04-18T09:58:12.002Z</time></trkpt><trkpt lat="45.25435700314548" lon="8.59131372320005"><ele>113.0</ele><time>2026-04-18T09:58:13.002Z</time></trkpt><trkpt lat="45.25434664672842" lon="8.591065655615964"><ele>113.0</ele><time>2026-04-18T09:58:14.002Z</time></trkpt><trkpt lat="45.25435111488085" lon="8.59081789046402"><ele>113.0</ele><time>2026-04-18T09:58:15.002Z</time></trkpt><trkpt lat="45.2543199047365" lon="8.590572434640471"><ele>113.0</ele><time>2026-04-18T09:58:16.002Z</time></trkpt><trkpt lat="45.25429201523654" lon="8.590324639912579"><ele>112.66666666666666</ele><time>2026-04-18T09:58:17.002Z</time></trkpt><trkpt lat="45.25425748617169" lon="8.590078127669312"><ele>112.33333333333334</ele><time>2026-04-18T09:58:18.002Z</time></trkpt><trkpt lat="45.25422178423626" lon="8.589830083088541"><ele>112.0</ele><time>2026-04-18T09:58:19.002Z</time></trkpt><trkpt lat="45.25418572264361" lon="8.58958542753351"><ele>112.0</ele><time>2026-04-18T09:58:20.002Z</time></trkpt><trkpt lat="45.25414719675155" lon="8.589336370696868"><ele>112.0</ele><time>2026-04-18T09:58:21.002Z</time></trkpt><trkpt lat="45.25410787071367" lon="8.589093672964497"><ele>112.0</ele><time>2026-04-18T09:58:22.002Z</time></trkpt><trkpt lat="45.254061968253936" lon="8.588845211139557"><ele>112.0</ele><time>2026-04-18T09:58:23.002Z</time></trkpt><trkpt lat="45.25404143562533" lon="8.588595082944979"><ele>112.0</ele><time>2026-04-18T09:58:24.002Z</time></trkpt><trkpt lat="45.25400254032887" lon="8.588340733671682"><ele>112.0</ele><time>2026-04-18T09:58:25.002Z</time></trkpt><trkpt lat="45.253963037648646" lon="8.588085915409343"><ele>111.75</ele><time>2026-04-18T09:58:26.002Z</time></trkpt><trkpt lat="45.253913592063604" lon="8.587864821006319"><ele>111.5</ele><time>2026-04-18T09:58:27.002Z</time></trkpt><trkpt lat="45.25388343160494" lon="8.587663691263863"><ele>111.25</ele><time>2026-04-18T09:58:28.003Z</time></trkpt><trkpt lat="45.253854160909725" lon="8.587483325280774"><ele>111.0</ele><time>2026-04-18T09:58:29.003Z</time></trkpt><trkpt lat="45.25383026301108" lon="8.58731646744367"><ele>111.0</ele><time>2026-04-18T09:58:30.003Z</time></trkpt><trkpt lat="45.25381473162899" lon="8.58717641382717"><ele>111.0</ele><time>2026-04-18T09:58:31.003Z</time></trkpt><trkpt lat="45.25380988605706" lon="8.587045336411052"><ele>111.0</ele><time>2026-04-18T09:58:32.003Z</time></trkpt><trkpt lat="45.2538037965239" lon="8.586923818395782"><ele>111.0</ele><time>2026-04-18T09:58:33.003Z</time></trkpt><trkpt lat="45.25387593069879" lon="8.586769554427999"><ele>111.0</ele><time>2026-04-18T09:58:34.003Z</time></trkpt><trkpt lat="45.253860583376934" lon="8.58661448352541"><ele>111.0</ele><time>2026-04-18T09:58:35.003Z</time></trkpt><trkpt lat="45.25386053882407" lon="8.586432296375591"><ele>111.0</ele><time>2026-04-18T09:58:36.003Z</time></trkpt><trkpt lat="45.253847430995286" lon="8.586245753540771"><ele>111.0</ele><time>2026-04-18T09:58:37.003Z</time></trkpt><trkpt lat="45.25383394520866" lon="8.586058949515877"><ele>111.0</ele><time>2026-04-18T09:58:38.003Z</time></trkpt><trkpt lat="45.25381899679036" lon="8.585890338891073"><ele>111.0</ele><time>2026-04-18T09:58:39.003Z</time></trkpt><trkpt lat="45.25382436031475" lon="8.585750189244923"><ele>111.0</ele><time>2026-04-18T09:58:40.003Z</time></trkpt><trkpt lat="45.253814733705816" lon="8.585598286945984"><ele>111.0</ele><time>2026-04-18T09:58:41.003Z</time></trkpt><trkpt lat="45.25378728590996" lon="8.58544271343826"><ele>111.0</ele><time>2026-04-18T09:58:42.003Z</time></trkpt><trkpt lat="45.25377718323691" lon="8.585281505266014"><ele>111.0</ele><time>2026-04-18T09:58:43.003Z</time></trkpt><trkpt lat="45.2537502179276" lon="8.585126545345501"><ele>111.0</ele><time>2026-04-18T09:58:44.003Z</time></trkpt><trkpt lat="45.25370011090176" lon="8.584957691029404"><ele>111.0</ele><time>2026-04-18T09:58:45.003Z</time></trkpt><trkpt lat="45.25363279902995" lon="8.584801051114322"><ele>111.0</ele><time>2026-04-18T09:58:46.003Z</time></trkpt><trkpt lat="45.253587937681274" lon="8.584652773400526"><ele>111.0</ele><time>2026-04-18T09:58:47.003Z</time></trkpt><trkpt lat="45.25353928886719" lon="8.584508580946983"><ele>110.5</ele><time>2026-04-18T09:58:48.003Z</time></trkpt><trkpt lat="45.25348770614734" lon="8.58437524950807"><ele>110.0</ele><time>2026-04-18T09:58:49.003Z</time></trkpt><trkpt lat="45.25344335729353" lon="8.584229873314113"><ele>109.5</ele><time>2026-04-18T09:58:50.003Z</time></trkpt><trkpt lat="45.25335688239025" lon="8.584107538672697"><ele>109.0</ele><time>2026-04-18T09:58:51.003Z</time></trkpt><trkpt lat="45.253270176535146" lon="8.583991321576733"><ele>109.0</ele><time>2026-04-18T09:58:52.003Z</time></trkpt><trkpt lat="45.25320085423675" lon="8.583861915474472"><ele>109.0</ele><time>2026-04-18T09:58:53.003Z</time></trkpt><trkpt lat="45.25312935061794" lon="8.583727246712947"><ele>109.0</ele><time>2026-04-18T09:58:54Z</time></trkpt><trkpt lat="45.25306736649424" lon="8.58357830831221"><ele>109.0</ele><time>2026-04-18T09:58:55Z</time></trkpt><trkpt lat="45.25302354191455" lon="8.583417945902097"><ele>109.25</ele><time>2026-04-18T09:58:56Z</time></trkpt><trkpt lat="45.252990646079134" lon="8.583245751673736"><ele>109.5</ele><time>2026-04-18T09:58:57Z</time></trkpt><trkpt lat="45.2529586667505" lon="8.58307041289508"><ele>109.75</ele><time>2026-04-18T09:58:58Z</time></trkpt><trkpt lat="45.252915484952354" lon="8.582902296379398"><ele>110.0</ele><time>2026-04-18T09:58:59Z</time></trkpt><trkpt lat="45.252870872907884" lon="8.582737531024277"><ele>110.0</ele><time>2026-04-18T09:59:00Z</time></trkpt><trkpt lat="45.25283371588374" lon="8.582556450227859"><ele>110.0</ele><time>2026-04-18T09:59:01Z</time></trkpt><trkpt lat="45.25278146293765" lon="8.582409659575426"><ele>110.0</ele><time>2026-04-18T09:59:02Z</time></trkpt><trkpt lat="45.25277179722862" lon="8.58226311533751"><ele>110.0</ele><time>2026-04-18T09:59:03Z</time></trkpt><trkpt lat="45.252763079107645" lon="8.582131229209109"><ele>110.0</ele><time>2026-04-18T09:59:04Z</time></trkpt><trkpt lat="45.25275180567983" lon="8.581992800740583"><ele>110.0</ele><time>2026-04-18T09:59:05Z</time></trkpt><trkpt lat="45.25275685833185" lon="8.581859314689543"><ele>110.0</ele><time>2026-04-18T09:59:06Z</time></trkpt><trkpt lat="45.252749379369554" lon="8.58173642170259"><ele>110.0</ele><time>2026-04-18T09:59:07Z</time></trkpt><trkpt lat="45.25273194916985" lon="8.581617685455681"><ele>110.0</ele><time>2026-04-18T09:59:08Z</time></trkpt><trkpt lat="45.25269878621407" lon="8.581485402943166"><ele>110.0</ele><time>2026-04-18T09:59:09Z</time></trkpt><trkpt lat="45.25266524298544" lon="8.581369457318347"><ele>110.0</ele><time>2026-04-18T09:59:10Z</time></trkpt><trkpt lat="45.2526348858309" lon="8.581268096336586"><ele>110.0</ele><time>2026-04-18T09:59:11Z</time></trkpt><trkpt lat="45.252621010909024" lon="8.581151458058606"><ele>110.0</ele><time>2026-04-18T09:59:12Z</time></trkpt><trkpt lat="45.25266697107651" lon="8.58100747150673"><ele>110.0</ele><time>2026-04-18T09:59:13Z</time></trkpt><trkpt lat="45.25268737188483" lon="8.580856473085149"><ele>110.0</ele><time>2026-04-18T09:59:14Z</time></trkpt><trkpt lat="45.252679025083246" lon="8.58069004617117"><ele>110.5</ele><time>2026-04-18T09:59:15Z</time></trkpt><trkpt lat="45.252651072082465" lon="8.580516962257043"><ele>111.0</ele><time>2026-04-18T09:59:16Z</time></trkpt><trkpt lat="45.252611567948115" lon="8.580339667014455"><ele>111.5</ele><time>2026-04-18T09:59:17Z</time></trkpt><trkpt lat="45.252576658966156" lon="8.58016451465081"><ele>112.0</ele><time>2026-04-18T09:59:18Z</time></trkpt><trkpt lat="45.25254888380313" lon="8.580026168704505"><ele>112.16666666666667</ele><time>2026-04-18T09:59:19Z</time></trkpt><trkpt lat="45.252524415468244" lon="8.579897716633758"><ele>112.33333333333334</ele><time>2026-04-18T09:59:20Z</time></trkpt><trkpt lat="45.25250320852209" lon="8.579777908789865"><ele>112.5</ele><time>2026-04-18T09:59:21Z</time></trkpt><trkpt lat="45.25250628941037" lon="8.57966271863307"><ele>112.66666666666666</ele><time>2026-04-18T09:59:22Z</time></trkpt><trkpt lat="45.25249032220862" lon="8.579569371902178"><ele>112.83333333333333</ele><time>2026-04-18T09:59:23Z</time></trkpt><trkpt lat="45.252460526847926" lon="8.579485561447024"><ele>113.0</ele><time>2026-04-18T09:59:24Z</time></trkpt><trkpt lat="45.25243585095554" lon="8.579339791521832"><ele>113.0</ele><time>2026-04-18T09:59:26Z</time></trkpt><trkpt lat="45.25243308700711" lon="8.57922097169023"><ele>113.00000000000001</ele><time>2026-04-18T09:59:28.001Z</time></trkpt><trkpt lat="45.25229255373856" lon="8.579154605731674"><ele>113.00000000000001</ele><time>2026-04-18T09:59:31.001Z</time></trkpt><trkpt lat="45.25219752492904" lon="8.579054163581604"><ele>113.0</ele><time>2026-04-18T09:59:33.001Z</time></trkpt><trkpt lat="45.2521521052267" lon="8.578958142848672"><ele>113.0</ele><time>2026-04-18T09:59:34.001Z</time></trkpt><trkpt lat="45.2520964072227" lon="8.578861736323743"><ele>113.0</ele><time>2026-04-18T09:59:35.001Z</time></trkpt><trkpt lat="45.25205702080161" lon="8.578766916474393"><ele>113.0</ele><time>2026-04-18T09:59:36.001Z</time></trkpt><trkpt lat="45.25202042349939" lon="8.578692432549566"><ele>113.0</ele><time>2026-04-18T09:59:37.001Z</time></trkpt><trkpt lat="45.25197935393483" lon="8.578607945547558"><ele>113.0</ele><time>2026-04-18T09:59:38.001Z</time></trkpt><trkpt lat="45.25192958417951" lon="8.578506721468973"><ele>113.0</ele><time>2026-04-18T09:59:39.001Z</time></trkpt><trkpt lat="45.25188230517628" lon="8.578435507827107"><ele>113.0</ele><time>2026-04-18T09:59:40.001Z</time></trkpt><trkpt lat="45.25182456116195" lon="8.578379613870943"><ele>113.0</ele><time>2026-04-18T09:59:41.001Z</time></trkpt><trkpt lat="45.251746451757334" lon="8.578334285609035"><ele>112.99999999999999</ele><time>2026-04-18T09:59:42.001Z</time></trkpt><trkpt lat="45.25165364824222" lon="8.578290903269743"><ele>113.0</ele><time>2026-04-18T09:59:43.001Z</time></trkpt><trkpt lat="45.25155709930121" lon="8.578247776475528"><ele>113.0</ele><time>2026-04-18T09:59:44.001Z</time></trkpt><trkpt lat="45.25148020146469" lon="8.578205471407655"><ele>113.0</ele><time>2026-04-18T09:59:45.001Z</time></trkpt><trkpt lat="45.25140474258393" lon="8.578168208330133"><ele>112.99999999999999</ele><time>2026-04-18T09:59:46.001Z</time></trkpt><trkpt lat="45.25133037219038" lon="8.578138551609653"><ele>113.0</ele><time>2026-04-18T09:59:47.001Z</time></trkpt><trkpt lat="45.25121674371544" lon="8.578080877769022"><ele>113.2</ele><time>2026-04-18T09:59:49.001Z</time></trkpt><trkpt lat="45.25111943796575" lon="8.578029698360663"><ele>113.4</ele><time>2026-04-18T09:59:51.001Z</time></trkpt><trkpt lat="45.2510349545624" lon="8.577984261276344"><ele>113.60000000000001</ele><time>2026-04-18T09:59:53.001Z</time></trkpt><trkpt lat="45.250983848728296" lon="8.57792562376952"><ele>113.80000000000001</ele><time>2026-04-18T09:59:55.001Z</time></trkpt><trkpt lat="45.25100744202025" lon="8.577692533496027"><ele>114.0</ele><time>2026-04-18T09:59:57.001Z</time></trkpt><trkpt lat="45.25102818191614" lon="8.577595151989328"><ele>114.0</ele><time>2026-04-18T09:59:58.001Z</time></trkpt><trkpt lat="45.25106511401273" lon="8.577453442036587"><ele>114.0</ele><time>2026-04-18T09:59:59.001Z</time></trkpt><trkpt lat="45.25109529829209" lon="8.577308039933982"><ele>114.0</ele><time>2026-04-18T10:00:00.002Z</time></trkpt><trkpt lat="45.25111745299338" lon="8.57715480530419"><ele>114.0</ele><time>2026-04-18T10:00:01.002Z</time></trkpt><trkpt lat="45.25113724186559" lon="8.576996036021663"><ele>114.0</ele><time>2026-04-18T10:00:02.002Z</time></trkpt><trkpt lat="45.251162211930236" lon="8.576826681174676"><ele>114.0</ele><time>2026-04-18T10:00:03.002Z</time></trkpt><trkpt lat="45.251199810119296" lon="8.576652890986034"><ele>114.0</ele><time>2026-04-18T10:00:04.002Z</time></trkpt><trkpt lat="45.251253361632564" lon="8.576481201999545"><ele>114.0</ele><time>2026-04-18T10:00:05.002Z</time></trkpt><trkpt lat="45.25132477063569" lon="8.576304696781067"><ele>114.0</ele><time>2026-04-18T10:00:06.002Z</time></trkpt><trkpt lat="45.25140164582081" lon="8.576119439898394"><ele>113.0</ele><time>2026-04-18T10:00:07.002Z</time></trkpt><trkpt lat="45.25147389668983" lon="8.57592520590305"><ele>112.0</ele><time>2026-04-18T10:00:08.002Z</time></trkpt><trkpt lat="45.251546614836336" lon="8.575728052407312"><ele>111.0</ele><time>2026-04-18T10:00:09.002Z</time></trkpt><trkpt lat="45.25161344458968" lon="8.575536676016968"><ele>111.25</ele><time>2026-04-18T10:00:10.002Z</time></trkpt><trkpt lat="45.251689178766156" lon="8.575351227409985"><ele>111.5</ele><time>2026-04-18T10:00:11.002Z</time></trkpt><trkpt lat="45.251746922703596" lon="8.575161149698781"><ele>111.75</ele><time>2026-04-18T10:00:12.002Z</time></trkpt><trkpt lat="45.251796692779244" lon="8.574961169265746"><ele>112.0</ele><time>2026-04-18T10:00:13.002Z</time></trkpt><trkpt lat="45.25184815973282" lon="8.574764895929519"><ele>112.0</ele><time>2026-04-18T10:00:14.002Z</time></trkpt><trkpt lat="45.25189902224673" lon="8.574561247274131"><ele>112.0</ele><time>2026-04-18T10:00:15.002Z</time></trkpt><trkpt lat="45.25194878636503" lon="8.574361502297183"><ele>112.0</ele><time>2026-04-18T10:00:16.002Z</time></trkpt><trkpt lat="45.25199606702083" lon="8.574181548182368"><ele>112.0</ele><time>2026-04-18T10:00:17.002Z</time></trkpt><trkpt lat="45.252039591078386" lon="8.574016337934713"><ele>112.0</ele><time>2026-04-18T10:00:18.002Z</time></trkpt><trkpt lat="45.25208041816498" lon="8.573863309835355"><ele>111.99999999999999</ele><time>2026-04-18T10:00:19.002Z</time></trkpt><trkpt lat="45.25211106922112" lon="8.573714193961935"><ele>111.99999999999999</ele><time>2026-04-18T10:00:20.002Z</time></trkpt><trkpt lat="45.2521378040219" lon="8.573563760663307"><ele>112.0</ele><time>2026-04-18T10:00:21.002Z</time></trkpt><trkpt lat="45.25216527044655" lon="8.573409986421941"><ele>112.0</ele><time>2026-04-18T10:00:22.002Z</time></trkpt><trkpt lat="45.25218786315764" lon="8.57327553681713"><ele>111.66666666666667</ele><time>2026-04-18T10:00:23.002Z</time></trkpt><trkpt lat="45.25221180721238" lon="8.573149122588303"><ele>111.33333333333334</ele><time>2026-04-18T10:00:24.002Z</time></trkpt><trkpt lat="45.252236818136026" lon="8.573036308740136"><ele>111.0</ele><time>2026-04-18T10:00:25.002Z</time></trkpt><trkpt lat="45.252253587066214" lon="8.572928601336468"><ele>110.66666666666666</ele><time>2026-04-18T10:00:26.002Z</time></trkpt><trkpt lat="45.25225298731504" lon="8.572824703260272"><ele>110.33333333333333</ele><time>2026-04-18T10:00:27.002Z</time></trkpt><trkpt lat="45.25224719438699" lon="8.572731618883045"><ele>110.0</ele><time>2026-04-18T10:00:28.002Z</time></trkpt><trkpt lat="45.25224779327775" lon="8.572639704765592"><ele>110.0</ele><time>2026-04-18T10:00:29.002Z</time></trkpt><trkpt lat="45.25229561869106" lon="8.572484175560374"><ele>110.0</ele><time>2026-04-18T10:00:31.002Z</time></trkpt><trkpt lat="45.252342636122755" lon="8.572354395939161"><ele>110.0</ele><time>2026-04-18T10:00:33.002Z</time></trkpt><trkpt lat="45.252373648206394" lon="8.57226880211256"><ele>110.0</ele><time>2026-04-18T10:00:34.003Z</time></trkpt><trkpt lat="45.25239802128811" lon="8.572160988517563"><ele>110.0</ele><time>2026-04-18T10:00:35.003Z</time></trkpt><trkpt lat="45.252445386615435" lon="8.572053943350696"><ele>110.25</ele><time>2026-04-18T10:00:36.003Z</time></trkpt><trkpt lat="45.252491555732576" lon="8.571925483388984"><ele>110.5</ele><time>2026-04-18T10:00:37.003Z</time></trkpt><trkpt lat="45.252541661538324" lon="8.571771115227659"><ele>110.75</ele><time>2026-04-18T10:00:38.003Z</time></trkpt><trkpt lat="45.252591267425736" lon="8.571613108127488"><ele>111.0</ele><time>2026-04-18T10:00:39.003Z</time></trkpt><trkpt lat="45.25264504924468" lon="8.571434136965413"><ele>111.0</ele><time>2026-04-18T10:00:40.003Z</time></trkpt><trkpt lat="45.2527103465836" lon="8.571240409665428"><ele>111.0</ele><time>2026-04-18T10:00:41.003Z</time></trkpt><trkpt lat="45.25276761045726" lon="8.571023176123353"><ele>111.0</ele><time>2026-04-18T10:00:42.003Z</time></trkpt><trkpt lat="45.25282670159184" lon="8.570794002824442"><ele>110.5</ele><time>2026-04-18T10:00:43.003Z</time></trkpt><trkpt lat="45.25288675578276" lon="8.570572451425098"><ele>110.0</ele><time>2026-04-18T10:00:44.003Z</time></trkpt><trkpt lat="45.252940131181234" lon="8.570381659915714"><ele>109.5</ele><time>2026-04-18T10:00:45.003Z</time></trkpt><trkpt lat="45.25297890070227" lon="8.570200024086299"><ele>109.0</ele><time>2026-04-18T10:00:46.003Z</time></trkpt><trkpt lat="45.25302188725667" lon="8.570023894668669"><ele>109.0</ele><time>2026-04-18T10:00:47.003Z</time></trkpt><trkpt lat="45.253066390924936" lon="8.569838166918341"><ele>109.0</ele><time>2026-04-18T10:00:48.003Z</time></trkpt><trkpt lat="45.25311156548869" lon="8.569645797476284"><ele>109.0</ele><time>2026-04-18T10:00:49.003Z</time></trkpt><trkpt lat="45.253153682289664" lon="8.569451600282642"><ele>109.0</ele><time>2026-04-18T10:00:50.003Z</time></trkpt><trkpt lat="45.25317886300479" lon="8.569251028496145"><ele>109.25</ele><time>2026-04-18T10:00:51.003Z</time></trkpt><trkpt lat="45.253190561719514" lon="8.569065319202405"><ele>109.5</ele><time>2026-04-18T10:00:52.003Z</time></trkpt><trkpt lat="45.253230689504335" lon="8.568893317988529"><ele>109.75</ele><time>2026-04-18T10:00:53.003Z</time></trkpt><trkpt lat="45.25320714432207" lon="8.568689751398075"><ele>110.0</ele><time>2026-04-18T10:00:54.003Z</time></trkpt><trkpt lat="45.25320550343134" lon="8.568483132306621"><ele>110.0</ele><time>2026-04-18T10:00:55.003Z</time></trkpt><trkpt lat="45.25319628923374" lon="8.568270843223493"><ele>110.0</ele><time>2026-04-18T10:00:56.003Z</time></trkpt><trkpt lat="45.25318671100572" lon="8.568052379191215"><ele>110.0</ele><time>2026-04-18T10:00:57.003Z</time></trkpt><trkpt lat="45.25317266855411" lon="8.567825313003064"><ele>110.0</ele><time>2026-04-18T10:00:58.003Z</time></trkpt><trkpt lat="45.253164641097634" lon="8.56761212106102"><ele>110.0</ele><time>2026-04-18T10:00:59.003Z</time></trkpt><trkpt lat="45.25315535083132" lon="8.567419348483469"><ele>110.0</ele><time>2026-04-18T10:00:59.999Z</time></trkpt><trkpt lat="45.253144908545885" lon="8.567265308170775"><ele>110.0</ele><time>2026-04-18T10:01:00.999Z</time></trkpt><trkpt lat="45.25313720065246" lon="8.56714845966716"><ele>110.0</ele><time>2026-04-18T10:01:01.999Z</time></trkpt><trkpt lat="45.253127586239856" lon="8.56704450716951"><ele>110.0</ele><time>2026-04-18T10:01:02.999Z</time></trkpt><trkpt lat="45.25310877205772" lon="8.566852070424341"><ele>110.0</ele><time>2026-04-18T10:01:05Z</time></trkpt><trkpt lat="45.25308373073544" lon="8.566720178670224"><ele>110.0</ele><time>2026-04-18T10:01:06Z</time></trkpt><trkpt lat="45.25305321746573" lon="8.566552756319933"><ele>110.0</ele><time>2026-04-18T10:01:07Z</time></trkpt><trkpt lat="45.2530193366906" lon="8.56635969454831"><ele>109.0</ele><time>2026-04-18T10:01:08Z</time></trkpt><trkpt lat="45.25298269560376" lon="8.566178178324448"><ele>108.0</ele><time>2026-04-18T10:01:09Z</time></trkpt><trkpt lat="45.2529503392097" lon="8.566019093515665"><ele>107.0</ele><time>2026-04-18T10:01:10Z</time></trkpt><trkpt lat="45.2529200295262" lon="8.565859812534818"><ele>106.0</ele><time>2026-04-18T10:01:11Z</time></trkpt><trkpt lat="45.25289964973535" lon="8.565673551779103"><ele>106.0</ele><time>2026-04-18T10:01:12Z</time></trkpt><trkpt lat="45.25291403375145" lon="8.56547721311512"><ele>106.0</ele><time>2026-04-18T10:01:13Z</time></trkpt><trkpt lat="45.2529464324993" lon="8.565276540302449"><ele>106.0</ele><time>2026-04-18T10:01:14Z</time></trkpt><trkpt lat="45.25297936150516" lon="8.565062309135792"><ele>106.0</ele><time>2026-04-18T10:01:15Z</time></trkpt><trkpt lat="45.25300876487537" lon="8.56483167638217"><ele>106.66666666666667</ele><time>2026-04-18T10:01:16Z</time></trkpt><trkpt lat="45.253037429001324" lon="8.564592055870527"><ele>107.33333333333334</ele><time>2026-04-18T10:01:17Z</time></trkpt><trkpt lat="45.25306881778797" lon="8.564339101263128"><ele>108.0</ele><time>2026-04-18T10:01:18Z</time></trkpt><trkpt lat="45.25310157875425" lon="8.56409053176296"><ele>108.0</ele><time>2026-04-18T10:01:19Z</time></trkpt><trkpt lat="45.25313377998965" lon="8.563836274706324"><ele>108.0</ele><time>2026-04-18T10:01:20Z</time></trkpt><trkpt lat="45.2531648103132" lon="8.563611376377292"><ele>108.0</ele><time>2026-04-18T10:01:21Z</time></trkpt><trkpt lat="45.2531973438714" lon="8.563389854566843"><ele>108.0</ele><time>2026-04-18T10:01:22Z</time></trkpt><trkpt lat="45.25324432080808" lon="8.563172209540214"><ele>108.0</ele><time>2026-04-18T10:01:23Z</time></trkpt><trkpt lat="45.2532543146712" lon="8.562951519915332"><ele>108.0</ele><time>2026-04-18T10:01:24Z</time></trkpt><trkpt lat="45.25328326985991" lon="8.562730115602077"><ele>108.33333333333334</ele><time>2026-04-18T10:01:25Z</time></trkpt><trkpt lat="45.25328290924032" lon="8.56251846794699"><ele>108.66666666666667</ele><time>2026-04-18T10:01:26Z</time></trkpt><trkpt lat="45.25327572341116" lon="8.562312833173856"><ele>109.0</ele><time>2026-04-18T10:01:27Z</time></trkpt><trkpt lat="45.253259585660956" lon="8.562089018335733"><ele>108.75</ele><time>2026-04-18T10:01:28Z</time></trkpt><trkpt lat="45.25324753741199" lon="8.5618680360222"><ele>108.5</ele><time>2026-04-18T10:01:29Z</time></trkpt><trkpt lat="45.25324182123332" lon="8.561675396368651"><ele>108.25</ele><time>2026-04-18T10:01:30Z</time></trkpt><trkpt lat="45.2532352093935" lon="8.561502244777177"><ele>108.0</ele><time>2026-04-18T10:01:31Z</time></trkpt><trkpt lat="45.25323002607117" lon="8.561337176710284"><ele>108.2</ele><time>2026-04-18T10:01:32Z</time></trkpt><trkpt lat="45.25322429762589" lon="8.56119025854391"><ele>108.4</ele><time>2026-04-18T10:01:33.001Z</time></trkpt><trkpt lat="45.25321575282135" lon="8.561042133847547"><ele>108.60000000000001</ele><time>2026-04-18T10:01:34.001Z</time></trkpt><trkpt lat="45.25319450301083" lon="8.560907816745148"><ele>108.80000000000001</ele><time>2026-04-18T10:01:35.001Z</time></trkpt><trkpt lat="45.253170441278264" lon="8.560786846560587"><ele>109.0</ele><time>2026-04-18T10:01:36.001Z</time></trkpt><trkpt lat="45.25312342504778" lon="8.560677886460786"><ele>109.16666666666667</ele><time>2026-04-18T10:01:37.001Z</time></trkpt><trkpt lat="45.25306676738809" lon="8.560588214525637"><ele>109.33333333333334</ele><time>2026-04-18T10:01:38.001Z</time></trkpt><trkpt lat="45.252990985063754" lon="8.560491726749355"><ele>109.5</ele><time>2026-04-18T10:01:39.001Z</time></trkpt><trkpt lat="45.25290871376337" lon="8.560420096047082"><ele>109.66666666666666</ele><time>2026-04-18T10:01:40.001Z</time></trkpt><trkpt lat="45.252840191468586" lon="8.560359667654293"><ele>109.83333333333333</ele><time>2026-04-18T10:01:41.001Z</time></trkpt><trkpt lat="45.25277466265935" lon="8.560315842883062"><ele>110.0</ele><time>2026-04-18T10:01:42.001Z</time></trkpt><trkpt lat="45.252706972944274" lon="8.560274872184392"><ele>109.66666666666666</ele><time>2026-04-18T10:01:43.001Z</time></trkpt><trkpt lat="45.252636555100295" lon="8.56022668072542"><ele>109.33333333333333</ele><time>2026-04-18T10:01:44.001Z</time></trkpt><trkpt lat="45.252572151226126" lon="8.560173201299898"><ele>109.0</ele><time>2026-04-18T10:01:45.001Z</time></trkpt><trkpt lat="45.25251517118412" lon="8.560101518434982"><ele>108.66666666666666</ele><time>2026-04-18T10:01:46.001Z</time></trkpt><trkpt lat="45.25247226581397" lon="8.560013808576747"><ele>108.33333333333333</ele><time>2026-04-18T10:01:47.001Z</time></trkpt><trkpt lat="45.2524434537587" lon="8.55991462939603"><ele>108.0</ele><time>2026-04-18T10:01:48.001Z</time></trkpt><trkpt lat="45.25244921442667" lon="8.559805757867673"><ele>108.0</ele><time>2026-04-18T10:01:49.001Z</time></trkpt><trkpt lat="45.25242309607432" lon="8.55969598454983"><ele>108.00000000000001</ele><time>2026-04-18T10:01:50.001Z</time></trkpt><trkpt lat="45.25240911995956" lon="8.559568613654912"><ele>108.00000000000001</ele><time>2026-04-18T10:01:51.001Z</time></trkpt><trkpt lat="45.2524054606866" lon="8.55945816569472"><ele>108.0</ele><time>2026-04-18T10:01:52.001Z</time></trkpt><trkpt lat="45.252389673511345" lon="8.559296069012632"><ele>108.0</ele><time>2026-04-18T10:01:53.001Z</time></trkpt><trkpt lat="45.25237285261457" lon="8.559127044497327"><ele>108.0</ele><time>2026-04-18T10:01:54.001Z</time></trkpt><trkpt lat="45.25235317222261" lon="8.55895779794345"><ele>108.0</ele><time>2026-04-18T10:01:55.001Z</time></trkpt><trkpt lat="45.25233490616762" lon="8.558780206424402"><ele>108.0</ele><time>2026-04-18T10:01:56.001Z</time></trkpt><trkpt lat="45.25231845270751" lon="8.558604243947865"><ele>108.0</ele><time>2026-04-18T10:01:57.001Z</time></trkpt><trkpt lat="45.25229800072961" lon="8.558422425827276"><ele>107.75</ele><time>2026-04-18T10:01:58.001Z</time></trkpt><trkpt lat="45.25227828583813" lon="8.558242929653561"><ele>107.5</ele><time>2026-04-18T10:01:59.001Z</time></trkpt><trkpt lat="45.25226142182224" lon="8.558065860227975"><ele>107.25</ele><time>2026-04-18T10:02:00.001Z</time></trkpt><trkpt lat="45.252242574049376" lon="8.557886305019181"><ele>107.0</ele><time>2026-04-18T10:02:01.001Z</time></trkpt><trkpt lat="45.25222442078986" lon="8.557710112236062"><ele>106.75</ele><time>2026-04-18T10:02:02.001Z</time></trkpt><trkpt lat="45.25220735041683" lon="8.557542774018193"><ele>106.5</ele><time>2026-04-18T10:02:03.002Z</time></trkpt><trkpt lat="45.25219118325188" lon="8.55737827991524"><ele>106.25</ele><time>2026-04-18T10:02:04.002Z</time></trkpt><trkpt lat="45.252175825370664" lon="8.557225481926414"><ele>106.0</ele><time>2026-04-18T10:02:05.002Z</time></trkpt><trkpt lat="45.252159944790904" lon="8.557072097456713"><ele>106.00000000000001</ele><time>2026-04-18T10:02:06.002Z</time></trkpt><trkpt lat="45.2521448058002" lon="8.556924047103804"><ele>106.0</ele><time>2026-04-18T10:02:07.002Z</time></trkpt><trkpt lat="45.25212930505899" lon="8.556780344349077"><ele>106.0</ele><time>2026-04-18T10:02:08.002Z</time></trkpt><trkpt lat="45.252115745254834" lon="8.556654462606556"><ele>106.0</ele><time>2026-04-18T10:02:09.002Z</time></trkpt><trkpt lat="45.25211614245353" lon="8.556539133024557"><ele>106.00000000000001</ele><time>2026-04-18T10:02:10.002Z</time></trkpt><trkpt lat="45.252092586959336" lon="8.556444928881772"><ele>106.0</ele><time>2026-04-18T10:02:11.002Z</time></trkpt><trkpt lat="45.252084550163424" lon="8.556350246948979"><ele>106.00000000000001</ele><time>2026-04-18T10:02:12.002Z</time></trkpt><trkpt lat="45.25207260561253" lon="8.556238672264223"><ele>106.0</ele><time>2026-04-18T10:02:13.002Z</time></trkpt><trkpt lat="45.252061290536716" lon="8.556122423699598"><ele>106.0</ele><time>2026-04-18T10:02:14.002Z</time></trkpt><trkpt lat="45.25204791344207" lon="8.555998898082137"><ele>106.0</ele><time>2026-04-18T10:02:15.002Z</time></trkpt><trkpt lat="45.25203575286064" lon="8.555882569372066"><ele>106.00000000000001</ele><time>2026-04-18T10:02:16.002Z</time></trkpt><trkpt lat="45.25203629393932" lon="8.555770926801449"><ele>106.0</ele><time>2026-04-18T10:02:17.002Z</time></trkpt><trkpt lat="45.25201425001804" lon="8.555673776893261"><ele>106.33333333333334</ele><time>2026-04-18T10:02:18.002Z</time></trkpt><trkpt lat="45.25199391161672" lon="8.555513148529629"><ele>106.66666666666667</ele><time>2026-04-18T10:02:20.002Z</time></trkpt><trkpt lat="45.251984118639086" lon="8.555418686154765"><ele>107.0</ele><time>2026-04-18T10:02:21.002Z</time></trkpt><trkpt lat="45.25197659492522" lon="8.555329725941688"><ele>107.33333333333334</ele><time>2026-04-18T10:02:22.002Z</time></trkpt><trkpt lat="45.25196965191358" lon="8.555240325987679"><ele>107.66666666666667</ele><time>2026-04-18T10:02:23.002Z</time></trkpt><trkpt lat="45.251952187101956" lon="8.555075495495489"><ele>108.0</ele><time>2026-04-18T10:02:25.002Z</time></trkpt><trkpt lat="45.251933540764334" lon="8.554916300857895"><ele>108.0</ele><time>2026-04-18T10:02:27.002Z</time></trkpt><trkpt lat="45.25193176339523" lon="8.554751081564646"><ele>108.0</ele><time>2026-04-18T10:02:29.002Z</time></trkpt><trkpt lat="45.25190156460021" lon="8.554582761869753"><ele>108.0</ele><time>2026-04-18T10:02:31.002Z</time></trkpt><trkpt lat="45.251881973422805" lon="8.554416489414212"><ele>108.0</ele><time>2026-04-18T10:02:33.002Z</time></trkpt><trkpt lat="45.25187610790425" lon="8.554281473053729"><ele>108.25</ele><time>2026-04-18T10:02:35.002Z</time></trkpt><trkpt lat="45.25184200677048" lon="8.55418663370462"><ele>108.5</ele><time>2026-04-18T10:02:38.003Z</time></trkpt><trkpt lat="45.25161915233589" lon="8.554224524545488"><ele>108.75</ele><time>2026-04-18T10:02:39.003Z</time></trkpt><trkpt lat="45.25151484320027" lon="8.554202400879158"><ele>109.0</ele><time>2026-04-18T10:02:40.003Z</time></trkpt><trkpt lat="45.25143804019766" lon="8.554191043606785"><ele>109.0</ele><time>2026-04-18T10:02:41.003Z</time></trkpt><trkpt lat="45.251342114667295" lon="8.554166286356267"><ele>109.0</ele><time>2026-04-18T10:02:42.003Z</time></trkpt><trkpt lat="45.25123882861109" lon="8.554147915890608"><ele>109.0</ele><time>2026-04-18T10:02:43.003Z</time></trkpt><trkpt lat="45.2511321456948" lon="8.554139208801095"><ele>109.0</ele><time>2026-04-18T10:02:44.003Z</time></trkpt><trkpt lat="45.25101647395939" lon="8.55413227716116"><ele>109.0</ele><time>2026-04-18T10:02:45.003Z</time></trkpt><trkpt lat="45.250910661305255" lon="8.554130642011154"><ele>109.0</ele><time>2026-04-18T10:02:46.003Z</time></trkpt><trkpt lat="45.25080227529399" lon="8.554128961393392"><ele>109.0</ele><time>2026-04-18T10:02:47.003Z</time></trkpt><trkpt lat="45.250693844842615" lon="8.55412824485287"><ele>109.0</ele><time>2026-04-18T10:02:48.003Z</time></trkpt><trkpt lat="45.25057798280263" lon="8.554131989995412"><ele>109.0</ele><time>2026-04-18T10:02:49.003Z</time></trkpt><trkpt lat="45.250461322556916" lon="8.55412860245303"><ele>109.0</ele><time>2026-04-18T10:02:50.003Z</time></trkpt><trkpt lat="45.25033656826547" lon="8.554123452399212"><ele>108.5</ele><time>2026-04-18T10:02:51.003Z</time></trkpt><trkpt lat="45.25020006114493" lon="8.554124878379818"><ele>108.0</ele><time>2026-04-18T10:02:52.003Z</time></trkpt><trkpt lat="45.25006012278992" lon="8.554127059661823"><ele>107.5</ele><time>2026-04-18T10:02:53.003Z</time></trkpt><trkpt lat="45.24991868791988" lon="8.55412901850861"><ele>107.0</ele><time>2026-04-18T10:02:54.003Z</time></trkpt><trkpt lat="45.24977264591389" lon="8.554135524239888"><ele>107.0</ele><time>2026-04-18T10:02:55.003Z</time></trkpt><trkpt lat="45.249627095362584" lon="8.554136046502618"><ele>107.0</ele><time>2026-04-18T10:02:56.003Z</time></trkpt><trkpt lat="45.24947974663447" lon="8.554135653294585"><ele>107.0</ele><time>2026-04-18T10:02:57.003Z</time></trkpt><trkpt lat="45.24935021594725" lon="8.55414130459289"><ele>107.0</ele><time>2026-04-18T10:02:58.003Z</time></trkpt><trkpt lat="45.24923178834273" lon="8.5541480322491"><ele>107.0</ele><time>2026-04-18T10:02:59.003Z</time></trkpt><trkpt lat="45.24912989519416" lon="8.554149976147416"><ele>106.99999999999999</ele><time>2026-04-18T10:03:00.003Z</time></trkpt><trkpt lat="45.24902244912705" lon="8.554150353853194"><ele>106.99999999999999</ele><time>2026-04-18T10:03:01.003Z</time></trkpt><trkpt lat="45.24890706837501" lon="8.554161027713354"><ele>107.0</ele><time>2026-04-18T10:03:02.003Z</time></trkpt><trkpt lat="45.24880412344425" lon="8.55416001693827"><ele>107.0</ele><time>2026-04-18T10:03:03.003Z</time></trkpt><trkpt lat="45.24871265150485" lon="8.554165842445228"><ele>107.66666666666666</ele><time>2026-04-18T10:03:04.003Z</time></trkpt><trkpt lat="45.248635965311124" lon="8.554173818594606"><ele>108.33333333333333</ele><time>2026-04-18T10:03:05.003Z</time></trkpt><trkpt lat="45.24851583338098" lon="8.554164391943075"><ele>109.0</ele><time>2026-04-18T10:03:07Z</time></trkpt><trkpt lat="45.24845313358443" lon="8.554126405807015"><ele>109.66666666666666</ele><time>2026-04-18T10:03:08Z</time></trkpt><trkpt lat="45.24839722326168" lon="8.55405744769661"><ele>110.33333333333333</ele><time>2026-04-18T10:03:09Z</time></trkpt><trkpt lat="45.248356147155405" lon="8.553957707092183"><ele>111.0</ele><time>2026-04-18T10:03:10Z</time></trkpt><trkpt lat="45.2483275999834" lon="8.55383172602658"><ele>110.25</ele><time>2026-04-18T10:03:11Z</time></trkpt><trkpt lat="45.248295529865416" lon="8.553689927780729"><ele>109.5</ele><time>2026-04-18T10:03:12Z</time></trkpt><trkpt lat="45.24825486700194" lon="8.553533336030629"><ele>108.75</ele><time>2026-04-18T10:03:13Z</time></trkpt><trkpt lat="45.24820834093567" lon="8.553358753017983"><ele>108.0</ele><time>2026-04-18T10:03:14Z</time></trkpt><trkpt lat="45.24816458344238" lon="8.553189634237365"><ele>108.0</ele><time>2026-04-18T10:03:15Z</time></trkpt><trkpt lat="45.24811217026246" lon="8.55300999338"><ele>108.0</ele><time>2026-04-18T10:03:16Z</time></trkpt><trkpt lat="45.24805780389865" lon="8.552822001777924"><ele>108.0</ele><time>2026-04-18T10:03:17Z</time></trkpt><trkpt lat="45.24799814742813" lon="8.552627292010909"><ele>108.0</ele><time>2026-04-18T10:03:18Z</time></trkpt><trkpt lat="45.24793224965863" lon="8.552426948732622"><ele>108.0</ele><time>2026-04-18T10:03:19Z</time></trkpt><trkpt lat="45.24786304389045" lon="8.5522304150377"><ele>108.0</ele><time>2026-04-18T10:03:20Z</time></trkpt><trkpt lat="45.247806380706855" lon="8.552040043366652"><ele>108.0</ele><time>2026-04-18T10:03:21Z</time></trkpt><trkpt lat="45.247746604430375" lon="8.551842814678826"><ele>108.0</ele><time>2026-04-18T10:03:22Z</time></trkpt><trkpt lat="45.24767718571277" lon="8.551648698954727"><ele>108.0</ele><time>2026-04-18T10:03:23Z</time></trkpt><trkpt lat="45.247608294857095" lon="8.551456076566984"><ele>108.0</ele><time>2026-04-18T10:03:24Z</time></trkpt><trkpt lat="45.24754932203746" lon="8.55127519229832"><ele>108.0</ele><time>2026-04-18T10:03:25Z</time></trkpt><trkpt lat="45.24749583732041" lon="8.551110440678642"><ele>107.80000000000001</ele><time>2026-04-18T10:03:26Z</time></trkpt><trkpt lat="45.247443608730016" lon="8.550954237138253"><ele>107.60000000000001</ele><time>2026-04-18T10:03:27Z</time></trkpt><trkpt lat="45.24739664328395" lon="8.550810856850172"><ele>107.39999999999999</ele><time>2026-04-18T10:03:28Z</time></trkpt><trkpt lat="45.247354764543104" lon="8.550676511409533"><ele>107.19999999999999</ele><time>2026-04-18T10:03:29Z</time></trkpt><trkpt lat="45.24732161180447" lon="8.550563904925978"><ele>107.0</ele><time>2026-04-18T10:03:30Z</time></trkpt><trkpt lat="45.24728880226357" lon="8.550443347476788"><ele>107.16666666666666</ele><time>2026-04-18T10:03:31Z</time></trkpt><trkpt lat="45.24726429715165" lon="8.550349668220687"><ele>107.33333333333333</ele><time>2026-04-18T10:03:32Z</time></trkpt><trkpt lat="45.24723587470921" lon="8.550264914424542"><ele>107.5</ele><time>2026-04-18T10:03:33Z</time></trkpt><trkpt lat="45.24715204095334" lon="8.550131115880344"><ele>107.66666666666666</ele><time>2026-04-18T10:03:35Z</time></trkpt><trkpt lat="45.2470797394062" lon="8.550075929907475"><ele>107.83333333333333</ele><time>2026-04-18T10:03:36Z</time></trkpt><trkpt lat="45.2469953731117" lon="8.550020383513155"><ele>108.0</ele><time>2026-04-18T10:03:37.001Z</time></trkpt><trkpt lat="45.246895731901105" lon="8.549955693110746"><ele>108.0</ele><time>2026-04-18T10:03:38.001Z</time></trkpt><trkpt lat="45.24678421622573" lon="8.54988285919538"><ele>108.0</ele><time>2026-04-18T10:03:39.001Z</time></trkpt><trkpt lat="45.24667520532703" lon="8.549807328071681"><ele>108.0</ele><time>2026-04-18T10:03:40.001Z</time></trkpt><trkpt lat="45.246563481353064" lon="8.549730827510913"><ele>108.0</ele><time>2026-04-18T10:03:41.001Z</time></trkpt><trkpt lat="45.24643993125172" lon="8.549649953082744"><ele>108.0</ele><time>2026-04-18T10:03:42.001Z</time></trkpt><trkpt lat="45.246309716142385" lon="8.549565570030078"><ele>108.0</ele><time>2026-04-18T10:03:43.001Z</time></trkpt><trkpt lat="45.24617095126551" lon="8.549476607161893"><ele>108.0</ele><time>2026-04-18T10:03:44.001Z</time></trkpt><trkpt lat="45.24602965093474" lon="8.549390706101333"><ele>108.0</ele><time>2026-04-18T10:03:45.001Z</time></trkpt><trkpt lat="45.24590480927778" lon="8.549336260132153"><ele>108.25</ele><time>2026-04-18T10:03:46.001Z</time></trkpt><trkpt lat="45.245778703850526" lon="8.549291322397385"><ele>108.5</ele><time>2026-04-18T10:03:47.001Z</time></trkpt><trkpt lat="45.245637138693546" lon="8.549261639704529"><ele>108.75</ele><time>2026-04-18T10:03:48.001Z</time></trkpt><trkpt lat="45.24548809453142" lon="8.549228131256074"><ele>109.0</ele><time>2026-04-18T10:03:49.001Z</time></trkpt><trkpt lat="45.24533326149989" lon="8.549190239171315"><ele>108.33333333333334</ele><time>2026-04-18T10:03:50.001Z</time></trkpt><trkpt lat="45.24517734781198" lon="8.549151297806718"><ele>107.66666666666666</ele><time>2026-04-18T10:03:51.001Z</time></trkpt><trkpt lat="45.245016982745035" lon="8.549108662612303"><ele>107.0</ele><time>2026-04-18T10:03:52.001Z</time></trkpt><trkpt lat="45.24485047374498" lon="8.549062117406683"><ele>107.33333333333333</ele><time>2026-04-18T10:03:53.001Z</time></trkpt><trkpt lat="45.24468245864494" lon="8.549019285449768"><ele>107.66666666666666</ele><time>2026-04-18T10:03:54.001Z</time></trkpt><trkpt lat="45.24451839234071" lon="8.548976792214537"><ele>108.0</ele><time>2026-04-18T10:03:55.001Z</time></trkpt><trkpt lat="45.24435080305053" lon="8.548930743765982"><ele>108.0</ele><time>2026-04-18T10:03:56.001Z</time></trkpt><trkpt lat="45.244205932196245" lon="8.548889994699861"><ele>108.0</ele><time>2026-04-18T10:03:57.001Z</time></trkpt><trkpt lat="45.24407719833648" lon="8.54884340231663"><ele>108.0</ele><time>2026-04-18T10:03:58.001Z</time></trkpt><trkpt lat="45.24396279874282" lon="8.54879738496882"><ele>108.0</ele><time>2026-04-18T10:03:59.001Z</time></trkpt><trkpt lat="45.24385195634858" lon="8.548754743333703"><ele>107.80000000000001</ele><time>2026-04-18T10:04:00.001Z</time></trkpt><trkpt lat="45.24375243841824" lon="8.548722229901685"><ele>107.60000000000001</ele><time>2026-04-18T10:04:01.001Z</time></trkpt><trkpt lat="45.2436384781034" lon="8.548697718286876"><ele>107.39999999999999</ele><time>2026-04-18T10:04:02.001Z</time></trkpt><trkpt lat="45.243520539665305" lon="8.548682973362167"><ele>107.19999999999999</ele><time>2026-04-18T10:04:03.001Z</time></trkpt><trkpt lat="45.24340856128661" lon="8.548676734057635"><ele>107.0</ele><time>2026-04-18T10:04:04.001Z</time></trkpt><trkpt lat="45.24328520173656" lon="8.548682188359463"><ele>107.0</ele><time>2026-04-18T10:04:05.001Z</time></trkpt><trkpt lat="45.24315777299484" lon="8.548688012805027"><ele>107.0</ele><time>2026-04-18T10:04:06.001Z</time></trkpt><trkpt lat="45.24302595885977" lon="8.548673233123225"><ele>107.0</ele><time>2026-04-18T10:04:07.001Z</time></trkpt><trkpt lat="45.24289170919676" lon="8.548665787814073"><ele>107.0</ele><time>2026-04-18T10:04:08.001Z</time></trkpt><trkpt lat="45.242757988453285" lon="8.548661636460384"><ele>107.0</ele><time>2026-04-18T10:04:09.001Z</time></trkpt><trkpt lat="45.24262070603507" lon="8.548657236801736"><ele>107.0</ele><time>2026-04-18T10:04:10.002Z</time></trkpt><trkpt lat="45.24249131360553" lon="8.548653643653891"><ele>107.0</ele><time>2026-04-18T10:04:11.002Z</time></trkpt><trkpt lat="45.24238001830667" lon="8.548653624541641"><ele>107.0</ele><time>2026-04-18T10:04:12.002Z</time></trkpt><trkpt lat="45.24228289318644" lon="8.548656194354212"><ele>106.8</ele><time>2026-04-18T10:04:13.002Z</time></trkpt><trkpt lat="45.24218897239854" lon="8.548667689698465"><ele>106.6</ele><time>2026-04-18T10:04:14.002Z</time></trkpt><trkpt lat="45.24210245133913" lon="8.548696068456199"><ele>106.39999999999999</ele><time>2026-04-18T10:04:15.002Z</time></trkpt><trkpt lat="45.24200065943734" lon="8.548727708121637"><ele>106.19999999999999</ele><time>2026-04-18T10:04:16.002Z</time></trkpt><trkpt lat="45.24190028289004" lon="8.548770611770763"><ele>106.0</ele><time>2026-04-18T10:04:17.002Z</time></trkpt><trkpt lat="45.24178692261656" lon="8.548814955289949"><ele>106.25</ele><time>2026-04-18T10:04:18.002Z</time></trkpt><trkpt lat="45.24167343994479" lon="8.548853387043"><ele>106.5</ele><time>2026-04-18T10:04:19.002Z</time></trkpt><trkpt lat="45.24155999217852" lon="8.548887834684798"><ele>106.75</ele><time>2026-04-18T10:04:20.002Z</time></trkpt><trkpt lat="45.241446076028" lon="8.548929639354556"><ele>107.0</ele><time>2026-04-18T10:04:21.002Z</time></trkpt><trkpt lat="45.241334611689645" lon="8.548959020517804"><ele>107.0</ele><time>2026-04-18T10:04:22.002Z</time></trkpt><trkpt lat="45.241216785904605" lon="8.548989114210265"><ele>107.0</ele><time>2026-04-18T10:04:23.002Z</time></trkpt><trkpt lat="45.24109234120259" lon="8.54902052873668"><ele>107.0</ele><time>2026-04-18T10:04:24.002Z</time></trkpt><trkpt lat="45.24096449485081" lon="8.549048177365707"><ele>107.0</ele><time>2026-04-18T10:04:25.002Z</time></trkpt><trkpt lat="45.24083604814199" lon="8.549061315164423"><ele>107.0</ele><time>2026-04-18T10:04:26.002Z</time></trkpt><trkpt lat="45.240710857573134" lon="8.549072774655704"><ele>107.0</ele><time>2026-04-18T10:04:27.002Z</time></trkpt><trkpt lat="45.24058934907911" lon="8.549085301895873"><ele>107.0</ele><time>2026-04-18T10:04:28.002Z</time></trkpt><trkpt lat="45.240478354884516" lon="8.54909411456507"><ele>107.0</ele><time>2026-04-18T10:04:29.002Z</time></trkpt><trkpt lat="45.24036057116753" lon="8.549104542936059"><ele>107.0</ele><time>2026-04-18T10:04:30.002Z</time></trkpt><trkpt lat="45.24023545624392" lon="8.549121399688632"><ele>107.0</ele><time>2026-04-18T10:04:31.002Z</time></trkpt><trkpt lat="45.2401135106001" lon="8.549135879655735"><ele>107.0</ele><time>2026-04-18T10:04:32.002Z</time></trkpt><trkpt lat="45.23998630490913" lon="8.549149216422112"><ele>107.0</ele><time>2026-04-18T10:04:33.002Z</time></trkpt><trkpt lat="45.23986126473107" lon="8.549162494629353"><ele>107.0</ele><time>2026-04-18T10:04:34.002Z</time></trkpt><trkpt lat="45.239737370913886" lon="8.549175397807764"><ele>107.0</ele><time>2026-04-18T10:04:35.002Z</time></trkpt><trkpt lat="45.23960612607346" lon="8.54918960832406"><ele>107.0</ele><time>2026-04-18T10:04:36.002Z</time></trkpt><trkpt lat="45.23947723479065" lon="8.54920510655043"><ele>107.0</ele><time>2026-04-18T10:04:37.002Z</time></trkpt><trkpt lat="45.239345830655495" lon="8.549219082043424"><ele>107.0</ele><time>2026-04-18T10:04:38.002Z</time></trkpt><trkpt lat="45.23921573958455" lon="8.549224344997326"><ele>107.0</ele><time>2026-04-18T10:04:39.002Z</time></trkpt><trkpt lat="45.23908407168618" lon="8.549219544753642"><ele>107.0</ele><time>2026-04-18T10:04:40.002Z</time></trkpt><trkpt lat="45.23895254601038" lon="8.549199426498586"><ele>107.0</ele><time>2026-04-18T10:04:41.002Z</time></trkpt><trkpt lat="45.23881865690178" lon="8.549164720446083"><ele>106.75</ele><time>2026-04-18T10:04:42.002Z</time></trkpt><trkpt lat="45.23868404163162" lon="8.549125029983951"><ele>106.5</ele><time>2026-04-18T10:04:43.003Z</time></trkpt><trkpt lat="45.23855170489829" lon="8.549091016110074"><ele>106.25</ele><time>2026-04-18T10:04:44.003Z</time></trkpt><trkpt lat="45.23843139173942" lon="8.54906756995929"><ele>106.0</ele><time>2026-04-18T10:04:45.003Z</time></trkpt><trkpt lat="45.23832483153982" lon="8.549042145390196"><ele>106.0</ele><time>2026-04-18T10:04:46.003Z</time></trkpt><trkpt lat="45.23821700587736" lon="8.54900551743662"><ele>106.0</ele><time>2026-04-18T10:04:47.003Z</time></trkpt><trkpt lat="45.23810576470436" lon="8.548945047518071"><ele>106.0</ele><time>2026-04-18T10:04:48.003Z</time></trkpt><trkpt lat="45.23801431412596" lon="8.548868331834516"><ele>106.0</ele><time>2026-04-18T10:04:49.003Z</time></trkpt><trkpt lat="45.237906526630624" lon="8.548773459577271"><ele>106.19999999999999</ele><time>2026-04-18T10:04:50.003Z</time></trkpt><trkpt lat="45.23780237358731" lon="8.548673469451272"><ele>106.39999999999999</ele><time>2026-04-18T10:04:51.003Z</time></trkpt><trkpt lat="45.237703642198596" lon="8.548567170279481"><ele>106.6</ele><time>2026-04-18T10:04:52.003Z</time></trkpt><trkpt lat="45.23761841353274" lon="8.548480465657502"><ele>106.8</ele><time>2026-04-18T10:04:53.003Z</time></trkpt><trkpt lat="45.237537945824116" lon="8.548412120594671"><ele>107.0</ele><time>2026-04-18T10:04:54.003Z</time></trkpt><trkpt lat="45.237451436007916" lon="8.54836146325097"><ele>107.0</ele><time>2026-04-18T10:04:55.003Z</time></trkpt><trkpt lat="45.23735420733133" lon="8.548317232663036"><ele>106.99999999999999</ele><time>2026-04-18T10:04:56.003Z</time></trkpt><trkpt lat="45.23724725335735" lon="8.548288276342063"><ele>106.99999999999999</ele><time>2026-04-18T10:04:57.003Z</time></trkpt><trkpt lat="45.23713694463381" lon="8.548275741229897"><ele>107.0</ele><time>2026-04-18T10:04:58.003Z</time></trkpt><trkpt lat="45.23701081936195" lon="8.548266907935432"><ele>107.0</ele><time>2026-04-18T10:04:59.003Z</time></trkpt><trkpt lat="45.23688715858871" lon="8.548260151740061"><ele>107.75</ele><time>2026-04-18T10:05:00.003Z</time></trkpt><trkpt lat="45.236754265459034" lon="8.548253838748964"><ele>108.5</ele><time>2026-04-18T10:05:01.003Z</time></trkpt><trkpt lat="45.236624114745524" lon="8.548254192003546"><ele>109.25</ele><time>2026-04-18T10:05:02.003Z</time></trkpt><trkpt lat="45.23650165298163" lon="8.548260546612829"><ele>110.0</ele><time>2026-04-18T10:05:03.003Z</time></trkpt><trkpt lat="45.2363954323538" lon="8.5482756787804"><ele>110.0</ele><time>2026-04-18T10:05:04.003Z</time></trkpt><trkpt lat="45.23629084005651" lon="8.548297896432016"><ele>110.0</ele><time>2026-04-18T10:05:05.003Z</time></trkpt><trkpt lat="45.236166549706226" lon="8.54834929864831"><ele>110.0</ele><time>2026-04-18T10:05:06.003Z</time></trkpt><trkpt lat="45.23604111626404" lon="8.548407927099511"><ele>110.0</ele><time>2026-04-18T10:05:07.003Z</time></trkpt><trkpt lat="45.23591044870429" lon="8.54849199467942"><ele>110.0</ele><time>2026-04-18T10:05:08.003Z</time></trkpt><trkpt lat="45.23577574912386" lon="8.548568297286824"><ele>110.0</ele><time>2026-04-18T10:05:09.003Z</time></trkpt><trkpt lat="45.23563998477342" lon="8.548636953766708"><ele>110.0</ele><time>2026-04-18T10:05:10.003Z</time></trkpt><trkpt lat="45.23550481642839" lon="8.548700119313517"><ele>110.0</ele><time>2026-04-18T10:05:11.003Z</time></trkpt><trkpt lat="45.23536747592317" lon="8.548778386027333"><ele>110.66666666666666</ele><time>2026-04-18T10:05:12Z</time></trkpt><trkpt lat="45.235223037801305" lon="8.54885770851142"><ele>111.33333333333334</ele><time>2026-04-18T10:05:13Z</time></trkpt><trkpt lat="45.23508289510563" lon="8.548932333980238"><ele>112.0</ele><time>2026-04-18T10:05:14Z</time></trkpt><trkpt lat="45.23494488843595" lon="8.549007736110752"><ele>112.0</ele><time>2026-04-18T10:05:15Z</time></trkpt><trkpt lat="45.23480372129672" lon="8.549081505933056"><ele>112.0</ele><time>2026-04-18T10:05:16Z</time></trkpt><trkpt lat="45.234659408962926" lon="8.549155931872109"><ele>112.0</ele><time>2026-04-18T10:05:17Z</time></trkpt><trkpt lat="45.234511571874705" lon="8.54922317931208"><ele>112.0</ele><time>2026-04-18T10:05:18Z</time></trkpt><trkpt lat="45.23436137656935" lon="8.549276483458627"><ele>112.0</ele><time>2026-04-18T10:05:19Z</time></trkpt><trkpt lat="45.234208673623975" lon="8.549314593303135"><ele>112.0</ele><time>2026-04-18T10:05:20Z</time></trkpt><trkpt lat="45.23407077210216" lon="8.549320751708159"><ele>112.0</ele><time>2026-04-18T10:05:21Z</time></trkpt><trkpt lat="45.233944929331194" lon="8.549304369631395"><ele>111.75</ele><time>2026-04-18T10:05:22Z</time></trkpt><trkpt lat="45.23381684123649" lon="8.549268176136342"><ele>111.5</ele><time>2026-04-18T10:05:23Z</time></trkpt><trkpt lat="45.23369847559326" lon="8.549242174988777"><ele>111.25</ele><time>2026-04-18T10:05:24Z</time></trkpt><trkpt lat="45.23357054937735" lon="8.54921570153236"><ele>111.0</ele><time>2026-04-18T10:05:25Z</time></trkpt><trkpt lat="45.233435429975124" lon="8.549187685414754"><ele>111.0</ele><time>2026-04-18T10:05:26Z</time></trkpt><trkpt lat="45.23331579241817" lon="8.54916458704588"><ele>111.0</ele><time>2026-04-18T10:05:27Z</time></trkpt><trkpt lat="45.23320777591871" lon="8.549135060500435"><ele>111.0</ele><time>2026-04-18T10:05:28Z</time></trkpt><trkpt lat="45.23308984233926" lon="8.5490819006668"><ele>111.0</ele><time>2026-04-18T10:05:29Z</time></trkpt><trkpt lat="45.23297431245331" lon="8.549018759917772"><ele>110.6</ele><time>2026-04-18T10:05:30Z</time></trkpt><trkpt lat="45.232875512044885" lon="8.548929062903929"><ele>110.19999999999999</ele><time>2026-04-18T10:05:31Z</time></trkpt><trkpt lat="45.232794228110734" lon="8.548836436968202"><ele>109.80000000000001</ele><time>2026-04-18T10:05:32Z</time></trkpt><trkpt lat="45.23272752793278" lon="8.548745731324104"><ele>109.4</ele><time>2026-04-18T10:05:33Z</time></trkpt><trkpt lat="45.23266545001666" lon="8.548633520738651"><ele>109.0</ele><time>2026-04-18T10:05:34Z</time></trkpt><trkpt lat="45.23259789093465" lon="8.54849291669648"><ele>109.0</ele><time>2026-04-18T10:05:35Z</time></trkpt><trkpt lat="45.23251817100747" lon="8.548335251398944"><ele>109.0</ele><time>2026-04-18T10:05:36Z</time></trkpt><trkpt lat="45.23243703869004" lon="8.548161942338231"><ele>109.0</ele><time>2026-04-18T10:05:37Z</time></trkpt><trkpt lat="45.23235003461415" lon="8.54798452578868"><ele>109.0</ele><time>2026-04-18T10:05:38Z</time></trkpt><trkpt lat="45.232256718458984" lon="8.547795543444384"><ele>108.66666666666667</ele><time>2026-04-18T10:05:39Z</time></trkpt><trkpt lat="45.23215659075312" lon="8.547594147906189"><ele>108.33333333333334</ele><time>2026-04-18T10:05:40Z</time></trkpt><trkpt lat="45.23205456793474" lon="8.54738693272423"><ele>108.0</ele><time>2026-04-18T10:05:41Z</time></trkpt><trkpt lat="45.231940614848035" lon="8.547164283390053"><ele>107.66666666666666</ele><time>2026-04-18T10:05:42Z</time></trkpt><trkpt lat="45.23184489465299" lon="8.546961294945623"><ele>107.33333333333333</ele><time>2026-04-18T10:05:43Z</time></trkpt><trkpt lat="45.2317600083869" lon="8.546784658463517"><ele>107.0</ele><time>2026-04-18T10:05:44.001Z</time></trkpt><trkpt lat="45.23167243181032" lon="8.546614408082366"><ele>107.0</ele><time>2026-04-18T10:05:45.001Z</time></trkpt><trkpt lat="45.23159355955517" lon="8.54646684566666"><ele>107.0</ele><time>2026-04-18T10:05:46.001Z</time></trkpt><trkpt lat="45.231512920145875" lon="8.546317394784559"><ele>107.0</ele><time>2026-04-18T10:05:47.001Z</time></trkpt><trkpt lat="45.2314276207684" lon="8.546153965787084"><ele>107.0</ele><time>2026-04-18T10:05:48.001Z</time></trkpt><trkpt lat="45.2313310539342" lon="8.545982477865328"><ele>107.0</ele><time>2026-04-18T10:05:49.001Z</time></trkpt><trkpt lat="45.23123043992967" lon="8.545816438000392"><ele>107.0</ele><time>2026-04-18T10:05:50.001Z</time></trkpt><trkpt lat="45.23111926197045" lon="8.545649915303041"><ele>107.0</ele><time>2026-04-18T10:05:51.001Z</time></trkpt><trkpt lat="45.23100519855715" lon="8.545477366175179"><ele>107.0</ele><time>2026-04-18T10:05:52.001Z</time></trkpt><trkpt lat="45.230892427748245" lon="8.545310259949563"><ele>107.0</ele><time>2026-04-18T10:05:53.001Z</time></trkpt><trkpt lat="45.230771032859806" lon="8.545130216275584"><ele>107.0</ele><time>2026-04-18T10:05:54.001Z</time></trkpt><trkpt lat="45.230652316843745" lon="8.54495950309632"><ele>106.66666666666666</ele><time>2026-04-18T10:05:55.001Z</time></trkpt><trkpt lat="45.23053254017846" lon="8.54478424356288"><ele>106.33333333333334</ele><time>2026-04-18T10:05:56.001Z</time></trkpt><trkpt lat="45.23041128352393" lon="8.544616328816588"><ele>106.0</ele><time>2026-04-18T10:05:57.001Z</time></trkpt><trkpt lat="45.23028420864671" lon="8.544447650726527"><ele>106.66666666666667</ele><time>2026-04-18T10:05:58.001Z</time></trkpt><trkpt lat="45.230163992239355" lon="8.544288796806796"><ele>107.33333333333334</ele><time>2026-04-18T10:05:59.001Z</time></trkpt><trkpt lat="45.23004930649173" lon="8.54414477007873"><ele>108.0</ele><time>2026-04-18T10:06:00.001Z</time></trkpt><trkpt lat="45.22994515662308" lon="8.54400785071916"><ele>108.0</ele><time>2026-04-18T10:06:01.001Z</time></trkpt><trkpt lat="45.22983792541196" lon="8.543858654281959"><ele>108.0</ele><time>2026-04-18T10:06:02.001Z</time></trkpt><trkpt lat="45.229728635174936" lon="8.543712157825231"><ele>108.0</ele><time>2026-04-18T10:06:03.001Z</time></trkpt><trkpt lat="45.22963131370315" lon="8.543584098780533"><ele>108.0</ele><time>2026-04-18T10:06:04.001Z</time></trkpt><trkpt lat="45.22953993912186" lon="8.543458212879372"><ele>108.25</ele><time>2026-04-18T10:06:05.001Z</time></trkpt><trkpt lat="45.22944378717385" lon="8.543318047616728"><ele>108.5</ele><time>2026-04-18T10:06:06.001Z</time></trkpt><trkpt lat="45.22934364517669" lon="8.54317980047707"><ele>108.75</ele><time>2026-04-18T10:06:07.001Z</time></trkpt><trkpt lat="45.2292428357728" lon="8.543041908340305"><ele>109.0</ele><time>2026-04-18T10:06:08.001Z</time></trkpt><trkpt lat="45.229142054691614" lon="8.542902174435874"><ele>108.5</ele><time>2026-04-18T10:06:09.001Z</time></trkpt><trkpt lat="45.22903486928472" lon="8.54275879087947"><ele>108.0</ele><time>2026-04-18T10:06:10.001Z</time></trkpt><trkpt lat="45.228931788692115" lon="8.542622218855257"><ele>107.5</ele><time>2026-04-18T10:06:11.001Z</time></trkpt><trkpt lat="45.22883875078236" lon="8.54249623321311"><ele>107.0</ele><time>2026-04-18T10:06:12.001Z</time></trkpt><trkpt lat="45.22873580021979" lon="8.54236232889883"><ele>106.75</ele><time>2026-04-18T10:06:13.001Z</time></trkpt><trkpt lat="45.22863372862908" lon="8.542229925399802"><ele>106.5</ele><time>2026-04-18T10:06:14.001Z</time></trkpt><trkpt lat="45.228529603480695" lon="8.542093781398563"><ele>106.25</ele><time>2026-04-18T10:06:15.001Z</time></trkpt><trkpt lat="45.22842612424159" lon="8.541963572712728"><ele>106.0</ele><time>2026-04-18T10:06:16.002Z</time></trkpt><trkpt lat="45.2283203854526" lon="8.541827074118117"><ele>106.0</ele><time>2026-04-18T10:06:17.002Z</time></trkpt><trkpt lat="45.22821814761541" lon="8.541690027247808"><ele>106.0</ele><time>2026-04-18T10:06:18.002Z</time></trkpt><trkpt lat="45.22811070031431" lon="8.541553123061796"><ele>106.0</ele><time>2026-04-18T10:06:19.002Z</time></trkpt><trkpt lat="45.22800939410527" lon="8.541418966216442"><ele>106.0</ele><time>2026-04-18T10:06:20.002Z</time></trkpt><trkpt lat="45.22792072712288" lon="8.541304564027186"><ele>106.5</ele><time>2026-04-18T10:06:21.002Z</time></trkpt><trkpt lat="45.227840554220705" lon="8.541201296009232"><ele>107.0</ele><time>2026-04-18T10:06:22.002Z</time></trkpt><trkpt lat="45.227753053705705" lon="8.541084508063621"><ele>107.5</ele><time>2026-04-18T10:06:23.002Z</time></trkpt><trkpt lat="45.227663503907934" lon="8.540964222514049"><ele>108.0</ele><time>2026-04-18T10:06:24.002Z</time></trkpt><trkpt lat="45.2275745385924" lon="8.540845286575903"><ele>108.0</ele><time>2026-04-18T10:06:25.002Z</time></trkpt><trkpt lat="45.22749564762661" lon="8.540738133425373"><ele>108.0</ele><time>2026-04-18T10:06:26.002Z</time></trkpt><trkpt lat="45.22742839015752" lon="8.54064223887384"><ele>108.0</ele><time>2026-04-18T10:06:27.002Z</time></trkpt><trkpt lat="45.22738083322907" lon="8.540559211444688"><ele>108.0</ele><time>2026-04-18T10:06:28.002Z</time></trkpt><trkpt lat="45.2273480829037" lon="8.540468420496873"><ele>108.0</ele><time>2026-04-18T10:06:29.002Z</time></trkpt><trkpt lat="45.22732756951027" lon="8.540380380568592"><ele>108.0</ele><time>2026-04-18T10:06:30.002Z</time></trkpt><trkpt lat="45.227311114564905" lon="8.540273426906548"><ele>107.83333333333333</ele><time>2026-04-18T10:06:31.002Z</time></trkpt><trkpt lat="45.22730451801682" lon="8.540159942317109"><ele>107.66666666666666</ele><time>2026-04-18T10:06:32.002Z</time></trkpt><trkpt lat="45.227307914005166" lon="8.540045701607632"><ele>107.5</ele><time>2026-04-18T10:06:33.002Z</time></trkpt><trkpt lat="45.22731742299693" lon="8.539935456358242"><ele>107.33333333333333</ele><time>2026-04-18T10:06:34.002Z</time></trkpt><trkpt lat="45.22731900869579" lon="8.539819884423228"><ele>107.16666666666666</ele><time>2026-04-18T10:06:35.002Z</time></trkpt><trkpt lat="45.2273208645974" lon="8.539706141584151"><ele>107.0</ele><time>2026-04-18T10:06:36.002Z</time></trkpt><trkpt lat="45.227322755958554" lon="8.53958872804958"><ele>107.19999999999999</ele><time>2026-04-18T10:06:37.002Z</time></trkpt><trkpt lat="45.22732468050251" lon="8.539463968048029"><ele>107.39999999999999</ele><time>2026-04-18T10:06:38.002Z</time></trkpt><trkpt lat="45.227328314024454" lon="8.539321302095193"><ele>107.60000000000001</ele><time>2026-04-18T10:06:39.002Z</time></trkpt><trkpt lat="45.22733557841454" lon="8.539177874119869"><ele>107.80000000000001</ele><time>2026-04-18T10:06:40.002Z</time></trkpt><trkpt lat="45.22733411257745" lon="8.539004399892288"><ele>108.0</ele><time>2026-04-18T10:06:41.002Z</time></trkpt><trkpt lat="45.22733378089008" lon="8.53883089115035"><ele>107.25</ele><time>2026-04-18T10:06:42.002Z</time></trkpt><trkpt lat="45.22733180602215" lon="8.538646822031708"><ele>106.5</ele><time>2026-04-18T10:06:43.002Z</time></trkpt><trkpt lat="45.22732805292568" lon="8.538443293607775"><ele>105.75</ele><time>2026-04-18T10:06:44.002Z</time></trkpt><trkpt lat="45.2273251103443" lon="8.538241829883328"><ele>105.0</ele><time>2026-04-18T10:06:45.002Z</time></trkpt><trkpt lat="45.227327390337045" lon="8.53802438755517"><ele>105.33333333333334</ele><time>2026-04-18T10:06:46.002Z</time></trkpt><trkpt lat="45.2273326786957" lon="8.53779969989486"><ele>105.66666666666667</ele><time>2026-04-18T10:06:47.002Z</time></trkpt><trkpt lat="45.22733943839142" lon="8.537570674915115"><ele>106.0</ele><time>2026-04-18T10:06:48.002Z</time></trkpt><trkpt lat="45.22734447112996" lon="8.537339539551965"><ele>106.0</ele><time>2026-04-18T10:06:49.003Z</time></trkpt><trkpt lat="45.227343347172386" lon="8.537094280458417"><ele>106.0</ele><time>2026-04-18T10:06:50.003Z</time></trkpt><trkpt lat="45.22734526262498" lon="8.53685370289342"><ele>106.0</ele><time>2026-04-18T10:06:51.003Z</time></trkpt><trkpt lat="45.22735165218318" lon="8.536613921771242"><ele>106.0</ele><time>2026-04-18T10:06:52.003Z</time></trkpt><trkpt lat="45.22735437155142" lon="8.53641124383989"><ele>106.0</ele><time>2026-04-18T10:06:53.003Z</time></trkpt><trkpt lat="45.22735289746172" lon="8.536219234075231"><ele>106.0</ele><time>2026-04-18T10:06:54.003Z</time></trkpt><trkpt lat="45.22736081200392" lon="8.536033963478523"><ele>106.0</ele><time>2026-04-18T10:06:55.003Z</time></trkpt><trkpt lat="45.227360760083144" lon="8.535832812389534"><ele>106.0</ele><time>2026-04-18T10:06:56.003Z</time></trkpt><trkpt lat="45.22736476820348" lon="8.535625190755233"><ele>106.0</ele><time>2026-04-18T10:06:57.003Z</time></trkpt><trkpt lat="45.22736834406484" lon="8.535409652736355"><ele>106.0</ele><time>2026-04-18T10:06:58.003Z</time></trkpt><trkpt lat="45.22737021699072" lon="8.535201835540406"><ele>106.0</ele><time>2026-04-18T10:06:59.003Z</time></trkpt><trkpt lat="45.22736911469826" lon="8.53501481793565"><ele>106.0</ele><time>2026-04-18T10:07:00.003Z</time></trkpt><trkpt lat="45.22737034841664" lon="8.534850001080889"><ele>106.0</ele><time>2026-04-18T10:07:01.003Z</time></trkpt><trkpt lat="45.22737068694899" lon="8.534702222492568"><ele>106.0</ele><time>2026-04-18T10:07:02.003Z</time></trkpt><trkpt lat="45.22736955495656" lon="8.534575235079886"><ele>106.0</ele><time>2026-04-18T10:07:03.003Z</time></trkpt><trkpt lat="45.22736764042108" lon="8.534465382696194"><ele>106.0</ele><time>2026-04-18T10:07:04.003Z</time></trkpt><trkpt lat="45.22735838940289" lon="8.534352729850072"><ele>106.00000000000001</ele><time>2026-04-18T10:07:05.003Z</time></trkpt><trkpt lat="45.227347144820165" lon="8.534256010303611"><ele>106.0</ele><time>2026-04-18T10:07:06.003Z</time></trkpt><trkpt lat="45.22732914897552" lon="8.534148089215106"><ele>106.0</ele><time>2026-04-18T10:07:07.003Z</time></trkpt><trkpt lat="45.22729791027177" lon="8.534037931973417"><ele>106.0</ele><time>2026-04-18T10:07:08.003Z</time></trkpt><trkpt lat="45.22725546470357" lon="8.533931109766641"><ele>106.00000000000001</ele><time>2026-04-18T10:07:09.003Z</time></trkpt><trkpt lat="45.22719788360908" lon="8.53383182294508"><ele>106.0</ele><time>2026-04-18T10:07:10.003Z</time></trkpt><trkpt lat="45.22712336327002" lon="8.533748734776404"><ele>106.0</ele><time>2026-04-18T10:07:11.003Z</time></trkpt><trkpt lat="45.22704168350886" lon="8.533674993328992"><ele>106.0</ele><time>2026-04-18T10:07:12.003Z</time></trkpt><trkpt lat="45.22694931438448" lon="8.53360006343194"><ele>106.0</ele><time>2026-04-18T10:07:13.003Z</time></trkpt><trkpt lat="45.2268527385818" lon="8.53352787595852"><ele>106.0</ele><time>2026-04-18T10:07:14.003Z</time></trkpt><trkpt lat="45.22675031843825" lon="8.533444325624973"><ele>106.0</ele><time>2026-04-18T10:07:15.003Z</time></trkpt><trkpt lat="45.22664467731127" lon="8.53335276322479"><ele>106.0</ele><time>2026-04-18T10:07:16.003Z</time></trkpt><trkpt lat="45.22653034216198" lon="8.533264236411696"><ele>106.0</ele><time>2026-04-18T10:07:17.003Z</time></trkpt><trkpt lat="45.22641142060436" lon="8.533171917275022"><ele>106.0</ele><time>2026-04-18T10:07:18Z</time></trkpt><trkpt lat="45.22628451234621" lon="8.533079480875388"><ele>106.0</ele><time>2026-04-18T10:07:19Z</time></trkpt><trkpt lat="45.2261551501971" lon="8.53298125530197"><ele>106.0</ele><time>2026-04-18T10:07:20Z</time></trkpt><trkpt lat="45.226027141323" lon="8.532881481027122"><ele>106.0</ele><time>2026-04-18T10:07:21Z</time></trkpt><trkpt lat="45.22589349791065" lon="8.532784450267197"><ele>106.0</ele><time>2026-04-18T10:07:22Z</time></trkpt><trkpt lat="45.22575262187072" lon="8.532685014340583"><ele>106.0</ele><time>2026-04-18T10:07:23Z</time></trkpt><trkpt lat="45.22561300394488" lon="8.532578154570848"><ele>106.0</ele><time>2026-04-18T10:07:24Z</time></trkpt><trkpt lat="45.2254758700724" lon="8.53246742288625"><ele>106.0</ele><time>2026-04-18T10:07:25Z</time></trkpt><trkpt lat="45.225332700040155" lon="8.532354885987358"><ele>106.0</ele><time>2026-04-18T10:07:26Z</time></trkpt><trkpt lat="45.225194130584" lon="8.532250058454123"><ele>106.0</ele><time>2026-04-18T10:07:27Z</time></trkpt><trkpt lat="45.225044591708524" lon="8.532140505330446"><ele>106.0</ele><time>2026-04-18T10:07:28Z</time></trkpt><trkpt lat="45.22489150770446" lon="8.532029746164799"><ele>106.0</ele><time>2026-04-18T10:07:29Z</time></trkpt><trkpt lat="45.22474548102546" lon="8.531918132228721"><ele>106.0</ele><time>2026-04-18T10:07:30Z</time></trkpt><trkpt lat="45.22459451078059" lon="8.531801655178626"><ele>106.0</ele><time>2026-04-18T10:07:31Z</time></trkpt><trkpt lat="45.22445017054862" lon="8.531689475605521"><ele>106.0</ele><time>2026-04-18T10:07:32Z</time></trkpt><trkpt lat="45.22432466470442" lon="8.531595153070468"><ele>106.0</ele><time>2026-04-18T10:07:33Z</time></trkpt><trkpt lat="45.22420471964265" lon="8.53151234378738"><ele>106.0</ele><time>2026-04-18T10:07:34Z</time></trkpt><trkpt lat="45.22409555689991" lon="8.531428264625932"><ele>106.0</ele><time>2026-04-18T10:07:35Z</time></trkpt><trkpt lat="45.223980037845145" lon="8.531338794177664"><ele>105.75</ele><time>2026-04-18T10:07:36Z</time></trkpt><trkpt lat="45.223855299278675" lon="8.531241037798829"><ele>105.5</ele><time>2026-04-18T10:07:37Z</time></trkpt><trkpt lat="45.223725767900284" lon="8.531139989639888"><ele>105.25</ele><time>2026-04-18T10:07:38Z</time></trkpt><trkpt lat="45.22359589479909" lon="8.531036139078177"><ele>105.0</ele><time>2026-04-18T10:07:39Z</time></trkpt><trkpt lat="45.2234601516092" lon="8.530932600787056"><ele>105.0</ele><time>2026-04-18T10:07:40Z</time></trkpt><trkpt lat="45.2233162543853" lon="8.530832490195145"><ele>105.0</ele><time>2026-04-18T10:07:41Z</time></trkpt><trkpt lat="45.22317101657681" lon="8.530738290983175"><ele>105.0</ele><time>2026-04-18T10:07:42Z</time></trkpt><trkpt lat="45.22303027025126" lon="8.530650327747074"><ele>104.33333333333334</ele><time>2026-04-18T10:07:43Z</time></trkpt><trkpt lat="45.22288491478022" lon="8.530582749124031"><ele>103.66666666666667</ele><time>2026-04-18T10:07:44Z</time></trkpt><trkpt lat="45.22273714499223" lon="8.530517209862923"><ele>103.0</ele><time>2026-04-18T10:07:45Z</time></trkpt><trkpt lat="45.2225868860883" lon="8.530459123344905"><ele>103.0</ele><time>2026-04-18T10:07:46Z</time></trkpt><trkpt lat="45.22242782154256" lon="8.530409127112522"><ele>103.0</ele><time>2026-04-18T10:07:47Z</time></trkpt><trkpt lat="45.222268242812994" lon="8.53037724463179"><ele>103.0</ele><time>2026-04-18T10:07:48.001Z</time></trkpt><trkpt lat="45.22210752991485" lon="8.530367719920866"><ele>103.33333333333334</ele><time>2026-04-18T10:07:49.001Z</time></trkpt><trkpt lat="45.221944196997704" lon="8.530370230761797"><ele>103.66666666666666</ele><time>2026-04-18T10:07:50.001Z</time></trkpt><trkpt lat="45.22178274525429" lon="8.53038369086042"><ele>104.0</ele><time>2026-04-18T10:07:51.001Z</time></trkpt><trkpt lat="45.221624372584074" lon="8.530397772924866"><ele>104.66666666666666</ele><time>2026-04-18T10:07:52.001Z</time></trkpt><trkpt lat="45.221466453783655" lon="8.530421816036398"><ele>105.33333333333334</ele><time>2026-04-18T10:07:53.001Z</time></trkpt><trkpt lat="45.221307471141856" lon="8.530467364724593"><ele>106.0</ele><time>2026-04-18T10:07:54.001Z</time></trkpt><trkpt lat="45.22115421218923" lon="8.530521135557573"><ele>106.0</ele><time>2026-04-18T10:07:55.001Z</time></trkpt><trkpt lat="45.22100629688178" lon="8.530587183218776"><ele>106.0</ele><time>2026-04-18T10:07:56.001Z</time></trkpt><trkpt lat="45.220861962674164" lon="8.53066691439862"><ele>106.0</ele><time>2026-04-18T10:07:57.001Z</time></trkpt><trkpt lat="45.22071361958977" lon="8.530738257316846"><ele>105.33333333333334</ele><time>2026-04-18T10:07:58.001Z</time></trkpt><trkpt lat="45.22056671395324" lon="8.530821540184329"><ele>104.66666666666666</ele><time>2026-04-18T10:07:59.001Z</time></trkpt><trkpt lat="45.220420882357544" lon="8.530917749774014"><ele>104.0</ele><time>2026-04-18T10:08:00.001Z</time></trkpt><trkpt lat="45.220294067530986" lon="8.531015852793775"><ele>104.0</ele><time>2026-04-18T10:08:01.001Z</time></trkpt><trkpt lat="45.22017483078394" lon="8.531117157065719"><ele>104.0</ele><time>2026-04-18T10:08:02.001Z</time></trkpt><trkpt lat="45.220051758528854" lon="8.531220882824098"><ele>104.0</ele><time>2026-04-18T10:08:03.001Z</time></trkpt><trkpt lat="45.21992310819827" lon="8.531316095958182"><ele>104.0</ele><time>2026-04-18T10:08:04.001Z</time></trkpt><trkpt lat="45.219783137456744" lon="8.531419521999474"><ele>106.0</ele><time>2026-04-18T10:08:05.001Z</time></trkpt><trkpt lat="45.219644509638755" lon="8.531522901454853"><ele>108.0</ele><time>2026-04-18T10:08:06.001Z</time></trkpt><trkpt lat="45.21950397493745" lon="8.531632684996888"><ele>110.0</ele><time>2026-04-18T10:08:07.001Z</time></trkpt><trkpt lat="45.21936426182139" lon="8.53174350455346"><ele>110.0</ele><time>2026-04-18T10:08:08.001Z</time></trkpt><trkpt lat="45.2192264560246" lon="8.53185911748543"><ele>110.0</ele><time>2026-04-18T10:08:09.001Z</time></trkpt><trkpt lat="45.21908558315033" lon="8.531979864713133"><ele>110.0</ele><time>2026-04-18T10:08:10.001Z</time></trkpt><trkpt lat="45.218930887136" lon="8.532112095888852"><ele>109.66666666666666</ele><time>2026-04-18T10:08:11.001Z</time></trkpt><trkpt lat="45.2187880999976" lon="8.532247180573851"><ele>109.33333333333334</ele><time>2026-04-18T10:08:12.001Z</time></trkpt><trkpt lat="45.21864203814064" lon="8.532369815282792"><ele>109.0</ele><time>2026-04-18T10:08:13.001Z</time></trkpt><trkpt lat="45.218498035483705" lon="8.53249983842771"><ele>109.0</ele><time>2026-04-18T10:08:14.001Z</time></trkpt><trkpt lat="45.21835806611297" lon="8.532628231120848"><ele>109.0</ele><time>2026-04-18T10:08:15.001Z</time></trkpt><trkpt lat="45.21821519597245" lon="8.532754891368375"><ele>109.0</ele><time>2026-04-18T10:08:16.001Z</time></trkpt><trkpt lat="45.21807213002706" lon="8.532882044470602"><ele>107.66666666666667</ele><time>2026-04-18T10:08:17.001Z</time></trkpt><trkpt lat="45.21793010362398" lon="8.53301118275847"><ele>106.33333333333334</ele><time>2026-04-18T10:08:18.001Z</time></trkpt><trkpt lat="45.21778782460323" lon="8.53313924495749"><ele>105.0</ele><time>2026-04-18T10:08:19.002Z</time></trkpt><trkpt lat="45.21764941308612" lon="8.533271462154893"><ele>105.0</ele><time>2026-04-18T10:08:20.002Z</time></trkpt><trkpt lat="45.217508473474226" lon="8.533398451351987"><ele>105.0</ele><time>2026-04-18T10:08:21.002Z</time></trkpt><trkpt lat="45.217373647046564" lon="8.533522662912299"><ele>105.0</ele><time>2026-04-18T10:08:22.002Z</time></trkpt><trkpt lat="45.21722556863841" lon="8.533647311866687"><ele>105.66666666666666</ele><time>2026-04-18T10:08:23.002Z</time></trkpt><trkpt lat="45.21708769006275" lon="8.533775574596957"><ele>106.33333333333333</ele><time>2026-04-18T10:08:24.002Z</time></trkpt><trkpt lat="45.21694753026569" lon="8.533905018840223"><ele>107.0</ele><time>2026-04-18T10:08:25.002Z</time></trkpt><trkpt lat="45.216808945161645" lon="8.534030178695293"><ele>107.0</ele><time>2026-04-18T10:08:26.002Z</time></trkpt><trkpt lat="45.21666337571918" lon="8.53415287607703"><ele>107.0</ele><time>2026-04-18T10:08:27.002Z</time></trkpt><trkpt lat="45.2165245522587" lon="8.534275486466171"><ele>107.0</ele><time>2026-04-18T10:08:28.002Z</time></trkpt><trkpt lat="45.2163880638002" lon="8.53440431055812"><ele>106.66666666666666</ele><time>2026-04-18T10:08:29.002Z</time></trkpt><trkpt lat="45.21625068113993" lon="8.534532311271445"><ele>106.33333333333334</ele><time>2026-04-18T10:08:30.002Z</time></trkpt><trkpt lat="45.216116377698896" lon="8.53464888728208"><ele>106.0</ele><time>2026-04-18T10:08:31.002Z</time></trkpt><trkpt lat="45.215980177663745" lon="8.534765771286734"><ele>106.0</ele><time>2026-04-18T10:08:32.002Z</time></trkpt><trkpt lat="45.215838234427586" lon="8.534878688313125"><ele>106.0</ele><time>2026-04-18T10:08:33.002Z</time></trkpt><trkpt lat="45.21570618829685" lon="8.535016105215696"><ele>106.0</ele><time>2026-04-18T10:08:34.002Z</time></trkpt><trkpt lat="45.215566872622645" lon="8.535145938205616"><ele>106.0</ele><time>2026-04-18T10:08:35.002Z</time></trkpt><trkpt lat="45.21542559639676" lon="8.535264641062156"><ele>106.0</ele><time>2026-04-18T10:08:36.002Z</time></trkpt><trkpt lat="45.21528083547405" lon="8.535386004292572"><ele>106.0</ele><time>2026-04-18T10:08:37.002Z</time></trkpt><trkpt lat="45.215142423240785" lon="8.53550758371899"><ele>106.0</ele><time>2026-04-18T10:08:38.002Z</time></trkpt><trkpt lat="45.21500152965097" lon="8.535629423029611"><ele>106.0</ele><time>2026-04-18T10:08:39.002Z</time></trkpt><trkpt lat="45.214863043820195" lon="8.535762412595966"><ele>106.0</ele><time>2026-04-18T10:08:40.002Z</time></trkpt><trkpt lat="45.21471974707896" lon="8.535898364567343"><ele>106.0</ele><time>2026-04-18T10:08:41.002Z</time></trkpt><trkpt lat="45.21458129775389" lon="8.536037402517515"><ele>106.0</ele><time>2026-04-18T10:08:42.002Z</time></trkpt><trkpt lat="45.21445086524522" lon="8.536175383461641"><ele>106.0</ele><time>2026-04-18T10:08:43.002Z</time></trkpt><trkpt lat="45.21433370225015" lon="8.53630516041724"><ele>105.5</ele><time>2026-04-18T10:08:44.002Z</time></trkpt><trkpt lat="45.21423817231272" lon="8.536430716943118"><ele>105.0</ele><time>2026-04-18T10:08:45.002Z</time></trkpt><trkpt lat="45.214133289380186" lon="8.536586194004144"><ele>104.5</ele><time>2026-04-18T10:08:46.002Z</time></trkpt><trkpt lat="45.21402817242949" lon="8.536757625522329"><ele>104.0</ele><time>2026-04-18T10:08:47.002Z</time></trkpt><trkpt lat="45.21392876394848" lon="8.53693393650436"><ele>103.33333333333333</ele><time>2026-04-18T10:08:48.002Z</time></trkpt><trkpt lat="45.21382367895623" lon="8.537118090159717"><ele>102.66666666666666</ele><time>2026-04-18T10:08:49.002Z</time></trkpt><trkpt lat="45.21371045625274" lon="8.537307723291667"><ele>102.0</ele><time>2026-04-18T10:08:50.002Z</time></trkpt><trkpt lat="45.213599188790155" lon="8.537497936452677"><ele>102.0</ele><time>2026-04-18T10:08:51.002Z</time></trkpt><trkpt lat="45.21349593346298" lon="8.537679913762464"><ele>102.0</ele><time>2026-04-18T10:08:52.003Z</time></trkpt><trkpt lat="45.213407659767306" lon="8.537843689759763"><ele>102.0</ele><time>2026-04-18T10:08:53.003Z</time></trkpt><trkpt lat="45.213316508408205" lon="8.538019349481921"><ele>102.0</ele><time>2026-04-18T10:08:54.003Z</time></trkpt><trkpt lat="45.213221532211286" lon="8.538193751575855"><ele>102.0</ele><time>2026-04-18T10:08:55.003Z</time></trkpt><trkpt lat="45.213127222504944" lon="8.53837025903771"><ele>102.0</ele><time>2026-04-18T10:08:56.003Z</time></trkpt><trkpt lat="45.21303459178045" lon="8.538556581689765"><ele>102.25</ele><time>2026-04-18T10:08:57.003Z</time></trkpt><trkpt lat="45.21294932633051" lon="8.538712122642846"><ele>102.5</ele><time>2026-04-18T10:08:58.003Z</time></trkpt><trkpt lat="45.2128717845377" lon="8.53887120994319"><ele>102.75</ele><time>2026-04-18T10:08:59.003Z</time></trkpt><trkpt lat="45.212781085402554" lon="8.539031646890285"><ele>103.0</ele><time>2026-04-18T10:09:00.003Z</time></trkpt><trkpt lat="45.21268537465217" lon="8.539199165098447"><ele>103.0</ele><time>2026-04-18T10:09:01.003Z</time></trkpt><trkpt lat="45.212597936970575" lon="8.539392919254173"><ele>103.0</ele><time>2026-04-18T10:09:02.003Z</time></trkpt><trkpt lat="45.2125078842369" lon="8.539570297496752"><ele>103.0</ele><time>2026-04-18T10:09:03.003Z</time></trkpt><trkpt lat="45.212426727184685" lon="8.539731898639076"><ele>103.0</ele><time>2026-04-18T10:09:04.003Z</time></trkpt><trkpt lat="45.21234083449222" lon="8.539909858365862"><ele>103.0</ele><time>2026-04-18T10:09:05.003Z</time></trkpt><trkpt lat="45.21224847454422" lon="8.54008760392138"><ele>103.0</ele><time>2026-04-18T10:09:06.003Z</time></trkpt><trkpt lat="45.21215451772648" lon="8.540274780873466"><ele>103.33333333333334</ele><time>2026-04-18T10:09:07.003Z</time></trkpt><trkpt lat="45.21205800009558" lon="8.540447100952328"><ele>103.66666666666666</ele><time>2026-04-18T10:09:08.003Z</time></trkpt><trkpt lat="45.211955679494686" lon="8.540623881089239"><ele>104.0</ele><time>2026-04-18T10:09:09.003Z</time></trkpt><trkpt lat="45.21185359551969" lon="8.540810449861745"><ele>104.0</ele><time>2026-04-18T10:09:10.003Z</time></trkpt><trkpt lat="45.211749759150145" lon="8.540992454173479"><ele>104.0</ele><time>2026-04-18T10:09:11.003Z</time></trkpt><trkpt lat="45.21164269497793" lon="8.541183940828315"><ele>104.0</ele><time>2026-04-18T10:09:12.003Z</time></trkpt><trkpt lat="45.21153520166272" lon="8.541370686136636"><ele>103.33333333333333</ele><time>2026-04-18T10:09:13.003Z</time></trkpt><trkpt lat="45.21143455492492" lon="8.541560473285806"><ele>102.66666666666666</ele><time>2026-04-18T10:09:14.003Z</time></trkpt><trkpt lat="45.211326107388764" lon="8.541727833372827"><ele>102.0</ele><time>2026-04-18T10:09:15.003Z</time></trkpt><trkpt lat="45.211237620569904" lon="8.541896990919374"><ele>102.0</ele><time>2026-04-18T10:09:16.003Z</time></trkpt><trkpt lat="45.211153033004074" lon="8.542060643175269"><ele>102.0</ele><time>2026-04-18T10:09:17.003Z</time></trkpt><trkpt lat="45.211068257910966" lon="8.54221776759641"><ele>102.0</ele><time>2026-04-18T10:09:18.003Z</time></trkpt><trkpt lat="45.21099261041537" lon="8.542354605149876"><ele>102.0</ele><time>2026-04-18T10:09:19.003Z</time></trkpt><trkpt lat="45.21092381002905" lon="8.542479190194868"><ele>102.0</ele><time>2026-04-18T10:09:20.003Z</time></trkpt><trkpt lat="45.210864065627085" lon="8.54259563296499"><ele>102.0</ele><time>2026-04-18T10:09:21.003Z</time></trkpt><trkpt lat="45.21081020822762" lon="8.542697001740605"><ele>102.0</ele><time>2026-04-18T10:09:22.003Z</time></trkpt><trkpt lat="45.210762371456994" lon="8.542795259886931"><ele>102.0</ele><time>2026-04-18T10:09:23.003Z</time></trkpt><trkpt lat="45.21071408615832" lon="8.54289349538799"><ele>102.0</ele><time>2026-04-18T10:09:24Z</time></trkpt><trkpt lat="45.21067139365746" lon="8.542990471518653"><ele>102.0</ele><time>2026-04-18T10:09:25Z</time></trkpt><trkpt lat="45.210644789486835" lon="8.543084149345368"><ele>102.0</ele><time>2026-04-18T10:09:26Z</time></trkpt><trkpt lat="45.2106287335813" lon="8.543173919797894"><ele>102.0</ele><time>2026-04-18T10:09:27Z</time></trkpt><trkpt lat="45.21063301459406" lon="8.543292195607194"><ele>102.0</ele><time>2026-04-18T10:09:28Z</time></trkpt><trkpt lat="45.21063263536452" lon="8.543396237298241"><ele>102.0</ele><time>2026-04-18T10:09:29Z</time></trkpt><trkpt lat="45.210624242746846" lon="8.543491840524526"><ele>102.0</ele><time>2026-04-18T10:09:30Z</time></trkpt><trkpt lat="45.21061364183911" lon="8.543601361812993"><ele>102.0</ele><time>2026-04-18T10:09:31Z</time></trkpt><trkpt lat="45.210595975597165" lon="8.543720453290389"><ele>102.0</ele><time>2026-04-18T10:09:32Z</time></trkpt><trkpt lat="45.21056858278978" lon="8.543807331306155"><ele>102.0</ele><time>2026-04-18T10:09:33Z</time></trkpt><trkpt lat="45.21052793390855" lon="8.543949656081635"><ele>102.0</ele><time>2026-04-18T10:09:35Z</time></trkpt><trkpt lat="45.210464140364294" lon="8.544083591650365"><ele>102.0</ele><time>2026-04-18T10:09:37Z</time></trkpt><trkpt lat="45.210360012651904" lon="8.544185568891166"><ele>102.0</ele><time>2026-04-18T10:09:39Z</time></trkpt><trkpt lat="45.21028697882064" lon="8.544230799874004"><ele>102.0</ele><time>2026-04-18T10:09:40Z</time></trkpt><trkpt lat="45.2102107550949" lon="8.54427703993604"><ele>102.0</ele><time>2026-04-18T10:09:41Z</time></trkpt><trkpt lat="45.210137683519996" lon="8.544345819227903"><ele>102.0</ele><time>2026-04-18T10:09:42Z</time></trkpt><trkpt lat="45.21006601238606" lon="8.544441297506244"><ele>102.0</ele><time>2026-04-18T10:09:43Z</time></trkpt><trkpt lat="45.209996192060714" lon="8.544544595990377"><ele>102.0</ele><time>2026-04-18T10:09:44Z</time></trkpt><trkpt lat="45.209931878218036" lon="8.544637240060005"><ele>101.8</ele><time>2026-04-18T10:09:45Z</time></trkpt><trkpt lat="45.20987045850697" lon="8.544730176137888"><ele>101.6</ele><time>2026-04-18T10:09:46Z</time></trkpt><trkpt lat="45.20980545433143" lon="8.544827943913896"><ele>101.39999999999999</ele><time>2026-04-18T10:09:47Z</time></trkpt><trkpt lat="45.20974095308899" lon="8.544918533112622"><ele>101.19999999999999</ele><time>2026-04-18T10:09:48Z</time></trkpt><trkpt lat="45.20967748163198" lon="8.545008013021379"><ele>101.0</ele><time>2026-04-18T10:09:49Z</time></trkpt><trkpt lat="45.20961407732473" lon="8.54510087098425"><ele>101.0</ele><time>2026-04-18T10:09:50Z</time></trkpt><trkpt lat="45.209548447999296" lon="8.545191602739692"><ele>101.0</ele><time>2026-04-18T10:09:51Z</time></trkpt><trkpt lat="45.20948638713249" lon="8.545287663721606"><ele>101.0</ele><time>2026-04-18T10:09:52Z</time></trkpt><trkpt lat="45.209422455510186" lon="8.545382887474736"><ele>101.0</ele><time>2026-04-18T10:09:53.001Z</time></trkpt><trkpt lat="45.20936218710343" lon="8.545477941650061"><ele>101.0</ele><time>2026-04-18T10:09:54.001Z</time></trkpt><trkpt lat="45.20929730340824" lon="8.545565545944894"><ele>101.0</ele><time>2026-04-18T10:09:55.001Z</time></trkpt><trkpt lat="45.20922913887049" lon="8.545652961615962"><ele>101.0</ele><time>2026-04-18T10:09:56.001Z</time></trkpt><trkpt lat="45.20915715472692" lon="8.545737291612252"><ele>101.0</ele><time>2026-04-18T10:09:57.001Z</time></trkpt><trkpt lat="45.20908435723301" lon="8.545833927080311"><ele>101.0</ele><time>2026-04-18T10:09:58.001Z</time></trkpt><trkpt lat="45.20900921924924" lon="8.545931252269842"><ele>101.0</ele><time>2026-04-18T10:09:59.001Z</time></trkpt><trkpt lat="45.20893641426085" lon="8.546021143631409"><ele>100.99999999999999</ele><time>2026-04-18T10:10:00.001Z</time></trkpt><trkpt lat="45.20885595020598" lon="8.546098147270968"><ele>101.0</ele><time>2026-04-18T10:10:01.001Z</time></trkpt><trkpt lat="45.20879527803591" lon="8.546197955562533"><ele>101.0</ele><time>2026-04-18T10:10:02.001Z</time></trkpt><trkpt lat="45.20872531771924" lon="8.546288209117964"><ele>101.0</ele><time>2026-04-18T10:10:03.001Z</time></trkpt><trkpt lat="45.20866305111947" lon="8.546366189424589"><ele>100.99999999999999</ele><time>2026-04-18T10:10:04.001Z</time></trkpt><trkpt lat="45.20860046787087" lon="8.546439808213968"><ele>101.0</ele><time>2026-04-18T10:10:05.001Z</time></trkpt><trkpt lat="45.20854007535595" lon="8.546514277889582"><ele>101.49999999999999</ele><time>2026-04-18T10:10:06.001Z</time></trkpt><trkpt lat="45.208480539237485" lon="8.54659152826573"><ele>102.0</ele><time>2026-04-18T10:10:07.001Z</time></trkpt><trkpt lat="45.2084220762086" lon="8.546661684752982"><ele>102.5</ele><time>2026-04-18T10:10:08.001Z</time></trkpt><trkpt lat="45.208358513670866" lon="8.546732172158816"><ele>103.0</ele><time>2026-04-18T10:10:09.001Z</time></trkpt><trkpt lat="45.20830853905887" lon="8.546797628090363"><ele>103.49999999999999</ele><time>2026-04-18T10:10:10.001Z</time></trkpt><trkpt lat="45.20825356291358" lon="8.546873040085265"><ele>104.0</ele><time>2026-04-18T10:10:11.001Z</time></trkpt><trkpt lat="45.2082052080826" lon="8.546946111336299"><ele>104.16666666666666</ele><time>2026-04-18T10:10:12.001Z</time></trkpt><trkpt lat="45.20814658793558" lon="8.54704289110033"><ele>104.33333333333333</ele><time>2026-04-18T10:10:14.001Z</time></trkpt><trkpt lat="45.20809042865234" lon="8.547100341092639"><ele>104.5</ele><time>2026-04-18T10:10:28.002Z</time></trkpt><trkpt lat="45.20799368396255" lon="8.547180712785849"><ele>104.66666666666666</ele><time>2026-04-18T10:10:30.002Z</time></trkpt><trkpt lat="45.20794086205884" lon="8.54724421626296"><ele>104.83333333333333</ele><time>2026-04-18T10:10:31.002Z</time></trkpt><trkpt lat="45.20787688802962" lon="8.547318046220802"><ele>105.0</ele><time>2026-04-18T10:10:32.002Z</time></trkpt><trkpt lat="45.20779610096872" lon="8.547411521781472"><ele>105.0</ele><time>2026-04-18T10:10:33.002Z</time></trkpt><trkpt lat="45.20771107649598" lon="8.547512713364505"><ele>105.0</ele><time>2026-04-18T10:10:34.002Z</time></trkpt><trkpt lat="45.20761832563262" lon="8.547633496182039"><ele>105.0</ele><time>2026-04-18T10:10:35.002Z</time></trkpt><trkpt lat="45.207523891285085" lon="8.547747969615129"><ele>105.0</ele><time>2026-04-18T10:10:36.002Z</time></trkpt><trkpt lat="45.20742265630328" lon="8.547873202209358"><ele>104.5</ele><time>2026-04-18T10:10:37.002Z</time></trkpt><trkpt lat="45.20731451577808" lon="8.54800356801867"><ele>104.0</ele><time>2026-04-18T10:10:38.002Z</time></trkpt><trkpt lat="45.207201257629734" lon="8.54814367721922"><ele>103.5</ele><time>2026-04-18T10:10:39.002Z</time></trkpt><trkpt lat="45.20708621912496" lon="8.548283908862597"><ele>103.0</ele><time>2026-04-18T10:10:40.002Z</time></trkpt><trkpt lat="45.20696629818235" lon="8.548432347949868"><ele>103.0</ele><time>2026-04-18T10:10:41.002Z</time></trkpt><trkpt lat="45.206845084045206" lon="8.54858166847536"><ele>103.0</ele><time>2026-04-18T10:10:42.002Z</time></trkpt><trkpt lat="45.20672061931137" lon="8.548739759575122"><ele>103.0</ele><time>2026-04-18T10:10:43.002Z</time></trkpt><trkpt lat="45.206597893961884" lon="8.548895835332061"><ele>103.66666666666667</ele><time>2026-04-18T10:10:44.002Z</time></trkpt><trkpt lat="45.2064713416301" lon="8.549053562164293"><ele>104.33333333333334</ele><time>2026-04-18T10:10:45.002Z</time></trkpt><trkpt lat="45.206339457982175" lon="8.549213246769376"><ele>105.0</ele><time>2026-04-18T10:10:46.002Z</time></trkpt><trkpt lat="45.20620450458813" lon="8.54937739436311"><ele>105.0</ele><time>2026-04-18T10:10:47.002Z</time></trkpt><trkpt lat="45.20607079777898" lon="8.549537932293012"><ele>105.0</ele><time>2026-04-18T10:10:48.002Z</time></trkpt><trkpt lat="45.20593146952896" lon="8.549709009552835"><ele>105.0</ele><time>2026-04-18T10:10:49.002Z</time></trkpt><trkpt lat="45.205800267942415" lon="8.549881307556312"><ele>105.0</ele><time>2026-04-18T10:10:50.002Z</time></trkpt><trkpt lat="45.20566570121761" lon="8.550047808498134"><ele>105.0</ele><time>2026-04-18T10:10:51.002Z</time></trkpt><trkpt lat="45.20552694180612" lon="8.5502246676686"><ele>105.0</ele><time>2026-04-18T10:10:52.002Z</time></trkpt><trkpt lat="45.205389853830965" lon="8.550395964461762"><ele>105.0</ele><time>2026-04-18T10:10:53.002Z</time></trkpt><trkpt lat="45.20525196995745" lon="8.550560906535626"><ele>105.0</ele><time>2026-04-18T10:10:54.002Z</time></trkpt><trkpt lat="45.20511834569844" lon="8.550731424109106"><ele>105.0</ele><time>2026-04-18T10:10:55.002Z</time></trkpt><trkpt lat="45.205001183445425" lon="8.550871538117548"><ele>105.0</ele><time>2026-04-18T10:10:56.002Z</time></trkpt><trkpt lat="45.20489969223944" lon="8.551001758137849"><ele>105.0</ele><time>2026-04-18T10:10:57.002Z</time></trkpt><trkpt lat="45.20480225797749" lon="8.551123211883278"><ele>105.0</ele><time>2026-04-18T10:10:58.002Z</time></trkpt><trkpt lat="45.204703052362156" lon="8.551241441322702"><ele>105.0</ele><time>2026-04-18T10:10:59.002Z</time></trkpt><trkpt lat="45.20459882788141" lon="8.55136233644467"><ele>105.0</ele><time>2026-04-18T10:11:00.002Z</time></trkpt><trkpt lat="45.20449309264135" lon="8.551494676828693"><ele>105.0</ele><time>2026-04-18T10:11:01.003Z</time></trkpt><trkpt lat="45.20440000346965" lon="8.551612285575132"><ele>105.0</ele><time>2026-04-18T10:11:02.003Z</time></trkpt><trkpt lat="45.20432714623586" lon="8.551722005440135"><ele>105.0</ele><time>2026-04-18T10:11:03.003Z</time></trkpt><trkpt lat="45.2042677524411" lon="8.551827286913614"><ele>105.0</ele><time>2026-04-18T10:11:04.003Z</time></trkpt><trkpt lat="45.20421168501821" lon="8.551941047352267"><ele>105.0</ele><time>2026-04-18T10:11:05.003Z</time></trkpt><trkpt lat="45.20416816726218" lon="8.552066797570772"><ele>105.0</ele><time>2026-04-18T10:11:06.003Z</time></trkpt><trkpt lat="45.20413322432747" lon="8.552199411504539"><ele>105.0</ele><time>2026-04-18T10:11:07.003Z</time></trkpt><trkpt lat="45.20410874535668" lon="8.552344092841597"><ele>105.0</ele><time>2026-04-18T10:11:08.003Z</time></trkpt><trkpt lat="45.20408515661332" lon="8.55250202897825"><ele>104.75</ele><time>2026-04-18T10:11:09.003Z</time></trkpt><trkpt lat="45.204062836254316" lon="8.552674495607748"><ele>104.5</ele><time>2026-04-18T10:11:10.003Z</time></trkpt><trkpt lat="45.204043686865134" lon="8.552883549990424"><ele>104.25</ele><time>2026-04-18T10:11:11.003Z</time></trkpt><trkpt lat="45.20402982901796" lon="8.553091139419157"><ele>104.0</ele><time>2026-04-18T10:11:12.003Z</time></trkpt><trkpt lat="45.204020835873365" lon="8.553256796836926"><ele>103.80000000000001</ele><time>2026-04-18T10:11:13.003Z</time></trkpt><trkpt lat="45.204010032418424" lon="8.553422794207325"><ele>103.60000000000001</ele><time>2026-04-18T10:11:14.003Z</time></trkpt><trkpt lat="45.20400065699336" lon="8.553583994805127"><ele>103.4</ele><time>2026-04-18T10:11:15.003Z</time></trkpt><trkpt lat="45.20399171847899" lon="8.55373140618877"><ele>103.2</ele><time>2026-04-18T10:11:16.003Z</time></trkpt><trkpt lat="45.20398353469269" lon="8.55386351324719"><ele>103.0</ele><time>2026-04-18T10:11:17.003Z</time></trkpt><trkpt lat="45.20397372020246" lon="8.553985026520122"><ele>103.00000000000001</ele><time>2026-04-18T10:11:18.003Z</time></trkpt><trkpt lat="45.203965744049384" lon="8.554105321957334"><ele>103.0</ele><time>2026-04-18T10:11:19.003Z</time></trkpt><trkpt lat="45.20396110268575" lon="8.55421467793406"><ele>103.0</ele><time>2026-04-18T10:11:20.003Z</time></trkpt><trkpt lat="45.203957353976094" lon="8.55431479595267"><ele>103.0</ele><time>2026-04-18T10:11:21.003Z</time></trkpt><trkpt lat="45.20394619999938" lon="8.554407181312278"><ele>103.00000000000001</ele><time>2026-04-18T10:11:22.003Z</time></trkpt><trkpt lat="45.20389558002797" lon="8.554567343392028"><ele>103.0</ele><time>2026-04-18T10:11:24.003Z</time></trkpt><trkpt lat="45.20384799250539" lon="8.554631772633812"><ele>103.0</ele><time>2026-04-18T10:11:25.003Z</time></trkpt><trkpt lat="45.20373253067019" lon="8.554644640252482"><ele>103.0</ele><time>2026-04-18T10:11:27.003Z</time></trkpt><trkpt lat="45.20366349388198" lon="8.554612358949138"><ele>103.0</ele><time>2026-04-18T10:11:28.003Z</time></trkpt><trkpt lat="45.20358074825108" lon="8.554572081548537"><ele>103.0</ele><time>2026-04-18T10:11:29.003Z</time></trkpt><trkpt lat="45.20348914533631" lon="8.554524835555519"><ele>103.0</ele><time>2026-04-18T10:11:30Z</time></trkpt><trkpt lat="45.20338543485397" lon="8.554471979542098"><ele>103.0</ele><time>2026-04-18T10:11:31Z</time></trkpt><trkpt lat="45.203276742550734" lon="8.554417109203953"><ele>103.0</ele><time>2026-04-18T10:11:32Z</time></trkpt><trkpt lat="45.20316198928594" lon="8.554353168710456"><ele>103.0</ele><time>2026-04-18T10:11:33Z</time></trkpt><trkpt lat="45.20304561985839" lon="8.55429222342692"><ele>103.0</ele><time>2026-04-18T10:11:34Z</time></trkpt><trkpt lat="45.202929105565836" lon="8.55422801336218"><ele>103.25</ele><time>2026-04-18T10:11:35Z</time></trkpt><trkpt lat="45.20280248285992" lon="8.554158697523816"><ele>103.5</ele><time>2026-04-18T10:11:36Z</time></trkpt><trkpt lat="45.202659905330236" lon="8.554083338399936"><ele>103.75</ele><time>2026-04-18T10:11:37Z</time></trkpt><trkpt lat="45.20251112644549" lon="8.554004252824072"><ele>104.0</ele><time>2026-04-18T10:11:38Z</time></trkpt><trkpt lat="45.20234601958936" lon="8.553920174386041"><ele>104.0</ele><time>2026-04-18T10:11:39Z</time></trkpt><trkpt lat="45.20217546447843" lon="8.553831962985392"><ele>104.0</ele><time>2026-04-18T10:11:40Z</time></trkpt><trkpt lat="45.20199842055341" lon="8.553731401701464"><ele>104.0</ele><time>2026-04-18T10:11:41Z</time></trkpt><trkpt lat="45.201829298111306" lon="8.553641512075583"><ele>104.0</ele><time>2026-04-18T10:11:42Z</time></trkpt><trkpt lat="45.201684045282605" lon="8.553564995909888"><ele>104.0</ele><time>2026-04-18T10:11:43Z</time></trkpt><trkpt lat="45.20154038197452" lon="8.553494778745092"><ele>104.0</ele><time>2026-04-18T10:11:44Z</time></trkpt><trkpt lat="45.201385728785645" lon="8.553425860899123"><ele>104.66666666666666</ele><time>2026-04-18T10:11:45Z</time></trkpt><trkpt lat="45.20122708271572" lon="8.553366769469601"><ele>105.33333333333334</ele><time>2026-04-18T10:11:46Z</time></trkpt><trkpt lat="45.20106857098518" lon="8.553312556399147"><ele>106.0</ele><time>2026-04-18T10:11:47Z</time></trkpt><trkpt lat="45.20092469964893" lon="8.553272865765113"><ele>106.0</ele><time>2026-04-18T10:11:48Z</time></trkpt><trkpt lat="45.20077527249887" lon="8.55323498738567"><ele>106.0</ele><time>2026-04-18T10:11:49Z</time></trkpt><trkpt lat="45.20062490167052" lon="8.553202936909734"><ele>106.0</ele><time>2026-04-18T10:11:50Z</time></trkpt><trkpt lat="45.200483036500806" lon="8.553190566378932"><ele>106.0</ele><time>2026-04-18T10:11:51Z</time></trkpt><trkpt lat="45.20035318684116" lon="8.553191374941104"><ele>106.0</ele><time>2026-04-18T10:11:52Z</time></trkpt><trkpt lat="45.20020552675325" lon="8.55321033412136"><ele>106.0</ele><time>2026-04-18T10:11:53Z</time></trkpt><trkpt lat="45.20005810393776" lon="8.55325753123293"><ele>106.0</ele><time>2026-04-18T10:11:54Z</time></trkpt><trkpt lat="45.1999169366192" lon="8.553318320983541"><ele>106.0</ele><time>2026-04-18T10:11:55Z</time></trkpt><trkpt lat="45.19976518787993" lon="8.55338609443566"><ele>106.0</ele><time>2026-04-18T10:11:56Z</time></trkpt><trkpt lat="45.19961152359209" lon="8.55346001136535"><ele>106.0</ele><time>2026-04-18T10:11:57Z</time></trkpt><trkpt lat="45.19945660230665" lon="8.553543193845496"><ele>106.0</ele><time>2026-04-18T10:11:58Z</time></trkpt><trkpt lat="45.19930119470372" lon="8.553616806619825"><ele>106.0</ele><time>2026-04-18T10:11:59Z</time></trkpt><trkpt lat="45.199139820032514" lon="8.553697178470948"><ele>106.0</ele><time>2026-04-18T10:12:00Z</time></trkpt><trkpt lat="45.19897772463576" lon="8.553780965082906"><ele>106.0</ele><time>2026-04-18T10:12:01.001Z</time></trkpt><trkpt lat="45.198827326885" lon="8.55385824347591"><ele>106.25</ele><time>2026-04-18T10:12:02.001Z</time></trkpt><trkpt lat="45.19869551252853" lon="8.553927548423605"><ele>106.5</ele><time>2026-04-18T10:12:03.001Z</time></trkpt><trkpt lat="45.198569068400886" lon="8.553993265130218"><ele>106.75</ele><time>2026-04-18T10:12:04.001Z</time></trkpt><trkpt lat="45.1984457621317" lon="8.55405138158422"><ele>107.0</ele><time>2026-04-18T10:12:05.001Z</time></trkpt><trkpt lat="45.198325822266234" lon="8.554114919051106"><ele>107.0</ele><time>2026-04-18T10:12:06.001Z</time></trkpt><trkpt lat="45.198220794368446" lon="8.554172929957552"><ele>106.99999999999999</ele><time>2026-04-18T10:12:07.001Z</time></trkpt><trkpt lat="45.19811517864999" lon="8.554234625773066"><ele>106.99999999999999</ele><time>2026-04-18T10:12:08.001Z</time></trkpt><trkpt lat="45.19802090778297" lon="8.554293531424165"><ele>107.0</ele><time>2026-04-18T10:12:09.001Z</time></trkpt><trkpt lat="45.19793065314529" lon="8.55435332626555"><ele>107.0</ele><time>2026-04-18T10:12:10.001Z</time></trkpt><trkpt lat="45.197843772718144" lon="8.554409236956763"><ele>106.6</ele><time>2026-04-18T10:12:11.001Z</time></trkpt><trkpt lat="45.19775664935906" lon="8.554472458230135"><ele>106.19999999999999</ele><time>2026-04-18T10:12:12.001Z</time></trkpt><trkpt lat="45.19771326428776" lon="8.554655489452891"><ele>105.8</ele><time>2026-04-18T10:12:13.001Z</time></trkpt><trkpt lat="45.19763100102144" lon="8.554711052718408"><ele>105.4</ele><time>2026-04-18T10:12:15.001Z</time></trkpt><trkpt lat="45.19756703087238" lon="8.554787202621146"><ele>105.0</ele><time>2026-04-18T10:12:38.002Z</time></trkpt><trkpt lat="45.19751874776393" lon="8.55487185094187"><ele>105.0</ele><time>2026-04-18T10:12:41.002Z</time></trkpt><trkpt lat="45.19747049241782" lon="8.554952914045312"><ele>105.0</ele><time>2026-04-18T10:12:43.002Z</time></trkpt><trkpt lat="45.19744852945692" lon="8.555080181031949"><ele>105.0</ele><time>2026-04-18T10:12:45.002Z</time></trkpt><trkpt lat="45.19743083613162" lon="8.555175165640389"><ele>105.0</ele><time>2026-04-18T10:12:46.002Z</time></trkpt><trkpt lat="45.197405468729734" lon="8.55528188727642"><ele>105.0</ele><time>2026-04-18T10:12:47.002Z</time></trkpt><trkpt lat="45.19737783797725" lon="8.555380278170329"><ele>105.0</ele><time>2026-04-18T10:12:48.002Z</time></trkpt><trkpt lat="45.197337769506944" lon="8.555470531468217"><ele>105.0</ele><time>2026-04-18T10:12:49.002Z</time></trkpt><trkpt lat="45.197283424547166" lon="8.555550261141398"><ele>105.0</ele><time>2026-04-18T10:12:50.002Z</time></trkpt><trkpt lat="45.197212715245634" lon="8.55562880446061"><ele>105.0</ele><time>2026-04-18T10:12:51.002Z</time></trkpt><trkpt lat="45.19713765879634" lon="8.555708372569864"><ele>105.0</ele><time>2026-04-18T10:12:52.002Z</time></trkpt><trkpt lat="45.19707095700467" lon="8.555789782982771"><ele>105.0</ele><time>2026-04-18T10:12:53.002Z</time></trkpt><trkpt lat="45.197009025872305" lon="8.555877829722322"><ele>105.0</ele><time>2026-04-18T10:12:54.002Z</time></trkpt><trkpt lat="45.19695058849887" lon="8.555972289611574"><ele>105.0</ele><time>2026-04-18T10:12:55.002Z</time></trkpt><trkpt lat="45.196895875555725" lon="8.556063362143755"><ele>105.0</ele><time>2026-04-18T10:12:56.002Z</time></trkpt><trkpt lat="45.19683472168148" lon="8.556151682891858"><ele>105.0</ele><time>2026-04-18T10:12:57.002Z</time></trkpt><trkpt lat="45.19678215679986" lon="8.556247948255638"><ele>105.0</ele><time>2026-04-18T10:12:58.002Z</time></trkpt><trkpt lat="45.19672493821028" lon="8.55635164413062"><ele>105.0</ele><time>2026-04-18T10:12:59.002Z</time></trkpt><trkpt lat="45.19666916512879" lon="8.55645738558074"><ele>105.0</ele><time>2026-04-18T10:13:00.002Z</time></trkpt><trkpt lat="45.19661441343563" lon="8.556567187480743"><ele>105.0</ele><time>2026-04-18T10:13:01.002Z</time></trkpt><trkpt lat="45.19655405018551" lon="8.55666020787145"><ele>105.0</ele><time>2026-04-18T10:13:02.002Z</time></trkpt><trkpt lat="45.19649766469477" lon="8.55674845775954"><ele>105.0</ele><time>2026-04-18T10:13:03.002Z</time></trkpt><trkpt lat="45.196439243785846" lon="8.556842261225997"><ele>105.0</ele><time>2026-04-18T10:13:04.002Z</time></trkpt><trkpt lat="45.19637976223922" lon="8.556924055408928"><ele>105.0</ele><time>2026-04-18T10:13:05.002Z</time></trkpt><trkpt lat="45.19631527937512" lon="8.55699998597694"><ele>105.0</ele><time>2026-04-18T10:13:06.002Z</time></trkpt><trkpt lat="45.19624541751703" lon="8.557063228771325"><ele>104.6</ele><time>2026-04-18T10:13:07.002Z</time></trkpt><trkpt lat="45.19617423780121" lon="8.557104702683809"><ele>104.2</ele><time>2026-04-18T10:13:08.002Z</time></trkpt><trkpt lat="45.19608870966165" lon="8.55712623391759"><ele>103.80000000000001</ele><time>2026-04-18T10:13:09.002Z</time></trkpt><trkpt lat="45.19599081885526" lon="8.557088935723769"><ele>103.4</ele><time>2026-04-18T10:13:10.003Z</time></trkpt><trkpt lat="45.19588638757052" lon="8.557067483761378"><ele>103.0</ele><time>2026-04-18T10:13:11.003Z</time></trkpt><trkpt lat="45.19577254225687" lon="8.557062136598628"><ele>102.75</ele><time>2026-04-18T10:13:12.003Z</time></trkpt><trkpt lat="45.19565254658509" lon="8.557029822570218"><ele>102.5</ele><time>2026-04-18T10:13:13.003Z</time></trkpt><trkpt lat="45.19553036838892" lon="8.557000970663324"><ele>102.25</ele><time>2026-04-18T10:13:14.003Z</time></trkpt><trkpt lat="45.19541146289245" lon="8.556976199563032"><ele>102.0</ele><time>2026-04-18T10:13:15.003Z</time></trkpt><trkpt lat="45.19529287174416" lon="8.556955897986759"><ele>102.0</ele><time>2026-04-18T10:13:16.003Z</time></trkpt><trkpt lat="45.195178962450896" lon="8.556930681830732"><ele>102.0</ele><time>2026-04-18T10:13:17.003Z</time></trkpt><trkpt lat="45.195062961011196" lon="8.556910009061074"><ele>102.0</ele><time>2026-04-18T10:13:18.003Z</time></trkpt><trkpt lat="45.19495155600929" lon="8.556884271469677"><ele>102.0</ele><time>2026-04-18T10:13:19.003Z</time></trkpt><trkpt lat="45.19483752423459" lon="8.556912005148316"><ele>102.0</ele><time>2026-04-18T10:13:20.003Z</time></trkpt><trkpt lat="45.19472816961281" lon="8.55697637087576"><ele>102.0</ele><time>2026-04-18T10:13:21.003Z</time></trkpt><trkpt lat="45.19462446724576" lon="8.55706795078145"><ele>102.0</ele><time>2026-04-18T10:13:22.003Z</time></trkpt><trkpt lat="45.19453247558217" lon="8.557183938904771"><ele>102.0</ele><time>2026-04-18T10:13:23.003Z</time></trkpt><trkpt lat="45.19444602978218" lon="8.557315342644198"><ele>102.0</ele><time>2026-04-18T10:13:24.003Z</time></trkpt><trkpt lat="45.19434536991307" lon="8.557434555123862"><ele>102.0</ele><time>2026-04-18T10:13:25.003Z</time></trkpt><trkpt lat="45.19424826927046" lon="8.557567171318393"><ele>102.0</ele><time>2026-04-18T10:13:26.003Z</time></trkpt><trkpt lat="45.194158918177436" lon="8.557715287146873"><ele>102.0</ele><time>2026-04-18T10:13:27.003Z</time></trkpt><trkpt lat="45.19405476250386" lon="8.557850173643304"><ele>102.0</ele><time>2026-04-18T10:13:28.003Z</time></trkpt><trkpt lat="45.193956317262455" lon="8.557993875772139"><ele>102.0</ele><time>2026-04-18T10:13:29.003Z</time></trkpt><trkpt lat="45.19387106903709" lon="8.558150976828635"><ele>102.0</ele><time>2026-04-18T10:13:30.003Z</time></trkpt><trkpt lat="45.19379763537276" lon="8.558314432375706"><ele>102.0</ele><time>2026-04-18T10:13:31.003Z</time></trkpt><trkpt lat="45.19372437043192" lon="8.558480637898493"><ele>102.0</ele><time>2026-04-18T10:13:32.003Z</time></trkpt><trkpt lat="45.19365436742469" lon="8.558638890898195"><ele>102.0</ele><time>2026-04-18T10:13:33.003Z</time></trkpt><trkpt lat="45.19359544639385" lon="8.558782884897967"><ele>102.0</ele><time>2026-04-18T10:13:34.003Z</time></trkpt><trkpt lat="45.193542733021395" lon="8.558915008313207"><ele>102.0</ele><time>2026-04-18T10:13:35.003Z</time></trkpt><trkpt lat="45.19348734964596" lon="8.559050444583034"><ele>102.0</ele><time>2026-04-18T10:13:36Z</time></trkpt><trkpt lat="45.193427012544895" lon="8.559201156524393"><ele>102.0</ele><time>2026-04-18T10:13:36.999Z</time></trkpt><trkpt lat="45.19336581986448" lon="8.559362509899998"><ele>102.0</ele><time>2026-04-18T10:13:38Z</time></trkpt><trkpt lat="45.19331558572892" lon="8.559544862105533"><ele>102.0</ele><time>2026-04-18T10:13:39Z</time></trkpt><trkpt lat="45.19325578155687" lon="8.559725472776623"><ele>102.0</ele><time>2026-04-18T10:13:40Z</time></trkpt><trkpt lat="45.193203963425745" lon="8.559920763460488"><ele>102.0</ele><time>2026-04-18T10:13:41Z</time></trkpt><trkpt lat="45.19315094632057" lon="8.560103175290719"><ele>102.0</ele><time>2026-04-18T10:13:42Z</time></trkpt><trkpt lat="45.19310440617648" lon="8.560270011769639"><ele>102.0</ele><time>2026-04-18T10:13:43Z</time></trkpt><trkpt lat="45.19306260900206" lon="8.560427283708062"><ele>102.0</ele><time>2026-04-18T10:13:44Z</time></trkpt><trkpt lat="45.19302131719726" lon="8.56058736828988"><ele>102.0</ele><time>2026-04-18T10:13:45Z</time></trkpt><trkpt lat="45.19297728663135" lon="8.560750534469166"><ele>102.0</ele><time>2026-04-18T10:13:46Z</time></trkpt><trkpt lat="45.192928745356355" lon="8.560908896731585"><ele>102.0</ele><time>2026-04-18T10:13:47Z</time></trkpt><trkpt lat="45.192869337475486" lon="8.561047071187051"><ele>102.0</ele><time>2026-04-18T10:13:48Z</time></trkpt><trkpt lat="45.1927938452155" lon="8.561155497009386"><ele>102.0</ele><time>2026-04-18T10:13:49Z</time></trkpt><trkpt lat="45.19270994309447" lon="8.561245013676343"><ele>102.0</ele><time>2026-04-18T10:13:50Z</time></trkpt><trkpt lat="45.19261455136802" lon="8.561335931789351"><ele>102.0</ele><time>2026-04-18T10:13:51Z</time></trkpt><trkpt lat="45.1925014330767" lon="8.561405508760785"><ele>102.0</ele><time>2026-04-18T10:13:52Z</time></trkpt><trkpt lat="45.192369058292506" lon="8.561399578584467"><ele>102.0</ele><time>2026-04-18T10:13:53Z</time></trkpt><trkpt lat="45.19223747629603" lon="8.561420006327266"><ele>102.0</ele><time>2026-04-18T10:13:54Z</time></trkpt><trkpt lat="45.1920972752217" lon="8.561407907797147"><ele>102.0</ele><time>2026-04-18T10:13:55Z</time></trkpt><trkpt lat="45.19196404514141" lon="8.561411682343271"><ele>102.0</ele><time>2026-04-18T10:13:56Z</time></trkpt><trkpt lat="45.191846408927624" lon="8.561429540533025"><ele>102.0</ele><time>2026-04-18T10:13:57Z</time></trkpt><trkpt lat="45.19173858992136" lon="8.561445675262746"><ele>102.0</ele><time>2026-04-18T10:13:58Z</time></trkpt><trkpt lat="45.19163571645447" lon="8.56146113856515"><ele>102.0</ele><time>2026-04-18T10:13:59Z</time></trkpt><trkpt lat="45.19152452558728" lon="8.561480050792111"><ele>102.0</ele><time>2026-04-18T10:14:00Z</time></trkpt><trkpt lat="45.19140928714565" lon="8.561505896316437"><ele>102.0</ele><time>2026-04-18T10:14:01Z</time></trkpt><trkpt lat="45.19129816354278" lon="8.561540904897184"><ele>102.0</ele><time>2026-04-18T10:14:02Z</time></trkpt><trkpt lat="45.191191111030456" lon="8.561589805436347"><ele>102.0</ele><time>2026-04-18T10:14:03Z</time></trkpt><trkpt lat="45.1910879788692" lon="8.561650483477123"><ele>102.0</ele><time>2026-04-18T10:14:04Z</time></trkpt><trkpt lat="45.190985461103416" lon="8.561727962410025"><ele>102.0</ele><time>2026-04-18T10:14:05Z</time></trkpt><trkpt lat="45.19088401996786" lon="8.56180767853653"><ele>102.0</ele><time>2026-04-18T10:14:06Z</time></trkpt><trkpt lat="45.19078476725008" lon="8.561881263638588"><ele>102.0</ele><time>2026-04-18T10:14:07Z</time></trkpt><trkpt lat="45.19069097653824" lon="8.561940640010468"><ele>102.0</ele><time>2026-04-18T10:14:08Z</time></trkpt><trkpt lat="45.19060511436932" lon="8.56198337662066"><ele>102.0</ele><time>2026-04-18T10:14:09Z</time></trkpt><trkpt lat="45.19052354619487" lon="8.562017014110072"><ele>102.16666666666667</ele><time>2026-04-18T10:14:10Z</time></trkpt><trkpt lat="45.19044583354189" lon="8.56204818126958"><ele>102.33333333333334</ele><time>2026-04-18T10:14:11.001Z</time></trkpt><trkpt lat="45.190375623412194" lon="8.562068073205877"><ele>102.5</ele><time>2026-04-18T10:14:12.001Z</time></trkpt><trkpt lat="45.19030738333013" lon="8.562082238680757"><ele>102.66666666666667</ele><time>2026-04-18T10:14:13.001Z</time></trkpt><trkpt lat="45.190229053161346" lon="8.562100435791091"><ele>102.83333333333334</ele><time>2026-04-18T10:14:14.001Z</time></trkpt><trkpt lat="45.190155277952876" lon="8.562130998909192"><ele>103.0</ele><time>2026-04-18T10:14:15.001Z</time></trkpt><trkpt lat="45.19006070518728" lon="8.562199098301654"><ele>103.0</ele><time>2026-04-18T10:14:17.001Z</time></trkpt><trkpt lat="45.18998314933014" lon="8.562247260540506"><ele>103.0</ele><time>2026-04-18T10:14:20.001Z</time></trkpt><trkpt lat="45.19002800477638" lon="8.562485947182193"><ele>103.0</ele><time>2026-04-18T10:14:21.001Z</time></trkpt><trkpt lat="45.19001395392591" lon="8.562614493548068"><ele>103.0</ele><time>2026-04-18T10:14:22.001Z</time></trkpt><trkpt lat="45.190029385286074" lon="8.562755347149004"><ele>102.75</ele><time>2026-04-18T10:14:23.001Z</time></trkpt><trkpt lat="45.190026705345254" lon="8.562926914101014"><ele>102.5</ele><time>2026-04-18T10:14:24.001Z</time></trkpt><trkpt lat="45.190025210249466" lon="8.563106176872216"><ele>102.25</ele><time>2026-04-18T10:14:25.001Z</time></trkpt><trkpt lat="45.190035232081684" lon="8.563321425790784"><ele>102.0</ele><time>2026-04-18T10:14:26.001Z</time></trkpt><trkpt lat="45.1900415053742" lon="8.563540675709081"><ele>102.33333333333334</ele><time>2026-04-18T10:14:27.001Z</time></trkpt><trkpt lat="45.19003558135203" lon="8.563767905203218"><ele>102.66666666666667</ele><time>2026-04-18T10:14:28.001Z</time></trkpt><trkpt lat="45.190024115857305" lon="8.564003779882965"><ele>103.0</ele><time>2026-04-18T10:14:29.001Z</time></trkpt><trkpt lat="45.19000840285022" lon="8.564237473316009"><ele>103.0</ele><time>2026-04-18T10:14:30.001Z</time></trkpt><trkpt lat="45.19000479701188" lon="8.564487816724773"><ele>103.0</ele><time>2026-04-18T10:14:31.001Z</time></trkpt><trkpt lat="45.18999856113883" lon="8.564724016473532"><ele>103.0</ele><time>2026-04-18T10:14:32.001Z</time></trkpt><trkpt lat="45.18999171081699" lon="8.564971373108223"><ele>102.66666666666667</ele><time>2026-04-18T10:14:33.001Z</time></trkpt><trkpt lat="45.18998568933418" lon="8.565218762258747"><ele>102.33333333333334</ele><time>2026-04-18T10:14:34.001Z</time></trkpt><trkpt lat="45.18997792502992" lon="8.565462907266715"><ele>102.0</ele><time>2026-04-18T10:14:35.001Z</time></trkpt><trkpt lat="45.18996771302899" lon="8.56570176216374"><ele>102.0</ele><time>2026-04-18T10:14:36.001Z</time></trkpt><trkpt lat="45.189948755770125" lon="8.565924699901828"><ele>102.0</ele><time>2026-04-18T10:14:37.001Z</time></trkpt><trkpt lat="45.18995622430524" lon="8.566111370370953"><ele>102.0</ele><time>2026-04-18T10:14:38.001Z</time></trkpt><trkpt lat="45.18994229483918" lon="8.566286827294261"><ele>102.0</ele><time>2026-04-18T10:14:39.001Z</time></trkpt><trkpt lat="45.189939644302626" lon="8.566435386559528"><ele>102.19999999999999</ele><time>2026-04-18T10:14:40.001Z</time></trkpt><trkpt lat="45.18993736181512" lon="8.566563317429454"><ele>102.4</ele><time>2026-04-18T10:14:41.001Z</time></trkpt><trkpt lat="45.189936108033756" lon="8.566688201193136"><ele>102.6</ele><time>2026-04-18T10:14:42.002Z</time></trkpt><trkpt lat="45.18994924779316" lon="8.566785297836136"><ele>102.80000000000001</ele><time>2026-04-18T10:14:43.002Z</time></trkpt><trkpt lat="45.18994637388983" lon="8.566898247930576"><ele>103.0</ele><time>2026-04-18T10:14:45.002Z</time></trkpt><trkpt lat="45.1897497434278" lon="8.566860918686965"><ele>103.2</ele><time>2026-04-18T10:14:50.002Z</time></trkpt><trkpt lat="45.18967512497556" lon="8.566844070332959"><ele>103.4</ele><time>2026-04-18T10:14:51.002Z</time></trkpt><trkpt lat="45.18958824622633" lon="8.566826777538601"><ele>103.60000000000001</ele><time>2026-04-18T10:14:52.002Z</time></trkpt><trkpt lat="45.189490290555824" lon="8.566825652169237"><ele>103.80000000000001</ele><time>2026-04-18T10:14:53.002Z</time></trkpt><trkpt lat="45.18938445330138" lon="8.566797717772504"><ele>104.0</ele><time>2026-04-18T10:14:54.002Z</time></trkpt><trkpt lat="45.189277811301245" lon="8.566778237898616"><ele>104.0</ele><time>2026-04-18T10:14:55.002Z</time></trkpt><trkpt lat="45.189157095995085" lon="8.56675362937073"><ele>104.0</ele><time>2026-04-18T10:14:56.002Z</time></trkpt><trkpt lat="45.18902748521204" lon="8.566708721520289"><ele>104.0</ele><time>2026-04-18T10:14:57.002Z</time></trkpt><trkpt lat="45.188894516349635" lon="8.566690610516254"><ele>104.0</ele><time>2026-04-18T10:14:58.002Z</time></trkpt><trkpt lat="45.18876183582493" lon="8.5666433609003"><ele>103.66666666666666</ele><time>2026-04-18T10:14:59.002Z</time></trkpt><trkpt lat="45.18861727540769" lon="8.56660299137484"><ele>103.33333333333334</ele><time>2026-04-18T10:15:00.002Z</time></trkpt><trkpt lat="45.1884715274678" lon="8.566541109398694"><ele>103.0</ele><time>2026-04-18T10:15:01.002Z</time></trkpt><trkpt lat="45.18832267947758" lon="8.566513447510653"><ele>103.0</ele><time>2026-04-18T10:15:02.002Z</time></trkpt><trkpt lat="45.1881690661467" lon="8.566469130255435"><ele>103.0</ele><time>2026-04-18T10:15:03.002Z</time></trkpt><trkpt lat="45.18801849329022" lon="8.566427922638063"><ele>103.0</ele><time>2026-04-18T10:15:04.002Z</time></trkpt><trkpt lat="45.18786680749921" lon="8.56639031364114"><ele>103.0</ele><time>2026-04-18T10:15:05.002Z</time></trkpt><trkpt lat="45.18772733437688" lon="8.566353595459558"><ele>103.0</ele><time>2026-04-18T10:15:06.002Z</time></trkpt><trkpt lat="45.18758042320751" lon="8.566314055758044"><ele>103.0</ele><time>2026-04-18T10:15:07.002Z</time></trkpt><trkpt lat="45.187432802776584" lon="8.566278507240332"><ele>103.0</ele><time>2026-04-18T10:15:08.002Z</time></trkpt><trkpt lat="45.18728755356122" lon="8.566242951231569"><ele>103.0</ele><time>2026-04-18T10:15:09.002Z</time></trkpt><trkpt lat="45.1871519823253" lon="8.566208594599255"><ele>103.0</ele><time>2026-04-18T10:15:10.002Z</time></trkpt><trkpt lat="45.187026272222795" lon="8.566170695308855"><ele>103.0</ele><time>2026-04-18T10:15:11.002Z</time></trkpt><trkpt lat="45.18690316520047" lon="8.566135699653854"><ele>103.0</ele><time>2026-04-18T10:15:12.002Z</time></trkpt><trkpt lat="45.186790869406366" lon="8.566121748061146"><ele>103.25</ele><time>2026-04-18T10:15:13.002Z</time></trkpt><trkpt lat="45.18667680154365" lon="8.566121220585167"><ele>103.5</ele><time>2026-04-18T10:15:14.002Z</time></trkpt><trkpt lat="45.186546621117245" lon="8.566141789505393"><ele>103.75</ele><time>2026-04-18T10:15:15.002Z</time></trkpt><trkpt lat="45.186408486193265" lon="8.566150318462505"><ele>104.0</ele><time>2026-04-18T10:15:16.003Z</time></trkpt><trkpt lat="45.18628876155848" lon="8.566162605111687"><ele>104.0</ele><time>2026-04-18T10:15:17.003Z</time></trkpt><trkpt lat="45.186178588402065" lon="8.566177824451872"><ele>104.0</ele><time>2026-04-18T10:15:18.003Z</time></trkpt><trkpt lat="45.18605848120461" lon="8.566199318426916"><ele>104.0</ele><time>2026-04-18T10:15:19.003Z</time></trkpt><trkpt lat="45.1859331925524" lon="8.56622392072009"><ele>104.0</ele><time>2026-04-18T10:15:20.003Z</time></trkpt><trkpt lat="45.18581854622021" lon="8.566242993738129"><ele>103.99999999999999</ele><time>2026-04-18T10:15:21.003Z</time></trkpt><trkpt lat="45.185719749607586" lon="8.566260380193123"><ele>104.0</ele><time>2026-04-18T10:15:22.003Z</time></trkpt><trkpt lat="45.18562444946997" lon="8.56627311476325"><ele>104.0</ele><time>2026-04-18T10:15:23.003Z</time></trkpt><trkpt lat="45.185539867512794" lon="8.566289861346073"><ele>104.0</ele><time>2026-04-18T10:15:24.003Z</time></trkpt><trkpt lat="45.1854653622931" lon="8.566313744802585"><ele>103.99999999999999</ele><time>2026-04-18T10:15:25.003Z</time></trkpt><trkpt lat="45.18538989241655" lon="8.56633766331442"><ele>104.0</ele><time>2026-04-18T10:15:26.003Z</time></trkpt><trkpt lat="45.18531841279044" lon="8.566350077666062"><ele>104.0</ele><time>2026-04-18T10:15:27.003Z</time></trkpt><trkpt lat="45.18520514655513" lon="8.566351516179296"><ele>104.0</ele><time>2026-04-18T10:15:29.003Z</time></trkpt><trkpt lat="45.18514170320511" lon="8.566246330762366"><ele>104.0</ele><time>2026-04-18T10:15:31.003Z</time></trkpt><trkpt lat="45.18506574646324" lon="8.56617794613629"><ele>104.0</ele><time>2026-04-18T10:15:33.003Z</time></trkpt><trkpt lat="45.18499768880742" lon="8.56620574515394"><ele>104.0</ele><time>2026-04-18T10:15:34.003Z</time></trkpt><trkpt lat="45.18491450336327" lon="8.566185855406186"><ele>103.6</ele><time>2026-04-18T10:15:35.003Z</time></trkpt><trkpt lat="45.18482019970398" lon="8.566178669808812"><ele>103.2</ele><time>2026-04-18T10:15:36.003Z</time></trkpt><trkpt lat="45.18471052290647" lon="8.566167591117248"><ele>102.8</ele><time>2026-04-18T10:15:37.003Z</time></trkpt><trkpt lat="45.18460945449767" lon="8.566153387109123"><ele>102.39999999999999</ele><time>2026-04-18T10:15:38.003Z</time></trkpt><trkpt lat="45.18448937067811" lon="8.566132890609552"><ele>102.0</ele><time>2026-04-18T10:15:39.003Z</time></trkpt><trkpt lat="45.18436385452308" lon="8.566130068881098"><ele>102.0</ele><time>2026-04-18T10:15:40.003Z</time></trkpt><trkpt lat="45.18426402892849" lon="8.566105265886511"><ele>102.0</ele><time>2026-04-18T10:15:41.003Z</time></trkpt><trkpt lat="45.184171378386985" lon="8.566086216891858"><ele>102.0</ele><time>2026-04-18T10:15:42Z</time></trkpt><trkpt lat="45.18406563345792" lon="8.56605557696141"><ele>102.0</ele><time>2026-04-18T10:15:43Z</time></trkpt><trkpt lat="45.183947455901084" lon="8.56605069294193"><ele>102.0</ele><time>2026-04-18T10:15:44Z</time></trkpt><trkpt lat="45.18383453907267" lon="8.566035542030681"><ele>101.25</ele><time>2026-04-18T10:15:45Z</time></trkpt><trkpt lat="45.18370573068422" lon="8.566038419588997"><ele>100.5</ele><time>2026-04-18T10:15:46Z</time></trkpt><trkpt lat="45.18357830500107" lon="8.56605097064779"><ele>99.75</ele><time>2026-04-18T10:15:47Z</time></trkpt><trkpt lat="45.18345309766086" lon="8.566064540671974"><ele>99.0</ele><time>2026-04-18T10:15:48Z</time></trkpt><trkpt lat="45.183341227736" lon="8.566073780085366"><ele>99.0</ele><time>2026-04-18T10:15:49Z</time></trkpt><trkpt lat="45.183226711440945" lon="8.566083960644741"><ele>99.0</ele><time>2026-04-18T10:15:50Z</time></trkpt><trkpt lat="45.18311735618137" lon="8.566101916274748"><ele>99.0</ele><time>2026-04-18T10:15:51Z</time></trkpt><trkpt lat="45.18301916729321" lon="8.566134717161685"><ele>99.0</ele><time>2026-04-18T10:15:52Z</time></trkpt><trkpt lat="45.182940560565264" lon="8.5661765703881"><ele>99.0</ele><time>2026-04-18T10:15:53Z</time></trkpt><trkpt lat="45.18286116290291" lon="8.566209089112494"><ele>99.2</ele><time>2026-04-18T10:15:54Z</time></trkpt><trkpt lat="45.18279310152529" lon="8.566250116717985"><ele>99.4</ele><time>2026-04-18T10:15:55Z</time></trkpt><trkpt lat="45.18270916362886" lon="8.566300090582024"><ele>99.6</ele><time>2026-04-18T10:15:56Z</time></trkpt><trkpt lat="45.1826050037788" lon="8.566309967394291"><ele>99.8</ele><time>2026-04-18T10:15:57Z</time></trkpt><trkpt lat="45.18250275017648" lon="8.56636036965075"><ele>100.0</ele><time>2026-04-18T10:15:58Z</time></trkpt><trkpt lat="45.182397455044054" lon="8.566399105738737"><ele>100.25</ele><time>2026-04-18T10:15:59Z</time></trkpt><trkpt lat="45.18228521701572" lon="8.566464073659013"><ele>100.5</ele><time>2026-04-18T10:16:00Z</time></trkpt><trkpt lat="45.182173826042195" lon="8.566516148519788"><ele>100.75</ele><time>2026-04-18T10:16:01Z</time></trkpt><trkpt lat="45.182064916461336" lon="8.56657311067794"><ele>101.0</ele><time>2026-04-18T10:16:02Z</time></trkpt><trkpt lat="45.181962247848666" lon="8.566625268704227"><ele>100.99999999999999</ele><time>2026-04-18T10:16:03Z</time></trkpt><trkpt lat="45.181869862661976" lon="8.566674708351394"><ele>101.0</ele><time>2026-04-18T10:16:04Z</time></trkpt><trkpt lat="45.181788647278516" lon="8.566707786113332"><ele>101.0</ele><time>2026-04-18T10:16:05Z</time></trkpt><trkpt lat="45.1817178826361" lon="8.56674274515744"><ele>101.0</ele><time>2026-04-18T10:16:06Z</time></trkpt><trkpt lat="45.18163807803209" lon="8.566782953535082"><ele>100.99999999999999</ele><time>2026-04-18T10:16:07Z</time></trkpt><trkpt lat="45.18155614952859" lon="8.566843392003225"><ele>101.0</ele><time>2026-04-18T10:16:08Z</time></trkpt><trkpt lat="45.181478965280895" lon="8.566906251343537"><ele>100.8</ele><time>2026-04-18T10:16:09Z</time></trkpt><trkpt lat="45.18140003059112" lon="8.56698169963455"><ele>100.6</ele><time>2026-04-18T10:16:10Z</time></trkpt><trkpt lat="45.181325712161716" lon="8.567070562513253"><ele>100.4</ele><time>2026-04-18T10:16:11.001Z</time></trkpt><trkpt lat="45.181245348855924" lon="8.567177603838035"><ele>100.2</ele><time>2026-04-18T10:16:12.001Z</time></trkpt><trkpt lat="45.181163641995546" lon="8.56729266775017"><ele>100.0</ele><time>2026-04-18T10:16:13.001Z</time></trkpt><trkpt lat="45.18107229180638" lon="8.567405065066193"><ele>100.0</ele><time>2026-04-18T10:16:14.001Z</time></trkpt><trkpt lat="45.180981563428624" lon="8.56752022268616"><ele>100.0</ele><time>2026-04-18T10:16:15.001Z</time></trkpt><trkpt lat="45.18090536023686" lon="8.56762805047226"><ele>100.0</ele><time>2026-04-18T10:16:16.001Z</time></trkpt><trkpt lat="45.1808387708031" lon="8.567720050428958"><ele>100.0</ele><time>2026-04-18T10:16:17.001Z</time></trkpt><trkpt lat="45.18078241796719" lon="8.567800860190575"><ele>100.0</ele><time>2026-04-18T10:16:18.001Z</time></trkpt><trkpt lat="45.18073087447439" lon="8.567879929639089"><ele>100.00000000000001</ele><time>2026-04-18T10:16:19.001Z</time></trkpt><trkpt lat="45.18068174944964" lon="8.567962488124614"><ele>100.0</ele><time>2026-04-18T10:16:20.001Z</time></trkpt><trkpt lat="45.180650019026395" lon="8.568047153651857"><ele>100.0</ele><time>2026-04-18T10:16:21.001Z</time></trkpt><trkpt lat="45.18060457038051" lon="8.568152237230128"><ele>100.0</ele><time>2026-04-18T10:16:22.001Z</time></trkpt><trkpt lat="45.18058689852163" lon="8.568260735324209"><ele>100.00000000000001</ele><time>2026-04-18T10:16:23.001Z</time></trkpt><trkpt lat="45.18058987620859" lon="8.568406702372917"><ele>100.0</ele><time>2026-04-18T10:16:24.001Z</time></trkpt><trkpt lat="45.18059353816581" lon="8.56854048065301"><ele>100.0</ele><time>2026-04-18T10:16:25.001Z</time></trkpt><trkpt lat="45.1806034097994" lon="8.568686952736156"><ele>100.0</ele><time>2026-04-18T10:16:26.001Z</time></trkpt><trkpt lat="45.18062509281015" lon="8.568844802466133"><ele>100.0</ele><time>2026-04-18T10:16:27.001Z</time></trkpt><trkpt lat="45.18065643264013" lon="8.568999327546656"><ele>100.0</ele><time>2026-04-18T10:16:28.001Z</time></trkpt><trkpt lat="45.18069157835006" lon="8.569141481111842"><ele>100.0</ele><time>2026-04-18T10:16:29.001Z</time></trkpt><trkpt lat="45.18073809818399" lon="8.569266118613024"><ele>100.25</ele><time>2026-04-18T10:16:30.001Z</time></trkpt><trkpt lat="45.18077650152807" lon="8.569389546570049"><ele>100.5</ele><time>2026-04-18T10:16:31.001Z</time></trkpt><trkpt lat="45.18083891191528" lon="8.5695689273129"><ele>100.75</ele><time>2026-04-18T10:16:32.001Z</time></trkpt><trkpt lat="45.18087421159543" lon="8.569731716778941"><ele>101.0</ele><time>2026-04-18T10:16:33.001Z</time></trkpt><trkpt lat="45.180926697316195" lon="8.56985244550379"><ele>101.16666666666666</ele><time>2026-04-18T10:16:34.001Z</time></trkpt><trkpt lat="45.18094585606863" lon="8.569972633248007"><ele>101.33333333333333</ele><time>2026-04-18T10:16:35.001Z</time></trkpt><trkpt lat="45.180990726646016" lon="8.57006555364491"><ele>101.5</ele><time>2026-04-18T10:16:36.001Z</time></trkpt><trkpt lat="45.18101679801355" lon="8.570159644738263"><ele>101.66666666666666</ele><time>2026-04-18T10:16:37.001Z</time></trkpt><trkpt lat="45.1810602336012" lon="8.570309973278317"><ele>101.83333333333333</ele><time>2026-04-18T10:16:39.001Z</time></trkpt><trkpt lat="45.18109291030363" lon="8.570425699199943"><ele>102.0</ele><time>2026-04-18T10:16:41.001Z</time></trkpt><trkpt lat="45.180993525791095" lon="8.570455040316496"><ele>102.0</ele><time>2026-04-18T10:16:43.001Z</time></trkpt><trkpt lat="45.18089528313523" lon="8.570520913508116"><ele>102.0</ele><time>2026-04-18T10:16:45.002Z</time></trkpt><trkpt lat="45.180788790079696" lon="8.570551541411783"><ele>102.0</ele><time>2026-04-18T10:16:47.002Z</time></trkpt><trkpt lat="45.18071495937629" lon="8.570588039233538"><ele>102.0</ele><time>2026-04-18T10:16:49.002Z</time></trkpt><trkpt lat="45.180647994744476" lon="8.5705856991529"><ele>102.0</ele><time>2026-04-18T10:16:51.002Z</time></trkpt><trkpt lat="45.18058669460112" lon="8.570615617982577"><ele>102.0</ele><time>2026-04-18T10:16:58.002Z</time></trkpt><trkpt lat="45.18065903099406" lon="8.570584435315379"><ele>102.0</ele><time>2026-04-18T10:17:08.002Z</time></trkpt><trkpt lat="45.18072452919739" lon="8.570583653722903"><ele>102.0</ele><time>2026-04-18T10:17:09.002Z</time></trkpt><trkpt lat="45.18080087030773" lon="8.570566240595612"><ele>102.0</ele><time>2026-04-18T10:17:10.002Z</time></trkpt><trkpt lat="45.180876053123825" lon="8.570534188024054"><ele>102.0</ele><time>2026-04-18T10:17:11.002Z</time></trkpt><trkpt lat="45.18094654212062" lon="8.570500687720527"><ele>102.0</ele><time>2026-04-18T10:17:12.002Z</time></trkpt><trkpt lat="45.18101299036639" lon="8.570469681194094"><ele>102.0</ele><time>2026-04-18T10:17:13.002Z</time></trkpt><trkpt lat="45.18107931890486" lon="8.57045281816197"><ele>102.0</ele><time>2026-04-18T10:17:14.002Z</time></trkpt><trkpt lat="45.1812061698714" lon="8.570495039259889"><ele>102.0</ele><time>2026-04-18T10:17:16.002Z</time></trkpt><trkpt lat="45.181262363024075" lon="8.570562740321579"><ele>102.0</ele><time>2026-04-18T10:17:17.003Z</time></trkpt><trkpt lat="45.18131678470381" lon="8.570641896817365"><ele>102.0</ele><time>2026-04-18T10:17:18.003Z</time></trkpt><trkpt lat="45.18136900514331" lon="8.57069997142686"><ele>102.0</ele><time>2026-04-18T10:17:19.003Z</time></trkpt><trkpt lat="45.181421580827426" lon="8.570788194888395"><ele>102.0</ele><time>2026-04-18T10:17:21.003Z</time></trkpt><trkpt lat="45.181405479833906" lon="8.570889595261816"><ele>102.0</ele><time>2026-04-18T10:17:23.003Z</time></trkpt><trkpt lat="45.18125338541053" lon="8.570977826477364"><ele>102.0</ele><time>2026-04-18T10:17:26.003Z</time></trkpt><trkpt lat="45.18117698750651" lon="8.571015142087562"><ele>102.0</ele><time>2026-04-18T10:17:27.003Z</time></trkpt><trkpt lat="45.18111139476465" lon="8.571059889912707"><ele>102.0</ele><time>2026-04-18T10:17:28.003Z</time></trkpt><trkpt lat="45.18103889264554" lon="8.571094456925136"><ele>102.0</ele><time>2026-04-18T10:17:29.003Z</time></trkpt><trkpt lat="45.18095909326744" lon="8.571140161747238"><ele>102.0</ele><time>2026-04-18T10:17:30.003Z</time></trkpt><trkpt lat="45.18088030504798" lon="8.571184261165692"><ele>102.0</ele><time>2026-04-18T10:17:31.003Z</time></trkpt><trkpt lat="45.180790993503564" lon="8.571214284825144"><ele>101.5</ele><time>2026-04-18T10:17:32.003Z</time></trkpt><trkpt lat="45.180715842185656" lon="8.571274170094577"><ele>101.0</ele><time>2026-04-18T10:17:33.003Z</time></trkpt><trkpt lat="45.18064407281527" lon="8.571305903190265"><ele>100.5</ele><time>2026-04-18T10:17:34.003Z</time></trkpt><trkpt lat="45.18056725241007" lon="8.571351272908208"><ele>100.0</ele><time>2026-04-18T10:17:35.003Z</time></trkpt><trkpt lat="45.18048836236063" lon="8.571392691621176"><ele>99.5</ele><time>2026-04-18T10:17:36.003Z</time></trkpt><trkpt lat="45.18042457566243" lon="8.57142960578292"><ele>99.0</ele><time>2026-04-18T10:17:37.003Z</time></trkpt><trkpt lat="45.1803263710332" lon="8.571486760814878"><ele>99.0</ele><time>2026-04-18T10:17:39.003Z</time></trkpt><trkpt lat="45.18026800597512" lon="8.571527651274645"><ele>99.0</ele><time>2026-04-18T10:17:40.003Z</time></trkpt><trkpt lat="45.18019660545565" lon="8.571570552737278"><ele>99.0</ele><time>2026-04-18T10:17:41.003Z</time></trkpt><trkpt lat="45.18012189464193" lon="8.571617552707416"><ele>99.0</ele><time>2026-04-18T10:17:42.003Z</time></trkpt><trkpt lat="45.18005569000745" lon="8.571670643978415"><ele>99.0</ele><time>2026-04-18T10:17:43.003Z</time></trkpt><trkpt lat="45.17999461201905" lon="8.571719951065669"><ele>99.0</ele><time>2026-04-18T10:17:44.003Z</time></trkpt><trkpt lat="45.17992769484746" lon="8.571774753403767"><ele>99.0</ele><time>2026-04-18T10:17:45.003Z</time></trkpt><trkpt lat="45.17985763735046" lon="8.571819509299166"><ele>99.2</ele><time>2026-04-18T10:17:46.003Z</time></trkpt><trkpt lat="45.179793661998154" lon="8.571851820791768"><ele>99.4</ele><time>2026-04-18T10:17:47.003Z</time></trkpt><trkpt lat="45.17970203622342" lon="8.57190595745393"><ele>99.6</ele><time>2026-04-18T10:17:49Z</time></trkpt><trkpt lat="45.17963918261753" lon="8.571921794035518"><ele>99.8</ele><time>2026-04-18T10:17:51Z</time></trkpt><trkpt lat="45.179620011008716" lon="8.57176314393307"><ele>100.0</ele><time>2026-04-18T10:17:53Z</time></trkpt><trkpt lat="45.17961761720481" lon="8.571588461419077"><ele>100.0</ele><time>2026-04-18T10:17:55Z</time></trkpt><trkpt lat="45.17961461026417" lon="8.571474497944774"><ele>100.0</ele><time>2026-04-18T10:17:56Z</time></trkpt><trkpt lat="45.179617736436334" lon="8.571361984189236"><ele>100.0</ele><time>2026-04-18T10:17:57Z</time></trkpt><trkpt lat="45.17961096665773" lon="8.571234080310557"><ele>100.0</ele><time>2026-04-18T10:17:58Z</time></trkpt><trkpt lat="45.1796043053963" lon="8.571100147609544"><ele>100.0</ele><time>2026-04-18T10:17:59Z</time></trkpt><trkpt lat="45.179606712357945" lon="8.570948998223905"><ele>100.25</ele><time>2026-04-18T10:18:00Z</time></trkpt><trkpt lat="45.17960385468655" lon="8.570786494810273"><ele>100.5</ele><time>2026-04-18T10:18:01Z</time></trkpt><trkpt lat="45.17960069994028" lon="8.570617867024321"><ele>100.75</ele><time>2026-04-18T10:18:02Z</time></trkpt><trkpt lat="45.17959615340082" lon="8.570448900011836"><ele>101.0</ele><time>2026-04-18T10:18:03Z</time></trkpt><trkpt lat="45.179592025439995" lon="8.570267926790347"><ele>101.0</ele><time>2026-04-18T10:18:04Z</time></trkpt><trkpt lat="45.1795897978194" lon="8.570084088403"><ele>101.0</ele><time>2026-04-18T10:18:05Z</time></trkpt><trkpt lat="45.179587159965635" lon="8.569893367603814"><ele>101.0</ele><time>2026-04-18T10:18:06Z</time></trkpt><trkpt lat="45.17958209271499" lon="8.569694209792893"><ele>101.0</ele><time>2026-04-18T10:18:07Z</time></trkpt><trkpt lat="45.17957421968984" lon="8.569485297407862"><ele>101.0</ele><time>2026-04-18T10:18:08Z</time></trkpt><trkpt lat="45.17957044169122" lon="8.56927443275416"><ele>101.0</ele><time>2026-04-18T10:18:09Z</time></trkpt><trkpt lat="45.179568257998525" lon="8.56905408639887"><ele>101.0</ele><time>2026-04-18T10:18:10Z</time></trkpt><trkpt lat="45.1795616175531" lon="8.568830884765841"><ele>101.0</ele><time>2026-04-18T10:18:11Z</time></trkpt><trkpt lat="45.179557959226834" lon="8.568604818684037"><ele>101.0</ele><time>2026-04-18T10:18:12Z</time></trkpt><trkpt lat="45.179553742419166" lon="8.568377277014875"><ele>101.0</ele><time>2026-04-18T10:18:13Z</time></trkpt><trkpt lat="45.179547315251774" lon="8.568150095846152"><ele>101.0</ele><time>2026-04-18T10:18:14Z</time></trkpt><trkpt lat="45.179540859266595" lon="8.5679276242308"><ele>101.0</ele><time>2026-04-18T10:18:15Z</time></trkpt><trkpt lat="45.179538403261986" lon="8.567711843019978"><ele>101.0</ele><time>2026-04-18T10:18:16Z</time></trkpt><trkpt lat="45.1795342268954" lon="8.567486411693437"><ele>101.0</ele><time>2026-04-18T10:18:17Z</time></trkpt><trkpt lat="45.179532428653836" lon="8.567267031377959"><ele>101.0</ele><time>2026-04-18T10:18:18Z</time></trkpt><trkpt lat="45.17953012779335" lon="8.567048527751096"><ele>101.0</ele><time>2026-04-18T10:18:19Z</time></trkpt><trkpt lat="45.17952646665802" lon="8.566834510991189"><ele>101.0</ele><time>2026-04-18T10:18:20.001Z</time></trkpt><trkpt lat="45.17952397744633" lon="8.566624499518014"><ele>101.0</ele><time>2026-04-18T10:18:21.001Z</time></trkpt><trkpt lat="45.1795232063608" lon="8.566413496452052"><ele>101.0</ele><time>2026-04-18T10:18:22.001Z</time></trkpt><trkpt lat="45.179523760320635" lon="8.5661967708758"><ele>101.33333333333333</ele><time>2026-04-18T10:18:23.001Z</time></trkpt><trkpt lat="45.179521120409795" lon="8.565984428398743"><ele>101.66666666666666</ele><time>2026-04-18T10:18:24.001Z</time></trkpt><trkpt lat="45.17951608873676" lon="8.565766162711576"><ele>102.0</ele><time>2026-04-18T10:18:25.001Z</time></trkpt><trkpt lat="45.17951243683088" lon="8.565555644764176"><ele>102.5</ele><time>2026-04-18T10:18:26.001Z</time></trkpt><trkpt lat="45.17950967881647" lon="8.56536145024129"><ele>103.0</ele><time>2026-04-18T10:18:27.001Z</time></trkpt><trkpt lat="45.179507707465504" lon="8.565184961232346"><ele>103.5</ele><time>2026-04-18T10:18:28.001Z</time></trkpt><trkpt lat="45.17950874174625" lon="8.56501592408514"><ele>104.0</ele><time>2026-04-18T10:18:29.001Z</time></trkpt><trkpt lat="45.1795038434635" lon="8.564834577900825"><ele>104.0</ele><time>2026-04-18T10:18:30.001Z</time></trkpt><trkpt lat="45.17949380168891" lon="8.564637021919594"><ele>104.0</ele><time>2026-04-18T10:18:31.001Z</time></trkpt><trkpt lat="45.17948824215729" lon="8.56444136416982"><ele>104.0</ele><time>2026-04-18T10:18:32.001Z</time></trkpt><trkpt lat="45.17947745390421" lon="8.564266210582025"><ele>104.0</ele><time>2026-04-18T10:18:33.001Z</time></trkpt><trkpt lat="45.179470616815124" lon="8.564104291887075"><ele>103.5</ele><time>2026-04-18T10:18:34.001Z</time></trkpt><trkpt lat="45.17946594344628" lon="8.563939089496214"><ele>103.0</ele><time>2026-04-18T10:18:35.001Z</time></trkpt><trkpt lat="45.17946703102668" lon="8.563747892556098"><ele>102.5</ele><time>2026-04-18T10:18:36.001Z</time></trkpt><trkpt lat="45.179467602568046" lon="8.563552654720613"><ele>102.0</ele><time>2026-04-18T10:18:37.001Z</time></trkpt><trkpt lat="45.17946914104112" lon="8.563359612114247"><ele>101.75</ele><time>2026-04-18T10:18:38.001Z</time></trkpt><trkpt lat="45.17946335777219" lon="8.563140209107475"><ele>101.5</ele><time>2026-04-18T10:18:39.001Z</time></trkpt><trkpt lat="45.17946309561893" lon="8.562932312946577"><ele>101.25</ele><time>2026-04-18T10:18:40.001Z</time></trkpt><trkpt lat="45.17945812181845" lon="8.562736530932785"><ele>101.0</ele><time>2026-04-18T10:18:41.001Z</time></trkpt><trkpt lat="45.17945045625868" lon="8.562563835163324"><ele>101.0</ele><time>2026-04-18T10:18:42.001Z</time></trkpt><trkpt lat="45.17945102767021" lon="8.56240522988759"><ele>101.0</ele><time>2026-04-18T10:18:43.001Z</time></trkpt><trkpt lat="45.17945323085596" lon="8.562262984890927"><ele>101.0</ele><time>2026-04-18T10:18:44.001Z</time></trkpt><trkpt lat="45.1794482226937" lon="8.562124148614165"><ele>101.0</ele><time>2026-04-18T10:18:45.001Z</time></trkpt><trkpt lat="45.179445517908654" lon="8.561990190668919"><ele>101.0</ele><time>2026-04-18T10:18:46.001Z</time></trkpt><trkpt lat="45.179440333587635" lon="8.561844838219143"><ele>100.99999999999999</ele><time>2026-04-18T10:18:47.001Z</time></trkpt><trkpt lat="45.1794369482775" lon="8.561703677398585"><ele>101.0</ele><time>2026-04-18T10:18:48.001Z</time></trkpt><trkpt lat="45.17943564242604" lon="8.561585681424855"><ele>101.0</ele><time>2026-04-18T10:18:49.001Z</time></trkpt><trkpt lat="45.17944154635077" lon="8.561473896075057"><ele>101.0</ele><time>2026-04-18T10:18:50.001Z</time></trkpt><trkpt lat="45.17945741350493" lon="8.56138139761049"><ele>100.99999999999999</ele><time>2026-04-18T10:18:51.001Z</time></trkpt><trkpt lat="45.17947130064425" lon="8.561290097295734"><ele>101.0</ele><time>2026-04-18T10:18:52.001Z</time></trkpt><trkpt lat="45.17945702805045" lon="8.561129020930563"><ele>101.16666666666666</ele><time>2026-04-18T10:18:54.001Z</time></trkpt><trkpt lat="45.179441026807886" lon="8.561039129866439"><ele>101.33333333333333</ele><time>2026-04-18T10:18:55.001Z</time></trkpt><trkpt lat="45.17941952736576" lon="8.560897669101555"><ele>101.5</ele><time>2026-04-18T10:18:57.001Z</time></trkpt><trkpt lat="45.179420022014185" lon="8.560795795688513"><ele>101.66666666666666</ele><time>2026-04-18T10:18:59.002Z</time></trkpt><trkpt lat="45.17942600854512" lon="8.560643317882743"><ele>101.83333333333333</ele><time>2026-04-18T10:19:02.002Z</time></trkpt><trkpt lat="45.17941948464923" lon="8.560546499460314"><ele>102.0</ele><time>2026-04-18T10:19:03.002Z</time></trkpt><trkpt lat="45.17939288812824" lon="8.560424087103085"><ele>102.0</ele><time>2026-04-18T10:19:04.002Z</time></trkpt><trkpt lat="45.17935664026238" lon="8.560286541130703"><ele>102.0</ele><time>2026-04-18T10:19:05.002Z</time></trkpt><trkpt lat="45.17932842430156" lon="8.560135371028725"><ele>102.0</ele><time>2026-04-18T10:19:06.002Z</time></trkpt><trkpt lat="45.17931077876734" lon="8.55997454854956"><ele>102.0</ele><time>2026-04-18T10:19:07.002Z</time></trkpt><trkpt lat="45.179296518383076" lon="8.559803723646171"><ele>102.0</ele><time>2026-04-18T10:19:08.002Z</time></trkpt><trkpt lat="45.17927247670943" lon="8.559639595701414"><ele>102.0</ele><time>2026-04-18T10:19:09.002Z</time></trkpt><trkpt lat="45.1792414477051" lon="8.559498964618957"><ele>102.0</ele><time>2026-04-18T10:19:10.002Z</time></trkpt><trkpt lat="45.179206082732534" lon="8.559382306883666"><ele>102.0</ele><time>2026-04-18T10:19:11.002Z</time></trkpt><trkpt lat="45.17917007291843" lon="8.559293373079992"><ele>102.0</ele><time>2026-04-18T10:19:12.002Z</time></trkpt><trkpt lat="45.17908078102059" lon="8.559184154625859"><ele>102.0</ele><time>2026-04-18T10:19:14.002Z</time></trkpt><trkpt lat="45.179002819434565" lon="8.559173965421525"><ele>102.0</ele><time>2026-04-18T10:19:16.002Z</time></trkpt><trkpt lat="45.17889522919657" lon="8.559118724541731"><ele>102.0</ele><time>2026-04-18T10:19:18.002Z</time></trkpt><trkpt lat="45.178825356069666" lon="8.559034116355186"><ele>102.0</ele><time>2026-04-18T10:19:19.002Z</time></trkpt><trkpt lat="45.17875376333656" lon="8.558923154819027"><ele>102.0</ele><time>2026-04-18T10:19:20.002Z</time></trkpt><trkpt lat="45.17868330644991" lon="8.558785267439383"><ele>101.75</ele><time>2026-04-18T10:19:21.002Z</time></trkpt><trkpt lat="45.17861558597156" lon="8.558628440781044"><ele>101.5</ele><time>2026-04-18T10:19:22.002Z</time></trkpt><trkpt lat="45.17853302791468" lon="8.558465739234707"><ele>101.25</ele><time>2026-04-18T10:19:23.002Z</time></trkpt><trkpt lat="45.17842944297091" lon="8.558316543848683"><ele>101.0</ele><time>2026-04-18T10:19:24.002Z</time></trkpt><trkpt lat="45.17830659658274" lon="8.558178066199192"><ele>101.33333333333333</ele><time>2026-04-18T10:19:25.002Z</time></trkpt><trkpt lat="45.178178900987675" lon="8.558039146770717"><ele>101.66666666666666</ele><time>2026-04-18T10:19:26.002Z</time></trkpt><trkpt lat="45.17805165240393" lon="8.55788893576409"><ele>102.0</ele><time>2026-04-18T10:19:27.002Z</time></trkpt><trkpt lat="45.17792262128974" lon="8.557734350376226"><ele>102.0</ele><time>2026-04-18T10:19:28.002Z</time></trkpt><trkpt lat="45.177791958743555" lon="8.557579759241829"><ele>102.0</ele><time>2026-04-18T10:19:29.002Z</time></trkpt><trkpt lat="45.17766987886293" lon="8.557437083463286"><ele>102.0</ele><time>2026-04-18T10:19:30.002Z</time></trkpt><trkpt lat="45.177558897356924" lon="8.557303020984937"><ele>102.0</ele><time>2026-04-18T10:19:31.002Z</time></trkpt><trkpt lat="45.17745541772308" lon="8.55717437035672"><ele>102.0</ele><time>2026-04-18T10:19:32.002Z</time></trkpt><trkpt lat="45.17735814667186" lon="8.557053988108782"><ele>102.0</ele><time>2026-04-18T10:19:33.002Z</time></trkpt><trkpt lat="45.17726737450987" lon="8.556943355504856"><ele>102.0</ele><time>2026-04-18T10:19:34.002Z</time></trkpt><trkpt lat="45.17717920781595" lon="8.556845990994761"><ele>102.0</ele><time>2026-04-18T10:19:35.002Z</time></trkpt><trkpt lat="45.17709382885962" lon="8.556756444271025"><ele>102.0</ele><time>2026-04-18T10:19:36.003Z</time></trkpt><trkpt lat="45.177016423039106" lon="8.556668445422476"><ele>102.0</ele><time>2026-04-18T10:19:37.003Z</time></trkpt><trkpt lat="45.176952374343834" lon="8.556585559018817"><ele>102.0</ele><time>2026-04-18T10:19:38.003Z</time></trkpt><trkpt lat="45.176897326627596" lon="8.55651457167303"><ele>102.0</ele><time>2026-04-18T10:19:39.003Z</time></trkpt><trkpt lat="45.176821495347504" lon="8.556432169609238"><ele>102.0</ele><time>2026-04-18T10:19:41.003Z</time></trkpt><trkpt lat="45.176749682715524" lon="8.556405284953728"><ele>102.0</ele><time>2026-04-18T10:21:01.002Z</time></trkpt><trkpt lat="45.176672357510895" lon="8.556567509812526"><ele>102.0</ele><time>2026-04-18T10:21:03.002Z</time></trkpt><trkpt lat="45.17665163638142" lon="8.556665277397553"><ele>102.0</ele><time>2026-04-18T10:21:04.002Z</time></trkpt><trkpt lat="45.17663611404394" lon="8.556768232378497"><ele>102.0</ele><time>2026-04-18T10:21:05.002Z</time></trkpt><trkpt lat="45.17660137320569" lon="8.556878828363946"><ele>102.0</ele><time>2026-04-18T10:21:06.002Z</time></trkpt><trkpt lat="45.17658106852245" lon="8.557015898589931"><ele>102.19999999999999</ele><time>2026-04-18T10:21:07.002Z</time></trkpt><trkpt lat="45.17655542551557" lon="8.557156942037537"><ele>102.4</ele><time>2026-04-18T10:21:08.002Z</time></trkpt><trkpt lat="45.17652648017078" lon="8.557306604458798"><ele>102.6</ele><time>2026-04-18T10:21:09.002Z</time></trkpt><trkpt lat="45.17650019366719" lon="8.55746434810816"><ele>102.80000000000001</ele><time>2026-04-18T10:21:10.002Z</time></trkpt><trkpt lat="45.1764671584756" lon="8.557632403375617"><ele>103.0</ele><time>2026-04-18T10:21:11.002Z</time></trkpt><trkpt lat="45.17643325816936" lon="8.557812304027317"><ele>103.0</ele><time>2026-04-18T10:21:12.002Z</time></trkpt><trkpt lat="45.17639900940769" lon="8.557995285047916"><ele>103.0</ele><time>2026-04-18T10:21:13.002Z</time></trkpt><trkpt lat="45.1763623013193" lon="8.558185223208268"><ele>103.0</ele><time>2026-04-18T10:21:14.002Z</time></trkpt><trkpt lat="45.17632607791077" lon="8.558375654951895"><ele>103.0</ele><time>2026-04-18T10:21:15.002Z</time></trkpt><trkpt lat="45.17628757017596" lon="8.558581177164795"><ele>103.0</ele><time>2026-04-18T10:21:16.002Z</time></trkpt><trkpt lat="45.176244342051646" lon="8.558795861638307"><ele>103.0</ele><time>2026-04-18T10:21:17.002Z</time></trkpt><trkpt lat="45.17619963516686" lon="8.559014332083281"><ele>103.0</ele><time>2026-04-18T10:21:18.002Z</time></trkpt><trkpt lat="45.176153511057535" lon="8.559232509255235"><ele>103.0</ele><time>2026-04-18T10:21:19.002Z</time></trkpt><trkpt lat="45.17611366197977" lon="8.559452321939252"><ele>103.0</ele><time>2026-04-18T10:21:20.002Z</time></trkpt><trkpt lat="45.176073309981696" lon="8.55966785129181"><ele>103.0</ele><time>2026-04-18T10:21:21.002Z</time></trkpt><trkpt lat="45.17602718146417" lon="8.55989204983973"><ele>102.66666666666667</ele><time>2026-04-18T10:21:22.002Z</time></trkpt><trkpt lat="45.175981920176376" lon="8.560117413740283"><ele>102.33333333333334</ele><time>2026-04-18T10:21:23.002Z</time></trkpt><trkpt lat="45.17593445564072" lon="8.560344921862328"><ele>102.0</ele><time>2026-04-18T10:21:24.002Z</time></trkpt><trkpt lat="45.175887143614766" lon="8.560582979394836"><ele>101.33333333333334</ele><time>2026-04-18T10:21:25.002Z</time></trkpt><trkpt lat="45.17583914632839" lon="8.560826703164143"><ele>100.66666666666667</ele><time>2026-04-18T10:21:26.002Z</time></trkpt><trkpt lat="45.17578700294239" lon="8.561073478598031"><ele>100.0</ele><time>2026-04-18T10:21:27.002Z</time></trkpt><trkpt lat="45.17573616591263" lon="8.561318732083995"><ele>100.0</ele><time>2026-04-18T10:21:28.002Z</time></trkpt><trkpt lat="45.17568792075149" lon="8.5615722220304"><ele>100.0</ele><time>2026-04-18T10:21:29.002Z</time></trkpt><trkpt lat="45.17563966052379" lon="8.561810006108889"><ele>100.0</ele><time>2026-04-18T10:21:30.002Z</time></trkpt><trkpt lat="45.17559398479843" lon="8.562032944185338"><ele>100.66666666666667</ele><time>2026-04-18T10:21:31.002Z</time></trkpt><trkpt lat="45.175550304537204" lon="8.562240103325383"><ele>101.33333333333334</ele><time>2026-04-18T10:21:32.002Z</time></trkpt><trkpt lat="45.175510582708" lon="8.562447128212023"><ele>102.0</ele><time>2026-04-18T10:21:33.003Z</time></trkpt><trkpt lat="45.17546943013628" lon="8.562663795618231"><ele>102.33333333333334</ele><time>2026-04-18T10:21:34.003Z</time></trkpt><trkpt lat="45.175426441095404" lon="8.562885756098677"><ele>102.66666666666667</ele><time>2026-04-18T10:21:35.003Z</time></trkpt><trkpt lat="45.175383189714765" lon="8.56310903216045"><ele>103.0</ele><time>2026-04-18T10:21:36.003Z</time></trkpt><trkpt lat="45.17534235352065" lon="8.563323733848499"><ele>103.0</ele><time>2026-04-18T10:21:37.003Z</time></trkpt><trkpt lat="45.17530744563078" lon="8.563525372112416"><ele>103.0</ele><time>2026-04-18T10:21:38.003Z</time></trkpt><trkpt lat="45.17527515233703" lon="8.563733891756799"><ele>103.0</ele><time>2026-04-18T10:21:39.003Z</time></trkpt><trkpt lat="45.17525411448305" lon="8.563943839317393"><ele>103.0</ele><time>2026-04-18T10:21:40.003Z</time></trkpt><trkpt lat="45.17524090528286" lon="8.5641467627109"><ele>103.75</ele><time>2026-04-18T10:21:41.003Z</time></trkpt><trkpt lat="45.17523065679964" lon="8.564335043272417"><ele>104.5</ele><time>2026-04-18T10:21:42.003Z</time></trkpt><trkpt lat="45.175226008844064" lon="8.564501154058853"><ele>105.25</ele><time>2026-04-18T10:21:43.003Z</time></trkpt><trkpt lat="45.17522015911773" lon="8.564658924783698"><ele>106.0</ele><time>2026-04-18T10:21:44.003Z</time></trkpt><trkpt lat="45.17521075275044" lon="8.564806646651451"><ele>106.00000000000001</ele><time>2026-04-18T10:21:45.003Z</time></trkpt><trkpt lat="45.17520834786091" lon="8.56493915144419"><ele>106.0</ele><time>2026-04-18T10:21:46.003Z</time></trkpt><trkpt lat="45.17520262408289" lon="8.565052896416798"><ele>106.0</ele><time>2026-04-18T10:21:47.003Z</time></trkpt><trkpt lat="45.17519871751892" lon="8.565155210149557"><ele>106.0</ele><time>2026-04-18T10:21:48.003Z</time></trkpt><trkpt lat="45.17520054322389" lon="8.565314671300726"><ele>106.00000000000001</ele><time>2026-04-18T10:21:50.003Z</time></trkpt><trkpt lat="45.175194877966895" lon="8.56541220236283"><ele>106.0</ele><time>2026-04-18T10:21:52.003Z</time></trkpt><trkpt lat="45.17509031943345" lon="8.565430475448665"><ele>106.00000000000001</ele><time>2026-04-18T10:21:56.003Z</time></trkpt><trkpt lat="45.17497380779155" lon="8.565368229089898"><ele>106.0</ele><time>2026-04-18T10:21:58.003Z</time></trkpt><trkpt lat="45.174908934996594" lon="8.56534332918066"><ele>106.0</ele><time>2026-04-18T10:21:59.003Z</time></trkpt><trkpt lat="45.1748516210748" lon="8.565303058167554"><ele>106.0</ele><time>2026-04-18T10:21:59.999Z</time></trkpt><trkpt lat="45.17478298704438" lon="8.565266572407937"><ele>106.00000000000001</ele><time>2026-04-18T10:22:00.999Z</time></trkpt><trkpt lat="45.174715734659486" lon="8.565255469887358"><ele>106.0</ele><time>2026-04-18T10:22:01.999Z</time></trkpt><trkpt lat="45.17465379935447" lon="8.565214477551594"><ele>105.42857142857143</ele><time>2026-04-18T10:22:02.999Z</time></trkpt><trkpt lat="45.17458656973011" lon="8.565180332446701"><ele>104.85714285714285</ele><time>2026-04-18T10:22:03.999Z</time></trkpt><trkpt lat="45.1745277087245" lon="8.56513255783069"><ele>104.28571428571428</ele><time>2026-04-18T10:22:04.999Z</time></trkpt><trkpt lat="45.17444823323589" lon="8.565116271657084"><ele>103.71428571428572</ele><time>2026-04-18T10:22:06.999Z</time></trkpt><trkpt lat="45.17438182949426" lon="8.565082926480601"><ele>103.14285714285714</ele><time>2026-04-18T10:22:08.999Z</time></trkpt><trkpt lat="45.174299398169644" lon="8.56505252124395"><ele>102.57142857142857</ele><time>2026-04-18T10:22:12.999Z</time></trkpt><trkpt lat="45.17422711007187" lon="8.565032186603258"><ele>102.0</ele><time>2026-04-18T10:22:17Z</time></trkpt><trkpt lat="45.174165489433456" lon="8.565012925586778"><ele>102.0</ele><time>2026-04-18T10:22:20Z</time></trkpt><trkpt lat="45.174071996125804" lon="8.565048757608084"><ele>102.0</ele><time>2026-04-18T10:22:23Z</time></trkpt><trkpt lat="45.17400963170341" lon="8.565022326081047"><ele>102.0</ele><time>2026-04-18T10:22:24Z</time></trkpt><trkpt lat="45.17390392706096" lon="8.565013996408132"><ele>102.0</ele><time>2026-04-18T10:22:26Z</time></trkpt><trkpt lat="45.173773484634225" lon="8.565020202501731"><ele>102.0</ele><time>2026-04-18T10:22:28Z</time></trkpt><trkpt lat="45.17370571676322" lon="8.565019574566453"><ele>102.16666666666667</ele><time>2026-04-18T10:22:29Z</time></trkpt><trkpt lat="45.17363157318894" lon="8.565009964893573"><ele>102.33333333333334</ele><time>2026-04-18T10:22:30Z</time></trkpt><trkpt lat="45.173556785101745" lon="8.564983457006427"><ele>102.5</ele><time>2026-04-18T10:22:31Z</time></trkpt><trkpt lat="45.17348230044179" lon="8.565000671079645"><ele>102.66666666666667</ele><time>2026-04-18T10:22:32Z</time></trkpt><trkpt lat="45.17340018850764" lon="8.564993823558195"><ele>102.83333333333334</ele><time>2026-04-18T10:22:33Z</time></trkpt><trkpt lat="45.17331345347507" lon="8.564964639849586"><ele>103.0</ele><time>2026-04-18T10:22:34Z</time></trkpt><trkpt lat="45.17323849534274" lon="8.564976900441224"><ele>103.16666666666667</ele><time>2026-04-18T10:22:35Z</time></trkpt><trkpt lat="45.173167731608366" lon="8.564965870070807"><ele>103.33333333333334</ele><time>2026-04-18T10:22:36.001Z</time></trkpt><trkpt lat="45.173082349266714" lon="8.564957208736283"><ele>103.5</ele><time>2026-04-18T10:22:37.001Z</time></trkpt><trkpt lat="45.1729909859567" lon="8.564923414136961"><ele>103.66666666666666</ele><time>2026-04-18T10:22:38.001Z</time></trkpt><trkpt lat="45.172899716341526" lon="8.564899108606651"><ele>103.83333333333333</ele><time>2026-04-18T10:22:39.001Z</time></trkpt><trkpt lat="45.172812018482794" lon="8.564890015737253"><ele>104.0</ele><time>2026-04-18T10:22:40.001Z</time></trkpt><trkpt lat="45.172714732097766" lon="8.564848779259522"><ele>104.0</ele><time>2026-04-18T10:22:41.001Z</time></trkpt><trkpt lat="45.172618798562105" lon="8.564806336528084"><ele>104.0</ele><time>2026-04-18T10:22:42.001Z</time></trkpt><trkpt lat="45.172530479308456" lon="8.564742195496976"><ele>104.0</ele><time>2026-04-18T10:22:43.001Z</time></trkpt><trkpt lat="45.17242262455105" lon="8.564718719871008"><ele>104.0</ele><time>2026-04-18T10:22:44.001Z</time></trkpt><trkpt lat="45.17232517706078" lon="8.564667307845857"><ele>104.0</ele><time>2026-04-18T10:22:45.001Z</time></trkpt><trkpt lat="45.172221875426686" lon="8.56463350124076"><ele>103.80000000000001</ele><time>2026-04-18T10:22:46.001Z</time></trkpt><trkpt lat="45.172135326187224" lon="8.564591835815907"><ele>103.60000000000001</ele><time>2026-04-18T10:22:47.001Z</time></trkpt><trkpt lat="45.172037778618176" lon="8.564551783656745"><ele>103.4</ele><time>2026-04-18T10:22:48.001Z</time></trkpt><trkpt lat="45.17192333401411" lon="8.56451072612314"><ele>103.2</ele><time>2026-04-18T10:22:49.001Z</time></trkpt><trkpt lat="45.17182347262696" lon="8.564461321259266"><ele>103.0</ele><time>2026-04-18T10:22:50.001Z</time></trkpt><trkpt lat="45.17171565695925" lon="8.564427559653257"><ele>104.0</ele><time>2026-04-18T10:22:51.001Z</time></trkpt><trkpt lat="45.17160776993776" lon="8.56439298079747"><ele>105.0</ele><time>2026-04-18T10:22:52.001Z</time></trkpt><trkpt lat="45.171501317040665" lon="8.564336449047543"><ele>106.00000000000001</ele><time>2026-04-18T10:22:53.001Z</time></trkpt><trkpt lat="45.17139170330041" lon="8.564316493313084"><ele>107.0</ele><time>2026-04-18T10:22:54.001Z</time></trkpt><trkpt lat="45.171284095952736" lon="8.56427692618543"><ele>108.0</ele><time>2026-04-18T10:22:55.001Z</time></trkpt><trkpt lat="45.17118127793933" lon="8.564238967046196"><ele>108.75</ele><time>2026-04-18T10:22:56.001Z</time></trkpt><trkpt lat="45.17107464166299" lon="8.564192178233432"><ele>109.5</ele><time>2026-04-18T10:22:57.001Z</time></trkpt><trkpt lat="45.170969283262004" lon="8.564144712041841"><ele>110.25</ele><time>2026-04-18T10:22:58.001Z</time></trkpt><trkpt lat="45.17085897862603" lon="8.564102740731995"><ele>111.0</ele><time>2026-04-18T10:22:59.001Z</time></trkpt><trkpt lat="45.170745671913636" lon="8.564060629061254"><ele>111.6</ele><time>2026-04-18T10:23:00.001Z</time></trkpt><trkpt lat="45.17063212081875" lon="8.564020338535137"><ele>112.19999999999999</ele><time>2026-04-18T10:23:01.001Z</time></trkpt><trkpt lat="45.170530702637684" lon="8.563974607094881"><ele>112.80000000000001</ele><time>2026-04-18T10:23:02.001Z</time></trkpt><trkpt lat="45.170437617143016" lon="8.563937114345473"><ele>113.4</ele><time>2026-04-18T10:23:03.001Z</time></trkpt><trkpt lat="45.170353823095844" lon="8.563904753064472"><ele>114.0</ele><time>2026-04-18T10:23:04.001Z</time></trkpt><trkpt lat="45.17027596473265" lon="8.563880795251881"><ele>114.0</ele><time>2026-04-18T10:23:05.002Z</time></trkpt><trkpt lat="45.17019710547441" lon="8.563848778697585"><ele>114.0</ele><time>2026-04-18T10:23:06.002Z</time></trkpt><trkpt lat="45.170118392008156" lon="8.563814792762447"><ele>114.0</ele><time>2026-04-18T10:23:07.002Z</time></trkpt><trkpt lat="45.170031528740395" lon="8.563785050389237"><ele>114.0</ele><time>2026-04-18T10:23:08.002Z</time></trkpt><trkpt lat="45.16993972300173" lon="8.563751913543959"><ele>114.0</ele><time>2026-04-18T10:23:09.002Z</time></trkpt><trkpt lat="45.1698442279249" lon="8.563721969195518"><ele>114.0</ele><time>2026-04-18T10:23:10.002Z</time></trkpt><trkpt lat="45.16974595907302" lon="8.563661114148507"><ele>113.5</ele><time>2026-04-18T10:23:11.002Z</time></trkpt><trkpt lat="45.16963659950427" lon="8.56361884357893"><ele>113.0</ele><time>2026-04-18T10:23:12.002Z</time></trkpt><trkpt lat="45.169530960749654" lon="8.56357650747586"><ele>112.5</ele><time>2026-04-18T10:23:13.002Z</time></trkpt><trkpt lat="45.16941694265969" lon="8.563530813249399"><ele>112.0</ele><time>2026-04-18T10:23:14.002Z</time></trkpt><trkpt lat="45.169293514940186" lon="8.563505282461826"><ele>112.0</ele><time>2026-04-18T10:23:15.002Z</time></trkpt><trkpt lat="45.16917414122984" lon="8.563449079988786"><ele>112.0</ele><time>2026-04-18T10:23:16.002Z</time></trkpt><trkpt lat="45.169051276723096" lon="8.563402123340547"><ele>112.0</ele><time>2026-04-18T10:23:17.002Z</time></trkpt><trkpt lat="45.16893616957492" lon="8.563355583953125"><ele>112.0</ele><time>2026-04-18T10:23:18.002Z</time></trkpt><trkpt lat="45.16882745958612" lon="8.563311578205914"><ele>111.8</ele><time>2026-04-18T10:23:19.002Z</time></trkpt><trkpt lat="45.1687286128382" lon="8.563272243409186"><ele>111.6</ele><time>2026-04-18T10:23:20.002Z</time></trkpt><trkpt lat="45.16862982354249" lon="8.56324068465375"><ele>111.39999999999999</ele><time>2026-04-18T10:23:21.002Z</time></trkpt><trkpt lat="45.168533274528684" lon="8.56320376864921"><ele>111.19999999999999</ele><time>2026-04-18T10:23:22.002Z</time></trkpt><trkpt lat="45.16845579574993" lon="8.563177962251588"><ele>111.0</ele><time>2026-04-18T10:23:23.002Z</time></trkpt><trkpt lat="45.16837826253436" lon="8.56314548339559"><ele>111.0</ele><time>2026-04-18T10:23:24.002Z</time></trkpt><trkpt lat="45.16830444113632" lon="8.563115728426945"><ele>111.0</ele><time>2026-04-18T10:23:25.002Z</time></trkpt><trkpt lat="45.16822984049436" lon="8.563068668867615"><ele>111.0</ele><time>2026-04-18T10:23:27.002Z</time></trkpt><trkpt lat="45.168133989948416" lon="8.563039143516775"><ele>111.0</ele><time>2026-04-18T10:23:30.002Z</time></trkpt><trkpt lat="45.16799963646408" lon="8.562978531052167"><ele>111.0</ele><time>2026-04-18T10:23:32.002Z</time></trkpt><trkpt lat="45.16789003606643" lon="8.562892310257652"><ele>110.33333333333333</ele><time>2026-04-18T10:23:34.002Z</time></trkpt><trkpt lat="45.16782627864635" lon="8.56285183982464"><ele>109.66666666666666</ele><time>2026-04-18T10:23:35.002Z</time></trkpt><trkpt lat="45.16776159479719" lon="8.562803172626346"><ele>109.0</ele><time>2026-04-18T10:23:36.002Z</time></trkpt><trkpt lat="45.16767839604001" lon="8.562761652836251"><ele>108.33333333333333</ele><time>2026-04-18T10:23:37.002Z</time></trkpt><trkpt lat="45.16759279062443" lon="8.562686864183446"><ele>107.66666666666666</ele><time>2026-04-18T10:23:38.003Z</time></trkpt><trkpt lat="45.167502957575614" lon="8.56261323625619"><ele>107.0</ele><time>2026-04-18T10:23:39.003Z</time></trkpt><trkpt lat="45.16741210119979" lon="8.562530515569286"><ele>106.19999999999999</ele><time>2026-04-18T10:23:40.003Z</time></trkpt><trkpt lat="45.16731505804914" lon="8.562441279716467"><ele>105.39999999999999</ele><time>2026-04-18T10:23:41.003Z</time></trkpt><trkpt lat="45.16722331665116" lon="8.562360645602297"><ele>104.6</ele><time>2026-04-18T10:23:42.003Z</time></trkpt><trkpt lat="45.16714054472299" lon="8.562284440757079"><ele>103.80000000000001</ele><time>2026-04-18T10:23:43.003Z</time></trkpt><trkpt lat="45.16705985115998" lon="8.562210974567813"><ele>103.0</ele><time>2026-04-18T10:23:44.003Z</time></trkpt><trkpt lat="45.16698154498417" lon="8.562141147497643"><ele>103.0</ele><time>2026-04-18T10:23:45.003Z</time></trkpt><trkpt lat="45.166901975397984" lon="8.56207066622445"><ele>103.0</ele><time>2026-04-18T10:23:46.003Z</time></trkpt><trkpt lat="45.16683409639724" lon="8.562009891244603"><ele>103.0</ele><time>2026-04-18T10:23:47.003Z</time></trkpt><trkpt lat="45.166775739296554" lon="8.56195726765236"><ele>103.0</ele><time>2026-04-18T10:23:48.003Z</time></trkpt><trkpt lat="45.16668045039394" lon="8.561849488029976"><ele>103.0</ele><time>2026-04-18T10:23:50.003Z</time></trkpt><trkpt lat="45.166580776927276" lon="8.56178347135523"><ele>104.16666666666667</ele><time>2026-04-18T10:23:52.003Z</time></trkpt><trkpt lat="45.166515725393715" lon="8.56171867647957"><ele>105.33333333333334</ele><time>2026-04-18T10:23:53.003Z</time></trkpt><trkpt lat="45.166433697617485" lon="8.56170118782334"><ele>106.5</ele><time>2026-04-18T10:23:54.003Z</time></trkpt><trkpt lat="45.16635468866894" lon="8.561685022456048"><ele>107.66666666666666</ele><time>2026-04-18T10:23:55.003Z</time></trkpt><trkpt lat="45.166262341368615" lon="8.561701715021007"><ele>108.83333333333333</ele><time>2026-04-18T10:23:56.003Z</time></trkpt><trkpt lat="45.16618261431289" lon="8.561690150655544"><ele>110.0</ele><time>2026-04-18T10:23:57.003Z</time></trkpt><trkpt lat="45.166110406731285" lon="8.561700087153723"><ele>110.0</ele><time>2026-04-18T10:23:58.003Z</time></trkpt><trkpt lat="45.16604808853356" lon="8.561732378166532"><ele>110.0</ele><time>2026-04-18T10:23:59.003Z</time></trkpt><trkpt lat="45.16593343719058" lon="8.561727559204177"><ele>110.0</ele><time>2026-04-18T10:24:01.003Z</time></trkpt><trkpt lat="45.1657997468293" lon="8.561771261112765"><ele>110.0</ele><time>2026-04-18T10:24:03.003Z</time></trkpt><trkpt lat="45.16571184059726" lon="8.561790235866521"><ele>110.0</ele><time>2026-04-18T10:24:04.003Z</time></trkpt><trkpt lat="45.16561285458174" lon="8.561810958331417"><ele>109.4</ele><time>2026-04-18T10:24:05.003Z</time></trkpt><trkpt lat="45.16552235758577" lon="8.561821868040017"><ele>108.8</ele><time>2026-04-18T10:24:06Z</time></trkpt><trkpt lat="45.165421500607444" lon="8.561845560441304"><ele>108.19999999999999</ele><time>2026-04-18T10:24:07Z</time></trkpt><trkpt lat="45.16531145634834" lon="8.561865862826"><ele>107.6</ele><time>2026-04-18T10:24:08Z</time></trkpt><trkpt lat="45.16520669301015" lon="8.561885627095673"><ele>107.0</ele><time>2026-04-18T10:24:09Z</time></trkpt><trkpt lat="45.165096065943494" lon="8.561907728037623"><ele>107.0</ele><time>2026-04-18T10:24:10Z</time></trkpt><trkpt lat="45.16498880538888" lon="8.561924209836763"><ele>107.0</ele><time>2026-04-18T10:24:11Z</time></trkpt><trkpt lat="45.16487123547993" lon="8.561943575407815"><ele>107.0</ele><time>2026-04-18T10:24:12Z</time></trkpt><trkpt lat="45.16475411810471" lon="8.561961504873542"><ele>107.0</ele><time>2026-04-18T10:24:13Z</time></trkpt><trkpt lat="45.164647370161624" lon="8.561974559857747"><ele>105.8</ele><time>2026-04-18T10:24:14Z</time></trkpt><trkpt lat="45.164539912924994" lon="8.561987128058673"><ele>104.6</ele><time>2026-04-18T10:24:15Z</time></trkpt><trkpt lat="45.16442218241238" lon="8.562001906900411"><ele>103.39999999999999</ele><time>2026-04-18T10:24:16Z</time></trkpt><trkpt lat="45.16431444672998" lon="8.562017594765088"><ele>102.19999999999999</ele><time>2026-04-18T10:24:17Z</time></trkpt><trkpt lat="45.16420769742103" lon="8.562038521613124"><ele>101.0</ele><time>2026-04-18T10:24:18Z</time></trkpt><trkpt lat="45.16410608942787" lon="8.56204757131749"><ele>100.99999999999999</ele><time>2026-04-18T10:24:19Z</time></trkpt><trkpt lat="45.16400396491133" lon="8.562068189106911"><ele>101.0</ele><time>2026-04-18T10:24:20Z</time></trkpt><trkpt lat="45.16391582769585" lon="8.562089039876692"><ele>101.0</ele><time>2026-04-18T10:24:21Z</time></trkpt><trkpt lat="45.163844074158106" lon="8.562105014285551"><ele>101.0</ele><time>2026-04-18T10:24:22Z</time></trkpt><trkpt lat="45.16376490196023" lon="8.562118647803599"><ele>100.99999999999999</ele><time>2026-04-18T10:24:23Z</time></trkpt><trkpt lat="45.1636937549761" lon="8.5621249136587"><ele>101.0</ele><time>2026-04-18T10:24:24Z</time></trkpt><trkpt lat="45.163620121500166" lon="8.562125040495317"><ele>100.99999999999999</ele><time>2026-04-18T10:24:25Z</time></trkpt><trkpt lat="45.16355020162187" lon="8.562091482703417"><ele>101.0</ele><time>2026-04-18T10:24:26Z</time></trkpt><trkpt lat="45.1634910764413" lon="8.562018041963709"><ele>101.0</ele><time>2026-04-18T10:24:27Z</time></trkpt><trkpt lat="45.16344688597163" lon="8.561917598464639"><ele>101.0</ele><time>2026-04-18T10:24:28Z</time></trkpt><trkpt lat="45.163404220032106" lon="8.561818914119371"><ele>100.99999999999999</ele><time>2026-04-18T10:24:29Z</time></trkpt><trkpt lat="45.16334246227218" lon="8.561711169311517"><ele>101.0</ele><time>2026-04-18T10:24:30Z</time></trkpt><trkpt lat="45.16326787752537" lon="8.561588911686115"><ele>101.0</ele><time>2026-04-18T10:24:31Z</time></trkpt><trkpt lat="45.16319851586746" lon="8.56147403336962"><ele>101.0</ele><time>2026-04-18T10:24:32Z</time></trkpt><trkpt lat="45.163115751639246" lon="8.56135373065416"><ele>101.0</ele><time>2026-04-18T10:24:33Z</time></trkpt><trkpt lat="45.163041838933545" lon="8.561229784145254"><ele>101.0</ele><time>2026-04-18T10:24:34Z</time></trkpt><trkpt lat="45.16297929714519" lon="8.561117695024803"><ele>101.0</ele><time>2026-04-18T10:24:35Z</time></trkpt><trkpt lat="45.16291122868661" lon="8.560997788983919"><ele>100.6</ele><time>2026-04-18T10:24:36Z</time></trkpt><trkpt lat="45.16284532292392" lon="8.560889577963065"><ele>100.19999999999999</ele><time>2026-04-18T10:24:37Z</time></trkpt><trkpt lat="45.162792324185546" lon="8.560755861881386"><ele>99.80000000000001</ele><time>2026-04-18T10:24:38.001Z</time></trkpt><trkpt lat="45.16272446374624" lon="8.56063346974127"><ele>99.4</ele><time>2026-04-18T10:24:39.001Z</time></trkpt><trkpt lat="45.16266205693496" lon="8.560524015931716"><ele>99.0</ele><time>2026-04-18T10:24:40.001Z</time></trkpt><trkpt lat="45.162601757719905" lon="8.560418793135177"><ele>99.16666666666667</ele><time>2026-04-18T10:24:41.001Z</time></trkpt><trkpt lat="45.16253883590395" lon="8.560341569236105"><ele>99.33333333333334</ele><time>2026-04-18T10:24:42.001Z</time></trkpt><trkpt lat="45.16249367686491" lon="8.560256438109716"><ele>99.5</ele><time>2026-04-18T10:24:43.001Z</time></trkpt><trkpt lat="45.16243838401643" lon="8.560166180883414"><ele>99.66666666666667</ele><time>2026-04-18T10:24:44.001Z</time></trkpt><trkpt lat="45.16239331819593" lon="8.560092494450588"><ele>99.83333333333334</ele><time>2026-04-18T10:24:45.001Z</time></trkpt><trkpt lat="45.162326467108294" lon="8.559954243342267"><ele>100.0</ele><time>2026-04-18T10:24:47.001Z</time></trkpt><trkpt lat="45.16228301178528" lon="8.559881132412762"><ele>100.25</ele><time>2026-04-18T10:24:48.001Z</time></trkpt><trkpt lat="45.16223790080193" lon="8.559803795280883"><ele>100.5</ele><time>2026-04-18T10:24:49.001Z</time></trkpt><trkpt lat="45.16218915333497" lon="8.55973324360611"><ele>100.75</ele><time>2026-04-18T10:24:50.001Z</time></trkpt><trkpt lat="45.162086458926595" lon="8.559467854419353"><ele>101.0</ele><time>2026-04-18T10:24:51.001Z</time></trkpt><trkpt lat="45.161982287892336" lon="8.559355126368093"><ele>101.66666666666666</ele><time>2026-04-18T10:24:52.001Z</time></trkpt><trkpt lat="45.16191694240779" lon="8.55929577508757"><ele>102.33333333333334</ele><time>2026-04-18T10:24:53.001Z</time></trkpt><trkpt lat="45.1618586135673" lon="8.559259020823816"><ele>103.0</ele><time>2026-04-18T10:24:54.001Z</time></trkpt><trkpt lat="45.161453283200736" lon="8.559778625271754"><ele>103.25</ele><time>2026-04-18T10:24:55.001Z</time></trkpt><trkpt lat="45.16139200443714" lon="8.559858761536075"><ele>103.5</ele><time>2026-04-18T10:24:56.001Z</time></trkpt><trkpt lat="45.16131733423958" lon="8.559943825779202"><ele>103.75</ele><time>2026-04-18T10:24:57.001Z</time></trkpt><trkpt lat="45.1613219760768" lon="8.560178282300823"><ele>104.0</ele><time>2026-04-18T10:24:58.001Z</time></trkpt><trkpt lat="45.16123088158242" lon="8.560283953265479"><ele>103.5</ele><time>2026-04-18T10:24:59.001Z</time></trkpt><trkpt lat="45.1611370031176" lon="8.560390931181827"><ele>103.0</ele><time>2026-04-18T10:25:00.001Z</time></trkpt><trkpt lat="45.161035002019425" lon="8.560505825029194"><ele>102.5</ele><time>2026-04-18T10:25:01.001Z</time></trkpt><trkpt lat="45.1609334578473" lon="8.560619758062437"><ele>102.0</ele><time>2026-04-18T10:25:02.001Z</time></trkpt><trkpt lat="45.160824715461956" lon="8.560742225946452"><ele>102.0</ele><time>2026-04-18T10:25:03.001Z</time></trkpt><trkpt lat="45.16071129489954" lon="8.560862388836487"><ele>102.0</ele><time>2026-04-18T10:25:04.001Z</time></trkpt><trkpt lat="45.160606180069024" lon="8.560974738269024"><ele>102.0</ele><time>2026-04-18T10:25:05.001Z</time></trkpt><trkpt lat="45.16051147129823" lon="8.561076948512977"><ele>102.0</ele><time>2026-04-18T10:25:06.001Z</time></trkpt><trkpt lat="45.16042823210051" lon="8.561163531538613"><ele>101.83333333333333</ele><time>2026-04-18T10:25:07.001Z</time></trkpt><trkpt lat="45.16035759905051" lon="8.561240976243099"><ele>101.66666666666666</ele><time>2026-04-18T10:25:08.001Z</time></trkpt><trkpt lat="45.160286234940244" lon="8.561316377151082"><ele>101.5</ele><time>2026-04-18T10:25:09.001Z</time></trkpt><trkpt lat="45.160215809836366" lon="8.561385091073367"><ele>101.33333333333333</ele><time>2026-04-18T10:25:10.001Z</time></trkpt><trkpt lat="45.160156218539846" lon="8.561449842587868"><ele>101.16666666666666</ele><time>2026-04-18T10:25:11.002Z</time></trkpt><trkpt lat="45.1601048468223" lon="8.561509260684552"><ele>101.0</ele><time>2026-04-18T10:25:12.002Z</time></trkpt><trkpt lat="45.16001733725748" lon="8.56160438194813"><ele>101.0</ele><time>2026-04-18T10:25:14.002Z</time></trkpt><trkpt lat="45.15995380499013" lon="8.561702139647597"><ele>101.0</ele><time>2026-04-18T10:25:16.002Z</time></trkpt><trkpt lat="45.15991994431355" lon="8.561799657595769"><ele>101.0</ele><time>2026-04-18T10:25:18.002Z</time></trkpt><trkpt lat="45.15990696226049" lon="8.561968020021267"><ele>101.0</ele><time>2026-04-18T10:25:20.002Z</time></trkpt><trkpt lat="45.15991463336076" lon="8.562085351837858"><ele>101.0</ele><time>2026-04-18T10:25:21.002Z</time></trkpt><trkpt lat="45.15992500716235" lon="8.56221484635679"><ele>100.8</ele><time>2026-04-18T10:25:22.002Z</time></trkpt><trkpt lat="45.1599297947621" lon="8.562358932895444"><ele>100.6</ele><time>2026-04-18T10:25:23.002Z</time></trkpt><trkpt lat="45.15993577265644" lon="8.562507483367684"><ele>100.4</ele><time>2026-04-18T10:25:24.002Z</time></trkpt><trkpt lat="45.15994755356889" lon="8.56267098498471"><ele>100.2</ele><time>2026-04-18T10:25:25.002Z</time></trkpt><trkpt lat="45.15995312982548" lon="8.562835793109985"><ele>100.0</ele><time>2026-04-18T10:25:26.002Z</time></trkpt><trkpt lat="45.159959126751296" lon="8.562989472495003"><ele>99.8</ele><time>2026-04-18T10:25:27.002Z</time></trkpt><trkpt lat="45.15996338954991" lon="8.563120958136869"><ele>99.6</ele><time>2026-04-18T10:25:28.002Z</time></trkpt><trkpt lat="45.159968644958" lon="8.56323747789626"><ele>99.4</ele><time>2026-04-18T10:25:29.002Z</time></trkpt><trkpt lat="45.159973975274184" lon="8.563370360167333"><ele>99.2</ele><time>2026-04-18T10:25:30.002Z</time></trkpt><trkpt lat="45.15998410869546" lon="8.563514669552326"><ele>99.0</ele><time>2026-04-18T10:25:31.002Z</time></trkpt><trkpt lat="45.15999797194235" lon="8.563660773823585"><ele>99.6</ele><time>2026-04-18T10:25:32.002Z</time></trkpt><trkpt lat="45.16000550123946" lon="8.56379008041865"><ele>100.2</ele><time>2026-04-18T10:25:33.002Z</time></trkpt><trkpt lat="45.160013164825095" lon="8.563940879205159"><ele>100.8</ele><time>2026-04-18T10:25:34.002Z</time></trkpt><trkpt lat="45.16002064941001" lon="8.56409827274591"><ele>101.39999999999999</ele><time>2026-04-18T10:25:35.002Z</time></trkpt><trkpt lat="45.160026656867586" lon="8.564265121537982"><ele>102.0</ele><time>2026-04-18T10:25:36.002Z</time></trkpt><trkpt lat="45.160030762917636" lon="8.564420274882176"><ele>102.16666666666667</ele><time>2026-04-18T10:25:37.002Z</time></trkpt><trkpt lat="45.16003561220692" lon="8.564559849153115"><ele>102.33333333333334</ele><time>2026-04-18T10:25:38.002Z</time></trkpt><trkpt lat="45.16004416918005" lon="8.564687655420897"><ele>102.5</ele><time>2026-04-18T10:25:39.002Z</time></trkpt><trkpt lat="45.16004979556251" lon="8.564789076071996"><ele>102.66666666666667</ele><time>2026-04-18T10:25:40.002Z</time></trkpt><trkpt lat="45.16005920585177" lon="8.564893012249252"><ele>102.83333333333334</ele><time>2026-04-18T10:25:41.002Z</time></trkpt><trkpt lat="45.16006725768545" lon="8.565007949579593"><ele>103.0</ele><time>2026-04-18T10:25:42.002Z</time></trkpt><trkpt lat="45.1600713169401" lon="8.565101630443065"><ele>103.0</ele><time>2026-04-18T10:25:43.002Z</time></trkpt><trkpt lat="45.16007709473825" lon="8.565255435946268"><ele>103.0</ele><time>2026-04-18T10:25:45.003Z</time></trkpt><trkpt lat="45.160073102135705" lon="8.565390283970435"><ele>103.0</ele><time>2026-04-18T10:25:47.003Z</time></trkpt><trkpt lat="45.16005569970397" lon="8.565530916485988"><ele>103.0</ele><time>2026-04-18T10:25:49.003Z</time></trkpt><trkpt lat="45.160047411355464" lon="8.56566049356738"><ele>103.0</ele><time>2026-04-18T10:25:51.003Z</time></trkpt><trkpt lat="45.160046068168775" lon="8.56579316241317"><ele>103.2</ele><time>2026-04-18T10:25:53.003Z</time></trkpt><trkpt lat="45.16011263995702" lon="8.565881777514155"><ele>103.4</ele><time>2026-04-18T10:25:55.003Z</time></trkpt><trkpt lat="45.16021505875463" lon="8.565925880242217"><ele>103.60000000000001</ele><time>2026-04-18T10:25:57.003Z</time></trkpt><trkpt lat="45.16029657096678" lon="8.566001865285244"><ele>103.80000000000001</ele><time>2026-04-18T10:25:59.003Z</time></trkpt><trkpt lat="45.160323431892444" lon="8.566125737757087"><ele>104.0</ele><time>2026-04-18T10:26:01.003Z</time></trkpt><trkpt lat="45.160318183909254" lon="8.566268778182296"><ele>103.71428571428571</ele><time>2026-04-18T10:26:03.003Z</time></trkpt><trkpt lat="45.160308508450264" lon="8.566362802518517"><ele>103.42857142857143</ele><time>2026-04-18T10:26:04.003Z</time></trkpt><trkpt lat="45.16029717179726" lon="8.566461664872913"><ele>103.14285714285714</ele><time>2026-04-18T10:26:05.003Z</time></trkpt><trkpt lat="45.160281728978475" lon="8.566569165674355"><ele>102.85714285714286</ele><time>2026-04-18T10:26:06.003Z</time></trkpt><trkpt lat="45.160267324288675" lon="8.566675548091538"><ele>102.57142857142858</ele><time>2026-04-18T10:26:07.003Z</time></trkpt><trkpt lat="45.16025153613553" lon="8.566782874349874"><ele>102.28571428571429</ele><time>2026-04-18T10:26:08.003Z</time></trkpt><trkpt lat="45.16024099008733" lon="8.566895501964026"><ele>102.0</ele><time>2026-04-18T10:26:09.003Z</time></trkpt><trkpt lat="45.160236775395106" lon="8.567013411202339"><ele>101.83333333333333</ele><time>2026-04-18T10:26:10.003Z</time></trkpt><trkpt lat="45.16023417123421" lon="8.567128112536237"><ele>101.66666666666666</ele><time>2026-04-18T10:26:11.003Z</time></trkpt><trkpt lat="45.160227677656174" lon="8.567245032251545"><ele>101.5</ele><time>2026-04-18T10:26:12Z</time></trkpt><trkpt lat="45.16021529816125" lon="8.567369117373918"><ele>101.33333333333333</ele><time>2026-04-18T10:26:13Z</time></trkpt><trkpt lat="45.1602028692352" lon="8.567481370412963"><ele>101.16666666666666</ele><time>2026-04-18T10:26:14Z</time></trkpt><trkpt lat="45.16019602341594" lon="8.567597176123988"><ele>101.0</ele><time>2026-04-18T10:26:15Z</time></trkpt><trkpt lat="45.16018504467526" lon="8.567733972527794"><ele>100.8</ele><time>2026-04-18T10:26:16Z</time></trkpt><trkpt lat="45.16017490997612" lon="8.567867591083832"><ele>100.6</ele><time>2026-04-18T10:26:17Z</time></trkpt><trkpt lat="45.160163892734" lon="8.568011586702033"><ele>100.4</ele><time>2026-04-18T10:26:18Z</time></trkpt><trkpt lat="45.16015805243348" lon="8.568139070251739"><ele>100.2</ele><time>2026-04-18T10:26:19Z</time></trkpt><trkpt lat="45.16015151258417" lon="8.568275003299052"><ele>100.0</ele><time>2026-04-18T10:26:20Z</time></trkpt><trkpt lat="45.160144828545846" lon="8.568417561311275"><ele>100.0</ele><time>2026-04-18T10:26:21Z</time></trkpt><trkpt lat="45.160139540002106" lon="8.568549528000615"><ele>100.0</ele><time>2026-04-18T10:26:22Z</time></trkpt><trkpt lat="45.160133599564205" lon="8.56869487565987"><ele>100.0</ele><time>2026-04-18T10:26:23Z</time></trkpt><trkpt lat="45.160127237349336" lon="8.568832468344516"><ele>100.0</ele><time>2026-04-18T10:26:24Z</time></trkpt><trkpt lat="45.160121252078916" lon="8.568967142838336"><ele>100.0</ele><time>2026-04-18T10:26:25Z</time></trkpt><trkpt lat="45.16011484585415" lon="8.569104797779529"><ele>100.0</ele><time>2026-04-18T10:26:26Z</time></trkpt><trkpt lat="45.16011255181525" lon="8.569231882458327"><ele>100.0</ele><time>2026-04-18T10:26:27Z</time></trkpt><trkpt lat="45.16010480220406" lon="8.569349704536297"><ele>100.0</ele><time>2026-04-18T10:26:28Z</time></trkpt><trkpt lat="45.16009717840082" lon="8.569485366495213"><ele>100.0</ele><time>2026-04-18T10:26:29Z</time></trkpt><trkpt lat="45.16008704593561" lon="8.569611910290254"><ele>100.0</ele><time>2026-04-18T10:26:30Z</time></trkpt><trkpt lat="45.16007987066759" lon="8.569749934388044"><ele>100.2</ele><time>2026-04-18T10:26:31Z</time></trkpt><trkpt lat="45.16007325463714" lon="8.569897937110802"><ele>100.4</ele><time>2026-04-18T10:26:32Z</time></trkpt><trkpt lat="45.1600649463609" lon="8.570051991287864"><ele>100.6</ele><time>2026-04-18T10:26:33Z</time></trkpt><trkpt lat="45.160052080253095" lon="8.57021064977454"><ele>100.8</ele><time>2026-04-18T10:26:34Z</time></trkpt><trkpt lat="45.16003846850122" lon="8.570373191175864"><ele>101.0</ele><time>2026-04-18T10:26:35Z</time></trkpt><trkpt lat="45.16001831340405" lon="8.57052355829713"><ele>101.0</ele><time>2026-04-18T10:26:36Z</time></trkpt><trkpt lat="45.160006646908656" lon="8.570667536743043"><ele>101.0</ele><time>2026-04-18T10:26:37Z</time></trkpt><trkpt lat="45.159999604085385" lon="8.570802657439113"><ele>101.0</ele><time>2026-04-18T10:26:38Z</time></trkpt><trkpt lat="45.15999034359963" lon="8.570936974148443"><ele>101.0</ele><time>2026-04-18T10:26:39Z</time></trkpt><trkpt lat="45.159983162634994" lon="8.571057397282647"><ele>101.0</ele><time>2026-04-18T10:26:40Z</time></trkpt><trkpt lat="45.15998050280588" lon="8.571199196488461"><ele>100.8</ele><time>2026-04-18T10:26:41Z</time></trkpt><trkpt lat="45.15997390889379" lon="8.571352301605469"><ele>100.6</ele><time>2026-04-18T10:26:42.001Z</time></trkpt><trkpt lat="45.159964994607996" lon="8.571500361819757"><ele>100.4</ele><time>2026-04-18T10:26:43.001Z</time></trkpt><trkpt lat="45.15995623125108" lon="8.571641587965292"><ele>100.2</ele><time>2026-04-18T10:26:44.001Z</time></trkpt><trkpt lat="45.15994850515986" lon="8.571768084050312"><ele>100.0</ele><time>2026-04-18T10:26:45.001Z</time></trkpt><trkpt lat="45.159940269685166" lon="8.571900177009752"><ele>99.8</ele><time>2026-04-18T10:26:46.001Z</time></trkpt><trkpt lat="45.159931519661534" lon="8.572034207658369"><ele>99.6</ele><time>2026-04-18T10:26:47.001Z</time></trkpt><trkpt lat="45.15991994618752" lon="8.572158896764728"><ele>99.4</ele><time>2026-04-18T10:26:48.001Z</time></trkpt><trkpt lat="45.15990872399385" lon="8.57230328408508"><ele>99.2</ele><time>2026-04-18T10:26:49.001Z</time></trkpt><trkpt lat="45.159904007810304" lon="8.57242035006366"><ele>99.0</ele><time>2026-04-18T10:26:50.001Z</time></trkpt><trkpt lat="45.15989232665754" lon="8.572592556395657"><ele>99.0</ele><time>2026-04-18T10:26:52.001Z</time></trkpt><trkpt lat="45.15987582614098" lon="8.572757922462426"><ele>99.0</ele><time>2026-04-18T10:26:54.001Z</time></trkpt><trkpt lat="45.159861549582274" lon="8.572914097407667"><ele>99.0</ele><time>2026-04-18T10:26:56.001Z</time></trkpt><trkpt lat="45.1598556485192" lon="8.573008039393912"><ele>99.0</ele><time>2026-04-18T10:26:57.001Z</time></trkpt><trkpt lat="45.15984410150895" lon="8.573101355117515"><ele>99.0</ele><time>2026-04-18T10:26:58.001Z</time></trkpt><trkpt lat="45.15980649704484" lon="8.573252870427572"><ele>98.75</ele><time>2026-04-18T10:27:00.001Z</time></trkpt><trkpt lat="45.159803585563424" lon="8.573378490556715"><ele>98.5</ele><time>2026-04-18T10:27:03.001Z</time></trkpt><trkpt lat="45.15977326916107" lon="8.573497975026592"><ele>98.25</ele><time>2026-04-18T10:27:04.001Z</time></trkpt><trkpt lat="45.15980618343675" lon="8.573684761857258"><ele>98.0</ele><time>2026-04-18T10:27:06.001Z</time></trkpt><trkpt lat="45.15986708501706" lon="8.573916600174117"><ele>99.66666666666666</ele><time>2026-04-18T10:27:08.001Z</time></trkpt><trkpt lat="45.15990391124437" lon="8.574018064875379"><ele>101.33333333333334</ele><time>2026-04-18T10:27:09.001Z</time></trkpt><trkpt lat="45.15993958302484" lon="8.574116348743463"><ele>103.0</ele><time>2026-04-18T10:27:10.001Z</time></trkpt><trkpt lat="45.16030013544327" lon="8.574327661555124"><ele>103.00000000000001</ele><time>2026-04-18T10:27:11.001Z</time></trkpt><trkpt lat="45.16039062579009" lon="8.574264240612393"><ele>103.0</ele><time>2026-04-18T10:27:13.001Z</time></trkpt><trkpt lat="45.16044947103442" lon="8.574325274819747"><ele>103.0</ele><time>2026-04-18T10:27:14.001Z</time></trkpt><trkpt lat="45.160502231506996" lon="8.574401608494044"><ele>103.0</ele><time>2026-04-18T10:27:15.001Z</time></trkpt><trkpt lat="45.16053825592455" lon="8.574497488274897"><ele>103.00000000000001</ele><time>2026-04-18T10:27:16.002Z</time></trkpt><trkpt lat="45.16056236571429" lon="8.574594711568952"><ele>103.0</ele><time>2026-04-18T10:27:17.002Z</time></trkpt><trkpt lat="45.16057375208013" lon="8.574685684281526"><ele>103.33333333333334</ele><time>2026-04-18T10:27:18.002Z</time></trkpt><trkpt lat="45.16058616066777" lon="8.574800005848351"><ele>103.66666666666667</ele><time>2026-04-18T10:27:19.002Z</time></trkpt><trkpt lat="45.1605850727608" lon="8.574922189053035"><ele>104.0</ele><time>2026-04-18T10:27:20.002Z</time></trkpt><trkpt lat="45.16059231692305" lon="8.575065404145025"><ele>104.33333333333334</ele><time>2026-04-18T10:27:21.002Z</time></trkpt><trkpt lat="45.16060349855282" lon="8.575179598989118"><ele>104.66666666666667</ele><time>2026-04-18T10:27:22.002Z</time></trkpt><trkpt lat="45.16061835201426" lon="8.575281260512286"><ele>105.0</ele><time>2026-04-18T10:27:23.002Z</time></trkpt><trkpt lat="45.16064592627005" lon="8.575407536426825"><ele>104.33333333333333</ele><time>2026-04-18T10:27:24.002Z</time></trkpt><trkpt lat="45.16067930389052" lon="8.575499690538976"><ele>103.66666666666666</ele><time>2026-04-18T10:27:25.002Z</time></trkpt><trkpt lat="45.1607426136675" lon="8.5755621746342"><ele>103.0</ele><time>2026-04-18T10:27:26.002Z</time></trkpt><trkpt lat="45.16080004679202" lon="8.57562326325151"><ele>102.33333333333333</ele><time>2026-04-18T10:27:27.002Z</time></trkpt><trkpt lat="45.16087558364941" lon="8.575732507022547"><ele>101.66666666666666</ele><time>2026-04-18T10:27:29.002Z</time></trkpt><trkpt lat="45.16093580226579" lon="8.575805649300376"><ele>101.0</ele><time>2026-04-18T10:27:31.002Z</time></trkpt><trkpt lat="45.16100227878947" lon="8.575803574109182"><ele>100.8</ele><time>2026-04-18T10:27:33.002Z</time></trkpt><trkpt lat="45.16113712800286" lon="8.575817403799103"><ele>100.6</ele><time>2026-04-18T10:27:35.002Z</time></trkpt><trkpt lat="45.161221885833136" lon="8.575822554125116"><ele>100.4</ele><time>2026-04-18T10:27:36.002Z</time></trkpt><trkpt lat="45.16131296394684" lon="8.57582442912724"><ele>100.2</ele><time>2026-04-18T10:27:37.002Z</time></trkpt><trkpt lat="45.161405621630415" lon="8.575821342113318"><ele>100.0</ele><time>2026-04-18T10:27:38.002Z</time></trkpt><trkpt lat="45.161513023975495" lon="8.575816268792842"><ele>99.8</ele><time>2026-04-18T10:27:39.002Z</time></trkpt><trkpt lat="45.161619665639904" lon="8.575812579395214"><ele>99.6</ele><time>2026-04-18T10:27:40.002Z</time></trkpt><trkpt lat="45.161727975374845" lon="8.57580883228744"><ele>99.4</ele><time>2026-04-18T10:27:41.002Z</time></trkpt><trkpt lat="45.16183963741531" lon="8.57580496920096"><ele>99.2</ele><time>2026-04-18T10:27:42.002Z</time></trkpt><trkpt lat="45.161953826035884" lon="8.57580101870652"><ele>99.0</ele><time>2026-04-18T10:27:43.002Z</time></trkpt><trkpt lat="45.1620617872891" lon="8.575797283652983"><ele>99.0</ele><time>2026-04-18T10:27:44.002Z</time></trkpt><trkpt lat="45.16217386627572" lon="8.575793406142786"><ele>99.0</ele><time>2026-04-18T10:27:45.002Z</time></trkpt><trkpt lat="45.162291267342205" lon="8.575789344510213"><ele>99.0</ele><time>2026-04-18T10:27:46.002Z</time></trkpt><trkpt lat="45.16241084128305" lon="8.57578520770192"><ele>99.0</ele><time>2026-04-18T10:27:47.002Z</time></trkpt><trkpt lat="45.16252770359173" lon="8.575781164706175"><ele>99.25</ele><time>2026-04-18T10:27:48.002Z</time></trkpt><trkpt lat="45.16264731946744" lon="8.575776553666094"><ele>99.5</ele><time>2026-04-18T10:27:49.002Z</time></trkpt><trkpt lat="45.16276078957915" lon="8.575771389509342"><ele>99.75</ele><time>2026-04-18T10:27:50.003Z</time></trkpt><trkpt lat="45.1628794524469" lon="8.575764583640849"><ele>100.0</ele><time>2026-04-18T10:27:51.003Z</time></trkpt><trkpt lat="45.162993867878704" lon="8.57573480829954"><ele>100.0</ele><time>2026-04-18T10:27:52.003Z</time></trkpt><trkpt lat="45.16311149037257" lon="8.575736313393458"><ele>100.0</ele><time>2026-04-18T10:27:53.003Z</time></trkpt><trkpt lat="45.16322754204876" lon="8.575724815618882"><ele>100.0</ele><time>2026-04-18T10:27:54.003Z</time></trkpt><trkpt lat="45.16334102065714" lon="8.575723870831231"><ele>100.0</ele><time>2026-04-18T10:27:55.003Z</time></trkpt><trkpt lat="45.16345989941754" lon="8.575724284936559"><ele>100.5</ele><time>2026-04-18T10:27:56.003Z</time></trkpt><trkpt lat="45.16357782707505" lon="8.575716085926272"><ele>101.0</ele><time>2026-04-18T10:27:57.003Z</time></trkpt><trkpt lat="45.163704247900235" lon="8.575711437257475"><ele>101.5</ele><time>2026-04-18T10:27:58.003Z</time></trkpt><trkpt lat="45.16382821855124" lon="8.575709211761797"><ele>102.0</ele><time>2026-04-18T10:27:59.003Z</time></trkpt><trkpt lat="45.16395034233503" lon="8.57572903006368"><ele>101.5</ele><time>2026-04-18T10:28:00.003Z</time></trkpt><trkpt lat="45.16407511918674" lon="8.575702638661596"><ele>101.0</ele><time>2026-04-18T10:28:01.003Z</time></trkpt><trkpt lat="45.16419297701529" lon="8.575697747861886"><ele>100.5</ele><time>2026-04-18T10:28:02.003Z</time></trkpt><trkpt lat="45.1643173651297" lon="8.575696533865651"><ele>100.0</ele><time>2026-04-18T10:28:03.003Z</time></trkpt><trkpt lat="45.164443616599655" lon="8.575692218890172"><ele>100.0</ele><time>2026-04-18T10:28:04.003Z</time></trkpt><trkpt lat="45.16457023505459" lon="8.575685757082413"><ele>100.0</ele><time>2026-04-18T10:28:05.003Z</time></trkpt><trkpt lat="45.164700825603674" lon="8.575678711934"><ele>100.0</ele><time>2026-04-18T10:28:06.003Z</time></trkpt><trkpt lat="45.1648302778304" lon="8.575677200140623"><ele>100.0</ele><time>2026-04-18T10:28:07.003Z</time></trkpt><trkpt lat="45.1649548403634" lon="8.575692360458468"><ele>99.75</ele><time>2026-04-18T10:28:08.003Z</time></trkpt><trkpt lat="45.16508033733039" lon="8.575691587973505"><ele>99.5</ele><time>2026-04-18T10:28:09.003Z</time></trkpt><trkpt lat="45.16519702715022" lon="8.575674104913054"><ele>99.25</ele><time>2026-04-18T10:28:10.003Z</time></trkpt><trkpt lat="45.16531534181534" lon="8.57566871640296"><ele>99.0</ele><time>2026-04-18T10:28:11.003Z</time></trkpt><trkpt lat="45.16542441422822" lon="8.575660903000223"><ele>99.0</ele><time>2026-04-18T10:28:12.003Z</time></trkpt><trkpt lat="45.16552686928656" lon="8.57566197342824"><ele>99.0</ele><time>2026-04-18T10:28:13.003Z</time></trkpt><trkpt lat="45.16562650293626" lon="8.575657589193842"><ele>99.0</ele><time>2026-04-18T10:28:14.003Z</time></trkpt><trkpt lat="45.16572957086224" lon="8.575651802738498"><ele>99.0</ele><time>2026-04-18T10:28:15.003Z</time></trkpt><trkpt lat="45.16582507215508" lon="8.5756504248813"><ele>99.0</ele><time>2026-04-18T10:28:16.003Z</time></trkpt><trkpt lat="45.165915859861144" lon="8.5756454461418"><ele>99.0</ele><time>2026-04-18T10:28:17.003Z</time></trkpt><trkpt lat="45.1659977560856" lon="8.575640946437506"><ele>99.0</ele><time>2026-04-18T10:28:18Z</time></trkpt><trkpt lat="45.166078665018" lon="8.575633380458578"><ele>99.0</ele><time>2026-04-18T10:28:19Z</time></trkpt><trkpt lat="45.166172538709034" lon="8.575632944837137"><ele>99.0</ele><time>2026-04-18T10:28:20Z</time></trkpt><trkpt lat="45.16626936909034" lon="8.575629406524577"><ele>99.0</ele><time>2026-04-18T10:28:21Z</time></trkpt><trkpt lat="45.16637073658201" lon="8.57562260727899"><ele>99.0</ele><time>2026-04-18T10:28:22Z</time></trkpt><trkpt lat="45.16647971241857" lon="8.575618808140392"><ele>99.0</ele><time>2026-04-18T10:28:23Z</time></trkpt><trkpt lat="45.16659502762143" lon="8.575616645200109"><ele>99.0</ele><time>2026-04-18T10:28:24Z</time></trkpt><trkpt lat="45.16671115908035" lon="8.575606956731262"><ele>99.0</ele><time>2026-04-18T10:28:25Z</time></trkpt><trkpt lat="45.166834246785726" lon="8.575626614858084"><ele>99.25</ele><time>2026-04-18T10:28:26Z</time></trkpt><trkpt lat="45.166956321739434" lon="8.575604185013091"><ele>99.5</ele><time>2026-04-18T10:28:27Z</time></trkpt><trkpt lat="45.167079020894576" lon="8.575605609482489"><ele>99.75</ele><time>2026-04-18T10:28:28Z</time></trkpt><trkpt lat="45.16720781454042" lon="8.57560179690429"><ele>100.0</ele><time>2026-04-18T10:28:29Z</time></trkpt><trkpt lat="45.167331642152085" lon="8.575600296999577"><ele>100.0</ele><time>2026-04-18T10:28:30Z</time></trkpt><trkpt lat="45.16746048358642" lon="8.575600913554076"><ele>100.0</ele><time>2026-04-18T10:28:31Z</time></trkpt><trkpt lat="45.167581848138596" lon="8.575611199736521"><ele>100.0</ele><time>2026-04-18T10:28:32Z</time></trkpt><trkpt lat="45.16771352738174" lon="8.575608510284201"><ele>100.0</ele><time>2026-04-18T10:28:33Z</time></trkpt><trkpt lat="45.16783871895415" lon="8.575604767386483"><ele>100.0</ele><time>2026-04-18T10:28:34Z</time></trkpt><trkpt lat="45.16796217251739" lon="8.57560046529155"><ele>100.0</ele><time>2026-04-18T10:28:35Z</time></trkpt><trkpt lat="45.168084979976875" lon="8.575573484572274"><ele>100.0</ele><time>2026-04-18T10:28:36Z</time></trkpt><trkpt lat="45.168206887867676" lon="8.575560958118993"><ele>100.0</ele><time>2026-04-18T10:28:37Z</time></trkpt><trkpt lat="45.168327479440904" lon="8.57554508952107"><ele>99.75</ele><time>2026-04-18T10:28:38Z</time></trkpt><trkpt lat="45.16844678206882" lon="8.575530802176756"><ele>99.5</ele><time>2026-04-18T10:28:39Z</time></trkpt><trkpt lat="45.16857200309061" lon="8.57552265023965"><ele>99.25</ele><time>2026-04-18T10:28:40Z</time></trkpt><trkpt lat="45.16869386452464" lon="8.575509844692245"><ele>99.0</ele><time>2026-04-18T10:28:41Z</time></trkpt><trkpt lat="45.16881702640856" lon="8.575498304972813"><ele>99.0</ele><time>2026-04-18T10:28:42Z</time></trkpt><trkpt lat="45.16894635563799" lon="8.575511859196185"><ele>99.0</ele><time>2026-04-18T10:28:43Z</time></trkpt><trkpt lat="45.16907844599269" lon="8.57550981997871"><ele>99.0</ele><time>2026-04-18T10:28:44Z</time></trkpt><trkpt lat="45.16921137132506" lon="8.575503989380648"><ele>99.0</ele><time>2026-04-18T10:28:45Z</time></trkpt><trkpt lat="45.169349491338714" lon="8.575496236884764"><ele>99.25</ele><time>2026-04-18T10:28:46Z</time></trkpt><trkpt lat="45.16948084568661" lon="8.57547661176596"><ele>99.5</ele><time>2026-04-18T10:28:47Z</time></trkpt><trkpt lat="45.169608451400066" lon="8.575463950715658"><ele>99.75</ele><time>2026-04-18T10:28:48Z</time></trkpt><trkpt lat="45.16972030185076" lon="8.575462562456519"><ele>100.0</ele><time>2026-04-18T10:28:49.001Z</time></trkpt><trkpt lat="45.16982334979355" lon="8.575458646696783"><ele>100.16666666666667</ele><time>2026-04-18T10:28:50.001Z</time></trkpt><trkpt lat="45.16991825619066" lon="8.575453132365546"><ele>100.33333333333334</ele><time>2026-04-18T10:28:51.001Z</time></trkpt><trkpt lat="45.170008508470524" lon="8.575451783311916"><ele>100.5</ele><time>2026-04-18T10:28:52.001Z</time></trkpt><trkpt lat="45.170087250359494" lon="8.575443059666826"><ele>100.66666666666666</ele><time>2026-04-18T10:28:53.001Z</time></trkpt><trkpt lat="45.17015964847918" lon="8.575416621966875"><ele>100.83333333333333</ele><time>2026-04-18T10:28:54.001Z</time></trkpt><trkpt lat="45.170235652924724" lon="8.575365534946174"><ele>101.0</ele><time>2026-04-18T10:28:55.001Z</time></trkpt><trkpt lat="45.17030451127555" lon="8.575288582700097"><ele>100.99999999999999</ele><time>2026-04-18T10:28:56.001Z</time></trkpt><trkpt lat="45.17036425650734" lon="8.575191750779096"><ele>101.0</ele><time>2026-04-18T10:28:57.001Z</time></trkpt><trkpt lat="45.17041495318496" lon="8.575081990463524"><ele>101.0</ele><time>2026-04-18T10:28:58.001Z</time></trkpt><trkpt lat="45.17045819488664" lon="8.574975715571128"><ele>101.0</ele><time>2026-04-18T10:28:59.001Z</time></trkpt><trkpt lat="45.170498645627276" lon="8.574884138015657"><ele>100.99999999999999</ele><time>2026-04-18T10:29:00.001Z</time></trkpt><trkpt lat="45.170538072210626" lon="8.574806809020167"><ele>101.0</ele><time>2026-04-18T10:29:01.001Z</time></trkpt><trkpt lat="45.17059591334072" lon="8.574665234245314"><ele>100.99999999999999</ele><time>2026-04-18T10:29:03.001Z</time></trkpt><trkpt lat="45.170647784859376" lon="8.574593824198232"><ele>101.0</ele><time>2026-04-18T10:29:05.001Z</time></trkpt><trkpt lat="45.17071065917988" lon="8.574466130084474"><ele>101.0</ele><time>2026-04-18T10:29:08.001Z</time></trkpt><trkpt lat="45.170750893298404" lon="8.57439469826742"><ele>101.0</ele><time>2026-04-18T10:29:09.001Z</time></trkpt><trkpt lat="45.17079113487298" lon="8.574323938491485"><ele>100.99999999999999</ele><time>2026-04-18T10:29:10.001Z</time></trkpt><trkpt lat="45.17083859546182" lon="8.574222649015502"><ele>101.0</ele><time>2026-04-18T10:29:12.001Z</time></trkpt><trkpt lat="45.170885614888135" lon="8.574129562439657"><ele>101.0</ele><time>2026-04-18T10:29:14.001Z</time></trkpt><trkpt lat="45.17093102225765" lon="8.574019260579226"><ele>101.0</ele><time>2026-04-18T10:29:16.001Z</time></trkpt><trkpt lat="45.17099451343593" lon="8.573863487371499"><ele>101.0</ele><time>2026-04-18T10:29:18.001Z</time></trkpt><trkpt lat="45.171038120726806" lon="8.573778564065474"><ele>101.0</ele><time>2026-04-18T10:29:19.001Z</time></trkpt><trkpt lat="45.17108223199149" lon="8.57368870044092"><ele>101.0</ele><time>2026-04-18T10:29:20.001Z</time></trkpt><trkpt lat="45.17113185891214" lon="8.57359310161701"><ele>101.19999999999999</ele><time>2026-04-18T10:29:21.001Z</time></trkpt><trkpt lat="45.1711833899436" lon="8.573487227105408"><ele>101.39999999999999</ele><time>2026-04-18T10:29:22.002Z</time></trkpt><trkpt lat="45.17123238707256" lon="8.573387833330388"><ele>101.6</ele><time>2026-04-18T10:29:23.002Z</time></trkpt><trkpt lat="45.171281233341084" lon="8.573275033149667"><ele>101.8</ele><time>2026-04-18T10:29:24.002Z</time></trkpt><trkpt lat="45.17133077044101" lon="8.573177276070124"><ele>102.0</ele><time>2026-04-18T10:29:25.002Z</time></trkpt><trkpt lat="45.171386009730206" lon="8.573061469517079"><ele>102.0</ele><time>2026-04-18T10:29:26.002Z</time></trkpt><trkpt lat="45.17145372413849" lon="8.572928837123634"><ele>102.0</ele><time>2026-04-18T10:29:27.002Z</time></trkpt><trkpt lat="45.17152185745639" lon="8.572789370357606"><ele>102.0</ele><time>2026-04-18T10:29:28.002Z</time></trkpt><trkpt lat="45.17159509811575" lon="8.572647527685456"><ele>102.0</ele><time>2026-04-18T10:29:29.002Z</time></trkpt><trkpt lat="45.17167408233033" lon="8.572505357625067"><ele>102.25</ele><time>2026-04-18T10:29:30.002Z</time></trkpt><trkpt lat="45.171753986725925" lon="8.572355513772669"><ele>102.5</ele><time>2026-04-18T10:29:31.002Z</time></trkpt><trkpt lat="45.1718394003176" lon="8.572204268209946"><ele>102.75</ele><time>2026-04-18T10:29:32.002Z</time></trkpt><trkpt lat="45.171948325667415" lon="8.572080027574282"><ele>103.0</ele><time>2026-04-18T10:29:33.002Z</time></trkpt><trkpt lat="45.17205325629332" lon="8.571947304898497"><ele>103.0</ele><time>2026-04-18T10:29:34.002Z</time></trkpt><trkpt lat="45.17216580635983" lon="8.571814241865214"><ele>103.0</ele><time>2026-04-18T10:29:35.002Z</time></trkpt><trkpt lat="45.172279988744066" lon="8.571683639803165"><ele>103.0</ele><time>2026-04-18T10:29:36.002Z</time></trkpt><trkpt lat="45.172396497831635" lon="8.571551725030538"><ele>103.0</ele><time>2026-04-18T10:29:37.002Z</time></trkpt><trkpt lat="45.17249244626443" lon="8.571412815369458"><ele>102.75</ele><time>2026-04-18T10:29:38.002Z</time></trkpt><trkpt lat="45.17259194798059" lon="8.571301509914564"><ele>102.5</ele><time>2026-04-18T10:29:39.002Z</time></trkpt><trkpt lat="45.17268200746722" lon="8.57120506118327"><ele>102.25</ele><time>2026-04-18T10:29:40.002Z</time></trkpt><trkpt lat="45.17278758412589" lon="8.571103835818086"><ele>102.0</ele><time>2026-04-18T10:29:41.002Z</time></trkpt><trkpt lat="45.172880153907016" lon="8.570973810758376"><ele>102.0</ele><time>2026-04-18T10:29:42.002Z</time></trkpt><trkpt lat="45.172967988071534" lon="8.570867805787106"><ele>102.0</ele><time>2026-04-18T10:29:43.002Z</time></trkpt><trkpt lat="45.1730494139987" lon="8.570790605331162"><ele>102.0</ele><time>2026-04-18T10:29:44.002Z</time></trkpt><trkpt lat="45.17311774144265" lon="8.57070268995634"><ele>102.0</ele><time>2026-04-18T10:29:45.002Z</time></trkpt><trkpt lat="45.17319050025958" lon="8.570630919499362"><ele>102.0</ele><time>2026-04-18T10:29:46.002Z</time></trkpt><trkpt lat="45.17326517361205" lon="8.570580200425537"><ele>101.6</ele><time>2026-04-18T10:29:47.002Z</time></trkpt><trkpt lat="45.17335995834633" lon="8.570579185645117"><ele>101.19999999999999</ele><time>2026-04-18T10:29:48.002Z</time></trkpt><trkpt lat="45.17345892623521" lon="8.570570339178344"><ele>100.8</ele><time>2026-04-18T10:29:49.002Z</time></trkpt><trkpt lat="45.173566242209674" lon="8.570540720130776"><ele>100.4</ele><time>2026-04-18T10:29:50.002Z</time></trkpt><trkpt lat="45.173677739809214" lon="8.570530953678622"><ele>100.0</ele><time>2026-04-18T10:29:51.002Z</time></trkpt><trkpt lat="45.173788575621415" lon="8.570523549955158"><ele>100.0</ele><time>2026-04-18T10:29:52.002Z</time></trkpt><trkpt lat="45.173888051023845" lon="8.570514877345653"><ele>100.0</ele><time>2026-04-18T10:29:53.002Z</time></trkpt><trkpt lat="45.17397206512707" lon="8.570498045596418"><ele>100.0</ele><time>2026-04-18T10:29:54.002Z</time></trkpt><trkpt lat="45.1740550263886" lon="8.57045471115358"><ele>100.0</ele><time>2026-04-18T10:29:55.003Z</time></trkpt><trkpt lat="45.1741458934376" lon="8.570376805281057"><ele>100.0</ele><time>2026-04-18T10:29:56.003Z</time></trkpt><trkpt lat="45.17423267910948" lon="8.570280313530716"><ele>99.75</ele><time>2026-04-18T10:29:57.003Z</time></trkpt><trkpt lat="45.1743400343572" lon="8.570156111916852"><ele>99.5</ele><time>2026-04-18T10:29:58.003Z</time></trkpt><trkpt lat="45.17445630066871" lon="8.570033506924107"><ele>99.25</ele><time>2026-04-18T10:29:59.003Z</time></trkpt><trkpt lat="45.17455639454471" lon="8.569927360100259"><ele>99.0</ele><time>2026-04-18T10:30:00.003Z</time></trkpt><trkpt lat="45.174643683991945" lon="8.569839895239106"><ele>99.0</ele><time>2026-04-18T10:30:01.003Z</time></trkpt><trkpt lat="45.17472549908123" lon="8.569753709060409"><ele>99.0</ele><time>2026-04-18T10:30:02.003Z</time></trkpt><trkpt lat="45.17479428926847" lon="8.569680522298553"><ele>99.0</ele><time>2026-04-18T10:30:03.003Z</time></trkpt><trkpt lat="45.17485244018197" lon="8.569620579086935"><ele>99.0</ele><time>2026-04-18T10:30:04.003Z</time></trkpt><trkpt lat="45.17490831388056" lon="8.56956876146069"><ele>99.0</ele><time>2026-04-18T10:30:05.003Z</time></trkpt><trkpt lat="45.174994757178226" lon="8.569484489529316"><ele>99.0</ele><time>2026-04-18T10:30:07.003Z</time></trkpt><trkpt lat="45.17507212490048" lon="8.569459672119777"><ele>99.0</ele><time>2026-04-18T10:30:10.003Z</time></trkpt><trkpt lat="45.17514270136042" lon="8.569442210228262"><ele>99.0</ele><time>2026-04-18T10:40:20.002Z</time></trkpt><trkpt lat="45.17517821596313" lon="8.569355453485135"><ele>99.0</ele><time>2026-04-18T10:40:23.002Z</time></trkpt><trkpt lat="45.175182386585455" lon="8.56925270533783"><ele>99.0</ele><time>2026-04-18T10:40:26.003Z</time></trkpt><trkpt lat="45.17517754899303" lon="8.569152196506408"><ele>99.0</ele><time>2026-04-18T10:40:47.003Z</time></trkpt><trkpt lat="45.17517426504946" lon="8.568973036715741"><ele>99.0</ele><time>2026-04-18T10:40:49.003Z</time></trkpt><trkpt lat="45.17517754343287" lon="8.568864395318444"><ele>99.0</ele><time>2026-04-18T10:40:50.003Z</time></trkpt><trkpt lat="45.17518014912714" lon="8.568740083787027"><ele>99.0</ele><time>2026-04-18T10:40:51.003Z</time></trkpt><trkpt lat="45.175183144517796" lon="8.568603658154212"><ele>99.0</ele><time>2026-04-18T10:40:52.003Z</time></trkpt><trkpt lat="45.17518554743362" lon="8.568457921440855"><ele>99.0</ele><time>2026-04-18T10:40:53.003Z</time></trkpt><trkpt lat="45.17518928671435" lon="8.568298851689315"><ele>99.0</ele><time>2026-04-18T10:40:54Z</time></trkpt><trkpt lat="45.17519308324201" lon="8.568132299373103"><ele>99.5</ele><time>2026-04-18T10:40:55Z</time></trkpt><trkpt lat="45.17519816775972" lon="8.567959229300028"><ele>100.0</ele><time>2026-04-18T10:40:56Z</time></trkpt><trkpt lat="45.17520407586125" lon="8.567777200654556"><ele>100.5</ele><time>2026-04-18T10:40:57Z</time></trkpt><trkpt lat="45.175208685721515" lon="8.567595160949885"><ele>101.0</ele><time>2026-04-18T10:40:58Z</time></trkpt><trkpt lat="45.175214030704254" lon="8.567406008155345"><ele>101.0</ele><time>2026-04-18T10:40:59Z</time></trkpt><trkpt lat="45.17521746174785" lon="8.567200771018321"><ele>101.0</ele><time>2026-04-18T10:41:00Z</time></trkpt><trkpt lat="45.17521754739475" lon="8.566985844256772"><ele>101.0</ele><time>2026-04-18T10:41:01Z</time></trkpt><trkpt lat="45.17521926789281" lon="8.56676596863241"><ele>101.33333333333333</ele><time>2026-04-18T10:41:02Z</time></trkpt><trkpt lat="45.175218910933886" lon="8.566543158437097"><ele>101.66666666666666</ele><time>2026-04-18T10:41:03Z</time></trkpt><trkpt lat="45.17522190115812" lon="8.566317360932702"><ele>102.0</ele><time>2026-04-18T10:41:04Z</time></trkpt><trkpt lat="45.17522253323496" lon="8.566089498307022"><ele>102.66666666666666</ele><time>2026-04-18T10:41:05Z</time></trkpt><trkpt lat="45.1752229232388" lon="8.56585753347996"><ele>103.33333333333333</ele><time>2026-04-18T10:41:06Z</time></trkpt><trkpt lat="45.17523132685987" lon="8.565634370642645"><ele>104.0</ele><time>2026-04-18T10:41:07Z</time></trkpt><trkpt lat="45.175237031927004" lon="8.565431723213464"><ele>104.66666666666666</ele><time>2026-04-18T10:41:08Z</time></trkpt><trkpt lat="45.17524081100548" lon="8.565182740274544"><ele>105.33333333333334</ele><time>2026-04-18T10:41:09Z</time></trkpt><trkpt lat="45.17523971339393" lon="8.564945274341026"><ele>106.0</ele><time>2026-04-18T10:41:10Z</time></trkpt><trkpt lat="45.17524253316968" lon="8.5647099285173"><ele>106.0</ele><time>2026-04-18T10:41:11Z</time></trkpt><trkpt lat="45.17524966479654" lon="8.5644739499672"><ele>106.0</ele><time>2026-04-18T10:41:12Z</time></trkpt><trkpt lat="45.17526171518077" lon="8.564234111749675"><ele>106.0</ele><time>2026-04-18T10:41:13Z</time></trkpt><trkpt lat="45.175276528443376" lon="8.56399807406415"><ele>106.0</ele><time>2026-04-18T10:41:14Z</time></trkpt><trkpt lat="45.175300607139036" lon="8.563770616317354"><ele>106.0</ele><time>2026-04-18T10:41:15Z</time></trkpt><trkpt lat="45.17533646950768" lon="8.563533692045985"><ele>106.0</ele><time>2026-04-18T10:41:16Z</time></trkpt><trkpt lat="45.17537473321318" lon="8.563302662597444"><ele>105.0</ele><time>2026-04-18T10:41:17Z</time></trkpt><trkpt lat="45.17541855988628" lon="8.563073284632683"><ele>104.0</ele><time>2026-04-18T10:41:18Z</time></trkpt><trkpt lat="45.17546499680977" lon="8.562841631369558"><ele>103.0</ele><time>2026-04-18T10:41:19Z</time></trkpt><trkpt lat="45.175514267372726" lon="8.562607084459943"><ele>103.0</ele><time>2026-04-18T10:41:20Z</time></trkpt><trkpt lat="45.17556087668194" lon="8.562375681168936"><ele>103.0</ele><time>2026-04-18T10:41:21Z</time></trkpt><trkpt lat="45.17560947837798" lon="8.562146918487532"><ele>103.0</ele><time>2026-04-18T10:41:22Z</time></trkpt><trkpt lat="45.17565587478002" lon="8.56191104585051"><ele>102.0</ele><time>2026-04-18T10:41:23Z</time></trkpt><trkpt lat="45.17570243000978" lon="8.561679258534681"><ele>101.0</ele><time>2026-04-18T10:41:24Z</time></trkpt><trkpt lat="45.17575203128345" lon="8.561442216817168"><ele>100.0</ele><time>2026-04-18T10:41:25Z</time></trkpt><trkpt lat="45.17580062823984" lon="8.561205781356962"><ele>100.0</ele><time>2026-04-18T10:41:26.001Z</time></trkpt><trkpt lat="45.1758486238968" lon="8.560966299835657"><ele>100.0</ele><time>2026-04-18T10:41:27.001Z</time></trkpt><trkpt lat="45.175895531093936" lon="8.560724121287913"><ele>100.0</ele><time>2026-04-18T10:41:28.001Z</time></trkpt><trkpt lat="45.17594401132518" lon="8.560475974891457"><ele>100.66666666666667</ele><time>2026-04-18T10:41:29.001Z</time></trkpt><trkpt lat="45.17599639550225" lon="8.560230241315836"><ele>101.33333333333334</ele><time>2026-04-18T10:41:30.001Z</time></trkpt><trkpt lat="45.1760436076523" lon="8.559984390754337"><ele>102.0</ele><time>2026-04-18T10:41:31.001Z</time></trkpt><trkpt lat="45.17609250823749" lon="8.559736212936404"><ele>102.33333333333334</ele><time>2026-04-18T10:41:32.001Z</time></trkpt><trkpt lat="45.17614307025127" lon="8.559485508072118"><ele>102.66666666666667</ele><time>2026-04-18T10:41:33.001Z</time></trkpt><trkpt lat="45.17619522337957" lon="8.559236525969839"><ele>103.0</ele><time>2026-04-18T10:41:34.001Z</time></trkpt><trkpt lat="45.176245927980546" lon="8.558986374815273"><ele>103.0</ele><time>2026-04-18T10:41:35.001Z</time></trkpt><trkpt lat="45.17629443254153" lon="8.558731787163799"><ele>103.0</ele><time>2026-04-18T10:41:36.001Z</time></trkpt><trkpt lat="45.17634169373287" lon="8.558485655075769"><ele>103.0</ele><time>2026-04-18T10:41:37.001Z</time></trkpt><trkpt lat="45.17639153968518" lon="8.558226757791402"><ele>103.0</ele><time>2026-04-18T10:41:38.001Z</time></trkpt><trkpt lat="45.17644823381464" lon="8.557956096495634"><ele>103.0</ele><time>2026-04-18T10:41:39.001Z</time></trkpt><trkpt lat="45.17650512904022" lon="8.557698931912634"><ele>103.0</ele><time>2026-04-18T10:41:40.001Z</time></trkpt><trkpt lat="45.176552239611055" lon="8.557460261260548"><ele>103.0</ele><time>2026-04-18T10:41:41.001Z</time></trkpt><trkpt lat="45.17659578668671" lon="8.55723454506791"><ele>103.0</ele><time>2026-04-18T10:41:42.001Z</time></trkpt><trkpt lat="45.176635491272414" lon="8.557022662149414"><ele>103.0</ele><time>2026-04-18T10:41:43.001Z</time></trkpt><trkpt lat="45.176677544981615" lon="8.556811171355742"><ele>102.66666666666667</ele><time>2026-04-18T10:41:44.001Z</time></trkpt><trkpt lat="45.17671989935825" lon="8.556600592290106"><ele>102.33333333333334</ele><time>2026-04-18T10:41:45.001Z</time></trkpt><trkpt lat="45.17676365154804" lon="8.55638761863066"><ele>102.0</ele><time>2026-04-18T10:41:46.001Z</time></trkpt><trkpt lat="45.17680026881439" lon="8.556171275969984"><ele>101.66666666666666</ele><time>2026-04-18T10:41:47.001Z</time></trkpt><trkpt lat="45.17681603814898" lon="8.555940095659004"><ele>101.33333333333333</ele><time>2026-04-18T10:41:48.001Z</time></trkpt><trkpt lat="45.17681880831046" lon="8.555695169620513"><ele>101.0</ele><time>2026-04-18T10:41:49.001Z</time></trkpt><trkpt lat="45.17681242174663" lon="8.555449417541835"><ele>101.33333333333333</ele><time>2026-04-18T10:41:50.001Z</time></trkpt><trkpt lat="45.17680224510061" lon="8.555200983259954"><ele>101.66666666666666</ele><time>2026-04-18T10:41:51.001Z</time></trkpt><trkpt lat="45.17677889317781" lon="8.55494269625149"><ele>102.0</ele><time>2026-04-18T10:41:52.001Z</time></trkpt><trkpt lat="45.1767380118801" lon="8.554682118733762"><ele>103.0</ele><time>2026-04-18T10:41:53.001Z</time></trkpt><trkpt lat="45.17667712716982" lon="8.554427230022403"><ele>104.0</ele><time>2026-04-18T10:41:54.001Z</time></trkpt><trkpt lat="45.17660822910078" lon="8.554179257009483"><ele>105.0</ele><time>2026-04-18T10:41:55.001Z</time></trkpt><trkpt lat="45.17652682065256" lon="8.553932300266284"><ele>104.66666666666666</ele><time>2026-04-18T10:41:56.001Z</time></trkpt><trkpt lat="45.17643989130804" lon="8.553689492821189"><ele>104.33333333333333</ele><time>2026-04-18T10:41:57.001Z</time></trkpt><trkpt lat="45.17634244063816" lon="8.55345471341696"><ele>104.0</ele><time>2026-04-18T10:41:58.001Z</time></trkpt><trkpt lat="45.176231340013274" lon="8.553232747002902"><ele>104.0</ele><time>2026-04-18T10:41:59.002Z</time></trkpt><trkpt lat="45.176113747167" lon="8.553013057358239"><ele>104.0</ele><time>2026-04-18T10:42:00.002Z</time></trkpt><trkpt lat="45.175995271269294" lon="8.552794422924098"><ele>104.0</ele><time>2026-04-18T10:42:01.002Z</time></trkpt><trkpt lat="45.17587392594406" lon="8.552571461129379"><ele>104.0</ele><time>2026-04-18T10:42:02.002Z</time></trkpt><trkpt lat="45.175757545321446" lon="8.5523624869352"><ele>104.0</ele><time>2026-04-18T10:42:03.002Z</time></trkpt><trkpt lat="45.17564687946251" lon="8.552167393139907"><ele>104.0</ele><time>2026-04-18T10:42:04.002Z</time></trkpt><trkpt lat="45.175537908528725" lon="8.551980094546177"><ele>101.0</ele><time>2026-04-18T10:42:05.002Z</time></trkpt><trkpt lat="45.175430011196724" lon="8.551776871714496"><ele>98.0</ele><time>2026-04-18T10:42:06.002Z</time></trkpt><trkpt lat="45.17532251558466" lon="8.551574826546812"><ele>95.0</ele><time>2026-04-18T10:42:07.002Z</time></trkpt><trkpt lat="45.17521500734732" lon="8.551368839067232"><ele>95.33333333333334</ele><time>2026-04-18T10:42:08.002Z</time></trkpt><trkpt lat="45.1751051888453" lon="8.551164644549125"><ele>95.66666666666667</ele><time>2026-04-18T10:42:09.002Z</time></trkpt><trkpt lat="45.17499550031195" lon="8.550963140925786"><ele>96.0</ele><time>2026-04-18T10:42:10.002Z</time></trkpt><trkpt lat="45.17488453870277" lon="8.550757738599186"><ele>96.66666666666666</ele><time>2026-04-18T10:42:11.002Z</time></trkpt><trkpt lat="45.17477764821789" lon="8.55056535339013"><ele>97.33333333333333</ele><time>2026-04-18T10:42:12.002Z</time></trkpt><trkpt lat="45.1746770681889" lon="8.550387573262782"><ele>98.0</ele><time>2026-04-18T10:42:13.002Z</time></trkpt><trkpt lat="45.17458198555075" lon="8.550218444844802"><ele>98.75</ele><time>2026-04-18T10:42:14.002Z</time></trkpt><trkpt lat="45.174498553138775" lon="8.5500566207823"><ele>99.5</ele><time>2026-04-18T10:42:15.002Z</time></trkpt><trkpt lat="45.17441856337624" lon="8.549903999258806"><ele>100.25</ele><time>2026-04-18T10:42:16.002Z</time></trkpt><trkpt lat="45.174336923708" lon="8.549761597152973"><ele>101.0</ele><time>2026-04-18T10:42:17.002Z</time></trkpt><trkpt lat="45.17426065681138" lon="8.549627345728625"><ele>101.25</ele><time>2026-04-18T10:42:18.002Z</time></trkpt><trkpt lat="45.174189321576776" lon="8.549499815854215"><ele>101.5</ele><time>2026-04-18T10:42:19.002Z</time></trkpt><trkpt lat="45.17410914569888" lon="8.549383234127909"><ele>101.75</ele><time>2026-04-18T10:42:20.002Z</time></trkpt><trkpt lat="45.17400877455407" lon="8.549271888510185"><ele>102.0</ele><time>2026-04-18T10:42:21.002Z</time></trkpt><trkpt lat="45.1738861861242" lon="8.54918209486788"><ele>102.33333333333334</ele><time>2026-04-18T10:42:22.002Z</time></trkpt><trkpt lat="45.17374556984934" lon="8.549123125370999"><ele>102.66666666666667</ele><time>2026-04-18T10:42:23.002Z</time></trkpt><trkpt lat="45.17359204009526" lon="8.549109779784553"><ele>103.0</ele><time>2026-04-18T10:42:24.002Z</time></trkpt><trkpt lat="45.173432535483244" lon="8.54913442988967"><ele>103.0</ele><time>2026-04-18T10:42:25.002Z</time></trkpt><trkpt lat="45.17327219513139" lon="8.549187376577464"><ele>103.0</ele><time>2026-04-18T10:42:26.002Z</time></trkpt><trkpt lat="45.17310956835575" lon="8.549256661080527"><ele>103.0</ele><time>2026-04-18T10:42:27.002Z</time></trkpt><trkpt lat="45.172946392642366" lon="8.54932395545667"><ele>102.66666666666667</ele><time>2026-04-18T10:42:28.002Z</time></trkpt><trkpt lat="45.17278102860628" lon="8.549389847465841"><ele>102.33333333333334</ele><time>2026-04-18T10:42:29.002Z</time></trkpt><trkpt lat="45.17260943662725" lon="8.549433838686388"><ele>102.0</ele><time>2026-04-18T10:42:30.002Z</time></trkpt><trkpt lat="45.17244006070653" lon="8.549496226301297"><ele>102.33333333333334</ele><time>2026-04-18T10:42:31.002Z</time></trkpt><trkpt lat="45.17226781820112" lon="8.549559669975114"><ele>102.66666666666667</ele><time>2026-04-18T10:42:32.003Z</time></trkpt><trkpt lat="45.172096802497514" lon="8.549640027951979"><ele>103.0</ele><time>2026-04-18T10:42:33.003Z</time></trkpt><trkpt lat="45.171923439301544" lon="8.549697188103002"><ele>103.0</ele><time>2026-04-18T10:42:34.003Z</time></trkpt><trkpt lat="45.17175039642423" lon="8.549759180950932"><ele>103.0</ele><time>2026-04-18T10:42:35.003Z</time></trkpt><trkpt lat="45.171588605395925" lon="8.549816026789948"><ele>103.0</ele><time>2026-04-18T10:42:36.003Z</time></trkpt><trkpt lat="45.17143587951702" lon="8.549865360027143"><ele>102.25</ele><time>2026-04-18T10:42:37.003Z</time></trkpt><trkpt lat="45.17129336150655" lon="8.549894747576312"><ele>101.5</ele><time>2026-04-18T10:42:38.003Z</time></trkpt><trkpt lat="45.1711460613434" lon="8.549905324224445"><ele>100.75</ele><time>2026-04-18T10:42:39.003Z</time></trkpt><trkpt lat="45.170994188512765" lon="8.549869392860163"><ele>100.0</ele><time>2026-04-18T10:42:40.003Z</time></trkpt><trkpt lat="45.17085215390215" lon="8.549767420776643"><ele>100.0</ele><time>2026-04-18T10:42:41.003Z</time></trkpt><trkpt lat="45.170713887036456" lon="8.549640343924326"><ele>100.0</ele><time>2026-04-18T10:42:42.003Z</time></trkpt><trkpt lat="45.17059770416296" lon="8.549460783934581"><ele>100.0</ele><time>2026-04-18T10:42:43.003Z</time></trkpt><trkpt lat="45.17051904774846" lon="8.549237393053449"><ele>100.33333333333334</ele><time>2026-04-18T10:42:44.003Z</time></trkpt><trkpt lat="45.17043386044041" lon="8.549024991281383"><ele>100.66666666666666</ele><time>2026-04-18T10:42:45.003Z</time></trkpt><trkpt lat="45.17037124216009" lon="8.548783126350537"><ele>101.0</ele><time>2026-04-18T10:42:46.003Z</time></trkpt><trkpt lat="45.17030463489513" lon="8.548544408217992"><ele>101.0</ele><time>2026-04-18T10:42:47.003Z</time></trkpt><trkpt lat="45.170233081779294" lon="8.548306663125535"><ele>101.0</ele><time>2026-04-18T10:42:48.003Z</time></trkpt><trkpt lat="45.17015775102274" lon="8.54807063930904"><ele>101.0</ele><time>2026-04-18T10:42:49.003Z</time></trkpt><trkpt lat="45.17008154914733" lon="8.547829119897733"><ele>100.66666666666666</ele><time>2026-04-18T10:42:50.003Z</time></trkpt><trkpt lat="45.17000611639982" lon="8.547584474353839"><ele>100.33333333333334</ele><time>2026-04-18T10:42:51.003Z</time></trkpt><trkpt lat="45.16992913246073" lon="8.547338300619941"><ele>100.0</ele><time>2026-04-18T10:42:52.003Z</time></trkpt><trkpt lat="45.16985419057651" lon="8.547087362938878"><ele>100.0</ele><time>2026-04-18T10:42:53.003Z</time></trkpt><trkpt lat="45.16978096962797" lon="8.54683421542805"><ele>100.0</ele><time>2026-04-18T10:42:54.003Z</time></trkpt><trkpt lat="45.169710639567455" lon="8.54658060739719"><ele>100.0</ele><time>2026-04-18T10:42:55.003Z</time></trkpt><trkpt lat="45.16964188337396" lon="8.546326084118546"><ele>100.33333333333334</ele><time>2026-04-18T10:42:56.003Z</time></trkpt><trkpt lat="45.16956997475786" lon="8.546075337820538"><ele>100.66666666666666</ele><time>2026-04-18T10:42:57.003Z</time></trkpt><trkpt lat="45.16949340816207" lon="8.54582625925215"><ele>101.0</ele><time>2026-04-18T10:42:58.003Z</time></trkpt><trkpt lat="45.16941502406083" lon="8.545575288373842"><ele>100.66666666666666</ele><time>2026-04-18T10:42:59.003Z</time></trkpt><trkpt lat="45.16934244400091" lon="8.545330068576737"><ele>100.33333333333334</ele><time>2026-04-18T10:43:00Z</time></trkpt><trkpt lat="45.1692676785521" lon="8.545082168924681"><ele>100.0</ele><time>2026-04-18T10:43:01Z</time></trkpt><trkpt lat="45.16919249166884" lon="8.544832760475837"><ele>100.0</ele><time>2026-04-18T10:43:02Z</time></trkpt><trkpt lat="45.16911713517638" lon="8.544583235911182"><ele>100.0</ele><time>2026-04-18T10:43:03Z</time></trkpt><trkpt lat="45.16904340447572" lon="8.54433203279628"><ele>100.0</ele><time>2026-04-18T10:43:04Z</time></trkpt><trkpt lat="45.168969283911274" lon="8.544080181757693"><ele>100.33333333333334</ele><time>2026-04-18T10:43:05Z</time></trkpt><trkpt lat="45.168890988743165" lon="8.543828204785425"><ele>100.66666666666666</ele><time>2026-04-18T10:43:06Z</time></trkpt><trkpt lat="45.16881312112062" lon="8.543577510288074"><ele>101.0</ele><time>2026-04-18T10:43:07Z</time></trkpt><trkpt lat="45.16873970418442" lon="8.543328887703813"><ele>101.0</ele><time>2026-04-18T10:43:08Z</time></trkpt><trkpt lat="45.16866625509028" lon="8.54307850208209"><ele>101.0</ele><time>2026-04-18T10:43:09Z</time></trkpt><trkpt lat="45.168590370723535" lon="8.542832739575882"><ele>101.0</ele><time>2026-04-18T10:43:10Z</time></trkpt><trkpt lat="45.16851273408708" lon="8.542582037817002"><ele>101.0</ele><time>2026-04-18T10:43:11Z</time></trkpt><trkpt lat="45.16843665496253" lon="8.542332306261684"><ele>101.0</ele><time>2026-04-18T10:43:12Z</time></trkpt><trkpt lat="45.16836147206877" lon="8.542082688705749"><ele>101.0</ele><time>2026-04-18T10:43:13Z</time></trkpt><trkpt lat="45.16828722809857" lon="8.5418328497748"><ele>101.0</ele><time>2026-04-18T10:43:14Z</time></trkpt><trkpt lat="45.16821743780912" lon="8.541592566413103"><ele>101.0</ele><time>2026-04-18T10:43:15Z</time></trkpt><trkpt lat="45.168146720639186" lon="8.541348319256562"><ele>101.0</ele><time>2026-04-18T10:43:16Z</time></trkpt><trkpt lat="45.16807625259637" lon="8.541099406587541"><ele>101.0</ele><time>2026-04-18T10:43:17Z</time></trkpt><trkpt lat="45.16800581200922" lon="8.54084730704226"><ele>101.0</ele><time>2026-04-18T10:43:18Z</time></trkpt><trkpt lat="45.16793238289774" lon="8.540593399853396"><ele>101.0</ele><time>2026-04-18T10:43:19Z</time></trkpt><trkpt lat="45.167855024909485" lon="8.540339118616556"><ele>101.0</ele><time>2026-04-18T10:43:20Z</time></trkpt><trkpt lat="45.16777761667402" lon="8.54008264851749"><ele>101.0</ele><time>2026-04-18T10:43:21Z</time></trkpt><trkpt lat="45.16769971323964" lon="8.539820726663141"><ele>101.0</ele><time>2026-04-18T10:43:22Z</time></trkpt><trkpt lat="45.167621359831536" lon="8.539561156090256"><ele>101.33333333333333</ele><time>2026-04-18T10:43:23Z</time></trkpt><trkpt lat="45.16754422546414" lon="8.539299645113635"><ele>101.66666666666666</ele><time>2026-04-18T10:43:24Z</time></trkpt><trkpt lat="45.16746607189062" lon="8.539031655951817"><ele>102.0</ele><time>2026-04-18T10:43:25Z</time></trkpt><trkpt lat="45.16738788570301" lon="8.538765329381354"><ele>101.66666666666666</ele><time>2026-04-18T10:43:26.001Z</time></trkpt><trkpt lat="45.16730877812837" lon="8.53850175534772"><ele>101.33333333333333</ele><time>2026-04-18T10:43:27.001Z</time></trkpt><trkpt lat="45.16722851993519" lon="8.538235665682626"><ele>101.0</ele><time>2026-04-18T10:43:28.001Z</time></trkpt><trkpt lat="45.16714654675368" lon="8.53796814300255"><ele>101.33333333333333</ele><time>2026-04-18T10:43:29.001Z</time></trkpt><trkpt lat="45.16706805580585" lon="8.53770247582146"><ele>101.66666666666666</ele><time>2026-04-18T10:43:30.001Z</time></trkpt><trkpt lat="45.166989483899776" lon="8.537436621872827"><ele>102.0</ele><time>2026-04-18T10:43:31.001Z</time></trkpt><trkpt lat="45.166909114327915" lon="8.537168935030984"><ele>101.66666666666666</ele><time>2026-04-18T10:43:32.001Z</time></trkpt><trkpt lat="45.166829252103355" lon="8.536903083801262"><ele>101.33333333333333</ele><time>2026-04-18T10:43:33.001Z</time></trkpt><trkpt lat="45.166748629249255" lon="8.53663662736408"><ele>101.0</ele><time>2026-04-18T10:43:34.001Z</time></trkpt><trkpt lat="45.16666889931361" lon="8.536368188614768"><ele>101.0</ele><time>2026-04-18T10:43:35.001Z</time></trkpt><trkpt lat="45.16658967995421" lon="8.536099599457728"><ele>101.0</ele><time>2026-04-18T10:43:36.001Z</time></trkpt><trkpt lat="45.16651099876657" lon="8.535832069788489"><ele>101.0</ele><time>2026-04-18T10:43:37.001Z</time></trkpt><trkpt lat="45.16643149919785" lon="8.535564731913158"><ele>101.0</ele><time>2026-04-18T10:43:38.001Z</time></trkpt><trkpt lat="45.166349723241815" lon="8.535294204872388"><ele>101.0</ele><time>2026-04-18T10:43:39.001Z</time></trkpt><trkpt lat="45.16627017028894" lon="8.535025835324925"><ele>101.0</ele><time>2026-04-18T10:43:40.001Z</time></trkpt><trkpt lat="45.16619053080976" lon="8.534754021019413"><ele>101.33333333333333</ele><time>2026-04-18T10:43:41.001Z</time></trkpt><trkpt lat="45.166112323063224" lon="8.534485804745954"><ele>101.66666666666666</ele><time>2026-04-18T10:43:42.001Z</time></trkpt><trkpt lat="45.16603349085049" lon="8.534217526948616"><ele>102.0</ele><time>2026-04-18T10:43:43.001Z</time></trkpt><trkpt lat="45.1659543701613" lon="8.5339496111304"><ele>102.33333333333334</ele><time>2026-04-18T10:43:44.001Z</time></trkpt><trkpt lat="45.16587107514323" lon="8.533679382851219"><ele>102.66666666666667</ele><time>2026-04-18T10:43:45.001Z</time></trkpt><trkpt lat="45.16578890065997" lon="8.533410988106619"><ele>103.0</ele><time>2026-04-18T10:43:46.001Z</time></trkpt><trkpt lat="45.165706186969835" lon="8.533142203056832"><ele>102.66666666666667</ele><time>2026-04-18T10:43:47.001Z</time></trkpt><trkpt lat="45.165623935324824" lon="8.53287297190043"><ele>102.33333333333334</ele><time>2026-04-18T10:43:48.001Z</time></trkpt><trkpt lat="45.1655437289534" lon="8.532602977039009"><ele>102.0</ele><time>2026-04-18T10:43:49.001Z</time></trkpt><trkpt lat="45.16546468848423" lon="8.532331157268882"><ele>102.0</ele><time>2026-04-18T10:43:50.001Z</time></trkpt><trkpt lat="45.16538662471651" lon="8.53206014527374"><ele>102.0</ele><time>2026-04-18T10:43:51.001Z</time></trkpt><trkpt lat="45.16530311416677" lon="8.531791150258353"><ele>102.0</ele><time>2026-04-18T10:43:52.001Z</time></trkpt><trkpt lat="45.16522196447842" lon="8.531518965968507"><ele>102.66666666666666</ele><time>2026-04-18T10:43:53.001Z</time></trkpt><trkpt lat="45.16514279439068" lon="8.53125217856402"><ele>103.33333333333333</ele><time>2026-04-18T10:43:54.001Z</time></trkpt><trkpt lat="45.16506367441154" lon="8.530988878773526"><ele>104.0</ele><time>2026-04-18T10:43:55.001Z</time></trkpt><trkpt lat="45.16498539346885" lon="8.530750544310907"><ele>104.0</ele><time>2026-04-18T10:43:56.001Z</time></trkpt><trkpt lat="45.16491685742727" lon="8.53052746785164"><ele>104.0</ele><time>2026-04-18T10:43:57.001Z</time></trkpt><trkpt lat="45.164851938543706" lon="8.530307797373187"><ele>104.0</ele><time>2026-04-18T10:43:58.001Z</time></trkpt><trkpt lat="45.164798446077455" lon="8.530101314545655"><ele>104.0</ele><time>2026-04-18T10:43:59.001Z</time></trkpt><trkpt lat="45.16474189863141" lon="8.529899947199835"><ele>104.0</ele><time>2026-04-18T10:44:00.002Z</time></trkpt><trkpt lat="45.16467988307549" lon="8.529685725513762"><ele>104.0</ele><time>2026-04-18T10:44:01.002Z</time></trkpt><trkpt lat="45.164615866848045" lon="8.529469869597905"><ele>104.0</ele><time>2026-04-18T10:44:02.002Z</time></trkpt><trkpt lat="45.16455894892432" lon="8.529269499955635"><ele>104.0</ele><time>2026-04-18T10:44:03.002Z</time></trkpt><trkpt lat="45.16450857993353" lon="8.529079238993065"><ele>104.0</ele><time>2026-04-18T10:44:04.002Z</time></trkpt><trkpt lat="45.16446775691493" lon="8.52889353544786"><ele>104.0</ele><time>2026-04-18T10:44:05.002Z</time></trkpt><trkpt lat="45.16443896479431" lon="8.528699359372967"><ele>104.33333333333333</ele><time>2026-04-18T10:44:06.002Z</time></trkpt><trkpt lat="45.164419364537764" lon="8.52849565158604"><ele>104.66666666666666</ele><time>2026-04-18T10:44:07.002Z</time></trkpt><trkpt lat="45.16440819601684" lon="8.528280494804944"><ele>105.0</ele><time>2026-04-18T10:44:08.002Z</time></trkpt><trkpt lat="45.16439353836427" lon="8.528061374584428"><ele>105.33333333333334</ele><time>2026-04-18T10:44:09.002Z</time></trkpt><trkpt lat="45.16437619692747" lon="8.527837281833705"><ele>105.66666666666667</ele><time>2026-04-18T10:44:10.002Z</time></trkpt><trkpt lat="45.16436133158441" lon="8.527610206228433"><ele>106.0</ele><time>2026-04-18T10:44:11.002Z</time></trkpt><trkpt lat="45.16434733839702" lon="8.527378907194182"><ele>106.0</ele><time>2026-04-18T10:44:12.002Z</time></trkpt><trkpt lat="45.16433109872384" lon="8.527143386131701"><ele>106.0</ele><time>2026-04-18T10:44:13.002Z</time></trkpt><trkpt lat="45.164310097082286" lon="8.526906618526885"><ele>106.0</ele><time>2026-04-18T10:44:14.002Z</time></trkpt><trkpt lat="45.164287839903494" lon="8.52666879870638"><ele>106.33333333333334</ele><time>2026-04-18T10:44:15.002Z</time></trkpt><trkpt lat="45.16426665342286" lon="8.526436073897518"><ele>106.66666666666666</ele><time>2026-04-18T10:44:16.002Z</time></trkpt><trkpt lat="45.164246662266635" lon="8.526195326641322"><ele>107.0</ele><time>2026-04-18T10:44:17.002Z</time></trkpt><trkpt lat="45.16422825121338" lon="8.525953577785973"><ele>106.66666666666666</ele><time>2026-04-18T10:44:18.002Z</time></trkpt><trkpt lat="45.16421520288274" lon="8.525721565110409"><ele>106.33333333333334</ele><time>2026-04-18T10:44:19.002Z</time></trkpt><trkpt lat="45.1641969722446" lon="8.525512366827073"><ele>106.0</ele><time>2026-04-18T10:44:20.002Z</time></trkpt><trkpt lat="45.16417900784229" lon="8.525307059071885"><ele>106.0</ele><time>2026-04-18T10:44:21.002Z</time></trkpt><trkpt lat="45.16415761928005" lon="8.525114383974925"><ele>106.0</ele><time>2026-04-18T10:44:22.002Z</time></trkpt><trkpt lat="45.16413427694049" lon="8.524911052930861"><ele>106.0</ele><time>2026-04-18T10:44:23.002Z</time></trkpt><trkpt lat="45.16411490023258" lon="8.524701330931272"><ele>106.0</ele><time>2026-04-18T10:44:24.002Z</time></trkpt><trkpt lat="45.16409777406784" lon="8.524490113317231"><ele>106.33333333333334</ele><time>2026-04-18T10:44:25.002Z</time></trkpt><trkpt lat="45.164072318553664" lon="8.524278903127724"><ele>106.66666666666666</ele><time>2026-04-18T10:44:26.002Z</time></trkpt><trkpt lat="45.164043581335086" lon="8.524068689019009"><ele>107.0</ele><time>2026-04-18T10:44:27.002Z</time></trkpt><trkpt lat="45.16400949467429" lon="8.523864045286174"><ele>107.0</ele><time>2026-04-18T10:44:28.002Z</time></trkpt><trkpt lat="45.16398132884519" lon="8.523649068251878"><ele>107.0</ele><time>2026-04-18T10:44:29.002Z</time></trkpt><trkpt lat="45.163957194759746" lon="8.52344206479085"><ele>107.0</ele><time>2026-04-18T10:44:30.002Z</time></trkpt><trkpt lat="45.16392819813806" lon="8.523233130697642"><ele>107.0</ele><time>2026-04-18T10:44:31.002Z</time></trkpt><trkpt lat="45.16390150465833" lon="8.52302267576453"><ele>107.0</ele><time>2026-04-18T10:44:32.002Z</time></trkpt><trkpt lat="45.16386900635538" lon="8.522812889028398"><ele>107.0</ele><time>2026-04-18T10:44:33.002Z</time></trkpt><trkpt lat="45.16384055525744" lon="8.522598886878267"><ele>107.0</ele><time>2026-04-18T10:44:34.002Z</time></trkpt><trkpt lat="45.16382144892825" lon="8.52238252382593"><ele>107.0</ele><time>2026-04-18T10:44:35.003Z</time></trkpt><trkpt lat="45.16380803579346" lon="8.522163792201903"><ele>107.0</ele><time>2026-04-18T10:44:36.003Z</time></trkpt><trkpt lat="45.16379486563061" lon="8.52194261380514"><ele>107.0</ele><time>2026-04-18T10:44:37.003Z</time></trkpt><trkpt lat="45.16378282251265" lon="8.521718133373689"><ele>107.0</ele><time>2026-04-18T10:44:38.003Z</time></trkpt><trkpt lat="45.163771614791" lon="8.521492429898297"><ele>107.0</ele><time>2026-04-18T10:44:39.003Z</time></trkpt><trkpt lat="45.16376312352399" lon="8.521267410741102"><ele>107.0</ele><time>2026-04-18T10:44:40.003Z</time></trkpt><trkpt lat="45.16375594160925" lon="8.521044174708399"><ele>107.0</ele><time>2026-04-18T10:44:41.003Z</time></trkpt><trkpt lat="45.16374468007784" lon="8.520818642077963"><ele>107.0</ele><time>2026-04-18T10:44:42.003Z</time></trkpt><trkpt lat="45.16373023119885" lon="8.52058637466863"><ele>106.0</ele><time>2026-04-18T10:44:43.003Z</time></trkpt><trkpt lat="45.16371735221791" lon="8.520356587224953"><ele>105.0</ele><time>2026-04-18T10:44:44.003Z</time></trkpt><trkpt lat="45.16370555336608" lon="8.520116384098493"><ele>104.0</ele><time>2026-04-18T10:44:45.003Z</time></trkpt><trkpt lat="45.16369145668737" lon="8.519879330498934"><ele>104.0</ele><time>2026-04-18T10:44:46.003Z</time></trkpt><trkpt lat="45.163676623136055" lon="8.51963855657418"><ele>104.0</ele><time>2026-04-18T10:44:47.003Z</time></trkpt><trkpt lat="45.16366759699574" lon="8.519393037364058"><ele>104.0</ele><time>2026-04-18T10:44:48.003Z</time></trkpt><trkpt lat="45.163656120059" lon="8.519143747645368"><ele>104.0</ele><time>2026-04-18T10:44:49.003Z</time></trkpt><trkpt lat="45.163643258727035" lon="8.518894126219998"><ele>104.0</ele><time>2026-04-18T10:44:50.003Z</time></trkpt><trkpt lat="45.16363096355454" lon="8.518643938880958"><ele>104.0</ele><time>2026-04-18T10:44:51.003Z</time></trkpt><trkpt lat="45.163619333211116" lon="8.51839254225135"><ele>104.0</ele><time>2026-04-18T10:44:52.003Z</time></trkpt><trkpt lat="45.16360702717222" lon="8.518141274509757"><ele>104.0</ele><time>2026-04-18T10:44:53.003Z</time></trkpt><trkpt lat="45.163594218377696" lon="8.51788410270158"><ele>104.0</ele><time>2026-04-18T10:44:54.003Z</time></trkpt><trkpt lat="45.16358224809371" lon="8.517629044051823"><ele>104.0</ele><time>2026-04-18T10:44:55.003Z</time></trkpt><trkpt lat="45.16357095107291" lon="8.517376533963652"><ele>104.0</ele><time>2026-04-18T10:44:56.003Z</time></trkpt><trkpt lat="45.1635599415807" lon="8.517124687794395"><ele>104.0</ele><time>2026-04-18T10:44:57.003Z</time></trkpt><trkpt lat="45.16354898225845" lon="8.51686881554794"><ele>104.0</ele><time>2026-04-18T10:44:58.003Z</time></trkpt><trkpt lat="45.16353822883927" lon="8.516614584626085"><ele>104.0</ele><time>2026-04-18T10:44:59.003Z</time></trkpt><trkpt lat="45.1635257397742" lon="8.51636121802237"><ele>104.0</ele><time>2026-04-18T10:45:00.003Z</time></trkpt><trkpt lat="45.1635087746935" lon="8.516104499067335"><ele>104.33333333333333</ele><time>2026-04-18T10:45:01.003Z</time></trkpt><trkpt lat="45.16349095798854" lon="8.515848725288482"><ele>104.66666666666666</ele><time>2026-04-18T10:45:02.003Z</time></trkpt><trkpt lat="45.16347616495032" lon="8.515592864631994"><ele>105.0</ele><time>2026-04-18T10:45:03.003Z</time></trkpt><trkpt lat="45.163463014332144" lon="8.515331655872687"><ele>104.33333333333334</ele><time>2026-04-18T10:45:04.003Z</time></trkpt><trkpt lat="45.16345200717099" lon="8.515071619253666"><ele>103.66666666666667</ele><time>2026-04-18T10:45:05.003Z</time></trkpt><trkpt lat="45.16343940639945" lon="8.514811069141913"><ele>103.0</ele><time>2026-04-18T10:45:06.001Z</time></trkpt><trkpt lat="45.16342796593407" lon="8.514552062162476"><ele>103.0</ele><time>2026-04-18T10:45:07.001Z</time></trkpt><trkpt lat="45.16341655270022" lon="8.514287821652436"><ele>103.0</ele><time>2026-04-18T10:45:08.001Z</time></trkpt><trkpt lat="45.163403810713106" lon="8.514025154077727"><ele>103.0</ele><time>2026-04-18T10:45:09.001Z</time></trkpt><trkpt lat="45.16338932717877" lon="8.51376420927537"><ele>103.66666666666667</ele><time>2026-04-18T10:45:10.001Z</time></trkpt><trkpt lat="45.16337270053656" lon="8.513504074682935"><ele>104.33333333333334</ele><time>2026-04-18T10:45:11.001Z</time></trkpt><trkpt lat="45.16335760878525" lon="8.51323918373664"><ele>105.0</ele><time>2026-04-18T10:45:12.001Z</time></trkpt><trkpt lat="45.16334350210391" lon="8.512977826009793"><ele>105.33333333333334</ele><time>2026-04-18T10:45:13.001Z</time></trkpt><trkpt lat="45.16332935684314" lon="8.512709536687437"><ele>105.66666666666667</ele><time>2026-04-18T10:45:14.001Z</time></trkpt><trkpt lat="45.16331718742218" lon="8.512442850335034"><ele>106.0</ele><time>2026-04-18T10:45:15.001Z</time></trkpt><trkpt lat="45.16330623206333" lon="8.512181181099404"><ele>105.66666666666667</ele><time>2026-04-18T10:45:16Z</time></trkpt><trkpt lat="45.163293024976134" lon="8.511914876547284"><ele>105.33333333333334</ele><time>2026-04-18T10:45:17Z</time></trkpt><trkpt lat="45.163278753971326" lon="8.511645344247427"><ele>105.0</ele><time>2026-04-18T10:45:18Z</time></trkpt><trkpt lat="45.16326621241571" lon="8.511379886483205"><ele>104.66666666666666</ele><time>2026-04-18T10:45:19Z</time></trkpt><trkpt lat="45.16325274518762" lon="8.511114726721521"><ele>104.33333333333333</ele><time>2026-04-18T10:45:20Z</time></trkpt><trkpt lat="45.16323908948022" lon="8.51084920021947"><ele>104.0</ele><time>2026-04-18T10:45:21Z</time></trkpt><trkpt lat="45.16322416800263" lon="8.510582486186378"><ele>104.0</ele><time>2026-04-18T10:45:22Z</time></trkpt><trkpt lat="45.163209680404044" lon="8.510313856732422"><ele>104.0</ele><time>2026-04-18T10:45:23Z</time></trkpt><trkpt lat="45.16319749444917" lon="8.510046753400214"><ele>104.0</ele><time>2026-04-18T10:45:24Z</time></trkpt><trkpt lat="45.163185719241326" lon="8.509777339140422"><ele>103.66666666666666</ele><time>2026-04-18T10:45:25Z</time></trkpt><trkpt lat="45.1631741603981" lon="8.509511730188997"><ele>103.33333333333334</ele><time>2026-04-18T10:45:26Z</time></trkpt><trkpt lat="45.16315910109555" lon="8.509243319665787"><ele>103.0</ele><time>2026-04-18T10:45:27Z</time></trkpt><trkpt lat="45.1631451081191" lon="8.508978700892817"><ele>103.0</ele><time>2026-04-18T10:45:28Z</time></trkpt><trkpt lat="45.16312857972844" lon="8.508709958448096"><ele>103.0</ele><time>2026-04-18T10:45:29Z</time></trkpt><trkpt lat="45.16311295944172" lon="8.508444105686229"><ele>103.0</ele><time>2026-04-18T10:45:30Z</time></trkpt><trkpt lat="45.16309935950752" lon="8.50818204852341"><ele>103.0</ele><time>2026-04-18T10:45:31Z</time></trkpt><trkpt lat="45.16308188843454" lon="8.507911062906379"><ele>103.0</ele><time>2026-04-18T10:45:32Z</time></trkpt><trkpt lat="45.163068189796554" lon="8.507645135684408"><ele>103.0</ele><time>2026-04-18T10:45:33Z</time></trkpt><trkpt lat="45.16305585855707" lon="8.50738281796914"><ele>103.33333333333334</ele><time>2026-04-18T10:45:34Z</time></trkpt><trkpt lat="45.163042338291994" lon="8.507119680164061"><ele>103.66666666666666</ele><time>2026-04-18T10:45:35Z</time></trkpt><trkpt lat="45.163026271360295" lon="8.506849772105117"><ele>104.0</ele><time>2026-04-18T10:45:36Z</time></trkpt><trkpt lat="45.16301652321823" lon="8.50658344467477"><ele>104.0</ele><time>2026-04-18T10:45:37Z</time></trkpt><trkpt lat="45.163005476406425" lon="8.506320112755787"><ele>104.0</ele><time>2026-04-18T10:45:38Z</time></trkpt><trkpt lat="45.16299092958416" lon="8.506054550244148"><ele>104.0</ele><time>2026-04-18T10:45:39Z</time></trkpt><trkpt lat="45.162974788434866" lon="8.50578425416771"><ele>104.0</ele><time>2026-04-18T10:45:40Z</time></trkpt><trkpt lat="45.16296069150349" lon="8.505517871993117"><ele>104.0</ele><time>2026-04-18T10:45:41.001Z</time></trkpt><trkpt lat="45.16294894249679" lon="8.505254022286422"><ele>104.0</ele><time>2026-04-18T10:45:42.001Z</time></trkpt><trkpt lat="45.162936120981634" lon="8.504987386434468"><ele>104.0</ele><time>2026-04-18T10:45:43.001Z</time></trkpt><trkpt lat="45.16292269128188" lon="8.504718080249784"><ele>104.0</ele><time>2026-04-18T10:45:44.001Z</time></trkpt><trkpt lat="45.162908208564595" lon="8.504449330551301"><ele>104.0</ele><time>2026-04-18T10:45:45.001Z</time></trkpt><trkpt lat="45.162893543265426" lon="8.504182898454982"><ele>104.33333333333333</ele><time>2026-04-18T10:45:46.001Z</time></trkpt><trkpt lat="45.162879099399554" lon="8.503917129717525"><ele>104.66666666666666</ele><time>2026-04-18T10:45:47.001Z</time></trkpt><trkpt lat="45.162863872555235" lon="8.503650079607786"><ele>105.0</ele><time>2026-04-18T10:45:48.001Z</time></trkpt><trkpt lat="45.162850306821234" lon="8.503382786642433"><ele>104.66666666666666</ele><time>2026-04-18T10:45:49.001Z</time></trkpt><trkpt lat="45.162835695690184" lon="8.503114155788937"><ele>104.33333333333333</ele><time>2026-04-18T10:45:50.001Z</time></trkpt><trkpt lat="45.16282479574528" lon="8.502845772607117"><ele>104.0</ele><time>2026-04-18T10:45:51.001Z</time></trkpt><trkpt lat="45.16281487488962" lon="8.50257819078756"><ele>104.0</ele><time>2026-04-18T10:45:52.001Z</time></trkpt><trkpt lat="45.162800559717766" lon="8.502307224021987"><ele>104.0</ele><time>2026-04-18T10:45:53.001Z</time></trkpt><trkpt lat="45.16278521330821" lon="8.50203995334411"><ele>104.0</ele><time>2026-04-18T10:45:54.001Z</time></trkpt><trkpt lat="45.16276868286976" lon="8.5017736555567"><ele>104.33333333333333</ele><time>2026-04-18T10:45:55.001Z</time></trkpt><trkpt lat="45.16275080886372" lon="8.501500895926826"><ele>104.66666666666666</ele><time>2026-04-18T10:45:56.001Z</time></trkpt><trkpt lat="45.162735851831854" lon="8.501230687405064"><ele>105.0</ele><time>2026-04-18T10:45:57.001Z</time></trkpt><trkpt lat="45.16272053267785" lon="8.500957127891144"><ele>105.33333333333334</ele><time>2026-04-18T10:45:58.001Z</time></trkpt><trkpt lat="45.16270652052764" lon="8.50068322497924"><ele>105.66666666666667</ele><time>2026-04-18T10:45:59.001Z</time></trkpt><trkpt lat="45.16269420477467" lon="8.500409360269852"><ele>106.0</ele><time>2026-04-18T10:46:00.001Z</time></trkpt><trkpt lat="45.16268240258897" lon="8.500137138724625"><ele>106.0</ele><time>2026-04-18T10:46:01.001Z</time></trkpt><trkpt lat="45.16266884589326" lon="8.499859844456443"><ele>106.0</ele><time>2026-04-18T10:46:02.001Z</time></trkpt><trkpt lat="45.16265740288696" lon="8.49958428088766"><ele>106.0</ele><time>2026-04-18T10:46:03.001Z</time></trkpt><trkpt lat="45.16264485429023" lon="8.499313238164362"><ele>105.66666666666667</ele><time>2026-04-18T10:46:04.001Z</time></trkpt><trkpt lat="45.16262845367195" lon="8.499040369144392"><ele>105.33333333333334</ele><time>2026-04-18T10:46:05.001Z</time></trkpt><trkpt lat="45.1626105623352" lon="8.498766662464343"><ele>105.0</ele><time>2026-04-18T10:46:06.001Z</time></trkpt><trkpt lat="45.16259720429688" lon="8.498497317360503"><ele>104.66666666666666</ele><time>2026-04-18T10:46:07.001Z</time></trkpt><trkpt lat="45.16258388053057" lon="8.4982278445353"><ele>104.33333333333333</ele><time>2026-04-18T10:46:08.001Z</time></trkpt><trkpt lat="45.16257102601258" lon="8.497962951859767"><ele>104.0</ele><time>2026-04-18T10:46:09.001Z</time></trkpt><trkpt lat="45.162554209081236" lon="8.497694768446474"><ele>104.0</ele><time>2026-04-18T10:46:10.001Z</time></trkpt><trkpt lat="45.1625379120459" lon="8.497429042288323"><ele>104.0</ele><time>2026-04-18T10:46:11.001Z</time></trkpt><trkpt lat="45.162523695476914" lon="8.497163453886913"><ele>104.0</ele><time>2026-04-18T10:46:12.001Z</time></trkpt><trkpt lat="45.16251276421999" lon="8.49689875835586"><ele>104.33333333333333</ele><time>2026-04-18T10:46:13.001Z</time></trkpt><trkpt lat="45.16250194376761" lon="8.496629748370191"><ele>104.66666666666666</ele><time>2026-04-18T10:46:14.001Z</time></trkpt><trkpt lat="45.162491377386885" lon="8.49636300041645"><ele>105.0</ele><time>2026-04-18T10:46:15.001Z</time></trkpt><trkpt lat="45.162475759890455" lon="8.496093460664246"><ele>105.0</ele><time>2026-04-18T10:46:16.001Z</time></trkpt><trkpt lat="45.16245916635802" lon="8.495822689693577"><ele>105.0</ele><time>2026-04-18T10:46:17.001Z</time></trkpt><trkpt lat="45.162444224485824" lon="8.49555179374306"><ele>105.0</ele><time>2026-04-18T10:46:18.001Z</time></trkpt><trkpt lat="45.162430201250146" lon="8.495278972514374"><ele>105.0</ele><time>2026-04-18T10:46:19.001Z</time></trkpt><trkpt lat="45.162418617146315" lon="8.495006517663793"><ele>105.0</ele><time>2026-04-18T10:46:20.001Z</time></trkpt><trkpt lat="45.1624072640008" lon="8.494733050765303"><ele>105.0</ele><time>2026-04-18T10:46:21.001Z</time></trkpt><trkpt lat="45.16239368663881" lon="8.494459509180349"><ele>105.0</ele><time>2026-04-18T10:46:22.001Z</time></trkpt><trkpt lat="45.162376561456846" lon="8.494182533697861"><ele>105.0</ele><time>2026-04-18T10:46:23.001Z</time></trkpt><trkpt lat="45.16235878244727" lon="8.493907474355558"><ele>105.0</ele><time>2026-04-18T10:46:24.001Z</time></trkpt><trkpt lat="45.16234124255352" lon="8.493631649251302"><ele>105.0</ele><time>2026-04-18T10:46:25.001Z</time></trkpt><trkpt lat="45.16232563005344" lon="8.493357536897642"><ele>105.0</ele><time>2026-04-18T10:46:26.001Z</time></trkpt><trkpt lat="45.16231047358678" lon="8.493077950253992"><ele>105.0</ele><time>2026-04-18T10:46:27.001Z</time></trkpt><trkpt lat="45.16229830755084" lon="8.492799084497662"><ele>105.0</ele><time>2026-04-18T10:46:28.001Z</time></trkpt><trkpt lat="45.162284882071546" lon="8.492521601351745"><ele>105.0</ele><time>2026-04-18T10:46:29.001Z</time></trkpt><trkpt lat="45.162271705401395" lon="8.492244540529065"><ele>105.0</ele><time>2026-04-18T10:46:30.001Z</time></trkpt><trkpt lat="45.16225758543556" lon="8.49197041216459"><ele>105.0</ele><time>2026-04-18T10:46:31.001Z</time></trkpt><trkpt lat="45.162241777994055" lon="8.491692459548652"><ele>105.0</ele><time>2026-04-18T10:46:32.001Z</time></trkpt><trkpt lat="45.162225590987525" lon="8.491413808277043"><ele>105.0</ele><time>2026-04-18T10:46:33.002Z</time></trkpt><trkpt lat="45.16221181369445" lon="8.491132363288104"><ele>105.0</ele><time>2026-04-18T10:46:34.002Z</time></trkpt><trkpt lat="45.162200287846034" lon="8.490851624744137"><ele>105.0</ele><time>2026-04-18T10:46:35.002Z</time></trkpt><trkpt lat="45.16218874077349" lon="8.490572583747207"><ele>105.0</ele><time>2026-04-18T10:46:36.002Z</time></trkpt><trkpt lat="45.16217333379373" lon="8.49028747556834"><ele>105.33333333333334</ele><time>2026-04-18T10:46:37.002Z</time></trkpt><trkpt lat="45.162158418456826" lon="8.49000719173656"><ele>105.66666666666667</ele><time>2026-04-18T10:46:38.002Z</time></trkpt><trkpt lat="45.16214319417135" lon="8.489725478047557"><ele>106.0</ele><time>2026-04-18T10:46:39.002Z</time></trkpt><trkpt lat="45.16212791932731" lon="8.489444885978534"><ele>106.66666666666667</ele><time>2026-04-18T10:46:40.002Z</time></trkpt><trkpt lat="45.162112862292574" lon="8.489162121884512"><ele>107.33333333333334</ele><time>2026-04-18T10:46:41.002Z</time></trkpt><trkpt lat="45.162098674963936" lon="8.488881831002148"><ele>108.0</ele><time>2026-04-18T10:46:42.002Z</time></trkpt><trkpt lat="45.16208334794027" lon="8.488598222124892"><ele>108.0</ele><time>2026-04-18T10:46:43.002Z</time></trkpt><trkpt lat="45.16206755825954" lon="8.48830960766934"><ele>108.0</ele><time>2026-04-18T10:46:44.002Z</time></trkpt><trkpt lat="45.162054114868624" lon="8.488030900364045"><ele>108.0</ele><time>2026-04-18T10:46:45.002Z</time></trkpt><trkpt lat="45.16203904000176" lon="8.487747819213775"><ele>108.0</ele><time>2026-04-18T10:46:46.002Z</time></trkpt><trkpt lat="45.16202271310714" lon="8.487464406644309"><ele>108.0</ele><time>2026-04-18T10:46:47.002Z</time></trkpt><trkpt lat="45.16200870218918" lon="8.48718323856762"><ele>108.0</ele><time>2026-04-18T10:46:48.002Z</time></trkpt><trkpt lat="45.161995296252705" lon="8.48690403412581"><ele>108.0</ele><time>2026-04-18T10:46:49.002Z</time></trkpt><trkpt lat="45.16198658837346" lon="8.486614827544079"><ele>108.0</ele><time>2026-04-18T10:46:50.002Z</time></trkpt><trkpt lat="45.16196379723262" lon="8.486330202086819"><ele>108.0</ele><time>2026-04-18T10:46:51.002Z</time></trkpt><trkpt lat="45.161956610779896" lon="8.486055048396791"><ele>108.0</ele><time>2026-04-18T10:46:52.002Z</time></trkpt><trkpt lat="45.161942375627184" lon="8.485797169882687"><ele>108.0</ele><time>2026-04-18T10:46:53.002Z</time></trkpt><trkpt lat="45.16192983378027" lon="8.485561569065084"><ele>108.0</ele><time>2026-04-18T10:46:54.002Z</time></trkpt><trkpt lat="45.16191688682207" lon="8.485332630612792"><ele>107.33333333333334</ele><time>2026-04-18T10:46:55.002Z</time></trkpt><trkpt lat="45.161904941872756" lon="8.485107657746967"><ele>106.66666666666667</ele><time>2026-04-18T10:46:56.002Z</time></trkpt><trkpt lat="45.16189502041224" lon="8.48488781230973"><ele>106.0</ele><time>2026-04-18T10:46:57.002Z</time></trkpt><trkpt lat="45.161885593282015" lon="8.48465896491826"><ele>106.25</ele><time>2026-04-18T10:46:58.002Z</time></trkpt><trkpt lat="45.16187794492815" lon="8.484445516441971"><ele>106.5</ele><time>2026-04-18T10:46:59.002Z</time></trkpt><trkpt lat="45.16187003066894" lon="8.48423882332939"><ele>106.75</ele><time>2026-04-18T10:47:00.002Z</time></trkpt><trkpt lat="45.161859841548115" lon="8.484024028417416"><ele>107.0</ele><time>2026-04-18T10:47:01.002Z</time></trkpt><trkpt lat="45.161849157725776" lon="8.483789938188458"><ele>107.33333333333333</ele><time>2026-04-18T10:47:02.002Z</time></trkpt><trkpt lat="45.16183871845368" lon="8.483550430605998"><ele>107.66666666666666</ele><time>2026-04-18T10:47:03.002Z</time></trkpt><trkpt lat="45.16182831670926" lon="8.483301704537793"><ele>108.0</ele><time>2026-04-18T10:47:04.002Z</time></trkpt><trkpt lat="45.161815481098984" lon="8.483042547606852"><ele>108.33333333333334</ele><time>2026-04-18T10:47:05.002Z</time></trkpt><trkpt lat="45.161804601941746" lon="8.482776703802713"><ele>108.66666666666667</ele><time>2026-04-18T10:47:06.002Z</time></trkpt><trkpt lat="45.16179362287349" lon="8.482509845693144"><ele>109.0</ele><time>2026-04-18T10:47:07.002Z</time></trkpt><trkpt lat="45.16178034296013" lon="8.482242337390483"><ele>109.0</ele><time>2026-04-18T10:47:08.002Z</time></trkpt><trkpt lat="45.16176401280979" lon="8.48196768539484"><ele>109.0</ele><time>2026-04-18T10:47:09.002Z</time></trkpt><trkpt lat="45.161749503840106" lon="8.48169362756996"><ele>109.0</ele><time>2026-04-18T10:47:10.002Z</time></trkpt><trkpt lat="45.16173563239879" lon="8.481417107951097"><ele>109.33333333333334</ele><time>2026-04-18T10:47:11.002Z</time></trkpt><trkpt lat="45.16171962465957" lon="8.481136759654976"><ele>109.66666666666666</ele><time>2026-04-18T10:47:12.001Z</time></trkpt><trkpt lat="45.16169842291722" lon="8.480851378646014"><ele>110.0</ele><time>2026-04-18T10:47:13.001Z</time></trkpt><trkpt lat="45.161671589749226" lon="8.480572195548172"><ele>109.33333333333333</ele><time>2026-04-18T10:47:14.001Z</time></trkpt><trkpt lat="45.16164475394516" lon="8.480284656221766"><ele>108.66666666666666</ele><time>2026-04-18T10:47:15.001Z</time></trkpt><trkpt lat="45.161627000228556" lon="8.479996248711632"><ele>108.0</ele><time>2026-04-18T10:47:16.001Z</time></trkpt><trkpt lat="45.161612501171206" lon="8.479706683892116"><ele>107.66666666666666</ele><time>2026-04-18T10:47:17.001Z</time></trkpt><trkpt lat="45.16159745129793" lon="8.479416655606272"><ele>107.33333333333333</ele><time>2026-04-18T10:47:18.001Z</time></trkpt><trkpt lat="45.16158099659289" lon="8.479119861136962"><ele>107.0</ele><time>2026-04-18T10:47:19.001Z</time></trkpt><trkpt lat="45.16156599148659" lon="8.478819634304182"><ele>107.33333333333333</ele><time>2026-04-18T10:47:20.001Z</time></trkpt><trkpt lat="45.161551211932846" lon="8.478518867818117"><ele>107.66666666666666</ele><time>2026-04-18T10:47:21.001Z</time></trkpt><trkpt lat="45.161536294525106" lon="8.478215786372497"><ele>108.0</ele><time>2026-04-18T10:47:22.001Z</time></trkpt><trkpt lat="45.16152124707766" lon="8.47792901681124"><ele>107.33333333333334</ele><time>2026-04-18T10:47:23.001Z</time></trkpt><trkpt lat="45.16150546600507" lon="8.477658008482457"><ele>106.66666666666667</ele><time>2026-04-18T10:47:24.001Z</time></trkpt><trkpt lat="45.161489480897124" lon="8.47740329067263"><ele>106.0</ele><time>2026-04-18T10:47:25.001Z</time></trkpt><trkpt lat="45.16147570282061" lon="8.477136448145188"><ele>106.0</ele><time>2026-04-18T10:47:26.001Z</time></trkpt><trkpt lat="45.16146043998683" lon="8.476864407839198"><ele>106.0</ele><time>2026-04-18T10:47:27.001Z</time></trkpt><trkpt lat="45.16144598483638" lon="8.476588403248405"><ele>106.0</ele><time>2026-04-18T10:47:28.001Z</time></trkpt><trkpt lat="45.16143225786657" lon="8.476311215307481"><ele>106.0</ele><time>2026-04-18T10:47:29.001Z</time></trkpt><trkpt lat="45.16141847280184" lon="8.476031655736062"><ele>106.0</ele><time>2026-04-18T10:47:30.001Z</time></trkpt><trkpt lat="45.161404240176864" lon="8.47574622381282"><ele>106.0</ele><time>2026-04-18T10:47:31.001Z</time></trkpt><trkpt lat="45.16138917368097" lon="8.475459902699926"><ele>106.33333333333334</ele><time>2026-04-18T10:47:32.001Z</time></trkpt><trkpt lat="45.16137465816515" lon="8.475185477723704"><ele>106.66666666666666</ele><time>2026-04-18T10:47:33.001Z</time></trkpt><trkpt lat="45.161361273792295" lon="8.474931414520109"><ele>107.0</ele><time>2026-04-18T10:47:34.001Z</time></trkpt><trkpt lat="45.16134877911143" lon="8.474686403874777"><ele>107.0</ele><time>2026-04-18T10:47:35.001Z</time></trkpt><trkpt lat="45.16133895201656" lon="8.474457988147106"><ele>107.0</ele><time>2026-04-18T10:47:36.001Z</time></trkpt><trkpt lat="45.161330043119406" lon="8.474234248115103"><ele>107.0</ele><time>2026-04-18T10:47:37.001Z</time></trkpt><trkpt lat="45.161319435571365" lon="8.474022591781601"><ele>107.0</ele><time>2026-04-18T10:47:38.001Z</time></trkpt><trkpt lat="45.16130607310535" lon="8.473816725562157"><ele>107.0</ele><time>2026-04-18T10:47:39.001Z</time></trkpt><trkpt lat="45.161292214342204" lon="8.473596373540426"><ele>107.0</ele><time>2026-04-18T10:47:40.001Z</time></trkpt><trkpt lat="45.16127764224649" lon="8.473373061665267"><ele>107.33333333333333</ele><time>2026-04-18T10:47:41.001Z</time></trkpt><trkpt lat="45.16126477850454" lon="8.47314158714904"><ele>107.66666666666666</ele><time>2026-04-18T10:47:42.001Z</time></trkpt><trkpt lat="45.1612530447503" lon="8.472908114048238"><ele>108.0</ele><time>2026-04-18T10:47:43.001Z</time></trkpt><trkpt lat="45.16124095192769" lon="8.47267826292325"><ele>108.0</ele><time>2026-04-18T10:47:44.001Z</time></trkpt><trkpt lat="45.16122934724625" lon="8.47243817681927"><ele>108.0</ele><time>2026-04-18T10:47:45.001Z</time></trkpt><trkpt lat="45.16121784382995" lon="8.472204255275855"><ele>108.0</ele><time>2026-04-18T10:47:46.001Z</time></trkpt><trkpt lat="45.161206173724175" lon="8.471968432277071"><ele>108.0</ele><time>2026-04-18T10:47:47.001Z</time></trkpt><trkpt lat="45.16118877073024" lon="8.471747317278364"><ele>108.0</ele><time>2026-04-18T10:47:48.001Z</time></trkpt><trkpt lat="45.16117577492676" lon="8.471536787739446"><ele>108.0</ele><time>2026-04-18T10:47:49.001Z</time></trkpt><trkpt lat="45.16116165396098" lon="8.471325541546875"><ele>108.0</ele><time>2026-04-18T10:47:50.001Z</time></trkpt><trkpt lat="45.16114914312781" lon="8.471107193894994"><ele>108.0</ele><time>2026-04-18T10:47:51.001Z</time></trkpt><trkpt lat="45.161137583847484" lon="8.470880177850853"><ele>108.0</ele><time>2026-04-18T10:47:52.001Z</time></trkpt><trkpt lat="45.161128317669366" lon="8.470654582294726"><ele>107.66666666666666</ele><time>2026-04-18T10:47:53.001Z</time></trkpt><trkpt lat="45.16111974243212" lon="8.470421159816373"><ele>107.33333333333333</ele><time>2026-04-18T10:47:54.001Z</time></trkpt><trkpt lat="45.16110919710751" lon="8.470176375591375"><ele>107.0</ele><time>2026-04-18T10:47:55.001Z</time></trkpt><trkpt lat="45.161094858588356" lon="8.46993442506015"><ele>107.0</ele><time>2026-04-18T10:47:56.001Z</time></trkpt><trkpt lat="45.16107726452655" lon="8.469691652640083"><ele>107.0</ele><time>2026-04-18T10:47:57.001Z</time></trkpt><trkpt lat="45.161054248559346" lon="8.469440725300846"><ele>107.0</ele><time>2026-04-18T10:47:58.001Z</time></trkpt><trkpt lat="45.16103077900518" lon="8.46919352201962"><ele>107.0</ele><time>2026-04-18T10:47:59.001Z</time></trkpt><trkpt lat="45.16100200419288" lon="8.468941564786697"><ele>107.0</ele><time>2026-04-18T10:48:00.001Z</time></trkpt><trkpt lat="45.16097288789316" lon="8.468691007230332"><ele>107.0</ele><time>2026-04-18T10:48:01.001Z</time></trkpt><trkpt lat="45.16094153572672" lon="8.468443552473705"><ele>107.33333333333333</ele><time>2026-04-18T10:48:02.001Z</time></trkpt><trkpt lat="45.1609050753426" lon="8.468191843238031"><ele>107.66666666666666</ele><time>2026-04-18T10:48:03.001Z</time></trkpt><trkpt lat="45.160861226826285" lon="8.467941914528952"><ele>108.0</ele><time>2026-04-18T10:48:04.001Z</time></trkpt><trkpt lat="45.160812350034625" lon="8.467696278177694"><ele>108.0</ele><time>2026-04-18T10:48:05.001Z</time></trkpt><trkpt lat="45.16076099415959" lon="8.467451342172833"><ele>108.0</ele><time>2026-04-18T10:48:06.001Z</time></trkpt><trkpt lat="45.16070814007697" lon="8.467200165153944"><ele>108.0</ele><time>2026-04-18T10:48:07.001Z</time></trkpt><trkpt lat="45.160654091832306" lon="8.466955432739605"><ele>108.0</ele><time>2026-04-18T10:48:08.001Z</time></trkpt><trkpt lat="45.160600733638596" lon="8.466709962114644"><ele>108.0</ele><time>2026-04-18T10:48:09.001Z</time></trkpt><trkpt lat="45.16054224467021" lon="8.46646016213641"><ele>108.0</ele><time>2026-04-18T10:48:10.001Z</time></trkpt><trkpt lat="45.160487306214286" lon="8.466217562275988"><ele>108.0</ele><time>2026-04-18T10:48:11.001Z</time></trkpt><trkpt lat="45.16043394642191" lon="8.46599787331261"><ele>108.0</ele><time>2026-04-18T10:48:12.001Z</time></trkpt><trkpt lat="45.160382146902236" lon="8.465788510048904"><ele>108.0</ele><time>2026-04-18T10:48:13.001Z</time></trkpt><trkpt lat="45.16033481192152" lon="8.465584823034604"><ele>108.33333333333334</ele><time>2026-04-18T10:48:14.001Z</time></trkpt><trkpt lat="45.16028905361323" lon="8.465383940859523"><ele>108.66666666666667</ele><time>2026-04-18T10:48:15.001Z</time></trkpt><trkpt lat="45.16024281485936" lon="8.465171840019954"><ele>109.0</ele><time>2026-04-18T10:48:16.001Z</time></trkpt><trkpt lat="45.160195653867845" lon="8.464959532342407"><ele>109.0</ele><time>2026-04-18T10:48:17.001Z</time></trkpt><trkpt lat="45.160150970058844" lon="8.464768001187975"><ele>109.0</ele><time>2026-04-18T10:48:18.001Z</time></trkpt><trkpt lat="45.16010415341298" lon="8.4645739254284"><ele>109.0</ele><time>2026-04-18T10:48:19.001Z</time></trkpt><trkpt lat="45.16005642535949" lon="8.464369624941385"><ele>109.0</ele><time>2026-04-18T10:48:20.001Z</time></trkpt><trkpt lat="45.16001033487699" lon="8.464163898383363"><ele>109.0</ele><time>2026-04-18T10:48:21.001Z</time></trkpt><trkpt lat="45.15996097025395" lon="8.463950054530617"><ele>109.0</ele><time>2026-04-18T10:48:22.001Z</time></trkpt><trkpt lat="45.15991335772575" lon="8.463740967838943"><ele>109.0</ele><time>2026-04-18T10:48:23.001Z</time></trkpt><trkpt lat="45.15986514913089" lon="8.463523950509124"><ele>108.66666666666667</ele><time>2026-04-18T10:48:24.001Z</time></trkpt><trkpt lat="45.15981752888159" lon="8.463302423517161"><ele>108.33333333333334</ele><time>2026-04-18T10:48:25.001Z</time></trkpt><trkpt lat="45.159768269956544" lon="8.463084006113363"><ele>108.0</ele><time>2026-04-18T10:48:26.001Z</time></trkpt><trkpt lat="45.159715883226255" lon="8.462862051707743"><ele>108.0</ele><time>2026-04-18T10:48:27.001Z</time></trkpt><trkpt lat="45.15965995651095" lon="8.462638832239284"><ele>108.0</ele><time>2026-04-18T10:48:28.001Z</time></trkpt><trkpt lat="45.15960455474043" lon="8.462410315039154"><ele>108.0</ele><time>2026-04-18T10:48:29.001Z</time></trkpt><trkpt lat="45.159554722437676" lon="8.462193973087516"><ele>108.25</ele><time>2026-04-18T10:48:30.001Z</time></trkpt><trkpt lat="45.159506292670315" lon="8.461986861157728"><ele>108.5</ele><time>2026-04-18T10:48:31.001Z</time></trkpt><trkpt lat="45.15946215246066" lon="8.461791016519213"><ele>108.75</ele><time>2026-04-18T10:48:32.001Z</time></trkpt><trkpt lat="45.159419882401586" lon="8.461609362432268"><ele>109.0</ele><time>2026-04-18T10:48:33.001Z</time></trkpt><trkpt lat="45.159379396091865" lon="8.4614322713402"><ele>109.75</ele><time>2026-04-18T10:48:34.001Z</time></trkpt><trkpt lat="45.159338343557835" lon="8.46126017849833"><ele>110.5</ele><time>2026-04-18T10:48:35.001Z</time></trkpt><trkpt lat="45.15929286247985" lon="8.461077142485403"><ele>111.25</ele><time>2026-04-18T10:48:36.001Z</time></trkpt><trkpt lat="45.15924705025425" lon="8.460882296558335"><ele>112.0</ele><time>2026-04-18T10:48:37.001Z</time></trkpt><trkpt lat="45.15919978298314" lon="8.46067876100943"><ele>112.0</ele><time>2026-04-18T10:48:38.002Z</time></trkpt><trkpt lat="45.15915226658559" lon="8.460469700898818"><ele>112.0</ele><time>2026-04-18T10:48:39.002Z</time></trkpt><trkpt lat="45.15910214887938" lon="8.460251938392945"><ele>112.0</ele><time>2026-04-18T10:48:40.002Z</time></trkpt><trkpt lat="45.15905698463767" lon="8.46004731666352"><ele>111.75</ele><time>2026-04-18T10:48:41.002Z</time></trkpt><trkpt lat="45.159015239683036" lon="8.459860959192579"><ele>111.5</ele><time>2026-04-18T10:48:42.002Z</time></trkpt><trkpt lat="45.15897536123871" lon="8.459682193193983"><ele>111.25</ele><time>2026-04-18T10:48:43.002Z</time></trkpt><trkpt lat="45.15893517979705" lon="8.459516826625473"><ele>111.0</ele><time>2026-04-18T10:48:44.002Z</time></trkpt><trkpt lat="45.15889586370623" lon="8.459358733570241"><ele>111.0</ele><time>2026-04-18T10:48:45.002Z</time></trkpt><trkpt lat="45.15886018079282" lon="8.459211414850806"><ele>111.0</ele><time>2026-04-18T10:48:46.002Z</time></trkpt><trkpt lat="45.15882598267409" lon="8.45906695799876"><ele>111.0</ele><time>2026-04-18T10:48:47.002Z</time></trkpt><trkpt lat="45.158795341375466" lon="8.4589305119919"><ele>111.0</ele><time>2026-04-18T10:48:48.002Z</time></trkpt><trkpt lat="45.15876585229011" lon="8.458797428902457"><ele>111.0</ele><time>2026-04-18T10:48:49.002Z</time></trkpt><trkpt lat="45.15873287121371" lon="8.458649915931243"><ele>111.0</ele><time>2026-04-18T10:48:50.002Z</time></trkpt><trkpt lat="45.1586970914278" lon="8.45849270295421"><ele>111.0</ele><time>2026-04-18T10:48:51.002Z</time></trkpt><trkpt lat="45.15866033193072" lon="8.458344842048882"><ele>111.0</ele><time>2026-04-18T10:48:52.002Z</time></trkpt><trkpt lat="45.158625098465464" lon="8.45820724674095"><ele>111.0</ele><time>2026-04-18T10:48:53.002Z</time></trkpt><trkpt lat="45.158604957558865" lon="8.458072606454659"><ele>111.0</ele><time>2026-04-18T10:48:54.002Z</time></trkpt><trkpt lat="45.15862254160985" lon="8.457951331665518"><ele>111.0</ele><time>2026-04-18T10:48:55.002Z</time></trkpt><trkpt lat="45.158670484842155" lon="8.457859573508577"><ele>111.0</ele><time>2026-04-18T10:48:56.002Z</time></trkpt><trkpt lat="45.15872603871167" lon="8.457789891728218"><ele>111.0</ele><time>2026-04-18T10:48:57.002Z</time></trkpt><trkpt lat="45.15879287530664" lon="8.457665684424454"><ele>111.0</ele><time>2026-04-18T10:48:59.002Z</time></trkpt><trkpt lat="45.1588156932257" lon="8.457554961457115"><ele>111.0</ele><time>2026-04-18T10:49:01.002Z</time></trkpt><trkpt lat="45.158803628729984" lon="8.457466083489923"><ele>111.0</ele><time>2026-04-18T10:49:03.002Z</time></trkpt><trkpt lat="45.158767469578386" lon="8.457376685324444"><ele>111.0</ele><time>2026-04-18T10:49:05.002Z</time></trkpt><trkpt lat="45.15867331805425" lon="8.45723049695229"><ele>111.0</ele><time>2026-04-18T10:49:07.002Z</time></trkpt><trkpt lat="45.1586138551953" lon="8.457158967753736"><ele>111.0</ele><time>2026-04-18T10:49:08.002Z</time></trkpt><trkpt lat="45.15854706309392" lon="8.457079615994198"><ele>111.0</ele><time>2026-04-18T10:49:09.002Z</time></trkpt><trkpt lat="45.15847719327694" lon="8.456993988171979"><ele>111.0</ele><time>2026-04-18T10:49:10.002Z</time></trkpt><trkpt lat="45.15840321773688" lon="8.45689915526409"><ele>111.0</ele><time>2026-04-18T10:49:11.002Z</time></trkpt><trkpt lat="45.15833115506238" lon="8.456792145167187"><ele>111.0</ele><time>2026-04-18T10:49:12.002Z</time></trkpt><trkpt lat="45.158259830367044" lon="8.456673003266362"><ele>111.0</ele><time>2026-04-18T10:49:13.002Z</time></trkpt><trkpt lat="45.15817746155634" lon="8.456571642805764"><ele>111.0</ele><time>2026-04-18T10:49:14.002Z</time></trkpt><trkpt lat="45.158118794266684" lon="8.456418738896387"><ele>111.0</ele><time>2026-04-18T10:49:15.002Z</time></trkpt><trkpt lat="45.15805305953458" lon="8.456281718864785"><ele>111.0</ele><time>2026-04-18T10:49:16.002Z</time></trkpt><trkpt lat="45.15798954690249" lon="8.456141214759185"><ele>111.0</ele><time>2026-04-18T10:49:17.002Z</time></trkpt><trkpt lat="45.15793055763933" lon="8.455995572963635"><ele>111.0</ele><time>2026-04-18T10:49:18.001Z</time></trkpt><trkpt lat="45.15786827355739" lon="8.45584489306598"><ele>111.0</ele><time>2026-04-18T10:49:19.001Z</time></trkpt><trkpt lat="45.15780557752219" lon="8.455682900616294"><ele>111.0</ele><time>2026-04-18T10:49:20.001Z</time></trkpt><trkpt lat="45.15773881639931" lon="8.455513774406858"><ele>111.0</ele><time>2026-04-18T10:49:21.001Z</time></trkpt><trkpt lat="45.157661500442494" lon="8.455323793643178"><ele>111.0</ele><time>2026-04-18T10:49:22.001Z</time></trkpt><trkpt lat="45.157578330340016" lon="8.455120705127507"><ele>111.0</ele><time>2026-04-18T10:49:23.001Z</time></trkpt><trkpt lat="45.15749542573225" lon="8.454915367139993"><ele>111.0</ele><time>2026-04-18T10:49:24.001Z</time></trkpt><trkpt lat="45.15740902452018" lon="8.454697706734862"><ele>111.0</ele><time>2026-04-18T10:49:25.001Z</time></trkpt><trkpt lat="45.15732223366955" lon="8.454479243909748"><ele>111.0</ele><time>2026-04-18T10:49:26.001Z</time></trkpt><trkpt lat="45.15723868121479" lon="8.4542679735742"><ele>111.0</ele><time>2026-04-18T10:49:27.001Z</time></trkpt><trkpt lat="45.157154726362336" lon="8.454061904443254"><ele>111.0</ele><time>2026-04-18T10:49:28Z</time></trkpt><trkpt lat="45.157074468011665" lon="8.453861842637668"><ele>110.33333333333334</ele><time>2026-04-18T10:49:29Z</time></trkpt><trkpt lat="45.15699027984639" lon="8.453652414155798"><ele>109.66666666666667</ele><time>2026-04-18T10:49:30Z</time></trkpt><trkpt lat="45.1569065232933" lon="8.453441824474035"><ele>109.0</ele><time>2026-04-18T10:49:31Z</time></trkpt><trkpt lat="45.15682374729911" lon="8.453234295690175"><ele>109.0</ele><time>2026-04-18T10:49:32Z</time></trkpt><trkpt lat="45.15674417657526" lon="8.453028879325638"><ele>109.0</ele><time>2026-04-18T10:49:33Z</time></trkpt><trkpt lat="45.156659950741656" lon="8.452819140889886"><ele>109.0</ele><time>2026-04-18T10:49:34Z</time></trkpt><trkpt lat="45.15657773708577" lon="8.452615787793524"><ele>109.33333333333334</ele><time>2026-04-18T10:49:35Z</time></trkpt><trkpt lat="45.156495747478836" lon="8.452414082157494"><ele>109.66666666666666</ele><time>2026-04-18T10:49:36Z</time></trkpt><trkpt lat="45.15641192125097" lon="8.452204612067334"><ele>110.0</ele><time>2026-04-18T10:49:37Z</time></trkpt><trkpt lat="45.156334025181614" lon="8.452001819269912"><ele>110.33333333333333</ele><time>2026-04-18T10:49:38Z</time></trkpt><trkpt lat="45.156256981111426" lon="8.451792845169733"><ele>110.66666666666666</ele><time>2026-04-18T10:49:39Z</time></trkpt><trkpt lat="45.15617870510466" lon="8.45158686785214"><ele>111.0</ele><time>2026-04-18T10:49:40Z</time></trkpt><trkpt lat="45.15609975188061" lon="8.45138450833837"><ele>111.0</ele><time>2026-04-18T10:49:41Z</time></trkpt><trkpt lat="45.15601979469249" lon="8.451180190946506"><ele>111.0</ele><time>2026-04-18T10:49:42Z</time></trkpt><trkpt lat="45.15594219603861" lon="8.45097996352516"><ele>111.0</ele><time>2026-04-18T10:49:43Z</time></trkpt><trkpt lat="45.15586256633697" lon="8.450778051865594"><ele>111.0</ele><time>2026-04-18T10:49:44Z</time></trkpt><trkpt lat="45.15579074165677" lon="8.4505979272932"><ele>111.0</ele><time>2026-04-18T10:49:45Z</time></trkpt><trkpt lat="45.15572463968576" lon="8.45043485042292"><ele>111.0</ele><time>2026-04-18T10:49:46Z</time></trkpt><trkpt lat="45.155666781436096" lon="8.450291161701356"><ele>111.0</ele><time>2026-04-18T10:49:47Z</time></trkpt><trkpt lat="45.15561609624974" lon="8.450165119853136"><ele>111.0</ele><time>2026-04-18T10:49:48Z</time></trkpt><trkpt lat="45.15556781882403" lon="8.450046378883297"><ele>111.0</ele><time>2026-04-18T10:49:49.001Z</time></trkpt><trkpt lat="45.15552574727359" lon="8.449938518502615"><ele>111.0</ele><time>2026-04-18T10:49:50.001Z</time></trkpt><trkpt lat="45.155482454145" lon="8.44981963518197"><ele>111.0</ele><time>2026-04-18T10:49:51.001Z</time></trkpt><trkpt lat="45.15543825305827" lon="8.449681815816378"><ele>111.0</ele><time>2026-04-18T10:49:52.001Z</time></trkpt><trkpt lat="45.155388564845424" lon="8.449533859659134"><ele>111.0</ele><time>2026-04-18T10:49:53.001Z</time></trkpt><trkpt lat="45.15532804971437" lon="8.449377995395704"><ele>111.0</ele><time>2026-04-18T10:49:54.001Z</time></trkpt><trkpt lat="45.155255773285184" lon="8.44922518492927"><ele>111.0</ele><time>2026-04-18T10:49:55.001Z</time></trkpt><trkpt lat="45.155183755076855" lon="8.449075788785473"><ele>111.0</ele><time>2026-04-18T10:49:56.001Z</time></trkpt><trkpt lat="45.15511957183228" lon="8.448925731662715"><ele>111.0</ele><time>2026-04-18T10:49:57.001Z</time></trkpt><trkpt lat="45.155061959875766" lon="8.448769069450105"><ele>111.0</ele><time>2026-04-18T10:49:58.001Z</time></trkpt><trkpt lat="45.15500113998445" lon="8.448611824020034"><ele>111.0</ele><time>2026-04-18T10:49:59.001Z</time></trkpt><trkpt lat="45.15493611858046" lon="8.448451462086028"><ele>111.0</ele><time>2026-04-18T10:50:00.001Z</time></trkpt><trkpt lat="45.154870756336216" lon="8.448289835139224"><ele>111.0</ele><time>2026-04-18T10:50:01.001Z</time></trkpt><trkpt lat="45.154812704957514" lon="8.448150732420569"><ele>111.0</ele><time>2026-04-18T10:50:02.001Z</time></trkpt><trkpt lat="45.15476463349253" lon="8.448039388542995"><ele>111.0</ele><time>2026-04-18T10:50:03.001Z</time></trkpt><trkpt lat="45.15472757028848" lon="8.447955557926797"><ele>111.0</ele><time>2026-04-18T10:50:04.001Z</time></trkpt><trkpt lat="45.15469725944493" lon="8.447843823155084"><ele>111.0</ele><time>2026-04-18T10:50:06.001Z</time></trkpt><trkpt lat="45.154535524857124" lon="8.44798295742563"><ele>111.0</ele><time>2026-04-18T10:50:09.001Z</time></trkpt><trkpt lat="45.154490818519136" lon="8.448059444979322"><ele>111.0</ele><time>2026-04-18T10:50:10.001Z</time></trkpt><trkpt lat="45.154437965752805" lon="8.448140309032349"><ele>111.0</ele><time>2026-04-18T10:50:11.001Z</time></trkpt><trkpt lat="45.15438231199834" lon="8.448216299649795"><ele>111.0</ele><time>2026-04-18T10:50:12.001Z</time></trkpt><trkpt lat="45.15433421022309" lon="8.448285654219347"><ele>111.0</ele><time>2026-04-18T10:50:13.001Z</time></trkpt><trkpt lat="45.15427095969906" lon="8.448342051131354"><ele>111.0</ele><time>2026-04-18T10:50:14.001Z</time></trkpt><trkpt lat="45.1542150728777" lon="8.448412806666333"><ele>111.0</ele><time>2026-04-18T10:50:15.001Z</time></trkpt><trkpt lat="45.154158319330556" lon="8.448480694118967"><ele>111.0</ele><time>2026-04-18T10:50:16.001Z</time></trkpt><trkpt lat="45.15410304788794" lon="8.448565181513176"><ele>111.0</ele><time>2026-04-18T10:50:17.001Z</time></trkpt><trkpt lat="45.15404144314476" lon="8.4486236885745"><ele>111.0</ele><time>2026-04-18T10:50:18.001Z</time></trkpt><trkpt lat="45.153954281408325" lon="8.448712024241672"><ele>111.0</ele><time>2026-04-18T10:50:20.001Z</time></trkpt><trkpt lat="45.153886954217995" lon="8.448762054928679"><ele>111.0</ele><time>2026-04-18T10:50:22.001Z</time></trkpt><trkpt lat="45.15382915660708" lon="8.448634456756345"><ele>111.0</ele><time>2026-04-18T10:50:27.001Z</time></trkpt><trkpt lat="45.15375806102872" lon="8.44865783347003"><ele>111.0</ele><time>2026-04-18T10:50:29.001Z</time></trkpt><trkpt lat="45.15368245999001" lon="8.448661951396623"><ele>111.0</ele><time>2026-04-18T10:53:47Z</time></trkpt><trkpt lat="45.15364970642658" lon="8.448760370710575"><ele>111.0</ele><time>2026-04-18T10:53:49Z</time></trkpt><trkpt lat="45.1536688601881" lon="8.448872510604758"><ele>111.0</ele><time>2026-04-18T10:53:51Z</time></trkpt><trkpt lat="45.15365713119793" lon="8.449016247877006"><ele>111.0</ele><time>2026-04-18T10:53:54.001Z</time></trkpt><trkpt lat="45.15357205418872" lon="8.44911073788354"><ele>111.0</ele><time>2026-04-18T10:53:56.001Z</time></trkpt><trkpt lat="45.15350491446752" lon="8.449163291594985"><ele>111.25</ele><time>2026-04-18T10:53:57.001Z</time></trkpt><trkpt lat="45.15341738762898" lon="8.449227685571739"><ele>111.5</ele><time>2026-04-18T10:53:58.001Z</time></trkpt><trkpt lat="45.153313826686485" lon="8.449300785343496"><ele>111.75</ele><time>2026-04-18T10:53:59.001Z</time></trkpt><trkpt lat="45.15320139459505" lon="8.449374908209663"><ele>112.0</ele><time>2026-04-18T10:54:00.001Z</time></trkpt><trkpt lat="45.153082332157624" lon="8.449458167490784"><ele>112.0</ele><time>2026-04-18T10:54:01.001Z</time></trkpt><trkpt lat="45.152957020016935" lon="8.449545677364094"><ele>112.0</ele><time>2026-04-18T10:54:02.001Z</time></trkpt><trkpt lat="45.15282260328487" lon="8.449639923606544"><ele>112.0</ele><time>2026-04-18T10:54:03.001Z</time></trkpt><trkpt lat="45.15268495298167" lon="8.449733737895022"><ele>112.0</ele><time>2026-04-18T10:54:04.001Z</time></trkpt><trkpt lat="45.15254521760398" lon="8.449829733567194"><ele>112.0</ele><time>2026-04-18T10:54:05.001Z</time></trkpt><trkpt lat="45.1524116820128" lon="8.449913981357481"><ele>112.0</ele><time>2026-04-18T10:54:06.001Z</time></trkpt><trkpt lat="45.15226590801828" lon="8.449994932528453"><ele>112.0</ele><time>2026-04-18T10:54:07.001Z</time></trkpt><trkpt lat="45.15212557448243" lon="8.45006902790334"><ele>112.0</ele><time>2026-04-18T10:54:08.001Z</time></trkpt><trkpt lat="45.15197539460093" lon="8.450141152876393"><ele>112.0</ele><time>2026-04-18T10:54:09.001Z</time></trkpt><trkpt lat="45.15182938843822" lon="8.45020461532588"><ele>112.0</ele><time>2026-04-18T10:54:10.001Z</time></trkpt><trkpt lat="45.151700513759884" lon="8.45026256521154"><ele>112.0</ele><time>2026-04-18T10:54:11.001Z</time></trkpt><trkpt lat="45.15158170204169" lon="8.450319109448907"><ele>111.8</ele><time>2026-04-18T10:54:12.001Z</time></trkpt><trkpt lat="45.151471908477134" lon="8.450373528091928"><ele>111.6</ele><time>2026-04-18T10:54:13.001Z</time></trkpt><trkpt lat="45.151370168985686" lon="8.450426116887348"><ele>111.39999999999999</ele><time>2026-04-18T10:54:14.001Z</time></trkpt><trkpt lat="45.15127139823985" lon="8.450477552768056"><ele>111.19999999999999</ele><time>2026-04-18T10:54:15.001Z</time></trkpt><trkpt lat="45.15116062845514" lon="8.450537098144482"><ele>111.0</ele><time>2026-04-18T10:54:16.001Z</time></trkpt><trkpt lat="45.151041570063455" lon="8.450595537464864"><ele>111.0</ele><time>2026-04-18T10:54:17.001Z</time></trkpt><trkpt lat="45.15093814806495" lon="8.450642180698019"><ele>111.0</ele><time>2026-04-18T10:54:18.001Z</time></trkpt><trkpt lat="45.15084488855906" lon="8.450684499824007"><ele>111.0</ele><time>2026-04-18T10:54:19.001Z</time></trkpt><trkpt lat="45.15076183520176" lon="8.450726179698057"><ele>111.0</ele><time>2026-04-18T10:54:20.001Z</time></trkpt><trkpt lat="45.150687146144556" lon="8.450760985315464"><ele>111.0</ele><time>2026-04-18T10:54:21.001Z</time></trkpt><trkpt lat="45.15062548950619" lon="8.450799787686098"><ele>111.0</ele><time>2026-04-18T10:54:22.001Z</time></trkpt><trkpt lat="45.150578536777175" lon="8.450874324628519"><ele>111.0</ele><time>2026-04-18T10:54:23.001Z</time></trkpt><trkpt lat="45.15054134306242" lon="8.450962048868496"><ele>111.0</ele><time>2026-04-18T10:54:24.001Z</time></trkpt><trkpt lat="45.15055977058691" lon="8.451099534625339"><ele>111.0</ele><time>2026-04-18T10:54:25.001Z</time></trkpt><trkpt lat="45.15059770818065" lon="8.451242799716562"><ele>111.0</ele><time>2026-04-18T10:54:26.001Z</time></trkpt><trkpt lat="45.15065787306898" lon="8.451421622083812"><ele>111.0</ele><time>2026-04-18T10:54:27.001Z</time></trkpt><trkpt lat="45.15072831242864" lon="8.451621510425875"><ele>110.8</ele><time>2026-04-18T10:54:28.001Z</time></trkpt><trkpt lat="45.15078296377634" lon="8.451790146535522"><ele>110.6</ele><time>2026-04-18T10:54:29.001Z</time></trkpt><trkpt lat="45.150831516901825" lon="8.451921617002615"><ele>110.4</ele><time>2026-04-18T10:54:30.001Z</time></trkpt><trkpt lat="45.15087112177153" lon="8.452018531738448"><ele>110.2</ele><time>2026-04-18T10:54:31.001Z</time></trkpt><trkpt lat="45.150930657618915" lon="8.45212446600278"><ele>110.0</ele><time>2026-04-18T10:54:33.001Z</time></trkpt><trkpt lat="45.15089206236481" lon="8.452221498121634"><ele>109.8</ele><time>2026-04-18T10:54:37.001Z</time></trkpt><trkpt lat="45.15080793381665" lon="8.452192144075658"><ele>109.6</ele><time>2026-04-18T10:54:39.001Z</time></trkpt><trkpt lat="45.15072558169723" lon="8.45215211947792"><ele>109.4</ele><time>2026-04-18T10:54:40.001Z</time></trkpt><trkpt lat="45.150642198403276" lon="8.4521107075395"><ele>109.2</ele><time>2026-04-18T10:54:41.001Z</time></trkpt><trkpt lat="45.15055312891926" lon="8.452066937550986"><ele>109.0</ele><time>2026-04-18T10:54:42.001Z</time></trkpt><trkpt lat="45.15044443291763" lon="8.452025047672562"><ele>109.5</ele><time>2026-04-18T10:54:43.001Z</time></trkpt><trkpt lat="45.15032651258923" lon="8.451982417531752"><ele>110.0</ele><time>2026-04-18T10:54:44.001Z</time></trkpt><trkpt lat="45.15020049145165" lon="8.451938233946548"><ele>110.5</ele><time>2026-04-18T10:54:45.001Z</time></trkpt><trkpt lat="45.15006091933545" lon="8.451887351372966"><ele>111.0</ele><time>2026-04-18T10:54:46.001Z</time></trkpt><trkpt lat="45.14990603914782" lon="8.451827968074248"><ele>111.0</ele><time>2026-04-18T10:54:47.001Z</time></trkpt><trkpt lat="45.149743899516686" lon="8.451770520083775"><ele>111.0</ele><time>2026-04-18T10:54:48.001Z</time></trkpt><trkpt lat="45.14956866317941" lon="8.451709467508454"><ele>111.0</ele><time>2026-04-18T10:54:49.001Z</time></trkpt><trkpt lat="45.14938655452616" lon="8.451652710562355"><ele>111.0</ele><time>2026-04-18T10:54:50.001Z</time></trkpt><trkpt lat="45.14920691092749" lon="8.45159974334962"><ele>111.0</ele><time>2026-04-18T10:54:51.001Z</time></trkpt><trkpt lat="45.1490487461129" lon="8.45155073812195"><ele>111.0</ele><time>2026-04-18T10:54:52.001Z</time></trkpt><trkpt lat="45.14889944192462" lon="8.451504613776512"><ele>111.0</ele><time>2026-04-18T10:54:53.001Z</time></trkpt><trkpt lat="45.14876829587208" lon="8.451455355363214"><ele>111.0</ele><time>2026-04-18T10:54:54.001Z</time></trkpt><trkpt lat="45.148647989248204" lon="8.451405721031179"><ele>111.0</ele><time>2026-04-18T10:54:55.001Z</time></trkpt><trkpt lat="45.14853203637019" lon="8.451370999060519"><ele>111.0</ele><time>2026-04-18T10:54:56.001Z</time></trkpt><trkpt lat="45.14842364141317" lon="8.451336685688121"><ele>111.0</ele><time>2026-04-18T10:54:57.001Z</time></trkpt><trkpt lat="45.14832150495933" lon="8.45130616669847"><ele>111.0</ele><time>2026-04-18T10:54:58.001Z</time></trkpt><trkpt lat="45.14822433272112" lon="8.451275652808535"><ele>111.0</ele><time>2026-04-18T10:54:59.001Z</time></trkpt><trkpt lat="45.14812952243232" lon="8.45124514073757"><ele>111.0</ele><time>2026-04-18T10:55:00.001Z</time></trkpt><trkpt lat="45.148040851016255" lon="8.451213623934475"><ele>111.0</ele><time>2026-04-18T10:55:01.001Z</time></trkpt><trkpt lat="45.14796405085722" lon="8.451188173546562"><ele>111.0</ele><time>2026-04-18T10:55:02.001Z</time></trkpt><trkpt lat="45.147869374421404" lon="8.451162841998686"><ele>111.0</ele><time>2026-04-18T10:55:04.001Z</time></trkpt><trkpt lat="45.14780525921482" lon="8.451169993942983"><ele>111.0</ele><time>2026-04-18T10:55:06.001Z</time></trkpt><trkpt lat="45.14774601916287" lon="8.451127126842836"><ele>111.0</ele><time>2026-04-18T10:55:13.001Z</time></trkpt><trkpt lat="45.14792586536866" lon="8.451183756543653"><ele>111.0</ele><time>2026-04-18T10:56:42.001Z</time></trkpt><trkpt lat="45.14785240321758" lon="8.451184122779466"><ele>111.0</ele><time>2026-04-18T10:56:44.001Z</time></trkpt><trkpt lat="45.147897056720694" lon="8.451247528879778"><ele>111.0</ele><time>2026-04-18T10:56:49.001Z</time></trkpt><trkpt lat="45.14781805053646" lon="8.451341830490719"><ele>111.0</ele><time>2026-04-18T10:56:53.001Z</time></trkpt><trkpt lat="45.14776250077012" lon="8.451390129776668"><ele>111.0</ele><time>2026-04-18T10:56:56.001Z</time></trkpt><trkpt lat="45.14765800086656" lon="8.451459578926386"><ele>111.0</ele><time>2026-04-18T12:09:16.997Z</time></trkpt><trkpt lat="45.1478117758172" lon="8.451383114899778"><ele>112.0</ele><time>2026-04-18T12:12:11Z</time></trkpt><trkpt lat="45.14767439804563" lon="8.451237512922962"><ele>111.0</ele><time>2026-04-18T12:14:44.001Z</time></trkpt></trkseg><trkseg><trkpt lat="45.147652024544534" lon="8.451139745020347"><ele>111.0</ele><time>2026-04-18T12:25:32.002Z</time></trkpt><trkpt lat="45.147570840202604" lon="8.451079159232165"><ele>111.0</ele><time>2026-04-18T12:25:35.002Z</time></trkpt><trkpt lat="45.14747783931051" lon="8.451064430490161"><ele>111.0</ele><time>2026-04-18T12:25:37.002Z</time></trkpt><trkpt lat="45.14737194008011" lon="8.451029566253478"><ele>111.0</ele><time>2026-04-18T12:25:39.002Z</time></trkpt><trkpt lat="45.14725225898474" lon="8.450981575331728"><ele>111.0</ele><time>2026-04-18T12:25:41.002Z</time></trkpt><trkpt lat="45.14718645800289" lon="8.450954852925966"><ele>111.16666666666667</ele><time>2026-04-18T12:25:42.002Z</time></trkpt><trkpt lat="45.14712064639948" lon="8.450927920606352"><ele>111.33333333333334</ele><time>2026-04-18T12:25:43.002Z</time></trkpt><trkpt lat="45.1470523575166" lon="8.450905583436922"><ele>111.5</ele><time>2026-04-18T12:25:44.002Z</time></trkpt><trkpt lat="45.14698038918497" lon="8.45087999504722"><ele>111.66666666666667</ele><time>2026-04-18T12:25:45.002Z</time></trkpt><trkpt lat="45.14690034496142" lon="8.45085426499524"><ele>111.83333333333334</ele><time>2026-04-18T12:25:46.002Z</time></trkpt><trkpt lat="45.146815123260694" lon="8.450829418726967"><ele>112.0</ele><time>2026-04-18T12:25:47.002Z</time></trkpt><trkpt lat="45.1467284806848" lon="8.45080613387641"><ele>112.00000000000001</ele><time>2026-04-18T12:25:48.002Z</time></trkpt><trkpt lat="45.14664372366387" lon="8.450774837487911"><ele>112.0</ele><time>2026-04-18T12:25:49.002Z</time></trkpt><trkpt lat="45.146563432661424" lon="8.45075300179844"><ele>112.0</ele><time>2026-04-18T12:25:50.002Z</time></trkpt><trkpt lat="45.146485690274446" lon="8.45070337812086"><ele>112.0</ele><time>2026-04-18T12:25:51.002Z</time></trkpt><trkpt lat="45.1464053717746" lon="8.450675954562012"><ele>112.00000000000001</ele><time>2026-04-18T12:25:52.002Z</time></trkpt><trkpt lat="45.14633546112692" lon="8.450652084605942"><ele>112.0</ele><time>2026-04-18T12:25:53.002Z</time></trkpt><trkpt lat="45.14622478511077" lon="8.450614547834068"><ele>112.00000000000001</ele><time>2026-04-18T12:25:55.002Z</time></trkpt><trkpt lat="45.146140004288945" lon="8.450609537678536"><ele>112.0</ele><time>2026-04-18T12:25:57.002Z</time></trkpt><trkpt lat="45.14607697988266" lon="8.450587575402068"><ele>112.0</ele><time>2026-04-18T12:25:59.002Z</time></trkpt><trkpt lat="45.146016491027865" lon="8.450544597752502"><ele>112.0</ele><time>2026-04-18T12:26:01.999Z</time></trkpt><trkpt lat="45.14600249478042" lon="8.45069116374858"><ele>112.00000000000001</ele><time>2026-04-18T12:26:05.999Z</time></trkpt><trkpt lat="45.146062654321184" lon="8.45083591078501"><ele>112.0</ele><time>2026-04-18T12:26:07.999Z</time></trkpt><trkpt lat="45.14609413002876" lon="8.450922400946279"><ele>112.0</ele><time>2026-04-18T12:26:08.999Z</time></trkpt><trkpt lat="45.146118601864295" lon="8.451018220276831"><ele>112.0</ele><time>2026-04-18T12:26:09.999Z</time></trkpt><trkpt lat="45.14615300810475" lon="8.451117430151697"><ele>112.0</ele><time>2026-04-18T12:26:10.999Z</time></trkpt><trkpt lat="45.14618031705133" lon="8.451214398428686"><ele>112.0</ele><time>2026-04-18T12:26:11.999Z</time></trkpt><trkpt lat="45.14621142582895" lon="8.451302899247235"><ele>112.0</ele><time>2026-04-18T12:26:12.999Z</time></trkpt><trkpt lat="45.146245056531306" lon="8.451392795789452"><ele>112.0</ele><time>2026-04-18T12:26:13.999Z</time></trkpt><trkpt lat="45.1462802006527" lon="8.451482780427794"><ele>112.0</ele><time>2026-04-18T12:26:14.999Z</time></trkpt><trkpt lat="45.146319771195365" lon="8.451580438576665"><ele>111.83333333333334</ele><time>2026-04-18T12:26:15.999Z</time></trkpt><trkpt lat="45.14635041432172" lon="8.451680428857255"><ele>111.66666666666667</ele><time>2026-04-18T12:26:16.999Z</time></trkpt><trkpt lat="45.14637638824474" lon="8.45177480487712"><ele>111.5</ele><time>2026-04-18T12:26:18Z</time></trkpt><trkpt lat="45.14640535636422" lon="8.451875426126175"><ele>111.33333333333334</ele><time>2026-04-18T12:26:19Z</time></trkpt><trkpt lat="45.146435133929124" lon="8.451973538829035"><ele>111.16666666666667</ele><time>2026-04-18T12:26:20Z</time></trkpt><trkpt lat="45.14646414096063" lon="8.452070896482844"><ele>111.0</ele><time>2026-04-18T12:26:21Z</time></trkpt><trkpt lat="45.14650382661692" lon="8.452214074770325"><ele>111.4</ele><time>2026-04-18T12:26:23Z</time></trkpt><trkpt lat="45.14656109795083" lon="8.452327614109697"><ele>111.8</ele><time>2026-04-18T12:26:25Z</time></trkpt><trkpt lat="45.1466485261018" lon="8.452422686567958"><ele>112.20000000000002</ele><time>2026-04-18T12:26:27Z</time></trkpt><trkpt lat="45.14675832230453" lon="8.45247241136271"><ele>112.60000000000001</ele><time>2026-04-18T12:26:29Z</time></trkpt><trkpt lat="45.14682467990641" lon="8.452489745866952"><ele>113.0</ele><time>2026-04-18T12:26:30Z</time></trkpt><trkpt lat="45.14688810152673" lon="8.452492998169795"><ele>112.99999999999999</ele><time>2026-04-18T12:26:31Z</time></trkpt><trkpt lat="45.147018540068174" lon="8.452517122617476"><ele>113.0</ele><time>2026-04-18T12:26:33Z</time></trkpt><trkpt lat="45.14709244969351" lon="8.452532494106165"><ele>113.0</ele><time>2026-04-18T12:26:34Z</time></trkpt><trkpt lat="45.14716291897577" lon="8.45254836466144"><ele>113.0</ele><time>2026-04-18T12:26:35Z</time></trkpt><trkpt lat="45.14722615294678" lon="8.45256790603806"><ele>112.99999999999999</ele><time>2026-04-18T12:26:36Z</time></trkpt><trkpt lat="45.14729791493076" lon="8.452584672265083"><ele>113.0</ele><time>2026-04-18T12:26:37Z</time></trkpt><trkpt lat="45.14736101663164" lon="8.452609429605474"><ele>113.0</ele><time>2026-04-18T12:26:38Z</time></trkpt><trkpt lat="45.14742186557066" lon="8.45265786414002"><ele>113.0</ele><time>2026-04-18T12:26:39Z</time></trkpt><trkpt lat="45.14747336007065" lon="8.45272539838555"><ele>113.0</ele><time>2026-04-18T12:26:40Z</time></trkpt><trkpt lat="45.14752763043808" lon="8.452800779693819"><ele>113.0</ele><time>2026-04-18T12:26:41Z</time></trkpt><trkpt lat="45.147578424199295" lon="8.452873441188773"><ele>113.0</ele><time>2026-04-18T12:26:42Z</time></trkpt><trkpt lat="45.14762851000889" lon="8.452958047836919"><ele>113.0</ele><time>2026-04-18T12:26:43Z</time></trkpt><trkpt lat="45.14768390491343" lon="8.45302483282623"><ele>113.0</ele><time>2026-04-18T12:26:44Z</time></trkpt><trkpt lat="45.147729911538946" lon="8.453108703825285"><ele>112.57142857142857</ele><time>2026-04-18T12:26:45Z</time></trkpt><trkpt lat="45.147776696260884" lon="8.453182011760916"><ele>112.14285714285714</ele><time>2026-04-18T12:26:46Z</time></trkpt><trkpt lat="45.147817151786015" lon="8.453258986143194"><ele>111.71428571428571</ele><time>2026-04-18T12:26:47Z</time></trkpt><trkpt lat="45.14786225899819" lon="8.453339497895964"><ele>111.28571428571428</ele><time>2026-04-18T12:26:48Z</time></trkpt><trkpt lat="45.14791154934078" lon="8.453406604222257"><ele>110.85714285714286</ele><time>2026-04-18T12:26:49Z</time></trkpt><trkpt lat="45.14796296702487" lon="8.453479209803762"><ele>110.42857142857142</ele><time>2026-04-18T12:26:50Z</time></trkpt><trkpt lat="45.14800551115178" lon="8.453563711044568"><ele>110.0</ele><time>2026-04-18T12:26:51Z</time></trkpt><trkpt lat="45.14804620182406" lon="8.453649754018146"><ele>109.99999999999999</ele><time>2026-04-18T12:26:52.001Z</time></trkpt><trkpt lat="45.14808115419747" lon="8.453741600066989"><ele>110.0</ele><time>2026-04-18T12:26:53.001Z</time></trkpt><trkpt lat="45.148114014557706" lon="8.453829728597409"><ele>110.0</ele><time>2026-04-18T12:26:54.001Z</time></trkpt><trkpt lat="45.14815134699721" lon="8.453923734869422"><ele>110.0</ele><time>2026-04-18T12:26:55.001Z</time></trkpt><trkpt lat="45.14819298787744" lon="8.45401338054807"><ele>109.99999999999999</ele><time>2026-04-18T12:26:56.001Z</time></trkpt><trkpt lat="45.148249083701764" lon="8.45409389519339"><ele>110.0</ele><time>2026-04-18T12:26:57.001Z</time></trkpt><trkpt lat="45.1483153251354" lon="8.45415769337309"><ele>109.83333333333333</ele><time>2026-04-18T12:26:58.001Z</time></trkpt><trkpt lat="45.14838936699258" lon="8.454214356123362"><ele>109.66666666666666</ele><time>2026-04-18T12:26:59.001Z</time></trkpt><trkpt lat="45.148465637363934" lon="8.454254586813438"><ele>109.5</ele><time>2026-04-18T12:27:00.001Z</time></trkpt><trkpt lat="45.14854376587041" lon="8.45429546347802"><ele>109.33333333333334</ele><time>2026-04-18T12:27:01.001Z</time></trkpt><trkpt lat="45.1486037250967" lon="8.454337126956517"><ele>109.16666666666667</ele><time>2026-04-18T12:27:02.001Z</time></trkpt><trkpt lat="45.14867471978908" lon="8.454382445852614"><ele>109.0</ele><time>2026-04-18T12:27:03.001Z</time></trkpt><trkpt lat="45.14874996255098" lon="8.454421015170587"><ele>109.00000000000001</ele><time>2026-04-18T12:27:04.001Z</time></trkpt><trkpt lat="45.14882559528943" lon="8.454456206753619"><ele>109.0</ele><time>2026-04-18T12:27:05.001Z</time></trkpt><trkpt lat="45.14890124002772" lon="8.45450377896947"><ele>109.0</ele><time>2026-04-18T12:27:06.001Z</time></trkpt><trkpt lat="45.14897205954999" lon="8.45456184817182"><ele>109.0</ele><time>2026-04-18T12:27:07.001Z</time></trkpt><trkpt lat="45.149039737490135" lon="8.454629725079867"><ele>109.00000000000001</ele><time>2026-04-18T12:27:08.001Z</time></trkpt><trkpt lat="45.149102524223714" lon="8.454706479417597"><ele>109.0</ele><time>2026-04-18T12:27:09.001Z</time></trkpt><trkpt lat="45.14916168419664" lon="8.454792137275195"><ele>109.00000000000001</ele><time>2026-04-18T12:27:10.001Z</time></trkpt><trkpt lat="45.14922765905937" lon="8.45487710706575"><ele>109.0</ele><time>2026-04-18T12:27:11.001Z</time></trkpt><trkpt lat="45.14927526117007" lon="8.454968493590282"><ele>109.0</ele><time>2026-04-18T12:27:12.001Z</time></trkpt><trkpt lat="45.1493210747848" lon="8.455069563079013"><ele>109.0</ele><time>2026-04-18T12:27:13.001Z</time></trkpt><trkpt lat="45.149361239229286" lon="8.455174523764121"><ele>109.00000000000001</ele><time>2026-04-18T12:27:14.001Z</time></trkpt><trkpt lat="45.14939398433732" lon="8.45528263000001"><ele>109.0</ele><time>2026-04-18T12:27:15.001Z</time></trkpt><trkpt lat="45.149402284357244" lon="8.455395832292737"><ele>108.80000000000001</ele><time>2026-04-18T12:27:16.001Z</time></trkpt><trkpt lat="45.1494236724365" lon="8.455491166990988"><ele>108.60000000000001</ele><time>2026-04-18T12:27:17.001Z</time></trkpt><trkpt lat="45.149393315101165" lon="8.45568105279028"><ele>108.4</ele><time>2026-04-18T12:27:19.001Z</time></trkpt><trkpt lat="45.14936564733201" lon="8.455791785774577"><ele>108.2</ele><time>2026-04-18T12:27:20.001Z</time></trkpt><trkpt lat="45.14935974339997" lon="8.45591629007257"><ele>108.0</ele><time>2026-04-18T12:27:21.001Z</time></trkpt><trkpt lat="45.149338842461404" lon="8.4560323640786"><ele>108.0</ele><time>2026-04-18T12:27:22.001Z</time></trkpt><trkpt lat="45.14930749561133" lon="8.456155739933124"><ele>108.00000000000001</ele><time>2026-04-18T12:27:23.001Z</time></trkpt><trkpt lat="45.149284589484274" lon="8.456290270444168"><ele>108.00000000000001</ele><time>2026-04-18T12:27:24.001Z</time></trkpt><trkpt lat="45.14926429632323" lon="8.456415613566103"><ele>108.0</ele><time>2026-04-18T12:27:25.001Z</time></trkpt><trkpt lat="45.14924509788768" lon="8.45654184365166"><ele>108.0</ele><time>2026-04-18T12:27:26.001Z</time></trkpt><trkpt lat="45.14922826469844" lon="8.456673296171115"><ele>108.16666666666667</ele><time>2026-04-18T12:27:27.001Z</time></trkpt><trkpt lat="45.14921453920597" lon="8.456791413158918"><ele>108.33333333333334</ele><time>2026-04-18T12:27:28.001Z</time></trkpt><trkpt lat="45.14920364451738" lon="8.456898139962801"><ele>108.5</ele><time>2026-04-18T12:27:29.001Z</time></trkpt><trkpt lat="45.149197781470235" lon="8.45700428195875"><ele>108.66666666666667</ele><time>2026-04-18T12:27:30.001Z</time></trkpt><trkpt lat="45.14916490950396" lon="8.457101554834958"><ele>108.83333333333334</ele><time>2026-04-18T12:27:31.001Z</time></trkpt><trkpt lat="45.14919821838652" lon="8.457233016426981"><ele>109.0</ele><time>2026-04-18T12:27:32.001Z</time></trkpt><trkpt lat="45.14921097739056" lon="8.45734317663423"><ele>109.00000000000001</ele><time>2026-04-18T12:27:33.001Z</time></trkpt><trkpt lat="45.149243013479854" lon="8.45745279270389"><ele>109.0</ele><time>2026-04-18T12:27:34.002Z</time></trkpt><trkpt lat="45.14926830046693" lon="8.457570264110892"><ele>109.0</ele><time>2026-04-18T12:27:35.002Z</time></trkpt><trkpt lat="45.149293288018704" lon="8.457684486974122"><ele>109.0</ele><time>2026-04-18T12:27:36.002Z</time></trkpt><trkpt lat="45.149321330569464" lon="8.45780806167761"><ele>109.00000000000001</ele><time>2026-04-18T12:27:37.002Z</time></trkpt><trkpt lat="45.14935115725001" lon="8.457925747953619"><ele>109.0</ele><time>2026-04-18T12:27:38.002Z</time></trkpt><trkpt lat="45.14938420898402" lon="8.458050993010591"><ele>109.0</ele><time>2026-04-18T12:27:39.002Z</time></trkpt><trkpt lat="45.14941740782434" lon="8.458171118464703"><ele>109.0</ele><time>2026-04-18T12:27:40.002Z</time></trkpt><trkpt lat="45.149450647274435" lon="8.458290261820308"><ele>109.0</ele><time>2026-04-18T12:27:41.002Z</time></trkpt><trkpt lat="45.14948679670572" lon="8.458419835755958"><ele>109.0</ele><time>2026-04-18T12:27:42.002Z</time></trkpt><trkpt lat="45.1495231576542" lon="8.458550167798277"><ele>109.0</ele><time>2026-04-18T12:27:43.002Z</time></trkpt><trkpt lat="45.14955499232135" lon="8.458664275854305"><ele>109.00000000000001</ele><time>2026-04-18T12:27:44.002Z</time></trkpt><trkpt lat="45.14958125182135" lon="8.458758400337658"><ele>109.0</ele><time>2026-04-18T12:27:45.002Z</time></trkpt><trkpt lat="45.149606253001394" lon="8.458848014426852"><ele>109.0</ele><time>2026-04-18T12:27:46.002Z</time></trkpt><trkpt lat="45.14964790219831" lon="8.45899730165184"><ele>109.0</ele><time>2026-04-18T12:27:48.002Z</time></trkpt><trkpt lat="45.14969449099123" lon="8.459164295891002"><ele>109.00000000000001</ele><time>2026-04-18T12:27:50.002Z</time></trkpt><trkpt lat="45.14971807724668" lon="8.459254225744557"><ele>109.0</ele><time>2026-04-18T12:27:51.002Z</time></trkpt><trkpt lat="45.1497437673429" lon="8.459348882799427"><ele>108.83333333333334</ele><time>2026-04-18T12:27:52.002Z</time></trkpt><trkpt lat="45.14977149529825" lon="8.459451048533008"><ele>108.66666666666667</ele><time>2026-04-18T12:27:53.002Z</time></trkpt><trkpt lat="45.14980096478718" lon="8.459559962135213"><ele>108.5</ele><time>2026-04-18T12:27:54.002Z</time></trkpt><trkpt lat="45.14983266143471" lon="8.4596772432274"><ele>108.33333333333334</ele><time>2026-04-18T12:27:55.002Z</time></trkpt><trkpt lat="45.14986548092471" lon="8.459798678889555"><ele>108.16666666666667</ele><time>2026-04-18T12:27:56.002Z</time></trkpt><trkpt lat="45.14989432598839" lon="8.459908580754314"><ele>108.0</ele><time>2026-04-18T12:27:57.002Z</time></trkpt><trkpt lat="45.149922854437165" lon="8.460018071514234"><ele>108.0</ele><time>2026-04-18T12:27:58.002Z</time></trkpt><trkpt lat="45.14995183091617" lon="8.460129281751593"><ele>108.0</ele><time>2026-04-18T12:27:59.002Z</time></trkpt><trkpt lat="45.14998203282393" lon="8.460243145142957"><ele>108.0</ele><time>2026-04-18T12:28:00.002Z</time></trkpt><trkpt lat="45.15001325739915" lon="8.460358139613032"><ele>108.0</ele><time>2026-04-18T12:28:01.002Z</time></trkpt><trkpt lat="45.150045706657416" lon="8.46047645632178"><ele>108.0</ele><time>2026-04-18T12:28:02.002Z</time></trkpt><trkpt lat="45.15007715754647" lon="8.460587994260473"><ele>108.0</ele><time>2026-04-18T12:28:03.002Z</time></trkpt><trkpt lat="45.15011218814901" lon="8.460712227278536"><ele>108.4</ele><time>2026-04-18T12:28:04.002Z</time></trkpt><trkpt lat="45.15014668489285" lon="8.460834567145488"><ele>108.80000000000001</ele><time>2026-04-18T12:28:05.002Z</time></trkpt><trkpt lat="45.15018123537082" lon="8.460957097479119"><ele>109.2</ele><time>2026-04-18T12:28:06.002Z</time></trkpt><trkpt lat="45.15021646498" lon="8.46108252902072"><ele>109.6</ele><time>2026-04-18T12:28:07.002Z</time></trkpt><trkpt lat="45.15025080486827" lon="8.461206142531545"><ele>110.0</ele><time>2026-04-18T12:28:07.996Z</time></trkpt><trkpt lat="45.15028496548607" lon="8.461331675327623"><ele>110.0</ele><time>2026-04-18T12:28:08.996Z</time></trkpt><trkpt lat="45.15031621056701" lon="8.46145246734648"><ele>110.0</ele><time>2026-04-18T12:28:09.996Z</time></trkpt><trkpt lat="45.15034821206969" lon="8.461576183675858"><ele>110.0</ele><time>2026-04-18T12:28:10.996Z</time></trkpt><trkpt lat="45.15038028180136" lon="8.461700163764426"><ele>110.0</ele><time>2026-04-18T12:28:11.996Z</time></trkpt><trkpt lat="45.150412737882014" lon="8.461825637464564"><ele>110.0</ele><time>2026-04-18T12:28:12.997Z</time></trkpt><trkpt lat="45.15044387527832" lon="8.461944329411068"><ele>110.0</ele><time>2026-04-18T12:28:13.997Z</time></trkpt><trkpt lat="45.150477105153726" lon="8.462066962806729"><ele>110.0</ele><time>2026-04-18T12:28:14.997Z</time></trkpt><trkpt lat="45.1505114639107" lon="8.462189032019769"><ele>110.0</ele><time>2026-04-18T12:28:15.997Z</time></trkpt><trkpt lat="45.15054527563101" lon="8.462306834650569"><ele>110.0</ele><time>2026-04-18T12:28:16.997Z</time></trkpt><trkpt lat="45.15058100748859" lon="8.462428689450398"><ele>110.0</ele><time>2026-04-18T12:28:17.997Z</time></trkpt><trkpt lat="45.150616590431035" lon="8.462550036405672"><ele>109.8</ele><time>2026-04-18T12:28:18.997Z</time></trkpt><trkpt lat="45.15065311320382" lon="8.462676798823574"><ele>109.6</ele><time>2026-04-18T12:28:19.997Z</time></trkpt><trkpt lat="45.150688405701686" lon="8.462802819636583"><ele>109.4</ele><time>2026-04-18T12:28:20.997Z</time></trkpt><trkpt lat="45.15072191043212" lon="8.4629269993303"><ele>109.2</ele><time>2026-04-18T12:28:21.997Z</time></trkpt><trkpt lat="45.15075602412326" lon="8.463059294149305"><ele>109.0</ele><time>2026-04-18T12:28:22.997Z</time></trkpt><trkpt lat="45.15078944282585" lon="8.463189784833846"><ele>109.0</ele><time>2026-04-18T12:28:23.998Z</time></trkpt><trkpt lat="45.150822857400414" lon="8.463320259397829"><ele>109.0</ele><time>2026-04-18T12:28:24.998Z</time></trkpt><trkpt lat="45.15085592248134" lon="8.463447622220485"><ele>109.0</ele><time>2026-04-18T12:28:25.998Z</time></trkpt><trkpt lat="45.150891584093785" lon="8.463582500602932"><ele>109.0</ele><time>2026-04-18T12:28:26.998Z</time></trkpt><trkpt lat="45.15092508346804" lon="8.46370406527353"><ele>109.0</ele><time>2026-04-18T12:28:27.998Z</time></trkpt><trkpt lat="45.15096266589595" lon="8.463831757372223"><ele>108.80000000000001</ele><time>2026-04-18T12:28:28.998Z</time></trkpt><trkpt lat="45.1510008240073" lon="8.463960873335727"><ele>108.60000000000001</ele><time>2026-04-18T12:28:29.998Z</time></trkpt><trkpt lat="45.15103857656652" lon="8.464089841742775"><ele>108.4</ele><time>2026-04-18T12:28:30.998Z</time></trkpt><trkpt lat="45.151073049808744" lon="8.464220332553701"><ele>108.2</ele><time>2026-04-18T12:28:31.998Z</time></trkpt><trkpt lat="45.151097027699045" lon="8.464341249395002"><ele>108.0</ele><time>2026-04-18T12:28:32.998Z</time></trkpt><trkpt lat="45.15110983129647" lon="8.464465021344397"><ele>108.0</ele><time>2026-04-18T12:28:33.999Z</time></trkpt><trkpt lat="45.151188915724354" lon="8.464567381182578"><ele>108.00000000000001</ele><time>2026-04-18T12:28:34.999Z</time></trkpt><trkpt lat="45.15124967862991" lon="8.464670800253485"><ele>108.00000000000001</ele><time>2026-04-18T12:28:35.999Z</time></trkpt><trkpt lat="45.15131869589842" lon="8.4647717988884"><ele>108.0</ele><time>2026-04-18T12:28:36.999Z</time></trkpt><trkpt lat="45.151391563846275" lon="8.464865660289455"><ele>108.0</ele><time>2026-04-18T12:28:37.999Z</time></trkpt><trkpt lat="45.15146467488666" lon="8.464965096983466"><ele>108.0</ele><time>2026-04-18T12:28:38.999Z</time></trkpt><trkpt lat="45.15155241820741" lon="8.465047339992942"><ele>108.00000000000001</ele><time>2026-04-18T12:28:39.999Z</time></trkpt><trkpt lat="45.15162417677144" lon="8.465141356126658"><ele>108.00000000000001</ele><time>2026-04-18T12:28:40.999Z</time></trkpt><trkpt lat="45.15169363470837" lon="8.46523235766959"><ele>108.0</ele><time>2026-04-18T12:28:41.999Z</time></trkpt><trkpt lat="45.15176095439903" lon="8.465320555836094"><ele>108.0</ele><time>2026-04-18T12:28:42.999Z</time></trkpt><trkpt lat="45.151819676972345" lon="8.465426943307314"><ele>108.16666666666667</ele><time>2026-04-18T12:28:43.999Z</time></trkpt><trkpt lat="45.15189017410571" lon="8.46551589350301"><ele>108.33333333333334</ele><time>2026-04-18T12:28:44.999Z</time></trkpt><trkpt lat="45.151956646727726" lon="8.465602477445804"><ele>108.5</ele><time>2026-04-18T12:28:45.999Z</time></trkpt><trkpt lat="45.1520161150878" lon="8.465692710852544"><ele>108.66666666666667</ele><time>2026-04-18T12:28:46.999Z</time></trkpt><trkpt lat="45.15207138430159" lon="8.465783654556152"><ele>108.83333333333334</ele><time>2026-04-18T12:28:47.999Z</time></trkpt><trkpt lat="45.15214683169287" lon="8.465855719473305"><ele>109.0</ele><time>2026-04-18T12:28:48.999Z</time></trkpt><trkpt lat="45.15219617979875" lon="8.465964447209066"><ele>109.0</ele><time>2026-04-18T12:28:49.999Z</time></trkpt><trkpt lat="45.15225225030966" lon="8.466064499172752"><ele>109.0</ele><time>2026-04-18T12:28:51Z</time></trkpt><trkpt lat="45.15230574658333" lon="8.46617109286096"><ele>109.0</ele><time>2026-04-18T12:28:52Z</time></trkpt><trkpt lat="45.1523565169631" lon="8.466279968516327"><ele>109.0</ele><time>2026-04-18T12:28:53Z</time></trkpt><trkpt lat="45.152409607231434" lon="8.466391458533337"><ele>109.0</ele><time>2026-04-18T12:28:54Z</time></trkpt><trkpt lat="45.15246342944777" lon="8.466500081790013"><ele>108.80000000000001</ele><time>2026-04-18T12:28:55Z</time></trkpt><trkpt lat="45.15251392295222" lon="8.466612392321675"><ele>108.60000000000001</ele><time>2026-04-18T12:28:56Z</time></trkpt><trkpt lat="45.152568759767476" lon="8.466722600677565"><ele>108.4</ele><time>2026-04-18T12:28:57Z</time></trkpt><trkpt lat="45.15261471297975" lon="8.466837375103076"><ele>108.2</ele><time>2026-04-18T12:28:58Z</time></trkpt><trkpt lat="45.15266850355427" lon="8.466945888334653"><ele>108.0</ele><time>2026-04-18T12:28:59Z</time></trkpt><trkpt lat="45.15272191716891" lon="8.467058708370997"><ele>108.2</ele><time>2026-04-18T12:29:00Z</time></trkpt><trkpt lat="45.15275776527134" lon="8.467181747686702"><ele>108.4</ele><time>2026-04-18T12:29:01Z</time></trkpt><trkpt lat="45.15278490095862" lon="8.467299617498245"><ele>108.60000000000001</ele><time>2026-04-18T12:29:02Z</time></trkpt><trkpt lat="45.152804966786704" lon="8.467433819510658"><ele>108.80000000000001</ele><time>2026-04-18T12:29:03Z</time></trkpt><trkpt lat="45.15282115879543" lon="8.467566506826149"><ele>109.0</ele><time>2026-04-18T12:29:04Z</time></trkpt><trkpt lat="45.152852768185376" lon="8.46769591126779"><ele>109.0</ele><time>2026-04-18T12:29:05Z</time></trkpt><trkpt lat="45.15286253931723" lon="8.467831398142275"><ele>109.0</ele><time>2026-04-18T12:29:06Z</time></trkpt><trkpt lat="45.15286849644614" lon="8.467964518421264"><ele>109.0</ele><time>2026-04-18T12:29:07Z</time></trkpt><trkpt lat="45.152856825406914" lon="8.468099725716106"><ele>109.0</ele><time>2026-04-18T12:29:08Z</time></trkpt><trkpt lat="45.15286853293838" lon="8.468233689777676"><ele>109.0</ele><time>2026-04-18T12:29:09Z</time></trkpt><trkpt lat="45.152871083591094" lon="8.468369625093473"><ele>109.0</ele><time>2026-04-18T12:29:10Z</time></trkpt><trkpt lat="45.152870135103704" lon="8.468502967352515"><ele>109.0</ele><time>2026-04-18T12:29:11Z</time></trkpt><trkpt lat="45.15286963052355" lon="8.46863654979761"><ele>109.0</ele><time>2026-04-18T12:29:12Z</time></trkpt><trkpt lat="45.15287178749983" lon="8.468774734208967"><ele>109.0</ele><time>2026-04-18T12:29:13Z</time></trkpt><trkpt lat="45.15287032384934" lon="8.46891339346629"><ele>109.0</ele><time>2026-04-18T12:29:14Z</time></trkpt><trkpt lat="45.152875096569204" lon="8.469050755010926"><ele>108.80000000000001</ele><time>2026-04-18T12:29:15Z</time></trkpt><trkpt lat="45.152875958588446" lon="8.469190479257817"><ele>108.60000000000001</ele><time>2026-04-18T12:29:16Z</time></trkpt><trkpt lat="45.152873896939155" lon="8.469329619981291"><ele>108.4</ele><time>2026-04-18T12:29:17.001Z</time></trkpt><trkpt lat="45.15287497565524" lon="8.46947203733645"><ele>108.2</ele><time>2026-04-18T12:29:18.001Z</time></trkpt><trkpt lat="45.15287723619457" lon="8.469614971894837"><ele>108.0</ele><time>2026-04-18T12:29:19.001Z</time></trkpt><trkpt lat="45.152882931284736" lon="8.46976111791789"><ele>108.4</ele><time>2026-04-18T12:29:20.001Z</time></trkpt><trkpt lat="45.15287902866624" lon="8.46989552611863"><ele>108.80000000000001</ele><time>2026-04-18T12:29:21.001Z</time></trkpt><trkpt lat="45.15287582445268" lon="8.470037316537116"><ele>109.2</ele><time>2026-04-18T12:29:22.001Z</time></trkpt><trkpt lat="45.152869746813515" lon="8.470181608214448"><ele>109.6</ele><time>2026-04-18T12:29:23.001Z</time></trkpt><trkpt lat="45.15285295297812" lon="8.470323241366664"><ele>110.0</ele><time>2026-04-18T12:29:24.001Z</time></trkpt><trkpt lat="45.15283426140214" lon="8.470467041387511"><ele>110.2</ele><time>2026-04-18T12:29:25.001Z</time></trkpt><trkpt lat="45.152812496698374" lon="8.470612651622936"><ele>110.4</ele><time>2026-04-18T12:29:26.001Z</time></trkpt><trkpt lat="45.15279183984" lon="8.470756618722813"><ele>110.6</ele><time>2026-04-18T12:29:27.001Z</time></trkpt><trkpt lat="45.15277608945716" lon="8.470906294144022"><ele>110.8</ele><time>2026-04-18T12:29:28.001Z</time></trkpt><trkpt lat="45.15275734658294" lon="8.471053032980361"><ele>111.0</ele><time>2026-04-18T12:29:29.001Z</time></trkpt><trkpt lat="45.15274835095967" lon="8.471183181812119"><ele>111.0</ele><time>2026-04-18T12:29:30.001Z</time></trkpt><trkpt lat="45.15273476681742" lon="8.471324935554428"><ele>111.0</ele><time>2026-04-18T12:29:31.001Z</time></trkpt><trkpt lat="45.15272953192585" lon="8.471465926446555"><ele>111.0</ele><time>2026-04-18T12:29:32.001Z</time></trkpt><trkpt lat="45.152722030317136" lon="8.47160442104912"><ele>111.0</ele><time>2026-04-18T12:29:33.001Z</time></trkpt><trkpt lat="45.152709675632615" lon="8.471747602537715"><ele>111.0</ele><time>2026-04-18T12:29:34.001Z</time></trkpt><trkpt lat="45.15270314907768" lon="8.471885284514475"><ele>111.0</ele><time>2026-04-18T12:29:35.001Z</time></trkpt><trkpt lat="45.15269701719649" lon="8.472021900075857"><ele>111.0</ele><time>2026-04-18T12:29:36.001Z</time></trkpt><trkpt lat="45.15269245688251" lon="8.472158970442305"><ele>111.0</ele><time>2026-04-18T12:29:37.001Z</time></trkpt><trkpt lat="45.15268627668045" lon="8.472301598571587"><ele>111.0</ele><time>2026-04-18T12:29:38.001Z</time></trkpt><trkpt lat="45.15267743598444" lon="8.472449736877179"><ele>111.0</ele><time>2026-04-18T12:29:39.001Z</time></trkpt><trkpt lat="45.15267062043478" lon="8.47259299191749"><ele>111.0</ele><time>2026-04-18T12:29:40.001Z</time></trkpt><trkpt lat="45.1526648188355" lon="8.472740041378731"><ele>111.0</ele><time>2026-04-18T12:29:41.001Z</time></trkpt><trkpt lat="45.152661535023185" lon="8.47288228792013"><ele>111.0</ele><time>2026-04-18T12:29:42.001Z</time></trkpt><trkpt lat="45.15264935704292" lon="8.473026476561989"><ele>111.0</ele><time>2026-04-18T12:29:43.001Z</time></trkpt><trkpt lat="45.15263403516172" lon="8.473162167677101"><ele>111.0</ele><time>2026-04-18T12:29:44.001Z</time></trkpt><trkpt lat="45.15262115696518" lon="8.473306646725883"><ele>110.6</ele><time>2026-04-18T12:29:45.001Z</time></trkpt><trkpt lat="45.15260521150704" lon="8.473448151273093"><ele>110.19999999999999</ele><time>2026-04-18T12:29:46.001Z</time></trkpt><trkpt lat="45.15258904860386" lon="8.473595644201552"><ele>109.80000000000001</ele><time>2026-04-18T12:29:47.001Z</time></trkpt><trkpt lat="45.15256892123544" lon="8.473737977290254"><ele>109.4</ele><time>2026-04-18T12:29:48.001Z</time></trkpt><trkpt lat="45.1525503504204" lon="8.473885301947757"><ele>109.0</ele><time>2026-04-18T12:29:49.002Z</time></trkpt><trkpt lat="45.1525322945405" lon="8.474029311086046"><ele>108.80000000000001</ele><time>2026-04-18T12:29:50.002Z</time></trkpt><trkpt lat="45.15251342857453" lon="8.474176757268873"><ele>108.60000000000001</ele><time>2026-04-18T12:29:51.002Z</time></trkpt><trkpt lat="45.15249433606641" lon="8.474321652094552"><ele>108.4</ele><time>2026-04-18T12:29:52.002Z</time></trkpt><trkpt lat="45.15248086880236" lon="8.474470715786694"><ele>108.2</ele><time>2026-04-18T12:29:53.002Z</time></trkpt><trkpt lat="45.15246375206288" lon="8.474614091240946"><ele>108.0</ele><time>2026-04-18T12:29:54.002Z</time></trkpt><trkpt lat="45.15244313292153" lon="8.474760116736825"><ele>108.0</ele><time>2026-04-18T12:29:55.002Z</time></trkpt><trkpt lat="45.15241834763746" lon="8.47490430291294"><ele>108.00000000000001</ele><time>2026-04-18T12:29:56.002Z</time></trkpt><trkpt lat="45.15239287450128" lon="8.475044797288339"><ele>108.00000000000001</ele><time>2026-04-18T12:29:57.002Z</time></trkpt><trkpt lat="45.1523667168495" lon="8.475182462731679"><ele>108.0</ele><time>2026-04-18T12:29:58.002Z</time></trkpt><trkpt lat="45.152337206994055" lon="8.4753209170937"><ele>108.0</ele><time>2026-04-18T12:29:59.002Z</time></trkpt><trkpt lat="45.152299922464394" lon="8.475454417236515"><ele>108.80000000000001</ele><time>2026-04-18T12:30:00.002Z</time></trkpt><trkpt lat="45.152262954639184" lon="8.475585215707769"><ele>109.60000000000001</ele><time>2026-04-18T12:30:01.002Z</time></trkpt><trkpt lat="45.15222272897418" lon="8.475714747975582"><ele>110.39999999999999</ele><time>2026-04-18T12:30:02.002Z</time></trkpt><trkpt lat="45.15218565322012" lon="8.47584624629266"><ele>111.19999999999999</ele><time>2026-04-18T12:30:03.002Z</time></trkpt><trkpt lat="45.152148897768946" lon="8.475981454203561"><ele>112.0</ele><time>2026-04-18T12:30:04.002Z</time></trkpt><trkpt lat="45.152108367118096" lon="8.476115270023724"><ele>112.0</ele><time>2026-04-18T12:30:05.002Z</time></trkpt><trkpt lat="45.15206297370872" lon="8.476241993558617"><ele>111.99999999999999</ele><time>2026-04-18T12:30:06.002Z</time></trkpt><trkpt lat="45.15201959478064" lon="8.476367010244267"><ele>111.99999999999999</ele><time>2026-04-18T12:30:07.002Z</time></trkpt><trkpt lat="45.15197764948252" lon="8.476504968641535"><ele>112.0</ele><time>2026-04-18T12:30:08.002Z</time></trkpt><trkpt lat="45.15193930884956" lon="8.476643116606514"><ele>112.0</ele><time>2026-04-18T12:30:09.002Z</time></trkpt><trkpt lat="45.151902077507884" lon="8.476784845561482"><ele>110.8</ele><time>2026-04-18T12:30:10.002Z</time></trkpt><trkpt lat="45.151867500389436" lon="8.476913053437833"><ele>109.6</ele><time>2026-04-18T12:30:11.002Z</time></trkpt><trkpt lat="45.15182447028699" lon="8.477051120916226"><ele>108.39999999999999</ele><time>2026-04-18T12:30:12.002Z</time></trkpt><trkpt lat="45.15179664772615" lon="8.477190854119698"><ele>107.19999999999999</ele><time>2026-04-18T12:30:13.002Z</time></trkpt><trkpt lat="45.15176070467622" lon="8.477329298626586"><ele>106.0</ele><time>2026-04-18T12:30:13.996Z</time></trkpt><trkpt lat="45.151722936713526" lon="8.477464806101302"><ele>106.0</ele><time>2026-04-18T12:30:14.996Z</time></trkpt><trkpt lat="45.15168678515961" lon="8.477620549797551"><ele>106.0</ele><time>2026-04-18T12:30:15.996Z</time></trkpt><trkpt lat="45.15166381342924" lon="8.477748797214293"><ele>106.0</ele><time>2026-04-18T12:30:16.996Z</time></trkpt><trkpt lat="45.15163041763082" lon="8.477892009676788"><ele>106.0</ele><time>2026-04-18T12:30:17.996Z</time></trkpt><trkpt lat="45.15160519287724" lon="8.478031470841593"><ele>106.0</ele><time>2026-04-18T12:30:18.997Z</time></trkpt><trkpt lat="45.151572885319176" lon="8.47816491766425"><ele>106.0</ele><time>2026-04-18T12:30:19.997Z</time></trkpt><trkpt lat="45.15155160931859" lon="8.478309012482535"><ele>106.0</ele><time>2026-04-18T12:30:20.997Z</time></trkpt><trkpt lat="45.151526127609394" lon="8.478440462499197"><ele>106.0</ele><time>2026-04-18T12:30:21.997Z</time></trkpt><trkpt lat="45.15149970635328" lon="8.478576100052951"><ele>106.0</ele><time>2026-04-18T12:30:22.997Z</time></trkpt><trkpt lat="45.15147041707464" lon="8.47871286760198"><ele>106.0</ele><time>2026-04-18T12:30:23.997Z</time></trkpt><trkpt lat="45.15143915091104" lon="8.478854713843473"><ele>106.0</ele><time>2026-04-18T12:30:24.998Z</time></trkpt><trkpt lat="45.15140827016005" lon="8.47899617870456"><ele>106.0</ele><time>2026-04-18T12:30:25.998Z</time></trkpt><trkpt lat="45.15137623483031" lon="8.479134595704942"><ele>106.0</ele><time>2026-04-18T12:30:26.998Z</time></trkpt><trkpt lat="45.15133954886376" lon="8.47926460053146"><ele>106.0</ele><time>2026-04-18T12:30:27.998Z</time></trkpt><trkpt lat="45.15130244095277" lon="8.479401594234524"><ele>106.0</ele><time>2026-04-18T12:30:28.998Z</time></trkpt><trkpt lat="45.15126132287968" lon="8.479536960919102"><ele>106.0</ele><time>2026-04-18T12:30:29.998Z</time></trkpt><trkpt lat="45.151221168950286" lon="8.479667657647859"><ele>106.0</ele><time>2026-04-18T12:30:30.998Z</time></trkpt><trkpt lat="45.1511821244082" lon="8.479804229290941"><ele>106.0</ele><time>2026-04-18T12:30:31.999Z</time></trkpt><trkpt lat="45.15114421589664" lon="8.479943454285618"><ele>106.0</ele><time>2026-04-18T12:30:32.999Z</time></trkpt><trkpt lat="45.15110568773141" lon="8.480079045563071"><ele>106.0</ele><time>2026-04-18T12:30:33.999Z</time></trkpt><trkpt lat="45.151068323183615" lon="8.480215096820869"><ele>106.0</ele><time>2026-04-18T12:30:34.999Z</time></trkpt><trkpt lat="45.15102950202224" lon="8.480344049096852"><ele>106.0</ele><time>2026-04-18T12:30:35.999Z</time></trkpt><trkpt lat="45.15098895872698" lon="8.48047003185737"><ele>106.0</ele><time>2026-04-18T12:30:36.999Z</time></trkpt><trkpt lat="45.15095053682809" lon="8.480600644150103"><ele>106.0</ele><time>2026-04-18T12:30:37.999Z</time></trkpt><trkpt lat="45.15091181358478" lon="8.480736583106117"><ele>106.0</ele><time>2026-04-18T12:30:38.999Z</time></trkpt><trkpt lat="45.150877161521976" lon="8.480871263885872"><ele>106.16666666666667</ele><time>2026-04-18T12:30:39.999Z</time></trkpt><trkpt lat="45.1508451237895" lon="8.48100043073198"><ele>106.33333333333334</ele><time>2026-04-18T12:30:41Z</time></trkpt><trkpt lat="45.15081649063033" lon="8.481106899929593"><ele>106.5</ele><time>2026-04-18T12:30:42Z</time></trkpt><trkpt lat="45.15079502749307" lon="8.481198842589668"><ele>106.66666666666666</ele><time>2026-04-18T12:30:43Z</time></trkpt><trkpt lat="45.150781530459454" lon="8.481299174519147"><ele>106.83333333333333</ele><time>2026-04-18T12:30:44Z</time></trkpt><trkpt lat="45.15079210500249" lon="8.48140842176706"><ele>107.0</ele><time>2026-04-18T12:30:45Z</time></trkpt><trkpt lat="45.15082113346754" lon="8.481528890738675"><ele>107.0</ele><time>2026-04-18T12:30:46Z</time></trkpt><trkpt lat="45.150871890367654" lon="8.48164766066773"><ele>106.99999999999999</ele><time>2026-04-18T12:30:47Z</time></trkpt><trkpt lat="45.150929419860056" lon="8.481749976950406"><ele>106.99999999999999</ele><time>2026-04-18T12:30:48Z</time></trkpt><trkpt lat="45.15100344262787" lon="8.48184729992701"><ele>107.0</ele><time>2026-04-18T12:30:49Z</time></trkpt><trkpt lat="45.151074986154654" lon="8.481928163053471"><ele>107.0</ele><time>2026-04-18T12:30:50Z</time></trkpt><trkpt lat="45.1511321981325" lon="8.482020277917222"><ele>107.0</ele><time>2026-04-18T12:30:51Z</time></trkpt><trkpt lat="45.151202410448086" lon="8.48209730984768"><ele>106.99999999999999</ele><time>2026-04-18T12:30:52Z</time></trkpt><trkpt lat="45.15126387973962" lon="8.482199439643011"><ele>106.99999999999999</ele><time>2026-04-18T12:30:53Z</time></trkpt><trkpt lat="45.15133190913971" lon="8.48229900155908"><ele>107.0</ele><time>2026-04-18T12:30:54Z</time></trkpt><trkpt lat="45.15140030615324" lon="8.482404886313773"><ele>107.0</ele><time>2026-04-18T12:30:55Z</time></trkpt><trkpt lat="45.151469210541364" lon="8.482509725055614"><ele>106.99999999999999</ele><time>2026-04-18T12:30:56Z</time></trkpt><trkpt lat="45.151536934703" lon="8.482620293178675"><ele>107.0</ele><time>2026-04-18T12:30:57.001Z</time></trkpt><trkpt lat="45.15160046544247" lon="8.482722272629607"><ele>107.0</ele><time>2026-04-18T12:30:58.001Z</time></trkpt><trkpt lat="45.151651029229015" lon="8.482801784519296"><ele>107.0</ele><time>2026-04-18T12:30:59.001Z</time></trkpt><trkpt lat="45.15169533997907" lon="8.482876112881602"><ele>106.99999999999999</ele><time>2026-04-18T12:31:00.001Z</time></trkpt><trkpt lat="45.151738729187414" lon="8.482954963737127"><ele>107.0</ele><time>2026-04-18T12:31:01.001Z</time></trkpt><trkpt lat="45.15181026142542" lon="8.483072224336786"><ele>107.39999999999999</ele><time>2026-04-18T12:31:03.001Z</time></trkpt><trkpt lat="45.15189545093979" lon="8.483165945623965"><ele>107.79999999999998</ele><time>2026-04-18T12:31:05.001Z</time></trkpt><trkpt lat="45.15196425389426" lon="8.483233324210723"><ele>108.2</ele><time>2026-04-18T12:31:07.001Z</time></trkpt><trkpt lat="45.15208532311096" lon="8.483205517134556"><ele>108.6</ele><time>2026-04-18T12:31:09.001Z</time></trkpt><trkpt lat="45.152156577217966" lon="8.483190405046894"><ele>109.0</ele><time>2026-04-18T12:31:10.001Z</time></trkpt><trkpt lat="45.15226793496347" lon="8.483198577123154"><ele>109.00000000000001</ele><time>2026-04-18T12:31:12.001Z</time></trkpt><trkpt lat="45.15235943076968" lon="8.483247602888614"><ele>109.0</ele><time>2026-04-18T12:31:14.001Z</time></trkpt><trkpt lat="45.15242117784511" lon="8.483298934793629"><ele>109.0</ele><time>2026-04-18T12:31:16.001Z</time></trkpt><trkpt lat="45.152488782028364" lon="8.48336700519132"><ele>109.0</ele><time>2026-04-18T12:31:18.001Z</time></trkpt><trkpt lat="45.15254725189257" lon="8.483458856267596"><ele>109.00000000000001</ele><time>2026-04-18T12:31:20.001Z</time></trkpt><trkpt lat="45.152572623925565" lon="8.483604885223526"><ele>109.0</ele><time>2026-04-18T12:31:22.002Z</time></trkpt><trkpt lat="45.15252982181478" lon="8.483689671823191"><ele>108.4</ele><time>2026-04-18T12:31:23.002Z</time></trkpt><trkpt lat="45.15249145274985" lon="8.48384605930507"><ele>107.80000000000001</ele><time>2026-04-18T12:31:25.002Z</time></trkpt><trkpt lat="45.15246795548326" lon="8.483943538518703"><ele>107.19999999999999</ele><time>2026-04-18T12:31:26.002Z</time></trkpt><trkpt lat="45.15251246381644" lon="8.48408467355105"><ele>106.6</ele><time>2026-04-18T12:31:28.002Z</time></trkpt><trkpt lat="45.1525727452684" lon="8.484217673077984"><ele>106.0</ele><time>2026-04-18T12:31:30.002Z</time></trkpt><trkpt lat="45.15260872720082" lon="8.484297150909367"><ele>106.00000000000001</ele><time>2026-04-18T12:31:31.002Z</time></trkpt><trkpt lat="45.15265842337949" lon="8.484366460302828"><ele>106.0</ele><time>2026-04-18T12:31:32.002Z</time></trkpt><trkpt lat="45.15270695892294" lon="8.484449269962111"><ele>106.0</ele><time>2026-04-18T12:31:33.002Z</time></trkpt><trkpt lat="45.15276027991587" lon="8.484512213113783"><ele>106.0</ele><time>2026-04-18T12:31:34.002Z</time></trkpt><trkpt lat="45.15281017616994" lon="8.484595669774858"><ele>106.00000000000001</ele><time>2026-04-18T12:31:35.002Z</time></trkpt><trkpt lat="45.152862028715965" lon="8.48467957043008"><ele>106.0</ele><time>2026-04-18T12:31:36.002Z</time></trkpt><trkpt lat="45.152918610403034" lon="8.484773980443682"><ele>105.6</ele><time>2026-04-18T12:31:37.002Z</time></trkpt><trkpt lat="45.15297924657139" lon="8.48487717870055"><ele>105.19999999999999</ele><time>2026-04-18T12:31:38.002Z</time></trkpt><trkpt lat="45.15304529942642" lon="8.48498218486126"><ele>104.80000000000001</ele><time>2026-04-18T12:31:39.002Z</time></trkpt><trkpt lat="45.15311876012624" lon="8.485059656253831"><ele>104.4</ele><time>2026-04-18T12:31:40.002Z</time></trkpt><trkpt lat="45.15317805875497" lon="8.485174491114732"><ele>104.0</ele><time>2026-04-18T12:31:41.002Z</time></trkpt><trkpt lat="45.153241655576664" lon="8.485278344029327"><ele>104.0</ele><time>2026-04-18T12:31:42.002Z</time></trkpt><trkpt lat="45.15331163042735" lon="8.48537607155212"><ele>104.0</ele><time>2026-04-18T12:31:43.002Z</time></trkpt><trkpt lat="45.15337763055411" lon="8.48547889608326"><ele>104.0</ele><time>2026-04-18T12:31:44.002Z</time></trkpt><trkpt lat="45.15344897334232" lon="8.485579528618485"><ele>104.0</ele><time>2026-04-18T12:31:45.002Z</time></trkpt><trkpt lat="45.153516349664365" lon="8.485678919540486"><ele>104.0</ele><time>2026-04-18T12:31:46.002Z</time></trkpt><trkpt lat="45.15358360195933" lon="8.48577639314211"><ele>104.0</ele><time>2026-04-18T12:31:47.002Z</time></trkpt><trkpt lat="45.153645391694404" lon="8.485877332918477"><ele>104.0</ele><time>2026-04-18T12:31:48.002Z</time></trkpt><trkpt lat="45.153713254483385" lon="8.485974050283694"><ele>104.0</ele><time>2026-04-18T12:31:49.002Z</time></trkpt><trkpt lat="45.15378225477448" lon="8.48607501677334"><ele>104.0</ele><time>2026-04-18T12:31:50.002Z</time></trkpt><trkpt lat="45.1538494900405" lon="8.486176906764998"><ele>104.0</ele><time>2026-04-18T12:31:51.002Z</time></trkpt><trkpt lat="45.1539161210549" lon="8.486276761712965"><ele>104.0</ele><time>2026-04-18T12:31:52.002Z</time></trkpt><trkpt lat="45.153984176057314" lon="8.48637890030695"><ele>104.0</ele><time>2026-04-18T12:31:53.003Z</time></trkpt><trkpt lat="45.15405342961165" lon="8.486481647050894"><ele>104.0</ele><time>2026-04-18T12:31:54.003Z</time></trkpt><trkpt lat="45.15412261970149" lon="8.486589433373217"><ele>104.0</ele><time>2026-04-18T12:31:55.003Z</time></trkpt><trkpt lat="45.154198911437405" lon="8.486687715660342"><ele>104.0</ele><time>2026-04-18T12:31:56.003Z</time></trkpt><trkpt lat="45.154266146821534" lon="8.486793460535594"><ele>103.80000000000001</ele><time>2026-04-18T12:31:57.003Z</time></trkpt><trkpt lat="45.15433429182171" lon="8.486901104255809"><ele>103.60000000000001</ele><time>2026-04-18T12:31:58.003Z</time></trkpt><trkpt lat="45.154407410868224" lon="8.48700436855299"><ele>103.4</ele><time>2026-04-18T12:31:59.003Z</time></trkpt><trkpt lat="45.154479569586016" lon="8.487100049915632"><ele>103.2</ele><time>2026-04-18T12:32:00.003Z</time></trkpt><trkpt lat="45.15454923920746" lon="8.487210250699317"><ele>103.0</ele><time>2026-04-18T12:32:01.003Z</time></trkpt><trkpt lat="45.15462391022334" lon="8.487316131249651"><ele>103.0</ele><time>2026-04-18T12:32:02.003Z</time></trkpt><trkpt lat="45.15470012633761" lon="8.487418204279608"><ele>103.0</ele><time>2026-04-18T12:32:03.003Z</time></trkpt><trkpt lat="45.15476802821978" lon="8.487527466319902"><ele>103.0</ele><time>2026-04-18T12:32:04.003Z</time></trkpt><trkpt lat="45.15484982722118" lon="8.487639758031412"><ele>103.0</ele><time>2026-04-18T12:32:05.003Z</time></trkpt><trkpt lat="45.1549114278055" lon="8.48774105359509"><ele>103.0</ele><time>2026-04-18T12:32:06.003Z</time></trkpt><trkpt lat="45.15497611668623" lon="8.48784776995468"><ele>103.60000000000001</ele><time>2026-04-18T12:32:07.003Z</time></trkpt><trkpt lat="45.155044745405405" lon="8.487958413807634"><ele>104.2</ele><time>2026-04-18T12:32:08.003Z</time></trkpt><trkpt lat="45.15511401183595" lon="8.488063665488774"><ele>104.8</ele><time>2026-04-18T12:32:09.003Z</time></trkpt><trkpt lat="45.15518753196821" lon="8.488165637395504"><ele>105.4</ele><time>2026-04-18T12:32:10.003Z</time></trkpt><trkpt lat="45.15525213549412" lon="8.488274692602939"><ele>106.0</ele><time>2026-04-18T12:32:11.003Z</time></trkpt><trkpt lat="45.15532372825174" lon="8.48837842095533"><ele>106.0</ele><time>2026-04-18T12:32:12.003Z</time></trkpt><trkpt lat="45.155381333570986" lon="8.48849814514791"><ele>106.0</ele><time>2026-04-18T12:32:13.003Z</time></trkpt><trkpt lat="45.15543280139527" lon="8.488620085740642"><ele>106.0</ele><time>2026-04-18T12:32:14.003Z</time></trkpt><trkpt lat="45.15548250103518" lon="8.488742947276899"><ele>106.0</ele><time>2026-04-18T12:32:15.003Z</time></trkpt><trkpt lat="45.15552334302905" lon="8.488875865052563"><ele>106.0</ele><time>2026-04-18T12:32:16.003Z</time></trkpt><trkpt lat="45.155568486276415" lon="8.489002918182983"><ele>106.00000000000001</ele><time>2026-04-18T12:32:17.003Z</time></trkpt><trkpt lat="45.15561054939818" lon="8.489131784735152"><ele>106.0</ele><time>2026-04-18T12:32:18.003Z</time></trkpt><trkpt lat="45.1556336928558" lon="8.489236501352703"><ele>106.0</ele><time>2026-04-18T12:32:19.003Z</time></trkpt><trkpt lat="45.15566303011031" lon="8.489333492098016"><ele>106.0</ele><time>2026-04-18T12:32:19.998Z</time></trkpt><trkpt lat="45.15568399086077" lon="8.489440135009778"><ele>106.00000000000001</ele><time>2026-04-18T12:32:20.998Z</time></trkpt><trkpt lat="45.155713321990234" lon="8.48952064178122"><ele>106.0</ele><time>2026-04-18T12:32:21.998Z</time></trkpt><trkpt lat="45.15574816181073" lon="8.489669265023963"><ele>105.83333333333334</ele><time>2026-04-18T12:32:23.998Z</time></trkpt><trkpt lat="45.1557751128352" lon="8.489793723170928"><ele>105.66666666666667</ele><time>2026-04-18T12:32:25.998Z</time></trkpt><trkpt lat="45.15582001944668" lon="8.489868360991967"><ele>105.5</ele><time>2026-04-18T12:32:28.999Z</time></trkpt><trkpt lat="45.15594886317827" lon="8.48985451206071"><ele>105.33333333333334</ele><time>2026-04-18T12:32:29.999Z</time></trkpt><trkpt lat="45.15601748801628" lon="8.489837150710146"><ele>105.16666666666667</ele><time>2026-04-18T12:32:30.999Z</time></trkpt><trkpt lat="45.156082257588594" lon="8.489820140701223"><ele>105.0</ele><time>2026-04-18T12:32:31.999Z</time></trkpt><trkpt lat="45.15614439561328" lon="8.48980251534993"><ele>105.0</ele><time>2026-04-18T12:32:32.999Z</time></trkpt><trkpt lat="45.15625271384356" lon="8.489746620017588"><ele>105.0</ele><time>2026-04-18T12:32:34.999Z</time></trkpt><trkpt lat="45.156316545201584" lon="8.489769553196663"><ele>105.0</ele><time>2026-04-18T12:32:35.999Z</time></trkpt><trkpt lat="45.15638235386924" lon="8.489820890902356"><ele>105.0</ele><time>2026-04-18T12:32:36.999Z</time></trkpt><trkpt lat="45.156441313266576" lon="8.489893234027969"><ele>105.0</ele><time>2026-04-18T12:32:37.999Z</time></trkpt><trkpt lat="45.15649785883843" lon="8.489995230797856"><ele>105.0</ele><time>2026-04-18T12:32:38.999Z</time></trkpt><trkpt lat="45.15654769233855" lon="8.49010538955768"><ele>104.8</ele><time>2026-04-18T12:32:39.999Z</time></trkpt><trkpt lat="45.15658944073759" lon="8.490234223033388"><ele>104.6</ele><time>2026-04-18T12:32:40.999Z</time></trkpt><trkpt lat="45.156625470240385" lon="8.49036695629958"><ele>104.4</ele><time>2026-04-18T12:32:42Z</time></trkpt><trkpt lat="45.15666545552834" lon="8.490479481233463"><ele>104.2</ele><time>2026-04-18T12:32:43Z</time></trkpt><trkpt lat="45.15671542014439" lon="8.490591386775337"><ele>104.0</ele><time>2026-04-18T12:32:44Z</time></trkpt><trkpt lat="45.156772924987386" lon="8.49069393734992"><ele>104.0</ele><time>2026-04-18T12:32:45Z</time></trkpt><trkpt lat="45.156842778672264" lon="8.490800917261739"><ele>104.0</ele><time>2026-04-18T12:32:46Z</time></trkpt><trkpt lat="45.15691805933835" lon="8.490906323675139"><ele>104.0</ele><time>2026-04-18T12:32:47Z</time></trkpt><trkpt lat="45.15698641784232" lon="8.49101863898233"><ele>104.0</ele><time>2026-04-18T12:32:48Z</time></trkpt><trkpt lat="45.15705731476781" lon="8.491128729638643"><ele>104.0</ele><time>2026-04-18T12:32:49Z</time></trkpt><trkpt lat="45.1571270244326" lon="8.49124048327323"><ele>104.0</ele><time>2026-04-18T12:32:50Z</time></trkpt><trkpt lat="45.157191960305354" lon="8.491356667960964"><ele>104.0</ele><time>2026-04-18T12:32:51Z</time></trkpt><trkpt lat="45.157254508516154" lon="8.491472141106348"><ele>104.0</ele><time>2026-04-18T12:32:52Z</time></trkpt><trkpt lat="45.15730993916564" lon="8.49159736766686"><ele>104.0</ele><time>2026-04-18T12:32:53Z</time></trkpt><trkpt lat="45.15736529566693" lon="8.491718569675822"><ele>104.0</ele><time>2026-04-18T12:32:54Z</time></trkpt><trkpt lat="45.15741760922434" lon="8.49184141593344"><ele>104.0</ele><time>2026-04-18T12:32:55Z</time></trkpt><trkpt lat="45.15747165776842" lon="8.491959196763037"><ele>104.0</ele><time>2026-04-18T12:32:56Z</time></trkpt><trkpt lat="45.157514930350864" lon="8.492088905068332"><ele>104.0</ele><time>2026-04-18T12:32:57Z</time></trkpt><trkpt lat="45.15756006765342" lon="8.49221133880389"><ele>104.0</ele><time>2026-04-18T12:32:58Z</time></trkpt><trkpt lat="45.157603263931016" lon="8.492340290054589"><ele>104.0</ele><time>2026-04-18T12:32:59Z</time></trkpt><trkpt lat="45.15763479738228" lon="8.492478566380749"><ele>104.0</ele><time>2026-04-18T12:33:00.001Z</time></trkpt><trkpt lat="45.157665096802766" lon="8.492619109339547"><ele>104.0</ele><time>2026-04-18T12:33:01.001Z</time></trkpt><trkpt lat="45.157696266378984" lon="8.492760498478296"><ele>104.0</ele><time>2026-04-18T12:33:02.001Z</time></trkpt><trkpt lat="45.157729769000085" lon="8.492900104991"><ele>104.0</ele><time>2026-04-18T12:33:03.001Z</time></trkpt><trkpt lat="45.15776425287751" lon="8.49304403265877"><ele>104.0</ele><time>2026-04-18T12:33:04.001Z</time></trkpt><trkpt lat="45.157778994038146" lon="8.49318247338021"><ele>104.0</ele><time>2026-04-18T12:33:05.001Z</time></trkpt><trkpt lat="45.15779851239557" lon="8.49329718067095"><ele>104.0</ele><time>2026-04-18T12:33:06.001Z</time></trkpt><trkpt lat="45.157812565177586" lon="8.49341803148781"><ele>104.0</ele><time>2026-04-18T12:33:07.001Z</time></trkpt><trkpt lat="45.157810538050676" lon="8.4935604482633"><ele>104.0</ele><time>2026-04-18T12:33:08.001Z</time></trkpt><trkpt lat="45.157814313566966" lon="8.49369012501726"><ele>104.0</ele><time>2026-04-18T12:33:09.001Z</time></trkpt><trkpt lat="45.15781776837133" lon="8.493837174692048"><ele>104.0</ele><time>2026-04-18T12:33:10.001Z</time></trkpt><trkpt lat="45.157821080458035" lon="8.493976971280862"><ele>104.0</ele><time>2026-04-18T12:33:11.001Z</time></trkpt><trkpt lat="45.1578116648203" lon="8.494116196079009"><ele>104.0</ele><time>2026-04-18T12:33:12.001Z</time></trkpt><trkpt lat="45.157795248746986" lon="8.494262401935897"><ele>104.0</ele><time>2026-04-18T12:33:13.001Z</time></trkpt><trkpt lat="45.157778769736524" lon="8.494413461067417"><ele>104.0</ele><time>2026-04-18T12:33:14.001Z</time></trkpt><trkpt lat="45.157761615686766" lon="8.494570776543023"><ele>104.0</ele><time>2026-04-18T12:33:15.001Z</time></trkpt><trkpt lat="45.15774336761145" lon="8.494729471312692"><ele>104.0</ele><time>2026-04-18T12:33:16.001Z</time></trkpt><trkpt lat="45.15772651302551" lon="8.494886353921071"><ele>104.0</ele><time>2026-04-18T12:33:17.001Z</time></trkpt><trkpt lat="45.15771305391295" lon="8.495043012595739"><ele>104.0</ele><time>2026-04-18T12:33:18.001Z</time></trkpt><trkpt lat="45.15769806223741" lon="8.495192946753017"><ele>104.0</ele><time>2026-04-18T12:33:19.001Z</time></trkpt><trkpt lat="45.15768205468566" lon="8.495337151217475"><ele>103.99999999999999</ele><time>2026-04-18T12:33:20.001Z</time></trkpt><trkpt lat="45.15766761830979" lon="8.49545732705451"><ele>104.0</ele><time>2026-04-18T12:33:21.001Z</time></trkpt><trkpt lat="45.15765701684991" lon="8.495575261198292"><ele>104.0</ele><time>2026-04-18T12:33:22.001Z</time></trkpt><trkpt lat="45.15766468643677" lon="8.495698285887594"><ele>104.0</ele><time>2026-04-18T12:33:23.001Z</time></trkpt><trkpt lat="45.1576825679434" lon="8.495826809021755"><ele>103.99999999999999</ele><time>2026-04-18T12:33:24.001Z</time></trkpt><trkpt lat="45.157710490727766" lon="8.495959061644497"><ele>104.0</ele><time>2026-04-18T12:33:25.001Z</time></trkpt><trkpt lat="45.15776390674141" lon="8.496084731320336"><ele>104.0</ele><time>2026-04-18T12:33:26.001Z</time></trkpt><trkpt lat="45.15783170489703" lon="8.496207288708993"><ele>104.0</ele><time>2026-04-18T12:33:27.002Z</time></trkpt><trkpt lat="45.157903833455585" lon="8.496333153810799"><ele>104.0</ele><time>2026-04-18T12:33:28.002Z</time></trkpt><trkpt lat="45.15797150856015" lon="8.496464539957422"><ele>104.0</ele><time>2026-04-18T12:33:29.002Z</time></trkpt><trkpt lat="45.158041864712814" lon="8.496584656090029"><ele>104.0</ele><time>2026-04-18T12:33:30.002Z</time></trkpt><trkpt lat="45.158109156358776" lon="8.49670803525084"><ele>104.0</ele><time>2026-04-18T12:33:31.002Z</time></trkpt><trkpt lat="45.15817538284181" lon="8.496831817486145"><ele>104.0</ele><time>2026-04-18T12:33:32.002Z</time></trkpt><trkpt lat="45.1582411083412" lon="8.496953081458102"><ele>104.0</ele><time>2026-04-18T12:33:33.002Z</time></trkpt><trkpt lat="45.15830682069925" lon="8.497071711413803"><ele>104.0</ele><time>2026-04-18T12:33:34.002Z</time></trkpt><trkpt lat="45.158364243452056" lon="8.497174442797363"><ele>104.0</ele><time>2026-04-18T12:33:35.002Z</time></trkpt><trkpt lat="45.158419262916595" lon="8.497263471297885"><ele>103.99999999999999</ele><time>2026-04-18T12:33:36.002Z</time></trkpt><trkpt lat="45.15847133623838" lon="8.497338064407314"><ele>104.0</ele><time>2026-04-18T12:33:37.002Z</time></trkpt><trkpt lat="45.15853049819947" lon="8.497407961660159"><ele>104.0</ele><time>2026-04-18T12:33:38.002Z</time></trkpt><trkpt lat="45.15859522133112" lon="8.497476021834903"><ele>104.0</ele><time>2026-04-18T12:33:39.002Z</time></trkpt><trkpt lat="45.15866380130123" lon="8.49753907799662"><ele>103.99999999999999</ele><time>2026-04-18T12:33:40.002Z</time></trkpt><trkpt lat="45.15873049221232" lon="8.497581442525055"><ele>104.0</ele><time>2026-04-18T12:33:41.002Z</time></trkpt><trkpt lat="45.158791489623994" lon="8.497617701141326"><ele>104.0</ele><time>2026-04-18T12:33:42.002Z</time></trkpt><trkpt lat="45.15889534015896" lon="8.4976712418235"><ele>104.0</ele><time>2026-04-18T12:33:44.002Z</time></trkpt><trkpt lat="45.158963601049344" lon="8.497732624631304"><ele>104.0</ele><time>2026-04-18T12:33:46.002Z</time></trkpt><trkpt lat="45.15896851865686" lon="8.497927644865655"><ele>104.0</ele><time>2026-04-18T12:33:49.002Z</time></trkpt><trkpt lat="45.15896710174292" lon="8.498045354893195"><ele>104.0</ele><time>2026-04-18T12:33:50.002Z</time></trkpt><trkpt lat="45.1589718161946" lon="8.498182764148513"><ele>103.80000000000001</ele><time>2026-04-18T12:33:51.002Z</time></trkpt><trkpt lat="45.158982108408516" lon="8.498345503192292"><ele>103.60000000000001</ele><time>2026-04-18T12:33:52.002Z</time></trkpt><trkpt lat="45.15899700598278" lon="8.498503958962312"><ele>103.4</ele><time>2026-04-18T12:33:53.002Z</time></trkpt><trkpt lat="45.159004477539284" lon="8.498653554291806"><ele>103.2</ele><time>2026-04-18T12:33:54.002Z</time></trkpt><trkpt lat="45.15900878859769" lon="8.498787913568743"><ele>103.0</ele><time>2026-04-18T12:33:55.002Z</time></trkpt><trkpt lat="45.15901182084142" lon="8.498892070940494"><ele>103.0</ele><time>2026-04-18T12:33:56.002Z</time></trkpt><trkpt lat="45.15902088553923" lon="8.499027548227522"><ele>103.0</ele><time>2026-04-18T12:33:57.002Z</time></trkpt><trkpt lat="45.15902657807018" lon="8.49916504641522"><ele>103.0</ele><time>2026-04-18T12:33:58.002Z</time></trkpt><trkpt lat="45.15903247212874" lon="8.499306194138883"><ele>103.0</ele><time>2026-04-18T12:33:59.003Z</time></trkpt><trkpt lat="45.159041154853654" lon="8.499441064503552"><ele>103.0</ele><time>2026-04-18T12:34:00.003Z</time></trkpt><trkpt lat="45.15904503816035" lon="8.499574873421096"><ele>103.00000000000001</ele><time>2026-04-18T12:34:01.003Z</time></trkpt><trkpt lat="45.15904826849851" lon="8.499674810963958"><ele>103.0</ele><time>2026-04-18T12:34:02.003Z</time></trkpt><trkpt lat="45.15905331387832" lon="8.499790072558438"><ele>103.0</ele><time>2026-04-18T12:34:03.003Z</time></trkpt><trkpt lat="45.15906444186473" lon="8.499925422987783"><ele>103.0</ele><time>2026-04-18T12:34:04.003Z</time></trkpt><trkpt lat="45.15906924144116" lon="8.500032655130758"><ele>103.00000000000001</ele><time>2026-04-18T12:34:05.003Z</time></trkpt><trkpt lat="45.15907146764661" lon="8.50015338507777"><ele>103.0</ele><time>2026-04-18T12:34:06.003Z</time></trkpt><trkpt lat="45.15907660533816" lon="8.500291481341426"><ele>102.83333333333334</ele><time>2026-04-18T12:34:07.003Z</time></trkpt><trkpt lat="45.15908232056252" lon="8.500425822804297"><ele>102.66666666666667</ele><time>2026-04-18T12:34:08.003Z</time></trkpt><trkpt lat="45.15908709491223" lon="8.50053289595639"><ele>102.5</ele><time>2026-04-18T12:34:09.003Z</time></trkpt><trkpt lat="45.159091872974585" lon="8.50064508913658"><ele>102.33333333333334</ele><time>2026-04-18T12:34:10.003Z</time></trkpt><trkpt lat="45.159096635211185" lon="8.500769188829578"><ele>102.16666666666667</ele><time>2026-04-18T12:34:11.003Z</time></trkpt><trkpt lat="45.159094990731504" lon="8.500908215282406"><ele>102.0</ele><time>2026-04-18T12:34:12.003Z</time></trkpt><trkpt lat="45.159086167948104" lon="8.501058151714396"><ele>102.0</ele><time>2026-04-18T12:34:13.003Z</time></trkpt><trkpt lat="45.15907542239913" lon="8.501217215152334"><ele>102.0</ele><time>2026-04-18T12:34:14.003Z</time></trkpt><trkpt lat="45.15906825480432" lon="8.50136628363188"><ele>102.0</ele><time>2026-04-18T12:34:15.003Z</time></trkpt><trkpt lat="45.1590621017414" lon="8.501517131011274"><ele>102.0</ele><time>2026-04-18T12:34:16.003Z</time></trkpt><trkpt lat="45.159056695295604" lon="8.501678306175247"><ele>102.0</ele><time>2026-04-18T12:34:17.003Z</time></trkpt><trkpt lat="45.15904953372857" lon="8.501838048873195"><ele>102.19999999999999</ele><time>2026-04-18T12:34:18.003Z</time></trkpt><trkpt lat="45.159041904962656" lon="8.502002728497729"><ele>102.4</ele><time>2026-04-18T12:34:19.003Z</time></trkpt><trkpt lat="45.159035096934794" lon="8.50215665667971"><ele>102.6</ele><time>2026-04-18T12:34:20.003Z</time></trkpt><trkpt lat="45.159030909228775" lon="8.502302576759524"><ele>102.80000000000001</ele><time>2026-04-18T12:34:21.003Z</time></trkpt><trkpt lat="45.159028137146976" lon="8.502450140989378"><ele>103.0</ele><time>2026-04-18T12:34:22.003Z</time></trkpt><trkpt lat="45.15902129966777" lon="8.502587511008512"><ele>103.2</ele><time>2026-04-18T12:34:23.003Z</time></trkpt><trkpt lat="45.15901471959476" lon="8.502720951645806"><ele>103.4</ele><time>2026-04-18T12:34:24.003Z</time></trkpt><trkpt lat="45.15900984341029" lon="8.502844667286874"><ele>103.60000000000001</ele><time>2026-04-18T12:34:25.003Z</time></trkpt><trkpt lat="45.159001623435174" lon="8.502972899853269"><ele>103.80000000000001</ele><time>2026-04-18T12:34:25.998Z</time></trkpt><trkpt lat="45.158996148737366" lon="8.503120956414525"><ele>104.0</ele><time>2026-04-18T12:34:26.998Z</time></trkpt><trkpt lat="45.158988948030306" lon="8.50327172527177"><ele>103.83333333333333</ele><time>2026-04-18T12:34:27.998Z</time></trkpt><trkpt lat="45.15898618466439" lon="8.503395189577999"><ele>103.66666666666666</ele><time>2026-04-18T12:34:28.998Z</time></trkpt><trkpt lat="45.15898225711215" lon="8.503492159223807"><ele>103.5</ele><time>2026-04-18T12:34:29.998Z</time></trkpt><trkpt lat="45.158976556145255" lon="8.503614260948225"><ele>103.33333333333334</ele><time>2026-04-18T12:34:30.999Z</time></trkpt><trkpt lat="45.15897258914406" lon="8.503741168372526"><ele>103.16666666666667</ele><time>2026-04-18T12:34:31.999Z</time></trkpt><trkpt lat="45.15896957732879" lon="8.503866491093802"><ele>103.0</ele><time>2026-04-18T12:34:32.999Z</time></trkpt><trkpt lat="45.15896214388343" lon="8.503994630221232"><ele>103.00000000000001</ele><time>2026-04-18T12:34:33.999Z</time></trkpt><trkpt lat="45.15895376890273" lon="8.504112888937625"><ele>103.0</ele><time>2026-04-18T12:34:34.999Z</time></trkpt><trkpt lat="45.15894673010278" lon="8.504236826222485"><ele>103.0</ele><time>2026-04-18T12:34:35.999Z</time></trkpt><trkpt lat="45.15894637973237" lon="8.504351388309313"><ele>103.0</ele><time>2026-04-18T12:34:36.999Z</time></trkpt><trkpt lat="45.15894180724976" lon="8.50448114079175"><ele>103.00000000000001</ele><time>2026-04-18T12:34:37.999Z</time></trkpt><trkpt lat="45.15893957473286" lon="8.504599841211729"><ele>103.0</ele><time>2026-04-18T12:34:38.999Z</time></trkpt><trkpt lat="45.15893349279907" lon="8.504731350639796"><ele>102.83333333333334</ele><time>2026-04-18T12:34:39.999Z</time></trkpt><trkpt lat="45.15892628505754" lon="8.504869398989676"><ele>102.66666666666667</ele><time>2026-04-18T12:34:40.999Z</time></trkpt><trkpt lat="45.158919232174185" lon="8.504993093425709"><ele>102.5</ele><time>2026-04-18T12:34:41.999Z</time></trkpt><trkpt lat="45.15891236398678" lon="8.505121679301666"><ele>102.33333333333334</ele><time>2026-04-18T12:34:42.999Z</time></trkpt><trkpt lat="45.158908364034815" lon="8.505230772396354"><ele>102.16666666666667</ele><time>2026-04-18T12:34:43.999Z</time></trkpt><trkpt lat="45.15890499591575" lon="8.505322296495981"><ele>102.0</ele><time>2026-04-18T12:34:45Z</time></trkpt><trkpt lat="45.158899886567404" lon="8.505418423214815"><ele>102.0</ele><time>2026-04-18T12:34:46Z</time></trkpt><trkpt lat="45.15889528715549" lon="8.505575950793588"><ele>102.0</ele><time>2026-04-18T12:34:48Z</time></trkpt><trkpt lat="45.158879202725274" lon="8.505742600495692"><ele>102.0</ele><time>2026-04-18T12:34:50Z</time></trkpt><trkpt lat="45.15886229464554" lon="8.505836752434282"><ele>102.0</ele><time>2026-04-18T12:34:51Z</time></trkpt><trkpt lat="45.158846932575536" lon="8.505944771198106"><ele>102.0</ele><time>2026-04-18T12:34:52Z</time></trkpt><trkpt lat="45.15883572765811" lon="8.506052918428296"><ele>102.0</ele><time>2026-04-18T12:34:53Z</time></trkpt><trkpt lat="45.15884033044249" lon="8.506161718069173"><ele>102.0</ele><time>2026-04-18T12:34:54Z</time></trkpt><trkpt lat="45.15886134617875" lon="8.50627478735792"><ele>102.0</ele><time>2026-04-18T12:34:55Z</time></trkpt><trkpt lat="45.15890122043774" lon="8.50639150629067"><ele>102.0</ele><time>2026-04-18T12:34:56Z</time></trkpt><trkpt lat="45.1589574504611" lon="8.506493936557693"><ele>102.0</ele><time>2026-04-18T12:34:57Z</time></trkpt><trkpt lat="45.15901768047256" lon="8.506591892974665"><ele>102.0</ele><time>2026-04-18T12:34:58Z</time></trkpt><trkpt lat="45.15907889825155" lon="8.50669822565985"><ele>102.19999999999999</ele><time>2026-04-18T12:34:59Z</time></trkpt><trkpt lat="45.15914043386206" lon="8.506809098842849"><ele>102.4</ele><time>2026-04-18T12:35:00Z</time></trkpt><trkpt lat="45.1592033961396" lon="8.506911222304964"><ele>102.6</ele><time>2026-04-18T12:35:01Z</time></trkpt><trkpt lat="45.159279965288064" lon="8.507019586226535"><ele>102.80000000000001</ele><time>2026-04-18T12:35:02.001Z</time></trkpt><trkpt lat="45.15934800902479" lon="8.507139500376326"><ele>103.0</ele><time>2026-04-18T12:35:03.001Z</time></trkpt><trkpt lat="45.15942584587219" lon="8.507256074734572"><ele>103.25</ele><time>2026-04-18T12:35:04.001Z</time></trkpt><trkpt lat="45.159500565310516" lon="8.507384046206502"><ele>103.5</ele><time>2026-04-18T12:35:05.001Z</time></trkpt><trkpt lat="45.15957894245618" lon="8.507518246188027"><ele>103.75</ele><time>2026-04-18T12:35:06.001Z</time></trkpt><trkpt lat="45.1596566942524" lon="8.507653468581365"><ele>104.0</ele><time>2026-04-18T12:35:07.001Z</time></trkpt><trkpt lat="45.159741483655345" lon="8.507799493859713"><ele>104.0</ele><time>2026-04-18T12:35:08.001Z</time></trkpt><trkpt lat="45.159820608211994" lon="8.507952435120751"><ele>104.0</ele><time>2026-04-18T12:35:09.001Z</time></trkpt><trkpt lat="45.159899122283676" lon="8.508099457564716"><ele>104.0</ele><time>2026-04-18T12:35:10.001Z</time></trkpt><trkpt lat="45.15997632195531" lon="8.508252481048743"><ele>104.0</ele><time>2026-04-18T12:35:11.001Z</time></trkpt><trkpt lat="45.16004999581433" lon="8.508403956605731"><ele>103.5</ele><time>2026-04-18T12:35:12.001Z</time></trkpt><trkpt lat="45.16011836837943" lon="8.508556371784412"><ele>103.0</ele><time>2026-04-18T12:35:13.001Z</time></trkpt><trkpt lat="45.16018412620067" lon="8.508721109339799"><ele>102.5</ele><time>2026-04-18T12:35:14.001Z</time></trkpt><trkpt lat="45.16023546488396" lon="8.508882640187457"><ele>102.0</ele><time>2026-04-18T12:35:15.001Z</time></trkpt><trkpt lat="45.16028444375048" lon="8.509037793772753"><ele>102.0</ele><time>2026-04-18T12:35:16.001Z</time></trkpt><trkpt lat="45.1603337335273" lon="8.509163889145647"><ele>102.0</ele><time>2026-04-18T12:35:17.001Z</time></trkpt><trkpt lat="45.16037317033907" lon="8.509285600472449"><ele>102.0</ele><time>2026-04-18T12:35:18.001Z</time></trkpt><trkpt lat="45.16040892830831" lon="8.509404343732026"><ele>102.0</ele><time>2026-04-18T12:35:19.001Z</time></trkpt><trkpt lat="45.16045385136734" lon="8.509502402445651"><ele>102.0</ele><time>2026-04-18T12:35:20.001Z</time></trkpt><trkpt lat="45.16049996742672" lon="8.509595610110651"><ele>102.0</ele><time>2026-04-18T12:35:21.001Z</time></trkpt><trkpt lat="45.16054861763524" lon="8.509692391509585"><ele>102.0</ele><time>2026-04-18T12:35:22.001Z</time></trkpt><trkpt lat="45.160617097565016" lon="8.50976084530864"><ele>102.0</ele><time>2026-04-18T12:35:23.001Z</time></trkpt><trkpt lat="45.16069690159527" lon="8.509832033651943"><ele>102.0</ele><time>2026-04-18T12:35:24.001Z</time></trkpt><trkpt lat="45.16079641455906" lon="8.50988480766095"><ele>102.0</ele><time>2026-04-18T12:35:25.001Z</time></trkpt><trkpt lat="45.16090466628456" lon="8.509932569232241"><ele>102.19999999999999</ele><time>2026-04-18T12:35:26.001Z</time></trkpt><trkpt lat="45.16100044569907" lon="8.509976932765529"><ele>102.4</ele><time>2026-04-18T12:35:27.001Z</time></trkpt><trkpt lat="45.16108056523611" lon="8.51001793238281"><ele>102.6</ele><time>2026-04-18T12:35:28.001Z</time></trkpt><trkpt lat="45.16114690119167" lon="8.51006355912661"><ele>102.80000000000001</ele><time>2026-04-18T12:35:29.002Z</time></trkpt><trkpt lat="45.1612091536391" lon="8.510096106800779"><ele>103.0</ele><time>2026-04-18T12:35:30.002Z</time></trkpt><trkpt lat="45.161285836711315" lon="8.510242026865672"><ele>103.0</ele><time>2026-04-18T12:35:32.002Z</time></trkpt><trkpt lat="45.161292858066865" lon="8.510346824349607"><ele>103.0</ele><time>2026-04-18T12:35:33.002Z</time></trkpt><trkpt lat="45.16129212375658" lon="8.510464771822546"><ele>103.0</ele><time>2026-04-18T12:35:34.002Z</time></trkpt><trkpt lat="45.161283608502195" lon="8.510598560507011"><ele>103.0</ele><time>2026-04-18T12:35:35.002Z</time></trkpt><trkpt lat="45.16127817727353" lon="8.510744330097921"><ele>103.0</ele><time>2026-04-18T12:35:36.002Z</time></trkpt><trkpt lat="45.1612783105638" lon="8.510895620613534"><ele>103.2</ele><time>2026-04-18T12:35:37.002Z</time></trkpt><trkpt lat="45.16127929544125" lon="8.511047457758643"><ele>103.4</ele><time>2026-04-18T12:35:38.002Z</time></trkpt><trkpt lat="45.16127556446305" lon="8.51119910280339"><ele>103.60000000000001</ele><time>2026-04-18T12:35:39.002Z</time></trkpt><trkpt lat="45.16127565055279" lon="8.511353591572718"><ele>103.80000000000001</ele><time>2026-04-18T12:35:40.002Z</time></trkpt><trkpt lat="45.16127825095144" lon="8.511511229057946"><ele>104.0</ele><time>2026-04-18T12:35:41.002Z</time></trkpt><trkpt lat="45.16127990013969" lon="8.511665052510319"><ele>103.75</ele><time>2026-04-18T12:35:42.002Z</time></trkpt><trkpt lat="45.161294083065506" lon="8.51181981603598"><ele>103.5</ele><time>2026-04-18T12:35:43.002Z</time></trkpt><trkpt lat="45.16129522744128" lon="8.511977268526259"><ele>103.25</ele><time>2026-04-18T12:35:44.002Z</time></trkpt><trkpt lat="45.161280418695554" lon="8.512141967171363"><ele>103.0</ele><time>2026-04-18T12:35:45.002Z</time></trkpt><trkpt lat="45.1612844925557" lon="8.512308617259247"><ele>103.0</ele><time>2026-04-18T12:35:46.002Z</time></trkpt><trkpt lat="45.16128934106634" lon="8.512478172961035"><ele>103.0</ele><time>2026-04-18T12:35:47.002Z</time></trkpt><trkpt lat="45.16128316051666" lon="8.512644997480916"><ele>103.0</ele><time>2026-04-18T12:35:48.002Z</time></trkpt><trkpt lat="45.16128662535798" lon="8.512811646235214"><ele>103.0</ele><time>2026-04-18T12:35:49.002Z</time></trkpt><trkpt lat="45.161290013271056" lon="8.51298386123816"><ele>103.0</ele><time>2026-04-18T12:35:50.002Z</time></trkpt><trkpt lat="45.16128992230452" lon="8.51315742206038"><ele>103.0</ele><time>2026-04-18T12:35:51.002Z</time></trkpt><trkpt lat="45.1612875589621" lon="8.513337707463537"><ele>103.0</ele><time>2026-04-18T12:35:52.002Z</time></trkpt><trkpt lat="45.1612878498234" lon="8.513498306700026"><ele>103.0</ele><time>2026-04-18T12:35:53.002Z</time></trkpt><trkpt lat="45.16128994391304" lon="8.513682919858859"><ele>102.75</ele><time>2026-04-18T12:35:54.002Z</time></trkpt><trkpt lat="45.16129056963135" lon="8.51385840942854"><ele>102.5</ele><time>2026-04-18T12:35:55.002Z</time></trkpt><trkpt lat="45.161287380780344" lon="8.51403519334547"><ele>102.25</ele><time>2026-04-18T12:35:56.002Z</time></trkpt><trkpt lat="45.161285161104665" lon="8.514210854619938"><ele>102.0</ele><time>2026-04-18T12:35:57.002Z</time></trkpt><trkpt lat="45.161286544776665" lon="8.514390183175996"><ele>102.0</ele><time>2026-04-18T12:35:58.002Z</time></trkpt><trkpt lat="45.161288278237016" lon="8.514565362468039"><ele>102.0</ele><time>2026-04-18T12:35:59.002Z</time></trkpt><trkpt lat="45.16128968291399" lon="8.514740593216544"><ele>102.0</ele><time>2026-04-18T12:36:00.002Z</time></trkpt><trkpt lat="45.1612918002114" lon="8.514893835955453"><ele>102.0</ele><time>2026-04-18T12:36:01.003Z</time></trkpt><trkpt lat="45.16129344366192" lon="8.515036623847442"><ele>102.19999999999999</ele><time>2026-04-18T12:36:02.003Z</time></trkpt><trkpt lat="45.161291650754265" lon="8.515186517790465"><ele>102.4</ele><time>2026-04-18T12:36:03.003Z</time></trkpt><trkpt lat="45.161290378101114" lon="8.515337120467978"><ele>102.6</ele><time>2026-04-18T12:36:04.003Z</time></trkpt><trkpt lat="45.16129315816463" lon="8.515465278870142"><ele>102.80000000000001</ele><time>2026-04-18T12:36:05.003Z</time></trkpt><trkpt lat="45.16129307742389" lon="8.515590072571932"><ele>103.0</ele><time>2026-04-18T12:36:06.003Z</time></trkpt><trkpt lat="45.16129595630035" lon="8.515702195519363"><ele>103.00000000000001</ele><time>2026-04-18T12:36:07.003Z</time></trkpt><trkpt lat="45.1613010593462" lon="8.515803646183441"><ele>103.0</ele><time>2026-04-18T12:36:08.003Z</time></trkpt><trkpt lat="45.161312992563126" lon="8.515975784239002"><ele>103.0</ele><time>2026-04-18T12:36:10.003Z</time></trkpt><trkpt lat="45.16133234125779" lon="8.516071916236486"><ele>103.0</ele><time>2026-04-18T12:36:11.003Z</time></trkpt><trkpt lat="45.161343796083024" lon="8.516175364486601"><ele>103.00000000000001</ele><time>2026-04-18T12:36:12.003Z</time></trkpt><trkpt lat="45.16141591186757" lon="8.516265961350172"><ele>103.0</ele><time>2026-04-18T12:36:13.003Z</time></trkpt><trkpt lat="45.16147665323258" lon="8.516365828319033"><ele>103.2</ele><time>2026-04-18T12:36:14.003Z</time></trkpt><trkpt lat="45.161534981728394" lon="8.516469278569156"><ele>103.4</ele><time>2026-04-18T12:36:15.003Z</time></trkpt><trkpt lat="45.161591133626004" lon="8.516583537315265"><ele>103.60000000000001</ele><time>2026-04-18T12:36:16.003Z</time></trkpt><trkpt lat="45.16163965964964" lon="8.516696450883886"><ele>103.80000000000001</ele><time>2026-04-18T12:36:17.003Z</time></trkpt><trkpt lat="45.16168492465637" lon="8.516807507709245"><ele>104.0</ele><time>2026-04-18T12:36:18.003Z</time></trkpt><trkpt lat="45.16172558298254" lon="8.516919088010347"><ele>104.0</ele><time>2026-04-18T12:36:19.003Z</time></trkpt><trkpt lat="45.16175087041999" lon="8.517043289378883"><ele>104.0</ele><time>2026-04-18T12:36:20.003Z</time></trkpt><trkpt lat="45.16175567515668" lon="8.517181995659545"><ele>104.0</ele><time>2026-04-18T12:36:21.003Z</time></trkpt><trkpt lat="45.161740357139955" lon="8.517319356315575"><ele>104.0</ele><time>2026-04-18T12:36:22.003Z</time></trkpt><trkpt lat="45.16172287030519" lon="8.517444484266266"><ele>104.0</ele><time>2026-04-18T12:36:23.003Z</time></trkpt><trkpt lat="45.16171220203884" lon="8.517576109563752"><ele>104.0</ele><time>2026-04-18T12:36:24.003Z</time></trkpt><trkpt lat="45.161702324630355" lon="8.517697070122509"><ele>104.0</ele><time>2026-04-18T12:36:25.003Z</time></trkpt><trkpt lat="45.16169064086066" lon="8.517839021922047"><ele>104.0</ele><time>2026-04-18T12:36:26.003Z</time></trkpt><trkpt lat="45.16167948280851" lon="8.517964043830611"><ele>104.0</ele><time>2026-04-18T12:36:27.003Z</time></trkpt><trkpt lat="45.161671542099725" lon="8.518070791678985"><ele>104.0</ele><time>2026-04-18T12:36:28.003Z</time></trkpt><trkpt lat="45.161672023557344" lon="8.518215308116655"><ele>103.99999999999999</ele><time>2026-04-18T12:36:30.003Z</time></trkpt><trkpt lat="45.16172264026106" lon="8.518295312011631"><ele>104.0</ele><time>2026-04-18T12:36:32.998Z</time></trkpt><trkpt lat="45.16178899986996" lon="8.518344606828295"><ele>104.0</ele><time>2026-04-18T12:36:34.998Z</time></trkpt><trkpt lat="45.16180386003458" lon="8.51849534806154"><ele>104.0</ele><time>2026-04-18T12:36:36.998Z</time></trkpt><trkpt lat="45.16178728933541" lon="8.518602681725518"><ele>103.99999999999999</ele><time>2026-04-18T12:36:37.998Z</time></trkpt><trkpt lat="45.16177550445032" lon="8.518730297661875"><ele>104.0</ele><time>2026-04-18T12:36:38.998Z</time></trkpt><trkpt lat="45.16177108181682" lon="8.518882724635473"><ele>104.0</ele><time>2026-04-18T12:36:39.999Z</time></trkpt><trkpt lat="45.16177900631327" lon="8.519035787917351"><ele>104.0</ele><time>2026-04-18T12:36:40.999Z</time></trkpt><trkpt lat="45.161789612384545" lon="8.51920314831623"><ele>104.0</ele><time>2026-04-18T12:36:41.999Z</time></trkpt><trkpt lat="45.16180131932522" lon="8.519379086806174"><ele>104.0</ele><time>2026-04-18T12:36:42.999Z</time></trkpt><trkpt lat="45.16181597252353" lon="8.519562124465262"><ele>104.0</ele><time>2026-04-18T12:36:43.999Z</time></trkpt><trkpt lat="45.16183641966543" lon="8.519751353750882"><ele>104.0</ele><time>2026-04-18T12:36:44.999Z</time></trkpt><trkpt lat="45.16185732889031" lon="8.519935273613315"><ele>104.0</ele><time>2026-04-18T12:36:45.999Z</time></trkpt><trkpt lat="45.16187726552521" lon="8.52009129207854"><ele>104.0</ele><time>2026-04-18T12:36:46.999Z</time></trkpt><trkpt lat="45.161902589501764" lon="8.520231829382851"><ele>104.0</ele><time>2026-04-18T12:36:47.999Z</time></trkpt><trkpt lat="45.16194399122093" lon="8.520352938071369"><ele>104.0</ele><time>2026-04-18T12:36:48.999Z</time></trkpt><trkpt lat="45.161999664033665" lon="8.520453830759829"><ele>104.0</ele><time>2026-04-18T12:36:49.999Z</time></trkpt><trkpt lat="45.16204204062976" lon="8.52055728131327"><ele>104.0</ele><time>2026-04-18T12:36:50.999Z</time></trkpt><trkpt lat="45.16205449872145" lon="8.520688746369245"><ele>104.0</ele><time>2026-04-18T12:36:51.999Z</time></trkpt><trkpt lat="45.16205115799031" lon="8.520836412846776"><ele>104.0</ele><time>2026-04-18T12:36:53Z</time></trkpt><trkpt lat="45.162049547463745" lon="8.520989829831635"><ele>104.0</ele><time>2026-04-18T12:36:54Z</time></trkpt><trkpt lat="45.16205700773881" lon="8.521138334315546"><ele>104.0</ele><time>2026-04-18T12:36:55Z</time></trkpt><trkpt lat="45.16207570361092" lon="8.521276252789418"><ele>104.0</ele><time>2026-04-18T12:36:56Z</time></trkpt><trkpt lat="45.16207580653824" lon="8.521427961135254"><ele>104.0</ele><time>2026-04-18T12:36:57Z</time></trkpt><trkpt lat="45.16204674877154" lon="8.521572487717995"><ele>104.0</ele><time>2026-04-18T12:36:58Z</time></trkpt><trkpt lat="45.16200445482001" lon="8.52170900160537"><ele>104.0</ele><time>2026-04-18T12:36:59Z</time></trkpt><trkpt lat="45.161974708123" lon="8.521853571135965"><ele>104.0</ele><time>2026-04-18T12:37:00Z</time></trkpt><trkpt lat="45.1619649806136" lon="8.522023585404272"><ele>104.0</ele><time>2026-04-18T12:37:01Z</time></trkpt><trkpt lat="45.16197787997895" lon="8.52219563303702"><ele>104.0</ele><time>2026-04-18T12:37:02Z</time></trkpt><trkpt lat="45.16199627784187" lon="8.522382883735828"><ele>104.0</ele><time>2026-04-18T12:37:03Z</time></trkpt><trkpt lat="45.16201088245838" lon="8.522573905742552"><ele>104.0</ele><time>2026-04-18T12:37:04Z</time></trkpt><trkpt lat="45.16202146832586" lon="8.522759500953477"><ele>104.0</ele><time>2026-04-18T12:37:05Z</time></trkpt><trkpt lat="45.16203039973974" lon="8.522926856585187"><ele>104.0</ele><time>2026-04-18T12:37:06Z</time></trkpt><trkpt lat="45.16203668522507" lon="8.523080576077202"><ele>104.0</ele><time>2026-04-18T12:37:07Z</time></trkpt><trkpt lat="45.162043646700376" lon="8.523224870961972"><ele>104.0</ele><time>2026-04-18T12:37:08Z</time></trkpt><trkpt lat="45.16205274085416" lon="8.523353819666317"><ele>104.0</ele><time>2026-04-18T12:37:09Z</time></trkpt><trkpt lat="45.162063958313105" lon="8.5234766103294"><ele>104.0</ele><time>2026-04-18T12:37:10Z</time></trkpt><trkpt lat="45.16207093576098" lon="8.523585349201953"><ele>103.99999999999999</ele><time>2026-04-18T12:37:11.001Z</time></trkpt><trkpt lat="45.16207348413432" lon="8.52369049362223"><ele>104.0</ele><time>2026-04-18T12:37:12.001Z</time></trkpt><trkpt lat="45.16208060933537" lon="8.523788636042351"><ele>104.0</ele><time>2026-04-18T12:37:13.001Z</time></trkpt><trkpt lat="45.16209515051712" lon="8.523923658603984"><ele>104.0</ele><time>2026-04-18T12:37:15.001Z</time></trkpt><trkpt lat="45.16215260725578" lon="8.523981436424696"><ele>103.99999999999999</ele><time>2026-04-18T12:37:17.001Z</time></trkpt><trkpt lat="45.16226634943897" lon="8.523970496106122"><ele>104.0</ele><time>2026-04-18T12:37:19.001Z</time></trkpt><trkpt lat="45.162345026197706" lon="8.523950446500011"><ele>104.2</ele><time>2026-04-18T12:37:20.001Z</time></trkpt><trkpt lat="45.16243493930877" lon="8.523931540871565"><ele>104.4</ele><time>2026-04-18T12:37:21.001Z</time></trkpt><trkpt lat="45.16253770660039" lon="8.52391131787011"><ele>104.6</ele><time>2026-04-18T12:37:22.001Z</time></trkpt><trkpt lat="45.16264151914957" lon="8.523892327122322"><ele>104.8</ele><time>2026-04-18T12:37:23.001Z</time></trkpt><trkpt lat="45.162744105002005" lon="8.523880382810885"><ele>105.0</ele><time>2026-04-18T12:37:24.001Z</time></trkpt><trkpt lat="45.16285527564727" lon="8.523865978551267"><ele>105.0</ele><time>2026-04-18T12:37:25.001Z</time></trkpt><trkpt lat="45.162967835695085" lon="8.523852666279003"><ele>105.0</ele><time>2026-04-18T12:37:26.001Z</time></trkpt><trkpt lat="45.16307073293863" lon="8.52383583484327"><ele>105.0</ele><time>2026-04-18T12:37:27.001Z</time></trkpt><trkpt lat="45.16316244720902" lon="8.523819265306388"><ele>105.0</ele><time>2026-04-18T12:37:28.001Z</time></trkpt><trkpt lat="45.16324672281489" lon="8.523813692389034"><ele>105.0</ele><time>2026-04-18T12:37:29.001Z</time></trkpt><trkpt lat="45.163319164591606" lon="8.523801553426104"><ele>105.0</ele><time>2026-04-18T12:37:30.001Z</time></trkpt><trkpt lat="45.163386383724585" lon="8.523795257117788"><ele>105.0</ele><time>2026-04-18T12:37:31.001Z</time></trkpt><trkpt lat="45.163477572105016" lon="8.523788127534882"><ele>105.0</ele><time>2026-04-18T12:37:33.001Z</time></trkpt><trkpt lat="45.16354170084785" lon="8.52378866763743"><ele>105.0</ele><time>2026-04-18T12:37:35.001Z</time></trkpt><trkpt lat="45.16360923534481" lon="8.523786198083764"><ele>105.0</ele><time>2026-04-18T12:37:38.001Z</time></trkpt><trkpt lat="45.16369796751964" lon="8.523758887585165"><ele>105.0</ele><time>2026-04-18T12:38:11.003Z</time></trkpt><trkpt lat="45.16376885242267" lon="8.523764410049052"><ele>105.0</ele><time>2026-04-18T12:38:13.003Z</time></trkpt><trkpt lat="45.16383812521575" lon="8.523736675288022"><ele>105.0</ele><time>2026-04-18T12:38:15.003Z</time></trkpt><trkpt lat="45.163903722129774" lon="8.523742189715001"><ele>105.0</ele><time>2026-04-18T12:38:19.003Z</time></trkpt><trkpt lat="45.163978518074416" lon="8.523729866776998"><ele>105.0</ele><time>2026-04-18T12:38:23.003Z</time></trkpt><trkpt lat="45.16405494904568" lon="8.523622183515535"><ele>105.0</ele><time>2026-04-18T12:38:25.003Z</time></trkpt><trkpt lat="45.16411993535954" lon="8.523613187131303"><ele>105.0</ele><time>2026-04-18T12:38:26.003Z</time></trkpt><trkpt lat="45.16418777136233" lon="8.52359074596677"><ele>105.33333333333333</ele><time>2026-04-18T12:38:27.003Z</time></trkpt><trkpt lat="45.16425724008085" lon="8.523578568242346"><ele>105.66666666666666</ele><time>2026-04-18T12:38:28.003Z</time></trkpt><trkpt lat="45.16432635519676" lon="8.523566726712852"><ele>106.0</ele><time>2026-04-18T12:38:29.003Z</time></trkpt><trkpt lat="45.16440200309486" lon="8.523561194768806"><ele>106.33333333333333</ele><time>2026-04-18T12:38:30.003Z</time></trkpt><trkpt lat="45.16452418784266" lon="8.523583180889174"><ele>106.66666666666666</ele><time>2026-04-18T12:38:32.003Z</time></trkpt><trkpt lat="45.16458620551952" lon="8.523563963498487"><ele>107.0</ele><time>2026-04-18T12:38:33.003Z</time></trkpt><trkpt lat="45.164679410929175" lon="8.523581940599016"><ele>107.0</ele><time>2026-04-18T12:38:35.003Z</time></trkpt><trkpt lat="45.164759782251984" lon="8.52361729492146"><ele>106.99999999999999</ele><time>2026-04-18T12:38:37.003Z</time></trkpt><trkpt lat="45.16482506852005" lon="8.523670380789238"><ele>106.99999999999999</ele><time>2026-04-18T12:38:38.998Z</time></trkpt><trkpt lat="45.16484168216971" lon="8.523816842478428"><ele>107.0</ele><time>2026-04-18T12:38:40.998Z</time></trkpt><trkpt lat="45.164958885733704" lon="8.523817565333896"><ele>107.0</ele><time>2026-04-18T12:38:42.998Z</time></trkpt><trkpt lat="45.16503060531497" lon="8.523809532367888"><ele>106.8</ele><time>2026-04-18T12:38:43.999Z</time></trkpt><trkpt lat="45.165140895049575" lon="8.523813236031662"><ele>106.6</ele><time>2026-04-18T12:38:45.999Z</time></trkpt><trkpt lat="45.165240904028515" lon="8.523708219130386"><ele>106.39999999999999</ele><time>2026-04-18T12:38:47.999Z</time></trkpt><trkpt lat="45.1653001916588" lon="8.523639227872774"><ele>106.19999999999999</ele><time>2026-04-18T12:38:48.999Z</time></trkpt><trkpt lat="45.165376030433315" lon="8.523538731116151"><ele>106.0</ele><time>2026-04-18T12:38:50.999Z</time></trkpt><trkpt lat="45.165489580578225" lon="8.523501807434268"><ele>106.0</ele><time>2026-04-18T12:38:52.999Z</time></trkpt><trkpt lat="45.16557769619885" lon="8.523504315251843"><ele>106.0</ele><time>2026-04-18T12:38:53.999Z</time></trkpt><trkpt lat="45.16567476498764" lon="8.523502829231244"><ele>106.0</ele><time>2026-04-18T12:38:54.999Z</time></trkpt><trkpt lat="45.16578306362126" lon="8.523502829231909"><ele>106.0</ele><time>2026-04-18T12:38:55.999Z</time></trkpt><trkpt lat="45.16590304145565" lon="8.523482192870585"><ele>106.0</ele><time>2026-04-18T12:38:56.999Z</time></trkpt><trkpt lat="45.16602745432245" lon="8.5234834347361"><ele>105.8</ele><time>2026-04-18T12:38:57.999Z</time></trkpt><trkpt lat="45.16614709574529" lon="8.523478777428389"><ele>105.6</ele><time>2026-04-18T12:38:59Z</time></trkpt><trkpt lat="45.16626021572119" lon="8.523475888646855"><ele>105.4</ele><time>2026-04-18T12:39:00Z</time></trkpt><trkpt lat="45.16635901294489" lon="8.523471464372705"><ele>105.2</ele><time>2026-04-18T12:39:01Z</time></trkpt><trkpt lat="45.16644987179738" lon="8.523475437879787"><ele>105.0</ele><time>2026-04-18T12:39:02Z</time></trkpt><trkpt lat="45.16655547187408" lon="8.523478416030974"><ele>105.0</ele><time>2026-04-18T12:39:03Z</time></trkpt><trkpt lat="45.16665440042577" lon="8.523498151484414"><ele>105.0</ele><time>2026-04-18T12:39:04Z</time></trkpt><trkpt lat="45.16673955369243" lon="8.52351124163702"><ele>105.0</ele><time>2026-04-18T12:39:05Z</time></trkpt><trkpt lat="45.16681608639847" lon="8.523526774458327"><ele>105.0</ele><time>2026-04-18T12:39:06Z</time></trkpt><trkpt lat="45.16688074955369" lon="8.523532252698395"><ele>105.0</ele><time>2026-04-18T12:39:07Z</time></trkpt><trkpt lat="45.16696389737161" lon="8.52353310941055"><ele>105.0</ele><time>2026-04-18T12:39:09Z</time></trkpt><trkpt lat="45.16701109124242" lon="8.523694966617759"><ele>105.2</ele><time>2026-04-18T12:39:12Z</time></trkpt><trkpt lat="45.167003702134714" lon="8.523885164216365"><ele>105.4</ele><time>2026-04-18T12:39:14Z</time></trkpt><trkpt lat="45.16700573587157" lon="8.523992311526198"><ele>105.6</ele><time>2026-04-18T12:39:15Z</time></trkpt><trkpt lat="45.1670330548873" lon="8.524123158673259"><ele>105.8</ele><time>2026-04-18T12:39:17.001Z</time></trkpt><trkpt lat="45.167140133042295" lon="8.52413445111946"><ele>106.0</ele><time>2026-04-18T12:39:19.001Z</time></trkpt><trkpt lat="45.167221621194486" lon="8.524113263646287"><ele>106.0</ele><time>2026-04-18T12:39:20.001Z</time></trkpt><trkpt lat="45.16732020819921" lon="8.52411395839411"><ele>106.0</ele><time>2026-04-18T12:39:21.001Z</time></trkpt><trkpt lat="45.167424339058385" lon="8.524080218599646"><ele>106.0</ele><time>2026-04-18T12:39:22.001Z</time></trkpt><trkpt lat="45.167534016387535" lon="8.524072385461524"><ele>106.0</ele><time>2026-04-18T12:39:23.001Z</time></trkpt><trkpt lat="45.16765064344971" lon="8.524061178649776"><ele>106.0</ele><time>2026-04-18T12:39:24.001Z</time></trkpt><trkpt lat="45.1677752962882" lon="8.524043610704473"><ele>105.75</ele><time>2026-04-18T12:39:25.001Z</time></trkpt><trkpt lat="45.1679022385644" lon="8.52402417485272"><ele>105.5</ele><time>2026-04-18T12:39:26.001Z</time></trkpt><trkpt lat="45.16802212585579" lon="8.524002639680692"><ele>105.25</ele><time>2026-04-18T12:39:27.001Z</time></trkpt><trkpt lat="45.168151698947774" lon="8.52398199980008"><ele>105.0</ele><time>2026-04-18T12:39:28.001Z</time></trkpt><trkpt lat="45.16828093784829" lon="8.523959166756315"><ele>104.75</ele><time>2026-04-18T12:39:29.001Z</time></trkpt><trkpt lat="45.168411083236784" lon="8.52393853951017"><ele>104.5</ele><time>2026-04-18T12:39:30.001Z</time></trkpt><trkpt lat="45.168547439941285" lon="8.52391980710248"><ele>104.25</ele><time>2026-04-18T12:39:31.001Z</time></trkpt><trkpt lat="45.16867661187982" lon="8.523914122552513"><ele>104.0</ele><time>2026-04-18T12:39:32.001Z</time></trkpt><trkpt lat="45.16880504997727" lon="8.523916844743063"><ele>104.0</ele><time>2026-04-18T12:39:33.001Z</time></trkpt><trkpt lat="45.16893201418242" lon="8.523916719704106"><ele>104.0</ele><time>2026-04-18T12:39:34.001Z</time></trkpt><trkpt lat="45.16905985561989" lon="8.523914919436937"><ele>104.0</ele><time>2026-04-18T12:39:35.001Z</time></trkpt><trkpt lat="45.16919021596724" lon="8.523915279207449"><ele>104.0</ele><time>2026-04-18T12:39:36.001Z</time></trkpt><trkpt lat="45.16932282449347" lon="8.523910108826454"><ele>103.75</ele><time>2026-04-18T12:39:37.001Z</time></trkpt><trkpt lat="45.16945228769567" lon="8.523907075620162"><ele>103.5</ele><time>2026-04-18T12:39:38.001Z</time></trkpt><trkpt lat="45.169582987937176" lon="8.523904490730203"><ele>103.25</ele><time>2026-04-18T12:39:39.001Z</time></trkpt><trkpt lat="45.169717521565225" lon="8.523900537746762"><ele>103.0</ele><time>2026-04-18T12:39:40.001Z</time></trkpt><trkpt lat="45.16985262401538" lon="8.523894727938963"><ele>103.25</ele><time>2026-04-18T12:39:41.001Z</time></trkpt><trkpt lat="45.169992241341596" lon="8.523891183874868"><ele>103.5</ele><time>2026-04-18T12:39:42.001Z</time></trkpt><trkpt lat="45.1701336619776" lon="8.523889770644947"><ele>103.75</ele><time>2026-04-18T12:39:43.001Z</time></trkpt><trkpt lat="45.17027536883227" lon="8.52389247849156"><ele>104.0</ele><time>2026-04-18T12:39:44.001Z</time></trkpt><trkpt lat="45.17041487723134" lon="8.523902101732215"><ele>104.0</ele><time>2026-04-18T12:39:45.001Z</time></trkpt><trkpt lat="45.17055435049085" lon="8.52392815881346"><ele>104.0</ele><time>2026-04-18T12:39:46.002Z</time></trkpt><trkpt lat="45.17068961059165" lon="8.523966981970904"><ele>104.0</ele><time>2026-04-18T12:39:47.002Z</time></trkpt><trkpt lat="45.17082530391835" lon="8.524021317271782"><ele>104.0</ele><time>2026-04-18T12:39:48.002Z</time></trkpt><trkpt lat="45.17095663606914" lon="8.524091035419811"><ele>103.5</ele><time>2026-04-18T12:39:49.002Z</time></trkpt><trkpt lat="45.1710843935917" lon="8.52417377390553"><ele>103.0</ele><time>2026-04-18T12:39:50.002Z</time></trkpt><trkpt lat="45.171210775121544" lon="8.524263696220782"><ele>102.5</ele><time>2026-04-18T12:39:51.002Z</time></trkpt><trkpt lat="45.17133228665059" lon="8.524363503531807"><ele>102.0</ele><time>2026-04-18T12:39:52.002Z</time></trkpt><trkpt lat="45.17144746891798" lon="8.524466678436694"><ele>102.19999999999999</ele><time>2026-04-18T12:39:53.002Z</time></trkpt><trkpt lat="45.171552928535554" lon="8.524562197070242"><ele>102.4</ele><time>2026-04-18T12:39:54.002Z</time></trkpt><trkpt lat="45.17164369529194" lon="8.524647809405403"><ele>102.6</ele><time>2026-04-18T12:39:55.002Z</time></trkpt><trkpt lat="45.17171806367637" lon="8.524715108617055"><ele>102.80000000000001</ele><time>2026-04-18T12:39:56.002Z</time></trkpt><trkpt lat="45.171782672907604" lon="8.524758574871257"><ele>103.0</ele><time>2026-04-18T12:39:57.002Z</time></trkpt><trkpt lat="45.17184699622223" lon="8.524757465932906"><ele>103.0</ele><time>2026-04-18T12:39:58.002Z</time></trkpt><trkpt lat="45.17198844838274" lon="8.524641379508488"><ele>103.0</ele><time>2026-04-18T12:40:00.002Z</time></trkpt><trkpt lat="45.172045619923196" lon="8.524502289559662"><ele>103.0</ele><time>2026-04-18T12:40:01.002Z</time></trkpt><trkpt lat="45.17210380436125" lon="8.524353442161978"><ele>103.0</ele><time>2026-04-18T12:40:02.002Z</time></trkpt><trkpt lat="45.17216917568376" lon="8.524199322256017"><ele>103.0</ele><time>2026-04-18T12:40:03.002Z</time></trkpt><trkpt lat="45.17224137965182" lon="8.524033517595687"><ele>103.0</ele><time>2026-04-18T12:40:04.002Z</time></trkpt><trkpt lat="45.17232071931126" lon="8.523855074131447"><ele>103.0</ele><time>2026-04-18T12:40:05.002Z</time></trkpt><trkpt lat="45.17240173809108" lon="8.523672854186064"><ele>103.0</ele><time>2026-04-18T12:40:06.002Z</time></trkpt><trkpt lat="45.172482396481776" lon="8.52349144475416"><ele>103.5</ele><time>2026-04-18T12:40:07.002Z</time></trkpt><trkpt lat="45.17256240662882" lon="8.523310835176668"><ele>104.0</ele><time>2026-04-18T12:40:08.002Z</time></trkpt><trkpt lat="45.17263923409275" lon="8.523136216184314"><ele>104.5</ele><time>2026-04-18T12:40:09.002Z</time></trkpt><trkpt lat="45.172706709385544" lon="8.52298522759143"><ele>105.0</ele><time>2026-04-18T12:40:10.002Z</time></trkpt><trkpt lat="45.172773844493705" lon="8.522836079020255"><ele>105.0</ele><time>2026-04-18T12:40:11.002Z</time></trkpt><trkpt lat="45.17283310094939" lon="8.522702059402818"><ele>105.0</ele><time>2026-04-18T12:40:12.002Z</time></trkpt><trkpt lat="45.17288511199614" lon="8.522577400007453"><ele>105.0</ele><time>2026-04-18T12:40:13.002Z</time></trkpt><trkpt lat="45.172921828270916" lon="8.522470072687437"><ele>105.0</ele><time>2026-04-18T12:40:14.002Z</time></trkpt><trkpt lat="45.172958433869866" lon="8.522380909809128"><ele>105.0</ele><time>2026-04-18T12:40:15.002Z</time></trkpt><trkpt lat="45.17299739810856" lon="8.522306086465745"><ele>105.0</ele><time>2026-04-18T12:40:16.002Z</time></trkpt><trkpt lat="45.17305687605793" lon="8.52225829756647"><ele>105.0</ele><time>2026-04-18T12:40:17.002Z</time></trkpt><trkpt lat="45.173146891057705" lon="8.5222449946712"><ele>105.0</ele><time>2026-04-18T12:40:18.003Z</time></trkpt><trkpt lat="45.173243932233945" lon="8.522250156148576"><ele>105.0</ele><time>2026-04-18T12:40:19.003Z</time></trkpt><trkpt lat="45.17335191594153" lon="8.52225988869215"><ele>105.0</ele><time>2026-04-18T12:40:20.003Z</time></trkpt><trkpt lat="45.17346010025675" lon="8.522258060221759"><ele>105.0</ele><time>2026-04-18T12:40:21.003Z</time></trkpt><trkpt lat="45.17356837473707" lon="8.522249824396411"><ele>104.8</ele><time>2026-04-18T12:40:22.003Z</time></trkpt><trkpt lat="45.173665717456934" lon="8.52223678897915"><ele>104.6</ele><time>2026-04-18T12:40:23.003Z</time></trkpt><trkpt lat="45.17375014116697" lon="8.522202093532368"><ele>104.4</ele><time>2026-04-18T12:40:24.003Z</time></trkpt><trkpt lat="45.173824726389824" lon="8.52212508963304"><ele>104.2</ele><time>2026-04-18T12:40:25.003Z</time></trkpt><trkpt lat="45.17387837235067" lon="8.522018462104889"><ele>104.0</ele><time>2026-04-18T12:40:26.003Z</time></trkpt><trkpt lat="45.173916142758856" lon="8.521878194877525"><ele>103.75</ele><time>2026-04-18T12:40:27.003Z</time></trkpt><trkpt lat="45.17392666304887" lon="8.521714564172319"><ele>103.5</ele><time>2026-04-18T12:40:28.003Z</time></trkpt><trkpt lat="45.17394139004038" lon="8.521546442204905"><ele>103.25</ele><time>2026-04-18T12:40:29.003Z</time></trkpt><trkpt lat="45.17395165555523" lon="8.521376892604534"><ele>103.0</ele><time>2026-04-18T12:40:30.003Z</time></trkpt><trkpt lat="45.173985098359665" lon="8.521219733868577"><ele>103.0</ele><time>2026-04-18T12:40:31.003Z</time></trkpt><trkpt lat="45.17403527271644" lon="8.521073170641671"><ele>103.0</ele><time>2026-04-18T12:40:32.003Z</time></trkpt><trkpt lat="45.17411109442579" lon="8.520942727008432"><ele>103.0</ele><time>2026-04-18T12:40:33.003Z</time></trkpt><trkpt lat="45.17420234520333" lon="8.520821564171522"><ele>103.0</ele><time>2026-04-18T12:40:34.003Z</time></trkpt><trkpt lat="45.17431097142221" lon="8.520722726737498"><ele>103.0</ele><time>2026-04-18T12:40:35.003Z</time></trkpt><trkpt lat="45.17442737977777" lon="8.520631122296317"><ele>103.0</ele><time>2026-04-18T12:40:36.003Z</time></trkpt><trkpt lat="45.174553072264004" lon="8.520575674606437"><ele>103.0</ele><time>2026-04-18T12:40:37.003Z</time></trkpt><trkpt lat="45.174690592976596" lon="8.52056603017783"><ele>103.0</ele><time>2026-04-18T12:40:38.003Z</time></trkpt><trkpt lat="45.17483437940859" lon="8.520560238953557"><ele>102.75</ele><time>2026-04-18T12:40:39.003Z</time></trkpt><trkpt lat="45.17497608790727" lon="8.52058716901355"><ele>102.5</ele><time>2026-04-18T12:40:40.003Z</time></trkpt><trkpt lat="45.17512051524286" lon="8.520617793562536"><ele>102.25</ele><time>2026-04-18T12:40:41.003Z</time></trkpt><trkpt lat="45.17526783382319" lon="8.520635623629904"><ele>102.0</ele><time>2026-04-18T12:40:42.003Z</time></trkpt><trkpt lat="45.17542057378362" lon="8.5206469609443"><ele>102.0</ele><time>2026-04-18T12:40:43.003Z</time></trkpt><trkpt lat="45.17557231396201" lon="8.52066737426516"><ele>102.0</ele><time>2026-04-18T12:40:43.997Z</time></trkpt><trkpt lat="45.175727041841114" lon="8.520698265936028"><ele>102.0</ele><time>2026-04-18T12:40:44.997Z</time></trkpt><trkpt lat="45.175879614160856" lon="8.5207513160741"><ele>102.33333333333334</ele><time>2026-04-18T12:40:45.997Z</time></trkpt><trkpt lat="45.17603177212043" lon="8.520818081502668"><ele>102.66666666666667</ele><time>2026-04-18T12:40:46.997Z</time></trkpt><trkpt lat="45.176180970325674" lon="8.520899031261923"><ele>103.0</ele><time>2026-04-18T12:40:47.998Z</time></trkpt><trkpt lat="45.17633044325296" lon="8.520980870171533"><ele>103.0</ele><time>2026-04-18T12:40:48.998Z</time></trkpt><trkpt lat="45.17648394808193" lon="8.521064815951526"><ele>103.0</ele><time>2026-04-18T12:40:49.998Z</time></trkpt><trkpt lat="45.176629384880286" lon="8.521143170823036"><ele>103.0</ele><time>2026-04-18T12:40:50.998Z</time></trkpt><trkpt lat="45.1767654167929" lon="8.521213870859764"><ele>103.0</ele><time>2026-04-18T12:40:51.998Z</time></trkpt><trkpt lat="45.176897008739964" lon="8.521275695836666"><ele>103.0</ele><time>2026-04-18T12:40:52.998Z</time></trkpt><trkpt lat="45.177035085452886" lon="8.521330159695705"><ele>103.0</ele><time>2026-04-18T12:40:53.998Z</time></trkpt><trkpt lat="45.177179662077975" lon="8.521367537822846"><ele>103.0</ele><time>2026-04-18T12:40:54.998Z</time></trkpt><trkpt lat="45.17731705084032" lon="8.521378089110886"><ele>102.75</ele><time>2026-04-18T12:40:55.998Z</time></trkpt><trkpt lat="45.17744523584823" lon="8.521347522610807"><ele>102.5</ele><time>2026-04-18T12:40:56.998Z</time></trkpt><trkpt lat="45.17756035593441" lon="8.521285283259086"><ele>102.25</ele><time>2026-04-18T12:40:57.998Z</time></trkpt><trkpt lat="45.17767679154126" lon="8.521205745324"><ele>102.0</ele><time>2026-04-18T12:40:58.999Z</time></trkpt><trkpt lat="45.17780802341744" lon="8.521159122912445"><ele>102.0</ele><time>2026-04-18T12:40:59.999Z</time></trkpt><trkpt lat="45.177943941682315" lon="8.521095452815509"><ele>102.0</ele><time>2026-04-18T12:41:00.999Z</time></trkpt><trkpt lat="45.17808564929677" lon="8.521029177660665"><ele>102.0</ele><time>2026-04-18T12:41:01.999Z</time></trkpt><trkpt lat="45.178227498129736" lon="8.520938203534541"><ele>102.0</ele><time>2026-04-18T12:41:02.999Z</time></trkpt><trkpt lat="45.17837872528562" lon="8.520885691585923"><ele>102.66666666666666</ele><time>2026-04-18T12:41:03.999Z</time></trkpt><trkpt lat="45.178530226247204" lon="8.520810471787861"><ele>103.33333333333333</ele><time>2026-04-18T12:41:04.999Z</time></trkpt><trkpt lat="45.17868126501327" lon="8.520739192251487"><ele>104.0</ele><time>2026-04-18T12:41:05.999Z</time></trkpt><trkpt lat="45.178837047165786" lon="8.520657833389247"><ele>104.0</ele><time>2026-04-18T12:41:06.999Z</time></trkpt><trkpt lat="45.178988168739295" lon="8.520579507481564"><ele>104.0</ele><time>2026-04-18T12:41:07.999Z</time></trkpt><trkpt lat="45.17913956324771" lon="8.520502003252517"><ele>104.0</ele><time>2026-04-18T12:41:09Z</time></trkpt><trkpt lat="45.17928930719034" lon="8.52042542891456"><ele>103.33333333333333</ele><time>2026-04-18T12:41:10Z</time></trkpt><trkpt lat="45.17944607786435" lon="8.520349870681953"><ele>102.66666666666666</ele><time>2026-04-18T12:41:11Z</time></trkpt><trkpt lat="45.17960191206139" lon="8.520277843123235"><ele>102.0</ele><time>2026-04-18T12:41:12Z</time></trkpt><trkpt lat="45.179756020152944" lon="8.520208604285349"><ele>102.25</ele><time>2026-04-18T12:41:13Z</time></trkpt><trkpt lat="45.17989720339569" lon="8.520144787742895"><ele>102.5</ele><time>2026-04-18T12:41:14Z</time></trkpt><trkpt lat="45.18002761858945" lon="8.52008043782984"><ele>102.75</ele><time>2026-04-18T12:41:15Z</time></trkpt><trkpt lat="45.180160976338314" lon="8.520012044801216"><ele>103.0</ele><time>2026-04-18T12:41:16Z</time></trkpt><trkpt lat="45.18029907171868" lon="8.519931062842057"><ele>103.0</ele><time>2026-04-18T12:41:17Z</time></trkpt><trkpt lat="45.18043405347751" lon="8.519835631226504"><ele>103.0</ele><time>2026-04-18T12:41:18Z</time></trkpt><trkpt lat="45.18056972924504" lon="8.519711090977953"><ele>103.0</ele><time>2026-04-18T12:41:19Z</time></trkpt><trkpt lat="45.180702988281936" lon="8.51957749272042"><ele>103.33333333333334</ele><time>2026-04-18T12:41:20Z</time></trkpt><trkpt lat="45.18084238878447" lon="8.519442815888384"><ele>103.66666666666666</ele><time>2026-04-18T12:41:21Z</time></trkpt><trkpt lat="45.18098797130755" lon="8.519304249097539"><ele>104.0</ele><time>2026-04-18T12:41:22Z</time></trkpt><trkpt lat="45.18113381965439" lon="8.519163952988567"><ele>104.0</ele><time>2026-04-18T12:41:23Z</time></trkpt><trkpt lat="45.18128338342912" lon="8.519016469031397"><ele>104.0</ele><time>2026-04-18T12:41:24Z</time></trkpt><trkpt lat="45.181433517536355" lon="8.51887157514055"><ele>104.0</ele><time>2026-04-18T12:41:25Z</time></trkpt><trkpt lat="45.18158640794811" lon="8.518731882438807"><ele>103.33333333333333</ele><time>2026-04-18T12:41:26Z</time></trkpt><trkpt lat="45.181727973739775" lon="8.518600178977676"><ele>102.66666666666666</ele><time>2026-04-18T12:41:27.001Z</time></trkpt><trkpt lat="45.181868007673216" lon="8.518475051525016"><ele>102.0</ele><time>2026-04-18T12:41:28.001Z</time></trkpt><trkpt lat="45.18199160012921" lon="8.518358950725471"><ele>102.0</ele><time>2026-04-18T12:41:29.001Z</time></trkpt><trkpt lat="45.18211949897624" lon="8.518274640466885"><ele>102.0</ele><time>2026-04-18T12:41:30.001Z</time></trkpt><trkpt lat="45.18224570666018" lon="8.518205038583865"><ele>102.0</ele><time>2026-04-18T12:41:31.001Z</time></trkpt><trkpt lat="45.1823843192364" lon="8.51814439488208"><ele>102.0</ele><time>2026-04-18T12:41:32.001Z</time></trkpt><trkpt lat="45.182527147215254" lon="8.518090855275497"><ele>102.33333333333334</ele><time>2026-04-18T12:41:33.001Z</time></trkpt><trkpt lat="45.18267698352219" lon="8.518015430440226"><ele>102.66666666666667</ele><time>2026-04-18T12:41:34.001Z</time></trkpt><trkpt lat="45.18283416308862" lon="8.517961620893796"><ele>103.0</ele><time>2026-04-18T12:41:35.001Z</time></trkpt><trkpt lat="45.18299530696254" lon="8.517901282961265"><ele>103.0</ele><time>2026-04-18T12:41:36.001Z</time></trkpt><trkpt lat="45.18316081759961" lon="8.517837901708821"><ele>103.0</ele><time>2026-04-18T12:41:37.001Z</time></trkpt><trkpt lat="45.18332832474147" lon="8.517778143455008"><ele>103.0</ele><time>2026-04-18T12:41:38.001Z</time></trkpt><trkpt lat="45.183498727025295" lon="8.517720082197934"><ele>103.66666666666667</ele><time>2026-04-18T12:41:39.001Z</time></trkpt><trkpt lat="45.1836687278658" lon="8.51766239100722"><ele>104.33333333333334</ele><time>2026-04-18T12:41:40.001Z</time></trkpt><trkpt lat="45.18382842188437" lon="8.517608637830667"><ele>105.0</ele><time>2026-04-18T12:41:41.001Z</time></trkpt><trkpt lat="45.18397666965774" lon="8.517555578903957"><ele>104.5</ele><time>2026-04-18T12:41:42.001Z</time></trkpt><trkpt lat="45.18411498887942" lon="8.517501975909784"><ele>104.0</ele><time>2026-04-18T12:41:43.001Z</time></trkpt><trkpt lat="45.18424311212137" lon="8.517457070168476"><ele>103.5</ele><time>2026-04-18T12:41:44.001Z</time></trkpt><trkpt lat="45.184369545832084" lon="8.517421328993233"><ele>103.0</ele><time>2026-04-18T12:41:45.001Z</time></trkpt><trkpt lat="45.18448619970872" lon="8.517383996473766"><ele>103.0</ele><time>2026-04-18T12:41:46.001Z</time></trkpt><trkpt lat="45.18460881013947" lon="8.517334070082685"><ele>103.0</ele><time>2026-04-18T12:41:47.001Z</time></trkpt><trkpt lat="45.184737416442864" lon="8.517292066554703"><ele>103.0</ele><time>2026-04-18T12:41:48.001Z</time></trkpt><trkpt lat="45.184870947487475" lon="8.517270312002987"><ele>103.0</ele><time>2026-04-18T12:41:49.001Z</time></trkpt><trkpt lat="45.185007963968836" lon="8.517283814654448"><ele>103.0</ele><time>2026-04-18T12:41:50.001Z</time></trkpt><trkpt lat="45.18513581893526" lon="8.517354554835764"><ele>103.0</ele><time>2026-04-18T12:41:51.001Z</time></trkpt><trkpt lat="45.185233242177794" lon="8.517471464211164"><ele>103.0</ele><time>2026-04-18T12:41:52.001Z</time></trkpt><trkpt lat="45.18529738061846" lon="8.517620845520632"><ele>103.0</ele><time>2026-04-18T12:41:53.001Z</time></trkpt><trkpt lat="45.185338528633096" lon="8.517796449599716"><ele>103.5</ele><time>2026-04-18T12:41:54.001Z</time></trkpt><trkpt lat="45.18536365823242" lon="8.517989346100515"><ele>104.0</ele><time>2026-04-18T12:41:55.002Z</time></trkpt><trkpt lat="45.185384804912154" lon="8.518193199138341"><ele>104.5</ele><time>2026-04-18T12:41:56.002Z</time></trkpt><trkpt lat="45.18540760976247" lon="8.518405805945545"><ele>105.0</ele><time>2026-04-18T12:41:57.002Z</time></trkpt><trkpt lat="45.18543455526082" lon="8.518622047415262"><ele>104.66666666666666</ele><time>2026-04-18T12:41:58.002Z</time></trkpt><trkpt lat="45.18546256327821" lon="8.518844526711279"><ele>104.33333333333333</ele><time>2026-04-18T12:41:59.002Z</time></trkpt><trkpt lat="45.1854875791817" lon="8.519068544386522"><ele>104.0</ele><time>2026-04-18T12:42:00.002Z</time></trkpt><trkpt lat="45.18550728006381" lon="8.519292798417693"><ele>104.0</ele><time>2026-04-18T12:42:01.002Z</time></trkpt><trkpt lat="45.185527527941076" lon="8.519520208459566"><ele>104.0</ele><time>2026-04-18T12:42:02.002Z</time></trkpt><trkpt lat="45.18554766625039" lon="8.519750936289872"><ele>104.0</ele><time>2026-04-18T12:42:03.002Z</time></trkpt><trkpt lat="45.185564888361334" lon="8.51997904659555"><ele>103.75</ele><time>2026-04-18T12:42:04.002Z</time></trkpt><trkpt lat="45.1855758835407" lon="8.520199384616612"><ele>103.5</ele><time>2026-04-18T12:42:05.002Z</time></trkpt><trkpt lat="45.18558529833241" lon="8.520397492953746"><ele>103.25</ele><time>2026-04-18T12:42:06.002Z</time></trkpt><trkpt lat="45.18558652816207" lon="8.52060776027045"><ele>103.0</ele><time>2026-04-18T12:42:07.002Z</time></trkpt><trkpt lat="45.18558992600704" lon="8.520819788704191"><ele>103.0</ele><time>2026-04-18T12:42:08.002Z</time></trkpt><trkpt lat="45.185595841993305" lon="8.521034936265067"><ele>103.0</ele><time>2026-04-18T12:42:09.002Z</time></trkpt><trkpt lat="45.18561324133841" lon="8.521244743978933"><ele>103.0</ele><time>2026-04-18T12:42:10.002Z</time></trkpt><trkpt lat="45.18564107966543" lon="8.521443512034326"><ele>103.0</ele><time>2026-04-18T12:42:11.002Z</time></trkpt><trkpt lat="45.185669588647954" lon="8.521621911511412"><ele>103.0</ele><time>2026-04-18T12:42:12.002Z</time></trkpt><trkpt lat="45.18569627000081" lon="8.52179547525076"><ele>103.0</ele><time>2026-04-18T12:42:13.002Z</time></trkpt><trkpt lat="45.18572979555387" lon="8.521949360609465"><ele>103.0</ele><time>2026-04-18T12:42:14.002Z</time></trkpt><trkpt lat="45.185783784362364" lon="8.522078486722044"><ele>103.0</ele><time>2026-04-18T12:42:15.002Z</time></trkpt><trkpt lat="45.18585613019182" lon="8.522199266949587"><ele>103.0</ele><time>2026-04-18T12:42:16.002Z</time></trkpt><trkpt lat="45.185957328927095" lon="8.522291054523405"><ele>103.0</ele><time>2026-04-18T12:42:17.002Z</time></trkpt><trkpt lat="45.186076244460814" lon="8.52234415833745"><ele>103.0</ele><time>2026-04-18T12:42:18.002Z</time></trkpt><trkpt lat="45.18620389984649" lon="8.522347246626058"><ele>103.0</ele><time>2026-04-18T12:42:19.002Z</time></trkpt><trkpt lat="45.18633697952869" lon="8.522311563583987"><ele>103.0</ele><time>2026-04-18T12:42:20.002Z</time></trkpt><trkpt lat="45.18647686217586" lon="8.522263745662427"><ele>103.0</ele><time>2026-04-18T12:42:21.002Z</time></trkpt><trkpt lat="45.186618812716766" lon="8.522232114326446"><ele>103.0</ele><time>2026-04-18T12:42:22.002Z</time></trkpt><trkpt lat="45.18676451357507" lon="8.52219381741628"><ele>103.0</ele><time>2026-04-18T12:42:23.002Z</time></trkpt><trkpt lat="45.186914255094514" lon="8.52215737652632"><ele>103.0</ele><time>2026-04-18T12:42:24.002Z</time></trkpt><trkpt lat="45.18706378622719" lon="8.522118746710856"><ele>103.0</ele><time>2026-04-18T12:42:25.002Z</time></trkpt><trkpt lat="45.18721654841143" lon="8.522108771931816"><ele>103.0</ele><time>2026-04-18T12:42:26.002Z</time></trkpt><trkpt lat="45.18737607222492" lon="8.52207581533512"><ele>103.33333333333334</ele><time>2026-04-18T12:42:27.003Z</time></trkpt><trkpt lat="45.18753606664468" lon="8.52204387714315"><ele>103.66666666666666</ele><time>2026-04-18T12:42:28.003Z</time></trkpt><trkpt lat="45.18769899278144" lon="8.522013554020397"><ele>104.0</ele><time>2026-04-18T12:42:29.003Z</time></trkpt><trkpt lat="45.18786439660655" lon="8.521960159461399"><ele>104.0</ele><time>2026-04-18T12:42:30.003Z</time></trkpt><trkpt lat="45.18802424101532" lon="8.521932338262767"><ele>104.0</ele><time>2026-04-18T12:42:31.003Z</time></trkpt><trkpt lat="45.1881749011898" lon="8.521900284802015"><ele>104.0</ele><time>2026-04-18T12:42:32.003Z</time></trkpt><trkpt lat="45.188314798282576" lon="8.521867566333972"><ele>104.0</ele><time>2026-04-18T12:42:33.003Z</time></trkpt><trkpt lat="45.18844388076951" lon="8.521837899568096"><ele>104.0</ele><time>2026-04-18T12:42:34.003Z</time></trkpt><trkpt lat="45.18856620946483" lon="8.521801858978762"><ele>104.0</ele><time>2026-04-18T12:42:35.003Z</time></trkpt><trkpt lat="45.188664892381475" lon="8.521773944620028"><ele>104.0</ele><time>2026-04-18T12:42:36.003Z</time></trkpt><trkpt lat="45.18874785303926" lon="8.521777687300228"><ele>104.0</ele><time>2026-04-18T12:42:37.003Z</time></trkpt><trkpt lat="45.18880979430152" lon="8.521741436803152"><ele>104.0</ele><time>2026-04-18T12:42:38.003Z</time></trkpt><trkpt lat="45.18889238832169" lon="8.521787924844817"><ele>104.0</ele><time>2026-04-18T12:42:40.003Z</time></trkpt><trkpt lat="45.188908686550505" lon="8.521939954759283"><ele>104.0</ele><time>2026-04-18T12:42:42.003Z</time></trkpt><trkpt lat="45.18891871259491" lon="8.522050214087818"><ele>104.0</ele><time>2026-04-18T12:42:43.003Z</time></trkpt><trkpt lat="45.18892575396394" lon="8.522178937067322"><ele>104.0</ele><time>2026-04-18T12:42:44.003Z</time></trkpt><trkpt lat="45.18895065075801" lon="8.52231975040534"><ele>104.0</ele><time>2026-04-18T12:42:45.003Z</time></trkpt><trkpt lat="45.18895607606698" lon="8.522473161687962"><ele>104.0</ele><time>2026-04-18T12:42:46.003Z</time></trkpt><trkpt lat="45.18896124071311" lon="8.522638787884675"><ele>104.0</ele><time>2026-04-18T12:42:47.003Z</time></trkpt><trkpt lat="45.188969389504614" lon="8.522817245115757"><ele>104.0</ele><time>2026-04-18T12:42:48.003Z</time></trkpt><trkpt lat="45.18897802639424" lon="8.522999245764352"><ele>104.0</ele><time>2026-04-18T12:42:49.003Z</time></trkpt><trkpt lat="45.18898610185176" lon="8.52318833883644"><ele>104.0</ele><time>2026-04-18T12:42:49.996Z</time></trkpt><trkpt lat="45.18899252996366" lon="8.523379380376436"><ele>104.0</ele><time>2026-04-18T12:42:50.997Z</time></trkpt><trkpt lat="45.1889992362724" lon="8.523567089825208"><ele>104.0</ele><time>2026-04-18T12:42:51.997Z</time></trkpt><trkpt lat="45.18900508747834" lon="8.523765814115002"><ele>103.80000000000001</ele><time>2026-04-18T12:42:52.997Z</time></trkpt><trkpt lat="45.189013018905186" lon="8.523943838915994"><ele>103.60000000000001</ele><time>2026-04-18T12:42:53.997Z</time></trkpt><trkpt lat="45.18901891147701" lon="8.524104055429625"><ele>103.4</ele><time>2026-04-18T12:42:54.997Z</time></trkpt><trkpt lat="45.18902502165353" lon="8.52425255381702"><ele>103.2</ele><time>2026-04-18T12:42:55.997Z</time></trkpt><trkpt lat="45.18903062610854" lon="8.524390201679346"><ele>103.0</ele><time>2026-04-18T12:42:56.998Z</time></trkpt><trkpt lat="45.18903609001579" lon="8.524523251115296"><ele>103.2</ele><time>2026-04-18T12:42:57.998Z</time></trkpt><trkpt lat="45.18904167089367" lon="8.524666315058951"><ele>103.4</ele><time>2026-04-18T12:42:58.998Z</time></trkpt><trkpt lat="45.189047342748935" lon="8.524810823865883"><ele>103.60000000000001</ele><time>2026-04-18T12:42:59.998Z</time></trkpt><trkpt lat="45.18905221815255" lon="8.524941590986197"><ele>103.80000000000001</ele><time>2026-04-18T12:43:00.998Z</time></trkpt><trkpt lat="45.18905528377905" lon="8.525090721542918"><ele>104.0</ele><time>2026-04-18T12:43:01.998Z</time></trkpt><trkpt lat="45.18906148460288" lon="8.525226308962228"><ele>104.0</ele><time>2026-04-18T12:43:02.998Z</time></trkpt><trkpt lat="45.18906531044981" lon="8.525350705273755"><ele>104.0</ele><time>2026-04-18T12:43:03.998Z</time></trkpt><trkpt lat="45.18907011042538" lon="8.525467563848826"><ele>104.0</ele><time>2026-04-18T12:43:04.998Z</time></trkpt><trkpt lat="45.189072196184995" lon="8.525570211254818"><ele>104.0</ele><time>2026-04-18T12:43:05.999Z</time></trkpt><trkpt lat="45.18907596691231" lon="8.525714143064908"><ele>104.0</ele><time>2026-04-18T12:43:07.999Z</time></trkpt><trkpt lat="45.18920243561184" lon="8.525799587901899"><ele>103.99999999999999</ele><time>2026-04-18T12:43:10.999Z</time></trkpt><trkpt lat="45.18926646279228" lon="8.525792313447196"><ele>104.0</ele><time>2026-04-18T12:43:11.999Z</time></trkpt><trkpt lat="45.18933917079234" lon="8.525767211483057"><ele>104.0</ele><time>2026-04-18T12:43:12.999Z</time></trkpt><trkpt lat="45.189413328311105" lon="8.52573868490119"><ele>104.0</ele><time>2026-04-18T12:43:13.999Z</time></trkpt><trkpt lat="45.18949093691092" lon="8.52570902214026"><ele>103.99999999999999</ele><time>2026-04-18T12:43:14.999Z</time></trkpt><trkpt lat="45.18957950181907" lon="8.52568466365169"><ele>104.0</ele><time>2026-04-18T12:43:16Z</time></trkpt><trkpt lat="45.18966840583149" lon="8.525662678025906"><ele>104.0</ele><time>2026-04-18T12:43:17Z</time></trkpt><trkpt lat="45.18976269203501" lon="8.525635949809372"><ele>104.0</ele><time>2026-04-18T12:43:18Z</time></trkpt><trkpt lat="45.18986533673407" lon="8.525606172454397"><ele>104.0</ele><time>2026-04-18T12:43:19Z</time></trkpt><trkpt lat="45.18996435561305" lon="8.525581544019001"><ele>104.0</ele><time>2026-04-18T12:43:20Z</time></trkpt><trkpt lat="45.190061754287626" lon="8.525555600265204"><ele>104.0</ele><time>2026-04-18T12:43:21Z</time></trkpt><trkpt lat="45.19016592785628" lon="8.525527300639004"><ele>103.80000000000001</ele><time>2026-04-18T12:43:22Z</time></trkpt><trkpt lat="45.19026907215128" lon="8.525500159432891"><ele>103.60000000000001</ele><time>2026-04-18T12:43:23Z</time></trkpt><trkpt lat="45.190373790646" lon="8.5254745357395"><ele>103.4</ele><time>2026-04-18T12:43:24Z</time></trkpt><trkpt lat="45.19047857660012" lon="8.525445908369253"><ele>103.2</ele><time>2026-04-18T12:43:25Z</time></trkpt><trkpt lat="45.19057954313382" lon="8.525418269011062"><ele>103.0</ele><time>2026-04-18T12:43:26Z</time></trkpt><trkpt lat="45.19067999221491" lon="8.525388359737889"><ele>103.00000000000001</ele><time>2026-04-18T12:43:27Z</time></trkpt><trkpt lat="45.19077939424616" lon="8.525363907812322"><ele>103.0</ele><time>2026-04-18T12:43:28Z</time></trkpt><trkpt lat="45.19086936885108" lon="8.525337297117202"><ele>103.0</ele><time>2026-04-18T12:43:29Z</time></trkpt><trkpt lat="45.19094676555144" lon="8.52532167054834"><ele>103.0</ele><time>2026-04-18T12:43:30Z</time></trkpt><trkpt lat="45.191024782308546" lon="8.525301248906274"><ele>103.00000000000001</ele><time>2026-04-18T12:43:31Z</time></trkpt><trkpt lat="45.19109373576933" lon="8.52527762780733"><ele>103.0</ele><time>2026-04-18T12:43:32.001Z</time></trkpt><trkpt lat="45.19116827176979" lon="8.525255769650716"><ele>103.00000000000001</ele><time>2026-04-18T12:43:33.001Z</time></trkpt><trkpt lat="45.19125168391962" lon="8.525256364588625"><ele>103.0</ele><time>2026-04-18T12:43:34.001Z</time></trkpt><trkpt lat="45.191332638819944" lon="8.525248235612848"><ele>103.0</ele><time>2026-04-18T12:43:35.001Z</time></trkpt><trkpt lat="45.19140562540865" lon="8.525255313615647"><ele>103.0</ele><time>2026-04-18T12:43:36.001Z</time></trkpt><trkpt lat="45.191493636540656" lon="8.525285328311154"><ele>103.00000000000001</ele><time>2026-04-18T12:43:37.001Z</time></trkpt><trkpt lat="45.19159198702584" lon="8.525313641707022"><ele>103.0</ele><time>2026-04-18T12:43:38.001Z</time></trkpt><trkpt lat="45.1916833348889" lon="8.525337180690636"><ele>102.99999999999999</ele><time>2026-04-18T12:43:39.001Z</time></trkpt><trkpt lat="45.191759376079716" lon="8.525334312702316"><ele>103.0</ele><time>2026-04-18T12:43:40.001Z</time></trkpt><trkpt lat="45.19183187591184" lon="8.52535221396037"><ele>103.0</ele><time>2026-04-18T12:43:41.001Z</time></trkpt><trkpt lat="45.19189674952895" lon="8.52536967163631"><ele>103.0</ele><time>2026-04-18T12:43:42.001Z</time></trkpt><trkpt lat="45.1919616568975" lon="8.525388324958444"><ele>103.0</ele><time>2026-04-18T12:43:43.001Z</time></trkpt><trkpt lat="45.19203495728807" lon="8.525406821272702"><ele>102.99999999999999</ele><time>2026-04-18T12:43:44.001Z</time></trkpt><trkpt lat="45.192119142204675" lon="8.52542529559176"><ele>103.0</ele><time>2026-04-18T12:43:45.001Z</time></trkpt><trkpt lat="45.19222803878523" lon="8.525470881501038"><ele>103.00000000000001</ele><time>2026-04-18T12:43:46.001Z</time></trkpt><trkpt lat="45.192305380873506" lon="8.525485742727989"><ele>103.0</ele><time>2026-04-18T12:43:47.001Z</time></trkpt><trkpt lat="45.1923828086567" lon="8.525505513008317"><ele>103.0</ele><time>2026-04-18T12:43:48.001Z</time></trkpt><trkpt lat="45.19245226538264" lon="8.525507996389427"><ele>103.0</ele><time>2026-04-18T12:43:49.001Z</time></trkpt><trkpt lat="45.19256570591925" lon="8.52552581150121"><ele>103.00000000000001</ele><time>2026-04-18T12:43:51.001Z</time></trkpt><trkpt lat="45.19262319087518" lon="8.525634333733702"><ele>103.0</ele><time>2026-04-18T12:43:53.001Z</time></trkpt><trkpt lat="45.19259251267608" lon="8.52578890391106"><ele>103.0</ele><time>2026-04-18T12:43:55.001Z</time></trkpt><trkpt lat="45.19258520164468" lon="8.52589253012179"><ele>103.0</ele><time>2026-04-18T12:43:56.001Z</time></trkpt><trkpt lat="45.192562302366206" lon="8.526010097488767"><ele>103.0</ele><time>2026-04-18T12:43:57.001Z</time></trkpt><trkpt lat="45.19253827751012" lon="8.526145325770287"><ele>103.0</ele><time>2026-04-18T12:43:58.002Z</time></trkpt><trkpt lat="45.1925039205578" lon="8.526294621210184"><ele>103.0</ele><time>2026-04-18T12:43:59.002Z</time></trkpt><trkpt lat="45.192485700711146" lon="8.526441180281715"><ele>103.0</ele><time>2026-04-18T12:44:00.002Z</time></trkpt><trkpt lat="45.192459024654546" lon="8.526596127031487"><ele>103.0</ele><time>2026-04-18T12:44:01.002Z</time></trkpt><trkpt lat="45.19243468445263" lon="8.526764148597596"><ele>103.0</ele><time>2026-04-18T12:44:02.002Z</time></trkpt><trkpt lat="45.192410603266715" lon="8.526936346114562"><ele>103.0</ele><time>2026-04-18T12:44:03.002Z</time></trkpt><trkpt lat="45.19238896221085" lon="8.527109190972364"><ele>102.75</ele><time>2026-04-18T12:44:04.002Z</time></trkpt><trkpt lat="45.192366607502194" lon="8.527287256043468"><ele>102.5</ele><time>2026-04-18T12:44:05.002Z</time></trkpt><trkpt lat="45.19234082859939" lon="8.527470301454139"><ele>102.25</ele><time>2026-04-18T12:44:06.002Z</time></trkpt><trkpt lat="45.19231944590319" lon="8.527651563479804"><ele>102.0</ele><time>2026-04-18T12:44:07.002Z</time></trkpt><trkpt lat="45.192297511338495" lon="8.527829429957132"><ele>102.19999999999999</ele><time>2026-04-18T12:44:08.002Z</time></trkpt><trkpt lat="45.192272483631086" lon="8.528004550483104"><ele>102.4</ele><time>2026-04-18T12:44:09.002Z</time></trkpt><trkpt lat="45.19224745458364" lon="8.528173220429679"><ele>102.6</ele><time>2026-04-18T12:44:10.002Z</time></trkpt><trkpt lat="45.19222693216244" lon="8.528313530607633"><ele>102.80000000000001</ele><time>2026-04-18T12:44:11.002Z</time></trkpt><trkpt lat="45.1922062358954" lon="8.528451722826286"><ele>103.0</ele><time>2026-04-18T12:44:12.002Z</time></trkpt><trkpt lat="45.19218807265614" lon="8.528591508195476"><ele>103.0</ele><time>2026-04-18T12:44:13.002Z</time></trkpt><trkpt lat="45.192170164498556" lon="8.5287255211163"><ele>103.0</ele><time>2026-04-18T12:44:14.002Z</time></trkpt><trkpt lat="45.19215458730709" lon="8.52884373582123"><ele>103.0</ele><time>2026-04-18T12:44:15.002Z</time></trkpt><trkpt lat="45.19213490876703" lon="8.528986677846667"><ele>103.0</ele><time>2026-04-18T12:44:16.002Z</time></trkpt><trkpt lat="45.19211676615745" lon="8.529123079108551"><ele>103.0</ele><time>2026-04-18T12:44:17.002Z</time></trkpt><trkpt lat="45.19209959199391" lon="8.529256105944228"><ele>103.0</ele><time>2026-04-18T12:44:18.002Z</time></trkpt><trkpt lat="45.19208591655291" lon="8.529386286440678"><ele>103.0</ele><time>2026-04-18T12:44:19.002Z</time></trkpt><trkpt lat="45.1920675069325" lon="8.529525287351168"><ele>103.0</ele><time>2026-04-18T12:44:20.002Z</time></trkpt><trkpt lat="45.19205096549694" lon="8.529664952956676"><ele>103.0</ele><time>2026-04-18T12:44:21.002Z</time></trkpt><trkpt lat="45.19202835727456" lon="8.529796391404426"><ele>103.0</ele><time>2026-04-18T12:44:22.002Z</time></trkpt><trkpt lat="45.19200800173998" lon="8.529928556050972"><ele>102.80000000000001</ele><time>2026-04-18T12:44:23.002Z</time></trkpt><trkpt lat="45.1919878938528" lon="8.530058583724205"><ele>102.6</ele><time>2026-04-18T12:44:24.002Z</time></trkpt><trkpt lat="45.191969632587075" lon="8.530194965558431"><ele>102.4</ele><time>2026-04-18T12:44:25.002Z</time></trkpt><trkpt lat="45.191947284560456" lon="8.530329699985247"><ele>102.19999999999999</ele><time>2026-04-18T12:44:26.002Z</time></trkpt><trkpt lat="45.191930989749494" lon="8.530438636668803"><ele>102.0</ele><time>2026-04-18T12:44:27.002Z</time></trkpt><trkpt lat="45.191930753872384" lon="8.530596071495943"><ele>102.39999999999999</ele><time>2026-04-18T12:44:29.002Z</time></trkpt><trkpt lat="45.1919015824042" lon="8.53068941344421"><ele>102.8</ele><time>2026-04-18T12:44:31.002Z</time></trkpt><trkpt lat="45.19210072841461" lon="8.530790969495738"><ele>103.2</ele><time>2026-04-18T12:44:33.003Z</time></trkpt><trkpt lat="45.19217442712436" lon="8.530808097673017"><ele>103.6</ele><time>2026-04-18T12:44:34.003Z</time></trkpt><trkpt lat="45.192257565727886" lon="8.530807840960557"><ele>104.0</ele><time>2026-04-18T12:44:35.003Z</time></trkpt><trkpt lat="45.19235316746047" lon="8.53078588427122"><ele>104.2</ele><time>2026-04-18T12:44:36.003Z</time></trkpt><trkpt lat="45.1924533632869" lon="8.530746113164419"><ele>104.4</ele><time>2026-04-18T12:44:37.003Z</time></trkpt><trkpt lat="45.19255380020036" lon="8.530697878009184"><ele>104.6</ele><time>2026-04-18T12:44:38.003Z</time></trkpt><trkpt lat="45.192658638204236" lon="8.530635911144907"><ele>104.8</ele><time>2026-04-18T12:44:39.003Z</time></trkpt><trkpt lat="45.19276737563894" lon="8.530578960974598"><ele>105.0</ele><time>2026-04-18T12:44:40.003Z</time></trkpt><trkpt lat="45.192879528581486" lon="8.530515478312148"><ele>105.0</ele><time>2026-04-18T12:44:41.003Z</time></trkpt><trkpt lat="45.19299482842782" lon="8.530447386812535"><ele>105.0</ele><time>2026-04-18T12:44:42.003Z</time></trkpt><trkpt lat="45.19311236378449" lon="8.530378456743698"><ele>105.0</ele><time>2026-04-18T12:44:43.003Z</time></trkpt><trkpt lat="45.19322716378872" lon="8.530309895065463"><ele>105.0</ele><time>2026-04-18T12:44:44.003Z</time></trkpt><trkpt lat="45.193339043123196" lon="8.530242098040105"><ele>105.0</ele><time>2026-04-18T12:44:45.003Z</time></trkpt><trkpt lat="45.193453391141574" lon="8.530177009886776"><ele>105.0</ele><time>2026-04-18T12:44:46.003Z</time></trkpt><trkpt lat="45.193571154290076" lon="8.530119837920035"><ele>105.0</ele><time>2026-04-18T12:44:47.003Z</time></trkpt><trkpt lat="45.19369329826483" lon="8.53008187997737"><ele>105.0</ele><time>2026-04-18T12:44:48.003Z</time></trkpt><trkpt lat="45.19381723931345" lon="8.530049267556166"><ele>105.0</ele><time>2026-04-18T12:44:49.003Z</time></trkpt><trkpt lat="45.19394070327064" lon="8.530012595234389"><ele>105.0</ele><time>2026-04-18T12:44:50.003Z</time></trkpt><trkpt lat="45.194062753547215" lon="8.529974270548529"><ele>105.0</ele><time>2026-04-18T12:44:51.003Z</time></trkpt><trkpt lat="45.19418459576633" lon="8.529939082209502"><ele>105.0</ele><time>2026-04-18T12:44:52.003Z</time></trkpt><trkpt lat="45.19430953166648" lon="8.52990773105048"><ele>104.75</ele><time>2026-04-18T12:44:53.003Z</time></trkpt><trkpt lat="45.19443665906303" lon="8.529875703235513"><ele>104.5</ele><time>2026-04-18T12:44:54.003Z</time></trkpt><trkpt lat="45.19456886947341" lon="8.529844728409337"><ele>104.25</ele><time>2026-04-18T12:44:55.003Z</time></trkpt><trkpt lat="45.194700213658926" lon="8.529813838616496"><ele>104.0</ele><time>2026-04-18T12:44:55.997Z</time></trkpt><trkpt lat="45.19483485529118" lon="8.52978025454917"><ele>103.5</ele><time>2026-04-18T12:44:56.997Z</time></trkpt><trkpt lat="45.19497057354413" lon="8.529749720157021"><ele>103.0</ele><time>2026-04-18T12:44:57.997Z</time></trkpt><trkpt lat="45.19510376248251" lon="8.529722155739249"><ele>102.5</ele><time>2026-04-18T12:44:58.997Z</time></trkpt><trkpt lat="45.195234646476074" lon="8.529692720198682"><ele>102.0</ele><time>2026-04-18T12:44:59.997Z</time></trkpt><trkpt lat="45.195357311630126" lon="8.529666720543181"><ele>102.0</ele><time>2026-04-18T12:45:00.998Z</time></trkpt><trkpt lat="45.195466912417814" lon="8.529645179721518"><ele>102.0</ele><time>2026-04-18T12:45:01.998Z</time></trkpt><trkpt lat="45.19556853448989" lon="8.529631059085439"><ele>102.0</ele><time>2026-04-18T12:45:02.998Z</time></trkpt><trkpt lat="45.1956639707406" lon="8.529609132581728"><ele>102.0</ele><time>2026-04-18T12:45:03.998Z</time></trkpt><trkpt lat="45.19575977786082" lon="8.529576569295264"><ele>102.0</ele><time>2026-04-18T12:45:04.998Z</time></trkpt><trkpt lat="45.195871053219605" lon="8.529558633660544"><ele>102.0</ele><time>2026-04-18T12:45:05.998Z</time></trkpt><trkpt lat="45.19598576498123" lon="8.529546570300402"><ele>102.0</ele><time>2026-04-18T12:45:06.998Z</time></trkpt><trkpt lat="45.19610438239792" lon="8.529550878617776"><ele>102.0</ele><time>2026-04-18T12:45:07.998Z</time></trkpt><trkpt lat="45.19622232318404" lon="8.529583180218566"><ele>102.0</ele><time>2026-04-18T12:45:08.998Z</time></trkpt><trkpt lat="45.196341950504106" lon="8.529624395963628"><ele>102.0</ele><time>2026-04-18T12:45:09.998Z</time></trkpt><trkpt lat="45.19646804627413" lon="8.529654452622452"><ele>102.0</ele><time>2026-04-18T12:45:10.999Z</time></trkpt><trkpt lat="45.196597334185824" lon="8.529690060722269"><ele>102.0</ele><time>2026-04-18T12:45:11.999Z</time></trkpt><trkpt lat="45.196720532194824" lon="8.529729257970642"><ele>102.0</ele><time>2026-04-18T12:45:12.999Z</time></trkpt><trkpt lat="45.19684008970288" lon="8.529762717630781"><ele>102.5</ele><time>2026-04-18T12:45:13.999Z</time></trkpt><trkpt lat="45.19696123045501" lon="8.529796634052829"><ele>103.0</ele><time>2026-04-18T12:45:14.999Z</time></trkpt><trkpt lat="45.197083629325725" lon="8.529829353878071"><ele>103.5</ele><time>2026-04-18T12:45:15.999Z</time></trkpt><trkpt lat="45.197213430025684" lon="8.529861640418385"><ele>104.0</ele><time>2026-04-18T12:45:16.999Z</time></trkpt><trkpt lat="45.19732814634452" lon="8.5298891760417"><ele>103.99999999999999</ele><time>2026-04-18T12:45:17.999Z</time></trkpt><trkpt lat="45.19742911734004" lon="8.529912102829373"><ele>104.0</ele><time>2026-04-18T12:45:18.999Z</time></trkpt><trkpt lat="45.19751655543218" lon="8.529935442146877"><ele>104.0</ele><time>2026-04-18T12:45:19.999Z</time></trkpt><trkpt lat="45.1975981073858" lon="8.529961747696388"><ele>104.0</ele><time>2026-04-18T12:45:21Z</time></trkpt><trkpt lat="45.197669015813524" lon="8.529992971881361"><ele>103.99999999999999</ele><time>2026-04-18T12:45:22Z</time></trkpt><trkpt lat="45.197726911566065" lon="8.530046649396862"><ele>104.0</ele><time>2026-04-18T12:45:23Z</time></trkpt><trkpt lat="45.19777700833495" lon="8.53012723177211"><ele>103.99999999999999</ele><time>2026-04-18T12:45:24Z</time></trkpt><trkpt lat="45.19782677792007" lon="8.530215126550022"><ele>104.0</ele><time>2026-04-18T12:45:25Z</time></trkpt><trkpt lat="45.19787647962563" lon="8.530294592289566"><ele>104.0</ele><time>2026-04-18T12:45:26Z</time></trkpt><trkpt lat="45.197923479165084" lon="8.530371909545918"><ele>104.0</ele><time>2026-04-18T12:45:27Z</time></trkpt><trkpt lat="45.19796975072472" lon="8.530440163292894"><ele>103.99999999999999</ele><time>2026-04-18T12:45:28Z</time></trkpt><trkpt lat="45.19803444562393" lon="8.5305692751692"><ele>104.0</ele><time>2026-04-18T12:45:30Z</time></trkpt><trkpt lat="45.198061376724915" lon="8.530720095450318"><ele>103.99999999999999</ele><time>2026-04-18T12:45:32Z</time></trkpt><trkpt lat="45.19803109893306" lon="8.53081091782687"><ele>104.0</ele><time>2026-04-18T12:45:33Z</time></trkpt><trkpt lat="45.19798192493143" lon="8.530890830788172"><ele>104.0</ele><time>2026-04-18T12:45:34Z</time></trkpt><trkpt lat="45.197938679589086" lon="8.530974342830403"><ele>104.0</ele><time>2026-04-18T12:45:35Z</time></trkpt><trkpt lat="45.19792371295734" lon="8.531073848244223"><ele>103.99999999999999</ele><time>2026-04-18T12:45:36Z</time></trkpt><trkpt lat="45.19794780801596" lon="8.53117993964886"><ele>104.0</ele><time>2026-04-18T12:45:37Z</time></trkpt><trkpt lat="45.19799879534006" lon="8.531274053313801"><ele>104.0</ele><time>2026-04-18T12:45:38.001Z</time></trkpt><trkpt lat="45.19807775680675" lon="8.531355985753336"><ele>104.0</ele><time>2026-04-18T12:45:39.001Z</time></trkpt><trkpt lat="45.198160730924336" lon="8.531449460775544"><ele>104.0</ele><time>2026-04-18T12:45:40.001Z</time></trkpt><trkpt lat="45.198239676389925" lon="8.531555137642599"><ele>104.0</ele><time>2026-04-18T12:45:41.001Z</time></trkpt><trkpt lat="45.19832708945398" lon="8.531665477465639"><ele>104.0</ele><time>2026-04-18T12:45:42.001Z</time></trkpt><trkpt lat="45.19841236594852" lon="8.531783195156752"><ele>104.0</ele><time>2026-04-18T12:45:43.001Z</time></trkpt><trkpt lat="45.19850648997781" lon="8.531896374756377"><ele>104.0</ele><time>2026-04-18T12:45:44.001Z</time></trkpt><trkpt lat="45.19858923841431" lon="8.532041928020988"><ele>104.0</ele><time>2026-04-18T12:45:45.001Z</time></trkpt><trkpt lat="45.198677287139624" lon="8.532180351037866"><ele>104.0</ele><time>2026-04-18T12:45:46.001Z</time></trkpt><trkpt lat="45.19874906953031" lon="8.532322170817572"><ele>104.0</ele><time>2026-04-18T12:45:47.001Z</time></trkpt><trkpt lat="45.19880081143445" lon="8.532451361117577"><ele>104.0</ele><time>2026-04-18T12:45:48.001Z</time></trkpt><trkpt lat="45.198850663076016" lon="8.532595812763816"><ele>104.0</ele><time>2026-04-18T12:45:49.001Z</time></trkpt><trkpt lat="45.19890088103647" lon="8.53273262670952"><ele>104.0</ele><time>2026-04-18T12:45:50.001Z</time></trkpt><trkpt lat="45.19896620979119" lon="8.532861573907933"><ele>104.0</ele><time>2026-04-18T12:45:51.001Z</time></trkpt><trkpt lat="45.19904415857227" lon="8.532979920600255"><ele>104.5</ele><time>2026-04-18T12:45:52.001Z</time></trkpt><trkpt lat="45.19912966455263" lon="8.533095732665354"><ele>105.0</ele><time>2026-04-18T12:45:53.001Z</time></trkpt><trkpt lat="45.19920929936722" lon="8.533215213223635"><ele>105.5</ele><time>2026-04-18T12:45:54.001Z</time></trkpt><trkpt lat="45.19929365983283" lon="8.533340550906289"><ele>106.0</ele><time>2026-04-18T12:45:55.001Z</time></trkpt><trkpt lat="45.19937868862397" lon="8.533464982178215"><ele>106.0</ele><time>2026-04-18T12:45:56.001Z</time></trkpt><trkpt lat="45.19945956071241" lon="8.533577906017245"><ele>106.0</ele><time>2026-04-18T12:45:57.001Z</time></trkpt><trkpt lat="45.199532267872335" lon="8.533683173886036"><ele>106.0</ele><time>2026-04-18T12:45:58.001Z</time></trkpt><trkpt lat="45.19959833848352" lon="8.533773471348184"><ele>106.0</ele><time>2026-04-18T12:45:59.001Z</time></trkpt><trkpt lat="45.199660129049285" lon="8.533861613989785"><ele>106.0</ele><time>2026-04-18T12:46:00.001Z</time></trkpt><trkpt lat="45.19971235556317" lon="8.533955443894286"><ele>106.0</ele><time>2026-04-18T12:46:01.001Z</time></trkpt><trkpt lat="45.19975432452996" lon="8.534073803202652"><ele>106.0</ele><time>2026-04-18T12:46:02.001Z</time></trkpt><trkpt lat="45.199775826557115" lon="8.534197813443157"><ele>106.0</ele><time>2026-04-18T12:46:03.001Z</time></trkpt><trkpt lat="45.19980518370683" lon="8.534327552442205"><ele>106.0</ele><time>2026-04-18T12:46:04.002Z</time></trkpt><trkpt lat="45.19984151276322" lon="8.534477342818647"><ele>106.0</ele><time>2026-04-18T12:46:05.002Z</time></trkpt><trkpt lat="45.19987696965669" lon="8.534621081530405"><ele>105.19999999999999</ele><time>2026-04-18T12:46:06.002Z</time></trkpt><trkpt lat="45.19990999425141" lon="8.534765338324448"><ele>104.39999999999999</ele><time>2026-04-18T12:46:07.002Z</time></trkpt><trkpt lat="45.19993550619782" lon="8.534910393898228"><ele>103.6</ele><time>2026-04-18T12:46:08.002Z</time></trkpt><trkpt lat="45.199957598401326" lon="8.535056345127431"><ele>102.8</ele><time>2026-04-18T12:46:09.002Z</time></trkpt><trkpt lat="45.199977127326584" lon="8.535208807172582"><ele>102.0</ele><time>2026-04-18T12:46:10.002Z</time></trkpt><trkpt lat="45.19999287516746" lon="8.535377478192732"><ele>102.33333333333333</ele><time>2026-04-18T12:46:11.002Z</time></trkpt><trkpt lat="45.200003395676774" lon="8.535529844731148"><ele>102.66666666666666</ele><time>2026-04-18T12:46:12.002Z</time></trkpt><trkpt lat="45.20000662198615" lon="8.535650979007562"><ele>103.0</ele><time>2026-04-18T12:46:13.002Z</time></trkpt><trkpt lat="45.200007674142334" lon="8.535763955712696"><ele>103.33333333333333</ele><time>2026-04-18T12:46:14.002Z</time></trkpt><trkpt lat="45.19998910992687" lon="8.535884516882286"><ele>103.66666666666666</ele><time>2026-04-18T12:46:15.002Z</time></trkpt><trkpt lat="45.20004894982426" lon="8.53594612366568"><ele>104.0</ele><time>2026-04-18T12:46:17.002Z</time></trkpt><trkpt lat="45.20016586223591" lon="8.535956022669863"><ele>103.99999999999999</ele><time>2026-04-18T12:46:19.002Z</time></trkpt><trkpt lat="45.20022975850313" lon="8.535924737496138"><ele>104.0</ele><time>2026-04-18T12:46:20.002Z</time></trkpt><trkpt lat="45.200298140387204" lon="8.535886516954374"><ele>104.0</ele><time>2026-04-18T12:46:21.002Z</time></trkpt><trkpt lat="45.20038139214869" lon="8.53584878772852"><ele>104.0</ele><time>2026-04-18T12:46:22.002Z</time></trkpt><trkpt lat="45.200461213492666" lon="8.535818846157667"><ele>103.99999999999999</ele><time>2026-04-18T12:46:23.002Z</time></trkpt><trkpt lat="45.200550457889776" lon="8.53578525543789"><ele>104.0</ele><time>2026-04-18T12:46:24.002Z</time></trkpt><trkpt lat="45.20061965879007" lon="8.535758663170192"><ele>104.0</ele><time>2026-04-18T12:46:25.002Z</time></trkpt><trkpt lat="45.20068287080889" lon="8.535733663156464"><ele>104.0</ele><time>2026-04-18T12:46:26.002Z</time></trkpt><trkpt lat="45.200794995778985" lon="8.535690000337732"><ele>104.0</ele><time>2026-04-18T12:46:28.002Z</time></trkpt><trkpt lat="45.20090339736839" lon="8.535712553741162"><ele>104.0</ele><time>2026-04-18T12:46:30.002Z</time></trkpt><trkpt lat="45.200956600901726" lon="8.535848650165109"><ele>104.0</ele><time>2026-04-18T12:46:32.002Z</time></trkpt><trkpt lat="45.20095989176221" lon="8.535951255394222"><ele>104.0</ele><time>2026-04-18T12:46:33.002Z</time></trkpt><trkpt lat="45.200963568252455" lon="8.536071965351827"><ele>104.0</ele><time>2026-04-18T12:46:34.002Z</time></trkpt><trkpt lat="45.20096774088264" lon="8.536207276020187"><ele>104.0</ele><time>2026-04-18T12:46:35.002Z</time></trkpt><trkpt lat="45.200969693847384" lon="8.536348939780304"><ele>104.0</ele><time>2026-04-18T12:46:36.003Z</time></trkpt><trkpt lat="45.20097880806574" lon="8.536505169281854"><ele>104.0</ele><time>2026-04-18T12:46:37.003Z</time></trkpt><trkpt lat="45.20098848431366" lon="8.536667260898751"><ele>104.0</ele><time>2026-04-18T12:46:38.003Z</time></trkpt><trkpt lat="45.20099599618043" lon="8.536840332215313"><ele>104.0</ele><time>2026-04-18T12:46:39.003Z</time></trkpt><trkpt lat="45.20100662957068" lon="8.537022007651592"><ele>104.0</ele><time>2026-04-18T12:46:40.003Z</time></trkpt><trkpt lat="45.20101764320151" lon="8.53717479037443"><ele>104.0</ele><time>2026-04-18T12:46:41.003Z</time></trkpt><trkpt lat="45.20102660301109" lon="8.537371633690492"><ele>104.0</ele><time>2026-04-18T12:46:42.003Z</time></trkpt><trkpt lat="45.20103624756731" lon="8.53754743722698"><ele>104.0</ele><time>2026-04-18T12:46:43.003Z</time></trkpt><trkpt lat="45.20105022413655" lon="8.537713600107118"><ele>104.0</ele><time>2026-04-18T12:46:44.003Z</time></trkpt><trkpt lat="45.20105744636722" lon="8.537883622442878"><ele>104.0</ele><time>2026-04-18T12:46:45.003Z</time></trkpt><trkpt lat="45.201067756879034" lon="8.538059638849525"><ele>104.0</ele><time>2026-04-18T12:46:46.003Z</time></trkpt><trkpt lat="45.20107716384257" lon="8.538232704747488"><ele>104.0</ele><time>2026-04-18T12:46:47.003Z</time></trkpt><trkpt lat="45.20108932899074" lon="8.538380110175776"><ele>104.0</ele><time>2026-04-18T12:46:48.003Z</time></trkpt><trkpt lat="45.201099665312796" lon="8.538518377278784"><ele>104.0</ele><time>2026-04-18T12:46:49.003Z</time></trkpt><trkpt lat="45.201106844113326" lon="8.538639983555061"><ele>104.0</ele><time>2026-04-18T12:46:50.003Z</time></trkpt><trkpt lat="45.2011136237732" lon="8.538770055242628"><ele>103.99999999999999</ele><time>2026-04-18T12:46:51.003Z</time></trkpt><trkpt lat="45.20111902563408" lon="8.538881058370418"><ele>104.0</ele><time>2026-04-18T12:46:52.003Z</time></trkpt><trkpt lat="45.20112657382729" lon="8.538979277292466"><ele>104.0</ele><time>2026-04-18T12:46:53.003Z</time></trkpt><trkpt lat="45.201138438749226" lon="8.539069357482663"><ele>104.0</ele><time>2026-04-18T12:46:54.003Z</time></trkpt><trkpt lat="45.201171540559876" lon="8.539222290504942"><ele>103.99999999999999</ele><time>2026-04-18T12:46:56.003Z</time></trkpt><trkpt lat="45.20117376366207" lon="8.539327604619666"><ele>104.0</ele><time>2026-04-18T12:46:58.003Z</time></trkpt><trkpt lat="45.20111005755856" lon="8.539423800701245"><ele>103.6</ele><time>2026-04-18T12:47:00.003Z</time></trkpt><trkpt lat="45.20103800373797" lon="8.53956296212025"><ele>103.2</ele><time>2026-04-18T12:47:01.997Z</time></trkpt><trkpt lat="45.20104615807173" lon="8.5396651512556"><ele>102.8</ele><time>2026-04-18T12:47:02.998Z</time></trkpt><trkpt lat="45.20108570254036" lon="8.539767940104191"><ele>102.39999999999999</ele><time>2026-04-18T12:47:03.998Z</time></trkpt><trkpt lat="45.20113990599654" lon="8.53987352784936"><ele>102.0</ele><time>2026-04-18T12:47:04.998Z</time></trkpt><trkpt lat="45.20118452869449" lon="8.539988842857985"><ele>102.0</ele><time>2026-04-18T12:47:05.998Z</time></trkpt><trkpt lat="45.201235299128086" lon="8.540120788564561"><ele>102.0</ele><time>2026-04-18T12:47:06.998Z</time></trkpt><trkpt lat="45.20128455616338" lon="8.540248899118684"><ele>102.0</ele><time>2026-04-18T12:47:07.998Z</time></trkpt><trkpt lat="45.20133494360217" lon="8.54039425480889"><ele>102.0</ele><time>2026-04-18T12:47:08.998Z</time></trkpt><trkpt lat="45.20138809959756" lon="8.540542950891975"><ele>102.0</ele><time>2026-04-18T12:47:09.998Z</time></trkpt><trkpt lat="45.20144754946183" lon="8.54069282002632"><ele>102.25</ele><time>2026-04-18T12:47:10.998Z</time></trkpt><trkpt lat="45.201507617468806" lon="8.540843510660473"><ele>102.5</ele><time>2026-04-18T12:47:11.998Z</time></trkpt><trkpt lat="45.20156902826512" lon="8.541003860200808"><ele>102.75</ele><time>2026-04-18T12:47:12.999Z</time></trkpt><trkpt lat="45.20163594563859" lon="8.541163908141003"><ele>103.0</ele><time>2026-04-18T12:47:13.999Z</time></trkpt><trkpt lat="45.20169943617854" lon="8.541324195140147"><ele>103.25</ele><time>2026-04-18T12:47:14.999Z</time></trkpt><trkpt lat="45.20176107063366" lon="8.541483933455817"><ele>103.5</ele><time>2026-04-18T12:47:15.999Z</time></trkpt><trkpt lat="45.20182267344665" lon="8.54163890109292"><ele>103.75</ele><time>2026-04-18T12:47:16.999Z</time></trkpt><trkpt lat="45.201885115401524" lon="8.541796134839883"><ele>104.0</ele><time>2026-04-18T12:47:17.999Z</time></trkpt><trkpt lat="45.20194637974745" lon="8.54195574447633"><ele>103.75</ele><time>2026-04-18T12:47:18.999Z</time></trkpt><trkpt lat="45.20200731242453" lon="8.54211622218127"><ele>103.5</ele><time>2026-04-18T12:47:19.999Z</time></trkpt><trkpt lat="45.20206851271633" lon="8.542265816393684"><ele>103.25</ele><time>2026-04-18T12:47:20.999Z</time></trkpt><trkpt lat="45.20212325908768" lon="8.542398640773229"><ele>103.0</ele><time>2026-04-18T12:47:21.999Z</time></trkpt><trkpt lat="45.202173926159475" lon="8.542525277254365"><ele>103.00000000000001</ele><time>2026-04-18T12:47:22.999Z</time></trkpt><trkpt lat="45.20222831415505" lon="8.542646046919586"><ele>103.0</ele><time>2026-04-18T12:47:23.999Z</time></trkpt><trkpt lat="45.20227095996" lon="8.542767246964415"><ele>103.0</ele><time>2026-04-18T12:47:25Z</time></trkpt><trkpt lat="45.20231983631659" lon="8.542884916873183"><ele>103.0</ele><time>2026-04-18T12:47:26Z</time></trkpt><trkpt lat="45.202364530763255" lon="8.542984552990966"><ele>103.00000000000001</ele><time>2026-04-18T12:47:27Z</time></trkpt><trkpt lat="45.20240408209482" lon="8.543068211239428"><ele>103.0</ele><time>2026-04-18T12:47:28Z</time></trkpt><trkpt lat="45.202474506039394" lon="8.543175132346233"><ele>103.0</ele><time>2026-04-18T12:47:30Z</time></trkpt><trkpt lat="45.2025544614457" lon="8.543209964721193"><ele>103.0</ele><time>2026-04-18T12:47:32Z</time></trkpt><trkpt lat="45.20262258934534" lon="8.543151747779943"><ele>103.0</ele><time>2026-04-18T12:47:34Z</time></trkpt><trkpt lat="45.202692920608605" lon="8.543044982502284"><ele>103.0</ele><time>2026-04-18T12:47:36Z</time></trkpt><trkpt lat="45.20278048844845" lon="8.542921237184085"><ele>103.0</ele><time>2026-04-18T12:47:38Z</time></trkpt><trkpt lat="45.20283202816524" lon="8.542849881035604"><ele>103.00000000000001</ele><time>2026-04-18T12:47:39Z</time></trkpt><trkpt lat="45.20288669734582" lon="8.54277237770013"><ele>103.0</ele><time>2026-04-18T12:47:40Z</time></trkpt><trkpt lat="45.20294408414467" lon="8.542691657002981"><ele>103.0</ele><time>2026-04-18T12:47:41Z</time></trkpt><trkpt lat="45.20300196058445" lon="8.542600606884116"><ele>103.0</ele><time>2026-04-18T12:47:42Z</time></trkpt><trkpt lat="45.2030669673659" lon="8.542512509596541"><ele>103.00000000000001</ele><time>2026-04-18T12:47:43.001Z</time></trkpt><trkpt lat="45.20313466704492" lon="8.542424279087168"><ele>103.0</ele><time>2026-04-18T12:47:44.001Z</time></trkpt><trkpt lat="45.20320235441053" lon="8.542333360997567"><ele>103.0</ele><time>2026-04-18T12:47:45.001Z</time></trkpt><trkpt lat="45.20327078026961" lon="8.542240365281788"><ele>103.0</ele><time>2026-04-18T12:47:46.001Z</time></trkpt><trkpt lat="45.20334302314614" lon="8.542144669821353"><ele>103.0</ele><time>2026-04-18T12:47:47.001Z</time></trkpt><trkpt lat="45.203413594230746" lon="8.542058546668027"><ele>103.0</ele><time>2026-04-18T12:47:48.001Z</time></trkpt><trkpt lat="45.20348414007897" lon="8.541967004206903"><ele>103.0</ele><time>2026-04-18T12:47:49.001Z</time></trkpt><trkpt lat="45.203552722784586" lon="8.541871076354825"><ele>103.2</ele><time>2026-04-18T12:47:50.001Z</time></trkpt><trkpt lat="45.20361948070933" lon="8.541770149368832"><ele>103.4</ele><time>2026-04-18T12:47:51.001Z</time></trkpt><trkpt lat="45.20368694145439" lon="8.541671648446147"><ele>103.60000000000001</ele><time>2026-04-18T12:47:52.001Z</time></trkpt><trkpt lat="45.20375941364085" lon="8.541577050260871"><ele>103.80000000000001</ele><time>2026-04-18T12:47:53.001Z</time></trkpt><trkpt lat="45.203832251064945" lon="8.541486840746584"><ele>104.0</ele><time>2026-04-18T12:47:54.001Z</time></trkpt><trkpt lat="45.20390268683777" lon="8.541400905718232"><ele>103.99999999999999</ele><time>2026-04-18T12:47:55.001Z</time></trkpt><trkpt lat="45.203973083160705" lon="8.541309010110227"><ele>104.0</ele><time>2026-04-18T12:47:56.001Z</time></trkpt><trkpt lat="45.20404470055612" lon="8.54121899402312"><ele>104.0</ele><time>2026-04-18T12:47:57.001Z</time></trkpt><trkpt lat="45.20411160218774" lon="8.541141204014382"><ele>104.0</ele><time>2026-04-18T12:47:58.001Z</time></trkpt><trkpt lat="45.20417591215586" lon="8.541067105919103"><ele>103.99999999999999</ele><time>2026-04-18T12:47:59.001Z</time></trkpt><trkpt lat="45.20424189011287" lon="8.54099386029586"><ele>104.0</ele><time>2026-04-18T12:48:00.001Z</time></trkpt><trkpt lat="45.2043087819246" lon="8.540917835452472"><ele>103.99999999999999</ele><time>2026-04-18T12:48:01.001Z</time></trkpt><trkpt lat="45.204375062553474" lon="8.54084015065609"><ele>104.0</ele><time>2026-04-18T12:48:02.001Z</time></trkpt><trkpt lat="45.20443962013629" lon="8.540769510005461"><ele>104.0</ele><time>2026-04-18T12:48:03.001Z</time></trkpt><trkpt lat="45.20449683963306" lon="8.54070382147469"><ele>104.0</ele><time>2026-04-18T12:48:04.001Z</time></trkpt><trkpt lat="45.204549676607435" lon="8.54064666352469"><ele>103.99999999999999</ele><time>2026-04-18T12:48:05.001Z</time></trkpt><trkpt lat="45.20463957716553" lon="8.540554547145922"><ele>104.0</ele><time>2026-04-18T12:48:07.001Z</time></trkpt><trkpt lat="45.20471637543584" lon="8.54048050836334"><ele>104.0</ele><time>2026-04-18T12:48:09.001Z</time></trkpt><trkpt lat="45.204773173028585" lon="8.540428283117981"><ele>104.0</ele><time>2026-04-18T12:48:11.002Z</time></trkpt><trkpt lat="45.20484570389487" lon="8.540350096042738"><ele>104.0</ele><time>2026-04-18T12:48:14.002Z</time></trkpt><trkpt lat="45.20490842215613" lon="8.540230207331721"><ele>104.0</ele><time>2026-04-18T12:48:17.002Z</time></trkpt><trkpt lat="45.204940562464856" lon="8.540102616803727"><ele>104.0</ele><time>2026-04-18T12:48:19.002Z</time></trkpt><trkpt lat="45.20507557577466" lon="8.540017856352064"><ele>104.4</ele><time>2026-04-18T12:48:20.002Z</time></trkpt><trkpt lat="45.20507218435558" lon="8.539908180616813"><ele>104.80000000000001</ele><time>2026-04-18T12:48:22.002Z</time></trkpt><trkpt lat="45.20506183633222" lon="8.54001456339029"><ele>105.19999999999999</ele><time>2026-04-18T12:48:31.002Z</time></trkpt><trkpt lat="45.204970260311086" lon="8.54001806637476"><ele>105.6</ele><time>2026-04-18T12:48:32.002Z</time></trkpt><trkpt lat="45.20505161974904" lon="8.540252756270668"><ele>106.0</ele><time>2026-04-18T12:48:33.002Z</time></trkpt><trkpt lat="45.2050559971116" lon="8.540374510222144"><ele>105.8</ele><time>2026-04-18T12:48:34.002Z</time></trkpt><trkpt lat="45.20506858854755" lon="8.540507430000467"><ele>105.6</ele><time>2026-04-18T12:48:35.002Z</time></trkpt><trkpt lat="45.205089422916814" lon="8.540653201182378"><ele>105.4</ele><time>2026-04-18T12:48:36.002Z</time></trkpt><trkpt lat="45.205114770175754" lon="8.540804148647432"><ele>105.2</ele><time>2026-04-18T12:48:37.002Z</time></trkpt><trkpt lat="45.20514344295237" lon="8.540957349451041"><ele>105.0</ele><time>2026-04-18T12:48:38.002Z</time></trkpt><trkpt lat="45.20517774960614" lon="8.541119138866193"><ele>104.75</ele><time>2026-04-18T12:48:39.002Z</time></trkpt><trkpt lat="45.20521525544974" lon="8.541284217121031"><ele>104.5</ele><time>2026-04-18T12:48:40.002Z</time></trkpt><trkpt lat="45.2052618146019" lon="8.541454343955541"><ele>104.25</ele><time>2026-04-18T12:48:41.002Z</time></trkpt><trkpt lat="45.20531840457352" lon="8.5416267343561"><ele>104.0</ele><time>2026-04-18T12:48:42.002Z</time></trkpt><trkpt lat="45.20537718392705" lon="8.541805447126775"><ele>104.0</ele><time>2026-04-18T12:48:43.002Z</time></trkpt><trkpt lat="45.20543969101726" lon="8.541987019791957"><ele>104.0</ele><time>2026-04-18T12:48:44.003Z</time></trkpt><trkpt lat="45.205512048019365" lon="8.542163003518462"><ele>104.0</ele><time>2026-04-18T12:48:45.003Z</time></trkpt><trkpt lat="45.20558684097829" lon="8.542341537875057"><ele>104.0</ele><time>2026-04-18T12:48:46.003Z</time></trkpt><trkpt lat="45.205671779825664" lon="8.542508962024414"><ele>103.75</ele><time>2026-04-18T12:48:47.003Z</time></trkpt><trkpt lat="45.205762149777385" lon="8.542675100962999"><ele>103.5</ele><time>2026-04-18T12:48:48.003Z</time></trkpt><trkpt lat="45.2058534695758" lon="8.542840877355284"><ele>103.25</ele><time>2026-04-18T12:48:49.003Z</time></trkpt><trkpt lat="45.20594285600864" lon="8.543008204136331"><ele>103.0</ele><time>2026-04-18T12:48:50.003Z</time></trkpt><trkpt lat="45.2060303040467" lon="8.543175785750174"><ele>103.0</ele><time>2026-04-18T12:48:51.003Z</time></trkpt><trkpt lat="45.20611366579976" lon="8.543348078890167"><ele>103.0</ele><time>2026-04-18T12:48:52.003Z</time></trkpt><trkpt lat="45.20619940172371" lon="8.543521769604956"><ele>103.0</ele><time>2026-04-18T12:48:53.003Z</time></trkpt><trkpt lat="45.206291127275364" lon="8.543696462712028"><ele>103.66666666666667</ele><time>2026-04-18T12:48:54.003Z</time></trkpt><trkpt lat="45.20638176924645" lon="8.543872368060633"><ele>104.33333333333334</ele><time>2026-04-18T12:48:55.003Z</time></trkpt><trkpt lat="45.206473491542255" lon="8.544050001747232"><ele>105.0</ele><time>2026-04-18T12:48:56.003Z</time></trkpt><trkpt lat="45.206566606547355" lon="8.54423227296967"><ele>105.0</ele><time>2026-04-18T12:48:57.003Z</time></trkpt><trkpt lat="45.20666156515802" lon="8.54440557112513"><ele>105.0</ele><time>2026-04-18T12:48:58.003Z</time></trkpt><trkpt lat="45.20675059319599" lon="8.544582877226077"><ele>105.0</ele><time>2026-04-18T12:48:59.003Z</time></trkpt><trkpt lat="45.20684512851483" lon="8.54475658446082"><ele>105.33333333333334</ele><time>2026-04-18T12:49:00.003Z</time></trkpt><trkpt lat="45.20694099445377" lon="8.544931061530075"><ele>105.66666666666667</ele><time>2026-04-18T12:49:01.003Z</time></trkpt><trkpt lat="45.207032864021315" lon="8.545106223986439"><ele>106.0</ele><time>2026-04-18T12:49:02.003Z</time></trkpt><trkpt lat="45.20712547878309" lon="8.545281816457797"><ele>104.75</ele><time>2026-04-18T12:49:03.003Z</time></trkpt><trkpt lat="45.20721250020607" lon="8.545457287359332"><ele>103.5</ele><time>2026-04-18T12:49:04.003Z</time></trkpt><trkpt lat="45.207296130625366" lon="8.54562652320157"><ele>102.25</ele><time>2026-04-18T12:49:05.003Z</time></trkpt><trkpt lat="45.20737600697087" lon="8.545783611180617"><ele>101.0</ele><time>2026-04-18T12:49:06.003Z</time></trkpt><trkpt lat="45.20745327229301" lon="8.545928388825454"><ele>100.75</ele><time>2026-04-18T12:49:07.003Z</time></trkpt><trkpt lat="45.207535374753846" lon="8.54607921826871"><ele>100.5</ele><time>2026-04-18T12:49:07.997Z</time></trkpt><trkpt lat="45.207614496447185" lon="8.546225406624387"><ele>100.25</ele><time>2026-04-18T12:49:08.997Z</time></trkpt><trkpt lat="45.20768792171025" lon="8.546359132257368"><ele>100.0</ele><time>2026-04-18T12:49:09.997Z</time></trkpt><trkpt lat="45.20775648435954" lon="8.546484633603555"><ele>100.4</ele><time>2026-04-18T12:49:10.998Z</time></trkpt><trkpt lat="45.20781928852953" lon="8.546603069485197"><ele>100.8</ele><time>2026-04-18T12:49:11.998Z</time></trkpt><trkpt lat="45.207878282835395" lon="8.546715380232742"><ele>101.19999999999999</ele><time>2026-04-18T12:49:12.998Z</time></trkpt><trkpt lat="45.20793906543018" lon="8.546824357809369"><ele>101.6</ele><time>2026-04-18T12:49:13.998Z</time></trkpt><trkpt lat="45.20798891483713" lon="8.546915221278697"><ele>102.0</ele><time>2026-04-18T12:49:14.998Z</time></trkpt><trkpt lat="45.20802588910212" lon="8.5470070816778"><ele>102.39999999999999</ele><time>2026-04-18T12:49:15.998Z</time></trkpt><trkpt lat="45.208084947587906" lon="8.547091916888522"><ele>102.8</ele><time>2026-04-18T12:49:17.998Z</time></trkpt><trkpt lat="45.208166822687765" lon="8.547028820808782"><ele>103.2</ele><time>2026-04-18T12:49:20.998Z</time></trkpt><trkpt lat="45.20825087450091" lon="8.546881195464122"><ele>103.6</ele><time>2026-04-18T12:49:22.999Z</time></trkpt><trkpt lat="45.208310429716654" lon="8.54679252959098"><ele>104.0</ele><time>2026-04-18T12:49:23.999Z</time></trkpt><trkpt lat="45.20838581828665" lon="8.546701375630711"><ele>104.0</ele><time>2026-04-18T12:49:24.999Z</time></trkpt><trkpt lat="45.208469520357724" lon="8.546607703755651"><ele>104.0</ele><time>2026-04-18T12:49:25.999Z</time></trkpt><trkpt lat="45.20855401654652" lon="8.546511110193286"><ele>104.0</ele><time>2026-04-18T12:49:26.999Z</time></trkpt><trkpt lat="45.208641174031904" lon="8.546406003079916"><ele>104.0</ele><time>2026-04-18T12:49:27.999Z</time></trkpt><trkpt lat="45.20873182224958" lon="8.546296953331572"><ele>104.0</ele><time>2026-04-18T12:49:28.999Z</time></trkpt><trkpt lat="45.208823644097386" lon="8.54618255141526"><ele>103.75</ele><time>2026-04-18T12:49:29.999Z</time></trkpt><trkpt lat="45.20891733850348" lon="8.546067139659034"><ele>103.5</ele><time>2026-04-18T12:49:30.999Z</time></trkpt><trkpt lat="45.20901154609242" lon="8.545944368671476"><ele>103.25</ele><time>2026-04-18T12:49:32Z</time></trkpt><trkpt lat="45.20910609744789" lon="8.545825818394476"><ele>103.0</ele><time>2026-04-18T12:49:33Z</time></trkpt><trkpt lat="45.20920220510153" lon="8.545701701565104"><ele>103.0</ele><time>2026-04-18T12:49:34Z</time></trkpt><trkpt lat="45.20929541081703" lon="8.545578999823565"><ele>103.0</ele><time>2026-04-18T12:49:35Z</time></trkpt><trkpt lat="45.20938902167909" lon="8.545442249292835"><ele>103.0</ele><time>2026-04-18T12:49:36Z</time></trkpt><trkpt lat="45.209481663737726" lon="8.545303147400537"><ele>103.0</ele><time>2026-04-18T12:49:37Z</time></trkpt><trkpt lat="45.209571053677315" lon="8.5451724362455"><ele>102.5</ele><time>2026-04-18T12:49:38Z</time></trkpt><trkpt lat="45.209661561276846" lon="8.545037995007883"><ele>102.0</ele><time>2026-04-18T12:49:39Z</time></trkpt><trkpt lat="45.209747340934825" lon="8.54490839837327"><ele>101.5</ele><time>2026-04-18T12:49:40Z</time></trkpt><trkpt lat="45.20983657189819" lon="8.54478126725088"><ele>101.0</ele><time>2026-04-18T12:49:41Z</time></trkpt><trkpt lat="45.209916176036266" lon="8.544669041352499"><ele>101.19999999999999</ele><time>2026-04-18T12:49:42Z</time></trkpt><trkpt lat="45.20999002836545" lon="8.544559793346135"><ele>101.39999999999999</ele><time>2026-04-18T12:49:43Z</time></trkpt><trkpt lat="45.21006312067859" lon="8.544450990998183"><ele>101.6</ele><time>2026-04-18T12:49:44Z</time></trkpt><trkpt lat="45.2101355908838" lon="8.544360509292755"><ele>101.8</ele><time>2026-04-18T12:49:45Z</time></trkpt><trkpt lat="45.21019036751266" lon="8.544294347919461"><ele>102.0</ele><time>2026-04-18T12:49:46Z</time></trkpt><trkpt lat="45.21025363245754" lon="8.544239717639407"><ele>102.0</ele><time>2026-04-18T12:49:47Z</time></trkpt><trkpt lat="45.21031738733425" lon="8.544201673105617"><ele>102.0</ele><time>2026-04-18T12:49:48Z</time></trkpt><trkpt lat="45.210378011036966" lon="8.544160079151782"><ele>102.0</ele><time>2026-04-18T12:49:49Z</time></trkpt><trkpt lat="45.21047494756671" lon="8.544061155115259"><ele>102.0</ele><time>2026-04-18T12:49:51.001Z</time></trkpt><trkpt lat="45.2105273597014" lon="8.543900648020374"><ele>102.0</ele><time>2026-04-18T12:49:53.001Z</time></trkpt><trkpt lat="45.21054874132313" lon="8.543804664276596"><ele>101.66666666666667</ele><time>2026-04-18T12:49:54.001Z</time></trkpt><trkpt lat="45.2105727132142" lon="8.543700202998224"><ele>101.33333333333334</ele><time>2026-04-18T12:49:55.001Z</time></trkpt><trkpt lat="45.21059338772104" lon="8.543597273383108"><ele>101.0</ele><time>2026-04-18T12:49:56.001Z</time></trkpt><trkpt lat="45.210606315993275" lon="8.54349033024634"><ele>100.66666666666667</ele><time>2026-04-18T12:49:57.001Z</time></trkpt><trkpt lat="45.21061650294871" lon="8.543368847129901"><ele>100.33333333333334</ele><time>2026-04-18T12:49:58.001Z</time></trkpt><trkpt lat="45.210618372021145" lon="8.543244648059382"><ele>100.0</ele><time>2026-04-18T12:49:59.001Z</time></trkpt><trkpt lat="45.21062022168031" lon="8.543116538623003"><ele>100.0</ele><time>2026-04-18T12:50:00.001Z</time></trkpt><trkpt lat="45.21065238270193" lon="8.542992011789135"><ele>100.0</ele><time>2026-04-18T12:50:01.001Z</time></trkpt><trkpt lat="45.210702217151606" lon="8.542898897859912"><ele>100.0</ele><time>2026-04-18T12:50:02.001Z</time></trkpt><trkpt lat="45.21075721348042" lon="8.5427868050716"><ele>100.0</ele><time>2026-04-18T12:50:03.001Z</time></trkpt><trkpt lat="45.21081493875159" lon="8.542676033589638"><ele>100.0</ele><time>2026-04-18T12:50:04.001Z</time></trkpt><trkpt lat="45.21088155885632" lon="8.542564149520407"><ele>100.33333333333334</ele><time>2026-04-18T12:50:05.001Z</time></trkpt><trkpt lat="45.21094193105122" lon="8.54245613204882"><ele>100.66666666666667</ele><time>2026-04-18T12:50:06.001Z</time></trkpt><trkpt lat="45.21099406691979" lon="8.542356007979812"><ele>101.0</ele><time>2026-04-18T12:50:07.001Z</time></trkpt><trkpt lat="45.21104010919476" lon="8.542270977247727"><ele>101.33333333333334</ele><time>2026-04-18T12:50:08.001Z</time></trkpt><trkpt lat="45.211095394331494" lon="8.542165550712003"><ele>101.66666666666667</ele><time>2026-04-18T12:50:09.001Z</time></trkpt><trkpt lat="45.21114843861237" lon="8.542057678325397"><ele>102.0</ele><time>2026-04-18T12:50:10.001Z</time></trkpt><trkpt lat="45.21119523523485" lon="8.54196721360629"><ele>102.0</ele><time>2026-04-18T12:50:11.001Z</time></trkpt><trkpt lat="45.21123630460367" lon="8.541892145158823"><ele>102.0</ele><time>2026-04-18T12:50:12.001Z</time></trkpt><trkpt lat="45.21130813585127" lon="8.541771700101485"><ele>102.0</ele><time>2026-04-18T12:50:14.001Z</time></trkpt><trkpt lat="45.21138037791402" lon="8.541753818174046"><ele>102.0</ele><time>2026-04-18T12:50:16.001Z</time></trkpt><trkpt lat="45.21145258919356" lon="8.541842787372213"><ele>102.0</ele><time>2026-04-18T12:50:18.002Z</time></trkpt><trkpt lat="45.21149782789041" lon="8.541923901526792"><ele>102.0</ele><time>2026-04-18T12:50:19.002Z</time></trkpt><trkpt lat="45.211547401171366" lon="8.542017910436954"><ele>102.39999999999999</ele><time>2026-04-18T12:50:20.002Z</time></trkpt><trkpt lat="45.21160557231214" lon="8.542134715936404"><ele>102.8</ele><time>2026-04-18T12:50:21.002Z</time></trkpt><trkpt lat="45.2116624636369" lon="8.542259557896175"><ele>103.2</ele><time>2026-04-18T12:50:22.002Z</time></trkpt><trkpt lat="45.211727752812074" lon="8.54239861289048"><ele>103.6</ele><time>2026-04-18T12:50:23.002Z</time></trkpt><trkpt lat="45.21179329880093" lon="8.542537088707604"><ele>104.0</ele><time>2026-04-18T12:50:24.002Z</time></trkpt><trkpt lat="45.21186357455635" lon="8.542674774086692"><ele>104.0</ele><time>2026-04-18T12:50:25.002Z</time></trkpt><trkpt lat="45.21193413717538" lon="8.542817423298747"><ele>104.0</ele><time>2026-04-18T12:50:26.002Z</time></trkpt><trkpt lat="45.21200394307434" lon="8.5429596671442"><ele>104.0</ele><time>2026-04-18T12:50:27.002Z</time></trkpt><trkpt lat="45.21207677853113" lon="8.543113899288139"><ele>104.0</ele><time>2026-04-18T12:50:28.002Z</time></trkpt><trkpt lat="45.21215341372584" lon="8.543262472568797"><ele>104.0</ele><time>2026-04-18T12:50:29.002Z</time></trkpt><trkpt lat="45.21223119772105" lon="8.543415437799927"><ele>104.0</ele><time>2026-04-18T12:50:30.002Z</time></trkpt><trkpt lat="45.212303162463584" lon="8.543559372431556"><ele>104.0</ele><time>2026-04-18T12:50:31.002Z</time></trkpt><trkpt lat="45.21238553967476" lon="8.543703417525036"><ele>104.0</ele><time>2026-04-18T12:50:32.002Z</time></trkpt><trkpt lat="45.21246916849969" lon="8.543848760606966"><ele>104.0</ele><time>2026-04-18T12:50:33.002Z</time></trkpt><trkpt lat="45.21255682529234" lon="8.54398806926832"><ele>104.0</ele><time>2026-04-18T12:50:34.002Z</time></trkpt><trkpt lat="45.21264021247356" lon="8.544128553380732"><ele>104.0</ele><time>2026-04-18T12:50:35.002Z</time></trkpt><trkpt lat="45.21271741603175" lon="8.544273678189008"><ele>104.0</ele><time>2026-04-18T12:50:36.002Z</time></trkpt><trkpt lat="45.212793710690285" lon="8.544427600004951"><ele>104.0</ele><time>2026-04-18T12:50:37.002Z</time></trkpt><trkpt lat="45.21286169076942" lon="8.54458480403206"><ele>104.0</ele><time>2026-04-18T12:50:38.002Z</time></trkpt><trkpt lat="45.21291647956021" lon="8.544723897288588"><ele>104.0</ele><time>2026-04-18T12:50:39.002Z</time></trkpt><trkpt lat="45.212973076946604" lon="8.544848988094449"><ele>104.0</ele><time>2026-04-18T12:50:40.002Z</time></trkpt><trkpt lat="45.213037415705635" lon="8.5449829626448"><ele>104.0</ele><time>2026-04-18T12:50:41.002Z</time></trkpt><trkpt lat="45.21309972887555" lon="8.545116983654838"><ele>104.0</ele><time>2026-04-18T12:50:42.002Z</time></trkpt><trkpt lat="45.21318070737546" lon="8.545231444802951"><ele>104.0</ele><time>2026-04-18T12:50:43.002Z</time></trkpt><trkpt lat="45.2132756086828" lon="8.545336299246204"><ele>104.0</ele><time>2026-04-18T12:50:44.002Z</time></trkpt><trkpt lat="45.21337212611554" lon="8.545439942936419"><ele>104.0</ele><time>2026-04-18T12:50:45.002Z</time></trkpt><trkpt lat="45.213472401206545" lon="8.545543155487108"><ele>104.0</ele><time>2026-04-18T12:50:46.002Z</time></trkpt><trkpt lat="45.21357684904476" lon="8.54564601956173"><ele>104.0</ele><time>2026-04-18T12:50:47.002Z</time></trkpt><trkpt lat="45.21368040764715" lon="8.545751680635957"><ele>104.0</ele><time>2026-04-18T12:50:48.002Z</time></trkpt><trkpt lat="45.2137854762987" lon="8.545861527130738"><ele>104.0</ele><time>2026-04-18T12:50:49.003Z</time></trkpt><trkpt lat="45.213894764861415" lon="8.545971027468912"><ele>104.0</ele><time>2026-04-18T12:50:50.003Z</time></trkpt><trkpt lat="45.21400195802131" lon="8.546082966293689"><ele>104.0</ele><time>2026-04-18T12:50:51.003Z</time></trkpt><trkpt lat="45.21409763341009" lon="8.546192931621535"><ele>104.0</ele><time>2026-04-18T12:50:52.003Z</time></trkpt><trkpt lat="45.214178089063964" lon="8.54630077638952"><ele>104.2</ele><time>2026-04-18T12:50:53.003Z</time></trkpt><trkpt lat="45.21424853186128" lon="8.546408730004483"><ele>104.4</ele><time>2026-04-18T12:50:54.003Z</time></trkpt><trkpt lat="45.21431631731812" lon="8.54651862331234"><ele>104.6</ele><time>2026-04-18T12:50:55.003Z</time></trkpt><trkpt lat="45.214385828880594" lon="8.546633730150207"><ele>104.8</ele><time>2026-04-18T12:50:56.003Z</time></trkpt><trkpt lat="45.21445615872805" lon="8.546740155919489"><ele>105.0</ele><time>2026-04-18T12:50:57.003Z</time></trkpt><trkpt lat="45.21451628904551" lon="8.546825587374686"><ele>105.0</ele><time>2026-04-18T12:50:58.003Z</time></trkpt><trkpt lat="45.21457561993006" lon="8.546905630140056"><ele>105.0</ele><time>2026-04-18T12:50:59.003Z</time></trkpt><trkpt lat="45.21463344577889" lon="8.546974292406771"><ele>105.0</ele><time>2026-04-18T12:51:00.003Z</time></trkpt><trkpt lat="45.214704872646244" lon="8.54702167360142"><ele>105.0</ele><time>2026-04-18T12:51:01.003Z</time></trkpt><trkpt lat="45.2147891425916" lon="8.547038703873543"><ele>105.0</ele><time>2026-04-18T12:51:02.003Z</time></trkpt><trkpt lat="45.21488255783359" lon="8.54705038479168"><ele>105.0</ele><time>2026-04-18T12:51:03.003Z</time></trkpt><trkpt lat="45.21497642529542" lon="8.547064094952317"><ele>104.5</ele><time>2026-04-18T12:51:04.003Z</time></trkpt><trkpt lat="45.21508540048522" lon="8.54707765753976"><ele>104.0</ele><time>2026-04-18T12:51:05.003Z</time></trkpt><trkpt lat="45.215196273303945" lon="8.547103083436294"><ele>103.5</ele><time>2026-04-18T12:51:06.003Z</time></trkpt><trkpt lat="45.21530969997923" lon="8.547141825796476"><ele>103.0</ele><time>2026-04-18T12:51:07.003Z</time></trkpt><trkpt lat="45.215426769282715" lon="8.54719239051842"><ele>103.0</ele><time>2026-04-18T12:51:08.003Z</time></trkpt><trkpt lat="45.21554137335175" lon="8.54723847012467"><ele>103.0</ele><time>2026-04-18T12:51:09.003Z</time></trkpt><trkpt lat="45.215663654889504" lon="8.547284481025365"><ele>103.0</ele><time>2026-04-18T12:51:10.003Z</time></trkpt><trkpt lat="45.21578782295992" lon="8.547327480063215"><ele>103.0</ele><time>2026-04-18T12:51:11.003Z</time></trkpt><trkpt lat="45.21591028612395" lon="8.547369531149807"><ele>103.25</ele><time>2026-04-18T12:51:12.003Z</time></trkpt><trkpt lat="45.216034046419836" lon="8.54740683177426"><ele>103.5</ele><time>2026-04-18T12:51:13.003Z</time></trkpt><trkpt lat="45.21615157280839" lon="8.547443571950977"><ele>103.75</ele><time>2026-04-18T12:51:13.997Z</time></trkpt><trkpt lat="45.21626882207503" lon="8.54747736196304"><ele>104.0</ele><time>2026-04-18T12:51:14.997Z</time></trkpt><trkpt lat="45.21638951577639" lon="8.54751245890402"><ele>104.2</ele><time>2026-04-18T12:51:15.997Z</time></trkpt><trkpt lat="45.216502906108644" lon="8.547552120578443"><ele>104.4</ele><time>2026-04-18T12:51:16.997Z</time></trkpt><trkpt lat="45.216612196700716" lon="8.547594799099597"><ele>104.6</ele><time>2026-04-18T12:51:17.997Z</time></trkpt><trkpt lat="45.216722287351246" lon="8.547642788506028"><ele>104.8</ele><time>2026-04-18T12:51:18.997Z</time></trkpt><trkpt lat="45.216819339276405" lon="8.547687453132362"><ele>105.0</ele><time>2026-04-18T12:51:19.998Z</time></trkpt><trkpt lat="45.21692946741668" lon="8.547719923053343"><ele>105.0</ele><time>2026-04-18T12:51:20.998Z</time></trkpt><trkpt lat="45.21703165322663" lon="8.54774655515616"><ele>105.0</ele><time>2026-04-18T12:51:21.998Z</time></trkpt><trkpt lat="45.217132764067436" lon="8.547772587281827"><ele>105.0</ele><time>2026-04-18T12:51:22.998Z</time></trkpt><trkpt lat="45.21723742206909" lon="8.547787652398126"><ele>105.0</ele><time>2026-04-18T12:51:23.998Z</time></trkpt><trkpt lat="45.2173485782137" lon="8.547800431983438"><ele>105.0</ele><time>2026-04-18T12:51:24.998Z</time></trkpt><trkpt lat="45.21745510355654" lon="8.547813532618036"><ele>105.0</ele><time>2026-04-18T12:51:25.998Z</time></trkpt><trkpt lat="45.21754158926696" lon="8.547809057091493"><ele>105.0</ele><time>2026-04-18T12:51:26.998Z</time></trkpt><trkpt lat="45.21762450069002" lon="8.547804848870651"><ele>105.0</ele><time>2026-04-18T12:51:27.998Z</time></trkpt><trkpt lat="45.21768942953992" lon="8.547805597747931"><ele>105.0</ele><time>2026-04-18T12:51:28.999Z</time></trkpt><trkpt lat="45.2177572717498" lon="8.547807825703533"><ele>105.0</ele><time>2026-04-18T12:51:29.999Z</time></trkpt><trkpt lat="45.21785733922252" lon="8.547841161981177"><ele>105.0</ele><time>2026-04-18T12:51:31.999Z</time></trkpt><trkpt lat="45.217904704236226" lon="8.547945641534548"><ele>104.8</ele><time>2026-04-18T12:51:33.999Z</time></trkpt><trkpt lat="45.21790668300629" lon="8.548123129704713"><ele>104.6</ele><time>2026-04-18T12:51:35.999Z</time></trkpt><trkpt lat="45.21790772575271" lon="8.548228340499064"><ele>104.4</ele><time>2026-04-18T12:51:36.999Z</time></trkpt><trkpt lat="45.21791402181504" lon="8.548343604296734"><ele>104.2</ele><time>2026-04-18T12:51:37.999Z</time></trkpt><trkpt lat="45.217920683697635" lon="8.548466661576219"><ele>104.0</ele><time>2026-04-18T12:51:38.999Z</time></trkpt><trkpt lat="45.21792983098316" lon="8.548601145106646"><ele>104.2</ele><time>2026-04-18T12:51:40Z</time></trkpt><trkpt lat="45.21793465094539" lon="8.54875435152973"><ele>104.4</ele><time>2026-04-18T12:51:41Z</time></trkpt><trkpt lat="45.21794384175925" lon="8.548903281783883"><ele>104.6</ele><time>2026-04-18T12:51:42Z</time></trkpt><trkpt lat="45.21795369746662" lon="8.549062864673285"><ele>104.8</ele><time>2026-04-18T12:51:43Z</time></trkpt><trkpt lat="45.217964233204576" lon="8.5492259719153"><ele>105.0</ele><time>2026-04-18T12:51:44Z</time></trkpt><trkpt lat="45.2179710750357" lon="8.54938816685599"><ele>105.25</ele><time>2026-04-18T12:51:45Z</time></trkpt><trkpt lat="45.21798195575389" lon="8.549548988353799"><ele>105.5</ele><time>2026-04-18T12:51:46Z</time></trkpt><trkpt lat="45.21799405219446" lon="8.549714246471925"><ele>105.75</ele><time>2026-04-18T12:51:47Z</time></trkpt><trkpt lat="45.218009101388816" lon="8.54987882098945"><ele>106.0</ele><time>2026-04-18T12:51:48Z</time></trkpt><trkpt lat="45.21802270923657" lon="8.550057008411802"><ele>106.0</ele><time>2026-04-18T12:51:49Z</time></trkpt><trkpt lat="45.21803855599833" lon="8.550221057189471"><ele>106.0</ele><time>2026-04-18T12:51:50Z</time></trkpt><trkpt lat="45.218052444531196" lon="8.550404724490225"><ele>106.0</ele><time>2026-04-18T12:51:51Z</time></trkpt><trkpt lat="45.21806263115791" lon="8.550581297505628"><ele>106.0</ele><time>2026-04-18T12:51:52Z</time></trkpt><trkpt lat="45.21807533549914" lon="8.550765082315277"><ele>105.5</ele><time>2026-04-18T12:51:53Z</time></trkpt><trkpt lat="45.21808644560517" lon="8.550946126949604"><ele>105.0</ele><time>2026-04-18T12:51:54Z</time></trkpt><trkpt lat="45.218100244180995" lon="8.551124453473722"><ele>104.5</ele><time>2026-04-18T12:51:55Z</time></trkpt><trkpt lat="45.21811209404083" lon="8.551305896785621"><ele>104.0</ele><time>2026-04-18T12:51:56Z</time></trkpt><trkpt lat="45.2181167871852" lon="8.551480083567903"><ele>104.0</ele><time>2026-04-18T12:51:57.001Z</time></trkpt><trkpt lat="45.21812913109876" lon="8.551654348628078"><ele>104.0</ele><time>2026-04-18T12:51:58.001Z</time></trkpt><trkpt lat="45.21813939665959" lon="8.551834198109958"><ele>104.0</ele><time>2026-04-18T12:51:59.001Z</time></trkpt><trkpt lat="45.218151738973454" lon="8.552013372637774"><ele>104.0</ele><time>2026-04-18T12:52:00.001Z</time></trkpt><trkpt lat="45.21816182463792" lon="8.552192335520404"><ele>104.25</ele><time>2026-04-18T12:52:01.001Z</time></trkpt><trkpt lat="45.21817205646771" lon="8.552374918657097"><ele>104.5</ele><time>2026-04-18T12:52:02.001Z</time></trkpt><trkpt lat="45.21818240307279" lon="8.552541641451693"><ele>104.75</ele><time>2026-04-18T12:52:03.001Z</time></trkpt><trkpt lat="45.21819450012557" lon="8.552722322735578"><ele>105.0</ele><time>2026-04-18T12:52:04.001Z</time></trkpt><trkpt lat="45.218198518999024" lon="8.552898228353214"><ele>105.25</ele><time>2026-04-18T12:52:05.001Z</time></trkpt><trkpt lat="45.218203229965894" lon="8.55306887438009"><ele>105.5</ele><time>2026-04-18T12:52:06.001Z</time></trkpt><trkpt lat="45.218202399626115" lon="8.553249004605211"><ele>105.75</ele><time>2026-04-18T12:52:07.001Z</time></trkpt><trkpt lat="45.21820393346412" lon="8.553414102613948"><ele>106.0</ele><time>2026-04-18T12:52:08.001Z</time></trkpt><trkpt lat="45.21820429007722" lon="8.553585865829845"><ele>105.75</ele><time>2026-04-18T12:52:09.001Z</time></trkpt><trkpt lat="45.21821015897265" lon="8.553761219532305"><ele>105.5</ele><time>2026-04-18T12:52:10.001Z</time></trkpt><trkpt lat="45.218218679018506" lon="8.553940292764791"><ele>105.25</ele><time>2026-04-18T12:52:11.001Z</time></trkpt><trkpt lat="45.218225414612434" lon="8.55412288867393"><ele>105.0</ele><time>2026-04-18T12:52:12.001Z</time></trkpt><trkpt lat="45.21823791619662" lon="8.554303372453765"><ele>105.0</ele><time>2026-04-18T12:52:13.001Z</time></trkpt><trkpt lat="45.21825096964429" lon="8.55447829265937"><ele>105.0</ele><time>2026-04-18T12:52:14.001Z</time></trkpt><trkpt lat="45.21825938850483" lon="8.554656797700941"><ele>105.0</ele><time>2026-04-18T12:52:15.001Z</time></trkpt><trkpt lat="45.21826601882096" lon="8.554838198977254"><ele>105.0</ele><time>2026-04-18T12:52:16.001Z</time></trkpt><trkpt lat="45.21826816184866" lon="8.555015828312255"><ele>105.0</ele><time>2026-04-18T12:52:17.001Z</time></trkpt><trkpt lat="45.21826655191254" lon="8.555200712531217"><ele>105.0</ele><time>2026-04-18T12:52:18.001Z</time></trkpt><trkpt lat="45.218277349756015" lon="8.555386875036778"><ele>105.0</ele><time>2026-04-18T12:52:19.001Z</time></trkpt><trkpt lat="45.218291773097256" lon="8.555579315340477"><ele>105.0</ele><time>2026-04-18T12:52:20.001Z</time></trkpt><trkpt lat="45.218306503482204" lon="8.55577772267335"><ele>104.75</ele><time>2026-04-18T12:52:21.001Z</time></trkpt><trkpt lat="45.21832130768207" lon="8.555979530074541"><ele>104.5</ele><time>2026-04-18T12:52:22.001Z</time></trkpt><trkpt lat="45.218335981102754" lon="8.556188966986086"><ele>104.25</ele><time>2026-04-18T12:52:23.002Z</time></trkpt><trkpt lat="45.218340447020324" lon="8.556400754786887"><ele>104.0</ele><time>2026-04-18T12:52:24.002Z</time></trkpt><trkpt lat="45.21832607204344" lon="8.55661429667645"><ele>104.0</ele><time>2026-04-18T12:52:25.002Z</time></trkpt><trkpt lat="45.21828450367527" lon="8.556824683342617"><ele>104.0</ele><time>2026-04-18T12:52:26.002Z</time></trkpt><trkpt lat="45.218231258168665" lon="8.557032636633837"><ele>104.0</ele><time>2026-04-18T12:52:27.002Z</time></trkpt><trkpt lat="45.21817830129101" lon="8.55724439751457"><ele>103.75</ele><time>2026-04-18T12:52:28.002Z</time></trkpt><trkpt lat="45.21813417990135" lon="8.557457618885122"><ele>103.5</ele><time>2026-04-18T12:52:29.002Z</time></trkpt><trkpt lat="45.21809480676001" lon="8.557653785010364"><ele>103.25</ele><time>2026-04-18T12:52:30.002Z</time></trkpt><trkpt lat="45.21804957407057" lon="8.557831254509647"><ele>103.0</ele><time>2026-04-18T12:52:31.002Z</time></trkpt><trkpt lat="45.21799045279401" lon="8.55799915979639"><ele>103.0</ele><time>2026-04-18T12:52:32.002Z</time></trkpt><trkpt lat="45.21791845167419" lon="8.5581575491129"><ele>103.0</ele><time>2026-04-18T12:52:33.002Z</time></trkpt><trkpt lat="45.21783695811139" lon="8.558316615448856"><ele>103.0</ele><time>2026-04-18T12:52:34.002Z</time></trkpt><trkpt lat="45.21776320180116" lon="8.55846429272969"><ele>103.0</ele><time>2026-04-18T12:52:35.002Z</time></trkpt><trkpt lat="45.21769415421096" lon="8.558607043354453"><ele>103.4</ele><time>2026-04-18T12:52:36.002Z</time></trkpt><trkpt lat="45.21763575793005" lon="8.558733633926247"><ele>103.80000000000001</ele><time>2026-04-18T12:52:37.002Z</time></trkpt><trkpt lat="45.21759645460971" lon="8.558861050164596"><ele>104.2</ele><time>2026-04-18T12:52:38.002Z</time></trkpt><trkpt lat="45.217590389905595" lon="8.55899337839526"><ele>104.6</ele><time>2026-04-18T12:52:39.002Z</time></trkpt><trkpt lat="45.21762169323953" lon="8.559131798901873"><ele>105.0</ele><time>2026-04-18T12:52:40.002Z</time></trkpt><trkpt lat="45.21768027120059" lon="8.559276240509673"><ele>105.0</ele><time>2026-04-18T12:52:41.002Z</time></trkpt><trkpt lat="45.217735328542574" lon="8.55942708492802"><ele>105.0</ele><time>2026-04-18T12:52:42.002Z</time></trkpt><trkpt lat="45.21776829546388" lon="8.559567515364412"><ele>105.0</ele><time>2026-04-18T12:52:43.002Z</time></trkpt><trkpt lat="45.21776963707283" lon="8.559718769903016"><ele>105.0</ele><time>2026-04-18T12:52:44.002Z</time></trkpt><trkpt lat="45.21773458940537" lon="8.559878574196718"><ele>105.0</ele><time>2026-04-18T12:52:45.002Z</time></trkpt><trkpt lat="45.21768891561318" lon="8.560034216431438"><ele>105.0</ele><time>2026-04-18T12:52:46.002Z</time></trkpt><trkpt lat="45.2176472983925" lon="8.56017398703936"><ele>105.0</ele><time>2026-04-18T12:52:47.002Z</time></trkpt><trkpt lat="45.21760683433903" lon="8.560299354108727"><ele>105.0</ele><time>2026-04-18T12:52:48.002Z</time></trkpt><trkpt lat="45.217553017867715" lon="8.560403003921076"><ele>105.0</ele><time>2026-04-18T12:52:49.002Z</time></trkpt><trkpt lat="45.21748598355442" lon="8.560494539458428"><ele>105.0</ele><time>2026-04-18T12:52:50.002Z</time></trkpt><trkpt lat="45.21740879747735" lon="8.560581608990132"><ele>105.0</ele><time>2026-04-18T12:52:51.002Z</time></trkpt><trkpt lat="45.21732749708498" lon="8.560669665783072"><ele>105.0</ele><time>2026-04-18T12:52:52.002Z</time></trkpt><trkpt lat="45.21725314295861" lon="8.560745281753565"><ele>105.0</ele><time>2026-04-18T12:52:53.002Z</time></trkpt><trkpt lat="45.21719152825009" lon="8.560808143410462"><ele>105.0</ele><time>2026-04-18T12:52:54.002Z</time></trkpt><trkpt lat="45.21711250065824" lon="8.560902788646693"><ele>105.0</ele><time>2026-04-18T12:52:56.003Z</time></trkpt><trkpt lat="45.217049979602606" lon="8.560990556885855"><ele>105.8</ele><time>2026-04-18T12:52:59.003Z</time></trkpt><trkpt lat="45.21704388291805" lon="8.561181734481202"><ele>106.6</ele><time>2026-04-18T12:53:04.003Z</time></trkpt><trkpt lat="45.21709139129611" lon="8.56128534419878"><ele>107.4</ele><time>2026-04-18T12:53:05.003Z</time></trkpt><trkpt lat="45.21713247608418" lon="8.561387414431318"><ele>108.2</ele><time>2026-04-18T12:53:06.003Z</time></trkpt><trkpt lat="45.217173707511876" lon="8.56151410128274"><ele>109.0</ele><time>2026-04-18T12:53:07.003Z</time></trkpt><trkpt lat="45.217220677246985" lon="8.56164732857878"><ele>109.0</ele><time>2026-04-18T12:53:08.003Z</time></trkpt><trkpt lat="45.21726788683063" lon="8.56178683409723"><ele>109.0</ele><time>2026-04-18T12:53:09.003Z</time></trkpt><trkpt lat="45.217323185797035" lon="8.56192773552431"><ele>109.0</ele><time>2026-04-18T12:53:10.003Z</time></trkpt><trkpt lat="45.217383830892345" lon="8.56207461170458"><ele>109.0</ele><time>2026-04-18T12:53:11.003Z</time></trkpt><trkpt lat="45.217446566698335" lon="8.562224080740723"><ele>108.25</ele><time>2026-04-18T12:53:12.003Z</time></trkpt><trkpt lat="45.21751718812596" lon="8.562381109321889"><ele>107.5</ele><time>2026-04-18T12:53:13.003Z</time></trkpt><trkpt lat="45.21759694720075" lon="8.562533318059772"><ele>106.75</ele><time>2026-04-18T12:53:14.003Z</time></trkpt><trkpt lat="45.21768351944261" lon="8.562682273256161"><ele>106.0</ele><time>2026-04-18T12:53:15.003Z</time></trkpt><trkpt lat="45.21777789076487" lon="8.562832134684395"><ele>106.0</ele><time>2026-04-18T12:53:16.003Z</time></trkpt><trkpt lat="45.21788238192146" lon="8.562976714414491"><ele>106.0</ele><time>2026-04-18T12:53:17.003Z</time></trkpt><trkpt lat="45.21799771162555" lon="8.563116311898888"><ele>106.0</ele><time>2026-04-18T12:53:18.003Z</time></trkpt><trkpt lat="45.21812009229317" lon="8.563250796077586"><ele>106.0</ele><time>2026-04-18T12:53:19.003Z</time></trkpt><trkpt lat="45.21824629649218" lon="8.563384895932025"><ele>106.0</ele><time>2026-04-18T12:53:19.997Z</time></trkpt><trkpt lat="45.218377424291916" lon="8.563518056393423"><ele>106.0</ele><time>2026-04-18T12:53:20.997Z</time></trkpt><trkpt lat="45.21850185594348" lon="8.563637157424774"><ele>106.25</ele><time>2026-04-18T12:53:21.997Z</time></trkpt><trkpt lat="45.21862015741567" lon="8.563739875841318"><ele>106.5</ele><time>2026-04-18T12:53:22.997Z</time></trkpt><trkpt lat="45.21873898440533" lon="8.563820782115252"><ele>106.75</ele><time>2026-04-18T12:53:23.997Z</time></trkpt><trkpt lat="45.21886827706782" lon="8.56388866219488"><ele>107.0</ele><time>2026-04-18T12:53:24.998Z</time></trkpt><trkpt lat="45.21900312737104" lon="8.563947108351913"><ele>107.0</ele><time>2026-04-18T12:53:25.998Z</time></trkpt><trkpt lat="45.21914027598094" lon="8.563999867873305"><ele>107.0</ele><time>2026-04-18T12:53:26.998Z</time></trkpt><trkpt lat="45.219274659396895" lon="8.564057236372362"><ele>107.0</ele><time>2026-04-18T12:53:27.998Z</time></trkpt><trkpt lat="45.219409419725245" lon="8.564115997574518"><ele>107.0</ele><time>2026-04-18T12:53:28.998Z</time></trkpt><trkpt lat="45.21953948936463" lon="8.56418720217515"><ele>107.0</ele><time>2026-04-18T12:53:29.998Z</time></trkpt><trkpt lat="45.219667958278244" lon="8.564266029039063"><ele>107.0</ele><time>2026-04-18T12:53:30.998Z</time></trkpt><trkpt lat="45.2198014501442" lon="8.564334514753979"><ele>107.0</ele><time>2026-04-18T12:53:31.998Z</time></trkpt><trkpt lat="45.219938841162666" lon="8.564389525028867"><ele>107.0</ele><time>2026-04-18T12:53:32.998Z</time></trkpt><trkpt lat="45.220077464615606" lon="8.564431518388758"><ele>106.75</ele><time>2026-04-18T12:53:33.998Z</time></trkpt><trkpt lat="45.2202067618981" lon="8.564465542202676"><ele>106.5</ele><time>2026-04-18T12:53:34.999Z</time></trkpt><trkpt lat="45.220326441805504" lon="8.564499147706922"><ele>106.25</ele><time>2026-04-18T12:53:35.999Z</time></trkpt><trkpt lat="45.22043758541709" lon="8.564533301969403"><ele>106.0</ele><time>2026-04-18T12:53:36.999Z</time></trkpt><trkpt lat="45.22054183693638" lon="8.564568224273108"><ele>106.0</ele><time>2026-04-18T12:53:37.999Z</time></trkpt><trkpt lat="45.2206393085645" lon="8.564602062817453"><ele>106.0</ele><time>2026-04-18T12:53:38.999Z</time></trkpt><trkpt lat="45.22073127738007" lon="8.56463325630484"><ele>106.0</ele><time>2026-04-18T12:53:39.999Z</time></trkpt><trkpt lat="45.22083141192194" lon="8.56466618865819"><ele>106.0</ele><time>2026-04-18T12:53:40.999Z</time></trkpt><trkpt lat="45.22093664216662" lon="8.56470034407465"><ele>106.0</ele><time>2026-04-18T12:53:41.999Z</time></trkpt><trkpt lat="45.221036864723466" lon="8.564730147501155"><ele>106.0</ele><time>2026-04-18T12:53:42.999Z</time></trkpt><trkpt lat="45.22114197409651" lon="8.564759320166251"><ele>106.0</ele><time>2026-04-18T12:53:43.999Z</time></trkpt><trkpt lat="45.2212516715526" lon="8.564804456620447"><ele>106.0</ele><time>2026-04-18T12:53:45Z</time></trkpt><trkpt lat="45.22134746250779" lon="8.564888137855421"><ele>106.0</ele><time>2026-04-18T12:53:46Z</time></trkpt><trkpt lat="45.22142476822118" lon="8.565020174764312"><ele>106.0</ele><time>2026-04-18T12:53:47Z</time></trkpt><trkpt lat="45.22149277807428" lon="8.565173743364223"><ele>106.0</ele><time>2026-04-18T12:53:48Z</time></trkpt><trkpt lat="45.2215649171759" lon="8.565337462548559"><ele>106.0</ele><time>2026-04-18T12:53:49Z</time></trkpt><trkpt lat="45.22164125962251" lon="8.565508741644969"><ele>106.0</ele><time>2026-04-18T12:53:50Z</time></trkpt><trkpt lat="45.22171926543611" lon="8.565693968081224"><ele>106.0</ele><time>2026-04-18T12:53:51Z</time></trkpt><trkpt lat="45.221798361446616" lon="8.565877897377044"><ele>106.0</ele><time>2026-04-18T12:53:52Z</time></trkpt><trkpt lat="45.2218615274919" lon="8.566048707480034"><ele>106.0</ele><time>2026-04-18T12:53:53Z</time></trkpt><trkpt lat="45.22191982646036" lon="8.56621685710992"><ele>106.0</ele><time>2026-04-18T12:53:54Z</time></trkpt><trkpt lat="45.221989145592325" lon="8.566378232812848"><ele>106.0</ele><time>2026-04-18T12:53:55Z</time></trkpt><trkpt lat="45.2220824035908" lon="8.566525642752186"><ele>106.0</ele><time>2026-04-18T12:53:56Z</time></trkpt><trkpt lat="45.222188799632775" lon="8.566659552279093"><ele>106.0</ele><time>2026-04-18T12:53:57Z</time></trkpt><trkpt lat="45.222300746567235" lon="8.566782524698093"><ele>106.0</ele><time>2026-04-18T12:53:58Z</time></trkpt><trkpt lat="45.22241495291183" lon="8.566910323359144"><ele>106.75</ele><time>2026-04-18T12:53:59Z</time></trkpt><trkpt lat="45.22252991599875" lon="8.567038630294793"><ele>107.5</ele><time>2026-04-18T12:54:00Z</time></trkpt><trkpt lat="45.222648411496415" lon="8.567164367835161"><ele>108.25</ele><time>2026-04-18T12:54:01Z</time></trkpt><trkpt lat="45.222772882972045" lon="8.56728226890398"><ele>109.0</ele><time>2026-04-18T12:54:02Z</time></trkpt><trkpt lat="45.222900962321596" lon="8.567391864563122"><ele>109.0</ele><time>2026-04-18T12:54:03.001Z</time></trkpt><trkpt lat="45.22301674191574" lon="8.567496717979198"><ele>109.0</ele><time>2026-04-18T12:54:04.001Z</time></trkpt><trkpt lat="45.223128456120165" lon="8.567601021026093"><ele>109.0</ele><time>2026-04-18T12:54:05.001Z</time></trkpt><trkpt lat="45.22324543131016" lon="8.567708176669717"><ele>109.0</ele><time>2026-04-18T12:54:06.001Z</time></trkpt><trkpt lat="45.22337125764631" lon="8.56781141870816"><ele>109.33333333333334</ele><time>2026-04-18T12:54:07.001Z</time></trkpt><trkpt lat="45.22350468205295" lon="8.567905451505142"><ele>109.66666666666666</ele><time>2026-04-18T12:54:08.001Z</time></trkpt><trkpt lat="45.22364329085721" lon="8.567997533087883"><ele>110.0</ele><time>2026-04-18T12:54:09.001Z</time></trkpt><trkpt lat="45.22378201920347" lon="8.56809485133654"><ele>110.0</ele><time>2026-04-18T12:54:10.001Z</time></trkpt><trkpt lat="45.223920948359485" lon="8.56819092163749"><ele>110.0</ele><time>2026-04-18T12:54:11.001Z</time></trkpt><trkpt lat="45.22405381073727" lon="8.568285325964206"><ele>110.0</ele><time>2026-04-18T12:54:12.001Z</time></trkpt><trkpt lat="45.22418926432567" lon="8.56837734686739"><ele>110.33333333333333</ele><time>2026-04-18T12:54:13.001Z</time></trkpt><trkpt lat="45.224324798918786" lon="8.56846830373565"><ele>110.66666666666666</ele><time>2026-04-18T12:54:14.001Z</time></trkpt><trkpt lat="45.22446445315028" lon="8.568560012847934"><ele>111.0</ele><time>2026-04-18T12:54:15.001Z</time></trkpt><trkpt lat="45.224602291744304" lon="8.568656801315713"><ele>111.0</ele><time>2026-04-18T12:54:16.001Z</time></trkpt><trkpt lat="45.224737759493664" lon="8.568765704048403"><ele>111.0</ele><time>2026-04-18T12:54:17.001Z</time></trkpt><trkpt lat="45.22487137071745" lon="8.568891086217072"><ele>111.0</ele><time>2026-04-18T12:54:18.001Z</time></trkpt><trkpt lat="45.224998106664415" lon="8.569036510200979"><ele>111.0</ele><time>2026-04-18T12:54:19.001Z</time></trkpt><trkpt lat="45.22511868374317" lon="8.56919595092333"><ele>111.0</ele><time>2026-04-18T12:54:20.001Z</time></trkpt><trkpt lat="45.22523024815337" lon="8.56935728835326"><ele>111.0</ele><time>2026-04-18T12:54:21.001Z</time></trkpt><trkpt lat="45.22534151830407" lon="8.569506601921367"><ele>110.75</ele><time>2026-04-18T12:54:22.001Z</time></trkpt><trkpt lat="45.22544520753742" lon="8.569637808323419"><ele>110.5</ele><time>2026-04-18T12:54:23.001Z</time></trkpt><trkpt lat="45.22554298574342" lon="8.569754623747787"><ele>110.25</ele><time>2026-04-18T12:54:24.001Z</time></trkpt><trkpt lat="45.22563694776766" lon="8.569847852408314"><ele>110.0</ele><time>2026-04-18T12:54:25.001Z</time></trkpt><trkpt lat="45.22573372119029" lon="8.56991811045658"><ele>110.0</ele><time>2026-04-18T12:54:26.001Z</time></trkpt><trkpt lat="45.22584313697392" lon="8.569965951838304"><ele>110.0</ele><time>2026-04-18T12:54:27.001Z</time></trkpt><trkpt lat="45.225969325860426" lon="8.5699978438161"><ele>110.0</ele><time>2026-04-18T12:54:28.001Z</time></trkpt><trkpt lat="45.2260999799151" lon="8.57003076962032"><ele>110.0</ele><time>2026-04-18T12:54:29.001Z</time></trkpt><trkpt lat="45.226215676747096" lon="8.570073851428978"><ele>110.0</ele><time>2026-04-18T12:54:30.002Z</time></trkpt><trkpt lat="45.226319970330074" lon="8.570122418735007"><ele>110.0</ele><time>2026-04-18T12:54:31.002Z</time></trkpt><trkpt lat="45.22641882340052" lon="8.570178404342796"><ele>110.0</ele><time>2026-04-18T12:54:32.002Z</time></trkpt><trkpt lat="45.226501344368664" lon="8.570244297846473"><ele>110.0</ele><time>2026-04-18T12:54:33.002Z</time></trkpt><trkpt lat="45.22655751715625" lon="8.570321514853749"><ele>110.0</ele><time>2026-04-18T12:54:34.002Z</time></trkpt><trkpt lat="45.22657365849783" lon="8.570420076637719"><ele>110.0</ele><time>2026-04-18T12:54:35.002Z</time></trkpt><trkpt lat="45.226551969120166" lon="8.570523297805465"><ele>110.0</ele><time>2026-04-18T12:54:36.002Z</time></trkpt><trkpt lat="45.226502966733264" lon="8.570636098231478"><ele>110.0</ele><time>2026-04-18T12:54:37.002Z</time></trkpt><trkpt lat="45.22644703551445" lon="8.57076463266539"><ele>110.0</ele><time>2026-04-18T12:54:38.002Z</time></trkpt><trkpt lat="45.22638389259814" lon="8.570924434815465"><ele>110.0</ele><time>2026-04-18T12:54:39.002Z</time></trkpt><trkpt lat="45.226331772663286" lon="8.571063890725236"><ele>110.0</ele><time>2026-04-18T12:54:40.002Z</time></trkpt><trkpt lat="45.22629385989582" lon="8.57118472228073"><ele>110.0</ele><time>2026-04-18T12:54:41.002Z</time></trkpt><trkpt lat="45.226286025596536" lon="8.571308262160922"><ele>110.0</ele><time>2026-04-18T12:54:42.002Z</time></trkpt><trkpt lat="45.22631468284199" lon="8.57143817696517"><ele>110.0</ele><time>2026-04-18T12:54:43.002Z</time></trkpt><trkpt lat="45.22636787350951" lon="8.571567438355356"><ele>110.0</ele><time>2026-04-18T12:54:44.002Z</time></trkpt><trkpt lat="45.226430830039305" lon="8.571706912206897"><ele>110.0</ele><time>2026-04-18T12:54:45.002Z</time></trkpt><trkpt lat="45.22649486420778" lon="8.571867772207133"><ele>110.0</ele><time>2026-04-18T12:54:46.002Z</time></trkpt><trkpt lat="45.2265539024573" lon="8.57204226244392"><ele>110.0</ele><time>2026-04-18T12:54:47.002Z</time></trkpt><trkpt lat="45.22661379693583" lon="8.572230151155031"><ele>110.0</ele><time>2026-04-18T12:54:48.002Z</time></trkpt><trkpt lat="45.22667006398548" lon="8.57242166953506"><ele>110.0</ele><time>2026-04-18T12:54:49.002Z</time></trkpt><trkpt lat="45.22672363869614" lon="8.572622360508085"><ele>110.0</ele><time>2026-04-18T12:54:50.002Z</time></trkpt><trkpt lat="45.22677123710858" lon="8.572843928619095"><ele>110.0</ele><time>2026-04-18T12:54:51.002Z</time></trkpt><trkpt lat="45.226812681300004" lon="8.573072607731788"><ele>109.66666666666666</ele><time>2026-04-18T12:54:52.002Z</time></trkpt><trkpt lat="45.226851252357825" lon="8.573316366171834"><ele>109.33333333333334</ele><time>2026-04-18T12:54:53.002Z</time></trkpt><trkpt lat="45.226883045269034" lon="8.573551452553133"><ele>109.0</ele><time>2026-04-18T12:54:54.002Z</time></trkpt><trkpt lat="45.226915725013384" lon="8.573766649581675"><ele>108.66666666666667</ele><time>2026-04-18T12:54:55.002Z</time></trkpt><trkpt lat="45.22695619497098" lon="8.573973778525357"><ele>108.33333333333334</ele><time>2026-04-18T12:54:56.002Z</time></trkpt><trkpt lat="45.227008066380805" lon="8.574180418053853"><ele>108.0</ele><time>2026-04-18T12:54:57.002Z</time></trkpt><trkpt lat="45.22708202470376" lon="8.574381867726249"><ele>108.0</ele><time>2026-04-18T12:54:58.002Z</time></trkpt><trkpt lat="45.22717265866215" lon="8.574573507899217"><ele>108.0</ele><time>2026-04-18T12:54:59.002Z</time></trkpt><trkpt lat="45.22728017111699" lon="8.574756243186236"><ele>108.0</ele><time>2026-04-18T12:55:00.002Z</time></trkpt><trkpt lat="45.22739730887586" lon="8.574935221369353"><ele>108.0</ele><time>2026-04-18T12:55:01.002Z</time></trkpt><trkpt lat="45.22751266508794" lon="8.575116179172632"><ele>108.0</ele><time>2026-04-18T12:55:02.003Z</time></trkpt><trkpt lat="45.22763138909836" lon="8.575300301487172"><ele>108.0</ele><time>2026-04-18T12:55:03.003Z</time></trkpt><trkpt lat="45.22775149338546" lon="8.575488134567932"><ele>108.0</ele><time>2026-04-18T12:55:04.003Z</time></trkpt><trkpt lat="45.22787334471963" lon="8.57567445223253"><ele>108.0</ele><time>2026-04-18T12:55:05.003Z</time></trkpt><trkpt lat="45.227995323277106" lon="8.575863069207353"><ele>108.0</ele><time>2026-04-18T12:55:06.003Z</time></trkpt><trkpt lat="45.2281143297508" lon="8.576051045937412"><ele>107.33333333333334</ele><time>2026-04-18T12:55:07.003Z</time></trkpt><trkpt lat="45.22823351715961" lon="8.57624021726995"><ele>106.66666666666667</ele><time>2026-04-18T12:55:08.003Z</time></trkpt><trkpt lat="45.22834728873307" lon="8.576418156067966"><ele>106.0</ele><time>2026-04-18T12:55:09.003Z</time></trkpt><trkpt lat="45.22845436889072" lon="8.57658284551179"><ele>106.0</ele><time>2026-04-18T12:55:10.003Z</time></trkpt><trkpt lat="45.22855542313546" lon="8.576732952726346"><ele>106.0</ele><time>2026-04-18T12:55:11.003Z</time></trkpt><trkpt lat="45.22864669491043" lon="8.576877835384332"><ele>106.0</ele><time>2026-04-18T12:55:12.003Z</time></trkpt><trkpt lat="45.228733712018574" lon="8.577018345955524"><ele>106.0</ele><time>2026-04-18T12:55:13.003Z</time></trkpt><trkpt lat="45.22881953347677" lon="8.57715869960634"><ele>106.25</ele><time>2026-04-18T12:55:14.003Z</time></trkpt><trkpt lat="45.22889818149678" lon="8.577315566762628"><ele>106.5</ele><time>2026-04-18T12:55:15.003Z</time></trkpt><trkpt lat="45.228957990024135" lon="8.577478045437678"><ele>106.75</ele><time>2026-04-18T12:55:16.003Z</time></trkpt><trkpt lat="45.22900018060582" lon="8.57763634001155"><ele>107.0</ele><time>2026-04-18T12:55:17.003Z</time></trkpt><trkpt lat="45.22903850647668" lon="8.577780094869354"><ele>107.16666666666666</ele><time>2026-04-18T12:55:18.003Z</time></trkpt><trkpt lat="45.229074204078046" lon="8.57791288854679"><ele>107.33333333333333</ele><time>2026-04-18T12:55:19.003Z</time></trkpt><trkpt lat="45.229108161357274" lon="8.578028962770166"><ele>107.5</ele><time>2026-04-18T12:55:20.003Z</time></trkpt><trkpt lat="45.22914346090155" lon="8.578124926051993"><ele>107.66666666666666</ele><time>2026-04-18T12:55:21.003Z</time></trkpt><trkpt lat="45.22919633187114" lon="8.57820832926857"><ele>107.83333333333333</ele><time>2026-04-18T12:55:22.003Z</time></trkpt><trkpt lat="45.22924090017522" lon="8.578293072011062"><ele>108.0</ele><time>2026-04-18T12:55:23.003Z</time></trkpt><trkpt lat="45.229330408672745" lon="8.578334070070541"><ele>108.0</ele><time>2026-04-18T12:55:24.003Z</time></trkpt><trkpt lat="45.22942555351267" lon="8.57830541968936"><ele>108.0</ele><time>2026-04-18T12:55:25.003Z</time></trkpt><trkpt lat="45.229536333932494" lon="8.578283216664959"><ele>108.0</ele><time>2026-04-18T12:55:25.997Z</time></trkpt><trkpt lat="45.22965975295214" lon="8.578267324205683"><ele>108.0</ele><time>2026-04-18T12:55:26.997Z</time></trkpt><trkpt lat="45.229790874015166" lon="8.578234907666978"><ele>108.0</ele><time>2026-04-18T12:55:27.997Z</time></trkpt><trkpt lat="45.22993371387399" lon="8.578199593971322"><ele>108.0</ele><time>2026-04-18T12:55:28.997Z</time></trkpt><trkpt lat="45.23008367996566" lon="8.57816251853227"><ele>108.0</ele><time>2026-04-18T12:55:29.997Z</time></trkpt><trkpt lat="45.23023592644778" lon="8.57810069306663"><ele>108.0</ele><time>2026-04-18T12:55:30.997Z</time></trkpt><trkpt lat="45.230390355233034" lon="8.57806321964065"><ele>108.0</ele><time>2026-04-18T12:55:31.998Z</time></trkpt><trkpt lat="45.23055528774179" lon="8.578018590467252"><ele>108.0</ele><time>2026-04-18T12:55:32.998Z</time></trkpt><trkpt lat="45.23072618332012" lon="8.577971533537355"><ele>107.66666666666666</ele><time>2026-04-18T12:55:33.998Z</time></trkpt><trkpt lat="45.23089731830956" lon="8.577929828023569"><ele>107.33333333333333</ele><time>2026-04-18T12:55:34.998Z</time></trkpt><trkpt lat="45.231073545515166" lon="8.577883487020426"><ele>107.0</ele><time>2026-04-18T12:55:35.998Z</time></trkpt><trkpt lat="45.23124893253723" lon="8.577835785448697"><ele>107.0</ele><time>2026-04-18T12:55:36.998Z</time></trkpt><trkpt lat="45.23142671018204" lon="8.577784932199052"><ele>107.0</ele><time>2026-04-18T12:55:37.998Z</time></trkpt><trkpt lat="45.231604507826525" lon="8.57773075126108"><ele>107.0</ele><time>2026-04-18T12:55:38.998Z</time></trkpt><trkpt lat="45.23177635781486" lon="8.577674160156338"><ele>107.0</ele><time>2026-04-18T12:55:39.998Z</time></trkpt><trkpt lat="45.23194434452247" lon="8.577607512484997"><ele>107.0</ele><time>2026-04-18T12:55:40.999Z</time></trkpt><trkpt lat="45.23211783740786" lon="8.577524625762988"><ele>107.0</ele><time>2026-04-18T12:55:41.999Z</time></trkpt><trkpt lat="45.232295738176745" lon="8.577460956855788"><ele>107.33333333333333</ele><time>2026-04-18T12:55:42.999Z</time></trkpt><trkpt lat="45.2324715332843" lon="8.57736953688412"><ele>107.66666666666666</ele><time>2026-04-18T12:55:43.999Z</time></trkpt><trkpt lat="45.2326427292804" lon="8.577255420581173"><ele>108.0</ele><time>2026-04-18T12:55:44.999Z</time></trkpt><trkpt lat="45.232822092300886" lon="8.577166903294152"><ele>108.0</ele><time>2026-04-18T12:55:45.999Z</time></trkpt><trkpt lat="45.23300186776174" lon="8.577078992953625"><ele>108.0</ele><time>2026-04-18T12:55:46.999Z</time></trkpt><trkpt lat="45.233182842513564" lon="8.576982547382352"><ele>108.0</ele><time>2026-04-18T12:55:47.999Z</time></trkpt><trkpt lat="45.23336180033244" lon="8.576883527250878"><ele>108.33333333333334</ele><time>2026-04-18T12:55:48.999Z</time></trkpt><trkpt lat="45.233538854914954" lon="8.57678646685444"><ele>108.66666666666667</ele><time>2026-04-18T12:55:49.999Z</time></trkpt><trkpt lat="45.23370315471242" lon="8.576695146563686"><ele>109.0</ele><time>2026-04-18T12:55:51Z</time></trkpt><trkpt lat="45.23385741913005" lon="8.576614473132171"><ele>108.66666666666667</ele><time>2026-04-18T12:55:52Z</time></trkpt><trkpt lat="45.234006560584724" lon="8.576535342055028"><ele>108.33333333333334</ele><time>2026-04-18T12:55:53Z</time></trkpt><trkpt lat="45.23415043476229" lon="8.576455855742429"><ele>108.0</ele><time>2026-04-18T12:55:54Z</time></trkpt><trkpt lat="45.234282492525274" lon="8.576380386396105"><ele>108.0</ele><time>2026-04-18T12:55:55Z</time></trkpt><trkpt lat="45.234413927388545" lon="8.576330120474632"><ele>108.0</ele><time>2026-04-18T12:55:56Z</time></trkpt><trkpt lat="45.23452939874934" lon="8.576270606152885"><ele>108.0</ele><time>2026-04-18T12:55:57Z</time></trkpt><trkpt lat="45.23463422129618" lon="8.576231361328665"><ele>108.0</ele><time>2026-04-18T12:55:58Z</time></trkpt><trkpt lat="45.23473641844322" lon="8.576210478841112"><ele>107.75</ele><time>2026-04-18T12:55:59Z</time></trkpt><trkpt lat="45.234845928930646" lon="8.576263815908789"><ele>107.5</ele><time>2026-04-18T12:56:00Z</time></trkpt><trkpt lat="45.234939386425644" lon="8.57636909889827"><ele>107.25</ele><time>2026-04-18T12:56:01Z</time></trkpt><trkpt lat="45.235012230956016" lon="8.576520554166244"><ele>107.0</ele><time>2026-04-18T12:56:02Z</time></trkpt><trkpt lat="45.23504747365448" lon="8.57669110900707"><ele>107.0</ele><time>2026-04-18T12:56:03Z</time></trkpt><trkpt lat="45.2350755630602" lon="8.57687295150037"><ele>107.0</ele><time>2026-04-18T12:56:04Z</time></trkpt><trkpt lat="45.23510675575675" lon="8.577036945820645"><ele>107.0</ele><time>2026-04-18T12:56:05Z</time></trkpt><trkpt lat="45.23514553870064" lon="8.577177471180796"><ele>107.0</ele><time>2026-04-18T12:56:06Z</time></trkpt><trkpt lat="45.23518864098542" lon="8.577321623062398"><ele>107.0</ele><time>2026-04-18T12:56:07.001Z</time></trkpt><trkpt lat="45.235250079646974" lon="8.5774649497751"><ele>107.0</ele><time>2026-04-18T12:56:08.001Z</time></trkpt><trkpt lat="45.23533090037092" lon="8.577623441882139"><ele>107.0</ele><time>2026-04-18T12:56:09.001Z</time></trkpt><trkpt lat="45.23541886668554" lon="8.577787210673877"><ele>107.0</ele><time>2026-04-18T12:56:10.001Z</time></trkpt><trkpt lat="45.235512100431315" lon="8.577957411643553"><ele>107.0</ele><time>2026-04-18T12:56:11.001Z</time></trkpt><trkpt lat="45.23561174933292" lon="8.578127141916973"><ele>107.0</ele><time>2026-04-18T12:56:12.001Z</time></trkpt><trkpt lat="45.235725920986056" lon="8.578268397578348"><ele>107.0</ele><time>2026-04-18T12:56:13.001Z</time></trkpt><trkpt lat="45.235847964685846" lon="8.5784396615939"><ele>107.33333333333333</ele><time>2026-04-18T12:56:14.001Z</time></trkpt><trkpt lat="45.2359804353981" lon="8.578597132452257"><ele>107.66666666666666</ele><time>2026-04-18T12:56:15.001Z</time></trkpt><trkpt lat="45.23611737982927" lon="8.578744381247715"><ele>108.0</ele><time>2026-04-18T12:56:16.001Z</time></trkpt><trkpt lat="45.236248724115306" lon="8.57887987876239"><ele>108.0</ele><time>2026-04-18T12:56:17.001Z</time></trkpt><trkpt lat="45.23639414850408" lon="8.579001436932632"><ele>108.0</ele><time>2026-04-18T12:56:18.001Z</time></trkpt><trkpt lat="45.236552905718305" lon="8.579090138290276"><ele>108.0</ele><time>2026-04-18T12:56:19.001Z</time></trkpt><trkpt lat="45.23672513440431" lon="8.579150077556859"><ele>108.0</ele><time>2026-04-18T12:56:20.001Z</time></trkpt><trkpt lat="45.23689258775204" lon="8.579226454590389"><ele>108.0</ele><time>2026-04-18T12:56:21.001Z</time></trkpt><trkpt lat="45.23706622554286" lon="8.579292710987751"><ele>108.0</ele><time>2026-04-18T12:56:22.001Z</time></trkpt><trkpt lat="45.237240554099465" lon="8.579357686932548"><ele>107.66666666666666</ele><time>2026-04-18T12:56:23.001Z</time></trkpt><trkpt lat="45.237419944819486" lon="8.57942126410331"><ele>107.33333333333333</ele><time>2026-04-18T12:56:24.001Z</time></trkpt><trkpt lat="45.23759063054119" lon="8.579480653612247"><ele>107.0</ele><time>2026-04-18T12:56:25.001Z</time></trkpt><trkpt lat="45.23775258533251" lon="8.579539656274378"><ele>107.66666666666666</ele><time>2026-04-18T12:56:26.001Z</time></trkpt><trkpt lat="45.23791090124056" lon="8.579605035148326"><ele>108.33333333333334</ele><time>2026-04-18T12:56:27.001Z</time></trkpt><trkpt lat="45.2380629761141" lon="8.579700094066963"><ele>109.0</ele><time>2026-04-18T12:56:28.001Z</time></trkpt><trkpt lat="45.238208797364386" lon="8.579817941569699"><ele>109.0</ele><time>2026-04-18T12:56:29.001Z</time></trkpt><trkpt lat="45.2383626773878" lon="8.579930454975685"><ele>109.0</ele><time>2026-04-18T12:56:30.001Z</time></trkpt><trkpt lat="45.23850530412619" lon="8.580065300834057"><ele>109.0</ele><time>2026-04-18T12:56:31.001Z</time></trkpt><trkpt lat="45.238653743802395" lon="8.580198882671453"><ele>109.0</ele><time>2026-04-18T12:56:32.002Z</time></trkpt><trkpt lat="45.23880119259532" lon="8.580335784841662"><ele>109.0</ele><time>2026-04-18T12:56:33.002Z</time></trkpt><trkpt lat="45.23894931851334" lon="8.580472430532076"><ele>109.0</ele><time>2026-04-18T12:56:34.002Z</time></trkpt><trkpt lat="45.23910911851708" lon="8.580592478020568"><ele>108.66666666666667</ele><time>2026-04-18T12:56:35.002Z</time></trkpt><trkpt lat="45.23927291892554" lon="8.580706738350615"><ele>108.33333333333334</ele><time>2026-04-18T12:56:36.002Z</time></trkpt><trkpt lat="45.23943416902034" lon="8.580813510049452"><ele>108.0</ele><time>2026-04-18T12:56:37.002Z</time></trkpt><trkpt lat="45.23959992716454" lon="8.580917575306856"><ele>108.0</ele><time>2026-04-18T12:56:38.002Z</time></trkpt><trkpt lat="45.23974695027697" lon="8.581037370502443"><ele>108.0</ele><time>2026-04-18T12:56:39.002Z</time></trkpt><trkpt lat="45.23990232843033" lon="8.581134454012147"><ele>108.0</ele><time>2026-04-18T12:56:40.002Z</time></trkpt><trkpt lat="45.24007337539395" lon="8.5811855825655"><ele>108.66666666666666</ele><time>2026-04-18T12:56:41.002Z</time></trkpt><trkpt lat="45.24024435535355" lon="8.58124176001835"><ele>109.33333333333333</ele><time>2026-04-18T12:56:42.002Z</time></trkpt><trkpt lat="45.240420845182385" lon="8.581265992983228"><ele>110.0</ele><time>2026-04-18T12:56:43.002Z</time></trkpt><trkpt lat="45.24059772916767" lon="8.581309693183313"><ele>110.33333333333333</ele><time>2026-04-18T12:56:44.002Z</time></trkpt><trkpt lat="45.24077948186056" lon="8.581327213584308"><ele>110.66666666666666</ele><time>2026-04-18T12:56:45.002Z</time></trkpt><trkpt lat="45.240956207282984" lon="8.581335300872757"><ele>111.0</ele><time>2026-04-18T12:56:46.002Z</time></trkpt><trkpt lat="45.24112314636146" lon="8.581329143501057"><ele>111.0</ele><time>2026-04-18T12:56:47.002Z</time></trkpt><trkpt lat="45.24127705012004" lon="8.581290955132577"><ele>111.0</ele><time>2026-04-18T12:56:48.002Z</time></trkpt><trkpt lat="45.241420457832064" lon="8.581277334562088"><ele>111.0</ele><time>2026-04-18T12:56:49.002Z</time></trkpt><trkpt lat="45.24155785748298" lon="8.58126321004843"><ele>111.0</ele><time>2026-04-18T12:56:50.002Z</time></trkpt><trkpt lat="45.24168817938477" lon="8.581254165760367"><ele>110.75</ele><time>2026-04-18T12:56:51.002Z</time></trkpt><trkpt lat="45.241813583149565" lon="8.581285262499623"><ele>110.5</ele><time>2026-04-18T12:56:52.002Z</time></trkpt><trkpt lat="45.241954260468525" lon="8.581328644979529"><ele>110.25</ele><time>2026-04-18T12:56:53.002Z</time></trkpt><trkpt lat="45.24209839388721" lon="8.581385343449087"><ele>110.0</ele><time>2026-04-18T12:56:54.002Z</time></trkpt><trkpt lat="45.24225807302791" lon="8.581435727953766"><ele>109.66666666666666</ele><time>2026-04-18T12:56:55.002Z</time></trkpt><trkpt lat="45.24241888591447" lon="8.581512785105659"><ele>109.33333333333334</ele><time>2026-04-18T12:56:56.002Z</time></trkpt><trkpt lat="45.24258744907805" lon="8.581588576098108"><ele>109.0</ele><time>2026-04-18T12:56:57.002Z</time></trkpt><trkpt lat="45.24275813351921" lon="8.581664308161859"><ele>109.0</ele><time>2026-04-18T12:56:58.002Z</time></trkpt><trkpt lat="45.24293972911413" lon="8.581741920068064"><ele>109.0</ele><time>2026-04-18T12:56:59.002Z</time></trkpt><trkpt lat="45.24311317130966" lon="8.581814429406178"><ele>109.0</ele><time>2026-04-18T12:57:00.002Z</time></trkpt><trkpt lat="45.24327041439563" lon="8.581879340519043"><ele>109.0</ele><time>2026-04-18T12:57:01.002Z</time></trkpt><trkpt lat="45.24342573779762" lon="8.581946335319069"><ele>109.0</ele><time>2026-04-18T12:57:02.002Z</time></trkpt><trkpt lat="45.24358973475855" lon="8.582024894021666"><ele>109.0</ele><time>2026-04-18T12:57:03.002Z</time></trkpt><trkpt lat="45.24374688103948" lon="8.582118824378608"><ele>110.0</ele><time>2026-04-18T12:57:04.003Z</time></trkpt><trkpt lat="45.24389633795318" lon="8.582227288517956"><ele>111.0</ele><time>2026-04-18T12:57:05.003Z</time></trkpt><trkpt lat="45.244019488785554" lon="8.5823645912484"><ele>112.0</ele><time>2026-04-18T12:57:06.003Z</time></trkpt><trkpt lat="45.24414492921936" lon="8.582460315010165"><ele>112.0</ele><time>2026-04-18T12:57:07.003Z</time></trkpt><trkpt lat="45.24425729092759" lon="8.582568092309494"><ele>112.0</ele><time>2026-04-18T12:57:08.003Z</time></trkpt><trkpt lat="45.24436728074027" lon="8.582659152462154"><ele>112.0</ele><time>2026-04-18T12:57:09.003Z</time></trkpt><trkpt lat="45.244472672208886" lon="8.5827391005247"><ele>112.0</ele><time>2026-04-18T12:57:10.003Z</time></trkpt><trkpt lat="45.24457495034557" lon="8.582811754753847"><ele>112.0</ele><time>2026-04-18T12:57:11.003Z</time></trkpt><trkpt lat="45.244664012065954" lon="8.582883122393861"><ele>111.99999999999999</ele><time>2026-04-18T12:57:12.003Z</time></trkpt><trkpt lat="45.2447419257262" lon="8.582956793255926"><ele>111.99999999999999</ele><time>2026-04-18T12:57:13.003Z</time></trkpt><trkpt lat="45.244815140014005" lon="8.583033653712384"><ele>112.0</ele><time>2026-04-18T12:57:14.003Z</time></trkpt><trkpt lat="45.24489834745392" lon="8.58308612193743"><ele>112.0</ele><time>2026-04-18T12:57:15.003Z</time></trkpt><trkpt lat="45.244999417444006" lon="8.5831089445072"><ele>112.25</ele><time>2026-04-18T12:57:16.003Z</time></trkpt><trkpt lat="45.245113884675234" lon="8.583119079182309"><ele>112.5</ele><time>2026-04-18T12:57:17.003Z</time></trkpt><trkpt lat="45.24523737606469" lon="8.583145146096655"><ele>112.75</ele><time>2026-04-18T12:57:18.003Z</time></trkpt><trkpt lat="45.24535519021465" lon="8.583195166598916"><ele>113.0</ele><time>2026-04-18T12:57:19.003Z</time></trkpt><trkpt lat="45.245486853841875" lon="8.583249494254874"><ele>113.0</ele><time>2026-04-18T12:57:20.003Z</time></trkpt><trkpt lat="45.245604328507405" lon="8.58329771159484"><ele>113.00000000000001</ele><time>2026-04-18T12:57:21.003Z</time></trkpt><trkpt lat="45.24570941856537" lon="8.583334952494448"><ele>113.00000000000001</ele><time>2026-04-18T12:57:22.003Z</time></trkpt><trkpt lat="45.24580601268802" lon="8.583362128718893"><ele>113.0</ele><time>2026-04-18T12:57:23.003Z</time></trkpt><trkpt lat="45.245897274347456" lon="8.583392941175488"><ele>113.0</ele><time>2026-04-18T12:57:24.003Z</time></trkpt><trkpt lat="45.245993271871605" lon="8.583415210405954"><ele>113.0</ele><time>2026-04-18T12:57:25.003Z</time></trkpt><trkpt lat="45.24609614910898" lon="8.583417182396586"><ele>113.00000000000001</ele><time>2026-04-18T12:57:26.003Z</time></trkpt><trkpt lat="45.246208441090126" lon="8.583416328015394"><ele>113.00000000000001</ele><time>2026-04-18T12:57:27.003Z</time></trkpt><trkpt lat="45.2463268667514" lon="8.583400318249424"><ele>113.0</ele><time>2026-04-18T12:57:28.003Z</time></trkpt><trkpt lat="45.24642796467029" lon="8.583394937703462"><ele>113.0</ele><time>2026-04-18T12:57:29.003Z</time></trkpt><trkpt lat="45.2465283757494" lon="8.58339016963587"><ele>113.0</ele><time>2026-04-18T12:57:30.003Z</time></trkpt><trkpt lat="45.24664005733676" lon="8.583381290381164"><ele>113.0</ele><time>2026-04-18T12:57:31.003Z</time></trkpt><trkpt lat="45.24675704307371" lon="8.583392866962308"><ele>113.0</ele><time>2026-04-18T12:57:31.997Z</time></trkpt><trkpt lat="45.246882954102155" lon="8.583381957702608"><ele>113.0</ele><time>2026-04-18T12:57:32.997Z</time></trkpt><trkpt lat="45.24701476082893" lon="8.583362843603991"><ele>113.0</ele><time>2026-04-18T12:57:33.997Z</time></trkpt><trkpt lat="45.24715742569299" lon="8.583355213996677"><ele>113.0</ele><time>2026-04-18T12:57:34.997Z</time></trkpt><trkpt lat="45.247303528960394" lon="8.583347292553482"><ele>113.0</ele><time>2026-04-18T12:57:35.998Z</time></trkpt><trkpt lat="45.24745623437206" lon="8.583345024817334"><ele>113.0</ele><time>2026-04-18T12:57:36.998Z</time></trkpt><trkpt lat="45.24761687868071" lon="8.58333973406443"><ele>112.66666666666666</ele><time>2026-04-18T12:57:37.998Z</time></trkpt><trkpt lat="45.247768179475976" lon="8.583326669186555"><ele>112.33333333333334</ele><time>2026-04-18T12:57:38.998Z</time></trkpt><trkpt lat="45.247943831268394" lon="8.583317679717336"><ele>112.0</ele><time>2026-04-18T12:57:39.998Z</time></trkpt><trkpt lat="45.248122483416594" lon="8.58331078396363"><ele>111.66666666666667</ele><time>2026-04-18T12:57:40.998Z</time></trkpt><trkpt lat="45.24828917758543" lon="8.583312673592147"><ele>111.33333333333334</ele><time>2026-04-18T12:57:41.998Z</time></trkpt><trkpt lat="45.24845588631178" lon="8.583314820494685"><ele>111.0</ele><time>2026-04-18T12:57:42.998Z</time></trkpt><trkpt lat="45.24861563154279" lon="8.583320908822994"><ele>111.0</ele><time>2026-04-18T12:57:43.998Z</time></trkpt><trkpt lat="45.24876195742435" lon="8.583320045935329"><ele>111.0</ele><time>2026-04-18T12:57:44.998Z</time></trkpt><trkpt lat="45.248902565332" lon="8.583315928825355"><ele>111.0</ele><time>2026-04-18T12:57:45.999Z</time></trkpt><trkpt lat="45.249028835983715" lon="8.58331175205462"><ele>111.0</ele><time>2026-04-18T12:57:46.999Z</time></trkpt><trkpt lat="45.24915517494315" lon="8.58331212137355"><ele>111.4</ele><time>2026-04-18T12:57:47.999Z</time></trkpt><trkpt lat="45.24927284402891" lon="8.583313991055507"><ele>111.8</ele><time>2026-04-18T12:57:48.999Z</time></trkpt><trkpt lat="45.24938488045827" lon="8.583322186339496"><ele>112.20000000000002</ele><time>2026-04-18T12:57:49.999Z</time></trkpt><trkpt lat="45.249491871061295" lon="8.583339263855708"><ele>112.60000000000001</ele><time>2026-04-18T12:57:50.999Z</time></trkpt><trkpt lat="45.249598361646704" lon="8.58335812849872"><ele>113.0</ele><time>2026-04-18T12:57:51.999Z</time></trkpt><trkpt lat="45.249705623777174" lon="8.583407700581834"><ele>113.0</ele><time>2026-04-18T12:57:52.999Z</time></trkpt><trkpt lat="45.249814694506235" lon="8.583484732460919"><ele>113.0</ele><time>2026-04-18T12:57:53.999Z</time></trkpt><trkpt lat="45.24992748900768" lon="8.583607077370536"><ele>113.0</ele><time>2026-04-18T12:57:54.999Z</time></trkpt><trkpt lat="45.25006233205378" lon="8.583679233148855"><ele>113.0</ele><time>2026-04-18T12:57:55.999Z</time></trkpt><trkpt lat="45.250207187150224" lon="8.583763249745731"><ele>112.66666666666666</ele><time>2026-04-18T12:57:57Z</time></trkpt><trkpt lat="45.25035830257249" lon="8.583852255511479"><ele>112.33333333333334</ele><time>2026-04-18T12:57:58Z</time></trkpt><trkpt lat="45.250506122936" lon="8.583945804407445"><ele>112.0</ele><time>2026-04-18T12:57:59Z</time></trkpt><trkpt lat="45.250640817854695" lon="8.584031396658078"><ele>112.0</ele><time>2026-04-18T12:58:00Z</time></trkpt><trkpt lat="45.25076570970585" lon="8.58410717752992"><ele>112.0</ele><time>2026-04-18T12:58:01Z</time></trkpt><trkpt lat="45.25088200162869" lon="8.584181208657585"><ele>112.0</ele><time>2026-04-18T12:58:02Z</time></trkpt><trkpt lat="45.25099410927845" lon="8.584252387744561"><ele>112.0</ele><time>2026-04-18T12:58:03Z</time></trkpt><trkpt lat="45.25110140759309" lon="8.584325009989422"><ele>112.0</ele><time>2026-04-18T12:58:04Z</time></trkpt><trkpt lat="45.25121468426793" lon="8.584416696816332"><ele>112.0</ele><time>2026-04-18T12:58:05Z</time></trkpt><trkpt lat="45.2513201249128" lon="8.584541852487254"><ele>112.0</ele><time>2026-04-18T12:58:06Z</time></trkpt><trkpt lat="45.2514277125117" lon="8.584680305873029"><ele>112.0</ele><time>2026-04-18T12:58:07Z</time></trkpt><trkpt lat="45.251548783142724" lon="8.584809552412025"><ele>111.33333333333334</ele><time>2026-04-18T12:58:08Z</time></trkpt><trkpt lat="45.25168792014048" lon="8.584915385490676"><ele>110.66666666666666</ele><time>2026-04-18T12:58:09Z</time></trkpt><trkpt lat="45.25184533522291" lon="8.58499986606091"><ele>110.0</ele><time>2026-04-18T12:58:10Z</time></trkpt><trkpt lat="45.25200776505348" lon="8.585072270951764"><ele>110.0</ele><time>2026-04-18T12:58:11Z</time></trkpt><trkpt lat="45.252170627891054" lon="8.58514111752334"><ele>110.0</ele><time>2026-04-18T12:58:12Z</time></trkpt><trkpt lat="45.25231813703677" lon="8.585188266213507"><ele>110.0</ele><time>2026-04-18T12:58:13Z</time></trkpt><trkpt lat="45.2524614326134" lon="8.585240178234786"><ele>110.0</ele><time>2026-04-18T12:58:14.001Z</time></trkpt><trkpt lat="45.252583873806024" lon="8.585317389472133"><ele>110.0</ele><time>2026-04-18T12:58:15.001Z</time></trkpt><trkpt lat="45.25269876896107" lon="8.585436392748015"><ele>110.0</ele><time>2026-04-18T12:58:16.001Z</time></trkpt><trkpt lat="45.25280597545167" lon="8.585594983001355"><ele>110.0</ele><time>2026-04-18T12:58:17.001Z</time></trkpt><trkpt lat="45.25292753266739" lon="8.58576567136688"><ele>110.33333333333333</ele><time>2026-04-18T12:58:18.001Z</time></trkpt><trkpt lat="45.253049471040896" lon="8.585938961153138"><ele>110.66666666666666</ele><time>2026-04-18T12:58:19.001Z</time></trkpt><trkpt lat="45.253168678467205" lon="8.58611640498127"><ele>111.0</ele><time>2026-04-18T12:58:20.001Z</time></trkpt><trkpt lat="45.25327568509449" lon="8.586280342373719"><ele>111.0</ele><time>2026-04-18T12:58:21.001Z</time></trkpt><trkpt lat="45.25337171431204" lon="8.586437482389337"><ele>111.0</ele><time>2026-04-18T12:58:22.001Z</time></trkpt><trkpt lat="45.25346872693915" lon="8.586572814573783"><ele>111.0</ele><time>2026-04-18T12:58:23.001Z</time></trkpt><trkpt lat="45.25356494215014" lon="8.586692461247019"><ele>111.0</ele><time>2026-04-18T12:58:24.001Z</time></trkpt><trkpt lat="45.25364765152208" lon="8.586808769019846"><ele>111.0</ele><time>2026-04-18T12:58:25.001Z</time></trkpt><trkpt lat="45.25371789799644" lon="8.586921819603958"><ele>111.0</ele><time>2026-04-18T12:58:26.001Z</time></trkpt><trkpt lat="45.25376990777063" lon="8.587056786474985"><ele>111.0</ele><time>2026-04-18T12:58:27.001Z</time></trkpt><trkpt lat="45.253803340679845" lon="8.587224313632534"><ele>111.0</ele><time>2026-04-18T12:58:28.001Z</time></trkpt><trkpt lat="45.253823740662256" lon="8.587412048130343"><ele>111.0</ele><time>2026-04-18T12:58:29.001Z</time></trkpt><trkpt lat="45.25384715504285" lon="8.587614533451541"><ele>111.0</ele><time>2026-04-18T12:58:30.001Z</time></trkpt><trkpt lat="45.2538801601042" lon="8.587827452266648"><ele>111.0</ele><time>2026-04-18T12:58:31.001Z</time></trkpt><trkpt lat="45.25391354331657" lon="8.588047411039723"><ele>111.0</ele><time>2026-04-18T12:58:32.001Z</time></trkpt><trkpt lat="45.25394818091609" lon="8.588267644250829"><ele>111.0</ele><time>2026-04-18T12:58:33.001Z</time></trkpt><trkpt lat="45.25398170056694" lon="8.588489808057362"><ele>111.0</ele><time>2026-04-18T12:58:34.001Z</time></trkpt><trkpt lat="45.25401871624078" lon="8.588717317172389"><ele>111.33333333333334</ele><time>2026-04-18T12:58:35.001Z</time></trkpt><trkpt lat="45.254054999529714" lon="8.588947312329726"><ele>111.66666666666667</ele><time>2026-04-18T12:58:36.001Z</time></trkpt><trkpt lat="45.254090454226684" lon="8.589190238542747"><ele>112.0</ele><time>2026-04-18T12:58:37.001Z</time></trkpt><trkpt lat="45.25412908864775" lon="8.589439364728294"><ele>112.0</ele><time>2026-04-18T12:58:38.001Z</time></trkpt><trkpt lat="45.25416104403501" lon="8.589690632280865"><ele>112.0</ele><time>2026-04-18T12:58:39.001Z</time></trkpt><trkpt lat="45.254197708447656" lon="8.58994665094421"><ele>112.0</ele><time>2026-04-18T12:58:40.001Z</time></trkpt><trkpt lat="45.254234575407565" lon="8.59020391589526"><ele>112.33333333333334</ele><time>2026-04-18T12:58:41.002Z</time></trkpt><trkpt lat="45.25427060518906" lon="8.590462660525038"><ele>112.66666666666666</ele><time>2026-04-18T12:58:42.002Z</time></trkpt><trkpt lat="45.25430512942506" lon="8.590723326533013"><ele>113.0</ele><time>2026-04-18T12:58:43.002Z</time></trkpt><trkpt lat="45.25432327937767" lon="8.590984350680952"><ele>113.0</ele><time>2026-04-18T12:58:44.002Z</time></trkpt><trkpt lat="45.254327604950454" lon="8.591252127873517"><ele>113.0</ele><time>2026-04-18T12:58:45.002Z</time></trkpt><trkpt lat="45.25432896085402" lon="8.591521835216836"><ele>113.0</ele><time>2026-04-18T12:58:46.002Z</time></trkpt><trkpt lat="45.254340116956776" lon="8.591794520550568"><ele>112.66666666666666</ele><time>2026-04-18T12:58:47.002Z</time></trkpt><trkpt lat="45.25435331333543" lon="8.592069277511872"><ele>112.33333333333334</ele><time>2026-04-18T12:58:48.002Z</time></trkpt><trkpt lat="45.25436504698958" lon="8.592344223661712"><ele>112.0</ele><time>2026-04-18T12:58:49.002Z</time></trkpt><trkpt lat="45.25437140253062" lon="8.592622855209848"><ele>112.0</ele><time>2026-04-18T12:58:50.002Z</time></trkpt><trkpt lat="45.254370252694166" lon="8.592897946792542"><ele>112.0</ele><time>2026-04-18T12:58:51.002Z</time></trkpt><trkpt lat="45.25436650991023" lon="8.593174186813318"><ele>112.0</ele><time>2026-04-18T12:58:52.002Z</time></trkpt><trkpt lat="45.25436213296711" lon="8.593450691253205"><ele>112.0</ele><time>2026-04-18T12:58:53.002Z</time></trkpt><trkpt lat="45.25436528318345" lon="8.593731189738236"><ele>112.0</ele><time>2026-04-18T12:58:54.002Z</time></trkpt><trkpt lat="45.25437843080563" lon="8.594015146102528"><ele>112.0</ele><time>2026-04-18T12:58:55.002Z</time></trkpt><trkpt lat="45.2544036687752" lon="8.594296750640979"><ele>111.66666666666667</ele><time>2026-04-18T12:58:56.002Z</time></trkpt><trkpt lat="45.25442938761449" lon="8.594577100407204"><ele>111.33333333333334</ele><time>2026-04-18T12:58:57.002Z</time></trkpt><trkpt lat="45.254454452987446" lon="8.594832324264845"><ele>111.0</ele><time>2026-04-18T12:58:58.002Z</time></trkpt><trkpt lat="45.254467445318795" lon="8.595070701508535"><ele>111.0</ele><time>2026-04-18T12:58:59.002Z</time></trkpt><trkpt lat="45.25447510727611" lon="8.59529536220819"><ele>111.0</ele><time>2026-04-18T12:59:00.002Z</time></trkpt><trkpt lat="45.25447468511137" lon="8.595514843169767"><ele>111.0</ele><time>2026-04-18T12:59:01.002Z</time></trkpt><trkpt lat="45.25447209225782" lon="8.595715351211927"><ele>111.0</ele><time>2026-04-18T12:59:02.002Z</time></trkpt><trkpt lat="45.254465948820936" lon="8.595922897676257"><ele>111.0</ele><time>2026-04-18T12:59:03.002Z</time></trkpt><trkpt lat="45.254460595045366" lon="8.596127175109439"><ele>111.0</ele><time>2026-04-18T12:59:04.002Z</time></trkpt><trkpt lat="45.25445139009856" lon="8.596314020652663"><ele>111.0</ele><time>2026-04-18T12:59:05.002Z</time></trkpt><trkpt lat="45.25444869530177" lon="8.596485002951383"><ele>111.0</ele><time>2026-04-18T12:59:06.002Z</time></trkpt><trkpt lat="45.25444661104516" lon="8.596646493566087"><ele>111.0</ele><time>2026-04-18T12:59:07.002Z</time></trkpt><trkpt lat="45.25444685594892" lon="8.596792817361978"><ele>111.0</ele><time>2026-04-18T12:59:08.002Z</time></trkpt><trkpt lat="45.25444359656214" lon="8.596929239945934"><ele>111.0</ele><time>2026-04-18T12:59:09.002Z</time></trkpt><trkpt lat="45.25442651640902" lon="8.597072515171176"><ele>111.0</ele><time>2026-04-18T12:59:10.002Z</time></trkpt><trkpt lat="45.25438182024939" lon="8.597224798001987"><ele>111.25</ele><time>2026-04-18T12:59:11.002Z</time></trkpt><trkpt lat="45.25431581079899" lon="8.597383551529374"><ele>111.5</ele><time>2026-04-18T12:59:12.002Z</time></trkpt><trkpt lat="45.25424605672369" lon="8.597556709653931"><ele>111.75</ele><time>2026-04-18T12:59:13.003Z</time></trkpt><trkpt lat="45.254187740668826" lon="8.597751562407439"><ele>112.0</ele><time>2026-04-18T12:59:14.003Z</time></trkpt><trkpt lat="45.254131147179976" lon="8.59795972591201"><ele>112.33333333333334</ele><time>2026-04-18T12:59:15.003Z</time></trkpt><trkpt lat="45.254080339829066" lon="8.598178340170126"><ele>112.66666666666666</ele><time>2026-04-18T12:59:16.003Z</time></trkpt><trkpt lat="45.25403755833521" lon="8.59840755129682"><ele>113.0</ele><time>2026-04-18T12:59:17.003Z</time></trkpt><trkpt lat="45.25399676144874" lon="8.59864348968454"><ele>113.0</ele><time>2026-04-18T12:59:18.003Z</time></trkpt><trkpt lat="45.25395715832605" lon="8.598895072075408"><ele>113.0</ele><time>2026-04-18T12:59:19.003Z</time></trkpt><trkpt lat="45.25390930058137" lon="8.599140814798389"><ele>113.0</ele><time>2026-04-18T12:59:20.003Z</time></trkpt><trkpt lat="45.25384911843044" lon="8.599350323824654"><ele>113.0</ele><time>2026-04-18T12:59:21.003Z</time></trkpt><trkpt lat="45.25377891063899" lon="8.599543000819324"><ele>113.0</ele><time>2026-04-18T12:59:22.003Z</time></trkpt><trkpt lat="45.2536933882511" lon="8.599708715022444"><ele>113.0</ele><time>2026-04-18T12:59:23.003Z</time></trkpt><trkpt lat="45.25361025564375" lon="8.599853217330484"><ele>113.0</ele><time>2026-04-18T12:59:24.003Z</time></trkpt><trkpt lat="45.253544253799234" lon="8.600006161402842"><ele>113.0</ele><time>2026-04-18T12:59:25.003Z</time></trkpt><trkpt lat="45.25350819667728" lon="8.600189501012565"><ele>113.0</ele><time>2026-04-18T12:59:26.003Z</time></trkpt><trkpt lat="45.25349429493265" lon="8.600402055134222"><ele>113.0</ele><time>2026-04-18T12:59:27.003Z</time></trkpt><trkpt lat="45.25348611181092" lon="8.600618617770328"><ele>113.0</ele><time>2026-04-18T12:59:28.003Z</time></trkpt><trkpt lat="45.2534710533306" lon="8.600838633887307"><ele>112.66666666666666</ele><time>2026-04-18T12:59:29.003Z</time></trkpt><trkpt lat="45.25346898618846" lon="8.601062543004675"><ele>112.33333333333334</ele><time>2026-04-18T12:59:30.003Z</time></trkpt><trkpt lat="45.253485940356036" lon="8.601290433696313"><ele>112.0</ele><time>2026-04-18T12:59:31.003Z</time></trkpt><trkpt lat="45.253521077480514" lon="8.60151608203493"><ele>112.0</ele><time>2026-04-18T12:59:32.003Z</time></trkpt><trkpt lat="45.25356655465164" lon="8.60174558000122"><ele>112.0</ele><time>2026-04-18T12:59:33.003Z</time></trkpt><trkpt lat="45.253622807537404" lon="8.601967934443003"><ele>112.0</ele><time>2026-04-18T12:59:34.003Z</time></trkpt><trkpt lat="45.25369013205598" lon="8.602193749351349"><ele>112.0</ele><time>2026-04-18T12:59:35.003Z</time></trkpt><trkpt lat="45.2537586710346" lon="8.602419575946733"><ele>112.0</ele><time>2026-04-18T12:59:36.003Z</time></trkpt><trkpt lat="45.253829981188844" lon="8.60262267982925"><ele>112.0</ele><time>2026-04-18T12:59:37.003Z</time></trkpt><trkpt lat="45.25390540878175" lon="8.602806155011981"><ele>112.75</ele><time>2026-04-18T12:59:37.997Z</time></trkpt><trkpt lat="45.25398622901873" lon="8.602966923901525"><ele>113.5</ele><time>2026-04-18T12:59:38.997Z</time></trkpt><trkpt lat="45.254078036884174" lon="8.60311803972708"><ele>114.25</ele><time>2026-04-18T12:59:39.997Z</time></trkpt><trkpt lat="45.254173545309946" lon="8.603274601173347"><ele>115.0</ele><time>2026-04-18T12:59:40.997Z</time></trkpt><trkpt lat="45.25426987561227" lon="8.603435465724802"><ele>115.0</ele><time>2026-04-18T12:59:41.997Z</time></trkpt><trkpt lat="45.25436872367098" lon="8.603597521613015"><ele>115.0</ele><time>2026-04-18T12:59:42.998Z</time></trkpt><trkpt lat="45.25447166640266" lon="8.603764081764837"><ele>115.0</ele><time>2026-04-18T12:59:43.998Z</time></trkpt><trkpt lat="45.25458006593959" lon="8.603914950536684"><ele>114.66666666666667</ele><time>2026-04-18T12:59:44.998Z</time></trkpt><trkpt lat="45.25470610666718" lon="8.604057707850288"><ele>114.33333333333334</ele><time>2026-04-18T12:59:45.998Z</time></trkpt><trkpt lat="45.25483422493177" lon="8.60418090904298"><ele>114.0</ele><time>2026-04-18T12:59:46.998Z</time></trkpt><trkpt lat="45.254954296572606" lon="8.604286801080582"><ele>114.0</ele><time>2026-04-18T12:59:47.998Z</time></trkpt><trkpt lat="45.25506264349651" lon="8.604384171629222"><ele>114.0</ele><time>2026-04-18T12:59:48.998Z</time></trkpt><trkpt lat="45.255169633504615" lon="8.604481751171827"><ele>114.0</ele><time>2026-04-18T12:59:49.998Z</time></trkpt><trkpt lat="45.25526315933813" lon="8.604573314397916"><ele>114.0</ele><time>2026-04-18T12:59:50.998Z</time></trkpt><trkpt lat="45.255356523000074" lon="8.60465958909852"><ele>113.80000000000001</ele><time>2026-04-18T12:59:51.999Z</time></trkpt><trkpt lat="45.25544288338636" lon="8.604743323661227"><ele>113.60000000000001</ele><time>2026-04-18T12:59:52.999Z</time></trkpt><trkpt lat="45.25552254055446" lon="8.604830706604767"><ele>113.4</ele><time>2026-04-18T12:59:53.999Z</time></trkpt><trkpt lat="45.25558709776591" lon="8.604927550737825"><ele>113.2</ele><time>2026-04-18T12:59:54.999Z</time></trkpt><trkpt lat="45.25563330613185" lon="8.60504356640437"><ele>113.0</ele><time>2026-04-18T12:59:55.999Z</time></trkpt><trkpt lat="45.25564594643748" lon="8.605187410108211"><ele>113.0</ele><time>2026-04-18T12:59:56.999Z</time></trkpt><trkpt lat="45.255641884746886" lon="8.605358516230336"><ele>113.0</ele><time>2026-04-18T12:59:57.999Z</time></trkpt><trkpt lat="45.25563578108876" lon="8.605514066641646"><ele>113.0</ele><time>2026-04-18T12:59:58.999Z</time></trkpt><trkpt lat="45.255647960001596" lon="8.605688955271537"><ele>113.0</ele><time>2026-04-18T12:59:59.999Z</time></trkpt><trkpt lat="45.255665588272045" lon="8.605879337246"><ele>113.0</ele><time>2026-04-18T13:00:00.999Z</time></trkpt><trkpt lat="45.25567899850951" lon="8.606071840307255"><ele>113.0</ele><time>2026-04-18T13:00:02Z</time></trkpt><trkpt lat="45.255693110496836" lon="8.606257316476952"><ele>113.0</ele><time>2026-04-18T13:00:03Z</time></trkpt><trkpt lat="45.2557067906811" lon="8.606441560742084"><ele>113.0</ele><time>2026-04-18T13:00:04Z</time></trkpt><trkpt lat="45.25572495652314" lon="8.60662287939656"><ele>113.0</ele><time>2026-04-18T13:00:05Z</time></trkpt><trkpt lat="45.25574594974382" lon="8.606790752674712"><ele>113.0</ele><time>2026-04-18T13:00:06Z</time></trkpt><trkpt lat="45.255760308204295" lon="8.606953779575475"><ele>113.0</ele><time>2026-04-18T13:00:07Z</time></trkpt><trkpt lat="45.25577624149157" lon="8.607124608057282"><ele>113.0</ele><time>2026-04-18T13:00:08Z</time></trkpt><trkpt lat="45.25578707236319" lon="8.607284095328835"><ele>113.25</ele><time>2026-04-18T13:00:09Z</time></trkpt><trkpt lat="45.25579816695531" lon="8.607441233277244"><ele>113.5</ele><time>2026-04-18T13:00:10Z</time></trkpt><trkpt lat="45.255817398442225" lon="8.607601091576315"><ele>113.75</ele><time>2026-04-18T13:00:11Z</time></trkpt><trkpt lat="45.255839282540876" lon="8.60775907495911"><ele>114.0</ele><time>2026-04-18T13:00:12Z</time></trkpt><trkpt lat="45.25586379463508" lon="8.607915073788151"><ele>114.0</ele><time>2026-04-18T13:00:13Z</time></trkpt><trkpt lat="45.25589118900879" lon="8.60804825318458"><ele>114.0</ele><time>2026-04-18T13:00:14Z</time></trkpt><trkpt lat="45.25592569286749" lon="8.608182740081807"><ele>114.0</ele><time>2026-04-18T13:00:15Z</time></trkpt><trkpt lat="45.2559470744118" lon="8.608307498170841"><ele>114.0</ele><time>2026-04-18T13:00:16Z</time></trkpt><trkpt lat="45.25595717182997" lon="8.608414943289016"><ele>114.0</ele><time>2026-04-18T13:00:17Z</time></trkpt><trkpt lat="45.25597444770986" lon="8.608525683833303"><ele>114.0</ele><time>2026-04-18T13:00:18.001Z</time></trkpt><trkpt lat="45.25597274881789" lon="8.608644677420132"><ele>114.0</ele><time>2026-04-18T13:00:19.001Z</time></trkpt><trkpt lat="45.25595727021553" lon="8.60876073250428"><ele>114.0</ele><time>2026-04-18T13:00:20.001Z</time></trkpt><trkpt lat="45.255926393763474" lon="8.608891095872544"><ele>114.0</ele><time>2026-04-18T13:00:21.001Z</time></trkpt><trkpt lat="45.255883249572044" lon="8.609028926606301"><ele>114.0</ele><time>2026-04-18T13:00:22.001Z</time></trkpt><trkpt lat="45.25582281966866" lon="8.609158944413563"><ele>114.0</ele><time>2026-04-18T13:00:23.001Z</time></trkpt><trkpt lat="45.25570793936166" lon="8.609216970078885"><ele>113.75</ele><time>2026-04-18T13:00:24.001Z</time></trkpt><trkpt lat="45.25558629848343" lon="8.609263552422078"><ele>113.5</ele><time>2026-04-18T13:00:25.001Z</time></trkpt><trkpt lat="45.25546176262151" lon="8.609320621890623"><ele>113.25</ele><time>2026-04-18T13:00:26.001Z</time></trkpt><trkpt lat="45.25533940238608" lon="8.609374392131853"><ele>113.0</ele><time>2026-04-18T13:00:27.001Z</time></trkpt><trkpt lat="45.255233741116385" lon="8.60942511288932"><ele>113.0</ele><time>2026-04-18T13:00:28.001Z</time></trkpt><trkpt lat="45.25513392433924" lon="8.609473751736054"><ele>113.00000000000001</ele><time>2026-04-18T13:00:29.001Z</time></trkpt><trkpt lat="45.25503586023924" lon="8.609522826525389"><ele>113.00000000000001</ele><time>2026-04-18T13:00:30.001Z</time></trkpt><trkpt lat="45.25494148356707" lon="8.60957298831656"><ele>113.0</ele><time>2026-04-18T13:00:31.001Z</time></trkpt><trkpt lat="45.254855697019174" lon="8.60961615305426"><ele>113.0</ele><time>2026-04-18T13:00:32.001Z</time></trkpt><trkpt lat="45.25477586894834" lon="8.609652522056903"><ele>113.16666666666666</ele><time>2026-04-18T13:00:33.001Z</time></trkpt><trkpt lat="45.25470199452032" lon="8.60968672603878"><ele>113.33333333333333</ele><time>2026-04-18T13:00:34.001Z</time></trkpt><trkpt lat="45.254626178261" lon="8.609723251914794"><ele>113.5</ele><time>2026-04-18T13:00:35.001Z</time></trkpt><trkpt lat="45.25456276607401" lon="8.609753107792404"><ele>113.66666666666666</ele><time>2026-04-18T13:00:36.001Z</time></trkpt><trkpt lat="45.25446046809178" lon="8.609821370069863"><ele>113.83333333333333</ele><time>2026-04-18T13:00:38.001Z</time></trkpt><trkpt lat="45.25443158470612" lon="8.609957857403725"><ele>114.0</ele><time>2026-04-18T13:00:40.001Z</time></trkpt><trkpt lat="45.25444366923365" lon="8.610121021206105"><ele>114.0</ele><time>2026-04-18T13:00:42.001Z</time></trkpt><trkpt lat="45.25451223492057" lon="8.61024062014717"><ele>114.0</ele><time>2026-04-18T13:00:43.001Z</time></trkpt><trkpt lat="45.25456456020143" lon="8.610350759838717"><ele>114.0</ele><time>2026-04-18T13:00:44.002Z</time></trkpt><trkpt lat="45.2546122571124" lon="8.610488334374164"><ele>114.0</ele><time>2026-04-18T13:00:45.002Z</time></trkpt><trkpt lat="45.25464872201323" lon="8.610641643394048"><ele>114.0</ele><time>2026-04-18T13:00:46.002Z</time></trkpt><trkpt lat="45.25469088288185" lon="8.61079683683167"><ele>114.0</ele><time>2026-04-18T13:00:47.002Z</time></trkpt><trkpt lat="45.254736718539" lon="8.610949208620733"><ele>114.0</ele><time>2026-04-18T13:00:48.002Z</time></trkpt><trkpt lat="45.25478708927577" lon="8.61108882214872"><ele>114.0</ele><time>2026-04-18T13:00:49.002Z</time></trkpt><trkpt lat="45.25484122413788" lon="8.611222375253249"><ele>114.0</ele><time>2026-04-18T13:00:50.002Z</time></trkpt><trkpt lat="45.25489551606138" lon="8.611348154344713"><ele>114.0</ele><time>2026-04-18T13:00:51.002Z</time></trkpt><trkpt lat="45.254946372111995" lon="8.61146850262276"><ele>114.0</ele><time>2026-04-18T13:00:52.002Z</time></trkpt><trkpt lat="45.25499717394503" lon="8.611582487613731"><ele>114.0</ele><time>2026-04-18T13:00:53.002Z</time></trkpt><trkpt lat="45.25504569092627" lon="8.611684877262922"><ele>114.0</ele><time>2026-04-18T13:00:54.002Z</time></trkpt><trkpt lat="45.25509160127987" lon="8.611794195748695"><ele>114.0</ele><time>2026-04-18T13:00:55.002Z</time></trkpt><trkpt lat="45.255124218992066" lon="8.611916478045307"><ele>114.0</ele><time>2026-04-18T13:00:56.002Z</time></trkpt><trkpt lat="45.25517962243522" lon="8.612048961850054"><ele>114.2</ele><time>2026-04-18T13:00:57.002Z</time></trkpt><trkpt lat="45.25523296617813" lon="8.6121794857576"><ele>114.4</ele><time>2026-04-18T13:00:58.002Z</time></trkpt><trkpt lat="45.25528006080392" lon="8.612313783101191"><ele>114.6</ele><time>2026-04-18T13:00:59.002Z</time></trkpt><trkpt lat="45.25530548241453" lon="8.612443905379923"><ele>114.8</ele><time>2026-04-18T13:01:00.002Z</time></trkpt><trkpt lat="45.25533259643974" lon="8.612569950379152"><ele>115.0</ele><time>2026-04-18T13:01:01.002Z</time></trkpt><trkpt lat="45.25530943565582" lon="8.612687344422088"><ele>115.00000000000001</ele><time>2026-04-18T13:01:02.002Z</time></trkpt><trkpt lat="45.25531389372477" lon="8.61279698428348"><ele>115.0</ele><time>2026-04-18T13:01:03.002Z</time></trkpt><trkpt lat="45.255320835234606" lon="8.61290103283429"><ele>115.0</ele><time>2026-04-18T13:01:04.002Z</time></trkpt><trkpt lat="45.25535266247253" lon="8.613005966302506"><ele>115.0</ele><time>2026-04-18T13:01:05.002Z</time></trkpt><trkpt lat="45.25539612115979" lon="8.613116172519359"><ele>115.00000000000001</ele><time>2026-04-18T13:01:06.002Z</time></trkpt><trkpt lat="45.25543897783995" lon="8.613235770771556"><ele>115.0</ele><time>2026-04-18T13:01:07.002Z</time></trkpt><trkpt lat="45.255488723696246" lon="8.613349716691019"><ele>115.0</ele><time>2026-04-18T13:01:08.002Z</time></trkpt><trkpt lat="45.255549436559356" lon="8.6134661771983"><ele>115.0</ele><time>2026-04-18T13:01:09.002Z</time></trkpt><trkpt lat="45.25562011805138" lon="8.613570587934632"><ele>115.0</ele><time>2026-04-18T13:01:10.002Z</time></trkpt><trkpt lat="45.25570811393996" lon="8.613662040059463"><ele>115.0</ele><time>2026-04-18T13:01:11.002Z</time></trkpt><trkpt lat="45.25580028852305" lon="8.613748784085432"><ele>115.0</ele><time>2026-04-18T13:01:12.002Z</time></trkpt><trkpt lat="45.25587575724613" lon="8.613863007549641"><ele>115.0</ele><time>2026-04-18T13:01:13.002Z</time></trkpt><trkpt lat="45.255944892863674" lon="8.613975093860647"><ele>115.0</ele><time>2026-04-18T13:01:14.002Z</time></trkpt><trkpt lat="45.2560129872455" lon="8.614100285586764"><ele>115.0</ele><time>2026-04-18T13:01:15.002Z</time></trkpt><trkpt lat="45.25609941525546" lon="8.614219492048761"><ele>115.0</ele><time>2026-04-18T13:01:16.003Z</time></trkpt><trkpt lat="45.25617144636838" lon="8.61434705326555"><ele>115.0</ele><time>2026-04-18T13:01:17.003Z</time></trkpt><trkpt lat="45.256234887288436" lon="8.614469281607795"><ele>115.0</ele><time>2026-04-18T13:01:18.003Z</time></trkpt><trkpt lat="45.25629317005326" lon="8.614611701154239"><ele>115.0</ele><time>2026-04-18T13:01:19.003Z</time></trkpt><trkpt lat="45.25637721743947" lon="8.614720653756708"><ele>115.0</ele><time>2026-04-18T13:01:20.003Z</time></trkpt><trkpt lat="45.25644575854322" lon="8.614846817904615"><ele>115.0</ele><time>2026-04-18T13:01:21.003Z</time></trkpt><trkpt lat="45.25650292390085" lon="8.614988060242746"><ele>115.0</ele><time>2026-04-18T13:01:22.003Z</time></trkpt><trkpt lat="45.25658408132398" lon="8.615112109472696"><ele>115.0</ele><time>2026-04-18T13:01:23.003Z</time></trkpt><trkpt lat="45.25665340988138" lon="8.615252934537034"><ele>115.0</ele><time>2026-04-18T13:01:24.003Z</time></trkpt><trkpt lat="45.25672201389344" lon="8.61538986791101"><ele>115.0</ele><time>2026-04-18T13:01:25.003Z</time></trkpt><trkpt lat="45.2567912011497" lon="8.615526021175844"><ele>115.00000000000001</ele><time>2026-04-18T13:01:26.003Z</time></trkpt><trkpt lat="45.256855397511835" lon="8.615651025103954"><ele>115.0</ele><time>2026-04-18T13:01:27.003Z</time></trkpt><trkpt lat="45.25691422508614" lon="8.61576381075209"><ele>115.0</ele><time>2026-04-18T13:01:28.003Z</time></trkpt><trkpt lat="45.25696863557065" lon="8.615858308908951"><ele>115.0</ele><time>2026-04-18T13:01:29.003Z</time></trkpt><trkpt lat="45.257008395992074" lon="8.615956357793111"><ele>115.00000000000001</ele><time>2026-04-18T13:01:30.003Z</time></trkpt><trkpt lat="45.257050732339" lon="8.61604122127507"><ele>115.0</ele><time>2026-04-18T13:01:31.003Z</time></trkpt><trkpt lat="45.25709661243722" lon="8.616133188204213"><ele>114.8</ele><time>2026-04-18T13:01:32.003Z</time></trkpt><trkpt lat="45.257163455401475" lon="8.616232398897957"><ele>114.6</ele><time>2026-04-18T13:01:33.003Z</time></trkpt><trkpt lat="45.25721305257588" lon="8.616349274706975"><ele>114.4</ele><time>2026-04-18T13:01:34.003Z</time></trkpt><trkpt lat="45.25727486548232" lon="8.616477567786294"><ele>114.2</ele><time>2026-04-18T13:01:35.003Z</time></trkpt><trkpt lat="45.25734384357982" lon="8.61660800730495"><ele>114.0</ele><time>2026-04-18T13:01:36.003Z</time></trkpt><trkpt lat="45.25741082849544" lon="8.616721808470825"><ele>114.0</ele><time>2026-04-18T13:01:37.003Z</time></trkpt><trkpt lat="45.25747294891923" lon="8.61688710933646"><ele>114.0</ele><time>2026-04-18T13:01:38.003Z</time></trkpt><trkpt lat="45.25753554735726" lon="8.61704623515156"><ele>114.0</ele><time>2026-04-18T13:01:39.003Z</time></trkpt><trkpt lat="45.25759082028013" lon="8.617215702435205"><ele>114.0</ele><time>2026-04-18T13:01:40.003Z</time></trkpt><trkpt lat="45.25764986767658" lon="8.617386609053058"><ele>114.0</ele><time>2026-04-18T13:01:41.003Z</time></trkpt><trkpt lat="45.257711709525395" lon="8.617559641513276"><ele>114.0</ele><time>2026-04-18T13:01:42.003Z</time></trkpt><trkpt lat="45.257770858535814" lon="8.6177456851156"><ele>114.0</ele><time>2026-04-18T13:01:43.003Z</time></trkpt><trkpt lat="45.25784678024636" lon="8.61792094051592"><ele>114.0</ele><time>2026-04-18T13:01:43.997Z</time></trkpt><trkpt lat="45.257929883963115" lon="8.618093277958163"><ele>113.75</ele><time>2026-04-18T13:01:44.997Z</time></trkpt><trkpt lat="45.25801676297557" lon="8.618264633129664"><ele>113.5</ele><time>2026-04-18T13:01:45.997Z</time></trkpt><trkpt lat="45.258104208499056" lon="8.618431564629422"><ele>113.25</ele><time>2026-04-18T13:01:46.997Z</time></trkpt><trkpt lat="45.25820082814251" lon="8.618582132890042"><ele>113.0</ele><time>2026-04-18T13:01:47.997Z</time></trkpt><trkpt lat="45.258281151111625" lon="8.618742008366034"><ele>112.75</ele><time>2026-04-18T13:01:48.998Z</time></trkpt><trkpt lat="45.25836379651427" lon="8.61889970673402"><ele>112.5</ele><time>2026-04-18T13:01:49.998Z</time></trkpt><trkpt lat="45.25845066957495" lon="8.61905419095191"><ele>112.25</ele><time>2026-04-18T13:01:50.998Z</time></trkpt><trkpt lat="45.25852715564587" lon="8.619218361539929"><ele>112.0</ele><time>2026-04-18T13:01:51.998Z</time></trkpt><trkpt lat="45.258593107000216" lon="8.619393818048565"><ele>112.0</ele><time>2026-04-18T13:01:52.998Z</time></trkpt><trkpt lat="45.258650763241135" lon="8.61957534286266"><ele>112.0</ele><time>2026-04-18T13:01:53.998Z</time></trkpt><trkpt lat="45.25871175999033" lon="8.619761600916574"><ele>112.0</ele><time>2026-04-18T13:01:54.998Z</time></trkpt><trkpt lat="45.25877183077606" lon="8.61994566390446"><ele>112.0</ele><time>2026-04-18T13:01:55.998Z</time></trkpt><trkpt lat="45.25882624911962" lon="8.620152296253789"><ele>112.0</ele><time>2026-04-18T13:01:56.998Z</time></trkpt><trkpt lat="45.258883370744044" lon="8.620367318845584"><ele>112.0</ele><time>2026-04-18T13:01:57.998Z</time></trkpt><trkpt lat="45.25894060046536" lon="8.620582890845153"><ele>112.0</ele><time>2026-04-18T13:01:58.999Z</time></trkpt><trkpt lat="45.258997768805756" lon="8.620809235053965"><ele>112.0</ele><time>2026-04-18T13:01:59.999Z</time></trkpt><trkpt lat="45.25905604784517" lon="8.621036126908193"><ele>112.0</ele><time>2026-04-18T13:02:00.999Z</time></trkpt><trkpt lat="45.25911280753156" lon="8.62125813543051"><ele>112.0</ele><time>2026-04-18T13:02:01.999Z</time></trkpt><trkpt lat="45.25917071924934" lon="8.621477241461944"><ele>112.0</ele><time>2026-04-18T13:02:02.999Z</time></trkpt><trkpt lat="45.25922675485729" lon="8.621695979957979"><ele>112.0</ele><time>2026-04-18T13:02:03.999Z</time></trkpt><trkpt lat="45.259284834071494" lon="8.62191425218088"><ele>112.0</ele><time>2026-04-18T13:02:04.999Z</time></trkpt><trkpt lat="45.259347934689394" lon="8.622133464084015"><ele>112.33333333333334</ele><time>2026-04-18T13:02:05.999Z</time></trkpt><trkpt lat="45.25940699685988" lon="8.622343632755644"><ele>112.66666666666666</ele><time>2026-04-18T13:02:06.999Z</time></trkpt><trkpt lat="45.25946352120547" lon="8.6225646210387"><ele>113.0</ele><time>2026-04-18T13:02:07.999Z</time></trkpt><trkpt lat="45.259516353102" lon="8.622780075000495"><ele>113.0</ele><time>2026-04-18T13:02:09Z</time></trkpt><trkpt lat="45.25957985398643" lon="8.622992009394443"><ele>113.0</ele><time>2026-04-18T13:02:10Z</time></trkpt><trkpt lat="45.25966174796518" lon="8.623194395962345"><ele>113.0</ele><time>2026-04-18T13:02:11Z</time></trkpt><trkpt lat="45.25974518516939" lon="8.623393221671028"><ele>113.0</ele><time>2026-04-18T13:02:12Z</time></trkpt><trkpt lat="45.259822789914985" lon="8.623589705452504"><ele>113.0</ele><time>2026-04-18T13:02:13Z</time></trkpt><trkpt lat="45.25989160183589" lon="8.623790745461008"><ele>113.0</ele><time>2026-04-18T13:02:14Z</time></trkpt><trkpt lat="45.259954075623014" lon="8.623994794245721"><ele>113.0</ele><time>2026-04-18T13:02:15Z</time></trkpt><trkpt lat="45.26000334359459" lon="8.624202192426912"><ele>113.0</ele><time>2026-04-18T13:02:16Z</time></trkpt><trkpt lat="45.26004145518306" lon="8.624420255667992"><ele>113.0</ele><time>2026-04-18T13:02:17Z</time></trkpt><trkpt lat="45.26006898268989" lon="8.62463996754353"><ele>113.0</ele><time>2026-04-18T13:02:18Z</time></trkpt><trkpt lat="45.26009744237392" lon="8.624860382054703"><ele>113.0</ele><time>2026-04-18T13:02:19Z</time></trkpt><trkpt lat="45.26011737185871" lon="8.625079408119403"><ele>113.0</ele><time>2026-04-18T13:02:20Z</time></trkpt><trkpt lat="45.260133080035445" lon="8.625300129170425"><ele>113.0</ele><time>2026-04-18T13:02:21Z</time></trkpt><trkpt lat="45.260139977056305" lon="8.625500718697637"><ele>113.0</ele><time>2026-04-18T13:02:22Z</time></trkpt><trkpt lat="45.26014005814471" lon="8.625685600196498"><ele>113.0</ele><time>2026-04-18T13:02:23Z</time></trkpt><trkpt lat="45.26013807114477" lon="8.62586377069586"><ele>113.0</ele><time>2026-04-18T13:02:24Z</time></trkpt><trkpt lat="45.26013217278516" lon="8.626025868947297"><ele>112.80000000000001</ele><time>2026-04-18T13:02:25.001Z</time></trkpt><trkpt lat="45.260128416691494" lon="8.626175784027806"><ele>112.60000000000001</ele><time>2026-04-18T13:02:26.001Z</time></trkpt><trkpt lat="45.2601281284576" lon="8.626315781050662"><ele>112.39999999999999</ele><time>2026-04-18T13:02:27.001Z</time></trkpt><trkpt lat="45.26013082900705" lon="8.626440585250947"><ele>112.19999999999999</ele><time>2026-04-18T13:02:28.001Z</time></trkpt><trkpt lat="45.26012790715152" lon="8.626562589005761"><ele>112.0</ele><time>2026-04-18T13:02:29.001Z</time></trkpt><trkpt lat="45.26012691779399" lon="8.626674589414996"><ele>112.0</ele><time>2026-04-18T13:02:30.001Z</time></trkpt><trkpt lat="45.2601164215578" lon="8.626793601229096"><ele>111.99999999999999</ele><time>2026-04-18T13:02:31.001Z</time></trkpt><trkpt lat="45.26010521570741" lon="8.626932604278458"><ele>111.99999999999999</ele><time>2026-04-18T13:02:32.001Z</time></trkpt><trkpt lat="45.26008726675508" lon="8.6270775903434"><ele>112.0</ele><time>2026-04-18T13:02:33.001Z</time></trkpt><trkpt lat="45.26007527841982" lon="8.62722185618531"><ele>112.0</ele><time>2026-04-18T13:02:34.001Z</time></trkpt><trkpt lat="45.26007012753678" lon="8.62735858350442"><ele>112.0</ele><time>2026-04-18T13:02:35.001Z</time></trkpt><trkpt lat="45.26013077796612" lon="8.627502254438527"><ele>112.0</ele><time>2026-04-18T13:02:36.001Z</time></trkpt><trkpt lat="45.26017335824975" lon="8.627659160668069"><ele>112.0</ele><time>2026-04-18T13:02:37.001Z</time></trkpt><trkpt lat="45.26018802209777" lon="8.627824054691086"><ele>112.0</ele><time>2026-04-18T13:02:38.001Z</time></trkpt><trkpt lat="45.260184050550805" lon="8.628015636491805"><ele>112.0</ele><time>2026-04-18T13:02:39.001Z</time></trkpt><trkpt lat="45.260181690120454" lon="8.62820167069761"><ele>112.0</ele><time>2026-04-18T13:02:40.001Z</time></trkpt><trkpt lat="45.26018453279573" lon="8.628396272541682"><ele>112.0</ele><time>2026-04-18T13:02:41.001Z</time></trkpt><trkpt lat="45.260187128009804" lon="8.628571156036239"><ele>112.0</ele><time>2026-04-18T13:02:42.001Z</time></trkpt><trkpt lat="45.260188360590874" lon="8.6287394966213"><ele>112.0</ele><time>2026-04-18T13:02:43.001Z</time></trkpt><trkpt lat="45.26019125103307" lon="8.628915087148943"><ele>112.0</ele><time>2026-04-18T13:02:44.001Z</time></trkpt><trkpt lat="45.26018712671338" lon="8.629102549051579"><ele>112.0</ele><time>2026-04-18T13:02:45.001Z</time></trkpt><trkpt lat="45.26022336807357" lon="8.629299130044934"><ele>112.0</ele><time>2026-04-18T13:02:46.001Z</time></trkpt><trkpt lat="45.260258967755206" lon="8.629499726589279"><ele>112.0</ele><time>2026-04-18T13:02:47.001Z</time></trkpt><trkpt lat="45.26029169726183" lon="8.629684596619526"><ele>112.0</ele><time>2026-04-18T13:02:48.001Z</time></trkpt><trkpt lat="45.2603106740903" lon="8.629866890909968"><ele>112.0</ele><time>2026-04-18T13:02:49.001Z</time></trkpt><trkpt lat="45.26031476526317" lon="8.630063621423684"><ele>112.0</ele><time>2026-04-18T13:02:50.001Z</time></trkpt><trkpt lat="45.26029232057257" lon="8.630260324965498"><ele>111.75</ele><time>2026-04-18T13:02:51.002Z</time></trkpt><trkpt lat="45.26026003952145" lon="8.630450179945026"><ele>111.5</ele><time>2026-04-18T13:02:52.002Z</time></trkpt><trkpt lat="45.26021527167142" lon="8.630617748031652"><ele>111.25</ele><time>2026-04-18T13:02:53.002Z</time></trkpt><trkpt lat="45.260143747826376" lon="8.630752192115649"><ele>111.0</ele><time>2026-04-18T13:02:54.002Z</time></trkpt><trkpt lat="45.26004049693463" lon="8.630834793308615"><ele>111.0</ele><time>2026-04-18T13:02:55.002Z</time></trkpt><trkpt lat="45.25996725682188" lon="8.630941601618424"><ele>111.0</ele><time>2026-04-18T13:02:56.002Z</time></trkpt><trkpt lat="45.25992110438323" lon="8.63105407398903"><ele>111.0</ele><time>2026-04-18T13:02:57.002Z</time></trkpt><trkpt lat="45.2599026860944" lon="8.631196596529076"><ele>111.0</ele><time>2026-04-18T13:02:58.002Z</time></trkpt><trkpt lat="45.25991282287122" lon="8.631363988021368"><ele>111.0</ele><time>2026-04-18T13:02:59.002Z</time></trkpt><trkpt lat="45.25992537631488" lon="8.631540303276719"><ele>111.25</ele><time>2026-04-18T13:03:00.002Z</time></trkpt><trkpt lat="45.25993417075073" lon="8.631723176100612"><ele>111.5</ele><time>2026-04-18T13:03:01.002Z</time></trkpt><trkpt lat="45.25993782027148" lon="8.631920931844833"><ele>111.75</ele><time>2026-04-18T13:03:02.002Z</time></trkpt><trkpt lat="45.2599414941813" lon="8.632128301481455"><ele>112.0</ele><time>2026-04-18T13:03:03.002Z</time></trkpt><trkpt lat="45.259948997721686" lon="8.632337082526375"><ele>112.0</ele><time>2026-04-18T13:03:04.002Z</time></trkpt><trkpt lat="45.25995882016966" lon="8.632556402307618"><ele>112.0</ele><time>2026-04-18T13:03:05.002Z</time></trkpt><trkpt lat="45.259966457071435" lon="8.63277779226542"><ele>112.0</ele><time>2026-04-18T13:03:06.002Z</time></trkpt><trkpt lat="45.25997397215027" lon="8.633006875495063"><ele>112.0</ele><time>2026-04-18T13:03:07.002Z</time></trkpt><trkpt lat="45.259988054159415" lon="8.633232085321547"><ele>112.0</ele><time>2026-04-18T13:03:08.002Z</time></trkpt><trkpt lat="45.2600187453994" lon="8.633461692907986"><ele>112.0</ele><time>2026-04-18T13:03:09.002Z</time></trkpt><trkpt lat="45.26007042173798" lon="8.63368378406437"><ele>111.66666666666667</ele><time>2026-04-18T13:03:10.002Z</time></trkpt><trkpt lat="45.26014096145186" lon="8.633899500827006"><ele>111.33333333333334</ele><time>2026-04-18T13:03:11.002Z</time></trkpt><trkpt lat="45.26020996336249" lon="8.634116900643862"><ele>111.0</ele><time>2026-04-18T13:03:12.002Z</time></trkpt><trkpt lat="45.26027583755447" lon="8.634341166101038"><ele>111.33333333333334</ele><time>2026-04-18T13:03:13.002Z</time></trkpt><trkpt lat="45.26034231018797" lon="8.63456243900589"><ele>111.66666666666667</ele><time>2026-04-18T13:03:14.002Z</time></trkpt><trkpt lat="45.260401948861116" lon="8.634778751249808"><ele>112.0</ele><time>2026-04-18T13:03:15.002Z</time></trkpt><trkpt lat="45.26046836078211" lon="8.635006633866066"><ele>112.0</ele><time>2026-04-18T13:03:16.002Z</time></trkpt><trkpt lat="45.26053575970968" lon="8.635236534257404"><ele>112.0</ele><time>2026-04-18T13:03:17.002Z</time></trkpt><trkpt lat="45.26060580566303" lon="8.63547199206453"><ele>112.0</ele><time>2026-04-18T13:03:18.002Z</time></trkpt><trkpt lat="45.26066794491055" lon="8.63572676679153"><ele>112.0</ele><time>2026-04-18T13:03:19.002Z</time></trkpt><trkpt lat="45.2607309014307" lon="8.635943201675094"><ele>112.0</ele><time>2026-04-18T13:03:20.002Z</time></trkpt><trkpt lat="45.26080660304088" lon="8.636200558148268"><ele>112.0</ele><time>2026-04-18T13:03:21.002Z</time></trkpt><trkpt lat="45.260881766435894" lon="8.636453447164556"><ele>111.66666666666667</ele><time>2026-04-18T13:03:22.002Z</time></trkpt><trkpt lat="45.26095649412952" lon="8.636704870252581"><ele>111.33333333333334</ele><time>2026-04-18T13:03:23.003Z</time></trkpt><trkpt lat="45.26103038686753" lon="8.636953484108888"><ele>111.0</ele><time>2026-04-18T13:03:24.003Z</time></trkpt><trkpt lat="45.261105443343205" lon="8.637206013390566"><ele>111.0</ele><time>2026-04-18T13:03:25.003Z</time></trkpt><trkpt lat="45.26117962978105" lon="8.637457719902406"><ele>111.0</ele><time>2026-04-18T13:03:26.003Z</time></trkpt><trkpt lat="45.26125477661885" lon="8.637713021027098"><ele>111.0</ele><time>2026-04-18T13:03:27.003Z</time></trkpt><trkpt lat="45.261329297426165" lon="8.637966259905404"><ele>111.0</ele><time>2026-04-18T13:03:28.003Z</time></trkpt><trkpt lat="45.26140336072111" lon="8.638221353123539"><ele>111.0</ele><time>2026-04-18T13:03:29.003Z</time></trkpt><trkpt lat="45.261477292122976" lon="8.638475992062618"><ele>111.0</ele><time>2026-04-18T13:03:30.003Z</time></trkpt><trkpt lat="45.26155289032309" lon="8.63873295455379"><ele>111.0</ele><time>2026-04-18T13:03:31.003Z</time></trkpt><trkpt lat="45.26162906069434" lon="8.638989476712233"><ele>111.0</ele><time>2026-04-18T13:03:32.003Z</time></trkpt><trkpt lat="45.26170225485568" lon="8.639236466518776"><ele>111.0</ele><time>2026-04-18T13:03:33.003Z</time></trkpt><trkpt lat="45.26178874740948" lon="8.639483591392587"><ele>110.66666666666666</ele><time>2026-04-18T13:03:34.003Z</time></trkpt><trkpt lat="45.2618646910092" lon="8.639738344188194"><ele>110.33333333333333</ele><time>2026-04-18T13:03:35.003Z</time></trkpt><trkpt lat="45.26192556396454" lon="8.640002178500595"><ele>110.0</ele><time>2026-04-18T13:03:36.003Z</time></trkpt><trkpt lat="45.26200072042777" lon="8.640259884979498"><ele>110.33333333333333</ele><time>2026-04-18T13:03:37.003Z</time></trkpt><trkpt lat="45.262075815112034" lon="8.640517379621077"><ele>110.66666666666666</ele><time>2026-04-18T13:03:38.003Z</time></trkpt><trkpt lat="45.26215110698574" lon="8.640775550415333"><ele>111.0</ele><time>2026-04-18T13:03:39.003Z</time></trkpt><trkpt lat="45.26222630886241" lon="8.641032909401718"><ele>111.33333333333334</ele><time>2026-04-18T13:03:40.003Z</time></trkpt><trkpt lat="45.26230221069029" lon="8.641291105496384"><ele>111.66666666666667</ele><time>2026-04-18T13:03:41.003Z</time></trkpt><trkpt lat="45.26237877433159" lon="8.641551552887211"><ele>112.0</ele><time>2026-04-18T13:03:42.003Z</time></trkpt><trkpt lat="45.262453335466844" lon="8.641805188330231"><ele>112.0</ele><time>2026-04-18T13:03:43.003Z</time></trkpt><trkpt lat="45.26252182113604" lon="8.642038156796852"><ele>112.0</ele><time>2026-04-18T13:03:44.003Z</time></trkpt><trkpt lat="45.26258701730152" lon="8.642259935324761"><ele>112.0</ele><time>2026-04-18T13:03:45.003Z</time></trkpt><trkpt lat="45.2626491471578" lon="8.642471283143973"><ele>112.0</ele><time>2026-04-18T13:03:46.003Z</time></trkpt><trkpt lat="45.26270729315386" lon="8.642667698201539"><ele>112.0</ele><time>2026-04-18T13:03:47.003Z</time></trkpt><trkpt lat="45.26276208164302" lon="8.642845176971548"><ele>112.0</ele><time>2026-04-18T13:03:48.003Z</time></trkpt><trkpt lat="45.26281989766873" lon="8.643022129099585"><ele>112.0</ele><time>2026-04-18T13:03:49.003Z</time></trkpt><trkpt lat="45.26287445788494" lon="8.643179693566069"><ele>112.25</ele><time>2026-04-18T13:03:49.997Z</time></trkpt><trkpt lat="45.2629286387849" lon="8.643332553535775"><ele>112.5</ele><time>2026-04-18T13:03:50.997Z</time></trkpt><trkpt lat="45.26298795016536" lon="8.643495448010967"><ele>112.75</ele><time>2026-04-18T13:03:51.997Z</time></trkpt><trkpt lat="45.26303236041817" lon="8.643676686403388"><ele>113.0</ele><time>2026-04-18T13:03:52.997Z</time></trkpt><trkpt lat="45.26311247695605" lon="8.643843181457818"><ele>113.0</ele><time>2026-04-18T13:03:53.997Z</time></trkpt><trkpt lat="45.263184415423694" lon="8.64401704246473"><ele>113.0</ele><time>2026-04-18T13:03:54.998Z</time></trkpt><trkpt lat="45.26324388302986" lon="8.644199715733729"><ele>113.0</ele><time>2026-04-18T13:03:55.998Z</time></trkpt><trkpt lat="45.26330915326646" lon="8.64435583645207"><ele>113.0</ele><time>2026-04-18T13:03:56.998Z</time></trkpt><trkpt lat="45.263388140993776" lon="8.644503169716545"><ele>112.75</ele><time>2026-04-18T13:03:57.998Z</time></trkpt><trkpt lat="45.263449177371164" lon="8.644669711681848"><ele>112.5</ele><time>2026-04-18T13:03:58.998Z</time></trkpt><trkpt lat="45.26351266493847" lon="8.644820272788074"><ele>112.25</ele><time>2026-04-18T13:03:59.998Z</time></trkpt><trkpt lat="45.26356766391729" lon="8.64496327641698"><ele>112.0</ele><time>2026-04-18T13:04:00.998Z</time></trkpt><trkpt lat="45.26362437431504" lon="8.645091319443969"><ele>112.0</ele><time>2026-04-18T13:04:01.998Z</time></trkpt><trkpt lat="45.26366094145362" lon="8.64522239559308"><ele>111.99999999999999</ele><time>2026-04-18T13:04:02.998Z</time></trkpt><trkpt lat="45.26370823066163" lon="8.645328333959057"><ele>111.99999999999999</ele><time>2026-04-18T13:04:03.998Z</time></trkpt><trkpt lat="45.26377502478902" lon="8.645409773764857"><ele>112.0</ele><time>2026-04-18T13:04:04.999Z</time></trkpt><trkpt lat="45.2638693882053" lon="8.645455157850492"><ele>112.0</ele><time>2026-04-18T13:04:05.999Z</time></trkpt><trkpt lat="45.26398873550739" lon="8.645403703487403"><ele>111.75</ele><time>2026-04-18T13:04:06.999Z</time></trkpt><trkpt lat="45.264110467678194" lon="8.64535005356396"><ele>111.5</ele><time>2026-04-18T13:04:07.999Z</time></trkpt><trkpt lat="45.26425200681959" lon="8.645307882786634"><ele>111.25</ele><time>2026-04-18T13:04:08.999Z</time></trkpt><trkpt lat="45.26439947265774" lon="8.645245170163461"><ele>111.0</ele><time>2026-04-18T13:04:09.999Z</time></trkpt><trkpt lat="45.26455575277738" lon="8.645178477205851"><ele>111.66666666666666</ele><time>2026-04-18T13:04:10.999Z</time></trkpt><trkpt lat="45.264715315991154" lon="8.645109798370065"><ele>112.33333333333333</ele><time>2026-04-18T13:04:11.999Z</time></trkpt><trkpt lat="45.26487523587185" lon="8.645040968066668"><ele>113.0</ele><time>2026-04-18T13:04:12.999Z</time></trkpt><trkpt lat="45.26504690872812" lon="8.644964849791155"><ele>113.0</ele><time>2026-04-18T13:04:13.999Z</time></trkpt><trkpt lat="45.265216001565925" lon="8.644879780959856"><ele>113.0</ele><time>2026-04-18T13:04:15Z</time></trkpt><trkpt lat="45.26538466738094" lon="8.644787257105131"><ele>113.0</ele><time>2026-04-18T13:04:16Z</time></trkpt><trkpt lat="45.265557141338256" lon="8.644692644280113"><ele>113.0</ele><time>2026-04-18T13:04:17Z</time></trkpt><trkpt lat="45.26572893142661" lon="8.644599198860085"><ele>113.0</ele><time>2026-04-18T13:04:18Z</time></trkpt><trkpt lat="45.26588999973285" lon="8.644493912066089"><ele>113.0</ele><time>2026-04-18T13:04:19Z</time></trkpt><trkpt lat="45.266053810187124" lon="8.644464513371997"><ele>112.66666666666666</ele><time>2026-04-18T13:04:20Z</time></trkpt><trkpt lat="45.26621963681847" lon="8.64443621227287"><ele>112.33333333333334</ele><time>2026-04-18T13:04:21Z</time></trkpt><trkpt lat="45.266394280403674" lon="8.644424296448209"><ele>112.0</ele><time>2026-04-18T13:04:22Z</time></trkpt><trkpt lat="45.26656427127995" lon="8.644423841121798"><ele>112.0</ele><time>2026-04-18T13:04:23Z</time></trkpt><trkpt lat="45.2667326939073" lon="8.644430667162926"><ele>112.0</ele><time>2026-04-18T13:04:24Z</time></trkpt><trkpt lat="45.26689972571978" lon="8.644444439852643"><ele>112.0</ele><time>2026-04-18T13:04:25Z</time></trkpt><trkpt lat="45.26706291912018" lon="8.644464667864296"><ele>112.0</ele><time>2026-04-18T13:04:26Z</time></trkpt><trkpt lat="45.267226276999054" lon="8.644493299801448"><ele>112.0</ele><time>2026-04-18T13:04:27Z</time></trkpt><trkpt lat="45.2673909932069" lon="8.64453415000956"><ele>112.0</ele><time>2026-04-18T13:04:28Z</time></trkpt><trkpt lat="45.26755179649946" lon="8.644591513672147"><ele>112.0</ele><time>2026-04-18T13:04:29Z</time></trkpt><trkpt lat="45.26770744177171" lon="8.644666814661962"><ele>112.0</ele><time>2026-04-18T13:04:30Z</time></trkpt><trkpt lat="45.267869171649494" lon="8.64475204916764"><ele>112.0</ele><time>2026-04-18T13:04:31Z</time></trkpt><trkpt lat="45.26803117039476" lon="8.644830822112072"><ele>112.33333333333334</ele><time>2026-04-18T13:04:32.001Z</time></trkpt><trkpt lat="45.268199938953444" lon="8.64489276576893"><ele>112.66666666666666</ele><time>2026-04-18T13:04:33.001Z</time></trkpt><trkpt lat="45.26837027254235" lon="8.644939616402594"><ele>113.0</ele><time>2026-04-18T13:04:34.001Z</time></trkpt><trkpt lat="45.268534365992096" lon="8.644972899137928"><ele>113.0</ele><time>2026-04-18T13:04:35.001Z</time></trkpt><trkpt lat="45.26869432928411" lon="8.64499415661827"><ele>113.0</ele><time>2026-04-18T13:04:36.001Z</time></trkpt><trkpt lat="45.26886004635386" lon="8.645004886374299"><ele>113.0</ele><time>2026-04-18T13:04:37.001Z</time></trkpt><trkpt lat="45.26903978629851" lon="8.645011193491515"><ele>113.0</ele><time>2026-04-18T13:04:38.001Z</time></trkpt><trkpt lat="45.26922505651324" lon="8.64501204734012"><ele>113.0</ele><time>2026-04-18T13:04:39.001Z</time></trkpt><trkpt lat="45.26941220637848" lon="8.645009944968427"><ele>113.0</ele><time>2026-04-18T13:04:40.001Z</time></trkpt><trkpt lat="45.26960447565647" lon="8.645004757407186"><ele>113.33333333333333</ele><time>2026-04-18T13:04:41.001Z</time></trkpt><trkpt lat="45.269797534369424" lon="8.645006564967552"><ele>113.66666666666666</ele><time>2026-04-18T13:04:42.001Z</time></trkpt><trkpt lat="45.26998683475303" lon="8.645028529076495"><ele>114.0</ele><time>2026-04-18T13:04:43.001Z</time></trkpt><trkpt lat="45.27018309886436" lon="8.645077601437041"><ele>114.0</ele><time>2026-04-18T13:04:44.001Z</time></trkpt><trkpt lat="45.27037864724498" lon="8.64510378766898"><ele>114.0</ele><time>2026-04-18T13:04:45.001Z</time></trkpt><trkpt lat="45.270577528523404" lon="8.645096844548315"><ele>114.0</ele><time>2026-04-18T13:04:46.001Z</time></trkpt><trkpt lat="45.270773540616126" lon="8.64510876826875"><ele>113.66666666666666</ele><time>2026-04-18T13:04:47.001Z</time></trkpt><trkpt lat="45.270972092794885" lon="8.645145416840393"><ele>113.33333333333333</ele><time>2026-04-18T13:04:48.001Z</time></trkpt><trkpt lat="45.271170649690866" lon="8.645158503122724"><ele>113.0</ele><time>2026-04-18T13:04:49.001Z</time></trkpt><trkpt lat="45.27137060729263" lon="8.645171681762786"><ele>113.33333333333333</ele><time>2026-04-18T13:04:50.001Z</time></trkpt><trkpt lat="45.27157033251058" lon="8.645184845068965"><ele>113.66666666666666</ele><time>2026-04-18T13:04:51.001Z</time></trkpt><trkpt lat="45.2717689166219" lon="8.645197933167738"><ele>114.0</ele><time>2026-04-18T13:04:52.001Z</time></trkpt><trkpt lat="45.27197233437922" lon="8.645211339836582"><ele>114.0</ele><time>2026-04-18T13:04:53.001Z</time></trkpt><trkpt lat="45.27217372392075" lon="8.645224612837755"><ele>114.0</ele><time>2026-04-18T13:04:54.001Z</time></trkpt><trkpt lat="45.27237443098601" lon="8.645237840851335"><ele>114.0</ele><time>2026-04-18T13:04:55.001Z</time></trkpt><trkpt lat="45.27257339039113" lon="8.645254558147268"><ele>114.33333333333334</ele><time>2026-04-18T13:04:56.001Z</time></trkpt><trkpt lat="45.27276930275991" lon="8.645270992666548"><ele>114.66666666666667</ele><time>2026-04-18T13:04:57.001Z</time></trkpt><trkpt lat="45.272962592536395" lon="8.64528720718283"><ele>115.0</ele><time>2026-04-18T13:04:58.001Z</time></trkpt><trkpt lat="45.273155503899595" lon="8.645303389976181"><ele>115.33333333333334</ele><time>2026-04-18T13:04:59.002Z</time></trkpt><trkpt lat="45.273346391456954" lon="8.645319402967715"><ele>115.66666666666666</ele><time>2026-04-18T13:05:00.002Z</time></trkpt><trkpt lat="45.27353568677252" lon="8.645333241203742"><ele>116.0</ele><time>2026-04-18T13:05:01.002Z</time></trkpt><trkpt lat="45.27372572241644" lon="8.64534606645849"><ele>116.0</ele><time>2026-04-18T13:05:02.002Z</time></trkpt><trkpt lat="45.273911264568035" lon="8.645358588434311"><ele>116.0</ele><time>2026-04-18T13:05:03.002Z</time></trkpt><trkpt lat="45.27409565526715" lon="8.64537105149372"><ele>116.0</ele><time>2026-04-18T13:05:04.002Z</time></trkpt><trkpt lat="45.27428205783923" lon="8.645360320236113"><ele>115.66666666666666</ele><time>2026-04-18T13:05:05.002Z</time></trkpt><trkpt lat="45.27446796945299" lon="8.645396283291568"><ele>115.33333333333334</ele><time>2026-04-18T13:05:06.002Z</time></trkpt><trkpt lat="45.27465472981756" lon="8.645407267583007"><ele>115.0</ele><time>2026-04-18T13:05:07.002Z</time></trkpt><trkpt lat="45.27483774284759" lon="8.645416370173162"><ele>114.66666666666667</ele><time>2026-04-18T13:05:08.002Z</time></trkpt><trkpt lat="45.27502226071207" lon="8.645428698035348"><ele>114.33333333333334</ele><time>2026-04-18T13:05:09.002Z</time></trkpt><trkpt lat="45.27520601679927" lon="8.645444208623731"><ele>114.0</ele><time>2026-04-18T13:05:10.002Z</time></trkpt><trkpt lat="45.275385084752074" lon="8.645464467340588"><ele>114.0</ele><time>2026-04-18T13:05:11.002Z</time></trkpt><trkpt lat="45.275567245483565" lon="8.645484396372485"><ele>114.0</ele><time>2026-04-18T13:05:12.002Z</time></trkpt><trkpt lat="45.27574897320031" lon="8.645481203189277"><ele>114.0</ele><time>2026-04-18T13:05:13.002Z</time></trkpt><trkpt lat="45.275929440284536" lon="8.645497553838963"><ele>114.0</ele><time>2026-04-18T13:05:14.002Z</time></trkpt><trkpt lat="45.27610830369419" lon="8.645509752508161"><ele>114.0</ele><time>2026-04-18T13:05:15.002Z</time></trkpt><trkpt lat="45.27628815088694" lon="8.645520715164222"><ele>114.0</ele><time>2026-04-18T13:05:16.002Z</time></trkpt><trkpt lat="45.27646729142964" lon="8.645557684681153"><ele>113.66666666666666</ele><time>2026-04-18T13:05:17.002Z</time></trkpt><trkpt lat="45.276650046303274" lon="8.645571438489153"><ele>113.33333333333333</ele><time>2026-04-18T13:05:18.002Z</time></trkpt><trkpt lat="45.276837560946824" lon="8.645585550507896"><ele>113.0</ele><time>2026-04-18T13:05:19.002Z</time></trkpt><trkpt lat="45.27702342857327" lon="8.645599115712928"><ele>113.0</ele><time>2026-04-18T13:05:20.002Z</time></trkpt><trkpt lat="45.27721164780038" lon="8.645611658469061"><ele>113.0</ele><time>2026-04-18T13:05:21.002Z</time></trkpt><trkpt lat="45.27740095580381" lon="8.645624273777923"><ele>113.0</ele><time>2026-04-18T13:05:22.002Z</time></trkpt><trkpt lat="45.27758906859374" lon="8.645636809440822"><ele>113.0</ele><time>2026-04-18T13:05:23.002Z</time></trkpt><trkpt lat="45.277780806592745" lon="8.64565035175575"><ele>113.0</ele><time>2026-04-18T13:05:24.002Z</time></trkpt><trkpt lat="45.27797258187712" lon="8.645664928577975"><ele>113.0</ele><time>2026-04-18T13:05:25.002Z</time></trkpt><trkpt lat="45.27815088501251" lon="8.645678481392624"><ele>113.0</ele><time>2026-04-18T13:05:26.002Z</time></trkpt><trkpt lat="45.278313728470536" lon="8.645690767242607"><ele>113.0</ele><time>2026-04-18T13:05:27.002Z</time></trkpt><trkpt lat="45.27847524407157" lon="8.64570274853141"><ele>113.0</ele><time>2026-04-18T13:05:28.002Z</time></trkpt><trkpt lat="45.27862269451002" lon="8.645713686454226"><ele>113.0</ele><time>2026-04-18T13:05:29.002Z</time></trkpt><trkpt lat="45.2787643033874" lon="8.645724335639128"><ele>113.0</ele><time>2026-04-18T13:05:30.002Z</time></trkpt><trkpt lat="45.278893154475575" lon="8.645737846237946"><ele>113.0</ele><time>2026-04-18T13:05:31.003Z</time></trkpt><trkpt lat="45.27901277952005" lon="8.645762297173793"><ele>113.0</ele><time>2026-04-18T13:05:32.003Z</time></trkpt><trkpt lat="45.27911535329038" lon="8.645808688999857"><ele>113.2</ele><time>2026-04-18T13:05:33.003Z</time></trkpt><trkpt lat="45.27920375253445" lon="8.645881177819188"><ele>113.4</ele><time>2026-04-18T13:05:34.003Z</time></trkpt><trkpt lat="45.27925997411624" lon="8.645972890323124"><ele>113.60000000000001</ele><time>2026-04-18T13:05:35.003Z</time></trkpt><trkpt lat="45.27924396444548" lon="8.646112342049047"><ele>113.80000000000001</ele><time>2026-04-18T13:05:36.003Z</time></trkpt><trkpt lat="45.2792487034317" lon="8.646259771837164"><ele>114.0</ele><time>2026-04-18T13:05:37.003Z</time></trkpt><trkpt lat="45.27924140103028" lon="8.646440253131633"><ele>114.0</ele><time>2026-04-18T13:05:38.003Z</time></trkpt><trkpt lat="45.27924519252313" lon="8.646626511037407"><ele>114.0</ele><time>2026-04-18T13:05:39.003Z</time></trkpt><trkpt lat="45.279252360078424" lon="8.646792244146479"><ele>114.0</ele><time>2026-04-18T13:05:40.003Z</time></trkpt><trkpt lat="45.27925820812499" lon="8.64695422171645"><ele>114.0</ele><time>2026-04-18T13:05:41.003Z</time></trkpt><trkpt lat="45.279261180775514" lon="8.647106462480505"><ele>113.83333333333333</ele><time>2026-04-18T13:05:42.003Z</time></trkpt><trkpt lat="45.27925862786467" lon="8.64722113661573"><ele>113.66666666666666</ele><time>2026-04-18T13:05:43.003Z</time></trkpt><trkpt lat="45.279279323446936" lon="8.647325787383396"><ele>113.5</ele><time>2026-04-18T13:05:44.003Z</time></trkpt><trkpt lat="45.279329282986374" lon="8.647414947461836"><ele>113.33333333333333</ele><time>2026-04-18T13:05:45.003Z</time></trkpt><trkpt lat="45.27941278066679" lon="8.647483666397733"><ele>113.16666666666666</ele><time>2026-04-18T13:05:46.003Z</time></trkpt><trkpt lat="45.2795187746871" lon="8.64752638570395"><ele>113.0</ele><time>2026-04-18T13:05:47.003Z</time></trkpt><trkpt lat="45.27962627130777" lon="8.647574087071078"><ele>113.0</ele><time>2026-04-18T13:05:48.003Z</time></trkpt><trkpt lat="45.279754551171315" lon="8.647582277816934"><ele>113.0</ele><time>2026-04-18T13:05:49.003Z</time></trkpt><trkpt lat="45.279887378433955" lon="8.647576473161482"><ele>113.0</ele><time>2026-04-18T13:05:50.003Z</time></trkpt><trkpt lat="45.28002193356707" lon="8.647563673991554"><ele>113.0</ele><time>2026-04-18T13:05:51.003Z</time></trkpt><trkpt lat="45.28015650493373" lon="8.64755016093296"><ele>113.0</ele><time>2026-04-18T13:05:52.003Z</time></trkpt><trkpt lat="45.28029681459911" lon="8.64753653224646"><ele>113.0</ele><time>2026-04-18T13:05:53.003Z</time></trkpt><trkpt lat="45.280447005434986" lon="8.647523584760986"><ele>113.0</ele><time>2026-04-18T13:05:54.003Z</time></trkpt><trkpt lat="45.28060304970345" lon="8.647511786932117"><ele>113.0</ele><time>2026-04-18T13:05:55.003Z</time></trkpt><trkpt lat="45.28073667367693" lon="8.647502803184087"><ele>112.75</ele><time>2026-04-18T13:05:55.997Z</time></trkpt><trkpt lat="45.28087763718609" lon="8.647493325937676"><ele>112.5</ele><time>2026-04-18T13:05:56.997Z</time></trkpt><trkpt lat="45.281026249844686" lon="8.647483042937147"><ele>112.25</ele><time>2026-04-18T13:05:57.997Z</time></trkpt><trkpt lat="45.28118036433005" lon="8.64747137610135"><ele>112.0</ele><time>2026-04-18T13:05:58.997Z</time></trkpt><trkpt lat="45.28133471732817" lon="8.64745969121124"><ele>112.0</ele><time>2026-04-18T13:05:59.998Z</time></trkpt><trkpt lat="45.28149220769832" lon="8.647447768754525"><ele>112.0</ele><time>2026-04-18T13:06:00.998Z</time></trkpt><trkpt lat="45.28164057174001" lon="8.647436537221878"><ele>112.0</ele><time>2026-04-18T13:06:01.998Z</time></trkpt><trkpt lat="45.28177422424748" lon="8.647426069013747"><ele>112.0</ele><time>2026-04-18T13:06:02.998Z</time></trkpt><trkpt lat="45.281904292196984" lon="8.647415041427053"><ele>112.0</ele><time>2026-04-18T13:06:03.998Z</time></trkpt><trkpt lat="45.282013337906875" lon="8.647382821210845"><ele>111.99999999999999</ele><time>2026-04-18T13:06:04.998Z</time></trkpt><trkpt lat="45.28210428375261" lon="8.647399083455987"><ele>111.99999999999999</ele><time>2026-04-18T13:06:05.998Z</time></trkpt><trkpt lat="45.28216929487505" lon="8.647383573752725"><ele>112.0</ele><time>2026-04-18T13:06:06.998Z</time></trkpt><trkpt lat="45.28224996900537" lon="8.647423339190677"><ele>112.0</ele><time>2026-04-18T13:06:08.998Z</time></trkpt><trkpt lat="45.28224750555498" lon="8.647606775578431"><ele>112.0</ele><time>2026-04-18T13:06:10.999Z</time></trkpt><trkpt lat="45.2822250200004" lon="8.647712473125557"><ele>111.99999999999999</ele><time>2026-04-18T13:06:11.999Z</time></trkpt><trkpt lat="45.28220356168016" lon="8.647842415875928"><ele>111.99999999999999</ele><time>2026-04-18T13:06:12.999Z</time></trkpt><trkpt lat="45.282186971121625" lon="8.647987381366537"><ele>112.0</ele><time>2026-04-18T13:06:13.999Z</time></trkpt><trkpt lat="45.28217654739352" lon="8.648150896117738"><ele>112.0</ele><time>2026-04-18T13:06:14.999Z</time></trkpt><trkpt lat="45.282168974366414" lon="8.648321712305355"><ele>112.0</ele><time>2026-04-18T13:06:15.999Z</time></trkpt><trkpt lat="45.282171143520415" lon="8.648506425713078"><ele>112.0</ele><time>2026-04-18T13:06:16.999Z</time></trkpt><trkpt lat="45.28219024449811" lon="8.648699106137343"><ele>112.0</ele><time>2026-04-18T13:06:17.999Z</time></trkpt><trkpt lat="45.28222216647442" lon="8.64890140043884"><ele>112.0</ele><time>2026-04-18T13:06:18.999Z</time></trkpt><trkpt lat="45.282262308183086" lon="8.649106939674528"><ele>112.0</ele><time>2026-04-18T13:06:20Z</time></trkpt><trkpt lat="45.28230661290984" lon="8.649311759392646"><ele>112.0</ele><time>2026-04-18T13:06:21Z</time></trkpt><trkpt lat="45.2823358897276" lon="8.64952309629975"><ele>112.0</ele><time>2026-04-18T13:06:22Z</time></trkpt><trkpt lat="45.282409213395304" lon="8.649725005247618"><ele>112.0</ele><time>2026-04-18T13:06:23Z</time></trkpt><trkpt lat="45.28246696319763" lon="8.649937951764189"><ele>112.0</ele><time>2026-04-18T13:06:24Z</time></trkpt><trkpt lat="45.28253164566285" lon="8.650157747758767"><ele>112.0</ele><time>2026-04-18T13:06:25Z</time></trkpt><trkpt lat="45.28259185689835" lon="8.650374818167329"><ele>111.75</ele><time>2026-04-18T13:06:26Z</time></trkpt><trkpt lat="45.28264716570878" lon="8.650581045157983"><ele>111.5</ele><time>2026-04-18T13:06:27Z</time></trkpt><trkpt lat="45.28269915423737" lon="8.650774381085894"><ele>111.25</ele><time>2026-04-18T13:06:28Z</time></trkpt><trkpt lat="45.28274541960849" lon="8.65094966197554"><ele>111.0</ele><time>2026-04-18T13:06:29Z</time></trkpt><trkpt lat="45.28279005079863" lon="8.65111314193716"><ele>111.0</ele><time>2026-04-18T13:06:30Z</time></trkpt><trkpt lat="45.2828199857325" lon="8.651249679187776"><ele>111.0</ele><time>2026-04-18T13:06:31Z</time></trkpt><trkpt lat="45.28284119250497" lon="8.651356062163316"><ele>111.0</ele><time>2026-04-18T13:06:32Z</time></trkpt><trkpt lat="45.28285346479035" lon="8.65144850633121"><ele>111.0</ele><time>2026-04-18T13:06:33Z</time></trkpt><trkpt lat="45.28285762361975" lon="8.651558926257213"><ele>111.0</ele><time>2026-04-18T13:06:34Z</time></trkpt><trkpt lat="45.28291181360986" lon="8.65167147058534"><ele>111.0</ele><time>2026-04-18T13:06:35Z</time></trkpt><trkpt lat="45.282963234654304" lon="8.651809342030855"><ele>111.0</ele><time>2026-04-18T13:06:36Z</time></trkpt><trkpt lat="45.28301980916377" lon="8.65196297978852"><ele>111.0</ele><time>2026-04-18T13:06:37.001Z</time></trkpt><trkpt lat="45.28305528828698" lon="8.652141779635738"><ele>111.0</ele><time>2026-04-18T13:06:38.001Z</time></trkpt><trkpt lat="45.28312605709025" lon="8.652300070345074"><ele>111.0</ele><time>2026-04-18T13:06:39.001Z</time></trkpt><trkpt lat="45.28317965214524" lon="8.652464840407388"><ele>110.5</ele><time>2026-04-18T13:06:40.001Z</time></trkpt><trkpt lat="45.283258074380186" lon="8.652601362953042"><ele>110.0</ele><time>2026-04-18T13:06:41.001Z</time></trkpt><trkpt lat="45.283345344860855" lon="8.652709896528197"><ele>109.5</ele><time>2026-04-18T13:06:42.001Z</time></trkpt><trkpt lat="45.28342990862719" lon="8.652815779560077"><ele>109.0</ele><time>2026-04-18T13:06:43.001Z</time></trkpt><trkpt lat="45.283510526765156" lon="8.652913347500073"><ele>109.00000000000001</ele><time>2026-04-18T13:06:44.001Z</time></trkpt><trkpt lat="45.28358217560489" lon="8.652998364668864"><ele>109.0</ele><time>2026-04-18T13:06:45.001Z</time></trkpt><trkpt lat="45.28364870009961" lon="8.653072581161949"><ele>109.0</ele><time>2026-04-18T13:06:46.001Z</time></trkpt><trkpt lat="45.28370820100785" lon="8.653142288949626"><ele>109.0</ele><time>2026-04-18T13:06:47.001Z</time></trkpt><trkpt lat="45.28375937810245" lon="8.653198406314562"><ele>109.00000000000001</ele><time>2026-04-18T13:06:48.001Z</time></trkpt><trkpt lat="45.28384257271925" lon="8.653304630186353"><ele>109.0</ele><time>2026-04-18T13:06:50.001Z</time></trkpt><trkpt lat="45.2838544362143" lon="8.653501899083341"><ele>108.75</ele><time>2026-04-18T13:06:52.001Z</time></trkpt><trkpt lat="45.283864066464595" lon="8.653645979730564"><ele>108.5</ele><time>2026-04-18T13:06:53.001Z</time></trkpt><trkpt lat="45.283861221472414" lon="8.653802274856847"><ele>108.25</ele><time>2026-04-18T13:06:54.001Z</time></trkpt><trkpt lat="45.283877833709525" lon="8.653981012589583"><ele>108.0</ele><time>2026-04-18T13:06:55.001Z</time></trkpt><trkpt lat="45.28391185332383" lon="8.654166369865598"><ele>108.33333333333334</ele><time>2026-04-18T13:06:56.001Z</time></trkpt><trkpt lat="45.28395307047205" lon="8.654360983604443"><ele>108.66666666666667</ele><time>2026-04-18T13:06:57.001Z</time></trkpt><trkpt lat="45.28400235825435" lon="8.65456781342318"><ele>109.0</ele><time>2026-04-18T13:06:58.001Z</time></trkpt><trkpt lat="45.28404652468484" lon="8.654778367175435"><ele>109.0</ele><time>2026-04-18T13:06:59.001Z</time></trkpt><trkpt lat="45.284081313919266" lon="8.654999270546197"><ele>109.0</ele><time>2026-04-18T13:07:00.001Z</time></trkpt><trkpt lat="45.284125411005746" lon="8.655228463669602"><ele>109.0</ele><time>2026-04-18T13:07:01.001Z</time></trkpt><trkpt lat="45.28416210265172" lon="8.655466593114586"><ele>109.33333333333334</ele><time>2026-04-18T13:07:02.001Z</time></trkpt><trkpt lat="45.28419531726594" lon="8.655716223383127"><ele>109.66666666666666</ele><time>2026-04-18T13:07:03.001Z</time></trkpt><trkpt lat="45.28422549456772" lon="8.655973810309986"><ele>110.0</ele><time>2026-04-18T13:07:04.002Z</time></trkpt><trkpt lat="45.28424502862426" lon="8.656232963373602"><ele>110.33333333333333</ele><time>2026-04-18T13:07:05.002Z</time></trkpt><trkpt lat="45.284247752493975" lon="8.656503379223384"><ele>110.66666666666666</ele><time>2026-04-18T13:07:06.002Z</time></trkpt><trkpt lat="45.28421294162015" lon="8.656774530515806"><ele>111.0</ele><time>2026-04-18T13:07:07.002Z</time></trkpt><trkpt lat="45.284199934665665" lon="8.657049645735501"><ele>111.33333333333334</ele><time>2026-04-18T13:07:08.002Z</time></trkpt><trkpt lat="45.28416539589778" lon="8.657328489142703"><ele>111.66666666666667</ele><time>2026-04-18T13:07:09.002Z</time></trkpt><trkpt lat="45.28413349560627" lon="8.657606086689233"><ele>112.0</ele><time>2026-04-18T13:07:10.002Z</time></trkpt><trkpt lat="45.284107585447366" lon="8.65786537441685"><ele>112.33333333333334</ele><time>2026-04-18T13:07:11.002Z</time></trkpt><trkpt lat="45.284088294805755" lon="8.658105202784899"><ele>112.66666666666666</ele><time>2026-04-18T13:07:12.002Z</time></trkpt><trkpt lat="45.28406755088862" lon="8.658329611918266"><ele>113.0</ele><time>2026-04-18T13:07:13.002Z</time></trkpt><trkpt lat="45.28404554025577" lon="8.658541208463063"><ele>112.5</ele><time>2026-04-18T13:07:14.002Z</time></trkpt><trkpt lat="45.28402563237155" lon="8.658740575347453"><ele>112.0</ele><time>2026-04-18T13:07:15.002Z</time></trkpt><trkpt lat="45.28400937394821" lon="8.658934202089837"><ele>111.5</ele><time>2026-04-18T13:07:16.002Z</time></trkpt><trkpt lat="45.28399391062264" lon="8.65912047568407"><ele>111.0</ele><time>2026-04-18T13:07:17.002Z</time></trkpt><trkpt lat="45.28397679029206" lon="8.659321765095795"><ele>111.0</ele><time>2026-04-18T13:07:18.002Z</time></trkpt><trkpt lat="45.28395529929736" lon="8.659535384049526"><ele>111.0</ele><time>2026-04-18T13:07:19.002Z</time></trkpt><trkpt lat="45.283931667036455" lon="8.659755704902048"><ele>111.0</ele><time>2026-04-18T13:07:20.002Z</time></trkpt><trkpt lat="45.2839101297619" lon="8.65998727049257"><ele>111.0</ele><time>2026-04-18T13:07:21.002Z</time></trkpt><trkpt lat="45.28388801556882" lon="8.660231853535016"><ele>111.0</ele><time>2026-04-18T13:07:22.002Z</time></trkpt><trkpt lat="45.2838658636678" lon="8.660478174974333"><ele>111.0</ele><time>2026-04-18T13:07:23.002Z</time></trkpt><trkpt lat="45.28384183447984" lon="8.660735209286683"><ele>111.33333333333334</ele><time>2026-04-18T13:07:24.002Z</time></trkpt><trkpt lat="45.283817859931126" lon="8.660989555616593"><ele>111.66666666666667</ele><time>2026-04-18T13:07:25.002Z</time></trkpt><trkpt lat="45.283794173360334" lon="8.661245053854381"><ele>112.0</ele><time>2026-04-18T13:07:26.002Z</time></trkpt><trkpt lat="45.28377109853578" lon="8.661504953810008"><ele>112.33333333333334</ele><time>2026-04-18T13:07:27.002Z</time></trkpt><trkpt lat="45.28375044210158" lon="8.66176289033969"><ele>112.66666666666666</ele><time>2026-04-18T13:07:28.002Z</time></trkpt><trkpt lat="45.28372753428847" lon="8.662023583081828"><ele>113.0</ele><time>2026-04-18T13:07:29.002Z</time></trkpt><trkpt lat="45.28370526933375" lon="8.662279539734307"><ele>113.0</ele><time>2026-04-18T13:07:30.002Z</time></trkpt><trkpt lat="45.28368282731718" lon="8.66254342216004"><ele>113.0</ele><time>2026-04-18T13:07:31.002Z</time></trkpt><trkpt lat="45.28365848284521" lon="8.662802262637438"><ele>113.0</ele><time>2026-04-18T13:07:32.002Z</time></trkpt><trkpt lat="45.283635037490846" lon="8.663059908671993"><ele>113.0</ele><time>2026-04-18T13:07:33.002Z</time></trkpt><trkpt lat="45.28361155671316" lon="8.663298369663462"><ele>113.0</ele><time>2026-04-18T13:07:34.002Z</time></trkpt><trkpt lat="45.283588966253205" lon="8.663519241198538"><ele>113.0</ele><time>2026-04-18T13:07:35.002Z</time></trkpt><trkpt lat="45.28357014437024" lon="8.663731214513504"><ele>113.0</ele><time>2026-04-18T13:07:36.003Z</time></trkpt><trkpt lat="45.28355350653507" lon="8.663925738985792"><ele>113.0</ele><time>2026-04-18T13:07:37.003Z</time></trkpt><trkpt lat="45.28353649037856" lon="8.66411339159176"><ele>113.0</ele><time>2026-04-18T13:07:38.003Z</time></trkpt><trkpt lat="45.283521075998976" lon="8.664295204261567"><ele>113.0</ele><time>2026-04-18T13:07:39.003Z</time></trkpt><trkpt lat="45.28350517543638" lon="8.664483554184912"><ele>112.75</ele><time>2026-04-18T13:07:40.003Z</time></trkpt><trkpt lat="45.28348738338042" lon="8.664682933966088"><ele>112.5</ele><time>2026-04-18T13:07:41.003Z</time></trkpt><trkpt lat="45.28346549796549" lon="8.664888334951602"><ele>112.25</ele><time>2026-04-18T13:07:42.003Z</time></trkpt><trkpt lat="45.28343476932057" lon="8.665096377648217"><ele>112.0</ele><time>2026-04-18T13:07:43.003Z</time></trkpt><trkpt lat="45.28337233107851" lon="8.665293153919624"><ele>111.75</ele><time>2026-04-18T13:07:44.003Z</time></trkpt><trkpt lat="45.2833257003009" lon="8.665504768873802"><ele>111.5</ele><time>2026-04-18T13:07:45.003Z</time></trkpt><trkpt lat="45.283253895041284" lon="8.665693203404567"><ele>111.25</ele><time>2026-04-18T13:07:46.003Z</time></trkpt><trkpt lat="45.283183915364354" lon="8.665859362987282"><ele>111.0</ele><time>2026-04-18T13:07:47.003Z</time></trkpt><trkpt lat="45.283117009248315" lon="8.666014361288676"><ele>111.4</ele><time>2026-04-18T13:07:48.003Z</time></trkpt><trkpt lat="45.28305026680377" lon="8.66615673990699"><ele>111.8</ele><time>2026-04-18T13:07:49.003Z</time></trkpt><trkpt lat="45.282985462745515" lon="8.666294044803452"><ele>112.20000000000002</ele><time>2026-04-18T13:07:50.003Z</time></trkpt><trkpt lat="45.28292755148735" lon="8.666424314787417"><ele>112.60000000000001</ele><time>2026-04-18T13:07:51.003Z</time></trkpt><trkpt lat="45.282873543052865" lon="8.666541440580477"><ele>113.0</ele><time>2026-04-18T13:07:52.003Z</time></trkpt><trkpt lat="45.28282517016066" lon="8.666636861057354"><ele>113.0</ele><time>2026-04-18T13:07:53.003Z</time></trkpt><trkpt lat="45.28281009769939" lon="8.666740594546276"><ele>113.00000000000001</ele><time>2026-04-18T13:07:54.003Z</time></trkpt><trkpt lat="45.28286647963008" lon="8.666920600392858"><ele>113.00000000000001</ele><time>2026-04-18T13:07:56.003Z</time></trkpt><trkpt lat="45.28293546232333" lon="8.667002111711652"><ele>113.0</ele><time>2026-04-18T13:07:57.003Z</time></trkpt><trkpt lat="45.282998373919575" lon="8.667088540201162"><ele>113.0</ele><time>2026-04-18T13:07:58.003Z</time></trkpt><trkpt lat="45.283057466494654" lon="8.66717818257847"><ele>113.0</ele><time>2026-04-18T13:07:59.003Z</time></trkpt><trkpt lat="45.283096476936095" lon="8.667302267806667"><ele>113.00000000000001</ele><time>2026-04-18T13:08:00.003Z</time></trkpt><trkpt lat="45.28313310120117" lon="8.667429968774135"><ele>113.00000000000001</ele><time>2026-04-18T13:08:01.003Z</time></trkpt><trkpt lat="45.28316592105518" lon="8.667585250956526"><ele>113.0</ele><time>2026-04-18T13:08:01.998Z</time></trkpt><trkpt lat="45.2832022680134" lon="8.667760194711342"><ele>113.0</ele><time>2026-04-18T13:08:02.998Z</time></trkpt><trkpt lat="45.283247025894035" lon="8.667924774185083"><ele>113.2</ele><time>2026-04-18T13:08:03.998Z</time></trkpt><trkpt lat="45.283266887715094" lon="8.668067255861276"><ele>113.4</ele><time>2026-04-18T13:08:04.998Z</time></trkpt><trkpt lat="45.283291812541336" lon="8.66819077743716"><ele>113.60000000000001</ele><time>2026-04-18T13:08:05.998Z</time></trkpt><trkpt lat="45.2833210790348" lon="8.66830138034735"><ele>113.80000000000001</ele><time>2026-04-18T13:08:06.998Z</time></trkpt><trkpt lat="45.2833444434615" lon="8.66839712113053"><ele>114.0</ele><time>2026-04-18T13:08:07.998Z</time></trkpt><trkpt lat="45.283373789342235" lon="8.668541035527136"><ele>113.83333333333333</ele><time>2026-04-18T13:08:09.999Z</time></trkpt><trkpt lat="45.283397338379686" lon="8.66865332748021"><ele>113.66666666666666</ele><time>2026-04-18T13:08:11.999Z</time></trkpt><trkpt lat="45.28346859945011" lon="8.66873954980019"><ele>113.5</ele><time>2026-04-18T13:08:13.999Z</time></trkpt><trkpt lat="45.283538878705954" lon="8.668749300303602"><ele>113.33333333333333</ele><time>2026-04-18T13:08:14.999Z</time></trkpt><trkpt lat="45.283627687695464" lon="8.668729410782944"><ele>113.16666666666666</ele><time>2026-04-18T13:08:15.999Z</time></trkpt><trkpt lat="45.28372176109506" lon="8.66868931551986"><ele>113.0</ele><time>2026-04-18T13:08:16.999Z</time></trkpt><trkpt lat="45.28381782755882" lon="8.668642039693593"><ele>113.25</ele><time>2026-04-18T13:08:17.999Z</time></trkpt><trkpt lat="45.28391847741458" lon="8.668588186731954"><ele>113.5</ele><time>2026-04-18T13:08:18.999Z</time></trkpt><trkpt lat="45.28402645688796" lon="8.66853427358851"><ele>113.75</ele><time>2026-04-18T13:08:19.999Z</time></trkpt><trkpt lat="45.28413823785567" lon="8.668476776084596"><ele>114.0</ele><time>2026-04-18T13:08:20.999Z</time></trkpt><trkpt lat="45.284265194906524" lon="8.668415509211254"><ele>114.25</ele><time>2026-04-18T13:08:21.999Z</time></trkpt><trkpt lat="45.28438459227348" lon="8.668352672425232"><ele>114.5</ele><time>2026-04-18T13:08:23Z</time></trkpt><trkpt lat="45.28451645750384" lon="8.66829154454038"><ele>114.75</ele><time>2026-04-18T13:08:24Z</time></trkpt><trkpt lat="45.284626033671216" lon="8.668236792169262"><ele>115.0</ele><time>2026-04-18T13:08:25Z</time></trkpt><trkpt lat="45.28472553801863" lon="8.668188419281448"><ele>115.16666666666667</ele><time>2026-04-18T13:08:26Z</time></trkpt><trkpt lat="45.28481834578876" lon="8.668144678239129"><ele>115.33333333333334</ele><time>2026-04-18T13:08:27Z</time></trkpt><trkpt lat="45.28490161929012" lon="8.668101747922794"><ele>115.5</ele><time>2026-04-18T13:08:28Z</time></trkpt><trkpt lat="45.28498778930616" lon="8.6680721894644"><ele>115.66666666666666</ele><time>2026-04-18T13:08:29Z</time></trkpt><trkpt lat="45.28506829700833" lon="8.668043691698387"><ele>115.83333333333333</ele><time>2026-04-18T13:08:30Z</time></trkpt><trkpt lat="45.28515110135926" lon="8.668013040014074"><ele>116.0</ele><time>2026-04-18T13:08:31Z</time></trkpt><trkpt lat="45.28521348992481" lon="8.667977977282568"><ele>116.0</ele><time>2026-04-18T13:08:32Z</time></trkpt><trkpt lat="45.285315369891286" lon="8.667913639566393"><ele>116.0</ele><time>2026-04-18T13:08:34Z</time></trkpt><trkpt lat="45.28539762925079" lon="8.667898792943706"><ele>116.0</ele><time>2026-04-18T13:08:36Z</time></trkpt><trkpt lat="45.28544708863822" lon="8.668049979745373"><ele>116.0</ele><time>2026-04-18T13:08:38Z</time></trkpt><trkpt lat="45.28546571894297" lon="8.668157655875008"><ele>116.0</ele><time>2026-04-18T13:08:39Z</time></trkpt><trkpt lat="45.285485993406844" lon="8.668287343192912"><ele>116.0</ele><time>2026-04-18T13:08:40Z</time></trkpt><trkpt lat="45.28552148655454" lon="8.668426153690216"><ele>116.0</ele><time>2026-04-18T13:08:41.001Z</time></trkpt><trkpt lat="45.28556311753789" lon="8.668571683849175"><ele>116.0</ele><time>2026-04-18T13:08:42.001Z</time></trkpt><trkpt lat="45.285612671246454" lon="8.668723359307732"><ele>116.0</ele><time>2026-04-18T13:08:43.001Z</time></trkpt><trkpt lat="45.285650896980435" lon="8.668881523740852"><ele>115.5</ele><time>2026-04-18T13:08:44.001Z</time></trkpt><trkpt lat="45.28569864295525" lon="8.669045437285348"><ele>115.0</ele><time>2026-04-18T13:08:45.001Z</time></trkpt><trkpt lat="45.285747673684355" lon="8.669207726776937"><ele>114.5</ele><time>2026-04-18T13:08:46.001Z</time></trkpt><trkpt lat="45.285793906658796" lon="8.669375114816134"><ele>114.0</ele><time>2026-04-18T13:08:47.001Z</time></trkpt><trkpt lat="45.28583942544954" lon="8.669550426268758"><ele>113.75</ele><time>2026-04-18T13:08:48.001Z</time></trkpt><trkpt lat="45.285881920401195" lon="8.66972500386921"><ele>113.5</ele><time>2026-04-18T13:08:49.001Z</time></trkpt><trkpt lat="45.28592201433443" lon="8.669902995229874"><ele>113.25</ele><time>2026-04-18T13:08:50.001Z</time></trkpt><trkpt lat="45.285959365000245" lon="8.670093384767869"><ele>113.0</ele><time>2026-04-18T13:08:51.001Z</time></trkpt><trkpt lat="45.285999613542025" lon="8.670288676766026"><ele>112.66666666666666</ele><time>2026-04-18T13:08:52.001Z</time></trkpt><trkpt lat="45.28605412134076" lon="8.670484200948637"><ele>112.33333333333334</ele><time>2026-04-18T13:08:53.001Z</time></trkpt><trkpt lat="45.28611178577075" lon="8.67068154471148"><ele>112.0</ele><time>2026-04-18T13:08:54.001Z</time></trkpt><trkpt lat="45.286160419018636" lon="8.6708867845714"><ele>112.0</ele><time>2026-04-18T13:08:55.001Z</time></trkpt><trkpt lat="45.28619853136744" lon="8.671099793355427"><ele>112.0</ele><time>2026-04-18T13:08:56.001Z</time></trkpt><trkpt lat="45.28624195723918" lon="8.67131069858778"><ele>112.0</ele><time>2026-04-18T13:08:57.001Z</time></trkpt><trkpt lat="45.28627342542903" lon="8.671525727595583"><ele>111.66666666666667</ele><time>2026-04-18T13:08:58.001Z</time></trkpt><trkpt lat="45.28629697758453" lon="8.67175068419187"><ele>111.33333333333334</ele><time>2026-04-18T13:08:59.001Z</time></trkpt><trkpt lat="45.28632115668723" lon="8.671980610219071"><ele>111.0</ele><time>2026-04-18T13:09:00.001Z</time></trkpt><trkpt lat="45.28634625986899" lon="8.672206247318329"><ele>111.0</ele><time>2026-04-18T13:09:01.001Z</time></trkpt><trkpt lat="45.28636369749247" lon="8.672440719835876"><ele>111.0</ele><time>2026-04-18T13:09:02.001Z</time></trkpt><trkpt lat="45.28637843390304" lon="8.672669172024912"><ele>111.0</ele><time>2026-04-18T13:09:03.001Z</time></trkpt><trkpt lat="45.2863958826802" lon="8.672900232250875"><ele>110.66666666666666</ele><time>2026-04-18T13:09:04.001Z</time></trkpt><trkpt lat="45.286415080052784" lon="8.673133691897476"><ele>110.33333333333333</ele><time>2026-04-18T13:09:05.001Z</time></trkpt><trkpt lat="45.28643086650105" lon="8.673368923581705"><ele>110.0</ele><time>2026-04-18T13:09:06.001Z</time></trkpt><trkpt lat="45.28644328403917" lon="8.673599784258263"><ele>111.0</ele><time>2026-04-18T13:09:07.001Z</time></trkpt><trkpt lat="45.28645645128409" lon="8.673833498803733"><ele>112.0</ele><time>2026-04-18T13:09:08.001Z</time></trkpt><trkpt lat="45.286471198195585" lon="8.6740674592061"><ele>113.0</ele><time>2026-04-18T13:09:09.002Z</time></trkpt><trkpt lat="45.286485276566815" lon="8.674296566157322"><ele>112.33333333333333</ele><time>2026-04-18T13:09:10.002Z</time></trkpt><trkpt lat="45.286501062885925" lon="8.674530455886739"><ele>111.66666666666666</ele><time>2026-04-18T13:09:11.002Z</time></trkpt><trkpt lat="45.28651711857334" lon="8.674762983335235"><ele>111.0</ele><time>2026-04-18T13:09:12.002Z</time></trkpt><trkpt lat="45.28653304870551" lon="8.674999361951294"><ele>111.0</ele><time>2026-04-18T13:09:13.002Z</time></trkpt><trkpt lat="45.28654473447678" lon="8.675238526853178"><ele>111.0</ele><time>2026-04-18T13:09:14.002Z</time></trkpt><trkpt lat="45.286549126153716" lon="8.675477626086455"><ele>111.0</ele><time>2026-04-18T13:09:15.002Z</time></trkpt><trkpt lat="45.286563526884954" lon="8.675729378594594"><ele>110.66666666666666</ele><time>2026-04-18T13:09:16.002Z</time></trkpt><trkpt lat="45.286591548868074" lon="8.675979961216473"><ele>110.33333333333333</ele><time>2026-04-18T13:09:17.002Z</time></trkpt><trkpt lat="45.28661140432574" lon="8.676236450973471"><ele>110.0</ele><time>2026-04-18T13:09:18.002Z</time></trkpt><trkpt lat="45.28662849850852" lon="8.676503303433218"><ele>110.0</ele><time>2026-04-18T13:09:19.002Z</time></trkpt><trkpt lat="45.286644833940414" lon="8.676775082325904"><ele>110.0</ele><time>2026-04-18T13:09:20.002Z</time></trkpt><trkpt lat="45.286662698751066" lon="8.67705244012204"><ele>110.0</ele><time>2026-04-18T13:09:21.002Z</time></trkpt><trkpt lat="45.28668046415099" lon="8.677330315598896"><ele>110.33333333333333</ele><time>2026-04-18T13:09:22.002Z</time></trkpt><trkpt lat="45.286698562354594" lon="8.677610414232655"><ele>110.66666666666666</ele><time>2026-04-18T13:09:23.002Z</time></trkpt><trkpt lat="45.28671607682604" lon="8.677896397620998"><ele>111.0</ele><time>2026-04-18T13:09:24.002Z</time></trkpt><trkpt lat="45.28673381815518" lon="8.678182612208452"><ele>111.33333333333334</ele><time>2026-04-18T13:09:25.002Z</time></trkpt><trkpt lat="45.28675298898966" lon="8.678467910389578"><ele>111.66666666666667</ele><time>2026-04-18T13:09:26.002Z</time></trkpt><trkpt lat="45.28677315923594" lon="8.678762735507965"><ele>112.0</ele><time>2026-04-18T13:09:27.002Z</time></trkpt><trkpt lat="45.28679132970658" lon="8.679059519807502"><ele>112.0</ele><time>2026-04-18T13:09:28.002Z</time></trkpt><trkpt lat="45.286808821434555" lon="8.679353282758864"><ele>112.0</ele><time>2026-04-18T13:09:29.002Z</time></trkpt><trkpt lat="45.28682741945042" lon="8.679651096925733"><ele>112.0</ele><time>2026-04-18T13:09:30.002Z</time></trkpt><trkpt lat="45.28684605458047" lon="8.67995054387521"><ele>112.0</ele><time>2026-04-18T13:09:31.002Z</time></trkpt><trkpt lat="45.28686301029392" lon="8.680251916169201"><ele>112.0</ele><time>2026-04-18T13:09:32.002Z</time></trkpt><trkpt lat="45.28688042684697" lon="8.680559589065577"><ele>112.0</ele><time>2026-04-18T13:09:33.002Z</time></trkpt><trkpt lat="45.286895363682795" lon="8.680850979610211"><ele>111.66666666666667</ele><time>2026-04-18T13:09:34.002Z</time></trkpt><trkpt lat="45.28691458780554" lon="8.681149283197577"><ele>111.33333333333334</ele><time>2026-04-18T13:09:35.002Z</time></trkpt><trkpt lat="45.28693472931395" lon="8.681449613960554"><ele>111.0</ele><time>2026-04-18T13:09:36.002Z</time></trkpt><trkpt lat="45.286958139033345" lon="8.68173900558946"><ele>111.33333333333334</ele><time>2026-04-18T13:09:37.002Z</time></trkpt><trkpt lat="45.28698363248435" lon="8.682031024517727"><ele>111.66666666666667</ele><time>2026-04-18T13:09:38.002Z</time></trkpt><trkpt lat="45.287008715960376" lon="8.682321517051466"><ele>112.0</ele><time>2026-04-18T13:09:39.002Z</time></trkpt><trkpt lat="45.28703403137203" lon="8.682611784562107"><ele>111.66666666666667</ele><time>2026-04-18T13:09:40.002Z</time></trkpt><trkpt lat="45.287061254344835" lon="8.682906819690931"><ele>111.33333333333334</ele><time>2026-04-18T13:09:41.002Z</time></trkpt><trkpt lat="45.28708691131576" lon="8.683191278840747"><ele>111.0</ele><time>2026-04-18T13:09:42.003Z</time></trkpt><trkpt lat="45.28711400200685" lon="8.683484144203314"><ele>111.33333333333334</ele><time>2026-04-18T13:09:43.003Z</time></trkpt><trkpt lat="45.28714088088649" lon="8.683771312728854"><ele>111.66666666666667</ele><time>2026-04-18T13:09:44.003Z</time></trkpt><trkpt lat="45.28716713880977" lon="8.684063717495828"><ele>112.0</ele><time>2026-04-18T13:09:45.003Z</time></trkpt><trkpt lat="45.28719741329738" lon="8.684353501377004"><ele>112.0</ele><time>2026-04-18T13:09:46.003Z</time></trkpt><trkpt lat="45.28723003568043" lon="8.684642724582865"><ele>112.0</ele><time>2026-04-18T13:09:47.003Z</time></trkpt><trkpt lat="45.28726310730027" lon="8.684937718341404"><ele>112.0</ele><time>2026-04-18T13:09:48.003Z</time></trkpt><trkpt lat="45.28729844464876" lon="8.685229710503453"><ele>111.33333333333334</ele><time>2026-04-18T13:09:49.003Z</time></trkpt><trkpt lat="45.28733103763117" lon="8.685504748112328"><ele>110.66666666666666</ele><time>2026-04-18T13:09:50.003Z</time></trkpt><trkpt lat="45.28736079536403" lon="8.685762401209775"><ele>110.0</ele><time>2026-04-18T13:09:51.003Z</time></trkpt><trkpt lat="45.28738733010792" lon="8.686002450836416"><ele>110.33333333333333</ele><time>2026-04-18T13:09:52.003Z</time></trkpt><trkpt lat="45.28741585422582" lon="8.686234259738134"><ele>110.66666666666666</ele><time>2026-04-18T13:09:53.003Z</time></trkpt><trkpt lat="45.2874463300948" lon="8.686449779487148"><ele>111.0</ele><time>2026-04-18T13:09:54.003Z</time></trkpt><trkpt lat="45.287486950642254" lon="8.686660075683546"><ele>111.0</ele><time>2026-04-18T13:09:55.003Z</time></trkpt><trkpt lat="45.28754333546197" lon="8.68687723367715"><ele>111.0</ele><time>2026-04-18T13:09:56.003Z</time></trkpt><trkpt lat="45.28761410287817" lon="8.68709475373821"><ele>111.0</ele><time>2026-04-18T13:09:57.003Z</time></trkpt><trkpt lat="45.2876971477174" lon="8.687317315336323"><ele>112.0</ele><time>2026-04-18T13:09:58.003Z</time></trkpt><trkpt lat="45.287787706157935" lon="8.687546491187442"><ele>113.0</ele><time>2026-04-18T13:09:59.003Z</time></trkpt><trkpt lat="45.28788069415883" lon="8.687784048132846"><ele>114.0</ele><time>2026-04-18T13:10:00.003Z</time></trkpt><trkpt lat="45.287975386627856" lon="8.688031903411668"><ele>114.0</ele><time>2026-04-18T13:10:01.003Z</time></trkpt><trkpt lat="45.288072681123104" lon="8.68828782458828"><ele>114.0</ele><time>2026-04-18T13:10:02.003Z</time></trkpt><trkpt lat="45.288166916306764" lon="8.68854002369589"><ele>114.0</ele><time>2026-04-18T13:10:03.003Z</time></trkpt><trkpt lat="45.28825767932475" lon="8.688786579222606"><ele>114.0</ele><time>2026-04-18T13:10:04.003Z</time></trkpt><trkpt lat="45.28834119792806" lon="8.689030373884243"><ele>114.0</ele><time>2026-04-18T13:10:05.003Z</time></trkpt><trkpt lat="45.28841753062553" lon="8.689280096126465"><ele>114.0</ele><time>2026-04-18T13:10:06.003Z</time></trkpt><trkpt lat="45.28848178693989" lon="8.68953894928441"><ele>114.0</ele><time>2026-04-18T13:10:07.003Z</time></trkpt><trkpt lat="45.28853193879493" lon="8.689801491183543"><ele>114.0</ele><time>2026-04-18T13:10:07.998Z</time></trkpt><trkpt lat="45.2885681028399" lon="8.690072312002096"><ele>114.0</ele><time>2026-04-18T13:10:08.998Z</time></trkpt><trkpt lat="45.28859332420653" lon="8.690340162058016"><ele>113.66666666666666</ele><time>2026-04-18T13:10:09.998Z</time></trkpt><trkpt lat="45.288615989710735" lon="8.690615873179333"><ele>113.33333333333333</ele><time>2026-04-18T13:10:10.998Z</time></trkpt><trkpt lat="45.28864561643169" lon="8.690885290534238"><ele>113.0</ele><time>2026-04-18T13:10:11.998Z</time></trkpt><trkpt lat="45.288690767503354" lon="8.691153636552468"><ele>113.0</ele><time>2026-04-18T13:10:12.998Z</time></trkpt><trkpt lat="45.288747719126796" lon="8.691413448451089"><ele>113.0</ele><time>2026-04-18T13:10:13.998Z</time></trkpt><trkpt lat="45.28881499198021" lon="8.691677304981603"><ele>113.0</ele><time>2026-04-18T13:10:14.998Z</time></trkpt><trkpt lat="45.28888730407396" lon="8.691932462785786"><ele>113.0</ele><time>2026-04-18T13:10:15.999Z</time></trkpt><trkpt lat="45.28896536793966" lon="8.692186403831913"><ele>113.0</ele><time>2026-04-18T13:10:16.999Z</time></trkpt><trkpt lat="45.28904833827319" lon="8.692446656958243"><ele>113.0</ele><time>2026-04-18T13:10:17.999Z</time></trkpt><trkpt lat="45.289130481096585" lon="8.69270246212871"><ele>113.0</ele><time>2026-04-18T13:10:18.999Z</time></trkpt><trkpt lat="45.28921154868254" lon="8.69296130309108"><ele>113.0</ele><time>2026-04-18T13:10:19.999Z</time></trkpt><trkpt lat="45.289293070940545" lon="8.693225860811138"><ele>113.0</ele><time>2026-04-18T13:10:20.999Z</time></trkpt><trkpt lat="45.28937336496258" lon="8.693491308454288"><ele>112.66666666666666</ele><time>2026-04-18T13:10:21.999Z</time></trkpt><trkpt lat="45.28945283959522" lon="8.693756243209851"><ele>112.33333333333334</ele><time>2026-04-18T13:10:22.999Z</time></trkpt><trkpt lat="45.28953483667787" lon="8.6940201513449"><ele>112.0</ele><time>2026-04-18T13:10:23.999Z</time></trkpt><trkpt lat="45.28961955699587" lon="8.694288185701147"><ele>112.66666666666667</ele><time>2026-04-18T13:10:24.999Z</time></trkpt><trkpt lat="45.28970350501481" lon="8.694552823988037"><ele>113.33333333333334</ele><time>2026-04-18T13:10:25.999Z</time></trkpt><trkpt lat="45.289786897582104" lon="8.694815200356864"><ele>114.0</ele><time>2026-04-18T13:10:26.999Z</time></trkpt><trkpt lat="45.2898727430556" lon="8.695080296179249"><ele>113.33333333333334</ele><time>2026-04-18T13:10:27.999Z</time></trkpt><trkpt lat="45.28995493579065" lon="8.695346452083689"><ele>112.66666666666667</ele><time>2026-04-18T13:10:29Z</time></trkpt><trkpt lat="45.29003793336697" lon="8.69561287684163"><ele>112.0</ele><time>2026-04-18T13:10:30Z</time></trkpt><trkpt lat="45.29012091887203" lon="8.695878728987399"><ele>112.0</ele><time>2026-04-18T13:10:31Z</time></trkpt><trkpt lat="45.29020314977561" lon="8.696146072911072"><ele>112.0</ele><time>2026-04-18T13:10:32Z</time></trkpt><trkpt lat="45.29028450498349" lon="8.696411712159247"><ele>112.0</ele><time>2026-04-18T13:10:33Z</time></trkpt><trkpt lat="45.2903661832912" lon="8.696679957411877"><ele>112.0</ele><time>2026-04-18T13:10:34Z</time></trkpt><trkpt lat="45.290449565801644" lon="8.69694186480955"><ele>112.0</ele><time>2026-04-18T13:10:35Z</time></trkpt><trkpt lat="45.290529011635584" lon="8.697193161697205"><ele>112.0</ele><time>2026-04-18T13:10:36Z</time></trkpt><trkpt lat="45.29060832561633" lon="8.697417961475303"><ele>112.33333333333334</ele><time>2026-04-18T13:10:37Z</time></trkpt><trkpt lat="45.290695530336194" lon="8.697628123403646"><ele>112.66666666666666</ele><time>2026-04-18T13:10:38Z</time></trkpt><trkpt lat="45.2907994121824" lon="8.697837606401126"><ele>113.0</ele><time>2026-04-18T13:10:39Z</time></trkpt><trkpt lat="45.29091012483807" lon="8.698044072982857"><ele>113.0</ele><time>2026-04-18T13:10:40Z</time></trkpt><trkpt lat="45.291030561645464" lon="8.698249157739246"><ele>113.0</ele><time>2026-04-18T13:10:41Z</time></trkpt><trkpt lat="45.29115749539656" lon="8.698449860930042"><ele>113.0</ele><time>2026-04-18T13:10:42Z</time></trkpt><trkpt lat="45.29129135305954" lon="8.698646857503498"><ele>113.33333333333333</ele><time>2026-04-18T13:10:43Z</time></trkpt><trkpt lat="45.291425778465815" lon="8.698845458843508"><ele>113.66666666666666</ele><time>2026-04-18T13:10:44Z</time></trkpt><trkpt lat="45.29156006139351" lon="8.699054217391875"><ele>114.0</ele><time>2026-04-18T13:10:45Z</time></trkpt><trkpt lat="45.291675348868345" lon="8.699286635046795"><ele>114.0</ele><time>2026-04-18T13:10:46Z</time></trkpt><trkpt lat="45.29181229930658" lon="8.699493678397646"><ele>114.0</ele><time>2026-04-18T13:10:47Z</time></trkpt><trkpt lat="45.29193076638683" lon="8.699721207542623"><ele>114.0</ele><time>2026-04-18T13:10:48.001Z</time></trkpt><trkpt lat="45.29204218352307" lon="8.699969815776798"><ele>114.0</ele><time>2026-04-18T13:10:49.001Z</time></trkpt><trkpt lat="45.29214500999657" lon="8.700169551069541"><ele>114.0</ele><time>2026-04-18T13:10:50.001Z</time></trkpt><trkpt lat="45.29223799475812" lon="8.700368400056337"><ele>114.0</ele><time>2026-04-18T13:10:51.001Z</time></trkpt><trkpt lat="45.2923254185313" lon="8.70055966220801"><ele>114.0</ele><time>2026-04-18T13:10:52.001Z</time></trkpt><trkpt lat="45.29240794194933" lon="8.700738631346765"><ele>114.0</ele><time>2026-04-18T13:10:53.001Z</time></trkpt><trkpt lat="45.29248464363944" lon="8.70091619932437"><ele>114.0</ele><time>2026-04-18T13:10:54.001Z</time></trkpt><trkpt lat="45.292556256217445" lon="8.701082107093399"><ele>114.0</ele><time>2026-04-18T13:10:55.001Z</time></trkpt><trkpt lat="45.29261823727203" lon="8.701244556318628"><ele>114.0</ele><time>2026-04-18T13:10:56.001Z</time></trkpt><trkpt lat="45.292672511123186" lon="8.701400647537893"><ele>114.0</ele><time>2026-04-18T13:10:57.001Z</time></trkpt><trkpt lat="45.29271684999691" lon="8.70153431713183"><ele>114.0</ele><time>2026-04-18T13:10:58.001Z</time></trkpt><trkpt lat="45.29275708769369" lon="8.701655325396533"><ele>114.0</ele><time>2026-04-18T13:10:59.001Z</time></trkpt><trkpt lat="45.292792136868535" lon="8.701757979735788"><ele>114.0</ele><time>2026-04-18T13:11:00.001Z</time></trkpt><trkpt lat="45.29282084836786" lon="8.701852237535833"><ele>114.0</ele><time>2026-04-18T13:11:01.001Z</time></trkpt><trkpt lat="45.292860977549395" lon="8.701994730708703"><ele>114.0</ele><time>2026-04-18T13:11:03.001Z</time></trkpt><trkpt lat="45.292891756077026" lon="8.702083146064533"><ele>114.0</ele><time>2026-04-18T13:11:05.001Z</time></trkpt><trkpt lat="45.292907593887136" lon="8.702186589257135"><ele>114.0</ele><time>2026-04-18T13:11:08.001Z</time></trkpt><trkpt lat="45.29294286349726" lon="8.702291080711234"><ele>114.0</ele><time>2026-04-18T13:11:12.001Z</time></trkpt><trkpt lat="45.29298192422782" lon="8.702436642344077"><ele>114.0</ele><time>2026-04-18T13:11:14.001Z</time></trkpt><trkpt lat="45.293006781821425" lon="8.702541994433293"><ele>114.0</ele><time>2026-04-18T13:11:15.001Z</time></trkpt><trkpt lat="45.29303294779218" lon="8.70265063180762"><ele>114.0</ele><time>2026-04-18T13:11:16.002Z</time></trkpt><trkpt lat="45.29306373986407" lon="8.702777748063559"><ele>114.0</ele><time>2026-04-18T13:11:17.002Z</time></trkpt><trkpt lat="45.293093845178596" lon="8.702917271827054"><ele>114.0</ele><time>2026-04-18T13:11:18.002Z</time></trkpt><trkpt lat="45.293124389030204" lon="8.703066587589745"><ele>114.0</ele><time>2026-04-18T13:11:19.002Z</time></trkpt><trkpt lat="45.29315961322788" lon="8.703222234863079"><ele>114.2</ele><time>2026-04-18T13:11:20.002Z</time></trkpt><trkpt lat="45.29319031267329" lon="8.70338720642765"><ele>114.4</ele><time>2026-04-18T13:11:21.002Z</time></trkpt><trkpt lat="45.293224860279416" lon="8.703544612752017"><ele>114.6</ele><time>2026-04-18T13:11:22.002Z</time></trkpt><trkpt lat="45.293251455354174" lon="8.703693165338409"><ele>114.8</ele><time>2026-04-18T13:11:23.002Z</time></trkpt><trkpt lat="45.29328560716662" lon="8.703834398801336"><ele>115.0</ele><time>2026-04-18T13:11:24.002Z</time></trkpt><trkpt lat="45.29332038929016" lon="8.70397775162902"><ele>115.0</ele><time>2026-04-18T13:11:25.002Z</time></trkpt><trkpt lat="45.29334097086319" lon="8.70412875035233"><ele>115.0</ele><time>2026-04-18T13:11:26.002Z</time></trkpt><trkpt lat="45.2933727638036" lon="8.704269577587828"><ele>115.0</ele><time>2026-04-18T13:11:27.002Z</time></trkpt><trkpt lat="45.293414907133204" lon="8.704406203767391"><ele>115.0</ele><time>2026-04-18T13:11:28.002Z</time></trkpt><trkpt lat="45.293459710143445" lon="8.704540452466349"><ele>115.0</ele><time>2026-04-18T13:11:29.002Z</time></trkpt><trkpt lat="45.29351859150819" lon="8.704670336175106"><ele>115.16666666666667</ele><time>2026-04-18T13:11:30.002Z</time></trkpt><trkpt lat="45.29356118541434" lon="8.704800586693631"><ele>115.33333333333334</ele><time>2026-04-18T13:11:31.002Z</time></trkpt><trkpt lat="45.29359511171308" lon="8.704915215243807"><ele>115.5</ele><time>2026-04-18T13:11:32.002Z</time></trkpt><trkpt lat="45.29362348784144" lon="8.70501582796957"><ele>115.66666666666666</ele><time>2026-04-18T13:11:33.002Z</time></trkpt><trkpt lat="45.29365447820294" lon="8.705107363339222"><ele>115.83333333333333</ele><time>2026-04-18T13:11:34.002Z</time></trkpt><trkpt lat="45.29368297947135" lon="8.705191157518193"><ele>116.0</ele><time>2026-04-18T13:11:35.002Z</time></trkpt><trkpt lat="45.29373629597129" lon="8.70533364387764"><ele>116.0</ele><time>2026-04-18T13:11:37.002Z</time></trkpt><trkpt lat="45.29377382995639" lon="8.705462299386717"><ele>116.0</ele><time>2026-04-18T13:11:39.002Z</time></trkpt><trkpt lat="45.29379982098754" lon="8.70555576785177"><ele>116.0</ele><time>2026-04-18T13:11:41.002Z</time></trkpt><trkpt lat="45.29384208143263" lon="8.705652822424153"><ele>116.0</ele><time>2026-04-18T13:11:44.002Z</time></trkpt><trkpt lat="45.29387943335439" lon="8.705780566104256"><ele>116.0</ele><time>2026-04-18T13:12:03.003Z</time></trkpt><trkpt lat="45.293926415334745" lon="8.70591235654373"><ele>115.83333333333333</ele><time>2026-04-18T13:12:05.003Z</time></trkpt><trkpt lat="45.29396004065943" lon="8.705996383458386"><ele>115.66666666666666</ele><time>2026-04-18T13:12:06.003Z</time></trkpt><trkpt lat="45.29400022139544" lon="8.706084333702364"><ele>115.5</ele><time>2026-04-18T13:12:07.003Z</time></trkpt><trkpt lat="45.29404445479084" lon="8.706177813087043"><ele>115.33333333333334</ele><time>2026-04-18T13:12:08.003Z</time></trkpt><trkpt lat="45.29410043224998" lon="8.706281363738473"><ele>115.16666666666667</ele><time>2026-04-18T13:12:09.003Z</time></trkpt><trkpt lat="45.29415181011685" lon="8.70640150573116"><ele>115.0</ele><time>2026-04-18T13:12:10.003Z</time></trkpt><trkpt lat="45.29420417794319" lon="8.706540822192844"><ele>115.0</ele><time>2026-04-18T13:12:11.003Z</time></trkpt><trkpt lat="45.294260926745906" lon="8.706681413341755"><ele>115.0</ele><time>2026-04-18T13:12:12.003Z</time></trkpt><trkpt lat="45.2943132744622" lon="8.706834019025836"><ele>115.0</ele><time>2026-04-18T13:12:13.003Z</time></trkpt><trkpt lat="45.294357706638685" lon="8.706986243988625"><ele>115.0</ele><time>2026-04-18T13:12:13.998Z</time></trkpt><trkpt lat="45.294402596130006" lon="8.707135014058885"><ele>114.75</ele><time>2026-04-18T13:12:14.998Z</time></trkpt><trkpt lat="45.294451572618534" lon="8.707283468839806"><ele>114.5</ele><time>2026-04-18T13:12:15.998Z</time></trkpt><trkpt lat="45.29450025098838" lon="8.707425584404874"><ele>114.25</ele><time>2026-04-18T13:12:16.998Z</time></trkpt><trkpt lat="45.294552089387196" lon="8.707563994430224"><ele>114.0</ele><time>2026-04-18T13:12:17.998Z</time></trkpt><trkpt lat="45.29462053963246" lon="8.707692996098876"><ele>114.0</ele><time>2026-04-18T13:12:18.998Z</time></trkpt><trkpt lat="45.294671895473236" lon="8.707828839715317"><ele>114.0</ele><time>2026-04-18T13:12:19.999Z</time></trkpt><trkpt lat="45.29471741080383" lon="8.707946979869364"><ele>114.0</ele><time>2026-04-18T13:12:20.999Z</time></trkpt><trkpt lat="45.29476446621329" lon="8.708052594786949"><ele>114.0</ele><time>2026-04-18T13:12:21.999Z</time></trkpt><trkpt lat="45.29479956667688" lon="8.708156392396106"><ele>114.0</ele><time>2026-04-18T13:12:22.999Z</time></trkpt><trkpt lat="45.29484164042963" lon="8.708237057807429"><ele>114.0</ele><time>2026-04-18T13:12:23.999Z</time></trkpt><trkpt lat="45.29487088077921" lon="8.70832050158491"><ele>114.0</ele><time>2026-04-18T13:12:24.999Z</time></trkpt><trkpt lat="45.294933939078476" lon="8.708455818562351"><ele>114.0</ele><time>2026-04-18T13:12:26.999Z</time></trkpt><trkpt lat="45.295010419289824" lon="8.708617205673916"><ele>114.0</ele><time>2026-04-18T13:12:28.999Z</time></trkpt><trkpt lat="45.29506203206766" lon="8.708745739470029"><ele>114.0</ele><time>2026-04-18T13:12:29.999Z</time></trkpt><trkpt lat="45.29509997624001" lon="8.708896482468871"><ele>113.75</ele><time>2026-04-18T13:12:30.999Z</time></trkpt><trkpt lat="45.29515711588797" lon="8.709060154311997"><ele>113.5</ele><time>2026-04-18T13:12:31.999Z</time></trkpt><trkpt lat="45.295218802137654" lon="8.709227833127915"><ele>113.25</ele><time>2026-04-18T13:12:32.999Z</time></trkpt><trkpt lat="45.295297711063796" lon="8.709401746092745"><ele>113.0</ele><time>2026-04-18T13:12:34Z</time></trkpt><trkpt lat="45.29536517770376" lon="8.709603215187716"><ele>113.0</ele><time>2026-04-18T13:12:35Z</time></trkpt><trkpt lat="45.29543948099324" lon="8.709812291837714"><ele>113.0</ele><time>2026-04-18T13:12:36Z</time></trkpt><trkpt lat="45.29551433738151" lon="8.710023384495383"><ele>113.0</ele><time>2026-04-18T13:12:37Z</time></trkpt><trkpt lat="45.29559436678225" lon="8.710247380707308"><ele>112.66666666666666</ele><time>2026-04-18T13:12:38Z</time></trkpt><trkpt lat="45.2956759277022" lon="8.710478330780118"><ele>112.33333333333334</ele><time>2026-04-18T13:12:39Z</time></trkpt><trkpt lat="45.295760083804225" lon="8.710718122715694"><ele>112.0</ele><time>2026-04-18T13:12:40Z</time></trkpt><trkpt lat="45.29584862515654" lon="8.710964378894417"><ele>111.66666666666667</ele><time>2026-04-18T13:12:41Z</time></trkpt><trkpt lat="45.295936682843795" lon="8.71121218120701"><ele>111.33333333333334</ele><time>2026-04-18T13:12:42Z</time></trkpt><trkpt lat="45.29602106854995" lon="8.711443202981851"><ele>111.0</ele><time>2026-04-18T13:12:43Z</time></trkpt><trkpt lat="45.29609798564249" lon="8.711660027256942"><ele>111.0</ele><time>2026-04-18T13:12:44Z</time></trkpt><trkpt lat="45.296170161366376" lon="8.711871111501809"><ele>111.0</ele><time>2026-04-18T13:12:45Z</time></trkpt><trkpt lat="45.29624109414159" lon="8.712084190618887"><ele>111.0</ele><time>2026-04-18T13:12:46Z</time></trkpt><trkpt lat="45.2963113450072" lon="8.712296659238174"><ele>111.0</ele><time>2026-04-18T13:12:47Z</time></trkpt><trkpt lat="45.29638320463323" lon="8.712507754112721"><ele>111.0</ele><time>2026-04-18T13:12:48Z</time></trkpt><trkpt lat="45.29645551804989" lon="8.712716932346433"><ele>111.0</ele><time>2026-04-18T13:12:49Z</time></trkpt><trkpt lat="45.29652996899011" lon="8.712927668773727"><ele>111.66666666666666</ele><time>2026-04-18T13:12:50Z</time></trkpt><trkpt lat="45.29660557367517" lon="8.713136113624255"><ele>112.33333333333333</ele><time>2026-04-18T13:12:51Z</time></trkpt><trkpt lat="45.2966846880316" lon="8.713332261021288"><ele>113.0</ele><time>2026-04-18T13:12:52.001Z</time></trkpt><trkpt lat="45.296766536986546" lon="8.713510367578715"><ele>112.75</ele><time>2026-04-18T13:12:53.001Z</time></trkpt><trkpt lat="45.29684853124823" lon="8.713674001434741"><ele>112.5</ele><time>2026-04-18T13:12:54.001Z</time></trkpt><trkpt lat="45.29693856974483" lon="8.713807629286928"><ele>112.25</ele><time>2026-04-18T13:12:55.001Z</time></trkpt><trkpt lat="45.297041784138266" lon="8.713918681084508"><ele>112.0</ele><time>2026-04-18T13:12:56.001Z</time></trkpt><trkpt lat="45.297158360165696" lon="8.714016402249962"><ele>112.75</ele><time>2026-04-18T13:12:57.001Z</time></trkpt><trkpt lat="45.29729019835039" lon="8.714096099728508"><ele>113.5</ele><time>2026-04-18T13:12:58.001Z</time></trkpt><trkpt lat="45.29742720626491" lon="8.714168191019585"><ele>114.25</ele><time>2026-04-18T13:12:59.001Z</time></trkpt><trkpt lat="45.29755597754545" lon="8.714240950316901"><ele>115.0</ele><time>2026-04-18T13:13:00.001Z</time></trkpt><trkpt lat="45.29767106678476" lon="8.714307083436022"><ele>115.0</ele><time>2026-04-18T13:13:01.001Z</time></trkpt><trkpt lat="45.297775248440686" lon="8.714374984349991"><ele>115.0</ele><time>2026-04-18T13:13:02.001Z</time></trkpt><trkpt lat="45.29787455945347" lon="8.714437033710134"><ele>115.0</ele><time>2026-04-18T13:13:03.001Z</time></trkpt><trkpt lat="45.29798088117749" lon="8.714510420888507"><ele>115.0</ele><time>2026-04-18T13:13:04.001Z</time></trkpt><trkpt lat="45.298097120664536" lon="8.714595768150708"><ele>114.25</ele><time>2026-04-18T13:13:05.001Z</time></trkpt><trkpt lat="45.29821726631059" lon="8.714688263151091"><ele>113.5</ele><time>2026-04-18T13:13:06.001Z</time></trkpt><trkpt lat="45.298338786661404" lon="8.714791820168816"><ele>112.75</ele><time>2026-04-18T13:13:07.001Z</time></trkpt><trkpt lat="45.298464823237985" lon="8.714896720258134"><ele>112.0</ele><time>2026-04-18T13:13:08.001Z</time></trkpt><trkpt lat="45.29859775162113" lon="8.71500294938961"><ele>112.0</ele><time>2026-04-18T13:13:09.001Z</time></trkpt><trkpt lat="45.298732995220256" lon="8.715111738639612"><ele>112.0</ele><time>2026-04-18T13:13:10.001Z</time></trkpt><trkpt lat="45.298878667982294" lon="8.715232053253022"><ele>112.0</ele><time>2026-04-18T13:13:11.001Z</time></trkpt><trkpt lat="45.29902991360664" lon="8.715353829935827"><ele>112.0</ele><time>2026-04-18T13:13:12.001Z</time></trkpt><trkpt lat="45.2991830406763" lon="8.715481468194046"><ele>112.0</ele><time>2026-04-18T13:13:13.001Z</time></trkpt><trkpt lat="45.299333612381886" lon="8.715622918787245"><ele>112.0</ele><time>2026-04-18T13:13:14.001Z</time></trkpt><trkpt lat="45.29948148889506" lon="8.71577575367045"><ele>112.0</ele><time>2026-04-18T13:13:15.001Z</time></trkpt><trkpt lat="45.299626441319255" lon="8.715941261999422"><ele>112.0</ele><time>2026-04-18T13:13:16.001Z</time></trkpt><trkpt lat="45.299771941887194" lon="8.716111034985428"><ele>112.0</ele><time>2026-04-18T13:13:17.001Z</time></trkpt><trkpt lat="45.29992577643416" lon="8.716279067207457"><ele>112.33333333333334</ele><time>2026-04-18T13:13:18.001Z</time></trkpt><trkpt lat="45.30008398608767" lon="8.71644565585887"><ele>112.66666666666666</ele><time>2026-04-18T13:13:19.001Z</time></trkpt><trkpt lat="45.30024214105026" lon="8.716612925834786"><ele>113.0</ele><time>2026-04-18T13:13:20.002Z</time></trkpt><trkpt lat="45.300400732142656" lon="8.716786786178464"><ele>113.33333333333333</ele><time>2026-04-18T13:13:21.002Z</time></trkpt><trkpt lat="45.30056015425439" lon="8.716965858887312"><ele>113.66666666666666</ele><time>2026-04-18T13:13:22.002Z</time></trkpt><trkpt lat="45.300720220562994" lon="8.717142613998048"><ele>114.0</ele><time>2026-04-18T13:13:23.002Z</time></trkpt><trkpt lat="45.30088430170509" lon="8.717322900321442"><ele>114.0</ele><time>2026-04-18T13:13:24.002Z</time></trkpt><trkpt lat="45.30103884045898" lon="8.717499696895429"><ele>114.0</ele><time>2026-04-18T13:13:25.002Z</time></trkpt><trkpt lat="45.3011730962819" lon="8.71767342180937"><ele>114.0</ele><time>2026-04-18T13:13:26.002Z</time></trkpt><trkpt lat="45.30128275916767" lon="8.717856398561002"><ele>114.0</ele><time>2026-04-18T13:13:27.002Z</time></trkpt><trkpt lat="45.30137648821799" lon="8.71804788977001"><ele>114.0</ele><time>2026-04-18T13:13:28.002Z</time></trkpt><trkpt lat="45.30146056110426" lon="8.718250421623594"><ele>114.0</ele><time>2026-04-18T13:13:29.002Z</time></trkpt><trkpt lat="45.30153878385909" lon="8.718466622067952"><ele>113.33333333333334</ele><time>2026-04-18T13:13:30.002Z</time></trkpt><trkpt lat="45.30161572783854" lon="8.718686253759673"><ele>112.66666666666667</ele><time>2026-04-18T13:13:31.002Z</time></trkpt><trkpt lat="45.30169517110116" lon="8.718911416312562"><ele>112.0</ele><time>2026-04-18T13:13:32.002Z</time></trkpt><trkpt lat="45.3017744485481" lon="8.719146651459162"><ele>112.0</ele><time>2026-04-18T13:13:33.002Z</time></trkpt><trkpt lat="45.30185495514991" lon="8.719378165652298"><ele>112.0</ele><time>2026-04-18T13:13:34.002Z</time></trkpt><trkpt lat="45.30193649367367" lon="8.719615707711325"><ele>112.0</ele><time>2026-04-18T13:13:35.002Z</time></trkpt><trkpt lat="45.30202204123157" lon="8.719858510517671"><ele>112.33333333333334</ele><time>2026-04-18T13:13:36.002Z</time></trkpt><trkpt lat="45.30210099008631" lon="8.720083116862545"><ele>112.66666666666666</ele><time>2026-04-18T13:13:37.002Z</time></trkpt><trkpt lat="45.30219588106896" lon="8.720334324884444"><ele>113.0</ele><time>2026-04-18T13:13:38.002Z</time></trkpt><trkpt lat="45.30230585435444" lon="8.720554998498553"><ele>113.66666666666666</ele><time>2026-04-18T13:13:39.002Z</time></trkpt><trkpt lat="45.3024389319279" lon="8.720756324920597"><ele>114.33333333333334</ele><time>2026-04-18T13:13:40.002Z</time></trkpt><trkpt lat="45.302588841960244" lon="8.720936311499884"><ele>115.0</ele><time>2026-04-18T13:13:41.002Z</time></trkpt><trkpt lat="45.30274241907754" lon="8.721109483127355"><ele>115.0</ele><time>2026-04-18T13:13:42.002Z</time></trkpt><trkpt lat="45.302891017800526" lon="8.721267518631672"><ele>115.0</ele><time>2026-04-18T13:13:43.002Z</time></trkpt><trkpt lat="45.303029568117" lon="8.721415744798682"><ele>115.0</ele><time>2026-04-18T13:13:44.002Z</time></trkpt><trkpt lat="45.30315138521562" lon="8.72157060593108"><ele>115.0</ele><time>2026-04-18T13:13:45.002Z</time></trkpt><trkpt lat="45.30326524670788" lon="8.72175143531529"><ele>115.0</ele><time>2026-04-18T13:13:46.002Z</time></trkpt><trkpt lat="45.30337044703926" lon="8.72194794795605"><ele>115.0</ele><time>2026-04-18T13:13:47.002Z</time></trkpt><trkpt lat="45.30347060017237" lon="8.722157923375592"><ele>113.66666666666667</ele><time>2026-04-18T13:13:48.002Z</time></trkpt><trkpt lat="45.303561990863685" lon="8.722383343765097"><ele>112.33333333333334</ele><time>2026-04-18T13:13:49.002Z</time></trkpt><trkpt lat="45.30364028983116" lon="8.72261603782948"><ele>111.0</ele><time>2026-04-18T13:13:50.002Z</time></trkpt><trkpt lat="45.303703402629246" lon="8.722859367318177"><ele>110.66666666666666</ele><time>2026-04-18T13:13:51.002Z</time></trkpt><trkpt lat="45.303759065667876" lon="8.723118986827668"><ele>110.33333333333333</ele><time>2026-04-18T13:13:52.003Z</time></trkpt><trkpt lat="45.30381013492466" lon="8.723377460648317"><ele>110.0</ele><time>2026-04-18T13:13:53.003Z</time></trkpt><trkpt lat="45.303869071702735" lon="8.723637212815579"><ele>110.66666666666666</ele><time>2026-04-18T13:13:54.003Z</time></trkpt><trkpt lat="45.30393170948674" lon="8.723895785157309"><ele>111.33333333333334</ele><time>2026-04-18T13:13:55.003Z</time></trkpt><trkpt lat="45.303995081028205" lon="8.724164805077073"><ele>112.0</ele><time>2026-04-18T13:13:56.003Z</time></trkpt><trkpt lat="45.304054291753594" lon="8.72442972827808"><ele>112.0</ele><time>2026-04-18T13:13:57.003Z</time></trkpt><trkpt lat="45.304111998561005" lon="8.724692284694463"><ele>112.0</ele><time>2026-04-18T13:13:58.003Z</time></trkpt><trkpt lat="45.30417208587386" lon="8.72495746452911"><ele>112.0</ele><time>2026-04-18T13:13:59.003Z</time></trkpt><trkpt lat="45.30422872473377" lon="8.725223916135436"><ele>112.0</ele><time>2026-04-18T13:14:00.003Z</time></trkpt><trkpt lat="45.30428020858299" lon="8.725487161207633"><ele>112.0</ele><time>2026-04-18T13:14:01.003Z</time></trkpt><trkpt lat="45.304325067494716" lon="8.725757012106305"><ele>112.0</ele><time>2026-04-18T13:14:02.003Z</time></trkpt><trkpt lat="45.30436210189602" lon="8.726027007468515"><ele>112.33333333333334</ele><time>2026-04-18T13:14:03.003Z</time></trkpt><trkpt lat="45.30439568661952" lon="8.726300420314708"><ele>112.66666666666666</ele><time>2026-04-18T13:14:04.003Z</time></trkpt><trkpt lat="45.30442665760488" lon="8.726569611102542"><ele>113.0</ele><time>2026-04-18T13:14:05.003Z</time></trkpt><trkpt lat="45.304456889668195" lon="8.726841721049931"><ele>112.66666666666666</ele><time>2026-04-18T13:14:06.003Z</time></trkpt><trkpt lat="45.30448129983403" lon="8.727108760406674"><ele>112.33333333333334</ele><time>2026-04-18T13:14:07.003Z</time></trkpt><trkpt lat="45.304501923222375" lon="8.72738309932295"><ele>112.0</ele><time>2026-04-18T13:14:08.003Z</time></trkpt><trkpt lat="45.304514034861214" lon="8.727654538689839"><ele>111.66666666666667</ele><time>2026-04-18T13:14:09.003Z</time></trkpt><trkpt lat="45.304524634116895" lon="8.727927529528637"><ele>111.33333333333334</ele><time>2026-04-18T13:14:10.003Z</time></trkpt><trkpt lat="45.30453133308749" lon="8.728199211405913"><ele>111.0</ele><time>2026-04-18T13:14:11.003Z</time></trkpt><trkpt lat="45.304540150990775" lon="8.728471039506488"><ele>111.0</ele><time>2026-04-18T13:14:12.003Z</time></trkpt><trkpt lat="45.304551898348315" lon="8.728743014653691"><ele>111.0</ele><time>2026-04-18T13:14:13.003Z</time></trkpt><trkpt lat="45.304563312420605" lon="8.729016063179785"><ele>111.0</ele><time>2026-04-18T13:14:14.003Z</time></trkpt><trkpt lat="45.30457455484879" lon="8.72928872104143"><ele>111.66666666666666</ele><time>2026-04-18T13:14:15.003Z</time></trkpt><trkpt lat="45.304580494236745" lon="8.729556829749713"><ele>112.33333333333333</ele><time>2026-04-18T13:14:16.003Z</time></trkpt><trkpt lat="45.304588068702095" lon="8.72982586034957"><ele>113.0</ele><time>2026-04-18T13:14:17.003Z</time></trkpt><trkpt lat="45.30459850951012" lon="8.73009678502134"><ele>113.0</ele><time>2026-04-18T13:14:18.003Z</time></trkpt><trkpt lat="45.304611553624376" lon="8.730365241984911"><ele>113.0</ele><time>2026-04-18T13:14:19.003Z</time></trkpt><trkpt lat="45.304622817365434" lon="8.73062996354644"><ele>113.0</ele><time>2026-04-18T13:14:19.998Z</time></trkpt><trkpt lat="45.30463359392176" lon="8.730895332728707"><ele>112.33333333333333</ele><time>2026-04-18T13:14:20.998Z</time></trkpt><trkpt lat="45.30464756599071" lon="8.73116373854307"><ele>111.66666666666666</ele><time>2026-04-18T13:14:21.998Z</time></trkpt><trkpt lat="45.30466252018277" lon="8.731430577156802"><ele>111.0</ele><time>2026-04-18T13:14:22.998Z</time></trkpt><trkpt lat="45.304674389226655" lon="8.73169859393378"><ele>110.66666666666666</ele><time>2026-04-18T13:14:23.998Z</time></trkpt><trkpt lat="45.304684671925706" lon="8.731959536719762"><ele>110.33333333333333</ele><time>2026-04-18T13:14:24.998Z</time></trkpt><trkpt lat="45.304696177991154" lon="8.732225751014036"><ele>110.0</ele><time>2026-04-18T13:14:25.998Z</time></trkpt><trkpt lat="45.30471177539951" lon="8.73249875276898"><ele>110.33333333333333</ele><time>2026-04-18T13:14:26.998Z</time></trkpt><trkpt lat="45.30473136703259" lon="8.732763334417927"><ele>110.66666666666666</ele><time>2026-04-18T13:14:27.999Z</time></trkpt><trkpt lat="45.304750327953926" lon="8.733031075576793"><ele>111.0</ele><time>2026-04-18T13:14:28.999Z</time></trkpt><trkpt lat="45.304769362218515" lon="8.733297171467921"><ele>111.0</ele><time>2026-04-18T13:14:29.999Z</time></trkpt><trkpt lat="45.30478848576044" lon="8.733566397843227"><ele>111.0</ele><time>2026-04-18T13:14:30.999Z</time></trkpt><trkpt lat="45.3048063236259" lon="8.733844645263359"><ele>111.0</ele><time>2026-04-18T13:14:31.999Z</time></trkpt><trkpt lat="45.304820857526074" lon="8.734111769241176"><ele>111.0</ele><time>2026-04-18T13:14:32.999Z</time></trkpt><trkpt lat="45.304834559865505" lon="8.734384552931543"><ele>111.0</ele><time>2026-04-18T13:14:33.999Z</time></trkpt><trkpt lat="45.30485070725407" lon="8.734661103529621"><ele>111.0</ele><time>2026-04-18T13:14:34.999Z</time></trkpt><trkpt lat="45.30486606323726" lon="8.734929772764016"><ele>111.33333333333334</ele><time>2026-04-18T13:14:35.999Z</time></trkpt><trkpt lat="45.30488222575445" lon="8.735181611231235"><ele>111.66666666666667</ele><time>2026-04-18T13:14:36.999Z</time></trkpt><trkpt lat="45.30490039413119" lon="8.735422431485963"><ele>112.0</ele><time>2026-04-18T13:14:37.999Z</time></trkpt><trkpt lat="45.30491461300667" lon="8.735646228655629"><ele>112.0</ele><time>2026-04-18T13:14:38.999Z</time></trkpt><trkpt lat="45.304926544521734" lon="8.735857736970374"><ele>112.0</ele><time>2026-04-18T13:14:39.999Z</time></trkpt><trkpt lat="45.30493660080642" lon="8.736059574851584"><ele>112.0</ele><time>2026-04-18T13:14:41Z</time></trkpt><trkpt lat="45.304951025321806" lon="8.736265426217784"><ele>112.0</ele><time>2026-04-18T13:14:42Z</time></trkpt><trkpt lat="45.304965164090156" lon="8.736473232452026"><ele>112.0</ele><time>2026-04-18T13:14:43Z</time></trkpt><trkpt lat="45.30497767057059" lon="8.736670460646643"><ele>112.0</ele><time>2026-04-18T13:14:44Z</time></trkpt><trkpt lat="45.304988225174526" lon="8.73685365393912"><ele>112.0</ele><time>2026-04-18T13:14:45Z</time></trkpt><trkpt lat="45.30499630072528" lon="8.737018044263312"><ele>112.0</ele><time>2026-04-18T13:14:46Z</time></trkpt><trkpt lat="45.305007689755364" lon="8.737160674443526"><ele>112.8</ele><time>2026-04-18T13:14:47Z</time></trkpt><trkpt lat="45.30501807925478" lon="8.737277209982018"><ele>113.6</ele><time>2026-04-18T13:14:48Z</time></trkpt><trkpt lat="45.305014340381085" lon="8.737418772721"><ele>114.39999999999999</ele><time>2026-04-18T13:14:50Z</time></trkpt><trkpt lat="45.30514524538089" lon="8.737459485218011"><ele>115.19999999999999</ele><time>2026-04-18T13:14:51Z</time></trkpt><trkpt lat="45.305228573452005" lon="8.737510928181504"><ele>116.0</ele><time>2026-04-18T13:14:52Z</time></trkpt><trkpt lat="45.305317240246545" lon="8.73759029662434"><ele>116.0</ele><time>2026-04-18T13:14:53Z</time></trkpt><trkpt lat="45.305409141173406" lon="8.73768904541659"><ele>116.0</ele><time>2026-04-18T13:14:54Z</time></trkpt><trkpt lat="45.30551225080891" lon="8.737800276663688"><ele>116.0</ele><time>2026-04-18T13:14:55Z</time></trkpt><trkpt lat="45.30562442602666" lon="8.73791228302138"><ele>116.0</ele><time>2026-04-18T13:14:56Z</time></trkpt><trkpt lat="45.30574515036007" lon="8.738024118898167"><ele>115.33333333333333</ele><time>2026-04-18T13:14:57Z</time></trkpt><trkpt lat="45.305871526303875" lon="8.738143031764224"><ele>114.66666666666666</ele><time>2026-04-18T13:14:58Z</time></trkpt><trkpt lat="45.30599643915355" lon="8.738270017175239"><ele>114.0</ele><time>2026-04-18T13:14:59Z</time></trkpt><trkpt lat="45.30611417865953" lon="8.738398840301533"><ele>114.0</ele><time>2026-04-18T13:15:00.001Z</time></trkpt><trkpt lat="45.30622342979666" lon="8.738518978841723"><ele>114.0</ele><time>2026-04-18T13:15:01.001Z</time></trkpt><trkpt lat="45.30632682227312" lon="8.738626142444229"><ele>114.0</ele><time>2026-04-18T13:15:02.001Z</time></trkpt><trkpt lat="45.306425107445655" lon="8.738723866547373"><ele>114.0</ele><time>2026-04-18T13:15:03.001Z</time></trkpt><trkpt lat="45.306526308123686" lon="8.738825407914875"><ele>113.75</ele><time>2026-04-18T13:15:04.001Z</time></trkpt><trkpt lat="45.30662514724011" lon="8.738926869026288"><ele>113.5</ele><time>2026-04-18T13:15:05.001Z</time></trkpt><trkpt lat="45.30672273634753" lon="8.739027861939784"><ele>113.25</ele><time>2026-04-18T13:15:06.001Z</time></trkpt><trkpt lat="45.30681369157421" lon="8.739136152619414"><ele>113.0</ele><time>2026-04-18T13:15:07.001Z</time></trkpt><trkpt lat="45.30690431055789" lon="8.739245377643254"><ele>113.0</ele><time>2026-04-18T13:15:08.001Z</time></trkpt><trkpt lat="45.30700122150709" lon="8.73934060009809"><ele>113.0</ele><time>2026-04-18T13:15:09.001Z</time></trkpt><trkpt lat="45.30710312020875" lon="8.739441421103828"><ele>113.0</ele><time>2026-04-18T13:15:10.001Z</time></trkpt><trkpt lat="45.3072092654054" lon="8.739546771559246"><ele>113.0</ele><time>2026-04-18T13:15:11.001Z</time></trkpt><trkpt lat="45.307313354127515" lon="8.739657075473936"><ele>113.25</ele><time>2026-04-18T13:15:12.001Z</time></trkpt><trkpt lat="45.307419915171" lon="8.739763032370488"><ele>113.5</ele><time>2026-04-18T13:15:13.001Z</time></trkpt><trkpt lat="45.30753074192605" lon="8.73986081474264"><ele>113.75</ele><time>2026-04-18T13:15:14.001Z</time></trkpt><trkpt lat="45.30764371335825" lon="8.739954115328015"><ele>114.0</ele><time>2026-04-18T13:15:15.001Z</time></trkpt><trkpt lat="45.30773984201353" lon="8.740038592864888"><ele>114.0</ele><time>2026-04-18T13:15:16.001Z</time></trkpt><trkpt lat="45.30782471687991" lon="8.740124192326917"><ele>114.0</ele><time>2026-04-18T13:15:17.001Z</time></trkpt><trkpt lat="45.30791227718299" lon="8.74019434963687"><ele>114.0</ele><time>2026-04-18T13:15:18.001Z</time></trkpt><trkpt lat="45.30798840609253" lon="8.740265283848524"><ele>114.0</ele><time>2026-04-18T13:15:19.001Z</time></trkpt><trkpt lat="45.30805927546529" lon="8.740338113048956"><ele>114.0</ele><time>2026-04-18T13:15:20.001Z</time></trkpt><trkpt lat="45.3081238141837" lon="8.740414844038394"><ele>114.0</ele><time>2026-04-18T13:15:21.001Z</time></trkpt><trkpt lat="45.30820017079501" lon="8.74051454007013"><ele>114.0</ele><time>2026-04-18T13:15:22.001Z</time></trkpt><trkpt lat="45.308266271948774" lon="8.74062859866887"><ele>114.0</ele><time>2026-04-18T13:15:23.001Z</time></trkpt><trkpt lat="45.308333446970565" lon="8.7407649925304"><ele>114.0</ele><time>2026-04-18T13:15:24.001Z</time></trkpt><trkpt lat="45.3084052469216" lon="8.740906225076062"><ele>114.0</ele><time>2026-04-18T13:15:25.001Z</time></trkpt><trkpt lat="45.30847253818522" lon="8.741031768661957"><ele>114.0</ele><time>2026-04-18T13:15:26.001Z</time></trkpt><trkpt lat="45.30852415754654" lon="8.741151215528877"><ele>114.0</ele><time>2026-04-18T13:15:27.001Z</time></trkpt><trkpt lat="45.30859168385953" lon="8.74128297643727"><ele>114.0</ele><time>2026-04-18T13:15:28.002Z</time></trkpt><trkpt lat="45.30865554739758" lon="8.741422083909264"><ele>114.0</ele><time>2026-04-18T13:15:29.002Z</time></trkpt><trkpt lat="45.30873250091462" lon="8.741543787731079"><ele>114.0</ele><time>2026-04-18T13:15:30.002Z</time></trkpt><trkpt lat="45.30881390926694" lon="8.741659159236184"><ele>114.0</ele><time>2026-04-18T13:15:31.002Z</time></trkpt><trkpt lat="45.30889481586238" lon="8.741767178120403"><ele>114.0</ele><time>2026-04-18T13:15:32.002Z</time></trkpt><trkpt lat="45.308985253794056" lon="8.74186307186352"><ele>114.0</ele><time>2026-04-18T13:15:33.002Z</time></trkpt><trkpt lat="45.30908120051516" lon="8.741951115753738"><ele>114.0</ele><time>2026-04-18T13:15:34.002Z</time></trkpt><trkpt lat="45.309177404199815" lon="8.742039192390347"><ele>114.6</ele><time>2026-04-18T13:15:35.002Z</time></trkpt><trkpt lat="45.309263721619566" lon="8.742125431676989"><ele>115.2</ele><time>2026-04-18T13:15:36.002Z</time></trkpt><trkpt lat="45.30934947419659" lon="8.742213905386562"><ele>115.79999999999998</ele><time>2026-04-18T13:15:37.002Z</time></trkpt><trkpt lat="45.309437506420196" lon="8.742291627013593"><ele>116.39999999999999</ele><time>2026-04-18T13:15:38.002Z</time></trkpt><trkpt lat="45.30951332233747" lon="8.742341101843587"><ele>117.0</ele><time>2026-04-18T13:15:39.002Z</time></trkpt><trkpt lat="45.30959226714095" lon="8.742380020933435"><ele>117.0</ele><time>2026-04-18T13:15:40.002Z</time></trkpt><trkpt lat="45.30966035116267" lon="8.74240286289791"><ele>117.0</ele><time>2026-04-18T13:15:41.002Z</time></trkpt><trkpt lat="45.30972849030499" lon="8.742439596321299"><ele>117.0</ele><time>2026-04-18T13:15:42.002Z</time></trkpt><trkpt lat="45.30983543263299" lon="8.742496010500112"><ele>117.0</ele><time>2026-04-18T13:15:44.002Z</time></trkpt><trkpt lat="45.309846722127844" lon="8.742614548931492"><ele>117.0</ele><time>2026-04-18T13:15:46.002Z</time></trkpt><trkpt lat="45.30984189458251" lon="8.742756912392055"><ele>117.0</ele><time>2026-04-18T13:15:48.002Z</time></trkpt><trkpt lat="45.309709875596766" lon="8.742907871703125"><ele>117.16666666666667</ele><time>2026-04-18T13:15:50.002Z</time></trkpt><trkpt lat="45.309644898764105" lon="8.742969882793153"><ele>117.33333333333334</ele><time>2026-04-18T13:15:51.002Z</time></trkpt><trkpt lat="45.30956908364205" lon="8.743031502059214"><ele>117.5</ele><time>2026-04-18T13:15:52.002Z</time></trkpt><trkpt lat="45.309491800535824" lon="8.743092394563218"><ele>117.66666666666667</ele><time>2026-04-18T13:15:53.002Z</time></trkpt><trkpt lat="45.309423269656534" lon="8.743160560207176"><ele>117.83333333333334</ele><time>2026-04-18T13:15:54.002Z</time></trkpt><trkpt lat="45.30936791843776" lon="8.743220955053328"><ele>118.0</ele><time>2026-04-18T13:15:55.002Z</time></trkpt><trkpt lat="45.30932423495609" lon="8.74328898391655"><ele>118.00000000000001</ele><time>2026-04-18T13:15:56.002Z</time></trkpt><trkpt lat="45.30931950721006" lon="8.743399291127345"><ele>118.0</ele><time>2026-04-18T13:15:57.002Z</time></trkpt><trkpt lat="45.309306399951566" lon="8.743526365578477"><ele>118.0</ele><time>2026-04-18T13:15:58.002Z</time></trkpt><trkpt lat="45.30928254197386" lon="8.743655457624008"><ele>118.0</ele><time>2026-04-18T13:15:59.002Z</time></trkpt><trkpt lat="45.30927186829076" lon="8.743778902170055"><ele>118.00000000000001</ele><time>2026-04-18T13:16:00.002Z</time></trkpt><trkpt lat="45.30925659867756" lon="8.743913560869007"><ele>118.0</ele><time>2026-04-18T13:16:01.003Z</time></trkpt><trkpt lat="45.30923371056348" lon="8.74404797169297"><ele>117.83333333333334</ele><time>2026-04-18T13:16:02.003Z</time></trkpt><trkpt lat="45.30921478604195" lon="8.744165940272078"><ele>117.66666666666667</ele><time>2026-04-18T13:16:03.003Z</time></trkpt><trkpt lat="45.30920021769371" lon="8.744264046740954"><ele>117.5</ele><time>2026-04-18T13:16:04.003Z</time></trkpt><trkpt lat="45.30916713858628" lon="8.74435388205901"><ele>117.33333333333334</ele><time>2026-04-18T13:16:05.003Z</time></trkpt><trkpt lat="45.309124719429015" lon="8.744440861616722"><ele>117.16666666666667</ele><time>2026-04-18T13:16:06.003Z</time></trkpt><trkpt lat="45.30910684544843" lon="8.7445339658557"><ele>117.0</ele><time>2026-04-18T13:16:07.003Z</time></trkpt><trkpt lat="45.30902515460534" lon="8.744569750947058"><ele>116.66666666666667</ele><time>2026-04-18T13:16:08.003Z</time></trkpt><trkpt lat="45.30896649411874" lon="8.74464043356181"><ele>116.33333333333334</ele><time>2026-04-18T13:16:10.003Z</time></trkpt><trkpt lat="45.30901166384063" lon="8.74478972078665"><ele>116.0</ele><time>2026-04-18T13:16:13.003Z</time></trkpt><trkpt lat="45.308939448075265" lon="8.744841446707598"><ele>115.66666666666667</ele><time>2026-04-18T13:16:14.003Z</time></trkpt><trkpt lat="45.30894388911226" lon="8.744957098359581"><ele>115.33333333333334</ele><time>2026-04-18T13:16:15.003Z</time></trkpt><trkpt lat="45.308945991811015" lon="8.745086911477827"><ele>115.0</ele><time>2026-04-18T13:16:16.003Z</time></trkpt><trkpt lat="45.30894290791906" lon="8.74522608278018"><ele>115.0</ele><time>2026-04-18T13:16:17.003Z</time></trkpt><trkpt lat="45.30895263114367" lon="8.745378793730094"><ele>115.0</ele><time>2026-04-18T13:16:18.003Z</time></trkpt><trkpt lat="45.30896730375855" lon="8.745532316989479"><ele>115.0</ele><time>2026-04-18T13:16:19.003Z</time></trkpt><trkpt lat="45.30897951351304" lon="8.745684078731905"><ele>115.0</ele><time>2026-04-18T13:16:20.003Z</time></trkpt><trkpt lat="45.30899965357082" lon="8.745826999616165"><ele>115.0</ele><time>2026-04-18T13:16:21.003Z</time></trkpt><trkpt lat="45.30901763411733" lon="8.745965528883968"><ele>115.2</ele><time>2026-04-18T13:16:22.003Z</time></trkpt><trkpt lat="45.30904179776649" lon="8.74609980942041"><ele>115.4</ele><time>2026-04-18T13:16:23.003Z</time></trkpt><trkpt lat="45.309078122420374" lon="8.746227005428612"><ele>115.6</ele><time>2026-04-18T13:16:24.003Z</time></trkpt><trkpt lat="45.30913507880807" lon="8.74635196172642"><ele>115.8</ele><time>2026-04-18T13:16:25.003Z</time></trkpt><trkpt lat="45.30920043255368" lon="8.746479527112454"><ele>116.0</ele><time>2026-04-18T13:16:25.997Z</time></trkpt><trkpt lat="45.309268577054425" lon="8.746600118009644"><ele>116.0</ele><time>2026-04-18T13:16:26.998Z</time></trkpt><trkpt lat="45.30934790869275" lon="8.746738041598057"><ele>116.0</ele><time>2026-04-18T13:16:27.998Z</time></trkpt><trkpt lat="45.309433869545686" lon="8.746876385925463"><ele>116.0</ele><time>2026-04-18T13:16:28.998Z</time></trkpt><trkpt lat="45.30950719081038" lon="8.747009675911155"><ele>116.0</ele><time>2026-04-18T13:16:29.998Z</time></trkpt><trkpt lat="45.309565648723655" lon="8.747134177108048"><ele>116.19999999999999</ele><time>2026-04-18T13:16:30.998Z</time></trkpt><trkpt lat="45.309617946606394" lon="8.747252020107968"><ele>116.39999999999999</ele><time>2026-04-18T13:16:31.998Z</time></trkpt><trkpt lat="45.309669187302696" lon="8.747369476550858"><ele>116.6</ele><time>2026-04-18T13:16:32.998Z</time></trkpt><trkpt lat="45.30972101266791" lon="8.747498161899864"><ele>116.8</ele><time>2026-04-18T13:16:33.998Z</time></trkpt><trkpt lat="45.3097638712124" lon="8.747638006346177"><ele>117.0</ele><time>2026-04-18T13:16:34.998Z</time></trkpt><trkpt lat="45.309800499696635" lon="8.747778964444983"><ele>116.5</ele><time>2026-04-18T13:16:35.998Z</time></trkpt><trkpt lat="45.309834632140465" lon="8.747911933290807"><ele>116.0</ele><time>2026-04-18T13:16:36.999Z</time></trkpt><trkpt lat="45.309864456111306" lon="8.748035049261018"><ele>115.5</ele><time>2026-04-18T13:16:37.999Z</time></trkpt><trkpt lat="45.309892248126154" lon="8.748150652359152"><ele>115.0</ele><time>2026-04-18T13:16:38.999Z</time></trkpt><trkpt lat="45.30991201355539" lon="8.748253612667709"><ele>114.5</ele><time>2026-04-18T13:16:39.999Z</time></trkpt><trkpt lat="45.309927510844865" lon="8.748353668768434"><ele>114.0</ele><time>2026-04-18T13:16:40.999Z</time></trkpt><trkpt lat="45.309938591328105" lon="8.748443291629734"><ele>114.33333333333333</ele><time>2026-04-18T13:16:41.999Z</time></trkpt><trkpt lat="45.30994570643807" lon="8.7485750132958"><ele>114.66666666666666</ele><time>2026-04-18T13:16:43.999Z</time></trkpt><trkpt lat="45.30995102630303" lon="8.748665925954406"><ele>115.0</ele><time>2026-04-18T13:16:48Z</time></trkpt><trkpt lat="45.309959817189615" lon="8.748790819347073"><ele>115.33333333333333</ele><time>2026-04-18T13:17:23.001Z</time></trkpt><trkpt lat="45.30997436315722" lon="8.748964913311733"><ele>115.66666666666666</ele><time>2026-04-18T13:17:25.001Z</time></trkpt><trkpt lat="45.30998074480076" lon="8.749070724348545"><ele>116.0</ele><time>2026-04-18T13:17:26.001Z</time></trkpt><trkpt lat="45.30997414931396" lon="8.749192742390504"><ele>116.0</ele><time>2026-04-18T13:17:27.001Z</time></trkpt><trkpt lat="45.30997026725979" lon="8.74933163262125"><ele>116.0</ele><time>2026-04-18T13:17:28.001Z</time></trkpt><trkpt lat="45.30996839426644" lon="8.749482965625466"><ele>116.0</ele><time>2026-04-18T13:17:29.001Z</time></trkpt><trkpt lat="45.30996745899466" lon="8.749637743978784"><ele>116.0</ele><time>2026-04-18T13:17:30.001Z</time></trkpt><trkpt lat="45.309966602997505" lon="8.749805162608526"><ele>116.0</ele><time>2026-04-18T13:17:31.002Z</time></trkpt><trkpt lat="45.30996441588404" lon="8.749970417018034"><ele>115.75</ele><time>2026-04-18T13:17:32.002Z</time></trkpt><trkpt lat="45.309975844817885" lon="8.750142274434934"><ele>115.5</ele><time>2026-04-18T13:17:33.002Z</time></trkpt><trkpt lat="45.31001628902793" lon="8.750317901376787"><ele>115.25</ele><time>2026-04-18T13:17:34.002Z</time></trkpt><trkpt lat="45.310056313683106" lon="8.750496581422775"><ele>115.0</ele><time>2026-04-18T13:17:35.002Z</time></trkpt><trkpt lat="45.31009945683827" lon="8.750683834836511"><ele>115.0</ele><time>2026-04-18T13:17:36.002Z</time></trkpt><trkpt lat="45.310139789698184" lon="8.750874432618165"><ele>115.0</ele><time>2026-04-18T13:17:37.002Z</time></trkpt><trkpt lat="45.31016980988573" lon="8.751073688292513"><ele>115.0</ele><time>2026-04-18T13:17:38.002Z</time></trkpt><trkpt lat="45.310186023291635" lon="8.751278677525608"><ele>115.0</ele><time>2026-04-18T13:17:39.002Z</time></trkpt><trkpt lat="45.3101959475773" lon="8.75148747090436"><ele>115.0</ele><time>2026-04-18T13:17:40.002Z</time></trkpt><trkpt lat="45.31021722267245" lon="8.751683008595377"><ele>115.0</ele><time>2026-04-18T13:17:41.002Z</time></trkpt><trkpt lat="45.31023941979564" lon="8.751871565536984"><ele>115.0</ele><time>2026-04-18T13:17:42.002Z</time></trkpt><trkpt lat="45.31025454333558" lon="8.752056596535633"><ele>115.0</ele><time>2026-04-18T13:17:43.002Z</time></trkpt><trkpt lat="45.31026616748383" lon="8.752236203853837"><ele>115.0</ele><time>2026-04-18T13:17:44.002Z</time></trkpt><trkpt lat="45.31027391620972" lon="8.752420128215256"><ele>115.0</ele><time>2026-04-18T13:17:45.002Z</time></trkpt><trkpt lat="45.310282196180445" lon="8.752598898262905"><ele>115.0</ele><time>2026-04-18T13:17:46.002Z</time></trkpt><trkpt lat="45.310296199479254" lon="8.752757940553066"><ele>115.0</ele><time>2026-04-18T13:17:47.002Z</time></trkpt><trkpt lat="45.31031478957273" lon="8.752898477198984"><ele>115.0</ele><time>2026-04-18T13:17:48.002Z</time></trkpt><trkpt lat="45.31032965016448" lon="8.753038365905786"><ele>115.0</ele><time>2026-04-18T13:17:49.002Z</time></trkpt><trkpt lat="45.310342127109855" lon="8.753172481833099"><ele>115.0</ele><time>2026-04-18T13:17:50.002Z</time></trkpt><trkpt lat="45.31035637033907" lon="8.75332218679022"><ele>115.0</ele><time>2026-04-18T13:17:51.002Z</time></trkpt><trkpt lat="45.310381328763285" lon="8.753480789132919"><ele>115.0</ele><time>2026-04-18T13:17:52.002Z</time></trkpt><trkpt lat="45.31041115085239" lon="8.753662351847787"><ele>115.0</ele><time>2026-04-18T13:17:53.002Z</time></trkpt><trkpt lat="45.310437103046446" lon="8.753852529475205"><ele>115.0</ele><time>2026-04-18T13:17:54.002Z</time></trkpt><trkpt lat="45.31045376440936" lon="8.754041658807896"><ele>115.0</ele><time>2026-04-18T13:17:55.002Z</time></trkpt><trkpt lat="45.31045519210393" lon="8.754213571560559"><ele>115.0</ele><time>2026-04-18T13:17:56.002Z</time></trkpt><trkpt lat="45.31044527342896" lon="8.754368687459545"><ele>114.8</ele><time>2026-04-18T13:17:57.002Z</time></trkpt><trkpt lat="45.310433703902724" lon="8.75451457890874"><ele>114.6</ele><time>2026-04-18T13:17:58.002Z</time></trkpt><trkpt lat="45.31042642556243" lon="8.754645794619446"><ele>114.4</ele><time>2026-04-18T13:17:59.002Z</time></trkpt><trkpt lat="45.31042314435227" lon="8.754775017316494"><ele>114.2</ele><time>2026-04-18T13:18:00.002Z</time></trkpt><trkpt lat="45.31041778636007" lon="8.75489705837969"><ele>114.0</ele><time>2026-04-18T13:18:01.002Z</time></trkpt><trkpt lat="45.31040795484528" lon="8.755028066718248"><ele>114.0</ele><time>2026-04-18T13:18:02.002Z</time></trkpt><trkpt lat="45.31040231565891" lon="8.755167292325924"><ele>114.0</ele><time>2026-04-18T13:18:03.003Z</time></trkpt><trkpt lat="45.310404253858486" lon="8.75530843473029"><ele>114.0</ele><time>2026-04-18T13:18:04.003Z</time></trkpt><trkpt lat="45.31040847849757" lon="8.755469634680125"><ele>114.0</ele><time>2026-04-18T13:18:05.003Z</time></trkpt><trkpt lat="45.310400791982005" lon="8.755636929820145"><ele>114.0</ele><time>2026-04-18T13:18:06.003Z</time></trkpt><trkpt lat="45.31037702942625" lon="8.755817153261832"><ele>114.0</ele><time>2026-04-18T13:18:07.003Z</time></trkpt><trkpt lat="45.310342913835875" lon="8.75600731145831"><ele>114.0</ele><time>2026-04-18T13:18:08.003Z</time></trkpt><trkpt lat="45.31030083771904" lon="8.756216749657465"><ele>114.0</ele><time>2026-04-18T13:18:09.003Z</time></trkpt><trkpt lat="45.31026263375534" lon="8.756433500933825"><ele>114.0</ele><time>2026-04-18T13:18:10.003Z</time></trkpt><trkpt lat="45.31022309398879" lon="8.756655034939474"><ele>114.33333333333334</ele><time>2026-04-18T13:18:11.003Z</time></trkpt><trkpt lat="45.31018281774495" lon="8.756888117442607"><ele>114.66666666666667</ele><time>2026-04-18T13:18:12.003Z</time></trkpt><trkpt lat="45.31014263979474" lon="8.757136509232568"><ele>115.0</ele><time>2026-04-18T13:18:13.003Z</time></trkpt><trkpt lat="45.31010473920937" lon="8.757385631516469"><ele>115.0</ele><time>2026-04-18T13:18:14.003Z</time></trkpt><trkpt lat="45.310067759037686" lon="8.757650432472746"><ele>115.0</ele><time>2026-04-18T13:18:15.003Z</time></trkpt><trkpt lat="45.310023569306466" lon="8.757919360768605"><ele>115.0</ele><time>2026-04-18T13:18:16.003Z</time></trkpt><trkpt lat="45.30997555663525" lon="8.75819559770841"><ele>114.66666666666667</ele><time>2026-04-18T13:18:17.003Z</time></trkpt><trkpt lat="45.30992246962688" lon="8.758476834044039"><ele>114.33333333333334</ele><time>2026-04-18T13:18:18.003Z</time></trkpt><trkpt lat="45.309868252603536" lon="8.758762174712757"><ele>114.0</ele><time>2026-04-18T13:18:19.003Z</time></trkpt><trkpt lat="45.30981514205578" lon="8.75904893304099"><ele>113.0</ele><time>2026-04-18T13:18:20.003Z</time></trkpt><trkpt lat="45.309764408068254" lon="8.759343627407072"><ele>112.0</ele><time>2026-04-18T13:18:21.003Z</time></trkpt><trkpt lat="45.3097143602302" lon="8.759644427374118"><ele>111.0</ele><time>2026-04-18T13:18:22.003Z</time></trkpt><trkpt lat="45.30966276712505" lon="8.759944790192446"><ele>110.66666666666666</ele><time>2026-04-18T13:18:23.003Z</time></trkpt><trkpt lat="45.30960865775328" lon="8.760249179173444"><ele>110.33333333333333</ele><time>2026-04-18T13:18:24.003Z</time></trkpt><trkpt lat="45.30955060746919" lon="8.760552821303717"><ele>110.0</ele><time>2026-04-18T13:18:25.003Z</time></trkpt><trkpt lat="45.309495415046726" lon="8.76083847918417"><ele>110.33333333333333</ele><time>2026-04-18T13:18:26.003Z</time></trkpt><trkpt lat="45.30943824548047" lon="8.76109826118763"><ele>110.66666666666666</ele><time>2026-04-18T13:18:27.003Z</time></trkpt><trkpt lat="45.30938102919159" lon="8.761345494135455"><ele>111.0</ele><time>2026-04-18T13:18:28.003Z</time></trkpt><trkpt lat="45.309321305467435" lon="8.761575599661938"><ele>111.0</ele><time>2026-04-18T13:18:29.003Z</time></trkpt><trkpt lat="45.309259232724955" lon="8.761797752186183"><ele>111.0</ele><time>2026-04-18T13:18:30.003Z</time></trkpt><trkpt lat="45.309194014155224" lon="8.762027559148185"><ele>111.0</ele><time>2026-04-18T13:18:31.003Z</time></trkpt><trkpt lat="45.3091291351108" lon="8.762261796573384"><ele>111.66666666666666</ele><time>2026-04-18T13:18:31.999Z</time></trkpt><trkpt lat="45.309066586695444" lon="8.762498300220999"><ele>112.33333333333333</ele><time>2026-04-18T13:18:32.999Z</time></trkpt><trkpt lat="45.30900662633955" lon="8.762739003278107"><ele>113.0</ele><time>2026-04-18T13:18:33.999Z</time></trkpt><trkpt lat="45.30894704972077" lon="8.762986227836771"><ele>112.33333333333333</ele><time>2026-04-18T13:18:34.999Z</time></trkpt><trkpt lat="45.308887864451485" lon="8.763236982675444"><ele>111.66666666666666</ele><time>2026-04-18T13:18:35.999Z</time></trkpt><trkpt lat="45.30883035352184" lon="8.763486713569474"><ele>111.0</ele><time>2026-04-18T13:18:36.999Z</time></trkpt><trkpt lat="45.30877169659653" lon="8.76374396142088"><ele>111.0</ele><time>2026-04-18T13:18:37.999Z</time></trkpt><trkpt lat="45.308712785284996" lon="8.763998929336715"><ele>111.0</ele><time>2026-04-18T13:18:38.999Z</time></trkpt><trkpt lat="45.308651969711185" lon="8.764263497620398"><ele>111.0</ele><time>2026-04-18T13:18:39.999Z</time></trkpt><trkpt lat="45.308597097990784" lon="8.764506117748798"><ele>110.66666666666666</ele><time>2026-04-18T13:18:40.999Z</time></trkpt><trkpt lat="45.30854005771625" lon="8.764755783671614"><ele>110.33333333333333</ele><time>2026-04-18T13:18:41.999Z</time></trkpt><trkpt lat="45.30847704940016" lon="8.76501151507257"><ele>110.0</ele><time>2026-04-18T13:18:42.999Z</time></trkpt><trkpt lat="45.30840780273222" lon="8.765269829098532"><ele>110.0</ele><time>2026-04-18T13:18:43.999Z</time></trkpt><trkpt lat="45.308337206306845" lon="8.765526629635593"><ele>110.0</ele><time>2026-04-18T13:18:44.999Z</time></trkpt><trkpt lat="45.308262415603224" lon="8.765777578603425"><ele>110.0</ele><time>2026-04-18T13:18:45.999Z</time></trkpt><trkpt lat="45.30818820734815" lon="8.766036566165655"><ele>110.0</ele><time>2026-04-18T13:18:46.999Z</time></trkpt><trkpt lat="45.30811448537691" lon="8.766289689199773"><ele>110.0</ele><time>2026-04-18T13:18:47.999Z</time></trkpt><trkpt lat="45.30804572759281" lon="8.766517873542146"><ele>110.0</ele><time>2026-04-18T13:18:48.999Z</time></trkpt><trkpt lat="45.30797993874314" lon="8.766735082104361"><ele>110.33333333333333</ele><time>2026-04-18T13:18:50Z</time></trkpt><trkpt lat="45.307914439689014" lon="8.766930672304177"><ele>110.66666666666666</ele><time>2026-04-18T13:18:51Z</time></trkpt><trkpt lat="45.30784826723769" lon="8.767133912150568"><ele>111.0</ele><time>2026-04-18T13:18:52Z</time></trkpt><trkpt lat="45.307789338748506" lon="8.76734771417135"><ele>111.0</ele><time>2026-04-18T13:18:53Z</time></trkpt><trkpt lat="45.307733858480134" lon="8.767574679609275"><ele>111.0</ele><time>2026-04-18T13:18:54Z</time></trkpt><trkpt lat="45.3076872797413" lon="8.76781291820122"><ele>111.0</ele><time>2026-04-18T13:18:55Z</time></trkpt><trkpt lat="45.30764398432787" lon="8.768057993080921"><ele>111.33333333333334</ele><time>2026-04-18T13:18:56Z</time></trkpt><trkpt lat="45.30760812404662" lon="8.768308603069947"><ele>111.66666666666667</ele><time>2026-04-18T13:18:57Z</time></trkpt><trkpt lat="45.307576773438086" lon="8.768563615395104"><ele>112.0</ele><time>2026-04-18T13:18:58Z</time></trkpt><trkpt lat="45.307551058953024" lon="8.768815709735522"><ele>111.33333333333334</ele><time>2026-04-18T13:18:59Z</time></trkpt><trkpt lat="45.3075302402646" lon="8.76906197838135"><ele>110.66666666666666</ele><time>2026-04-18T13:19:00Z</time></trkpt><trkpt lat="45.30751387646287" lon="8.769296369661603"><ele>110.0</ele><time>2026-04-18T13:19:01Z</time></trkpt><trkpt lat="45.30750728509885" lon="8.769517554356721"><ele>110.0</ele><time>2026-04-18T13:19:02Z</time></trkpt><trkpt lat="45.30750377418086" lon="8.769728854522208"><ele>110.0</ele><time>2026-04-18T13:19:03Z</time></trkpt><trkpt lat="45.30750042555085" lon="8.769948561537962"><ele>110.0</ele><time>2026-04-18T13:19:04Z</time></trkpt><trkpt lat="45.307506042920416" lon="8.770172673036155"><ele>109.66666666666666</ele><time>2026-04-18T13:19:05Z</time></trkpt><trkpt lat="45.307520496344054" lon="8.770410082247627"><ele>109.33333333333334</ele><time>2026-04-18T13:19:06Z</time></trkpt><trkpt lat="45.307546453259896" lon="8.770654872910278"><ele>109.0</ele><time>2026-04-18T13:19:07Z</time></trkpt><trkpt lat="45.30756690699697" lon="8.770900399712264"><ele>109.0</ele><time>2026-04-18T13:19:08Z</time></trkpt><trkpt lat="45.30758250828698" lon="8.771157664297581"><ele>109.0</ele><time>2026-04-18T13:19:09Z</time></trkpt><trkpt lat="45.307582554893784" lon="8.771429311494"><ele>109.0</ele><time>2026-04-18T13:19:10Z</time></trkpt><trkpt lat="45.30757079604121" lon="8.771694696546005"><ele>110.0</ele><time>2026-04-18T13:19:11Z</time></trkpt><trkpt lat="45.307562590003606" lon="8.771962794960773"><ele>111.0</ele><time>2026-04-18T13:19:12.001Z</time></trkpt><trkpt lat="45.3075600685962" lon="8.772220779378056"><ele>112.0</ele><time>2026-04-18T13:19:13.001Z</time></trkpt><trkpt lat="45.30756294841717" lon="8.772469203888077"><ele>112.33333333333334</ele><time>2026-04-18T13:19:14.001Z</time></trkpt><trkpt lat="45.30756447721491" lon="8.77271766261906"><ele>112.66666666666666</ele><time>2026-04-18T13:19:15.001Z</time></trkpt><trkpt lat="45.3075666048786" lon="8.772971279614021"><ele>113.0</ele><time>2026-04-18T13:19:16.001Z</time></trkpt><trkpt lat="45.307567865842444" lon="8.77323470382583"><ele>113.0</ele><time>2026-04-18T13:19:17.001Z</time></trkpt><trkpt lat="45.307567965610446" lon="8.77349623483826"><ele>113.0</ele><time>2026-04-18T13:19:18.001Z</time></trkpt><trkpt lat="45.30756615744494" lon="8.773757189571155"><ele>113.0</ele><time>2026-04-18T13:19:19.001Z</time></trkpt><trkpt lat="45.307565097240534" lon="8.774021265400275"><ele>112.66666666666666</ele><time>2026-04-18T13:19:20.001Z</time></trkpt><trkpt lat="45.307566653106306" lon="8.774285493286312"><ele>112.33333333333334</ele><time>2026-04-18T13:19:21.001Z</time></trkpt><trkpt lat="45.30756842075222" lon="8.774532902002917"><ele>112.0</ele><time>2026-04-18T13:19:22.001Z</time></trkpt><trkpt lat="45.307569184435714" lon="8.774773141856066"><ele>111.33333333333334</ele><time>2026-04-18T13:19:23.001Z</time></trkpt><trkpt lat="45.3075727638361" lon="8.774999678233089"><ele>110.66666666666666</ele><time>2026-04-18T13:19:24.001Z</time></trkpt><trkpt lat="45.30757483069646" lon="8.77523158617963"><ele>110.0</ele><time>2026-04-18T13:19:25.001Z</time></trkpt><trkpt lat="45.30757834751807" lon="8.775462712197056"><ele>110.0</ele><time>2026-04-18T13:19:26.001Z</time></trkpt><trkpt lat="45.30758239289226" lon="8.77569922637525"><ele>110.0</ele><time>2026-04-18T13:19:27.001Z</time></trkpt><trkpt lat="45.307587909300715" lon="8.775939845272084"><ele>110.0</ele><time>2026-04-18T13:19:28.001Z</time></trkpt><trkpt lat="45.30759699851123" lon="8.776181595939168"><ele>110.33333333333333</ele><time>2026-04-18T13:19:29.001Z</time></trkpt><trkpt lat="45.30760636144972" lon="8.776433456962161"><ele>110.66666666666666</ele><time>2026-04-18T13:19:30.001Z</time></trkpt><trkpt lat="45.30761426193382" lon="8.77668015581811"><ele>111.0</ele><time>2026-04-18T13:19:31.001Z</time></trkpt><trkpt lat="45.307624266855335" lon="8.776947741150211"><ele>111.0</ele><time>2026-04-18T13:19:32.001Z</time></trkpt><trkpt lat="45.30762436358619" lon="8.777174839180708"><ele>111.0</ele><time>2026-04-18T13:19:33.001Z</time></trkpt><trkpt lat="45.3076220093506" lon="8.77739241937439"><ele>111.0</ele><time>2026-04-18T13:19:34.001Z</time></trkpt><trkpt lat="45.30761736528297" lon="8.777600274014974"><ele>111.0</ele><time>2026-04-18T13:19:35.001Z</time></trkpt><trkpt lat="45.30761081496518" lon="8.777805708482484"><ele>111.0</ele><time>2026-04-18T13:19:36.001Z</time></trkpt><trkpt lat="45.307598496523454" lon="8.778018458478435"><ele>111.0</ele><time>2026-04-18T13:19:37.001Z</time></trkpt><trkpt lat="45.307582939899746" lon="8.778202325369373"><ele>111.0</ele><time>2026-04-18T13:19:38.001Z</time></trkpt><trkpt lat="45.30756248948316" lon="8.778393411684807"><ele>112.0</ele><time>2026-04-18T13:19:39.001Z</time></trkpt><trkpt lat="45.30754300267991" lon="8.778580203901972"><ele>113.0</ele><time>2026-04-18T13:19:40.001Z</time></trkpt><trkpt lat="45.30752132595507" lon="8.77875825949689"><ele>114.0</ele><time>2026-04-18T13:19:41.001Z</time></trkpt><trkpt lat="45.30749118637318" lon="8.778919490596692"><ele>115.0</ele><time>2026-04-18T13:19:42.002Z</time></trkpt><trkpt lat="45.30745828256684" lon="8.779076976511458"><ele>115.00000000000001</ele><time>2026-04-18T13:19:43.002Z</time></trkpt><trkpt lat="45.30742466398547" lon="8.779223042847674"><ele>115.0</ele><time>2026-04-18T13:19:44.002Z</time></trkpt><trkpt lat="45.30739368663871" lon="8.779355801597204"><ele>115.0</ele><time>2026-04-18T13:19:45.002Z</time></trkpt><trkpt lat="45.30737094745883" lon="8.779447020477281"><ele>115.0</ele><time>2026-04-18T13:19:46.002Z</time></trkpt><trkpt lat="45.30734877151949" lon="8.779541415305182"><ele>115.00000000000001</ele><time>2026-04-18T13:19:48.002Z</time></trkpt><trkpt lat="45.30734280154861" lon="8.779659747203217"><ele>115.0</ele><time>2026-04-18T13:19:51.002Z</time></trkpt><trkpt lat="45.307537782438565" lon="8.779823746395406"><ele>114.6</ele><time>2026-04-18T13:19:52.002Z</time></trkpt><trkpt lat="45.30758265584345" lon="8.779920133581967"><ele>114.2</ele><time>2026-04-18T13:19:53.002Z</time></trkpt><trkpt lat="45.307632839560775" lon="8.78002379361657"><ele>113.80000000000001</ele><time>2026-04-18T13:19:54.002Z</time></trkpt><trkpt lat="45.30769217998458" lon="8.780135531525938"><ele>113.4</ele><time>2026-04-18T13:19:55.002Z</time></trkpt><trkpt lat="45.30775645807518" lon="8.780251226004273"><ele>113.0</ele><time>2026-04-18T13:19:56.002Z</time></trkpt><trkpt lat="45.30783101301907" lon="8.780367983205316"><ele>112.60000000000001</ele><time>2026-04-18T13:19:57.002Z</time></trkpt><trkpt lat="45.307906909044604" lon="8.780483683997872"><ele>112.20000000000002</ele><time>2026-04-18T13:19:58.002Z</time></trkpt><trkpt lat="45.307982600771425" lon="8.78060462479793"><ele>111.8</ele><time>2026-04-18T13:19:59.002Z</time></trkpt><trkpt lat="45.30804482234126" lon="8.780719218814026"><ele>111.4</ele><time>2026-04-18T13:20:00.002Z</time></trkpt><trkpt lat="45.30809848871057" lon="8.780829400219655"><ele>111.0</ele><time>2026-04-18T13:20:01.002Z</time></trkpt><trkpt lat="45.30815519263151" lon="8.780954423074592"><ele>111.0</ele><time>2026-04-18T13:20:02.002Z</time></trkpt><trkpt lat="45.308211184867766" lon="8.781086292488446"><ele>111.0</ele><time>2026-04-18T13:20:03.002Z</time></trkpt><trkpt lat="45.308268502791115" lon="8.781206180940462"><ele>111.0</ele><time>2026-04-18T13:20:04.002Z</time></trkpt><trkpt lat="45.308321023062284" lon="8.781328136983744"><ele>111.0</ele><time>2026-04-18T13:20:05.002Z</time></trkpt><trkpt lat="45.30836131605352" lon="8.781442247897738"><ele>111.0</ele><time>2026-04-18T13:20:06.002Z</time></trkpt><trkpt lat="45.308404191589396" lon="8.781578707132986"><ele>111.0</ele><time>2026-04-18T13:20:07.002Z</time></trkpt><trkpt lat="45.30844165635869" lon="8.781713471835493"><ele>111.0</ele><time>2026-04-18T13:20:08.002Z</time></trkpt><trkpt lat="45.30849132894955" lon="8.781859816403642"><ele>111.0</ele><time>2026-04-18T13:20:09.002Z</time></trkpt><trkpt lat="45.30853764160016" lon="8.78199381484599"><ele>111.0</ele><time>2026-04-18T13:20:10.002Z</time></trkpt><trkpt lat="45.30857383370422" lon="8.78214173146618"><ele>111.0</ele><time>2026-04-18T13:20:11.002Z</time></trkpt><trkpt lat="45.3086022020424" lon="8.782316350379407"><ele>110.75</ele><time>2026-04-18T13:20:12.002Z</time></trkpt><trkpt lat="45.308627945725945" lon="8.7824703500524"><ele>110.5</ele><time>2026-04-18T13:20:13.002Z</time></trkpt><trkpt lat="45.308658619447925" lon="8.782637252560354"><ele>110.25</ele><time>2026-04-18T13:20:14.002Z</time></trkpt><trkpt lat="45.308693847320825" lon="8.782800279851097"><ele>110.0</ele><time>2026-04-18T13:20:15.003Z</time></trkpt><trkpt lat="45.30873196143202" lon="8.782963761105778"><ele>110.0</ele><time>2026-04-18T13:20:16.003Z</time></trkpt><trkpt lat="45.30877213026483" lon="8.78312265087264"><ele>110.0</ele><time>2026-04-18T13:20:17.003Z</time></trkpt><trkpt lat="45.308805603025135" lon="8.783278419163537"><ele>110.0</ele><time>2026-04-18T13:20:18.003Z</time></trkpt><trkpt lat="45.30883884569689" lon="8.783445814523418"><ele>110.0</ele><time>2026-04-18T13:20:19.003Z</time></trkpt><trkpt lat="45.30887245219813" lon="8.783612375800175"><ele>110.2</ele><time>2026-04-18T13:20:20.003Z</time></trkpt><trkpt lat="45.30890981958254" lon="8.78377373810091"><ele>110.4</ele><time>2026-04-18T13:20:21.003Z</time></trkpt><trkpt lat="45.30894534256099" lon="8.783935053344482"><ele>110.6</ele><time>2026-04-18T13:20:22.003Z</time></trkpt><trkpt lat="45.308981108667275" lon="8.784087682404031"><ele>110.8</ele><time>2026-04-18T13:20:23.003Z</time></trkpt><trkpt lat="45.30901299979076" lon="8.784218824485116"><ele>111.0</ele><time>2026-04-18T13:20:24.003Z</time></trkpt><trkpt lat="45.309040701276686" lon="8.784338826695333"><ele>111.0</ele><time>2026-04-18T13:20:25.003Z</time></trkpt><trkpt lat="45.30906166731353" lon="8.784452805107955"><ele>111.0</ele><time>2026-04-18T13:20:26.003Z</time></trkpt><trkpt lat="45.309085632622704" lon="8.784573414575293"><ele>111.0</ele><time>2026-04-18T13:20:27.003Z</time></trkpt><trkpt lat="45.30911281635408" lon="8.784704311737958"><ele>111.0</ele><time>2026-04-18T13:20:28.003Z</time></trkpt><trkpt lat="45.30914604472048" lon="8.784833376860826"><ele>111.0</ele><time>2026-04-18T13:20:29.003Z</time></trkpt><trkpt lat="45.30919079829426" lon="8.784968520111669"><ele>111.0</ele><time>2026-04-18T13:20:30.003Z</time></trkpt><trkpt lat="45.309233183021746" lon="8.785112456193062"><ele>111.0</ele><time>2026-04-18T13:20:31.003Z</time></trkpt><trkpt lat="45.30926846645781" lon="8.78526299496638"><ele>111.0</ele><time>2026-04-18T13:20:32.003Z</time></trkpt><trkpt lat="45.30929748680838" lon="8.785394830007036"><ele>111.0</ele><time>2026-04-18T13:20:33.003Z</time></trkpt><trkpt lat="45.30932263796805" lon="8.785531844034773"><ele>111.0</ele><time>2026-04-18T13:20:34.003Z</time></trkpt><trkpt lat="45.30934528713996" lon="8.785638149234533"><ele>110.83333333333333</ele><time>2026-04-18T13:20:35.003Z</time></trkpt><trkpt lat="45.309367784744936" lon="8.785751068606368"><ele>110.66666666666666</ele><time>2026-04-18T13:20:36.003Z</time></trkpt><trkpt lat="45.30939603538103" lon="8.785880557950088"><ele>110.5</ele><time>2026-04-18T13:20:37.003Z</time></trkpt><trkpt lat="45.309422233381824" lon="8.786018914242966"><ele>110.33333333333333</ele><time>2026-04-18T13:20:37.997Z</time></trkpt><trkpt lat="45.30944454029425" lon="8.786154140457855"><ele>110.16666666666666</ele><time>2026-04-18T13:20:38.997Z</time></trkpt><trkpt lat="45.30946790212499" lon="8.786244383322444"><ele>110.0</ele><time>2026-04-18T13:20:39.997Z</time></trkpt><trkpt lat="45.309494514591556" lon="8.786329386044214"><ele>109.99999999999999</ele><time>2026-04-18T13:20:40.997Z</time></trkpt><trkpt lat="45.30952688398422" lon="8.78643370860286"><ele>110.0</ele><time>2026-04-18T13:20:41.998Z</time></trkpt><trkpt lat="45.30956816281279" lon="8.786548978239365"><ele>110.0</ele><time>2026-04-18T13:20:42.998Z</time></trkpt><trkpt lat="45.30961846076053" lon="8.786667074724141"><ele>110.0</ele><time>2026-04-18T13:20:43.998Z</time></trkpt><trkpt lat="45.30966365139883" lon="8.786761839337847"><ele>109.99999999999999</ele><time>2026-04-18T13:20:44.998Z</time></trkpt><trkpt lat="45.30970040534978" lon="8.786844600028692"><ele>110.0</ele><time>2026-04-18T13:20:45.998Z</time></trkpt><trkpt lat="45.30976353744668" lon="8.786991675934336"><ele>109.99999999999999</ele><time>2026-04-18T13:20:47.998Z</time></trkpt><trkpt lat="45.30979893333865" lon="8.787109704869776"><ele>110.0</ele><time>2026-04-18T13:20:49.998Z</time></trkpt><trkpt lat="45.30985109881966" lon="8.787203503650089"><ele>110.0</ele><time>2026-04-18T13:20:51.999Z</time></trkpt><trkpt lat="45.30990188160833" lon="8.78726002153515"><ele>110.0</ele><time>2026-04-18T13:20:52.999Z</time></trkpt><trkpt lat="45.30995763627863" lon="8.78733240856974"><ele>109.99999999999999</ele><time>2026-04-18T13:20:53.999Z</time></trkpt><trkpt lat="45.310013107968324" lon="8.787436551614757"><ele>110.0</ele><time>2026-04-18T13:20:54.999Z</time></trkpt><trkpt lat="45.31006066232751" lon="8.787548744308731"><ele>110.0</ele><time>2026-04-18T13:20:55.999Z</time></trkpt><trkpt lat="45.31015747154786" lon="8.78758026880071"><ele>110.0</ele><time>2026-04-18T13:20:56.999Z</time></trkpt><trkpt lat="45.31019640685795" lon="8.787656494105384"><ele>110.0</ele><time>2026-04-18T13:20:57.999Z</time></trkpt><trkpt lat="45.31028920666188" lon="8.78777004057865"><ele>110.0</ele><time>2026-04-18T13:20:59.999Z</time></trkpt><trkpt lat="45.31034607962277" lon="8.787858177333232"><ele>110.0</ele><time>2026-04-18T13:21:00.999Z</time></trkpt><trkpt lat="45.310403581047" lon="8.787965769748894"><ele>109.8</ele><time>2026-04-18T13:21:01.999Z</time></trkpt><trkpt lat="45.31046727286495" lon="8.788081276338124"><ele>109.6</ele><time>2026-04-18T13:21:03Z</time></trkpt><trkpt lat="45.31053392127534" lon="8.788196916305978"><ele>109.4</ele><time>2026-04-18T13:21:04Z</time></trkpt><trkpt lat="45.31060577344205" lon="8.788325147756712"><ele>109.2</ele><time>2026-04-18T13:21:05Z</time></trkpt><trkpt lat="45.31067937498751" lon="8.788452624858548"><ele>109.0</ele><time>2026-04-18T13:21:06Z</time></trkpt><trkpt lat="45.31075335741238" lon="8.788577478827227"><ele>108.75</ele><time>2026-04-18T13:21:07Z</time></trkpt><trkpt lat="45.31082966475477" lon="8.788703926764688"><ele>108.5</ele><time>2026-04-18T13:21:08Z</time></trkpt><trkpt lat="45.31090487950394" lon="8.78883867451849"><ele>108.25</ele><time>2026-04-18T13:21:09Z</time></trkpt><trkpt lat="45.31097753084653" lon="8.788971374068216"><ele>108.0</ele><time>2026-04-18T13:21:10Z</time></trkpt><trkpt lat="45.31105580463579" lon="8.789113734131258"><ele>108.0</ele><time>2026-04-18T13:21:11Z</time></trkpt><trkpt lat="45.311129595351964" lon="8.789256850813235"><ele>108.0</ele><time>2026-04-18T13:21:12Z</time></trkpt><trkpt lat="45.31120491626971" lon="8.789400355829287"><ele>108.0</ele><time>2026-04-18T13:21:13Z</time></trkpt><trkpt lat="45.3112832683046" lon="8.789540801745845"><ele>108.0</ele><time>2026-04-18T13:21:14Z</time></trkpt><trkpt lat="45.311360801811574" lon="8.789677924941774"><ele>107.75</ele><time>2026-04-18T13:21:15Z</time></trkpt><trkpt lat="45.31143643769647" lon="8.789817230278265"><ele>107.5</ele><time>2026-04-18T13:21:16Z</time></trkpt><trkpt lat="45.311516166165966" lon="8.789958167969008"><ele>107.25</ele><time>2026-04-18T13:21:17Z</time></trkpt><trkpt lat="45.31159941645784" lon="8.790101788022772"><ele>107.0</ele><time>2026-04-18T13:21:18Z</time></trkpt><trkpt lat="45.31167955640566" lon="8.790241599733296"><ele>107.0</ele><time>2026-04-18T13:21:19Z</time></trkpt><trkpt lat="45.31176140348555" lon="8.790394540297726"><ele>107.0</ele><time>2026-04-18T13:21:20.001Z</time></trkpt><trkpt lat="45.31184289216781" lon="8.790542509627013"><ele>107.0</ele><time>2026-04-18T13:21:21.001Z</time></trkpt><trkpt lat="45.311926713889164" lon="8.790694781926899"><ele>107.0</ele><time>2026-04-18T13:21:22.001Z</time></trkpt><trkpt lat="45.312001644532465" lon="8.790859654258586"><ele>107.25</ele><time>2026-04-18T13:21:23.001Z</time></trkpt><trkpt lat="45.31208570909272" lon="8.791012117361555"><ele>107.5</ele><time>2026-04-18T13:21:24.001Z</time></trkpt><trkpt lat="45.31217510952147" lon="8.791154775093572"><ele>107.75</ele><time>2026-04-18T13:21:25.001Z</time></trkpt><trkpt lat="45.312268560189935" lon="8.791295745591327"><ele>108.0</ele><time>2026-04-18T13:21:26.001Z</time></trkpt><trkpt lat="45.31235612595509" lon="8.791450225744201"><ele>107.5</ele><time>2026-04-18T13:21:27.001Z</time></trkpt><trkpt lat="45.31244348649379" lon="8.791608561587287"><ele>107.0</ele><time>2026-04-18T13:21:28.001Z</time></trkpt><trkpt lat="45.312534439724296" lon="8.791767071001207"><ele>106.5</ele><time>2026-04-18T13:21:29.001Z</time></trkpt><trkpt lat="45.31262069436267" lon="8.791933072643737"><ele>106.0</ele><time>2026-04-18T13:21:30.001Z</time></trkpt><trkpt lat="45.312709103514806" lon="8.79208885846369"><ele>106.0</ele><time>2026-04-18T13:21:31.001Z</time></trkpt><trkpt lat="45.31279536651899" lon="8.792251992833192"><ele>106.0</ele><time>2026-04-18T13:21:32.001Z</time></trkpt><trkpt lat="45.312886280403234" lon="8.792414494105318"><ele>106.0</ele><time>2026-04-18T13:21:33.001Z</time></trkpt><trkpt lat="45.31297650297276" lon="8.79257565083766"><ele>106.0</ele><time>2026-04-18T13:21:34.001Z</time></trkpt><trkpt lat="45.313066192232924" lon="8.792736742385229"><ele>106.0</ele><time>2026-04-18T13:21:35.001Z</time></trkpt><trkpt lat="45.313157399558605" lon="8.792897415553833"><ele>106.0</ele><time>2026-04-18T13:21:36.001Z</time></trkpt><trkpt lat="45.313249235736386" lon="8.79305838800109"><ele>106.0</ele><time>2026-04-18T13:21:37.001Z</time></trkpt><trkpt lat="45.3133367964105" lon="8.793214243571535"><ele>106.0</ele><time>2026-04-18T13:21:38.001Z</time></trkpt><trkpt lat="45.31342440045916" lon="8.79337530985485"><ele>106.0</ele><time>2026-04-18T13:21:39.001Z</time></trkpt><trkpt lat="45.31351455619371" lon="8.793535214624542"><ele>106.0</ele><time>2026-04-18T13:21:40.001Z</time></trkpt><trkpt lat="45.313606021111426" lon="8.79369756188721"><ele>106.0</ele><time>2026-04-18T13:21:41.001Z</time></trkpt><trkpt lat="45.313698406592756" lon="8.79385679700803"><ele>106.0</ele><time>2026-04-18T13:21:42.001Z</time></trkpt><trkpt lat="45.313788263976335" lon="8.794016891657154"><ele>106.0</ele><time>2026-04-18T13:21:43.001Z</time></trkpt><trkpt lat="45.313875024885824" lon="8.794169862851158"><ele>106.0</ele><time>2026-04-18T13:21:44.001Z</time></trkpt><trkpt lat="45.313961303607755" lon="8.794324305827919"><ele>106.0</ele><time>2026-04-18T13:21:45.001Z</time></trkpt><trkpt lat="45.31405082763662" lon="8.794482549887231"><ele>106.0</ele><time>2026-04-18T13:21:46.001Z</time></trkpt><trkpt lat="45.31413815935675" lon="8.79463894411387"><ele>106.0</ele><time>2026-04-18T13:21:47.002Z</time></trkpt><trkpt lat="45.31422945845671" lon="8.794799446265916"><ele>106.0</ele><time>2026-04-18T13:21:48.002Z</time></trkpt><trkpt lat="45.31432254583972" lon="8.794958014024573"><ele>106.0</ele><time>2026-04-18T13:21:49.002Z</time></trkpt><trkpt lat="45.314414749527444" lon="8.795114598834639"><ele>106.0</ele><time>2026-04-18T13:21:50.002Z</time></trkpt><trkpt lat="45.314506327624386" lon="8.795273774692678"><ele>106.25</ele><time>2026-04-18T13:21:51.002Z</time></trkpt><trkpt lat="45.31459387645264" lon="8.79542615850511"><ele>106.5</ele><time>2026-04-18T13:21:52.002Z</time></trkpt><trkpt lat="45.31467322402023" lon="8.795561122734004"><ele>106.75</ele><time>2026-04-18T13:21:53.002Z</time></trkpt><trkpt lat="45.314747051441834" lon="8.795683800953276"><ele>107.0</ele><time>2026-04-18T13:21:54.002Z</time></trkpt><trkpt lat="45.314814840972836" lon="8.795796745306982"><ele>106.99999999999999</ele><time>2026-04-18T13:21:55.002Z</time></trkpt><trkpt lat="45.314883336923934" lon="8.795913606286788"><ele>107.0</ele><time>2026-04-18T13:21:56.002Z</time></trkpt><trkpt lat="45.3149506820569" lon="8.796028593510895"><ele>107.0</ele><time>2026-04-18T13:21:57.002Z</time></trkpt><trkpt lat="45.31500861108872" lon="8.796120904408005"><ele>107.0</ele><time>2026-04-18T13:21:58.002Z</time></trkpt><trkpt lat="45.315053714443856" lon="8.796193819009952"><ele>106.99999999999999</ele><time>2026-04-18T13:21:59.002Z</time></trkpt><trkpt lat="45.31508506915436" lon="8.796275245436295"><ele>107.0</ele><time>2026-04-18T13:22:00.002Z</time></trkpt><trkpt lat="45.31507759079218" lon="8.796368621940111"><ele>107.19999999999999</ele><time>2026-04-18T13:22:01.002Z</time></trkpt><trkpt lat="45.31504948283515" lon="8.796477115323693"><ele>107.39999999999999</ele><time>2026-04-18T13:22:02.002Z</time></trkpt><trkpt lat="45.31500789341648" lon="8.796573425492898"><ele>107.60000000000001</ele><time>2026-04-18T13:22:03.002Z</time></trkpt><trkpt lat="45.314947339399176" lon="8.796644662174957"><ele>107.80000000000001</ele><time>2026-04-18T13:22:04.002Z</time></trkpt><trkpt lat="45.31485760628826" lon="8.796707570413746"><ele>108.0</ele><time>2026-04-18T13:22:05.002Z</time></trkpt><trkpt lat="45.31476032017148" lon="8.79679082505911"><ele>107.5</ele><time>2026-04-18T13:22:06.002Z</time></trkpt><trkpt lat="45.31465888312243" lon="8.796894790948091"><ele>107.0</ele><time>2026-04-18T13:22:07.002Z</time></trkpt><trkpt lat="45.31454752671447" lon="8.796996681006473"><ele>106.5</ele><time>2026-04-18T13:22:08.002Z</time></trkpt><trkpt lat="45.31442988481894" lon="8.797093938047189"><ele>106.0</ele><time>2026-04-18T13:22:09.002Z</time></trkpt><trkpt lat="45.31430863818373" lon="8.797194738097614"><ele>106.0</ele><time>2026-04-18T13:22:10.002Z</time></trkpt><trkpt lat="45.31418331093165" lon="8.797307606518356"><ele>106.0</ele><time>2026-04-18T13:22:11.002Z</time></trkpt><trkpt lat="45.31405567875706" lon="8.797425592091896"><ele>106.0</ele><time>2026-04-18T13:22:12.002Z</time></trkpt><trkpt lat="45.31392453601054" lon="8.797547919730409"><ele>106.0</ele><time>2026-04-18T13:22:13.002Z</time></trkpt><trkpt lat="45.31378724634516" lon="8.79767105829677"><ele>106.0</ele><time>2026-04-18T13:22:14.002Z</time></trkpt><trkpt lat="45.31364738990749" lon="8.797797419343228"><ele>106.0</ele><time>2026-04-18T13:22:15.002Z</time></trkpt><trkpt lat="45.313506683006146" lon="8.797926005354048"><ele>106.0</ele><time>2026-04-18T13:22:16.002Z</time></trkpt><trkpt lat="45.31336348767965" lon="8.79805798221429"><ele>106.0</ele><time>2026-04-18T13:22:17.002Z</time></trkpt><trkpt lat="45.313235070265314" lon="8.798173721033226"><ele>106.0</ele><time>2026-04-18T13:22:18.002Z</time></trkpt><trkpt lat="45.31311717932554" lon="8.798277643124093"><ele>106.25</ele><time>2026-04-18T13:22:19.003Z</time></trkpt><trkpt lat="45.3130054290854" lon="8.798379759543637"><ele>106.5</ele><time>2026-04-18T13:22:20.003Z</time></trkpt><trkpt lat="45.312893944741525" lon="8.7984801246809"><ele>106.75</ele><time>2026-04-18T13:22:21.003Z</time></trkpt><trkpt lat="45.31278795636068" lon="8.798574417861902"><ele>107.0</ele><time>2026-04-18T13:22:22.003Z</time></trkpt><trkpt lat="45.312690096343175" lon="8.798653834761186"><ele>106.99999999999999</ele><time>2026-04-18T13:22:23.003Z</time></trkpt><trkpt lat="45.31259743412717" lon="8.798729283759252"><ele>107.0</ele><time>2026-04-18T13:22:24.003Z</time></trkpt><trkpt lat="45.31251831366722" lon="8.798790593951562"><ele>107.0</ele><time>2026-04-18T13:22:25.003Z</time></trkpt><trkpt lat="45.31245020611053" lon="8.7988354116546"><ele>107.0</ele><time>2026-04-18T13:22:26.003Z</time></trkpt><trkpt lat="45.3123700080691" lon="8.798903446799656"><ele>106.99999999999999</ele><time>2026-04-18T13:22:28.003Z</time></trkpt><trkpt lat="45.31237092587846" lon="8.799008532259268"><ele>107.0</ele><time>2026-04-18T13:22:30.003Z</time></trkpt><trkpt lat="45.31239433712213" lon="8.799096644358393"><ele>107.0</ele><time>2026-04-18T13:22:31.003Z</time></trkpt><trkpt lat="45.31243367370528" lon="8.799212703252612"><ele>106.99999999999999</ele><time>2026-04-18T13:22:32.003Z</time></trkpt><trkpt lat="45.312477565645914" lon="8.799347522154482"><ele>106.99999999999999</ele><time>2026-04-18T13:22:33.003Z</time></trkpt><trkpt lat="45.31252118888691" lon="8.79950236092259"><ele>107.0</ele><time>2026-04-18T13:22:34.003Z</time></trkpt><trkpt lat="45.31256842335238" lon="8.799668872437291"><ele>107.0</ele><time>2026-04-18T13:22:35.003Z</time></trkpt><trkpt lat="45.312615710014015" lon="8.799847961003035"><ele>107.0</ele><time>2026-04-18T13:22:36.003Z</time></trkpt><trkpt lat="45.31266936091766" lon="8.800041536657826"><ele>107.0</ele><time>2026-04-18T13:22:37.003Z</time></trkpt><trkpt lat="45.31272342197279" lon="8.800241309115687"><ele>107.0</ele><time>2026-04-18T13:22:38.003Z</time></trkpt><trkpt lat="45.3127782785439" lon="8.8004409183998"><ele>107.0</ele><time>2026-04-18T13:22:39.003Z</time></trkpt><trkpt lat="45.31282982144633" lon="8.80063553620432"><ele>107.0</ele><time>2026-04-18T13:22:40.003Z</time></trkpt><trkpt lat="45.312887949409856" lon="8.80083183908494"><ele>107.0</ele><time>2026-04-18T13:22:41.003Z</time></trkpt><trkpt lat="45.312944778645495" lon="8.801028159740287"><ele>107.0</ele><time>2026-04-18T13:22:42.003Z</time></trkpt><trkpt lat="45.313008333077306" lon="8.801220870987166"><ele>107.0</ele><time>2026-04-18T13:22:43.003Z</time></trkpt><trkpt lat="45.31307553263594" lon="8.801409353156034"><ele>107.0</ele><time>2026-04-18T13:22:43.997Z</time></trkpt><trkpt lat="45.313143544420896" lon="8.801602846787224"><ele>107.0</ele><time>2026-04-18T13:22:44.997Z</time></trkpt><trkpt lat="45.31320945374525" lon="8.80179332289415"><ele>107.0</ele><time>2026-04-18T13:22:45.997Z</time></trkpt><trkpt lat="45.31326945931691" lon="8.801977405064155"><ele>107.0</ele><time>2026-04-18T13:22:46.998Z</time></trkpt><trkpt lat="45.31332792143571" lon="8.802152077203978"><ele>106.75</ele><time>2026-04-18T13:22:47.998Z</time></trkpt><trkpt lat="45.31338618613014" lon="8.802328597674444"><ele>106.5</ele><time>2026-04-18T13:22:48.998Z</time></trkpt><trkpt lat="45.31343491402873" lon="8.802494927667231"><ele>106.25</ele><time>2026-04-18T13:22:49.998Z</time></trkpt><trkpt lat="45.313475143808674" lon="8.802668481126998"><ele>106.0</ele><time>2026-04-18T13:22:50.998Z</time></trkpt><trkpt lat="45.31350473090029" lon="8.802860372900277"><ele>106.0</ele><time>2026-04-18T13:22:51.998Z</time></trkpt><trkpt lat="45.313519211719615" lon="8.803055912997356"><ele>106.0</ele><time>2026-04-18T13:22:52.998Z</time></trkpt><trkpt lat="45.31352521356489" lon="8.803253841811628"><ele>106.0</ele><time>2026-04-18T13:22:53.998Z</time></trkpt><trkpt lat="45.31353202773066" lon="8.803440692278018"><ele>106.0</ele><time>2026-04-18T13:22:54.998Z</time></trkpt><trkpt lat="45.313545096432605" lon="8.803607455655081"><ele>106.0</ele><time>2026-04-18T13:22:55.998Z</time></trkpt><trkpt lat="45.313568507050974" lon="8.803771747144248"><ele>106.0</ele><time>2026-04-18T13:22:56.999Z</time></trkpt><trkpt lat="45.313605358428646" lon="8.803943237275835"><ele>106.0</ele><time>2026-04-18T13:22:57.999Z</time></trkpt><trkpt lat="45.31365682159626" lon="8.804112409616598"><ele>106.0</ele><time>2026-04-18T13:22:58.999Z</time></trkpt><trkpt lat="45.31372125852951" lon="8.804272920920335"><ele>106.0</ele><time>2026-04-18T13:22:59.999Z</time></trkpt><trkpt lat="45.313785206477554" lon="8.804411222413018"><ele>106.0</ele><time>2026-04-18T13:23:00.999Z</time></trkpt><trkpt lat="45.31385574906632" lon="8.80455246913847"><ele>106.0</ele><time>2026-04-18T13:23:01.999Z</time></trkpt><trkpt lat="45.31394005301647" lon="8.80470336455566"><ele>106.0</ele><time>2026-04-18T13:23:02.999Z</time></trkpt><trkpt lat="45.31402976986531" lon="8.804859473090678"><ele>105.75</ele><time>2026-04-18T13:23:03.999Z</time></trkpt><trkpt lat="45.314123117018674" lon="8.805013832455517"><ele>105.5</ele><time>2026-04-18T13:23:04.999Z</time></trkpt><trkpt lat="45.31422203941433" lon="8.805164465875116"><ele>105.25</ele><time>2026-04-18T13:23:05.999Z</time></trkpt><trkpt lat="45.314312942123294" lon="8.80530535248887"><ele>105.0</ele><time>2026-04-18T13:23:07Z</time></trkpt><trkpt lat="45.31439035015377" lon="8.80543531435652"><ele>105.5</ele><time>2026-04-18T13:23:08Z</time></trkpt><trkpt lat="45.31446331433186" lon="8.805557400119023"><ele>106.0</ele><time>2026-04-18T13:23:09Z</time></trkpt><trkpt lat="45.314541585419484" lon="8.805692590258914"><ele>106.5</ele><time>2026-04-18T13:23:10Z</time></trkpt><trkpt lat="45.31461077922624" lon="8.80581336875486"><ele>107.0</ele><time>2026-04-18T13:23:11Z</time></trkpt><trkpt lat="45.314686475112545" lon="8.80593704826824"><ele>106.8</ele><time>2026-04-18T13:23:12Z</time></trkpt><trkpt lat="45.31475933463674" lon="8.806053304630804"><ele>106.6</ele><time>2026-04-18T13:23:13Z</time></trkpt><trkpt lat="45.3148345948861" lon="8.806147616468936"><ele>106.39999999999999</ele><time>2026-04-18T13:23:14Z</time></trkpt><trkpt lat="45.31490368951044" lon="8.806230568600752"><ele>106.19999999999999</ele><time>2026-04-18T13:23:15Z</time></trkpt><trkpt lat="45.31496462197643" lon="8.806306863245865"><ele>106.0</ele><time>2026-04-18T13:23:16Z</time></trkpt><trkpt lat="45.3150184292759" lon="8.80638073103255"><ele>106.0</ele><time>2026-04-18T13:23:17Z</time></trkpt><trkpt lat="45.31505823239027" lon="8.806451541017294"><ele>106.0</ele><time>2026-04-18T13:23:18Z</time></trkpt><trkpt lat="45.31515835157366" lon="8.806586846633175"><ele>106.0</ele><time>2026-04-18T13:23:20Z</time></trkpt><trkpt lat="45.315219579660145" lon="8.806669548596147"><ele>106.0</ele><time>2026-04-18T13:23:21Z</time></trkpt><trkpt lat="45.31526533633712" lon="8.806772622983404"><ele>106.0</ele><time>2026-04-18T13:23:22Z</time></trkpt><trkpt lat="45.315298370041795" lon="8.80690795724128"><ele>106.5</ele><time>2026-04-18T13:23:23Z</time></trkpt><trkpt lat="45.3153182489403" lon="8.807060497377297"><ele>107.0</ele><time>2026-04-18T13:23:24.001Z</time></trkpt><trkpt lat="45.315328067986215" lon="8.807227991653246"><ele>107.5</ele><time>2026-04-18T13:23:25.001Z</time></trkpt><trkpt lat="45.315337594111064" lon="8.80740265726781"><ele>108.0</ele><time>2026-04-18T13:23:26.001Z</time></trkpt><trkpt lat="45.31535227562679" lon="8.807563882217154"><ele>108.0</ele><time>2026-04-18T13:23:27.001Z</time></trkpt><trkpt lat="45.31537498221999" lon="8.807696152360139"><ele>108.00000000000001</ele><time>2026-04-18T13:23:28.001Z</time></trkpt><trkpt lat="45.315401038584255" lon="8.807813619724424"><ele>108.00000000000001</ele><time>2026-04-18T13:23:29.001Z</time></trkpt><trkpt lat="45.31542453408273" lon="8.8079303458331"><ele>108.0</ele><time>2026-04-18T13:23:30.001Z</time></trkpt><trkpt lat="45.31545235229368" lon="8.808056411915485"><ele>108.0</ele><time>2026-04-18T13:23:31.001Z</time></trkpt><trkpt lat="45.31549254168815" lon="8.80818002442056"><ele>108.0</ele><time>2026-04-18T13:23:32.001Z</time></trkpt><trkpt lat="45.31554153946271" lon="8.808310460310333"><ele>108.00000000000001</ele><time>2026-04-18T13:23:33.001Z</time></trkpt><trkpt lat="45.315591191315235" lon="8.808443889946895"><ele>108.00000000000001</ele><time>2026-04-18T13:23:34.001Z</time></trkpt><trkpt lat="45.315645431414644" lon="8.808575502014971"><ele>108.0</ele><time>2026-04-18T13:23:35.001Z</time></trkpt><trkpt lat="45.31570458726748" lon="8.808721797678551"><ele>108.0</ele><time>2026-04-18T13:23:36.001Z</time></trkpt><trkpt lat="45.31576524743059" lon="8.8088739040538"><ele>107.75</ele><time>2026-04-18T13:23:37.001Z</time></trkpt><trkpt lat="45.315828657197386" lon="8.809031351840318"><ele>107.5</ele><time>2026-04-18T13:23:38.001Z</time></trkpt><trkpt lat="45.315896038271376" lon="8.809195873129934"><ele>107.25</ele><time>2026-04-18T13:23:39.001Z</time></trkpt><trkpt lat="45.31596245888927" lon="8.809367837189786"><ele>107.0</ele><time>2026-04-18T13:23:40.001Z</time></trkpt><trkpt lat="45.31603300369956" lon="8.809544197259905"><ele>107.0</ele><time>2026-04-18T13:23:41.001Z</time></trkpt><trkpt lat="45.31610757821034" lon="8.809727038694206"><ele>107.0</ele><time>2026-04-18T13:23:42.001Z</time></trkpt><trkpt lat="45.31618533885821" lon="8.809916461718547"><ele>107.0</ele><time>2026-04-18T13:23:43.001Z</time></trkpt><trkpt lat="45.316260812992894" lon="8.810114338289287"><ele>107.33333333333333</ele><time>2026-04-18T13:23:44.001Z</time></trkpt><trkpt lat="45.31633761954007" lon="8.810317837830258"><ele>107.66666666666666</ele><time>2026-04-18T13:23:45.001Z</time></trkpt><trkpt lat="45.31641331375548" lon="8.810538949804615"><ele>108.0</ele><time>2026-04-18T13:23:46.001Z</time></trkpt><trkpt lat="45.31648635722544" lon="8.81077572271629"><ele>108.33333333333334</ele><time>2026-04-18T13:23:47.001Z</time></trkpt><trkpt lat="45.31655543596629" lon="8.811019980769961"><ele>108.66666666666667</ele><time>2026-04-18T13:23:48.001Z</time></trkpt><trkpt lat="45.31661993446444" lon="8.811253240692182"><ele>109.0</ele><time>2026-04-18T13:23:49.001Z</time></trkpt><trkpt lat="45.31667780311537" lon="8.811467865274896"><ele>109.0</ele><time>2026-04-18T13:23:50.002Z</time></trkpt><trkpt lat="45.316733039909735" lon="8.811677339779479"><ele>109.0</ele><time>2026-04-18T13:23:51.002Z</time></trkpt><trkpt lat="45.31678812278879" lon="8.811896655112516"><ele>109.0</ele><time>2026-04-18T13:23:52.002Z</time></trkpt><trkpt lat="45.31684435003133" lon="8.812118942191908"><ele>109.0</ele><time>2026-04-18T13:23:53.002Z</time></trkpt><trkpt lat="45.316901377859786" lon="8.812335692552407"><ele>109.0</ele><time>2026-04-18T13:23:54.002Z</time></trkpt><trkpt lat="45.31695469941648" lon="8.812535017403217"><ele>109.0</ele><time>2026-04-18T13:23:55.002Z</time></trkpt><trkpt lat="45.317005481275096" lon="8.812724154820629"><ele>109.0</ele><time>2026-04-18T13:23:56.002Z</time></trkpt><trkpt lat="45.31705332365958" lon="8.812920740341452"><ele>109.0</ele><time>2026-04-18T13:23:57.002Z</time></trkpt><trkpt lat="45.31710054490584" lon="8.813126012231855"><ele>109.0</ele><time>2026-04-18T13:23:58.002Z</time></trkpt><trkpt lat="45.31715161103879" lon="8.813340334240346"><ele>109.0</ele><time>2026-04-18T13:23:59.002Z</time></trkpt><trkpt lat="45.31720532819793" lon="8.813559208345099"><ele>109.0</ele><time>2026-04-18T13:24:00.002Z</time></trkpt><trkpt lat="45.31725806532891" lon="8.81378531855277"><ele>109.0</ele><time>2026-04-18T13:24:01.002Z</time></trkpt><trkpt lat="45.31731073130071" lon="8.814017982873517"><ele>109.0</ele><time>2026-04-18T13:24:02.002Z</time></trkpt><trkpt lat="45.31736527866202" lon="8.814253903946454"><ele>109.0</ele><time>2026-04-18T13:24:03.002Z</time></trkpt><trkpt lat="45.3174155271116" lon="8.814482204341253"><ele>109.0</ele><time>2026-04-18T13:24:04.002Z</time></trkpt><trkpt lat="45.31745872994498" lon="8.81468674887281"><ele>109.0</ele><time>2026-04-18T13:24:05.002Z</time></trkpt><trkpt lat="45.31750196074083" lon="8.814887537966019"><ele>109.0</ele><time>2026-04-18T13:24:06.002Z</time></trkpt><trkpt lat="45.317540715591136" lon="8.815072467017547"><ele>109.0</ele><time>2026-04-18T13:24:07.002Z</time></trkpt><trkpt lat="45.31758122646931" lon="8.815263092202228"><ele>109.0</ele><time>2026-04-18T13:24:08.002Z</time></trkpt><trkpt lat="45.31762334839632" lon="8.815456157367837"><ele>109.0</ele><time>2026-04-18T13:24:09.002Z</time></trkpt><trkpt lat="45.317667611214546" lon="8.815653109313109"><ele>109.0</ele><time>2026-04-18T13:24:10.002Z</time></trkpt><trkpt lat="45.3177200449449" lon="8.815852275835837"><ele>109.0</ele><time>2026-04-18T13:24:11.002Z</time></trkpt><trkpt lat="45.317779311004756" lon="8.816040670248418"><ele>109.0</ele><time>2026-04-18T13:24:12.002Z</time></trkpt><trkpt lat="45.317843671364635" lon="8.81623204477414"><ele>108.75</ele><time>2026-04-18T13:24:13.002Z</time></trkpt><trkpt lat="45.31790890819143" lon="8.816415103147989"><ele>108.5</ele><time>2026-04-18T13:24:14.002Z</time></trkpt><trkpt lat="45.31797402513891" lon="8.81658069920672"><ele>108.25</ele><time>2026-04-18T13:24:15.002Z</time></trkpt><trkpt lat="45.31803281898487" lon="8.816736334295994"><ele>108.0</ele><time>2026-04-18T13:24:16.002Z</time></trkpt><trkpt lat="45.318082206528146" lon="8.81689272710083"><ele>107.75</ele><time>2026-04-18T13:24:17.002Z</time></trkpt><trkpt lat="45.31812751323611" lon="8.81706229842859"><ele>107.5</ele><time>2026-04-18T13:24:18.002Z</time></trkpt><trkpt lat="45.31817026098497" lon="8.817238765666803"><ele>107.25</ele><time>2026-04-18T13:24:19.002Z</time></trkpt><trkpt lat="45.31821453858686" lon="8.817410138838742"><ele>107.0</ele><time>2026-04-18T13:24:20.002Z</time></trkpt><trkpt lat="45.318246774122414" lon="8.81756098668475"><ele>107.33333333333333</ele><time>2026-04-18T13:24:21.002Z</time></trkpt><trkpt lat="45.3182832167211" lon="8.817697231259672"><ele>107.66666666666666</ele><time>2026-04-18T13:24:22.003Z</time></trkpt><trkpt lat="45.31831114332564" lon="8.817823287076372"><ele>108.0</ele><time>2026-04-18T13:24:23.003Z</time></trkpt><trkpt lat="45.31833782549663" lon="8.81793393101001"><ele>108.33333333333334</ele><time>2026-04-18T13:24:24.003Z</time></trkpt><trkpt lat="45.31836051962362" lon="8.8180393723535"><ele>108.66666666666667</ele><time>2026-04-18T13:24:25.003Z</time></trkpt><trkpt lat="45.31835788461381" lon="8.818141938793365"><ele>109.0</ele><time>2026-04-18T13:24:26.003Z</time></trkpt><trkpt lat="45.31834933702215" lon="8.818241966668348"><ele>109.0</ele><time>2026-04-18T13:24:27.003Z</time></trkpt><trkpt lat="45.31836086638794" lon="8.818363987997966"><ele>109.0</ele><time>2026-04-18T13:24:28.003Z</time></trkpt><trkpt lat="45.31839360413188" lon="8.8185003486435"><ele>109.0</ele><time>2026-04-18T13:24:29.003Z</time></trkpt><trkpt lat="45.31843997515332" lon="8.818662988393376"><ele>109.0</ele><time>2026-04-18T13:24:30.003Z</time></trkpt><trkpt lat="45.31849449187299" lon="8.818836213247186"><ele>109.0</ele><time>2026-04-18T13:24:31.003Z</time></trkpt><trkpt lat="45.31853581136506" lon="8.818982254332242"><ele>109.2</ele><time>2026-04-18T13:24:32.003Z</time></trkpt><trkpt lat="45.31855817481373" lon="8.819135221190955"><ele>109.4</ele><time>2026-04-18T13:24:33.003Z</time></trkpt><trkpt lat="45.31861096778928" lon="8.819280890491015"><ele>109.6</ele><time>2026-04-18T13:24:34.003Z</time></trkpt><trkpt lat="45.31863915477414" lon="8.819434021888798"><ele>109.8</ele><time>2026-04-18T13:24:35.003Z</time></trkpt><trkpt lat="45.3186709950259" lon="8.819569718462139"><ele>110.0</ele><time>2026-04-18T13:24:36.003Z</time></trkpt><trkpt lat="45.318700998537956" lon="8.81969774223934"><ele>110.0</ele><time>2026-04-18T13:24:37.003Z</time></trkpt><trkpt lat="45.31872840362991" lon="8.819812576150333"><ele>110.0</ele><time>2026-04-18T13:24:38.003Z</time></trkpt><trkpt lat="45.31875767988981" lon="8.819931674527378"><ele>110.0</ele><time>2026-04-18T13:24:39.003Z</time></trkpt><trkpt lat="45.31879709954545" lon="8.820059459800703"><ele>110.0</ele><time>2026-04-18T13:24:40.003Z</time></trkpt><trkpt lat="45.31884961043623" lon="8.82021335938081"><ele>110.0</ele><time>2026-04-18T13:24:41.003Z</time></trkpt><trkpt lat="45.31888527867446" lon="8.820394407549967"><ele>109.6</ele><time>2026-04-18T13:24:42.003Z</time></trkpt><trkpt lat="45.31894151515585" lon="8.820561159605013"><ele>109.2</ele><time>2026-04-18T13:24:43.003Z</time></trkpt><trkpt lat="45.318977619719114" lon="8.820713304445434"><ele>108.80000000000001</ele><time>2026-04-18T13:24:44.003Z</time></trkpt><trkpt lat="45.31901481157679" lon="8.820843045547754"><ele>108.4</ele><time>2026-04-18T13:24:45.003Z</time></trkpt><trkpt lat="45.31904261152443" lon="8.820952020145254"><ele>108.0</ele><time>2026-04-18T13:24:46.003Z</time></trkpt><trkpt lat="45.319076225802405" lon="8.821058507161563"><ele>108.0</ele><time>2026-04-18T13:24:47.003Z</time></trkpt><trkpt lat="45.31910409133977" lon="8.821155081544495"><ele>108.0</ele><time>2026-04-18T13:24:48.003Z</time></trkpt><trkpt lat="45.3191299491889" lon="8.821249535022957"><ele>108.0</ele><time>2026-04-18T13:24:49.003Z</time></trkpt><trkpt lat="45.319165350449836" lon="8.821355610370988"><ele>108.0</ele><time>2026-04-18T13:24:49.997Z</time></trkpt><trkpt lat="45.31920244581553" lon="8.82148130070671"><ele>108.0</ele><time>2026-04-18T13:24:50.998Z</time></trkpt><trkpt lat="45.319255806564996" lon="8.821595809335278"><ele>108.0</ele><time>2026-04-18T13:24:51.998Z</time></trkpt><trkpt lat="45.31930314893428" lon="8.82173048695453"><ele>108.0</ele><time>2026-04-18T13:24:52.998Z</time></trkpt><trkpt lat="45.31935561590132" lon="8.821870035486"><ele>108.0</ele><time>2026-04-18T13:24:53.998Z</time></trkpt><trkpt lat="45.31940803021798" lon="8.822009657469213"><ele>108.0</ele><time>2026-04-18T13:24:54.998Z</time></trkpt><trkpt lat="45.31946506499163" lon="8.822161163418787"><ele>108.0</ele><time>2026-04-18T13:24:55.998Z</time></trkpt><trkpt lat="45.319514745888824" lon="8.822298499435483"><ele>108.0</ele><time>2026-04-18T13:24:56.998Z</time></trkpt><trkpt lat="45.31956529870425" lon="8.822427648403115"><ele>108.00000000000001</ele><time>2026-04-18T13:24:57.998Z</time></trkpt><trkpt lat="45.319596599636185" lon="8.82257112426428"><ele>108.00000000000001</ele><time>2026-04-18T13:24:58.998Z</time></trkpt><trkpt lat="45.31963887710227" lon="8.822713718932334"><ele>108.0</ele><time>2026-04-18T13:24:59.998Z</time></trkpt><trkpt lat="45.31968088279493" lon="8.822864505901421"><ele>108.0</ele><time>2026-04-18T13:25:00.999Z</time></trkpt><trkpt lat="45.319734033084835" lon="8.822996051206308"><ele>108.0</ele><time>2026-04-18T13:25:01.999Z</time></trkpt><trkpt lat="45.31975552419341" lon="8.823143290492101"><ele>108.0</ele><time>2026-04-18T13:25:02.999Z</time></trkpt><trkpt lat="45.31978993064093" lon="8.823282578936906"><ele>108.0</ele><time>2026-04-18T13:25:03.999Z</time></trkpt><trkpt lat="45.319843068662735" lon="8.823437131298302"><ele>108.0</ele><time>2026-04-18T13:25:04.999Z</time></trkpt><trkpt lat="45.31988718903483" lon="8.823604108759561"><ele>108.25</ele><time>2026-04-18T13:25:05.999Z</time></trkpt><trkpt lat="45.31993655971145" lon="8.823778029597179"><ele>108.5</ele><time>2026-04-18T13:25:06.999Z</time></trkpt><trkpt lat="45.319997864282406" lon="8.82395604798688"><ele>108.75</ele><time>2026-04-18T13:25:07.999Z</time></trkpt><trkpt lat="45.320057376417545" lon="8.824120072458733"><ele>109.0</ele><time>2026-04-18T13:25:08.999Z</time></trkpt><trkpt lat="45.320117289464875" lon="8.82426376253992"><ele>108.83333333333334</ele><time>2026-04-18T13:25:09.999Z</time></trkpt><trkpt lat="45.32016732431067" lon="8.824391920408711"><ele>108.66666666666667</ele><time>2026-04-18T13:25:10.999Z</time></trkpt><trkpt lat="45.32020862854332" lon="8.824514889813054"><ele>108.5</ele><time>2026-04-18T13:25:12Z</time></trkpt><trkpt lat="45.32025389361163" lon="8.824619678762424"><ele>108.33333333333334</ele><time>2026-04-18T13:25:13Z</time></trkpt><trkpt lat="45.3202960671967" lon="8.824719773559007"><ele>108.16666666666667</ele><time>2026-04-18T13:25:14Z</time></trkpt><trkpt lat="45.32034306728141" lon="8.824814497430168"><ele>108.0</ele><time>2026-04-18T13:25:15Z</time></trkpt><trkpt lat="45.320389760720936" lon="8.824907566735352"><ele>108.0</ele><time>2026-04-18T13:25:16Z</time></trkpt><trkpt lat="45.320442646628116" lon="8.825015963859844"><ele>108.00000000000001</ele><time>2026-04-18T13:25:17Z</time></trkpt><trkpt lat="45.32049880165737" lon="8.82512016224941"><ele>108.00000000000001</ele><time>2026-04-18T13:25:18Z</time></trkpt><trkpt lat="45.32055709174999" lon="8.825231231760496"><ele>108.0</ele><time>2026-04-18T13:25:19Z</time></trkpt><trkpt lat="45.320614603918244" lon="8.825348403079136"><ele>108.0</ele><time>2026-04-18T13:25:20Z</time></trkpt><trkpt lat="45.3206623381553" lon="8.825450013478308"><ele>108.2</ele><time>2026-04-18T13:25:21Z</time></trkpt><trkpt lat="45.320710456481144" lon="8.825549383421155"><ele>108.4</ele><time>2026-04-18T13:25:22Z</time></trkpt><trkpt lat="45.32076433842492" lon="8.825653709397864"><ele>108.60000000000001</ele><time>2026-04-18T13:25:23Z</time></trkpt><trkpt lat="45.320825216688505" lon="8.82576178856115"><ele>108.80000000000001</ele><time>2026-04-18T13:25:24Z</time></trkpt><trkpt lat="45.32088870610692" lon="8.825870444486933"><ele>109.0</ele><time>2026-04-18T13:25:25Z</time></trkpt><trkpt lat="45.320947063461794" lon="8.825982369614227"><ele>108.6</ele><time>2026-04-18T13:25:26Z</time></trkpt><trkpt lat="45.32099888472854" lon="8.826102360548594"><ele>108.2</ele><time>2026-04-18T13:25:27Z</time></trkpt><trkpt lat="45.321067655536346" lon="8.826208317682351"><ele>107.79999999999998</ele><time>2026-04-18T13:25:28Z</time></trkpt><trkpt lat="45.32113131572554" lon="8.826324606568171"><ele>107.39999999999999</ele><time>2026-04-18T13:25:29.001Z</time></trkpt><trkpt lat="45.32119490936203" lon="8.826442283977675"><ele>107.0</ele><time>2026-04-18T13:25:30.001Z</time></trkpt><trkpt lat="45.32126789400549" lon="8.826564505906397"><ele>107.0</ele><time>2026-04-18T13:25:31.001Z</time></trkpt><trkpt lat="45.32134627582547" lon="8.826676807433886"><ele>107.0</ele><time>2026-04-18T13:25:32.001Z</time></trkpt><trkpt lat="45.321440229126885" lon="8.826790660422706"><ele>107.0</ele><time>2026-04-18T13:25:33.001Z</time></trkpt><trkpt lat="45.321537012263114" lon="8.826913077321793"><ele>107.0</ele><time>2026-04-18T13:25:34.001Z</time></trkpt><trkpt lat="45.32160714805284" lon="8.82700072075"><ele>107.49999999999999</ele><time>2026-04-18T13:25:35.001Z</time></trkpt><trkpt lat="45.321673517336194" lon="8.827089153196857"><ele>108.0</ele><time>2026-04-18T13:25:36.001Z</time></trkpt><trkpt lat="45.32172376667448" lon="8.82716435645069"><ele>108.5</ele><time>2026-04-18T13:25:37.001Z</time></trkpt><trkpt lat="45.32177381481568" lon="8.827293470678205"><ele>109.0</ele><time>2026-04-18T13:25:39.001Z</time></trkpt><trkpt lat="45.32179919709354" lon="8.827376187370723"><ele>109.49999999999999</ele><time>2026-04-18T13:25:41.001Z</time></trkpt><trkpt lat="45.32190534446071" lon="8.827343060524557"><ele>110.0</ele><time>2026-04-18T13:25:43.001Z</time></trkpt><trkpt lat="45.32197970361527" lon="8.827309805871998"><ele>109.99999999999999</ele><time>2026-04-18T13:25:45.001Z</time></trkpt><trkpt lat="45.322053731643614" lon="8.827323488814816"><ele>110.0</ele><time>2026-04-18T13:25:48.001Z</time></trkpt><trkpt lat="45.32208531800196" lon="8.827446406833396"><ele>110.0</ele><time>2026-04-18T13:25:50.001Z</time></trkpt><trkpt lat="45.32210691786646" lon="8.827556080468948"><ele>110.0</ele><time>2026-04-18T13:25:51.001Z</time></trkpt><trkpt lat="45.322130036396565" lon="8.82764513197546"><ele>109.99999999999999</ele><time>2026-04-18T13:25:52.001Z</time></trkpt><trkpt lat="45.32215882564871" lon="8.827739559204037"><ele>110.0</ele><time>2026-04-18T13:25:53.001Z</time></trkpt><trkpt lat="45.32219248974756" lon="8.827845846697786"><ele>110.0</ele><time>2026-04-18T13:25:54.001Z</time></trkpt><trkpt lat="45.3222253172187" lon="8.82796189530804"><ele>110.0</ele><time>2026-04-18T13:25:55.002Z</time></trkpt><trkpt lat="45.32225778304686" lon="8.828086548540691"><ele>110.0</ele><time>2026-04-18T13:25:56.002Z</time></trkpt><trkpt lat="45.32229135685944" lon="8.828213395297137"><ele>110.0</ele><time>2026-04-18T13:25:57.002Z</time></trkpt><trkpt lat="45.32232717154249" lon="8.828340627705566"><ele>110.0</ele><time>2026-04-18T13:25:58.002Z</time></trkpt><trkpt lat="45.32236378442269" lon="8.828472330958247"><ele>110.0</ele><time>2026-04-18T13:25:59.002Z</time></trkpt><trkpt lat="45.322396138669525" lon="8.828604737770913"><ele>110.0</ele><time>2026-04-18T13:26:00.002Z</time></trkpt><trkpt lat="45.32242678356461" lon="8.82873795653329"><ele>110.0</ele><time>2026-04-18T13:26:01.002Z</time></trkpt><trkpt lat="45.32245777012929" lon="8.828863052161108"><ele>110.0</ele><time>2026-04-18T13:26:02.002Z</time></trkpt><trkpt lat="45.32249029762979" lon="8.82898492850599"><ele>110.0</ele><time>2026-04-18T13:26:03.002Z</time></trkpt><trkpt lat="45.32252196926559" lon="8.829101437952565"><ele>109.99999999999999</ele><time>2026-04-18T13:26:04.002Z</time></trkpt><trkpt lat="45.32255156334142" lon="8.829212633476233"><ele>110.0</ele><time>2026-04-18T13:26:05.002Z</time></trkpt><trkpt lat="45.32257705244143" lon="8.829307166054027"><ele>110.0</ele><time>2026-04-18T13:26:06.002Z</time></trkpt><trkpt lat="45.32260590132039" lon="8.829408344840395"><ele>110.0</ele><time>2026-04-18T13:26:07.002Z</time></trkpt><trkpt lat="45.32263813244034" lon="8.82951083632077"><ele>109.99999999999999</ele><time>2026-04-18T13:26:08.002Z</time></trkpt><trkpt lat="45.32267288087735" lon="8.829612366587694"><ele>110.0</ele><time>2026-04-18T13:26:09.002Z</time></trkpt><trkpt lat="45.32270412148443" lon="8.82971658010579"><ele>110.33333333333333</ele><time>2026-04-18T13:26:10.002Z</time></trkpt><trkpt lat="45.322729533979555" lon="8.829819175697606"><ele>110.66666666666666</ele><time>2026-04-18T13:26:11.002Z</time></trkpt><trkpt lat="45.3227538962163" lon="8.829926652986726"><ele>111.0</ele><time>2026-04-18T13:26:12.002Z</time></trkpt><trkpt lat="45.322790576117015" lon="8.830042495145635"><ele>111.33333333333334</ele><time>2026-04-18T13:26:13.002Z</time></trkpt><trkpt lat="45.32281939511941" lon="8.830165323469721"><ele>111.66666666666667</ele><time>2026-04-18T13:26:14.002Z</time></trkpt><trkpt lat="45.32285494207764" lon="8.830299931068067"><ele>112.0</ele><time>2026-04-18T13:26:15.002Z</time></trkpt><trkpt lat="45.322888571598014" lon="8.830435194929374"><ele>112.0</ele><time>2026-04-18T13:26:16.002Z</time></trkpt><trkpt lat="45.322923411041074" lon="8.830582953774819"><ele>112.0</ele><time>2026-04-18T13:26:17.002Z</time></trkpt><trkpt lat="45.32295940653926" lon="8.830735226811592"><ele>112.0</ele><time>2026-04-18T13:26:18.002Z</time></trkpt><trkpt lat="45.32300083427368" lon="8.830888850242312"><ele>112.0</ele><time>2026-04-18T13:26:19.002Z</time></trkpt><trkpt lat="45.32303911540478" lon="8.831050091828674"><ele>112.0</ele><time>2026-04-18T13:26:20.002Z</time></trkpt><trkpt lat="45.32308916487933" lon="8.831192555156358"><ele>111.99999999999999</ele><time>2026-04-18T13:26:21.002Z</time></trkpt><trkpt lat="45.323130677187024" lon="8.83131773380129"><ele>111.99999999999999</ele><time>2026-04-18T13:26:22.002Z</time></trkpt><trkpt lat="45.323151455270306" lon="8.831434448744085"><ele>112.0</ele><time>2026-04-18T13:26:23.002Z</time></trkpt><trkpt lat="45.323169895099625" lon="8.83155427895356"><ele>112.0</ele><time>2026-04-18T13:26:24.002Z</time></trkpt><trkpt lat="45.32317783857562" lon="8.831665498000595"><ele>112.00000000000001</ele><time>2026-04-18T13:26:25.002Z</time></trkpt><trkpt lat="45.32317368318927" lon="8.831787222167877"><ele>112.0</ele><time>2026-04-18T13:26:26.002Z</time></trkpt><trkpt lat="45.32315215898624" lon="8.831909350381622"><ele>112.0</ele><time>2026-04-18T13:26:27.003Z</time></trkpt><trkpt lat="45.32312394795399" lon="8.832030923487775"><ele>112.0</ele><time>2026-04-18T13:26:28.003Z</time></trkpt><trkpt lat="45.32310214710869" lon="8.832157340694097"><ele>112.00000000000001</ele><time>2026-04-18T13:26:29.003Z</time></trkpt><trkpt lat="45.3230820892366" lon="8.832281673004587"><ele>112.0</ele><time>2026-04-18T13:26:30.003Z</time></trkpt><trkpt lat="45.3230734579917" lon="8.832403523788585"><ele>111.8</ele><time>2026-04-18T13:26:31.003Z</time></trkpt><trkpt lat="45.32309153399403" lon="8.83253102968596"><ele>111.6</ele><time>2026-04-18T13:26:32.003Z</time></trkpt><trkpt lat="45.32313996448507" lon="8.832651580874835"><ele>111.39999999999999</ele><time>2026-04-18T13:26:33.003Z</time></trkpt><trkpt lat="45.32321323256474" lon="8.832761835998681"><ele>111.19999999999999</ele><time>2026-04-18T13:26:34.003Z</time></trkpt><trkpt lat="45.32333314150307" lon="8.832850321219492"><ele>111.0</ele><time>2026-04-18T13:26:35.003Z</time></trkpt><trkpt lat="45.32342314451571" lon="8.832974468939554"><ele>111.5</ele><time>2026-04-18T13:26:36.003Z</time></trkpt><trkpt lat="45.32350544360339" lon="8.833057195430232"><ele>112.0</ele><time>2026-04-18T13:26:37.003Z</time></trkpt><trkpt lat="45.32358554702092" lon="8.833161707470877"><ele>112.5</ele><time>2026-04-18T13:26:38.003Z</time></trkpt><trkpt lat="45.323678720591694" lon="8.833262550100606"><ele>113.0</ele><time>2026-04-18T13:26:39.003Z</time></trkpt><trkpt lat="45.32370815495932" lon="8.833464966457719"><ele>113.0</ele><time>2026-04-18T13:26:40.003Z</time></trkpt><trkpt lat="45.32375633353455" lon="8.83364812229029"><ele>113.0</ele><time>2026-04-18T13:26:41.003Z</time></trkpt><trkpt lat="45.3238155332934" lon="8.833873172346518"><ele>113.0</ele><time>2026-04-18T13:26:42.003Z</time></trkpt><trkpt lat="45.32388281432248" lon="8.834119820944183"><ele>113.33333333333333</ele><time>2026-04-18T13:26:43.003Z</time></trkpt><trkpt lat="45.32393922838318" lon="8.834329476903056"><ele>113.66666666666666</ele><time>2026-04-18T13:26:44.003Z</time></trkpt><trkpt lat="45.32399299772381" lon="8.834525812953625"><ele>114.0</ele><time>2026-04-18T13:26:45.003Z</time></trkpt><trkpt lat="45.32404818124032" lon="8.834726991003636"><ele>114.0</ele><time>2026-04-18T13:26:46.003Z</time></trkpt><trkpt lat="45.32410659718873" lon="8.834921883288708"><ele>114.0</ele><time>2026-04-18T13:26:47.003Z</time></trkpt><trkpt lat="45.32416169445586" lon="8.835117789096614"><ele>114.0</ele><time>2026-04-18T13:26:48.003Z</time></trkpt><trkpt lat="45.32420796868021" lon="8.835304706688934"><ele>114.0</ele><time>2026-04-18T13:26:49.003Z</time></trkpt><trkpt lat="45.32424412594922" lon="8.835478782183289"><ele>113.5</ele><time>2026-04-18T13:26:50.003Z</time></trkpt><trkpt lat="45.324272619515725" lon="8.835656182856148"><ele>113.0</ele><time>2026-04-18T13:26:51.003Z</time></trkpt><trkpt lat="45.32429576376241" lon="8.835838721846391"><ele>112.5</ele><time>2026-04-18T13:26:52.003Z</time></trkpt><trkpt lat="45.32430289264202" lon="8.836015259898469"><ele>112.0</ele><time>2026-04-18T13:26:53.003Z</time></trkpt><trkpt lat="45.32429585805909" lon="8.836172710658728"><ele>112.0</ele><time>2026-04-18T13:26:54.003Z</time></trkpt><trkpt lat="45.32426808462188" lon="8.836332571703114"><ele>112.0</ele><time>2026-04-18T13:26:55.003Z</time></trkpt><trkpt lat="45.32422883879122" lon="8.836496625029717"><ele>112.0</ele><time>2026-04-18T13:26:55.997Z</time></trkpt><trkpt lat="45.3241901884833" lon="8.836670088421299"><ele>112.0</ele><time>2026-04-18T13:26:56.997Z</time></trkpt><trkpt lat="45.32415546770824" lon="8.83684488873092"><ele>112.5</ele><time>2026-04-18T13:26:57.997Z</time></trkpt><trkpt lat="45.324121322468955" lon="8.837030194112462"><ele>113.0</ele><time>2026-04-18T13:26:58.998Z</time></trkpt><trkpt lat="45.32408881471897" lon="8.837227201960722"><ele>113.5</ele><time>2026-04-18T13:26:59.998Z</time></trkpt><trkpt lat="45.324054698992" lon="8.837397907439348"><ele>114.0</ele><time>2026-04-18T13:27:00.998Z</time></trkpt><trkpt lat="45.32402196964568" lon="8.837571349952954"><ele>114.25</ele><time>2026-04-18T13:27:01.998Z</time></trkpt><trkpt lat="45.323987035696774" lon="8.83775754178406"><ele>114.5</ele><time>2026-04-18T13:27:02.998Z</time></trkpt><trkpt lat="45.32395296197455" lon="8.83795142712325"><ele>114.75</ele><time>2026-04-18T13:27:03.998Z</time></trkpt><trkpt lat="45.323921435144676" lon="8.8381429319325"><ele>115.0</ele><time>2026-04-18T13:27:04.998Z</time></trkpt><trkpt lat="45.323891332073316" lon="8.838321050592644"><ele>114.25</ele><time>2026-04-18T13:27:05.998Z</time></trkpt><trkpt lat="45.32385937119088" lon="8.838488404446654"><ele>113.5</ele><time>2026-04-18T13:27:06.998Z</time></trkpt><trkpt lat="45.32382628872263" lon="8.838656204087549"><ele>112.75</ele><time>2026-04-18T13:27:07.998Z</time></trkpt><trkpt lat="45.32379187439671" lon="8.838816371335488"><ele>112.0</ele><time>2026-04-18T13:27:08.998Z</time></trkpt><trkpt lat="45.32375744555996" lon="8.838963390836545"><ele>112.00000000000001</ele><time>2026-04-18T13:27:09.999Z</time></trkpt><trkpt lat="45.32372574515437" lon="8.839101127183211"><ele>112.0</ele><time>2026-04-18T13:27:10.999Z</time></trkpt><trkpt lat="45.323698861060265" lon="8.839231551082788"><ele>112.0</ele><time>2026-04-18T13:27:11.999Z</time></trkpt><trkpt lat="45.323676892058444" lon="8.839353849478474"><ele>112.0</ele><time>2026-04-18T13:27:12.999Z</time></trkpt><trkpt lat="45.32365311626774" lon="8.839464339325131"><ele>112.00000000000001</ele><time>2026-04-18T13:27:13.999Z</time></trkpt><trkpt lat="45.323630033458294" lon="8.839570191128677"><ele>112.0</ele><time>2026-04-18T13:27:14.999Z</time></trkpt><trkpt lat="45.32361021159076" lon="8.839676699608475"><ele>112.00000000000001</ele><time>2026-04-18T13:27:15.999Z</time></trkpt><trkpt lat="45.323589995360095" lon="8.839787750422342"><ele>112.0</ele><time>2026-04-18T13:27:16.999Z</time></trkpt><trkpt lat="45.323569315251746" lon="8.839903695315511"><ele>112.0</ele><time>2026-04-18T13:27:17.999Z</time></trkpt><trkpt lat="45.3235457142116" lon="8.840022586792417"><ele>112.0</ele><time>2026-04-18T13:27:18.999Z</time></trkpt><trkpt lat="45.32352190573538" lon="8.840142707052813"><ele>112.00000000000001</ele><time>2026-04-18T13:27:20Z</time></trkpt><trkpt lat="45.323499401808085" lon="8.840265611408599"><ele>112.0</ele><time>2026-04-18T13:27:21Z</time></trkpt><trkpt lat="45.32347493891265" lon="8.840378939107238"><ele>112.0</ele><time>2026-04-18T13:27:22Z</time></trkpt><trkpt lat="45.32345251895414" lon="8.840467942236321"><ele>111.99999999999999</ele><time>2026-04-18T13:27:23Z</time></trkpt><trkpt lat="45.32342266450796" lon="8.840620436779343"><ele>111.99999999999999</ele><time>2026-04-18T13:27:25Z</time></trkpt><trkpt lat="45.32339831695991" lon="8.840751131897264"><ele>112.0</ele><time>2026-04-18T13:27:27Z</time></trkpt><trkpt lat="45.3233474935431" lon="8.840930573549386"><ele>112.0</ele><time>2026-04-18T13:27:29Z</time></trkpt><trkpt lat="45.323310619800864" lon="8.841037691814654"><ele>112.0</ele><time>2026-04-18T13:27:30Z</time></trkpt><trkpt lat="45.3232691143919" lon="8.841152453883822"><ele>111.99999999999999</ele><time>2026-04-18T13:27:31Z</time></trkpt><trkpt lat="45.323224529742305" lon="8.841274028069"><ele>111.99999999999999</ele><time>2026-04-18T13:27:32Z</time></trkpt><trkpt lat="45.32317806930296" lon="8.841402886307993"><ele>112.0</ele><time>2026-04-18T13:27:33Z</time></trkpt><trkpt lat="45.323135898359375" lon="8.841537329387892"><ele>112.0</ele><time>2026-04-18T13:27:34Z</time></trkpt><trkpt lat="45.323094888596806" lon="8.841660829529431"><ele>112.19999999999999</ele><time>2026-04-18T13:27:35Z</time></trkpt><trkpt lat="45.32305042715233" lon="8.841787515564906"><ele>112.39999999999999</ele><time>2026-04-18T13:27:36Z</time></trkpt><trkpt lat="45.32299425504904" lon="8.841924060062324"><ele>112.60000000000001</ele><time>2026-04-18T13:27:37.001Z</time></trkpt><trkpt lat="45.3229419802424" lon="8.842062710401756"><ele>112.80000000000001</ele><time>2026-04-18T13:27:38.001Z</time></trkpt><trkpt lat="45.32288390402849" lon="8.842185142358368"><ele>113.0</ele><time>2026-04-18T13:27:39.001Z</time></trkpt><trkpt lat="45.32282363359504" lon="8.842304661374"><ele>113.0</ele><time>2026-04-18T13:27:40.001Z</time></trkpt><trkpt lat="45.32276662796332" lon="8.842427821763442"><ele>113.00000000000001</ele><time>2026-04-18T13:27:41.001Z</time></trkpt><trkpt lat="45.32271051778743" lon="8.84255417173038"><ele>113.00000000000001</ele><time>2026-04-18T13:27:42.001Z</time></trkpt><trkpt lat="45.32265184996603" lon="8.842682899718007"><ele>113.0</ele><time>2026-04-18T13:27:43.001Z</time></trkpt><trkpt lat="45.322590729122304" lon="8.842810276090061"><ele>113.0</ele><time>2026-04-18T13:27:44.001Z</time></trkpt><trkpt lat="45.322529081038624" lon="8.842945802385628"><ele>112.5</ele><time>2026-04-18T13:27:45.001Z</time></trkpt><trkpt lat="45.322462195983775" lon="8.843086388123906"><ele>112.0</ele><time>2026-04-18T13:27:46.001Z</time></trkpt><trkpt lat="45.32239023145737" lon="8.843235106268892"><ele>111.5</ele><time>2026-04-18T13:27:47.001Z</time></trkpt><trkpt lat="45.322317308880315" lon="8.843385063615893"><ele>111.0</ele><time>2026-04-18T13:27:48.001Z</time></trkpt><trkpt lat="45.32226035363764" lon="8.84352880520654"><ele>111.25</ele><time>2026-04-18T13:27:49.001Z</time></trkpt><trkpt lat="45.32221445774561" lon="8.843672725642415"><ele>111.5</ele><time>2026-04-18T13:27:50.001Z</time></trkpt><trkpt lat="45.32218714446903" lon="8.843829491429462"><ele>111.75</ele><time>2026-04-18T13:27:51.001Z</time></trkpt><trkpt lat="45.32216630357091" lon="8.843992887947637"><ele>112.0</ele><time>2026-04-18T13:27:52.001Z</time></trkpt><trkpt lat="45.322146772838174" lon="8.844160475391588"><ele>111.6</ele><time>2026-04-18T13:27:53.001Z</time></trkpt><trkpt lat="45.32212690537842" lon="8.84433548437117"><ele>111.19999999999999</ele><time>2026-04-18T13:27:54.001Z</time></trkpt><trkpt lat="45.32210640279505" lon="8.844499745299021"><ele>110.8</ele><time>2026-04-18T13:27:55.001Z</time></trkpt><trkpt lat="45.32208297003649" lon="8.84464784519176"><ele>110.4</ele><time>2026-04-18T13:27:56.001Z</time></trkpt><trkpt lat="45.322060813042015" lon="8.844781831626825"><ele>110.0</ele><time>2026-04-18T13:27:57.001Z</time></trkpt><trkpt lat="45.322042062592196" lon="8.844904521023004"><ele>109.99999999999999</ele><time>2026-04-18T13:27:58.001Z</time></trkpt><trkpt lat="45.32202627153408" lon="8.845021289817977"><ele>110.0</ele><time>2026-04-18T13:27:59.001Z</time></trkpt><trkpt lat="45.322014257117196" lon="8.845138869632597"><ele>110.0</ele><time>2026-04-18T13:28:00.001Z</time></trkpt><trkpt lat="45.321999588081454" lon="8.84524511640557"><ele>110.0</ele><time>2026-04-18T13:28:01.001Z</time></trkpt><trkpt lat="45.32198249098998" lon="8.845362790311908"><ele>109.99999999999999</ele><time>2026-04-18T13:28:02.001Z</time></trkpt><trkpt lat="45.32196255407813" lon="8.845488395863104"><ele>110.0</ele><time>2026-04-18T13:28:03.001Z</time></trkpt><trkpt lat="45.32194410578988" lon="8.845591673635921"><ele>110.16666666666666</ele><time>2026-04-18T13:28:04.002Z</time></trkpt><trkpt lat="45.321931393521254" lon="8.84568239030363"><ele>110.33333333333333</ele><time>2026-04-18T13:28:05.002Z</time></trkpt><trkpt lat="45.32190141048337" lon="8.845825242410529"><ele>110.5</ele><time>2026-04-18T13:28:07.002Z</time></trkpt><trkpt lat="45.32187836971009" lon="8.845938928900992"><ele>110.66666666666666</ele><time>2026-04-18T13:28:10.002Z</time></trkpt><trkpt lat="45.32186399087625" lon="8.846055779337187"><ele>110.83333333333333</ele><time>2026-04-18T13:28:35.002Z</time></trkpt><trkpt lat="45.32182929993077" lon="8.846192517247804"><ele>111.0</ele><time>2026-04-18T13:28:37.003Z</time></trkpt><trkpt lat="45.321809560392275" lon="8.846346908572288"><ele>111.0</ele><time>2026-04-18T13:28:39.003Z</time></trkpt><trkpt lat="45.32180867122606" lon="8.846504069897453"><ele>111.0</ele><time>2026-04-18T13:28:41.003Z</time></trkpt><trkpt lat="45.32182034320633" lon="8.846602976260371"><ele>111.0</ele><time>2026-04-18T13:28:42.003Z</time></trkpt><trkpt lat="45.321834483256104" lon="8.846708934236002"><ele>111.0</ele><time>2026-04-18T13:28:43.003Z</time></trkpt><trkpt lat="45.32189217409752" lon="8.846808136226763"><ele>111.0</ele><time>2026-04-18T13:28:44.003Z</time></trkpt><trkpt lat="45.32192696989238" lon="8.846896337865083"><ele>111.0</ele><time>2026-04-18T13:28:45.003Z</time></trkpt><trkpt lat="45.321957942894215" lon="8.84699426319993"><ele>110.66666666666667</ele><time>2026-04-18T13:28:46.003Z</time></trkpt><trkpt lat="45.32198925993046" lon="8.847103306115732"><ele>110.33333333333334</ele><time>2026-04-18T13:28:47.003Z</time></trkpt><trkpt lat="45.32201302805192" lon="8.847203633369809"><ele>110.0</ele><time>2026-04-18T13:28:48.003Z</time></trkpt><trkpt lat="45.32203663360461" lon="8.847291675621609"><ele>109.66666666666667</ele><time>2026-04-18T13:28:49.003Z</time></trkpt><trkpt lat="45.32205820066826" lon="8.847379397322037"><ele>109.33333333333334</ele><time>2026-04-18T13:28:50.003Z</time></trkpt><trkpt lat="45.3220970942079" lon="8.84752727330623"><ele>109.0</ele><time>2026-04-18T13:28:52.003Z</time></trkpt><trkpt lat="45.32213827322981" lon="8.847663987135267"><ele>109.00000000000001</ele><time>2026-04-18T13:28:54.003Z</time></trkpt><trkpt lat="45.32216098236246" lon="8.84774749573583"><ele>109.0</ele><time>2026-04-18T13:28:55.003Z</time></trkpt><trkpt lat="45.322182802848054" lon="8.847837994003859"><ele>109.0</ele><time>2026-04-18T13:28:56.003Z</time></trkpt><trkpt lat="45.32221084846704" lon="8.847954312867005"><ele>109.0</ele><time>2026-04-18T13:28:57.003Z</time></trkpt><trkpt lat="45.32224284585873" lon="8.848074244047766"><ele>109.00000000000001</ele><time>2026-04-18T13:28:58.003Z</time></trkpt><trkpt lat="45.32227359571356" lon="8.848202264104861"><ele>109.0</ele><time>2026-04-18T13:28:59.003Z</time></trkpt><trkpt lat="45.32230716963487" lon="8.848335278435387"><ele>108.6</ele><time>2026-04-18T13:29:00.003Z</time></trkpt><trkpt lat="45.32233892386665" lon="8.848466582114034"><ele>108.2</ele><time>2026-04-18T13:29:01.003Z</time></trkpt><trkpt lat="45.32237205085867" lon="8.848598860118798"><ele>107.79999999999998</ele><time>2026-04-18T13:29:01.997Z</time></trkpt><trkpt lat="45.3224106920131" lon="8.848734386235128"><ele>107.39999999999999</ele><time>2026-04-18T13:29:02.997Z</time></trkpt><trkpt lat="45.322450239247445" lon="8.84887422977707"><ele>107.0</ele><time>2026-04-18T13:29:03.998Z</time></trkpt><trkpt lat="45.322483542596004" lon="8.848998954325834"><ele>107.0</ele><time>2026-04-18T13:29:04.998Z</time></trkpt><trkpt lat="45.322511840457025" lon="8.849123030465691"><ele>106.99999999999999</ele><time>2026-04-18T13:29:05.998Z</time></trkpt><trkpt lat="45.32254082737342" lon="8.849247585416148"><ele>106.99999999999999</ele><time>2026-04-18T13:29:06.998Z</time></trkpt><trkpt lat="45.32257636798215" lon="8.849386782883814"><ele>107.0</ele><time>2026-04-18T13:29:07.998Z</time></trkpt><trkpt lat="45.32261570797298" lon="8.84951477645283"><ele>107.0</ele><time>2026-04-18T13:29:08.998Z</time></trkpt><trkpt lat="45.322661009164754" lon="8.849620126228368"><ele>106.8</ele><time>2026-04-18T13:29:09.998Z</time></trkpt><trkpt lat="45.32271411401841" lon="8.849706333034629"><ele>106.6</ele><time>2026-04-18T13:29:10.998Z</time></trkpt><trkpt lat="45.322775822285415" lon="8.849791749922026"><ele>106.39999999999999</ele><time>2026-04-18T13:29:11.998Z</time></trkpt><trkpt lat="45.322838430574244" lon="8.849891946561238"><ele>106.19999999999999</ele><time>2026-04-18T13:29:12.999Z</time></trkpt><trkpt lat="45.32290340217449" lon="8.850008825308834"><ele>106.0</ele><time>2026-04-18T13:29:13.999Z</time></trkpt><trkpt lat="45.322966545416804" lon="8.850130257659647"><ele>106.0</ele><time>2026-04-18T13:29:14.999Z</time></trkpt><trkpt lat="45.32303989659607" lon="8.85024971222234"><ele>106.0</ele><time>2026-04-18T13:29:15.999Z</time></trkpt><trkpt lat="45.32312173488438" lon="8.850373336228257"><ele>106.0</ele><time>2026-04-18T13:29:16.999Z</time></trkpt><trkpt lat="45.32320737790982" lon="8.850504568691807"><ele>106.0</ele><time>2026-04-18T13:29:17.999Z</time></trkpt><trkpt lat="45.3232908019917" lon="8.850639016811549"><ele>106.0</ele><time>2026-04-18T13:29:18.999Z</time></trkpt><trkpt lat="45.32337649316997" lon="8.850779654984617"><ele>106.0</ele><time>2026-04-18T13:29:19.999Z</time></trkpt><trkpt lat="45.32346750447246" lon="8.850923398186845"><ele>106.0</ele><time>2026-04-18T13:29:20.999Z</time></trkpt><trkpt lat="45.32355189847139" lon="8.851066523100007"><ele>106.0</ele><time>2026-04-18T13:29:21.999Z</time></trkpt><trkpt lat="45.32364194233226" lon="8.851211720437979"><ele>106.0</ele><time>2026-04-18T13:29:22.999Z</time></trkpt><trkpt lat="45.32373328900849" lon="8.851360618711954"><ele>106.0</ele><time>2026-04-18T13:29:24Z</time></trkpt><trkpt lat="45.323830992005725" lon="8.85150789441721"><ele>106.0</ele><time>2026-04-18T13:29:25Z</time></trkpt><trkpt lat="45.32390990438183" lon="8.851644221112593"><ele>106.0</ele><time>2026-04-18T13:29:26Z</time></trkpt><trkpt lat="45.323986077297135" lon="8.851765002973762"><ele>106.19999999999999</ele><time>2026-04-18T13:29:27Z</time></trkpt><trkpt lat="45.32405888611572" lon="8.851876197384222"><ele>106.39999999999999</ele><time>2026-04-18T13:29:28Z</time></trkpt><trkpt lat="45.32412311128695" lon="8.85197939521976"><ele>106.6</ele><time>2026-04-18T13:29:29Z</time></trkpt><trkpt lat="45.32417970171201" lon="8.852063852791487"><ele>106.8</ele><time>2026-04-18T13:29:30Z</time></trkpt><trkpt lat="45.324233104910014" lon="8.852130930385213"><ele>107.0</ele><time>2026-04-18T13:29:31Z</time></trkpt><trkpt lat="45.32430165954474" lon="8.852241904159278"><ele>107.0</ele><time>2026-04-18T13:29:33Z</time></trkpt><trkpt lat="45.324410693633716" lon="8.852157055986098"><ele>106.99999999999999</ele><time>2026-04-18T13:29:34Z</time></trkpt><trkpt lat="45.324483909764304" lon="8.852099038260615"><ele>106.99999999999999</ele><time>2026-04-18T13:29:35Z</time></trkpt><trkpt lat="45.32456057986021" lon="8.852030781519556"><ele>107.0</ele><time>2026-04-18T13:29:36Z</time></trkpt><trkpt lat="45.324642813309474" lon="8.851961362609714"><ele>107.0</ele><time>2026-04-18T13:29:37Z</time></trkpt><trkpt lat="45.324724494310054" lon="8.851896422004682"><ele>107.0</ele><time>2026-04-18T13:29:38Z</time></trkpt><trkpt lat="45.32481366479602" lon="8.85184717455612"><ele>106.99999999999999</ele><time>2026-04-18T13:29:39Z</time></trkpt><trkpt lat="45.324915418663096" lon="8.851802378145075"><ele>106.99999999999999</ele><time>2026-04-18T13:29:40Z</time></trkpt><trkpt lat="45.325027208571754" lon="8.851777209958627"><ele>107.0</ele><time>2026-04-18T13:29:41.001Z</time></trkpt><trkpt lat="45.32513809477909" lon="8.851749612217285"><ele>107.0</ele><time>2026-04-18T13:29:42.001Z</time></trkpt><trkpt lat="45.32523584280514" lon="8.85171873299705"><ele>106.6</ele><time>2026-04-18T13:29:43.001Z</time></trkpt><trkpt lat="45.32531889055805" lon="8.851684235736963"><ele>106.19999999999999</ele><time>2026-04-18T13:29:44.001Z</time></trkpt><trkpt lat="45.32541121535307" lon="8.851655622455944"><ele>105.8</ele><time>2026-04-18T13:29:45.001Z</time></trkpt><trkpt lat="45.32551338924623" lon="8.851637729610548"><ele>105.4</ele><time>2026-04-18T13:29:46.001Z</time></trkpt><trkpt lat="45.32561858954441" lon="8.851642744981191"><ele>105.0</ele><time>2026-04-18T13:29:47.001Z</time></trkpt><trkpt lat="45.32573579101403" lon="8.851667372005606"><ele>104.8</ele><time>2026-04-18T13:29:48.001Z</time></trkpt><trkpt lat="45.32583177086674" lon="8.851687850173159"><ele>104.6</ele><time>2026-04-18T13:29:49.001Z</time></trkpt><trkpt lat="45.325942722186866" lon="8.85169268261279"><ele>104.4</ele><time>2026-04-18T13:29:50.001Z</time></trkpt><trkpt lat="45.32605086780517" lon="8.851698313745082"><ele>104.2</ele><time>2026-04-18T13:29:51.001Z</time></trkpt><trkpt lat="45.326173050830135" lon="8.851714721778428"><ele>104.0</ele><time>2026-04-18T13:29:52.001Z</time></trkpt><trkpt lat="45.32629247632996" lon="8.85173587934175"><ele>104.4</ele><time>2026-04-18T13:29:53.001Z</time></trkpt><trkpt lat="45.32639768573515" lon="8.851756883719816"><ele>104.80000000000001</ele><time>2026-04-18T13:29:54.001Z</time></trkpt><trkpt lat="45.32650095178912" lon="8.851783326317257"><ele>105.19999999999999</ele><time>2026-04-18T13:29:55.001Z</time></trkpt><trkpt lat="45.32659571901762" lon="8.851802312286656"><ele>105.6</ele><time>2026-04-18T13:29:56.001Z</time></trkpt><trkpt lat="45.32668996162116" lon="8.851814623041625"><ele>106.0</ele><time>2026-04-18T13:29:57.001Z</time></trkpt><trkpt lat="45.32677697759754" lon="8.851828479805691"><ele>106.0</ele><time>2026-04-18T13:29:58.001Z</time></trkpt><trkpt lat="45.32685830409863" lon="8.851852518107506"><ele>106.0</ele><time>2026-04-18T13:29:59.001Z</time></trkpt><trkpt lat="45.32693795825216" lon="8.851898436138189"><ele>106.0</ele><time>2026-04-18T13:30:00.001Z</time></trkpt><trkpt lat="45.32701787772694" lon="8.851962208415367"><ele>106.0</ele><time>2026-04-18T13:30:01.001Z</time></trkpt><trkpt lat="45.327099158870254" lon="8.852040993990487"><ele>106.0</ele><time>2026-04-18T13:30:02.001Z</time></trkpt><trkpt lat="45.3271833829114" lon="8.85213704778673"><ele>105.8</ele><time>2026-04-18T13:30:03.001Z</time></trkpt><trkpt lat="45.327275478244914" lon="8.85223981377296"><ele>105.6</ele><time>2026-04-18T13:30:04.001Z</time></trkpt><trkpt lat="45.32736437773425" lon="8.852336381557269"><ele>105.4</ele><time>2026-04-18T13:30:05.001Z</time></trkpt><trkpt lat="45.32744725180491" lon="8.85241449562902"><ele>105.2</ele><time>2026-04-18T13:30:06.001Z</time></trkpt><trkpt lat="45.3275167921084" lon="8.852480928066948"><ele>105.0</ele><time>2026-04-18T13:30:07.001Z</time></trkpt><trkpt lat="45.327577160458276" lon="8.852549687882759"><ele>105.16666666666667</ele><time>2026-04-18T13:30:08.002Z</time></trkpt><trkpt lat="45.327639120389755" lon="8.852627594891592"><ele>105.33333333333334</ele><time>2026-04-18T13:30:09.002Z</time></trkpt><trkpt lat="45.32769693585261" lon="8.852703732146981"><ele>105.5</ele><time>2026-04-18T13:30:10.002Z</time></trkpt><trkpt lat="45.32775713661092" lon="8.852781383127812"><ele>105.66666666666667</ele><time>2026-04-18T13:30:11.002Z</time></trkpt><trkpt lat="45.3278162193267" lon="8.852861700738044"><ele>105.83333333333334</ele><time>2026-04-18T13:30:12.002Z</time></trkpt><trkpt lat="45.32787852745286" lon="8.852949349838182"><ele>106.0</ele><time>2026-04-18T13:30:13.002Z</time></trkpt><trkpt lat="45.32795433216795" lon="8.853045478592533"><ele>106.0</ele><time>2026-04-18T13:30:14.002Z</time></trkpt><trkpt lat="45.32803693756712" lon="8.8531383041389"><ele>106.0</ele><time>2026-04-18T13:30:15.002Z</time></trkpt><trkpt lat="45.328125708980345" lon="8.85324220563323"><ele>106.0</ele><time>2026-04-18T13:30:16.002Z</time></trkpt><trkpt lat="45.32821993241634" lon="8.853356202497428"><ele>106.0</ele><time>2026-04-18T13:30:17.002Z</time></trkpt><trkpt lat="45.32829467894446" lon="8.853459366675263"><ele>106.0</ele><time>2026-04-18T13:30:18.002Z</time></trkpt><trkpt lat="45.32838005727878" lon="8.853576553241012"><ele>106.19999999999999</ele><time>2026-04-18T13:30:19.002Z</time></trkpt><trkpt lat="45.328448104269405" lon="8.853698365115031"><ele>106.39999999999999</ele><time>2026-04-18T13:30:20.002Z</time></trkpt><trkpt lat="45.32850204505625" lon="8.853820003268453"><ele>106.6</ele><time>2026-04-18T13:30:21.002Z</time></trkpt><trkpt lat="45.32854743350174" lon="8.853935494027338"><ele>106.8</ele><time>2026-04-18T13:30:22.002Z</time></trkpt><trkpt lat="45.32860577961491" lon="8.85403417461379"><ele>107.0</ele><time>2026-04-18T13:30:23.002Z</time></trkpt><trkpt lat="45.32866289030527" lon="8.854123890676"><ele>106.99999999999999</ele><time>2026-04-18T13:30:24.002Z</time></trkpt><trkpt lat="45.328704788546744" lon="8.854204212984735"><ele>107.0</ele><time>2026-04-18T13:30:25.002Z</time></trkpt><trkpt lat="45.328738082716214" lon="8.854302948981568"><ele>107.0</ele><time>2026-04-18T13:30:26.002Z</time></trkpt><trkpt lat="45.32882345652298" lon="8.854426611518988"><ele>107.0</ele><time>2026-04-18T13:30:28.002Z</time></trkpt><trkpt lat="45.328922017172545" lon="8.854483679059776"><ele>106.99999999999999</ele><time>2026-04-18T13:30:30.002Z</time></trkpt><trkpt lat="45.3289875340668" lon="8.854477219091653"><ele>107.0</ele><time>2026-04-18T13:30:31.002Z</time></trkpt><trkpt lat="45.329070161780336" lon="8.854482517079758"><ele>106.6</ele><time>2026-04-18T13:30:32.002Z</time></trkpt><trkpt lat="45.329164344427426" lon="8.854483354257955"><ele>106.19999999999999</ele><time>2026-04-18T13:30:33.002Z</time></trkpt><trkpt lat="45.329271370028685" lon="8.854464631446508"><ele>105.8</ele><time>2026-04-18T13:30:34.002Z</time></trkpt><trkpt lat="45.3293775808508" lon="8.854487077083832"><ele>105.4</ele><time>2026-04-18T13:30:35.002Z</time></trkpt><trkpt lat="45.32947303799625" lon="8.854502289152322"><ele>105.0</ele><time>2026-04-18T13:30:36.002Z</time></trkpt><trkpt lat="45.3295489413124" lon="8.854527112716791"><ele>105.0</ele><time>2026-04-18T13:30:37.002Z</time></trkpt><trkpt lat="45.329638227536286" lon="8.854551394507203"><ele>105.0</ele><time>2026-04-18T13:30:38.002Z</time></trkpt><trkpt lat="45.329742342395626" lon="8.854571189653585"><ele>105.0</ele><time>2026-04-18T13:30:39.002Z</time></trkpt><trkpt lat="45.3298504267425" lon="8.854600582479081"><ele>105.0</ele><time>2026-04-18T13:30:40.003Z</time></trkpt><trkpt lat="45.32994227393223" lon="8.85461816472886"><ele>105.0</ele><time>2026-04-18T13:30:41.003Z</time></trkpt><trkpt lat="45.330028248970414" lon="8.85463137922878"><ele>105.33333333333333</ele><time>2026-04-18T13:30:42.003Z</time></trkpt><trkpt lat="45.33010293741442" lon="8.854631665356347"><ele>105.66666666666666</ele><time>2026-04-18T13:30:43.003Z</time></trkpt><trkpt lat="45.33017393123042" lon="8.854623073871934"><ele>106.0</ele><time>2026-04-18T13:30:44.003Z</time></trkpt><trkpt lat="45.33025213040781" lon="8.85459716983423"><ele>106.33333333333333</ele><time>2026-04-18T13:30:45.003Z</time></trkpt><trkpt lat="45.330333743630234" lon="8.854577423320954"><ele>106.66666666666666</ele><time>2026-04-18T13:30:46.003Z</time></trkpt><trkpt lat="45.330427539401676" lon="8.85452945535224"><ele>107.0</ele><time>2026-04-18T13:30:47.003Z</time></trkpt><trkpt lat="45.330510400696674" lon="8.854494372850619"><ele>106.99999999999999</ele><time>2026-04-18T13:30:48.003Z</time></trkpt><trkpt lat="45.33058428367273" lon="8.854460751699545"><ele>107.0</ele><time>2026-04-18T13:30:49.003Z</time></trkpt><trkpt lat="45.330647336900746" lon="8.854440406560814"><ele>107.0</ele><time>2026-04-18T13:30:50.003Z</time></trkpt><trkpt lat="45.33074157426975" lon="8.854401006932406"><ele>107.0</ele><time>2026-04-18T13:30:52.003Z</time></trkpt><trkpt lat="45.33082069230898" lon="8.854347883786685"><ele>106.99999999999999</ele><time>2026-04-18T13:31:00.003Z</time></trkpt><trkpt lat="45.330915932193236" lon="8.854281524285375"><ele>107.0</ele><time>2026-04-18T13:31:02.003Z</time></trkpt><trkpt lat="45.330980618159295" lon="8.854294307285976"><ele>107.6</ele><time>2026-04-18T13:31:04.003Z</time></trkpt><trkpt lat="45.33105019476287" lon="8.854434620353143"><ele>108.19999999999999</ele><time>2026-04-18T13:31:06.003Z</time></trkpt><trkpt lat="45.3310882452747" lon="8.854533383607652"><ele>108.8</ele><time>2026-04-18T13:31:07.003Z</time></trkpt><trkpt lat="45.3311322535444" lon="8.854635303207882"><ele>109.4</ele><time>2026-04-18T13:31:07.997Z</time></trkpt><trkpt lat="45.3311917798693" lon="8.854748317268525"><ele>110.0</ele><time>2026-04-18T13:31:08.997Z</time></trkpt><trkpt lat="45.33124787326143" lon="8.854862915406127"><ele>110.0</ele><time>2026-04-18T13:31:09.997Z</time></trkpt><trkpt lat="45.33130430883018" lon="8.854982750884398"><ele>110.0</ele><time>2026-04-18T13:31:10.998Z</time></trkpt><trkpt lat="45.33135450672009" lon="8.85509207809378"><ele>110.0</ele><time>2026-04-18T13:31:11.998Z</time></trkpt><trkpt lat="45.33140116374867" lon="8.85520365880973"><ele>110.0</ele><time>2026-04-18T13:31:12.998Z</time></trkpt><trkpt lat="45.331454523706725" lon="8.855317657922049"><ele>110.0</ele><time>2026-04-18T13:31:13.998Z</time></trkpt><trkpt lat="45.33150578401304" lon="8.855418437739345"><ele>109.6</ele><time>2026-04-18T13:31:14.998Z</time></trkpt><trkpt lat="45.331557929380395" lon="8.855515382392364"><ele>109.2</ele><time>2026-04-18T13:31:15.998Z</time></trkpt><trkpt lat="45.3316157208193" lon="8.855625317458582"><ele>108.80000000000001</ele><time>2026-04-18T13:31:16.998Z</time></trkpt><trkpt lat="45.331681972979034" lon="8.855735172892288"><ele>108.4</ele><time>2026-04-18T13:31:17.998Z</time></trkpt><trkpt lat="45.33175526876654" lon="8.8558471994275"><ele>108.0</ele><time>2026-04-18T13:31:18.998Z</time></trkpt><trkpt lat="45.33183130157163" lon="8.855944007382314"><ele>107.75</ele><time>2026-04-18T13:31:19.998Z</time></trkpt><trkpt lat="45.33191687305478" lon="8.856037901766161"><ele>107.5</ele><time>2026-04-18T13:31:20.998Z</time></trkpt><trkpt lat="45.332011426891604" lon="8.85613290294645"><ele>107.25</ele><time>2026-04-18T13:31:21.999Z</time></trkpt><trkpt lat="45.33210868553795" lon="8.856232361470932"><ele>107.0</ele><time>2026-04-18T13:31:22.999Z</time></trkpt><trkpt lat="45.332204909994765" lon="8.856328007709763"><ele>107.0</ele><time>2026-04-18T13:31:23.999Z</time></trkpt><trkpt lat="45.332309472742295" lon="8.85641666306448"><ele>107.0</ele><time>2026-04-18T13:31:24.999Z</time></trkpt><trkpt lat="45.332413853307" lon="8.856504925193232"><ele>107.0</ele><time>2026-04-18T13:31:25.999Z</time></trkpt><trkpt lat="45.332521274147716" lon="8.856595545032759"><ele>107.0</ele><time>2026-04-18T13:31:26.999Z</time></trkpt><trkpt lat="45.332627779057574" lon="8.856693479334599"><ele>106.75</ele><time>2026-04-18T13:31:27.999Z</time></trkpt><trkpt lat="45.332734573479534" lon="8.856795214487944"><ele>106.5</ele><time>2026-04-18T13:31:28.999Z</time></trkpt><trkpt lat="45.33284420552269" lon="8.85689728685581"><ele>106.25</ele><time>2026-04-18T13:31:29.999Z</time></trkpt><trkpt lat="45.33295806402552" lon="8.856998553375837"><ele>106.0</ele><time>2026-04-18T13:31:30.999Z</time></trkpt><trkpt lat="45.33306738734995" lon="8.857102251151273"><ele>106.5</ele><time>2026-04-18T13:31:32Z</time></trkpt><trkpt lat="45.3331733545069" lon="8.857179343251069"><ele>107.0</ele><time>2026-04-18T13:31:33Z</time></trkpt><trkpt lat="45.33327509045612" lon="8.85725730001651"><ele>107.5</ele><time>2026-04-18T13:31:34Z</time></trkpt><trkpt lat="45.33338322951186" lon="8.857337086818676"><ele>108.0</ele><time>2026-04-18T13:31:35Z</time></trkpt><trkpt lat="45.33349273198968" lon="8.857409437357326"><ele>108.0</ele><time>2026-04-18T13:31:36Z</time></trkpt><trkpt lat="45.3335950210374" lon="8.857488673029426"><ele>108.0</ele><time>2026-04-18T13:31:37Z</time></trkpt><trkpt lat="45.33368400542841" lon="8.857545981824543"><ele>108.0</ele><time>2026-04-18T13:31:38Z</time></trkpt><trkpt lat="45.33375764717401" lon="8.857597460604945"><ele>108.0</ele><time>2026-04-18T13:31:39Z</time></trkpt><trkpt lat="45.33382482792451" lon="8.857641554597745"><ele>108.0</ele><time>2026-04-18T13:31:40Z</time></trkpt><trkpt lat="45.33388326775077" lon="8.857680239976185"><ele>108.0</ele><time>2026-04-18T13:31:41Z</time></trkpt><trkpt lat="45.33393648394816" lon="8.85774304092238"><ele>107.66666666666667</ele><time>2026-04-18T13:31:42Z</time></trkpt><trkpt lat="45.33400543471677" lon="8.857778787721161"><ele>107.33333333333334</ele><time>2026-04-18T13:31:43Z</time></trkpt><trkpt lat="45.33406770061029" lon="8.857843476465714"><ele>107.0</ele><time>2026-04-18T13:31:44Z</time></trkpt><trkpt lat="45.33413712524348" lon="8.857914088266478"><ele>106.66666666666667</ele><time>2026-04-18T13:31:45Z</time></trkpt><trkpt lat="45.33420963694608" lon="8.857994022378413"><ele>106.33333333333334</ele><time>2026-04-18T13:31:46Z</time></trkpt><trkpt lat="45.334281915878265" lon="8.858059835256991"><ele>106.0</ele><time>2026-04-18T13:31:47Z</time></trkpt><trkpt lat="45.33434331167108" lon="8.858122551880559"><ele>106.0</ele><time>2026-04-18T13:31:48Z</time></trkpt><trkpt lat="45.33439885570168" lon="8.858181770020252"><ele>106.0</ele><time>2026-04-18T13:31:49.001Z</time></trkpt><trkpt lat="45.33445001519656" lon="8.858236620480486"><ele>106.0</ele><time>2026-04-18T13:31:50.001Z</time></trkpt><trkpt lat="45.33449388063307" lon="8.858354973467051"><ele>106.0</ele><time>2026-04-18T13:31:52.001Z</time></trkpt><trkpt lat="45.3344891295867" lon="8.85855440561595"><ele>106.0</ele><time>2026-04-18T13:31:54.001Z</time></trkpt><trkpt lat="45.334481423014125" lon="8.858680597598127"><ele>106.0</ele><time>2026-04-18T13:31:55.001Z</time></trkpt><trkpt lat="45.33448250703776" lon="8.85882753681765"><ele>106.0</ele><time>2026-04-18T13:31:56.001Z</time></trkpt><trkpt lat="45.334486877077936" lon="8.858993565650781"><ele>106.0</ele><time>2026-04-18T13:31:57.001Z</time></trkpt><trkpt lat="45.33448998631867" lon="8.859167999228156"><ele>106.0</ele><time>2026-04-18T13:31:58.001Z</time></trkpt><trkpt lat="45.33449024181233" lon="8.859348771848845"><ele>106.0</ele><time>2026-04-18T13:31:59.001Z</time></trkpt><trkpt lat="45.33449168573215" lon="8.859530376723601"><ele>106.0</ele><time>2026-04-18T13:32:00.001Z</time></trkpt><trkpt lat="45.33450068440167" lon="8.859696073130054"><ele>106.0</ele><time>2026-04-18T13:32:01.001Z</time></trkpt><trkpt lat="45.33450985311933" lon="8.859840525053281"><ele>106.0</ele><time>2026-04-18T13:32:02.001Z</time></trkpt><trkpt lat="45.33451940458782" lon="8.859974114365006"><ele>106.0</ele><time>2026-04-18T13:32:03.001Z</time></trkpt><trkpt lat="45.3345268268832" lon="8.860111846265836"><ele>105.19999999999999</ele><time>2026-04-18T13:32:04.001Z</time></trkpt><trkpt lat="45.334526417733265" lon="8.860235008121819"><ele>104.39999999999999</ele><time>2026-04-18T13:32:05.001Z</time></trkpt><trkpt lat="45.334521652007346" lon="8.86036396303862"><ele>103.6</ele><time>2026-04-18T13:32:06.001Z</time></trkpt><trkpt lat="45.3345156558987" lon="8.860509901066711"><ele>102.8</ele><time>2026-04-18T13:32:07.001Z</time></trkpt><trkpt lat="45.33451875153053" lon="8.860662470332041"><ele>102.0</ele><time>2026-04-18T13:32:08.001Z</time></trkpt><trkpt lat="45.33453091621569" lon="8.860822155392587"><ele>102.5</ele><time>2026-04-18T13:32:09.001Z</time></trkpt><trkpt lat="45.334553549237" lon="8.860985189656391"><ele>103.0</ele><time>2026-04-18T13:32:10.001Z</time></trkpt><trkpt lat="45.334570331317806" lon="8.861158048585455"><ele>103.5</ele><time>2026-04-18T13:32:11.001Z</time></trkpt><trkpt lat="45.334587975336255" lon="8.861336358676407"><ele>104.0</ele><time>2026-04-18T13:32:12.001Z</time></trkpt><trkpt lat="45.33460464875476" lon="8.861512654535057"><ele>104.0</ele><time>2026-04-18T13:32:13.001Z</time></trkpt><trkpt lat="45.334627777912345" lon="8.861671448250156"><ele>104.0</ele><time>2026-04-18T13:32:14.001Z</time></trkpt><trkpt lat="45.33463639623212" lon="8.861810094279445"><ele>104.0</ele><time>2026-04-18T13:32:15.002Z</time></trkpt><trkpt lat="45.33463472103343" lon="8.861944627388707"><ele>104.0</ele><time>2026-04-18T13:32:16.002Z</time></trkpt><trkpt lat="45.334628070492904" lon="8.862058168592085"><ele>104.0</ele><time>2026-04-18T13:32:17.002Z</time></trkpt><trkpt lat="45.33463296792621" lon="8.862163391681248"><ele>104.0</ele><time>2026-04-18T13:32:18.002Z</time></trkpt><trkpt lat="45.33464995006068" lon="8.86226145696524"><ele>104.0</ele><time>2026-04-18T13:32:19.002Z</time></trkpt><trkpt lat="45.33469592238725" lon="8.86241849308241"><ele>104.0</ele><time>2026-04-18T13:32:21.002Z</time></trkpt><trkpt lat="45.33479498986736" lon="8.862544702162772"><ele>104.0</ele><time>2026-04-18T13:32:23.002Z</time></trkpt><trkpt lat="45.334825823154944" lon="8.862655051896164"><ele>104.0</ele><time>2026-04-18T13:32:24.002Z</time></trkpt><trkpt lat="45.33485258236318" lon="8.862790361365041"><ele>104.2</ele><time>2026-04-18T13:32:25.002Z</time></trkpt><trkpt lat="45.33488047658419" lon="8.862927473390647"><ele>104.4</ele><time>2026-04-18T13:32:26.002Z</time></trkpt><trkpt lat="45.33492290083239" lon="8.863069142147284"><ele>104.6</ele><time>2026-04-18T13:32:27.002Z</time></trkpt><trkpt lat="45.33495154966192" lon="8.863223861628862"><ele>104.8</ele><time>2026-04-18T13:32:28.002Z</time></trkpt><trkpt lat="45.33498076993986" lon="8.863356639889885"><ele>105.0</ele><time>2026-04-18T13:32:29.002Z</time></trkpt><trkpt lat="45.335000577420445" lon="8.863474241190499"><ele>105.0</ele><time>2026-04-18T13:32:30.002Z</time></trkpt><trkpt lat="45.33501802778772" lon="8.863573398486036"><ele>105.0</ele><time>2026-04-18T13:32:31.002Z</time></trkpt><trkpt lat="45.33504287233393" lon="8.863735428323304"><ele>105.0</ele><time>2026-04-18T13:32:33.002Z</time></trkpt><trkpt lat="45.334997956675586" lon="8.863884018342475"><ele>105.0</ele><time>2026-04-18T13:32:35.002Z</time></trkpt><trkpt lat="45.334952046358715" lon="8.863967478845533"><ele>105.0</ele><time>2026-04-18T13:32:36.002Z</time></trkpt><trkpt lat="45.33489753403728" lon="8.864053973460962"><ele>105.0</ele><time>2026-04-18T13:32:37.002Z</time></trkpt><trkpt lat="45.334844113566675" lon="8.86414116943757"><ele>105.0</ele><time>2026-04-18T13:32:38.002Z</time></trkpt><trkpt lat="45.33480452897333" lon="8.864216145987443"><ele>105.0</ele><time>2026-04-18T13:32:39.002Z</time></trkpt><trkpt lat="45.33477576350696" lon="8.864356591275024"><ele>105.0</ele><time>2026-04-18T13:32:41.002Z</time></trkpt><trkpt lat="45.3347869037243" lon="8.86444491084835"><ele>105.0</ele><time>2026-04-18T13:32:43.002Z</time></trkpt><trkpt lat="45.33482908096016" lon="8.86451842278968"><ele>105.0</ele><time>2026-04-18T13:32:46.002Z</time></trkpt><trkpt lat="45.33484043917349" lon="8.864641927963861"><ele>104.8</ele><time>2026-04-18T13:32:49.003Z</time></trkpt><trkpt lat="45.33490385930688" lon="8.86475281470012"><ele>104.6</ele><time>2026-04-18T13:32:51.003Z</time></trkpt><trkpt lat="45.33500527903924" lon="8.864798047431156"><ele>104.4</ele><time>2026-04-18T13:32:53.003Z</time></trkpt><trkpt lat="45.335075994408335" lon="8.864800374169976"><ele>104.2</ele><time>2026-04-18T13:32:54.003Z</time></trkpt><trkpt lat="45.33514723334697" lon="8.864799960332137"><ele>104.0</ele><time>2026-04-18T13:32:55.003Z</time></trkpt><trkpt lat="45.335253068530996" lon="8.864813453999679"><ele>104.0</ele><time>2026-04-18T13:32:57.003Z</time></trkpt><trkpt lat="45.335322988535786" lon="8.86489494040725"><ele>104.0</ele><time>2026-04-18T13:32:59.003Z</time></trkpt><trkpt lat="45.335344789460194" lon="8.865030632345919"><ele>104.0</ele><time>2026-04-18T13:33:01.003Z</time></trkpt><trkpt lat="45.3353606488893" lon="8.86516929857889"><ele>104.0</ele><time>2026-04-18T13:33:03.003Z</time></trkpt><trkpt lat="45.33540045259135" lon="8.865320709167365"><ele>104.0</ele><time>2026-04-18T13:33:05.003Z</time></trkpt><trkpt lat="45.33541933409907" lon="8.865406330924479"><ele>103.99999999999999</ele><time>2026-04-18T13:33:06.003Z</time></trkpt><trkpt lat="45.33543677815442" lon="8.865495234928318"><ele>104.0</ele><time>2026-04-18T13:33:07.003Z</time></trkpt><trkpt lat="45.33545526884657" lon="8.86558969130106"><ele>104.0</ele><time>2026-04-18T13:33:08.003Z</time></trkpt><trkpt lat="45.33547690555857" lon="8.865698887814354"><ele>104.0</ele><time>2026-04-18T13:33:09.003Z</time></trkpt><trkpt lat="45.335503714553894" lon="8.865819919392097"><ele>103.99999999999999</ele><time>2026-04-18T13:33:10.003Z</time></trkpt><trkpt lat="45.33553241168538" lon="8.865942004929524"><ele>104.0</ele><time>2026-04-18T13:33:11.003Z</time></trkpt><trkpt lat="45.335563060523285" lon="8.866077508411374"><ele>104.0</ele><time>2026-04-18T13:33:12.003Z</time></trkpt><trkpt lat="45.3355978110542" lon="8.866226345092684"><ele>104.0</ele><time>2026-04-18T13:33:13.003Z</time></trkpt><trkpt lat="45.335633470840264" lon="8.866370794794669"><ele>104.0</ele><time>2026-04-18T13:33:13.997Z</time></trkpt><trkpt lat="45.335664978952224" lon="8.866508696721121"><ele>104.0</ele><time>2026-04-18T13:33:14.997Z</time></trkpt><trkpt lat="45.3356948621551" lon="8.866646418842997"><ele>104.0</ele><time>2026-04-18T13:33:15.997Z</time></trkpt><trkpt lat="45.335726008333445" lon="8.86678735623201"><ele>103.80000000000001</ele><time>2026-04-18T13:33:16.997Z</time></trkpt><trkpt lat="45.335755518454604" lon="8.86692467242259"><ele>103.60000000000001</ele><time>2026-04-18T13:33:17.997Z</time></trkpt><trkpt lat="45.33578588330897" lon="8.867056684325572"><ele>103.4</ele><time>2026-04-18T13:33:18.998Z</time></trkpt><trkpt lat="45.33581287926084" lon="8.867191796435593"><ele>103.2</ele><time>2026-04-18T13:33:19.998Z</time></trkpt><trkpt lat="45.335832871311844" lon="8.867328447725722"><ele>103.0</ele><time>2026-04-18T13:33:20.998Z</time></trkpt><trkpt lat="45.33584874411213" lon="8.867466776646017"><ele>103.33333333333334</ele><time>2026-04-18T13:33:21.998Z</time></trkpt><trkpt lat="45.335871726632625" lon="8.867612584471384"><ele>103.66666666666667</ele><time>2026-04-18T13:33:22.998Z</time></trkpt><trkpt lat="45.33588962645516" lon="8.867753835896814"><ele>104.0</ele><time>2026-04-18T13:33:23.998Z</time></trkpt><trkpt lat="45.33590837486647" lon="8.867876708566415"><ele>104.33333333333334</ele><time>2026-04-18T13:33:24.998Z</time></trkpt><trkpt lat="45.335924618941554" lon="8.86797933781146"><ele>104.66666666666667</ele><time>2026-04-18T13:33:25.998Z</time></trkpt><trkpt lat="45.335935457792786" lon="8.868075446359207"><ele>105.0</ele><time>2026-04-18T13:33:26.998Z</time></trkpt><trkpt lat="45.33594590498165" lon="8.86816520113139"><ele>105.0</ele><time>2026-04-18T13:33:27.998Z</time></trkpt><trkpt lat="45.33596568577805" lon="8.868304337431761"><ele>105.0</ele><time>2026-04-18T13:33:29.999Z</time></trkpt><trkpt lat="45.33593358069889" lon="8.868410125585571"><ele>105.0</ele><time>2026-04-18T13:33:32.999Z</time></trkpt><trkpt lat="45.33599845780278" lon="8.868374752178509"><ele>105.0</ele><time>2026-04-18T13:33:43Z</time></trkpt><trkpt lat="45.33595665375798" lon="8.868208179115062"><ele>105.0</ele><time>2026-04-18T13:33:44Z</time></trkpt><trkpt lat="45.33594045642961" lon="8.868110742231522"><ele>105.0</ele><time>2026-04-18T13:33:45Z</time></trkpt><trkpt lat="45.33592875207849" lon="8.867996337839644"><ele>105.0</ele><time>2026-04-18T13:33:46Z</time></trkpt><trkpt lat="45.33591807015817" lon="8.867872453929042"><ele>105.0</ele><time>2026-04-18T13:33:47Z</time></trkpt><trkpt lat="45.33590020383207" lon="8.867742337651789"><ele>105.0</ele><time>2026-04-18T13:33:48Z</time></trkpt><trkpt lat="45.33587682841652" lon="8.867599932742381"><ele>105.0</ele><time>2026-04-18T13:33:49Z</time></trkpt><trkpt lat="45.335853907477485" lon="8.867451260756882"><ele>105.0</ele><time>2026-04-18T13:33:50Z</time></trkpt><trkpt lat="45.33582958793545" lon="8.86729819242044"><ele>104.8</ele><time>2026-04-18T13:33:51Z</time></trkpt><trkpt lat="45.33580344996325" lon="8.86714359607059"><ele>104.6</ele><time>2026-04-18T13:33:52Z</time></trkpt><trkpt lat="45.335781028685226" lon="8.866995420517522"><ele>104.4</ele><time>2026-04-18T13:33:53Z</time></trkpt><trkpt lat="45.33574800154361" lon="8.866850111573632"><ele>104.2</ele><time>2026-04-18T13:33:54Z</time></trkpt><trkpt lat="45.335712037949314" lon="8.866697210638813"><ele>104.0</ele><time>2026-04-18T13:33:55Z</time></trkpt><trkpt lat="45.335678674377924" lon="8.866539849371584"><ele>104.0</ele><time>2026-04-18T13:33:56Z</time></trkpt><trkpt lat="45.33564304226115" lon="8.866381194979027"><ele>104.0</ele><time>2026-04-18T13:33:57.001Z</time></trkpt><trkpt lat="45.33560526038566" lon="8.8662237902661"><ele>104.0</ele><time>2026-04-18T13:33:58.001Z</time></trkpt><trkpt lat="45.33556769512643" lon="8.866060764187587"><ele>104.0</ele><time>2026-04-18T13:33:59.001Z</time></trkpt><trkpt lat="45.33553141280269" lon="8.865896655606797"><ele>103.75</ele><time>2026-04-18T13:34:00.001Z</time></trkpt><trkpt lat="45.335497416389785" lon="8.865733994770675"><ele>103.5</ele><time>2026-04-18T13:34:01.001Z</time></trkpt><trkpt lat="45.335463811574066" lon="8.865567339836986"><ele>103.25</ele><time>2026-04-18T13:34:02.001Z</time></trkpt><trkpt lat="45.335430797760395" lon="8.865407837126313"><ele>103.0</ele><time>2026-04-18T13:34:03.001Z</time></trkpt><trkpt lat="45.33540015664177" lon="8.865253040668607"><ele>103.00000000000001</ele><time>2026-04-18T13:34:04.001Z</time></trkpt><trkpt lat="45.33537495270128" lon="8.865116395629888"><ele>103.0</ele><time>2026-04-18T13:34:05.001Z</time></trkpt><trkpt lat="45.33535057147482" lon="8.864993765406254"><ele>103.0</ele><time>2026-04-18T13:34:06.001Z</time></trkpt><trkpt lat="45.33532544147845" lon="8.86488987589908"><ele>103.0</ele><time>2026-04-18T13:34:07.001Z</time></trkpt><trkpt lat="45.33529004972849" lon="8.864813541496511"><ele>103.00000000000001</ele><time>2026-04-18T13:34:08.001Z</time></trkpt><trkpt lat="45.33523458668748" lon="8.864770048395702"><ele>103.0</ele><time>2026-04-18T13:34:09.001Z</time></trkpt><trkpt lat="45.3351664091284" lon="8.864776938281313"><ele>103.16666666666667</ele><time>2026-04-18T13:34:10.001Z</time></trkpt><trkpt lat="45.33508739407806" lon="8.864795183335236"><ele>103.33333333333334</ele><time>2026-04-18T13:34:11.001Z</time></trkpt><trkpt lat="45.33501099902568" lon="8.864770669474101"><ele>103.5</ele><time>2026-04-18T13:34:12.001Z</time></trkpt><trkpt lat="45.3349488698543" lon="8.864750844060792"><ele>103.66666666666666</ele><time>2026-04-18T13:34:13.001Z</time></trkpt><trkpt lat="45.334868213869285" lon="8.864640876065623"><ele>103.83333333333333</ele><time>2026-04-18T13:34:15.001Z</time></trkpt><trkpt lat="45.33485341005481" lon="8.864540962681648"><ele>104.0</ele><time>2026-04-18T13:34:17.001Z</time></trkpt><trkpt lat="45.3349916696148" lon="8.864484683940818"><ele>104.0</ele><time>2026-04-18T13:34:21.001Z</time></trkpt><trkpt lat="45.335059959572675" lon="8.864488795219472"><ele>104.0</ele><time>2026-04-18T13:34:23.001Z</time></trkpt><trkpt lat="45.3351256471015" lon="8.864502385306865"><ele>104.0</ele><time>2026-04-18T13:34:25.002Z</time></trkpt><trkpt lat="45.33523888803594" lon="8.864534180453733"><ele>104.0</ele><time>2026-04-18T13:34:27.002Z</time></trkpt><trkpt lat="45.33535333299841" lon="8.864589258490751"><ele>104.0</ele><time>2026-04-18T13:34:29.002Z</time></trkpt><trkpt lat="45.33543854856613" lon="8.86446679329397"><ele>104.0</ele><time>2026-04-18T13:34:30.002Z</time></trkpt><trkpt lat="45.33549364636874" lon="8.864393282012191"><ele>104.0</ele><time>2026-04-18T13:34:31.002Z</time></trkpt><trkpt lat="45.335545977178576" lon="8.864319732035614"><ele>104.0</ele><time>2026-04-18T13:34:32.002Z</time></trkpt><trkpt lat="45.335654085685874" lon="8.864224540088603"><ele>104.0</ele><time>2026-04-18T13:34:34.002Z</time></trkpt><trkpt lat="45.33576416518334" lon="8.864226945697245"><ele>104.0</ele><time>2026-04-18T13:34:36.002Z</time></trkpt><trkpt lat="45.33583234113631" lon="8.86440664897518"><ele>103.99999999999999</ele><time>2026-04-18T13:34:39.002Z</time></trkpt><trkpt lat="45.33576634707578" lon="8.86454941367216"><ele>104.0</ele><time>2026-04-18T13:34:41.002Z</time></trkpt><trkpt lat="45.335691998036296" lon="8.86456533682607"><ele>104.0</ele><time>2026-04-18T13:34:42.002Z</time></trkpt><trkpt lat="45.335617993216424" lon="8.86458063093146"><ele>104.0</ele><time>2026-04-18T13:34:43.002Z</time></trkpt><trkpt lat="45.33555467528921" lon="8.864646385380187"><ele>103.99999999999999</ele><time>2026-04-18T13:34:44.002Z</time></trkpt><trkpt lat="45.33551607099185" lon="8.864726860572251"><ele>104.0</ele><time>2026-04-18T13:34:45.002Z</time></trkpt><trkpt lat="45.335508644896585" lon="8.86483684385908"><ele>104.0</ele><time>2026-04-18T13:34:46.002Z</time></trkpt><trkpt lat="45.335532715365545" lon="8.864959363329811"><ele>104.0</ele><time>2026-04-18T13:34:47.002Z</time></trkpt><trkpt lat="45.33556964748978" lon="8.86508632868672"><ele>104.0</ele><time>2026-04-18T13:34:48.002Z</time></trkpt><trkpt lat="45.33560796019008" lon="8.86523020264276"><ele>104.0</ele><time>2026-04-18T13:34:49.002Z</time></trkpt><trkpt lat="45.335642284834165" lon="8.865384629028775"><ele>104.0</ele><time>2026-04-18T13:34:50.002Z</time></trkpt><trkpt lat="45.33567710898253" lon="8.865550938490562"><ele>104.0</ele><time>2026-04-18T13:34:51.002Z</time></trkpt><trkpt lat="45.33571287010545" lon="8.865728104726006"><ele>104.0</ele><time>2026-04-18T13:34:52.002Z</time></trkpt><trkpt lat="45.335750056594044" lon="8.865902161813509"><ele>104.0</ele><time>2026-04-18T13:34:53.002Z</time></trkpt><trkpt lat="45.33578842143446" lon="8.866079736633528"><ele>104.0</ele><time>2026-04-18T13:34:54.002Z</time></trkpt><trkpt lat="45.335829335534946" lon="8.86626506292921"><ele>104.0</ele><time>2026-04-18T13:34:55.002Z</time></trkpt><trkpt lat="45.33587135029139" lon="8.866454461032847"><ele>104.0</ele><time>2026-04-18T13:34:56.003Z</time></trkpt><trkpt lat="45.335914183577934" lon="8.866647199670828"><ele>104.0</ele><time>2026-04-18T13:34:57.003Z</time></trkpt><trkpt lat="45.33595691611116" lon="8.866842087875218"><ele>104.0</ele><time>2026-04-18T13:34:58.003Z</time></trkpt><trkpt lat="45.336000235961244" lon="8.867036971360934"><ele>103.75</ele><time>2026-04-18T13:34:59.003Z</time></trkpt><trkpt lat="45.33603508755369" lon="8.867230754656099"><ele>103.5</ele><time>2026-04-18T13:35:00.003Z</time></trkpt><trkpt lat="45.33607888418029" lon="8.867395768917678"><ele>103.25</ele><time>2026-04-18T13:35:01.003Z</time></trkpt><trkpt lat="45.336113281580666" lon="8.867553971414264"><ele>103.0</ele><time>2026-04-18T13:35:02.003Z</time></trkpt><trkpt lat="45.33614239489414" lon="8.867700107056734"><ele>103.33333333333334</ele><time>2026-04-18T13:35:03.003Z</time></trkpt><trkpt lat="45.336165920458996" lon="8.867835741142919"><ele>103.66666666666667</ele><time>2026-04-18T13:35:04.003Z</time></trkpt><trkpt lat="45.33618525928964" lon="8.867960118087545"><ele>104.0</ele><time>2026-04-18T13:35:05.003Z</time></trkpt><trkpt lat="45.33620758848129" lon="8.868076457160482"><ele>104.33333333333334</ele><time>2026-04-18T13:35:06.003Z</time></trkpt><trkpt lat="45.336235757970606" lon="8.86817627652326"><ele>104.66666666666667</ele><time>2026-04-18T13:35:07.003Z</time></trkpt><trkpt lat="45.3362755529205" lon="8.868258463141396"><ele>105.0</ele><time>2026-04-18T13:35:08.003Z</time></trkpt><trkpt lat="45.33633140037961" lon="8.86830324007041"><ele>105.0</ele><time>2026-04-18T13:35:09.003Z</time></trkpt><trkpt lat="45.33639435712605" lon="8.868334642431586"><ele>105.0</ele><time>2026-04-18T13:35:10.003Z</time></trkpt><trkpt lat="45.33646582599563" lon="8.868375617395772"><ele>105.0</ele><time>2026-04-18T13:35:11.003Z</time></trkpt><trkpt lat="45.33655040007263" lon="8.868384895517224"><ele>105.0</ele><time>2026-04-18T13:35:12.003Z</time></trkpt><trkpt lat="45.336640153113706" lon="8.86839122145555"><ele>105.0</ele><time>2026-04-18T13:35:13.003Z</time></trkpt><trkpt lat="45.33672665274003" lon="8.868389340131735"><ele>105.0</ele><time>2026-04-18T13:35:14.003Z</time></trkpt><trkpt lat="45.33680721428606" lon="8.868384312649516"><ele>105.0</ele><time>2026-04-18T13:35:15.003Z</time></trkpt><trkpt lat="45.3368755849082" lon="8.868392289252283"><ele>105.0</ele><time>2026-04-18T13:35:16.003Z</time></trkpt><trkpt lat="45.33694585840591" lon="8.86839989258314"><ele>105.0</ele><time>2026-04-18T13:35:17.003Z</time></trkpt><trkpt lat="45.33705780752822" lon="8.868410130444575"><ele>105.0</ele><time>2026-04-18T13:35:19.003Z</time></trkpt><trkpt lat="45.33714568902623" lon="8.868463262304402"><ele>105.0</ele><time>2026-04-18T13:35:20.997Z</time></trkpt><trkpt lat="45.337178630715435" lon="8.868541247672846"><ele>105.0</ele><time>2026-04-18T13:35:21.997Z</time></trkpt><trkpt lat="45.33719761398085" lon="8.86865123370737"><ele>105.0</ele><time>2026-04-18T13:35:22.997Z</time></trkpt><trkpt lat="45.337207585042215" lon="8.868790470214833"><ele>105.0</ele><time>2026-04-18T13:35:23.998Z</time></trkpt><trkpt lat="45.33722297161205" lon="8.868922145234162"><ele>105.0</ele><time>2026-04-18T13:35:24.998Z</time></trkpt><trkpt lat="45.337242074675686" lon="8.8690591043724"><ele>105.0</ele><time>2026-04-18T13:35:25.998Z</time></trkpt><trkpt lat="45.337265327421676" lon="8.86920382902328"><ele>105.0</ele><time>2026-04-18T13:35:26.998Z</time></trkpt><trkpt lat="45.33728497197266" lon="8.869341376373608"><ele>104.66666666666667</ele><time>2026-04-18T13:35:27.998Z</time></trkpt><trkpt lat="45.33730342869448" lon="8.86946198461593"><ele>104.33333333333334</ele><time>2026-04-18T13:35:28.998Z</time></trkpt><trkpt lat="45.337323427966304" lon="8.869571862300281"><ele>104.0</ele><time>2026-04-18T13:35:29.998Z</time></trkpt><trkpt lat="45.337342935120205" lon="8.869679533599154"><ele>103.66666666666667</ele><time>2026-04-18T13:35:30.998Z</time></trkpt><trkpt lat="45.33736352469116" lon="8.869795557814653"><ele>103.33333333333334</ele><time>2026-04-18T13:35:31.998Z</time></trkpt><trkpt lat="45.33737836787402" lon="8.869891057256881"><ele>103.0</ele><time>2026-04-18T13:35:32.998Z</time></trkpt><trkpt lat="45.33739186051862" lon="8.870048690394494"><ele>101.83333333333334</ele><time>2026-04-18T13:35:34.999Z</time></trkpt><trkpt lat="45.33739430696995" lon="8.870162820700525"><ele>100.66666666666667</ele><time>2026-04-18T13:35:36.999Z</time></trkpt><trkpt lat="45.33742828309226" lon="8.87026133922729"><ele>99.5</ele><time>2026-04-18T13:35:38.999Z</time></trkpt><trkpt lat="45.33750848278174" lon="8.870270306283317"><ele>98.33333333333334</ele><time>2026-04-18T13:35:40.999Z</time></trkpt><trkpt lat="45.33758501765909" lon="8.870250293730445"><ele>97.16666666666667</ele><time>2026-04-18T13:35:43.999Z</time></trkpt><trkpt lat="45.337656611654175" lon="8.870245279269021"><ele>96.0</ele><time>2026-04-18T13:35:46Z</time></trkpt><trkpt lat="45.337746532585676" lon="8.870259447530112"><ele>96.0</ele><time>2026-04-18T13:35:48Z</time></trkpt><trkpt lat="45.33784902542456" lon="8.870239605773971"><ele>96.0</ele><time>2026-04-18T13:35:50Z</time></trkpt><trkpt lat="45.337937930319065" lon="8.870199141875062"><ele>96.0</ele><time>2026-04-18T13:35:52Z</time></trkpt><trkpt lat="45.33801347567461" lon="8.87018713347203"><ele>96.0</ele><time>2026-04-18T13:35:54Z</time></trkpt><trkpt lat="45.338092688290956" lon="8.870197755366515"><ele>96.0</ele><time>2026-04-18T13:35:56Z</time></trkpt><trkpt lat="45.33816311480381" lon="8.870240090130112"><ele>96.0</ele><time>2026-04-18T13:35:58Z</time></trkpt><trkpt lat="45.33823530298585" lon="8.87026878407968"><ele>94.66666666666667</ele><time>2026-04-18T13:36:00Z</time></trkpt><trkpt lat="45.338304780412045" lon="8.870270489293048"><ele>93.33333333333333</ele><time>2026-04-18T13:36:02.001Z</time></trkpt><trkpt lat="45.33836401335075" lon="8.870349018150398"><ele>92.0</ele><time>2026-04-18T13:36:05.001Z</time></trkpt><trkpt lat="45.33836777133959" lon="8.870438610814386"><ele>90.66666666666666</ele><time>2026-04-18T13:36:07.001Z</time></trkpt><trkpt lat="45.33825861846855" lon="8.870538356114578"><ele>89.33333333333333</ele><time>2026-04-18T13:36:10.001Z</time></trkpt><trkpt lat="45.3381963991544" lon="8.870580913869953"><ele>88.0</ele><time>2026-04-18T13:36:11.001Z</time></trkpt><trkpt lat="45.338136383252916" lon="8.870643930035849"><ele>88.0</ele><time>2026-04-18T13:36:12.001Z</time></trkpt><trkpt lat="45.33806119857642" lon="8.870702529996368"><ele>88.0</ele><time>2026-04-18T13:36:13.001Z</time></trkpt><trkpt lat="45.33798214918469" lon="8.870771376860132"><ele>88.0</ele><time>2026-04-18T13:36:14.001Z</time></trkpt><trkpt lat="45.33790380365136" lon="8.870837042825135"><ele>88.0</ele><time>2026-04-18T13:36:15.001Z</time></trkpt><trkpt lat="45.33783255323612" lon="8.870900043809877"><ele>88.0</ele><time>2026-04-18T13:36:16.001Z</time></trkpt><trkpt lat="45.33777619190449" lon="8.870967710526374"><ele>88.0</ele><time>2026-04-18T13:36:17.001Z</time></trkpt><trkpt lat="45.33774096822075" lon="8.871057718664492"><ele>87.66666666666666</ele><time>2026-04-18T13:36:18.001Z</time></trkpt><trkpt lat="45.33772699678881" lon="8.871163050885752"><ele>87.33333333333333</ele><time>2026-04-18T13:36:19.001Z</time></trkpt><trkpt lat="45.337721874863774" lon="8.871276524585449"><ele>87.0</ele><time>2026-04-18T13:36:20.001Z</time></trkpt><trkpt lat="45.33772295901184" lon="8.871369058390549"><ele>86.66666666666667</ele><time>2026-04-18T13:36:21.001Z</time></trkpt><trkpt lat="45.33772114352604" lon="8.87146315194263"><ele>86.33333333333334</ele><time>2026-04-18T13:36:22.001Z</time></trkpt><trkpt lat="45.33772545591621" lon="8.871617479756802"><ele>86.0</ele><time>2026-04-18T13:36:24.001Z</time></trkpt><trkpt lat="45.3376828390008" lon="8.8717690377149"><ele>86.0</ele><time>2026-04-18T13:36:26.001Z</time></trkpt><trkpt lat="45.33758533392706" lon="8.871851716826786"><ele>86.0</ele><time>2026-04-18T13:36:28.001Z</time></trkpt><trkpt lat="45.337504595996734" lon="8.871877488542792"><ele>86.0</ele><time>2026-04-18T13:36:29.002Z</time></trkpt><trkpt lat="45.33741101936637" lon="8.871904250034836"><ele>86.0</ele><time>2026-04-18T13:36:30.002Z</time></trkpt><trkpt lat="45.33730382921561" lon="8.871941324320709"><ele>86.0</ele><time>2026-04-18T13:36:31.002Z</time></trkpt><trkpt lat="45.33719339679268" lon="8.871989181641961"><ele>86.0</ele><time>2026-04-18T13:36:32.002Z</time></trkpt><trkpt lat="45.33708100985345" lon="8.872048489057308"><ele>86.0</ele><time>2026-04-18T13:36:33.002Z</time></trkpt><trkpt lat="45.336971464501104" lon="8.872129724047227"><ele>86.0</ele><time>2026-04-18T13:36:34.002Z</time></trkpt><trkpt lat="45.33685014476554" lon="8.872227987985319"><ele>86.0</ele><time>2026-04-18T13:36:35.002Z</time></trkpt><trkpt lat="45.33674492094495" lon="8.872329806898739"><ele>86.0</ele><time>2026-04-18T13:36:36.002Z</time></trkpt><trkpt lat="45.33665139173902" lon="8.872417718695525"><ele>86.0</ele><time>2026-04-18T13:36:37.002Z</time></trkpt><trkpt lat="45.33656228820835" lon="8.872491807867826"><ele>86.0</ele><time>2026-04-18T13:36:38.002Z</time></trkpt><trkpt lat="45.33647749307299" lon="8.872554914032778"><ele>86.0</ele><time>2026-04-18T13:36:39.002Z</time></trkpt><trkpt lat="45.33639692728557" lon="8.872613693916989"><ele>86.0</ele><time>2026-04-18T13:36:40.002Z</time></trkpt><trkpt lat="45.33632595482128" lon="8.872667984475683"><ele>86.0</ele><time>2026-04-18T13:36:41.002Z</time></trkpt><trkpt lat="45.33626341551875" lon="8.872729163690744"><ele>86.0</ele><time>2026-04-18T13:36:42.002Z</time></trkpt><trkpt lat="45.33622508121636" lon="8.872806403123048"><ele>86.0</ele><time>2026-04-18T13:36:43.002Z</time></trkpt><trkpt lat="45.33620224332305" lon="8.87290636912413"><ele>86.0</ele><time>2026-04-18T13:36:44.002Z</time></trkpt><trkpt lat="45.33618839819107" lon="8.87303018962089"><ele>86.0</ele><time>2026-04-18T13:36:45.002Z</time></trkpt><trkpt lat="45.336176411516696" lon="8.873177882907271"><ele>86.0</ele><time>2026-04-18T13:36:46.002Z</time></trkpt><trkpt lat="45.336165346862046" lon="8.873335004223978"><ele>85.75</ele><time>2026-04-18T13:36:47.002Z</time></trkpt><trkpt lat="45.33615210209347" lon="8.873499729345308"><ele>85.5</ele><time>2026-04-18T13:36:48.002Z</time></trkpt><trkpt lat="45.33613181256974" lon="8.873674479939293"><ele>85.25</ele><time>2026-04-18T13:36:49.002Z</time></trkpt><trkpt lat="45.33611638579292" lon="8.873846513408797"><ele>85.0</ele><time>2026-04-18T13:36:50.002Z</time></trkpt><trkpt lat="45.336099944971096" lon="8.873998448179435"><ele>85.0</ele><time>2026-04-18T13:36:51.002Z</time></trkpt><trkpt lat="45.33608627998196" lon="8.874126329095354"><ele>85.0</ele><time>2026-04-18T13:36:52.002Z</time></trkpt><trkpt lat="45.33607437519954" lon="8.874240116563701"><ele>85.0</ele><time>2026-04-18T13:36:53.002Z</time></trkpt><trkpt lat="45.336066272308855" lon="8.874333126034466"><ele>85.0</ele><time>2026-04-18T13:36:54.002Z</time></trkpt><trkpt lat="45.33609638462805" lon="8.874493543592648"><ele>85.0</ele><time>2026-04-18T13:36:56.002Z</time></trkpt><trkpt lat="45.33615080915935" lon="8.874547357813707"><ele>85.0</ele><time>2026-04-18T13:36:57.002Z</time></trkpt><trkpt lat="45.3362266884147" lon="8.87459725046698"><ele>85.2</ele><time>2026-04-18T13:36:58.002Z</time></trkpt><trkpt lat="45.336313876645946" lon="8.874654399195636"><ele>85.4</ele><time>2026-04-18T13:36:59.002Z</time></trkpt><trkpt lat="45.33639330031197" lon="8.874723553136286"><ele>85.6</ele><time>2026-04-18T13:37:00.002Z</time></trkpt><trkpt lat="45.33649408333196" lon="8.874803698856367"><ele>85.8</ele><time>2026-04-18T13:37:01.003Z</time></trkpt><trkpt lat="45.336591860859805" lon="8.874893167918573"><ele>86.0</ele><time>2026-04-18T13:37:02.003Z</time></trkpt><trkpt lat="45.33669230929489" lon="8.874970165704987"><ele>86.0</ele><time>2026-04-18T13:37:03.003Z</time></trkpt><trkpt lat="45.336794823335985" lon="8.87504091707575"><ele>86.0</ele><time>2026-04-18T13:37:04.003Z</time></trkpt><trkpt lat="45.336892111959685" lon="8.875119367645947"><ele>86.0</ele><time>2026-04-18T13:37:05.003Z</time></trkpt><trkpt lat="45.33699165262194" lon="8.875199457094439"><ele>86.0</ele><time>2026-04-18T13:37:06.003Z</time></trkpt><trkpt lat="45.33707868463595" lon="8.875280406644086"><ele>86.0</ele><time>2026-04-18T13:37:07.003Z</time></trkpt><trkpt lat="45.33716191352577" lon="8.875354975169508"><ele>85.83333333333334</ele><time>2026-04-18T13:37:08.003Z</time></trkpt><trkpt lat="45.337236298417174" lon="8.875424587816875"><ele>85.66666666666667</ele><time>2026-04-18T13:37:09.003Z</time></trkpt><trkpt lat="45.3373039995389" lon="8.875474959023435"><ele>85.5</ele><time>2026-04-18T13:37:10.003Z</time></trkpt><trkpt lat="45.337398437893484" lon="8.875550258294211"><ele>85.33333333333333</ele><time>2026-04-18T13:37:12.003Z</time></trkpt><trkpt lat="45.33746058783381" lon="8.8756287376715"><ele>85.16666666666666</ele><time>2026-04-18T13:37:14.003Z</time></trkpt><trkpt lat="45.33743526977753" lon="8.875730984188666"><ele>85.0</ele><time>2026-04-18T13:37:16.003Z</time></trkpt><trkpt lat="45.3373548757954" lon="8.87584787698751"><ele>85.2</ele><time>2026-04-18T13:37:18.003Z</time></trkpt><trkpt lat="45.337297608856076" lon="8.875974423908945"><ele>85.4</ele><time>2026-04-18T13:37:20.003Z</time></trkpt><trkpt lat="45.337269008479794" lon="8.87606120468639"><ele>85.6</ele><time>2026-04-18T13:37:22.003Z</time></trkpt><trkpt lat="45.33734067022457" lon="8.876219297924518"><ele>85.8</ele><time>2026-04-18T13:37:25.003Z</time></trkpt><trkpt lat="45.33741761816033" lon="8.876246039514614"><ele>86.0</ele><time>2026-04-18T13:37:25.997Z</time></trkpt><trkpt lat="45.337500060072564" lon="8.876310040356303"><ele>86.0</ele><time>2026-04-18T13:37:26.997Z</time></trkpt><trkpt lat="45.337585541540996" lon="8.876373051897513"><ele>86.0</ele><time>2026-04-18T13:37:27.997Z</time></trkpt><trkpt lat="45.337681586726404" lon="8.876432727742205"><ele>86.0</ele><time>2026-04-18T13:37:28.997Z</time></trkpt><trkpt lat="45.33776320987106" lon="8.87651371123304"><ele>86.0</ele><time>2026-04-18T13:37:29.998Z</time></trkpt><trkpt lat="45.33782722599272" lon="8.876580484199245"><ele>86.0</ele><time>2026-04-18T13:37:30.998Z</time></trkpt><trkpt lat="45.33788604895492" lon="8.87663363683525"><ele>86.0</ele><time>2026-04-18T13:37:31.998Z</time></trkpt><trkpt lat="45.33796288542186" lon="8.876707860266416"><ele>86.0</ele><time>2026-04-18T13:37:33.998Z</time></trkpt><trkpt lat="45.33799332719007" lon="8.876839624044191"><ele>86.0</ele><time>2026-04-18T13:39:23.003Z</time></trkpt><trkpt lat="45.3380280482091" lon="8.87694909176635"><ele>86.0</ele><time>2026-04-18T13:39:25.003Z</time></trkpt><trkpt lat="45.33814164601586" lon="8.877003491516893"><ele>86.0</ele><time>2026-04-18T13:39:27.003Z</time></trkpt><trkpt lat="45.33821412743684" lon="8.877023002539573"><ele>86.19999999999999</ele><time>2026-04-18T13:39:28.003Z</time></trkpt><trkpt lat="45.33829120874629" lon="8.877048506784785"><ele>86.39999999999999</ele><time>2026-04-18T13:39:29.003Z</time></trkpt><trkpt lat="45.338378151212154" lon="8.877084504481806"><ele>86.6</ele><time>2026-04-18T13:39:30.003Z</time></trkpt><trkpt lat="45.3384679748219" lon="8.877141956644065"><ele>86.8</ele><time>2026-04-18T13:39:31.003Z</time></trkpt><trkpt lat="45.3385586865284" lon="8.877205330849138"><ele>87.0</ele><time>2026-04-18T13:39:31.999Z</time></trkpt><trkpt lat="45.33864696387628" lon="8.877281693591332"><ele>87.0</ele><time>2026-04-18T13:39:32.999Z</time></trkpt><trkpt lat="45.33874372867742" lon="8.877365562317348"><ele>87.0</ele><time>2026-04-18T13:39:33.999Z</time></trkpt><trkpt lat="45.33884668159491" lon="8.877450983527137"><ele>87.0</ele><time>2026-04-18T13:39:34.999Z</time></trkpt><trkpt lat="45.33895820520624" lon="8.877539273740599"><ele>87.0</ele><time>2026-04-18T13:39:35.999Z</time></trkpt><trkpt lat="45.339072610908396" lon="8.87763281935811"><ele>86.5</ele><time>2026-04-18T13:39:36.999Z</time></trkpt><trkpt lat="45.339189523480584" lon="8.877730760518673"><ele>86.0</ele><time>2026-04-18T13:39:37.999Z</time></trkpt><trkpt lat="45.339307514973115" lon="8.87782541863146"><ele>85.5</ele><time>2026-04-18T13:39:38.999Z</time></trkpt><trkpt lat="45.33942710555628" lon="8.877925641082255"><ele>85.0</ele><time>2026-04-18T13:39:39.999Z</time></trkpt><trkpt lat="45.33954956285929" lon="8.878029072384567"><ele>85.0</ele><time>2026-04-18T13:39:40.999Z</time></trkpt><trkpt lat="45.339672213985914" lon="8.878133541383043"><ele>85.0</ele><time>2026-04-18T13:39:41.999Z</time></trkpt><trkpt lat="45.33979654208932" lon="8.878238638986556"><ele>85.0</ele><time>2026-04-18T13:39:42.999Z</time></trkpt><trkpt lat="45.33991847028776" lon="8.878339407833497"><ele>85.0</ele><time>2026-04-18T13:39:43.999Z</time></trkpt><trkpt lat="45.34003909025161" lon="8.878434364293328"><ele>85.25</ele><time>2026-04-18T13:39:44.999Z</time></trkpt><trkpt lat="45.340162761317195" lon="8.878533759369937"><ele>85.5</ele><time>2026-04-18T13:39:45.999Z</time></trkpt><trkpt lat="45.34028163036977" lon="8.878627802199283"><ele>85.75</ele><time>2026-04-18T13:39:47Z</time></trkpt><trkpt lat="45.34040249327606" lon="8.87872564429123"><ele>86.0</ele><time>2026-04-18T13:39:48Z</time></trkpt><trkpt lat="45.340511363678374" lon="8.87882385969946"><ele>85.25</ele><time>2026-04-18T13:39:49Z</time></trkpt><trkpt lat="45.340627723838445" lon="8.878924063851498"><ele>84.5</ele><time>2026-04-18T13:39:50Z</time></trkpt><trkpt lat="45.34073022610996" lon="8.879016653286461"><ele>83.75</ele><time>2026-04-18T13:39:51Z</time></trkpt><trkpt lat="45.34082910557405" lon="8.879108432628836"><ele>83.0</ele><time>2026-04-18T13:39:52Z</time></trkpt><trkpt lat="45.340933460019926" lon="8.87920467091693"><ele>83.0</ele><time>2026-04-18T13:39:53Z</time></trkpt><trkpt lat="45.34103663065667" lon="8.87929887623956"><ele>83.0</ele><time>2026-04-18T13:39:54Z</time></trkpt><trkpt lat="45.341138618892096" lon="8.879389203946268"><ele>83.0</ele><time>2026-04-18T13:39:55Z</time></trkpt><trkpt lat="45.34124000971433" lon="8.879480018018558"><ele>83.0</ele><time>2026-04-18T13:39:56Z</time></trkpt><trkpt lat="45.34133742011038" lon="8.879574975837672"><ele>82.25</ele><time>2026-04-18T13:39:57Z</time></trkpt><trkpt lat="45.34144015472044" lon="8.879666146449397"><ele>81.5</ele><time>2026-04-18T13:39:58Z</time></trkpt><trkpt lat="45.341543616596624" lon="8.879762031389447"><ele>80.75</ele><time>2026-04-18T13:39:59Z</time></trkpt><trkpt lat="45.34164703943485" lon="8.879860302027678"><ele>80.0</ele><time>2026-04-18T13:40:00Z</time></trkpt><trkpt lat="45.34175873730647" lon="8.879959910589593"><ele>80.0</ele><time>2026-04-18T13:40:01Z</time></trkpt><trkpt lat="45.34187135190227" lon="8.880063516267905"><ele>80.0</ele><time>2026-04-18T13:40:02Z</time></trkpt><trkpt lat="45.341983800894894" lon="8.880177236393537"><ele>80.0</ele><time>2026-04-18T13:40:03Z</time></trkpt><trkpt lat="45.34210318643821" lon="8.880289402709668"><ele>80.0</ele><time>2026-04-18T13:40:04Z</time></trkpt><trkpt lat="45.34222747209338" lon="8.880405698569144"><ele>81.25</ele><time>2026-04-18T13:40:05Z</time></trkpt><trkpt lat="45.34234764278833" lon="8.880513168277584"><ele>82.5</ele><time>2026-04-18T13:40:06Z</time></trkpt><trkpt lat="45.34246521513054" lon="8.880620756685587"><ele>83.75</ele><time>2026-04-18T13:40:07Z</time></trkpt><trkpt lat="45.34257241934798" lon="8.880722221441989"><ele>85.0</ele><time>2026-04-18T13:40:08Z</time></trkpt><trkpt lat="45.34266610478769" lon="8.880818089799076"><ele>85.0</ele><time>2026-04-18T13:40:09.001Z</time></trkpt><trkpt lat="45.34275526714555" lon="8.88092487895782"><ele>85.0</ele><time>2026-04-18T13:40:10.001Z</time></trkpt><trkpt lat="45.342841254110105" lon="8.881047013050486"><ele>85.0</ele><time>2026-04-18T13:40:11.001Z</time></trkpt><trkpt lat="45.34292193697232" lon="8.88117560491858"><ele>85.0</ele><time>2026-04-18T13:40:12.001Z</time></trkpt><trkpt lat="45.34299517049506" lon="8.881307849371366"><ele>85.0</ele><time>2026-04-18T13:40:13.001Z</time></trkpt><trkpt lat="45.34306221362871" lon="8.881454643636468"><ele>85.0</ele><time>2026-04-18T13:40:14.001Z</time></trkpt><trkpt lat="45.34312796321231" lon="8.881608528908167"><ele>85.0</ele><time>2026-04-18T13:40:15.001Z</time></trkpt><trkpt lat="45.343187823163866" lon="8.88177430047109"><ele>85.0</ele><time>2026-04-18T13:40:16.001Z</time></trkpt><trkpt lat="45.34323802711521" lon="8.881949903316354"><ele>85.0</ele><time>2026-04-18T13:40:17.001Z</time></trkpt><trkpt lat="45.34327908957801" lon="8.882135524777034"><ele>85.0</ele><time>2026-04-18T13:40:18.001Z</time></trkpt><trkpt lat="45.34330982228733" lon="8.882324771604454"><ele>85.0</ele><time>2026-04-18T13:40:19.001Z</time></trkpt><trkpt lat="45.34333354468503" lon="8.882526794220365"><ele>85.0</ele><time>2026-04-18T13:40:20.001Z</time></trkpt><trkpt lat="45.34335235035937" lon="8.88273864818243"><ele>85.25</ele><time>2026-04-18T13:40:21.001Z</time></trkpt><trkpt lat="45.34336852556785" lon="8.882946154821997"><ele>85.5</ele><time>2026-04-18T13:40:22.001Z</time></trkpt><trkpt lat="45.34339157298513" lon="8.88314826729172"><ele>85.75</ele><time>2026-04-18T13:40:23.001Z</time></trkpt><trkpt lat="45.34341362158781" lon="8.883340748325995"><ele>86.0</ele><time>2026-04-18T13:40:24.001Z</time></trkpt><trkpt lat="45.34344307943334" lon="8.883525917491413"><ele>86.0</ele><time>2026-04-18T13:40:25.001Z</time></trkpt><trkpt lat="45.34347426844045" lon="8.883708947100613"><ele>86.0</ele><time>2026-04-18T13:40:26.001Z</time></trkpt><trkpt lat="45.3434858860253" lon="8.883885767977103"><ele>86.0</ele><time>2026-04-18T13:40:27.001Z</time></trkpt><trkpt lat="45.343499106212334" lon="8.884036301507374"><ele>86.0</ele><time>2026-04-18T13:40:28.001Z</time></trkpt><trkpt lat="45.34350127795681" lon="8.884129013068032"><ele>86.0</ele><time>2026-04-18T13:40:29.001Z</time></trkpt><trkpt lat="45.34347903955315" lon="8.884222041298587"><ele>85.8</ele><time>2026-04-18T13:40:31.001Z</time></trkpt><trkpt lat="45.343381226203725" lon="8.884277416694664"><ele>85.6</ele><time>2026-04-18T13:40:36.001Z</time></trkpt><trkpt lat="45.34346561035129" lon="8.884373493473177"><ele>85.4</ele><time>2026-04-18T13:40:39.002Z</time></trkpt><trkpt lat="45.343479374447654" lon="8.884492040215104"><ele>85.2</ele><time>2026-04-18T13:40:59.002Z</time></trkpt><trkpt lat="45.34349528576149" lon="8.884629080221838"><ele>85.0</ele><time>2026-04-18T13:41:01.002Z</time></trkpt><trkpt lat="45.34350618612166" lon="8.884723309246562"><ele>85.0</ele><time>2026-04-18T13:41:02.002Z</time></trkpt><trkpt lat="45.34351779514923" lon="8.884910781874428"><ele>85.0</ele><time>2026-04-18T13:41:04.002Z</time></trkpt><trkpt lat="45.34354033326368" lon="8.885013627568503"><ele>85.0</ele><time>2026-04-18T13:41:05.002Z</time></trkpt><trkpt lat="45.3435616325431" lon="8.885117559003474"><ele>85.0</ele><time>2026-04-18T13:41:06.002Z</time></trkpt><trkpt lat="45.34357714794932" lon="8.885212031209642"><ele>85.0</ele><time>2026-04-18T13:41:07.002Z</time></trkpt><trkpt lat="45.34359209263958" lon="8.88530708091609"><ele>85.0</ele><time>2026-04-18T13:41:08.002Z</time></trkpt><trkpt lat="45.34359987342322" lon="8.885398416305694"><ele>85.0</ele><time>2026-04-18T13:41:09.002Z</time></trkpt><trkpt lat="45.34360557113643" lon="8.885498959953258"><ele>85.0</ele><time>2026-04-18T13:41:10.002Z</time></trkpt><trkpt lat="45.34360854499287" lon="8.885590120491035"><ele>85.0</ele><time>2026-04-18T13:41:11.002Z</time></trkpt><trkpt lat="45.343622824100706" lon="8.885692758156411"><ele>85.0</ele><time>2026-04-18T13:41:12.003Z</time></trkpt><trkpt lat="45.34363133377146" lon="8.88579280095597"><ele>85.0</ele><time>2026-04-18T13:41:13.003Z</time></trkpt><trkpt lat="45.343639905021575" lon="8.885881591985587"><ele>85.0</ele><time>2026-04-18T13:41:14.003Z</time></trkpt><trkpt lat="45.343669298956456" lon="8.886008727229287"><ele>85.0</ele><time>2026-04-18T13:41:16.003Z</time></trkpt><trkpt lat="45.34368974479725" lon="8.886104702372288"><ele>85.16666666666666</ele><time>2026-04-18T13:41:18.003Z</time></trkpt><trkpt lat="45.343709621306694" lon="8.886197033619844"><ele>85.33333333333333</ele><time>2026-04-18T13:41:20.003Z</time></trkpt><trkpt lat="45.343728357827914" lon="8.88628406889172"><ele>85.5</ele><time>2026-04-18T13:41:22.003Z</time></trkpt><trkpt lat="45.34376207022437" lon="8.886400805270048"><ele>85.66666666666667</ele><time>2026-04-18T13:41:25.003Z</time></trkpt><trkpt lat="45.34373857412284" lon="8.88631236093332"><ele>85.83333333333334</ele><time>2026-04-18T13:41:31.003Z</time></trkpt><trkpt lat="45.343705196429056" lon="8.886177624975456"><ele>86.0</ele><time>2026-04-18T13:41:33.003Z</time></trkpt><trkpt lat="45.34364530469935" lon="8.886019131555509"><ele>86.0</ele><time>2026-04-18T13:41:35.003Z</time></trkpt><trkpt lat="45.34364207485622" lon="8.885929473701973"><ele>86.0</ele><time>2026-04-18T13:41:36.003Z</time></trkpt><trkpt lat="45.3436335627545" lon="8.8858162305469"><ele>86.0</ele><time>2026-04-18T13:41:37.003Z</time></trkpt><trkpt lat="45.34361970605883" lon="8.885692688439422"><ele>86.0</ele><time>2026-04-18T13:41:37.997Z</time></trkpt><trkpt lat="45.343711063997844" lon="8.885544014732307"><ele>86.0</ele><time>2026-04-18T13:41:38.997Z</time></trkpt><trkpt lat="45.34369747461026" lon="8.885434367018048"><ele>86.0</ele><time>2026-04-18T13:41:39.998Z</time></trkpt><trkpt lat="45.343686177546466" lon="8.88533584705522"><ele>85.83333333333334</ele><time>2026-04-18T13:41:40.998Z</time></trkpt><trkpt lat="45.34367463715602" lon="8.885235205075983"><ele>85.66666666666667</ele><time>2026-04-18T13:41:41.998Z</time></trkpt><trkpt lat="45.34366231774706" lon="8.88512796656054"><ele>85.5</ele><time>2026-04-18T13:41:42.998Z</time></trkpt><trkpt lat="45.34364095339202" lon="8.884942076406826"><ele>85.33333333333333</ele><time>2026-04-18T13:41:44.998Z</time></trkpt><trkpt lat="45.343629123271306" lon="8.884839143123605"><ele>85.16666666666666</ele><time>2026-04-18T13:41:45.998Z</time></trkpt><trkpt lat="45.343617223853855" lon="8.884735606903712"><ele>85.0</ele><time>2026-04-18T13:41:46.998Z</time></trkpt><trkpt lat="45.343605681581636" lon="8.884635473199245"><ele>85.0</ele><time>2026-04-18T13:41:47.998Z</time></trkpt><trkpt lat="45.34358874471947" lon="8.884489600340029"><ele>85.0</ele><time>2026-04-18T13:41:49.998Z</time></trkpt><trkpt lat="45.34357621647222" lon="8.884381697736181"><ele>85.0</ele><time>2026-04-18T13:41:51.999Z</time></trkpt><trkpt lat="45.34356474235526" lon="8.884282874124871"><ele>85.0</ele><time>2026-04-18T13:41:53.999Z</time></trkpt><trkpt lat="45.34354028493173" lon="8.884194360407909"><ele>85.0</ele><time>2026-04-18T13:41:57.999Z</time></trkpt><trkpt lat="45.34356648813977" lon="8.884297910032073"><ele>85.0</ele><time>2026-04-18T13:42:09Z</time></trkpt><trkpt lat="45.343581611203994" lon="8.884474320322319"><ele>85.0</ele><time>2026-04-18T13:42:11Z</time></trkpt><trkpt lat="45.34355535217315" lon="8.884602611798506"><ele>85.0</ele><time>2026-04-18T13:42:12Z</time></trkpt><trkpt lat="45.34357254553274" lon="8.884731737546678"><ele>85.0</ele><time>2026-04-18T13:42:13Z</time></trkpt><trkpt lat="45.343590872559474" lon="8.884872630937863"><ele>85.0</ele><time>2026-04-18T13:42:14Z</time></trkpt><trkpt lat="45.343611382818445" lon="8.885030904219295"><ele>85.0</ele><time>2026-04-18T13:42:15Z</time></trkpt><trkpt lat="45.3436334377244" lon="8.885208234029786"><ele>85.0</ele><time>2026-04-18T13:42:16Z</time></trkpt><trkpt lat="45.34365231978572" lon="8.885390820854504"><ele>85.0</ele><time>2026-04-18T13:42:17Z</time></trkpt><trkpt lat="45.343672068762004" lon="8.885572209155038"><ele>85.0</ele><time>2026-04-18T13:42:18Z</time></trkpt><trkpt lat="45.34369753043281" lon="8.88576747441297"><ele>85.0</ele><time>2026-04-18T13:42:19Z</time></trkpt><trkpt lat="45.343726068270776" lon="8.885961936759045"><ele>85.25</ele><time>2026-04-18T13:42:20Z</time></trkpt><trkpt lat="45.34376416903942" lon="8.886154308511083"><ele>85.5</ele><time>2026-04-18T13:42:21.001Z</time></trkpt><trkpt lat="45.343813744488735" lon="8.886341211659406"><ele>85.75</ele><time>2026-04-18T13:42:22.001Z</time></trkpt><trkpt lat="45.343869756574655" lon="8.886528074496693"><ele>86.0</ele><time>2026-04-18T13:42:23.001Z</time></trkpt><trkpt lat="45.34393333839464" lon="8.88669784421066"><ele>87.0</ele><time>2026-04-18T13:42:24.001Z</time></trkpt><trkpt lat="45.3440057562789" lon="8.886847695806741"><ele>88.0</ele><time>2026-04-18T13:42:25.001Z</time></trkpt><trkpt lat="45.34408782739249" lon="8.886981770258366"><ele>89.0</ele><time>2026-04-18T13:42:26.001Z</time></trkpt><trkpt lat="45.34418098154303" lon="8.887104375329534"><ele>90.0</ele><time>2026-04-18T13:42:27.001Z</time></trkpt><trkpt lat="45.34428307314716" lon="8.887231108855206"><ele>90.0</ele><time>2026-04-18T13:42:28.001Z</time></trkpt><trkpt lat="45.34438782757347" lon="8.887365469311286"><ele>90.0</ele><time>2026-04-18T13:42:29.001Z</time></trkpt><trkpt lat="45.3444936847346" lon="8.887499720960072"><ele>90.0</ele><time>2026-04-18T13:42:30.001Z</time></trkpt><trkpt lat="45.34460087998232" lon="8.887640671261583"><ele>90.0</ele><time>2026-04-18T13:42:31.001Z</time></trkpt><trkpt lat="45.344710327423435" lon="8.887781651037095"><ele>89.75</ele><time>2026-04-18T13:42:32.001Z</time></trkpt><trkpt lat="45.34482141066626" lon="8.8879231215228"><ele>89.5</ele><time>2026-04-18T13:42:33.001Z</time></trkpt><trkpt lat="45.34493122786511" lon="8.888066716823745"><ele>89.25</ele><time>2026-04-18T13:42:34.001Z</time></trkpt><trkpt lat="45.34503921316196" lon="8.888211844294666"><ele>89.0</ele><time>2026-04-18T13:42:35.001Z</time></trkpt><trkpt lat="45.345149177314305" lon="8.888356964608562"><ele>89.33333333333334</ele><time>2026-04-18T13:42:36.001Z</time></trkpt><trkpt lat="45.3452596421251" lon="8.888499311988674"><ele>89.66666666666667</ele><time>2026-04-18T13:42:37.001Z</time></trkpt><trkpt lat="45.34537275297847" lon="8.888643074762212"><ele>90.0</ele><time>2026-04-18T13:42:38.001Z</time></trkpt><trkpt lat="45.34548390212679" lon="8.888787932980417"><ele>90.0</ele><time>2026-04-18T13:42:39.001Z</time></trkpt><trkpt lat="45.345595872890414" lon="8.888934024501957"><ele>90.0</ele><time>2026-04-18T13:42:40.001Z</time></trkpt><trkpt lat="45.34570788567582" lon="8.889077862982916"><ele>90.0</ele><time>2026-04-18T13:42:41.001Z</time></trkpt><trkpt lat="45.345818914289076" lon="8.889216613507308"><ele>89.66666666666667</ele><time>2026-04-18T13:42:42.001Z</time></trkpt><trkpt lat="45.345928570196136" lon="8.889361155791944"><ele>89.33333333333334</ele><time>2026-04-18T13:42:43.001Z</time></trkpt><trkpt lat="45.346041408184014" lon="8.889516957385059"><ele>89.0</ele><time>2026-04-18T13:42:44.001Z</time></trkpt><trkpt lat="45.34615715214294" lon="8.889676704353091"><ele>89.0</ele><time>2026-04-18T13:42:45.001Z</time></trkpt><trkpt lat="45.34627346662719" lon="8.889832938933564"><ele>89.0</ele><time>2026-04-18T13:42:46.001Z</time></trkpt><trkpt lat="45.346397339119214" lon="8.889990921108375"><ele>89.0</ele><time>2026-04-18T13:42:47.001Z</time></trkpt><trkpt lat="45.34652325103824" lon="8.890146283687368"><ele>89.33333333333334</ele><time>2026-04-18T13:42:48.002Z</time></trkpt><trkpt lat="45.34665132908855" lon="8.890306733878571"><ele>89.66666666666667</ele><time>2026-04-18T13:42:49.002Z</time></trkpt><trkpt lat="45.34677714684045" lon="8.890466308641068"><ele>90.0</ele><time>2026-04-18T13:42:50.002Z</time></trkpt><trkpt lat="45.34690556057162" lon="8.890630128677914"><ele>90.0</ele><time>2026-04-18T13:42:51.002Z</time></trkpt><trkpt lat="45.34703337252918" lon="8.89079313793363"><ele>90.0</ele><time>2026-04-18T13:42:52.002Z</time></trkpt><trkpt lat="45.34716305470936" lon="8.89095700273651"><ele>90.0</ele><time>2026-04-18T13:42:53.002Z</time></trkpt><trkpt lat="45.34729669010886" lon="8.891118889411427"><ele>89.0</ele><time>2026-04-18T13:42:54.002Z</time></trkpt><trkpt lat="45.3474256676881" lon="8.891276580809373"><ele>88.0</ele><time>2026-04-18T13:42:55.002Z</time></trkpt><trkpt lat="45.3475462141328" lon="8.89142017798841"><ele>87.0</ele><time>2026-04-18T13:42:56.002Z</time></trkpt><trkpt lat="45.34765858433057" lon="8.891553566904252"><ele>87.0</ele><time>2026-04-18T13:42:57.002Z</time></trkpt><trkpt lat="45.34777381689125" lon="8.891695343189973"><ele>87.0</ele><time>2026-04-18T13:42:58.002Z</time></trkpt><trkpt lat="45.3478873414793" lon="8.891849672614498"><ele>87.0</ele><time>2026-04-18T13:42:59.002Z</time></trkpt><trkpt lat="45.34799642231751" lon="8.892018921846798"><ele>87.0</ele><time>2026-04-18T13:43:00.002Z</time></trkpt><trkpt lat="45.34809365448047" lon="8.892205391347069"><ele>87.0</ele><time>2026-04-18T13:43:01.002Z</time></trkpt><trkpt lat="45.348175756687596" lon="8.89241471830217"><ele>87.0</ele><time>2026-04-18T13:43:02.002Z</time></trkpt><trkpt lat="45.34824453868259" lon="8.892637438928968"><ele>87.0</ele><time>2026-04-18T13:43:03.002Z</time></trkpt><trkpt lat="45.34830441288333" lon="8.89286881345349"><ele>87.0</ele><time>2026-04-18T13:43:04.002Z</time></trkpt><trkpt lat="45.34837585415074" lon="8.89312421989726"><ele>87.0</ele><time>2026-04-18T13:43:05.002Z</time></trkpt><trkpt lat="45.34842987154078" lon="8.893344944263392"><ele>86.33333333333333</ele><time>2026-04-18T13:43:06.002Z</time></trkpt><trkpt lat="45.34848959260359" lon="8.893594561144154"><ele>85.66666666666666</ele><time>2026-04-18T13:43:07.002Z</time></trkpt><trkpt lat="45.34855270806736" lon="8.893844239302128"><ele>85.0</ele><time>2026-04-18T13:43:08.002Z</time></trkpt><trkpt lat="45.348622322947925" lon="8.894099096840677"><ele>84.0</ele><time>2026-04-18T13:43:09.002Z</time></trkpt><trkpt lat="45.348689634263074" lon="8.894352561371997"><ele>83.0</ele><time>2026-04-18T13:43:10.002Z</time></trkpt><trkpt lat="45.348752707505795" lon="8.894597463220375"><ele>82.0</ele><time>2026-04-18T13:43:11.002Z</time></trkpt><trkpt lat="45.34881833395369" lon="8.894839380315407"><ele>83.66666666666666</ele><time>2026-04-18T13:43:12.002Z</time></trkpt><trkpt lat="45.34888142625702" lon="8.895091084241656"><ele>85.33333333333333</ele><time>2026-04-18T13:43:13.002Z</time></trkpt><trkpt lat="45.348944831491174" lon="8.895331553393524"><ele>87.0</ele><time>2026-04-18T13:43:14.002Z</time></trkpt><trkpt lat="45.34900685512077" lon="8.895561675587102"><ele>87.0</ele><time>2026-04-18T13:43:15.002Z</time></trkpt><trkpt lat="45.34907330440668" lon="8.895802335411963"><ele>87.0</ele><time>2026-04-18T13:43:16.002Z</time></trkpt><trkpt lat="45.34913874000021" lon="8.896037343293473"><ele>87.0</ele><time>2026-04-18T13:43:17.002Z</time></trkpt><trkpt lat="45.349203914027996" lon="8.89627922456441"><ele>86.66666666666667</ele><time>2026-04-18T13:43:18.002Z</time></trkpt><trkpt lat="45.349267792714066" lon="8.896517872566315"><ele>86.33333333333334</ele><time>2026-04-18T13:43:19.002Z</time></trkpt><trkpt lat="45.34933114276256" lon="8.896757324472715"><ele>86.0</ele><time>2026-04-18T13:43:20.002Z</time></trkpt><trkpt lat="45.34939261129947" lon="8.896998602255978"><ele>86.0</ele><time>2026-04-18T13:43:21.003Z</time></trkpt><trkpt lat="45.349455391083204" lon="8.897241482270967"><ele>86.0</ele><time>2026-04-18T13:43:22.003Z</time></trkpt><trkpt lat="45.34951772010369" lon="8.89747833592963"><ele>86.0</ele><time>2026-04-18T13:43:23.003Z</time></trkpt><trkpt lat="45.34958315704009" lon="8.897716894121924"><ele>85.66666666666667</ele><time>2026-04-18T13:43:24.003Z</time></trkpt><trkpt lat="45.34964768363192" lon="8.897957538167296"><ele>85.33333333333333</ele><time>2026-04-18T13:43:25.003Z</time></trkpt><trkpt lat="45.34971051325817" lon="8.898192072527703"><ele>85.0</ele><time>2026-04-18T13:43:26.003Z</time></trkpt><trkpt lat="45.34977273112825" lon="8.898427224564456"><ele>85.0</ele><time>2026-04-18T13:43:27.003Z</time></trkpt><trkpt lat="45.34983172269168" lon="8.898652097010508"><ele>85.0</ele><time>2026-04-18T13:43:28.003Z</time></trkpt><trkpt lat="45.34988786270184" lon="8.898859743851219"><ele>85.0</ele><time>2026-04-18T13:43:29.003Z</time></trkpt><trkpt lat="45.34993924056269" lon="8.899061487546051"><ele>85.0</ele><time>2026-04-18T13:43:30.003Z</time></trkpt><trkpt lat="45.34999373388668" lon="8.899250557951818"><ele>85.0</ele><time>2026-04-18T13:43:31.003Z</time></trkpt><trkpt lat="45.350048047201426" lon="8.899445919050116"><ele>85.0</ele><time>2026-04-18T13:43:32.003Z</time></trkpt><trkpt lat="45.35010508078401" lon="8.899646881623076"><ele>85.0</ele><time>2026-04-18T13:43:33.003Z</time></trkpt><trkpt lat="45.35016157206931" lon="8.89986897288614"><ele>84.66666666666666</ele><time>2026-04-18T13:43:34.003Z</time></trkpt><trkpt lat="45.35021416950859" lon="8.900065416299558"><ele>84.33333333333333</ele><time>2026-04-18T13:43:35.003Z</time></trkpt><trkpt lat="45.3502689947372" lon="8.900278684860593"><ele>84.0</ele><time>2026-04-18T13:43:36.003Z</time></trkpt><trkpt lat="45.350325368327795" lon="8.900495069326547"><ele>84.0</ele><time>2026-04-18T13:43:37.003Z</time></trkpt><trkpt lat="45.35038720917408" lon="8.900715246351846"><ele>84.0</ele><time>2026-04-18T13:43:38.003Z</time></trkpt><trkpt lat="45.35044717105159" lon="8.900927112829239"><ele>84.0</ele><time>2026-04-18T13:43:39.003Z</time></trkpt><trkpt lat="45.35049986349781" lon="8.901125855070614"><ele>84.25</ele><time>2026-04-18T13:43:40.003Z</time></trkpt><trkpt lat="45.35054891174072" lon="8.901315450237226"><ele>84.5</ele><time>2026-04-18T13:43:41.003Z</time></trkpt><trkpt lat="45.35059619628826" lon="8.901502948939951"><ele>84.75</ele><time>2026-04-18T13:43:42.003Z</time></trkpt><trkpt lat="45.35064711029513" lon="8.901692982471449"><ele>85.0</ele><time>2026-04-18T13:43:43.003Z</time></trkpt><trkpt lat="45.35069964796873" lon="8.901884538166613"><ele>85.0</ele><time>2026-04-18T13:43:43.996Z</time></trkpt><trkpt lat="45.35075460011341" lon="8.902077563870561"><ele>85.0</ele><time>2026-04-18T13:43:44.997Z</time></trkpt><trkpt lat="45.35081006321132" lon="8.90227738694976"><ele>85.0</ele><time>2026-04-18T13:43:45.997Z</time></trkpt><trkpt lat="45.350861629011774" lon="8.902471391773497"><ele>85.0</ele><time>2026-04-18T13:43:46.997Z</time></trkpt><trkpt lat="45.35091551793611" lon="8.902671047082126"><ele>85.33333333333333</ele><time>2026-04-18T13:43:47.997Z</time></trkpt><trkpt lat="45.35097056838647" lon="8.902871784206617"><ele>85.66666666666667</ele><time>2026-04-18T13:43:48.997Z</time></trkpt><trkpt lat="45.35102553474939" lon="8.903077460903225"><ele>86.0</ele><time>2026-04-18T13:43:49.997Z</time></trkpt><trkpt lat="45.35108120571366" lon="8.90328310359145"><ele>86.0</ele><time>2026-04-18T13:43:50.997Z</time></trkpt><trkpt lat="45.35113617947549" lon="8.90349113752567"><ele>86.0</ele><time>2026-04-18T13:43:51.998Z</time></trkpt><trkpt lat="45.351188945334236" lon="8.903695012040963"><ele>86.0</ele><time>2026-04-18T13:43:52.998Z</time></trkpt><trkpt lat="45.351239108651704" lon="8.903888726735756"><ele>86.0</ele><time>2026-04-18T13:43:53.998Z</time></trkpt><trkpt lat="45.351291963891384" lon="8.904083056721058"><ele>86.0</ele><time>2026-04-18T13:43:54.998Z</time></trkpt><trkpt lat="45.35134730301136" lon="8.90428548388969"><ele>86.0</ele><time>2026-04-18T13:43:55.998Z</time></trkpt><trkpt lat="45.35140112009758" lon="8.90448358363577"><ele>86.0</ele><time>2026-04-18T13:43:56.998Z</time></trkpt><trkpt lat="45.35145350883469" lon="8.904675410684831"><ele>86.0</ele><time>2026-04-18T13:43:57.998Z</time></trkpt><trkpt lat="45.35150138307509" lon="8.904857417455503"><ele>86.0</ele><time>2026-04-18T13:43:58.998Z</time></trkpt><trkpt lat="45.351550410342895" lon="8.905028048991431"><ele>86.0</ele><time>2026-04-18T13:43:59.999Z</time></trkpt><trkpt lat="45.351593828418395" lon="8.905188804483707"><ele>86.0</ele><time>2026-04-18T13:44:00.999Z</time></trkpt><trkpt lat="45.35163913822519" lon="8.905355895577221"><ele>86.0</ele><time>2026-04-18T13:44:01.999Z</time></trkpt><trkpt lat="45.35168315588479" lon="8.905532855292588"><ele>86.0</ele><time>2026-04-18T13:44:02.999Z</time></trkpt><trkpt lat="45.35172943663881" lon="8.90571205335693"><ele>86.0</ele><time>2026-04-18T13:44:03.999Z</time></trkpt><trkpt lat="45.351783664482646" lon="8.905894122167258"><ele>86.0</ele><time>2026-04-18T13:44:04.999Z</time></trkpt><trkpt lat="45.351840782055646" lon="8.906075512040262"><ele>86.0</ele><time>2026-04-18T13:44:05.999Z</time></trkpt><trkpt lat="45.35190181381671" lon="8.906255830431956"><ele>86.0</ele><time>2026-04-18T13:44:06.999Z</time></trkpt><trkpt lat="45.35197306048937" lon="8.906431572353947"><ele>86.0</ele><time>2026-04-18T13:44:07.999Z</time></trkpt><trkpt lat="45.352051639696285" lon="8.90659906764768"><ele>86.0</ele><time>2026-04-18T13:44:08.999Z</time></trkpt><trkpt lat="45.3521381262355" lon="8.906760021913128"><ele>86.25</ele><time>2026-04-18T13:44:10Z</time></trkpt><trkpt lat="45.35222820431074" lon="8.906911897900963"><ele>86.5</ele><time>2026-04-18T13:44:11Z</time></trkpt><trkpt lat="45.35232243614967" lon="8.907056412127115"><ele>86.75</ele><time>2026-04-18T13:44:12Z</time></trkpt><trkpt lat="45.35242195803348" lon="8.90719148131121"><ele>87.0</ele><time>2026-04-18T13:44:13Z</time></trkpt><trkpt lat="45.35252116348977" lon="8.907311243540718"><ele>87.0</ele><time>2026-04-18T13:44:14Z</time></trkpt><trkpt lat="45.35261754145115" lon="8.907417430039693"><ele>87.0</ele><time>2026-04-18T13:44:15Z</time></trkpt><trkpt lat="45.35272365135316" lon="8.907528007972955"><ele>87.0</ele><time>2026-04-18T13:44:16Z</time></trkpt><trkpt lat="45.352836378990645" lon="8.907638184538088"><ele>87.0</ele><time>2026-04-18T13:44:17Z</time></trkpt><trkpt lat="45.35295525283798" lon="8.907741798716081"><ele>87.25</ele><time>2026-04-18T13:44:18Z</time></trkpt><trkpt lat="45.353076837003755" lon="8.907832350450695"><ele>87.5</ele><time>2026-04-18T13:44:19Z</time></trkpt><trkpt lat="45.3531999916426" lon="8.907912870534357"><ele>87.75</ele><time>2026-04-18T13:44:20Z</time></trkpt><trkpt lat="45.353316269486996" lon="8.90797777241567"><ele>88.0</ele><time>2026-04-18T13:44:21Z</time></trkpt><trkpt lat="45.353427289059766" lon="8.908032801580834"><ele>88.0</ele><time>2026-04-18T13:44:22Z</time></trkpt><trkpt lat="45.35353750661953" lon="8.908080558988205"><ele>88.0</ele><time>2026-04-18T13:44:23Z</time></trkpt><trkpt lat="45.35364215623369" lon="8.908123138055807"><ele>88.0</ele><time>2026-04-18T13:44:24Z</time></trkpt><trkpt lat="45.35374164148747" lon="8.908155608626004"><ele>88.0</ele><time>2026-04-18T13:44:25Z</time></trkpt><trkpt lat="45.35384334111988" lon="8.908177841517135"><ele>88.0</ele><time>2026-04-18T13:44:26Z</time></trkpt><trkpt lat="45.35394927503261" lon="8.908194015972251"><ele>87.80000000000001</ele><time>2026-04-18T13:44:27.001Z</time></trkpt><trkpt lat="45.354054813859385" lon="8.908206325119421"><ele>87.6</ele><time>2026-04-18T13:44:28.001Z</time></trkpt><trkpt lat="45.35416113017471" lon="8.908243241659447"><ele>87.4</ele><time>2026-04-18T13:44:29.001Z</time></trkpt><trkpt lat="45.354268336312686" lon="8.908261197462666"><ele>87.19999999999999</ele><time>2026-04-18T13:44:30.001Z</time></trkpt><trkpt lat="45.35437380523875" lon="8.908277243002996"><ele>87.0</ele><time>2026-04-18T13:44:31.001Z</time></trkpt><trkpt lat="45.35447710061709" lon="8.908292957868952"><ele>87.0</ele><time>2026-04-18T13:44:32.001Z</time></trkpt><trkpt lat="45.354570156503826" lon="8.908307114956575"><ele>87.0</ele><time>2026-04-18T13:44:33.001Z</time></trkpt><trkpt lat="45.35465684472986" lon="8.908320303278774"><ele>87.0</ele><time>2026-04-18T13:44:34.001Z</time></trkpt><trkpt lat="45.35474086992354" lon="8.908333086271297"><ele>87.0</ele><time>2026-04-18T13:44:35.001Z</time></trkpt><trkpt lat="45.35481858276903" lon="8.908344764915771"><ele>87.0</ele><time>2026-04-18T13:44:36.001Z</time></trkpt><trkpt lat="45.354891664358206" lon="8.908355808631573"><ele>87.0</ele><time>2026-04-18T13:44:37.001Z</time></trkpt><trkpt lat="45.35501037679798" lon="8.90837374785242"><ele>87.0</ele><time>2026-04-18T13:44:39.001Z</time></trkpt><trkpt lat="45.35513240698188" lon="8.908392188443543"><ele>87.0</ele><time>2026-04-18T13:44:41.001Z</time></trkpt><trkpt lat="45.35520854223981" lon="8.908402545640362"><ele>87.0</ele><time>2026-04-18T13:44:42.001Z</time></trkpt><trkpt lat="45.35528938729635" lon="8.908413427356617"><ele>87.0</ele><time>2026-04-18T13:44:43.001Z</time></trkpt><trkpt lat="45.35537224642386" lon="8.908424580181077"><ele>87.0</ele><time>2026-04-18T13:44:44.001Z</time></trkpt><trkpt lat="45.355452933055496" lon="8.90843544057696"><ele>87.0</ele><time>2026-04-18T13:44:45.001Z</time></trkpt><trkpt lat="45.355535728371045" lon="8.908446584719345"><ele>87.0</ele><time>2026-04-18T13:44:46.001Z</time></trkpt><trkpt lat="45.355609533674105" lon="8.90843811894689"><ele>87.0</ele><time>2026-04-18T13:44:47.001Z</time></trkpt><trkpt lat="45.35568006504962" lon="8.90845355911925"><ele>87.0</ele><time>2026-04-18T13:44:48.001Z</time></trkpt><trkpt lat="45.355749420631675" lon="8.908456381869387"><ele>87.0</ele><time>2026-04-18T13:44:49.001Z</time></trkpt><trkpt lat="45.35581706069217" lon="8.908482736485329"><ele>87.0</ele><time>2026-04-18T13:44:50.001Z</time></trkpt><trkpt lat="45.35588981519785" lon="8.908492987237326"><ele>87.0</ele><time>2026-04-18T13:44:51.001Z</time></trkpt><trkpt lat="45.35597278180553" lon="8.908503496341533"><ele>87.0</ele><time>2026-04-18T13:44:52.001Z</time></trkpt><trkpt lat="45.356055439304015" lon="8.908514512876001"><ele>87.0</ele><time>2026-04-18T13:44:53.002Z</time></trkpt><trkpt lat="45.35612985532869" lon="8.908501451829238"><ele>87.0</ele><time>2026-04-18T13:44:54.002Z</time></trkpt><trkpt lat="45.3561992755044" lon="8.908511749996565"><ele>87.0</ele><time>2026-04-18T13:44:55.002Z</time></trkpt><trkpt lat="45.356265343804516" lon="8.90852095598335"><ele>87.0</ele><time>2026-04-18T13:44:56.002Z</time></trkpt><trkpt lat="45.35637951705511" lon="8.908537456226144"><ele>87.0</ele><time>2026-04-18T13:44:58.002Z</time></trkpt><trkpt lat="45.35648278959737" lon="8.908557703401213"><ele>87.0</ele><time>2026-04-18T13:45:00.002Z</time></trkpt><trkpt lat="45.35657774337392" lon="8.908577015133467"><ele>87.0</ele><time>2026-04-18T13:45:02.002Z</time></trkpt><trkpt lat="45.35664673307194" lon="8.908590596929491"><ele>87.0</ele><time>2026-04-18T13:45:03.002Z</time></trkpt><trkpt lat="45.356713598579766" lon="8.90860639000167"><ele>87.0</ele><time>2026-04-18T13:45:04.002Z</time></trkpt><trkpt lat="45.35684327341239" lon="8.908646241271143"><ele>87.0</ele><time>2026-04-18T13:45:06.002Z</time></trkpt><trkpt lat="45.3569126081935" lon="8.908677511692263"><ele>87.0</ele><time>2026-04-18T13:45:07.002Z</time></trkpt><trkpt lat="45.356966297171745" lon="8.908727918618057"><ele>87.0</ele><time>2026-04-18T13:45:08.002Z</time></trkpt><trkpt lat="45.357009707524966" lon="8.908793241940867"><ele>87.0</ele><time>2026-04-18T13:45:09.002Z</time></trkpt><trkpt lat="45.35704357806608" lon="8.908880200971804"><ele>87.0</ele><time>2026-04-18T13:45:10.002Z</time></trkpt><trkpt lat="45.35706732951908" lon="8.908979535910818"><ele>87.0</ele><time>2026-04-18T13:45:11.002Z</time></trkpt><trkpt lat="45.3571177705471" lon="8.909059396249441"><ele>87.0</ele><time>2026-04-18T13:45:12.002Z</time></trkpt><trkpt lat="45.35709591973094" lon="8.909217227433821"><ele>87.0</ele><time>2026-04-18T13:45:13.002Z</time></trkpt><trkpt lat="45.35710956325232" lon="8.90935077405713"><ele>87.0</ele><time>2026-04-18T13:45:14.002Z</time></trkpt><trkpt lat="45.35711875835097" lon="8.909496360116995"><ele>87.0</ele><time>2026-04-18T13:45:15.002Z</time></trkpt><trkpt lat="45.35711834692098" lon="8.909643735516227"><ele>87.0</ele><time>2026-04-18T13:45:16.002Z</time></trkpt><trkpt lat="45.35710330569617" lon="8.909800412144817"><ele>87.0</ele><time>2026-04-18T13:45:17.002Z</time></trkpt><trkpt lat="45.35707811654963" lon="8.909956054173021"><ele>87.0</ele><time>2026-04-18T13:45:18.002Z</time></trkpt><trkpt lat="45.357053691371675" lon="8.910115492712533"><ele>87.0</ele><time>2026-04-18T13:45:19.002Z</time></trkpt><trkpt lat="45.357023510019374" lon="8.910276430725263"><ele>86.75</ele><time>2026-04-18T13:45:20.002Z</time></trkpt><trkpt lat="45.3569912820724" lon="8.910438370329928"><ele>86.5</ele><time>2026-04-18T13:45:21.002Z</time></trkpt><trkpt lat="45.35696194650643" lon="8.910602150345927"><ele>86.25</ele><time>2026-04-18T13:45:22.002Z</time></trkpt><trkpt lat="45.356936721914295" lon="8.91076956909018"><ele>86.0</ele><time>2026-04-18T13:45:23.002Z</time></trkpt><trkpt lat="45.35692244293206" lon="8.91094389304338"><ele>85.75</ele><time>2026-04-18T13:45:24.002Z</time></trkpt><trkpt lat="45.35691303817924" lon="8.911121920628533"><ele>85.5</ele><time>2026-04-18T13:45:25.003Z</time></trkpt><trkpt lat="45.3569069191719" lon="8.911305175963184"><ele>85.25</ele><time>2026-04-18T13:45:26.003Z</time></trkpt><trkpt lat="45.35689994880996" lon="8.911485046730611"><ele>85.0</ele><time>2026-04-18T13:45:27.003Z</time></trkpt><trkpt lat="45.35689140072416" lon="8.911671258443967"><ele>85.5</ele><time>2026-04-18T13:45:28.003Z</time></trkpt><trkpt lat="45.35688201808293" lon="8.91186035861058"><ele>86.0</ele><time>2026-04-18T13:45:29.003Z</time></trkpt><trkpt lat="45.3568715894918" lon="8.91204980649962"><ele>86.5</ele><time>2026-04-18T13:45:30.003Z</time></trkpt><trkpt lat="45.35686329013247" lon="8.912221611020001"><ele>87.0</ele><time>2026-04-18T13:45:31.003Z</time></trkpt><trkpt lat="45.356854265208725" lon="8.912378061284251"><ele>87.0</ele><time>2026-04-18T13:45:32.003Z</time></trkpt><trkpt lat="45.35684090217143" lon="8.912521022323535"><ele>87.0</ele><time>2026-04-18T13:45:33.003Z</time></trkpt><trkpt lat="45.35682055291002" lon="8.912651727992108"><ele>87.0</ele><time>2026-04-18T13:45:34.003Z</time></trkpt><trkpt lat="45.35679245432573" lon="8.912769244126798"><ele>87.0</ele><time>2026-04-18T13:45:35.003Z</time></trkpt><trkpt lat="45.356762618229524" lon="8.912874142487178"><ele>87.0</ele><time>2026-04-18T13:45:36.003Z</time></trkpt><trkpt lat="45.35673998860355" lon="8.912979459714208"><ele>87.0</ele><time>2026-04-18T13:45:37.003Z</time></trkpt><trkpt lat="45.35672673413015" lon="8.913103475775285"><ele>87.19999999999999</ele><time>2026-04-18T13:45:38.003Z</time></trkpt><trkpt lat="45.35671065429979" lon="8.913234052430926"><ele>87.4</ele><time>2026-04-18T13:45:39.003Z</time></trkpt><trkpt lat="45.35669434135581" lon="8.913374856463424"><ele>87.6</ele><time>2026-04-18T13:45:40.003Z</time></trkpt><trkpt lat="45.35668547176571" lon="8.913525881565004"><ele>87.80000000000001</ele><time>2026-04-18T13:45:41.003Z</time></trkpt><trkpt lat="45.356692113651306" lon="8.913688142025732"><ele>88.0</ele><time>2026-04-18T13:45:42.003Z</time></trkpt><trkpt lat="45.35670039142795" lon="8.913852318746653"><ele>88.25</ele><time>2026-04-18T13:45:43.003Z</time></trkpt><trkpt lat="45.35672719741464" lon="8.914026415587"><ele>88.5</ele><time>2026-04-18T13:45:44.003Z</time></trkpt><trkpt lat="45.35675345728847" lon="8.914208292103746"><ele>88.75</ele><time>2026-04-18T13:45:45.003Z</time></trkpt><trkpt lat="45.35678012519826" lon="8.914398146789624"><ele>89.0</ele><time>2026-04-18T13:45:46.003Z</time></trkpt><trkpt lat="45.3568090764775" lon="8.91459554993677"><ele>89.0</ele><time>2026-04-18T13:45:47.003Z</time></trkpt><trkpt lat="45.35683788261452" lon="8.914794206181364"><ele>89.0</ele><time>2026-04-18T13:45:48.003Z</time></trkpt><trkpt lat="45.35687112482013" lon="8.915002899846058"><ele>89.0</ele><time>2026-04-18T13:45:49.003Z</time></trkpt><trkpt lat="45.356904879651466" lon="8.915214356885686"><ele>89.0</ele><time>2026-04-18T13:45:49.996Z</time></trkpt><trkpt lat="45.35693913070862" lon="8.915423348968037"><ele>89.33333333333334</ele><time>2026-04-18T13:45:50.996Z</time></trkpt><trkpt lat="45.356972575848104" lon="8.915632942822613"><ele>89.66666666666667</ele><time>2026-04-18T13:45:51.997Z</time></trkpt><trkpt lat="45.35700438928861" lon="8.915854871218846"><ele>90.0</ele><time>2026-04-18T13:45:52.997Z</time></trkpt><trkpt lat="45.35703624551624" lon="8.916086376287588"><ele>90.0</ele><time>2026-04-18T13:45:53.997Z</time></trkpt><trkpt lat="45.357070809040586" lon="8.916323750284471"><ele>90.0</ele><time>2026-04-18T13:45:54.997Z</time></trkpt><trkpt lat="45.357100726137816" lon="8.916572518404232"><ele>90.0</ele><time>2026-04-18T13:45:55.997Z</time></trkpt><trkpt lat="45.35712401786659" lon="8.916818359430525"><ele>90.25</ele><time>2026-04-18T13:45:56.997Z</time></trkpt><trkpt lat="45.35714693296315" lon="8.917044954108093"><ele>90.5</ele><time>2026-04-18T13:45:57.998Z</time></trkpt><trkpt lat="45.357170097713635" lon="8.917255607168894"><ele>90.75</ele><time>2026-04-18T13:45:58.998Z</time></trkpt><trkpt lat="45.357196576831676" lon="8.91744776799582"><ele>91.0</ele><time>2026-04-18T13:45:59.998Z</time></trkpt><trkpt lat="45.35722752089694" lon="8.917628081736627"><ele>91.5</ele><time>2026-04-18T13:46:00.998Z</time></trkpt><trkpt lat="45.35726979063267" lon="8.91781170636648"><ele>92.0</ele><time>2026-04-18T13:46:01.998Z</time></trkpt><trkpt lat="45.35732172093362" lon="8.917992592493238"><ele>92.5</ele><time>2026-04-18T13:46:02.998Z</time></trkpt><trkpt lat="45.35737969337301" lon="8.918178246917545"><ele>93.0</ele><time>2026-04-18T13:46:03.998Z</time></trkpt><trkpt lat="45.3574548970632" lon="8.918364271370372"><ele>93.66666666666667</ele><time>2026-04-18T13:46:04.998Z</time></trkpt><trkpt lat="45.3575395013679" lon="8.918549152198896"><ele>94.33333333333334</ele><time>2026-04-18T13:46:05.998Z</time></trkpt><trkpt lat="45.35763655432147" lon="8.918728951570776"><ele>95.0</ele><time>2026-04-18T13:46:06.999Z</time></trkpt><trkpt lat="45.357742565362706" lon="8.918904577158155"><ele>95.0</ele><time>2026-04-18T13:46:07.999Z</time></trkpt><trkpt lat="45.35786009874164" lon="8.919073344575946"><ele>95.0</ele><time>2026-04-18T13:46:08.999Z</time></trkpt><trkpt lat="45.35799324447193" lon="8.919226898807226"><ele>95.0</ele><time>2026-04-18T13:46:09.999Z</time></trkpt><trkpt lat="45.3581392285563" lon="8.919357811529522"><ele>94.66666666666667</ele><time>2026-04-18T13:46:10.999Z</time></trkpt><trkpt lat="45.35829615076529" lon="8.91949152356798"><ele>94.33333333333333</ele><time>2026-04-18T13:46:11.999Z</time></trkpt><trkpt lat="45.35844540484977" lon="8.91963412965053"><ele>94.0</ele><time>2026-04-18T13:46:12.999Z</time></trkpt><trkpt lat="45.35859927501717" lon="8.919789224868468"><ele>94.0</ele><time>2026-04-18T13:46:13.999Z</time></trkpt><trkpt lat="45.35875416657019" lon="8.919939592513213"><ele>94.0</ele><time>2026-04-18T13:46:14.999Z</time></trkpt><trkpt lat="45.35891705051593" lon="8.920092542287918"><ele>94.0</ele><time>2026-04-18T13:46:15.999Z</time></trkpt><trkpt lat="45.359083038585574" lon="8.92024511983775"><ele>94.0</ele><time>2026-04-18T13:46:17Z</time></trkpt><trkpt lat="45.35924895907056" lon="8.920396640783759"><ele>94.0</ele><time>2026-04-18T13:46:18Z</time></trkpt><trkpt lat="45.359401518633454" lon="8.920535323363826"><ele>94.0</ele><time>2026-04-18T13:46:19Z</time></trkpt><trkpt lat="45.359545141318165" lon="8.920668964679436"><ele>94.0</ele><time>2026-04-18T13:46:20Z</time></trkpt><trkpt lat="45.359686815516106" lon="8.920804055115855"><ele>94.0</ele><time>2026-04-18T13:46:21Z</time></trkpt><trkpt lat="45.35983029311794" lon="8.920936608402693"><ele>94.0</ele><time>2026-04-18T13:46:22Z</time></trkpt><trkpt lat="45.3599817357242" lon="8.921066021002819"><ele>94.0</ele><time>2026-04-18T13:46:23Z</time></trkpt><trkpt lat="45.36013813119349" lon="8.921174934826439"><ele>94.0</ele><time>2026-04-18T13:46:24Z</time></trkpt><trkpt lat="45.36030728647177" lon="8.921261033934108"><ele>94.0</ele><time>2026-04-18T13:46:25Z</time></trkpt><trkpt lat="45.360478864246836" lon="8.921332231020832"><ele>94.0</ele><time>2026-04-18T13:46:26Z</time></trkpt><trkpt lat="45.360654302007454" lon="8.921399552415217"><ele>94.0</ele><time>2026-04-18T13:46:27Z</time></trkpt><trkpt lat="45.36082497105198" lon="8.921494448030725"><ele>94.0</ele><time>2026-04-18T13:46:28Z</time></trkpt><trkpt lat="45.360996214669775" lon="8.921569525931616"><ele>94.0</ele><time>2026-04-18T13:46:29Z</time></trkpt><trkpt lat="45.36116942524684" lon="8.921644953568588"><ele>94.0</ele><time>2026-04-18T13:46:30Z</time></trkpt><trkpt lat="45.361344218954116" lon="8.921718491665105"><ele>94.0</ele><time>2026-04-18T13:46:31Z</time></trkpt><trkpt lat="45.361506284658276" lon="8.921784588007961"><ele>94.0</ele><time>2026-04-18T13:46:32Z</time></trkpt><trkpt lat="45.361668298483124" lon="8.921825129433913"><ele>94.0</ele><time>2026-04-18T13:46:33.001Z</time></trkpt><trkpt lat="45.36183421784892" lon="8.921889784532798"><ele>94.0</ele><time>2026-04-18T13:46:34.001Z</time></trkpt><trkpt lat="45.36199419229147" lon="8.92194623899877"><ele>94.0</ele><time>2026-04-18T13:46:35.001Z</time></trkpt><trkpt lat="45.36214149583452" lon="8.92199505060144"><ele>94.0</ele><time>2026-04-18T13:46:36.001Z</time></trkpt><trkpt lat="45.36229252658697" lon="8.922048396574173"><ele>94.0</ele><time>2026-04-18T13:46:37.001Z</time></trkpt><trkpt lat="45.36244210773786" lon="8.9221059497804"><ele>94.33333333333333</ele><time>2026-04-18T13:46:38.001Z</time></trkpt><trkpt lat="45.36260068507048" lon="8.922165322550805"><ele>94.66666666666667</ele><time>2026-04-18T13:46:39.001Z</time></trkpt><trkpt lat="45.36276099053019" lon="8.922219240282544"><ele>95.0</ele><time>2026-04-18T13:46:40.001Z</time></trkpt><trkpt lat="45.36292469519354" lon="8.922270145511941"><ele>95.0</ele><time>2026-04-18T13:46:41.001Z</time></trkpt><trkpt lat="45.36308387230411" lon="8.92232023069377"><ele>95.0</ele><time>2026-04-18T13:46:42.001Z</time></trkpt><trkpt lat="45.36323304713877" lon="8.92236913589521"><ele>95.0</ele><time>2026-04-18T13:46:43.001Z</time></trkpt><trkpt lat="45.36337388486214" lon="8.92241475935524"><ele>95.0</ele><time>2026-04-18T13:46:44.001Z</time></trkpt><trkpt lat="45.36350647277239" lon="8.92246278382624"><ele>95.0</ele><time>2026-04-18T13:46:45.001Z</time></trkpt><trkpt lat="45.36362268911165" lon="8.922505602171922"><ele>95.0</ele><time>2026-04-18T13:46:46.001Z</time></trkpt><trkpt lat="45.363718326545616" lon="8.922538441621839"><ele>95.0</ele><time>2026-04-18T13:46:47.001Z</time></trkpt><trkpt lat="45.363802798227184" lon="8.922567232630366"><ele>95.0</ele><time>2026-04-18T13:46:48.001Z</time></trkpt><trkpt lat="45.363883082710196" lon="8.922599398471226"><ele>95.28571428571429</ele><time>2026-04-18T13:46:49.001Z</time></trkpt><trkpt lat="45.36397395924116" lon="8.922661851357041"><ele>95.57142857142858</ele><time>2026-04-18T13:46:51.001Z</time></trkpt><trkpt lat="45.36400452192776" lon="8.922741865871076"><ele>95.85714285714286</ele><time>2026-04-18T13:46:54.001Z</time></trkpt><trkpt lat="45.364069218869595" lon="8.922777507132567"><ele>96.14285714285714</ele><time>2026-04-18T13:46:56.001Z</time></trkpt><trkpt lat="45.364134016320854" lon="8.922736898116082"><ele>96.42857142857143</ele><time>2026-04-18T13:46:57.001Z</time></trkpt><trkpt lat="45.364191435142125" lon="8.922675139737464"><ele>96.71428571428571</ele><time>2026-04-18T13:46:58.001Z</time></trkpt><trkpt lat="45.364261266266965" lon="8.922656435726514"><ele>97.0</ele><time>2026-04-18T13:46:59.002Z</time></trkpt><trkpt lat="45.36433914029509" lon="8.922625071647161"><ele>97.00000000000001</ele><time>2026-04-18T13:47:00.002Z</time></trkpt><trkpt lat="45.364421569692105" lon="8.922582577605077"><ele>97.0</ele><time>2026-04-18T13:47:01.002Z</time></trkpt><trkpt lat="45.36450492582863" lon="8.922528641012667"><ele>97.0</ele><time>2026-04-18T13:47:02.002Z</time></trkpt><trkpt lat="45.36457812544192" lon="8.922484505639094"><ele>97.0</ele><time>2026-04-18T13:47:03.002Z</time></trkpt><trkpt lat="45.36464320440577" lon="8.922457092826276"><ele>97.00000000000001</ele><time>2026-04-18T13:47:04.002Z</time></trkpt><trkpt lat="45.364704698214965" lon="8.92242818730699"><ele>97.0</ele><time>2026-04-18T13:47:05.002Z</time></trkpt><trkpt lat="45.364812881669046" lon="8.922526146164365"><ele>97.14285714285714</ele><time>2026-04-18T13:47:07.002Z</time></trkpt><trkpt lat="45.364861479441345" lon="8.92260211191962"><ele>97.28571428571429</ele><time>2026-04-18T13:47:08.002Z</time></trkpt><trkpt lat="45.36491010993386" lon="8.922675518016693"><ele>97.42857142857143</ele><time>2026-04-18T13:47:09.002Z</time></trkpt><trkpt lat="45.36496141036005" lon="8.922744326331578"><ele>97.57142857142857</ele><time>2026-04-18T13:47:10.002Z</time></trkpt><trkpt lat="45.36501995663591" lon="8.922807105877531"><ele>97.71428571428572</ele><time>2026-04-18T13:47:11.002Z</time></trkpt><trkpt lat="45.36506882971649" lon="8.922869114812642"><ele>97.85714285714286</ele><time>2026-04-18T13:47:12.002Z</time></trkpt><trkpt lat="45.36511394534776" lon="8.922931966676797"><ele>98.0</ele><time>2026-04-18T13:47:13.002Z</time></trkpt><trkpt lat="45.36516499391637" lon="8.922997827887633"><ele>97.99999999999999</ele><time>2026-04-18T13:47:14.002Z</time></trkpt><trkpt lat="45.36520990067311" lon="8.923074886956856"><ele>98.0</ele><time>2026-04-18T13:47:15.002Z</time></trkpt><trkpt lat="45.36525495654632" lon="8.923151748004884"><ele>98.0</ele><time>2026-04-18T13:47:16.002Z</time></trkpt><trkpt lat="45.365298194473155" lon="8.923225952696905"><ele>98.0</ele><time>2026-04-18T13:47:17.002Z</time></trkpt><trkpt lat="45.36534077204698" lon="8.923298663574148"><ele>97.99999999999999</ele><time>2026-04-18T13:47:18.002Z</time></trkpt><trkpt lat="45.365385594714965" lon="8.923372900251254"><ele>98.0</ele><time>2026-04-18T13:47:19.002Z</time></trkpt><trkpt lat="45.365467758739236" lon="8.923520345730806"><ele>98.71428571428571</ele><time>2026-04-18T13:47:21.002Z</time></trkpt><trkpt lat="45.3655066583364" lon="8.923603009666135"><ele>99.42857142857143</ele><time>2026-04-18T13:47:22.002Z</time></trkpt><trkpt lat="45.36554351530172" lon="8.923686380699607"><ele>100.14285714285714</ele><time>2026-04-18T13:47:23.002Z</time></trkpt><trkpt lat="45.36558096958879" lon="8.923770425959358"><ele>100.85714285714286</ele><time>2026-04-18T13:47:24.002Z</time></trkpt><trkpt lat="45.36561446219379" lon="8.923863632970898"><ele>101.57142857142857</ele><time>2026-04-18T13:47:25.002Z</time></trkpt><trkpt lat="45.36564401686561" lon="8.923966545517258"><ele>102.28571428571428</ele><time>2026-04-18T13:47:26.002Z</time></trkpt><trkpt lat="45.3656501089911" lon="8.924077751444418"><ele>103.0</ele><time>2026-04-18T13:47:27.002Z</time></trkpt><trkpt lat="45.365669880764145" lon="8.924183664266275"><ele>103.57142857142857</ele><time>2026-04-18T13:47:28.002Z</time></trkpt><trkpt lat="45.36568899322993" lon="8.924290992534175"><ele>104.14285714285714</ele><time>2026-04-18T13:47:29.002Z</time></trkpt><trkpt lat="45.365707917374806" lon="8.924397259622783"><ele>104.71428571428572</ele><time>2026-04-18T13:47:30.002Z</time></trkpt><trkpt lat="45.3657267388562" lon="8.924512491434038"><ele>105.28571428571428</ele><time>2026-04-18T13:47:31.003Z</time></trkpt><trkpt lat="45.36574368220633" lon="8.924617265112433"><ele>105.85714285714286</ele><time>2026-04-18T13:47:32.003Z</time></trkpt><trkpt lat="45.36575865648211" lon="8.924709860215742"><ele>106.42857142857143</ele><time>2026-04-18T13:47:33.003Z</time></trkpt><trkpt lat="45.36577319275656" lon="8.924802600207434"><ele>107.0</ele><time>2026-04-18T13:47:34.003Z</time></trkpt><trkpt lat="45.36578754935199" lon="8.92489272651838"><ele>106.99999999999999</ele><time>2026-04-18T13:47:35.003Z</time></trkpt><trkpt lat="45.3658119543264" lon="8.925051469460987"><ele>107.0</ele><time>2026-04-18T13:47:37.003Z</time></trkpt><trkpt lat="45.36584658402931" lon="8.925206277935864"><ele>107.0</ele><time>2026-04-18T13:47:39.003Z</time></trkpt><trkpt lat="45.365838710836734" lon="8.925296816271949"><ele>107.0</ele><time>2026-04-18T13:47:40.003Z</time></trkpt><trkpt lat="45.36586227461205" lon="8.925388021139353"><ele>106.99999999999999</ele><time>2026-04-18T13:47:41.003Z</time></trkpt><trkpt lat="45.36587273962954" lon="8.925501204148487"><ele>107.0</ele><time>2026-04-18T13:47:42.003Z</time></trkpt><trkpt lat="45.36588249173601" lon="8.925621877823325"><ele>106.6</ele><time>2026-04-18T13:47:43.003Z</time></trkpt><trkpt lat="45.36589927535925" lon="8.925753102019252"><ele>106.19999999999999</ele><time>2026-04-18T13:47:44.003Z</time></trkpt><trkpt lat="45.365943081470384" lon="8.925884471795076"><ele>105.8</ele><time>2026-04-18T13:47:45.003Z</time></trkpt><trkpt lat="45.36600992727052" lon="8.92600075787387"><ele>105.4</ele><time>2026-04-18T13:47:46.003Z</time></trkpt><trkpt lat="45.366101014771495" lon="8.926099081739583"><ele>105.0</ele><time>2026-04-18T13:47:47.003Z</time></trkpt><trkpt lat="45.36617371566752" lon="8.926195689586798"><ele>104.83333333333333</ele><time>2026-04-18T13:47:48.003Z</time></trkpt><trkpt lat="45.366229805446444" lon="8.926293531727449"><ele>104.66666666666666</ele><time>2026-04-18T13:47:49.003Z</time></trkpt><trkpt lat="45.3662780049746" lon="8.926399472099783"><ele>104.5</ele><time>2026-04-18T13:47:50.003Z</time></trkpt><trkpt lat="45.36632302124172" lon="8.926511112013868"><ele>104.33333333333333</ele><time>2026-04-18T13:47:51.003Z</time></trkpt><trkpt lat="45.366371358248195" lon="8.92662503399421"><ele>104.16666666666666</ele><time>2026-04-18T13:47:52.003Z</time></trkpt><trkpt lat="45.36641535874872" lon="8.926720798481844"><ele>104.0</ele><time>2026-04-18T13:47:53.003Z</time></trkpt><trkpt lat="45.366445833062116" lon="8.926809409678343"><ele>104.0</ele><time>2026-04-18T13:47:54.003Z</time></trkpt><trkpt lat="45.36647207595755" lon="8.926973058213122"><ele>104.0</ele><time>2026-04-18T13:47:55.996Z</time></trkpt><trkpt lat="45.366523573732195" lon="8.927088237618584"><ele>104.0</ele><time>2026-04-18T13:47:57.996Z</time></trkpt><trkpt lat="45.36660292199832" lon="8.927046320031003"><ele>104.0</ele><time>2026-04-18T13:47:58.997Z</time></trkpt><trkpt lat="45.366684493698536" lon="8.926891193045732"><ele>104.0</ele><time>2026-04-18T13:48:00.997Z</time></trkpt><trkpt lat="45.36672841897836" lon="8.926804862338816"><ele>104.0</ele><time>2026-04-18T13:48:01.997Z</time></trkpt><trkpt lat="45.36679841413126" lon="8.926736272437786"><ele>104.0</ele><time>2026-04-18T13:48:02.997Z</time></trkpt><trkpt lat="45.366891714849224" lon="8.926674087075014"><ele>104.0</ele><time>2026-04-18T13:48:03.997Z</time></trkpt><trkpt lat="45.36699277213687" lon="8.926619127274954"><ele>104.0</ele><time>2026-04-18T13:48:04.998Z</time></trkpt><trkpt lat="45.367100530984764" lon="8.926549728107643"><ele>104.0</ele><time>2026-04-18T13:48:05.998Z</time></trkpt><trkpt lat="45.36721284583136" lon="8.926468318599536"><ele>104.0</ele><time>2026-04-18T13:48:06.998Z</time></trkpt><trkpt lat="45.36731640468857" lon="8.926393071275413"><ele>104.0</ele><time>2026-04-18T13:48:07.998Z</time></trkpt><trkpt lat="45.367408833868865" lon="8.926332463556372"><ele>104.0</ele><time>2026-04-18T13:48:08.998Z</time></trkpt><trkpt lat="45.36749004028773" lon="8.926286071873237"><ele>104.0</ele><time>2026-04-18T13:48:09.998Z</time></trkpt><trkpt lat="45.36755647881867" lon="8.926246795760362"><ele>104.0</ele><time>2026-04-18T13:48:10.998Z</time></trkpt><trkpt lat="45.36765573470688" lon="8.926214125520382"><ele>104.0</ele><time>2026-04-18T13:48:12.999Z</time></trkpt><trkpt lat="45.36772654851511" lon="8.926207437448209"><ele>104.0</ele><time>2026-04-18T13:48:17.999Z</time></trkpt><trkpt lat="45.36783241744096" lon="8.926279011444198"><ele>104.0</ele><time>2026-04-18T13:48:21.999Z</time></trkpt><trkpt lat="45.36789766434339" lon="8.92642880250126"><ele>104.0</ele><time>2026-04-18T13:48:24Z</time></trkpt><trkpt lat="45.36792955904763" lon="8.92651728816341"><ele>104.0</ele><time>2026-04-18T13:48:25Z</time></trkpt><trkpt lat="45.36796278213859" lon="8.926616808304038"><ele>104.0</ele><time>2026-04-18T13:48:26Z</time></trkpt><trkpt lat="45.367996187586165" lon="8.926726467926974"><ele>104.0</ele><time>2026-04-18T13:48:27Z</time></trkpt><trkpt lat="45.368029972702885" lon="8.926843541766065"><ele>104.0</ele><time>2026-04-18T13:48:28Z</time></trkpt><trkpt lat="45.36806415371231" lon="8.926967563808596"><ele>104.0</ele><time>2026-04-18T13:48:29Z</time></trkpt><trkpt lat="45.36809982095689" lon="8.927103748303375"><ele>104.0</ele><time>2026-04-18T13:48:30Z</time></trkpt><trkpt lat="45.36813369915335" lon="8.927245139960284"><ele>104.4</ele><time>2026-04-18T13:48:31Z</time></trkpt><trkpt lat="45.36816858088145" lon="8.927385717338941"><ele>104.80000000000001</ele><time>2026-04-18T13:48:32Z</time></trkpt><trkpt lat="45.368205010753606" lon="8.927521197131142"><ele>105.19999999999999</ele><time>2026-04-18T13:48:33Z</time></trkpt><trkpt lat="45.36824260503249" lon="8.927657000195923"><ele>105.6</ele><time>2026-04-18T13:48:34Z</time></trkpt><trkpt lat="45.36828045607677" lon="8.927786928828073"><ele>106.0</ele><time>2026-04-18T13:48:35Z</time></trkpt><trkpt lat="45.368317265439316" lon="8.927897414750953"><ele>106.16666666666667</ele><time>2026-04-18T13:48:36Z</time></trkpt><trkpt lat="45.368357871571156" lon="8.927990954146352"><ele>106.33333333333334</ele><time>2026-04-18T13:48:37Z</time></trkpt><trkpt lat="45.36840409591138" lon="8.928069296750776"><ele>106.5</ele><time>2026-04-18T13:48:38.001Z</time></trkpt><trkpt lat="45.368458382409045" lon="8.928120469296378"><ele>106.66666666666666</ele><time>2026-04-18T13:48:39.001Z</time></trkpt><trkpt lat="45.368527082658915" lon="8.92815027595882"><ele>106.83333333333333</ele><time>2026-04-18T13:48:40.001Z</time></trkpt><trkpt lat="45.36861145326811" lon="8.928158474016422"><ele>107.0</ele><time>2026-04-18T13:48:41.001Z</time></trkpt><trkpt lat="45.368699934184384" lon="8.928155357698735"><ele>107.0</ele><time>2026-04-18T13:48:42.001Z</time></trkpt><trkpt lat="45.36879285127351" lon="8.92815421075702"><ele>106.99999999999999</ele><time>2026-04-18T13:48:43.001Z</time></trkpt><trkpt lat="45.36889312312756" lon="8.928165055981754"><ele>106.99999999999999</ele><time>2026-04-18T13:48:44.001Z</time></trkpt><trkpt lat="45.36899822474745" lon="8.928177150017243"><ele>107.0</ele><time>2026-04-18T13:48:45.001Z</time></trkpt><trkpt lat="45.36910779547297" lon="8.928185469924971"><ele>107.0</ele><time>2026-04-18T13:48:46.001Z</time></trkpt><trkpt lat="45.369221672163334" lon="8.928196733504908"><ele>107.25</ele><time>2026-04-18T13:48:47.001Z</time></trkpt><trkpt lat="45.36933715286015" lon="8.928209995185775"><ele>107.5</ele><time>2026-04-18T13:48:48.001Z</time></trkpt><trkpt lat="45.369452790843916" lon="8.928237379170806"><ele>107.75</ele><time>2026-04-18T13:48:49.001Z</time></trkpt><trkpt lat="45.369565825108495" lon="8.928285580731886"><ele>108.0</ele><time>2026-04-18T13:48:50.001Z</time></trkpt><trkpt lat="45.36967896900638" lon="8.928316730744626"><ele>107.75</ele><time>2026-04-18T13:48:51.001Z</time></trkpt><trkpt lat="45.36979906329711" lon="8.928336352708635"><ele>107.5</ele><time>2026-04-18T13:48:52.001Z</time></trkpt><trkpt lat="45.36991540422695" lon="8.928384107738529"><ele>107.25</ele><time>2026-04-18T13:48:53.001Z</time></trkpt><trkpt lat="45.37003206573597" lon="8.928426890126222"><ele>107.0</ele><time>2026-04-18T13:48:54.001Z</time></trkpt><trkpt lat="45.37015084652818" lon="8.928466338668603"><ele>106.75</ele><time>2026-04-18T13:48:55.001Z</time></trkpt><trkpt lat="45.370269876292184" lon="8.928508770307948"><ele>106.5</ele><time>2026-04-18T13:48:56.001Z</time></trkpt><trkpt lat="45.37038863744102" lon="8.928554766663087"><ele>106.25</ele><time>2026-04-18T13:48:57.001Z</time></trkpt><trkpt lat="45.3705070286661" lon="8.92860229043145"><ele>106.0</ele><time>2026-04-18T13:48:58.001Z</time></trkpt><trkpt lat="45.37062963162909" lon="8.928644701808762"><ele>106.8</ele><time>2026-04-18T13:48:59.001Z</time></trkpt><trkpt lat="45.370739516008555" lon="8.928662824473982"><ele>107.6</ele><time>2026-04-18T13:49:00.001Z</time></trkpt><trkpt lat="45.370856291981156" lon="8.928682951474102"><ele>108.4</ele><time>2026-04-18T13:49:01.001Z</time></trkpt><trkpt lat="45.37096443200776" lon="8.928701812145194"><ele>109.2</ele><time>2026-04-18T13:49:02.001Z</time></trkpt><trkpt lat="45.371063422011964" lon="8.92871854133079"><ele>110.0</ele><time>2026-04-18T13:49:03.002Z</time></trkpt><trkpt lat="45.37115446193629" lon="8.92873594153455"><ele>109.99999999999999</ele><time>2026-04-18T13:49:04.002Z</time></trkpt><trkpt lat="45.37125212660774" lon="8.92874968115936"><ele>110.0</ele><time>2026-04-18T13:49:05.002Z</time></trkpt><trkpt lat="45.371348164197315" lon="8.928776171025255"><ele>110.0</ele><time>2026-04-18T13:49:06.002Z</time></trkpt><trkpt lat="45.37144002262355" lon="8.92880397319768"><ele>110.0</ele><time>2026-04-18T13:49:07.002Z</time></trkpt><trkpt lat="45.37152124244105" lon="8.928834020159158"><ele>109.99999999999999</ele><time>2026-04-18T13:49:08.002Z</time></trkpt><trkpt lat="45.37159000687563" lon="8.928853897044414"><ele>110.0</ele><time>2026-04-18T13:49:09.002Z</time></trkpt><trkpt lat="45.37166370827004" lon="8.928888026126732"><ele>110.2</ele><time>2026-04-18T13:49:10.002Z</time></trkpt><trkpt lat="45.371737452389894" lon="8.928948719439793"><ele>110.4</ele><time>2026-04-18T13:49:11.002Z</time></trkpt><trkpt lat="45.371806783275595" lon="8.929041713104422"><ele>110.6</ele><time>2026-04-18T13:49:12.002Z</time></trkpt><trkpt lat="45.37186268930298" lon="8.929160089925523"><ele>110.8</ele><time>2026-04-18T13:49:13.002Z</time></trkpt><trkpt lat="45.371917685607364" lon="8.929292665656037"><ele>111.0</ele><time>2026-04-18T13:49:14.002Z</time></trkpt><trkpt lat="45.37197749423692" lon="8.929432784833246"><ele>111.0</ele><time>2026-04-18T13:49:15.002Z</time></trkpt><trkpt lat="45.372043381755276" lon="8.929583310663746"><ele>111.0</ele><time>2026-04-18T13:49:16.002Z</time></trkpt><trkpt lat="45.37210637371805" lon="8.92973623578602"><ele>111.0</ele><time>2026-04-18T13:49:17.002Z</time></trkpt><trkpt lat="45.37216982162373" lon="8.929897258109225"><ele>111.0</ele><time>2026-04-18T13:49:18.002Z</time></trkpt><trkpt lat="45.372236207573934" lon="8.930064219480066"><ele>110.5</ele><time>2026-04-18T13:49:19.002Z</time></trkpt><trkpt lat="45.37230065385461" lon="8.930236001841491"><ele>110.0</ele><time>2026-04-18T13:49:20.002Z</time></trkpt><trkpt lat="45.372363043589246" lon="8.930410733822159"><ele>109.5</ele><time>2026-04-18T13:49:21.002Z</time></trkpt><trkpt lat="45.372422657545634" lon="8.930585028445687"><ele>109.0</ele><time>2026-04-18T13:49:22.002Z</time></trkpt><trkpt lat="45.37248303281981" lon="8.930755164393979"><ele>109.0</ele><time>2026-04-18T13:49:23.002Z</time></trkpt><trkpt lat="45.37254423568028" lon="8.930931526558222"><ele>109.0</ele><time>2026-04-18T13:49:24.002Z</time></trkpt><trkpt lat="45.372605175970094" lon="8.931103523370174"><ele>109.0</ele><time>2026-04-18T13:49:25.002Z</time></trkpt><trkpt lat="45.37266741714477" lon="8.931277176459167"><ele>109.0</ele><time>2026-04-18T13:49:26.002Z</time></trkpt><trkpt lat="45.3727288088292" lon="8.93144927750431"><ele>109.0</ele><time>2026-04-18T13:49:27.002Z</time></trkpt><trkpt lat="45.37278899818557" lon="8.931625705606423"><ele>109.0</ele><time>2026-04-18T13:49:28.002Z</time></trkpt><trkpt lat="45.3728497919669" lon="8.931802074652573"><ele>109.0</ele><time>2026-04-18T13:49:29.002Z</time></trkpt><trkpt lat="45.37291201064022" lon="8.931982848402205"><ele>109.0</ele><time>2026-04-18T13:49:30.002Z</time></trkpt><trkpt lat="45.372972276807424" lon="8.932171583156563"><ele>109.25</ele><time>2026-04-18T13:49:31.002Z</time></trkpt><trkpt lat="45.37303150832707" lon="8.932358645385575"><ele>109.5</ele><time>2026-04-18T13:49:32.002Z</time></trkpt><trkpt lat="45.37309377908584" lon="8.932544627485745"><ele>109.75</ele><time>2026-04-18T13:49:33.002Z</time></trkpt><trkpt lat="45.37315790374846" lon="8.932731109837373"><ele>110.0</ele><time>2026-04-18T13:49:34.003Z</time></trkpt><trkpt lat="45.373222586166364" lon="8.932917369670204"><ele>110.25</ele><time>2026-04-18T13:49:35.003Z</time></trkpt><trkpt lat="45.373287590525734" lon="8.93310648175398"><ele>110.5</ele><time>2026-04-18T13:49:36.003Z</time></trkpt><trkpt lat="45.37335061278731" lon="8.933294565437503"><ele>110.75</ele><time>2026-04-18T13:49:37.003Z</time></trkpt><trkpt lat="45.37341596320727" lon="8.93348317470535"><ele>111.0</ele><time>2026-04-18T13:49:38.003Z</time></trkpt><trkpt lat="45.373480127462976" lon="8.93366530350008"><ele>111.0</ele><time>2026-04-18T13:49:39.003Z</time></trkpt><trkpt lat="45.37354213670567" lon="8.93384972402682"><ele>111.0</ele><time>2026-04-18T13:49:40.003Z</time></trkpt><trkpt lat="45.37360284179682" lon="8.93403426680237"><ele>111.0</ele><time>2026-04-18T13:49:41.003Z</time></trkpt><trkpt lat="45.37366640248274" lon="8.934217237529793"><ele>111.0</ele><time>2026-04-18T13:49:42.003Z</time></trkpt><trkpt lat="45.373731940516514" lon="8.934400993369088"><ele>111.0</ele><time>2026-04-18T13:49:43.003Z</time></trkpt><trkpt lat="45.37379322781893" lon="8.934583810134086"><ele>111.0</ele><time>2026-04-18T13:49:44.003Z</time></trkpt><trkpt lat="45.373855781318774" lon="8.934767268581073"><ele>111.0</ele><time>2026-04-18T13:49:45.003Z</time></trkpt><trkpt lat="45.37392013443837" lon="8.934952105317372"><ele>111.0</ele><time>2026-04-18T13:49:46.003Z</time></trkpt><trkpt lat="45.37397522772935" lon="8.935140659322624"><ele>111.0</ele><time>2026-04-18T13:49:47.003Z</time></trkpt><trkpt lat="45.374029311746575" lon="8.935330665627433"><ele>111.0</ele><time>2026-04-18T13:49:48.003Z</time></trkpt><trkpt lat="45.374087622683014" lon="8.935518114801175"><ele>111.0</ele><time>2026-04-18T13:49:49.003Z</time></trkpt><trkpt lat="45.3741485361527" lon="8.935703375489497"><ele>111.0</ele><time>2026-04-18T13:49:50.003Z</time></trkpt><trkpt lat="45.37420768927014" lon="8.935886943090512"><ele>111.0</ele><time>2026-04-18T13:49:51.003Z</time></trkpt><trkpt lat="45.37426687837685" lon="8.936069912476547"><ele>111.0</ele><time>2026-04-18T13:49:52.003Z</time></trkpt><trkpt lat="45.37433194145015" lon="8.936248360651446"><ele>111.0</ele><time>2026-04-18T13:49:53.003Z</time></trkpt><trkpt lat="45.37439817193099" lon="8.936426646109373"><ele>111.0</ele><time>2026-04-18T13:49:54.003Z</time></trkpt><trkpt lat="45.37446323326726" lon="8.93660717184279"><ele>111.0</ele><time>2026-04-18T13:49:55.003Z</time></trkpt><trkpt lat="45.37452418552237" lon="8.936781625417751"><ele>111.0</ele><time>2026-04-18T13:49:56.003Z</time></trkpt><trkpt lat="45.37458634544215" lon="8.936943820392493"><ele>111.0</ele><time>2026-04-18T13:49:57.003Z</time></trkpt><trkpt lat="45.37464357225925" lon="8.93709096682419"><ele>111.0</ele><time>2026-04-18T13:49:58.003Z</time></trkpt><trkpt lat="45.37469587945661" lon="8.93723054108513"><ele>110.66666666666667</ele><time>2026-04-18T13:49:59.003Z</time></trkpt><trkpt lat="45.3747436872722" lon="8.937355579353216"><ele>110.33333333333334</ele><time>2026-04-18T13:50:00.003Z</time></trkpt><trkpt lat="45.37478791031818" lon="8.937472656983054"><ele>110.0</ele><time>2026-04-18T13:50:01.003Z</time></trkpt><trkpt lat="45.374827952847134" lon="8.937584675285214"><ele>109.66666666666667</ele><time>2026-04-18T13:50:01.996Z</time></trkpt><trkpt lat="45.37487289031706" lon="8.93768544095776"><ele>109.33333333333334</ele><time>2026-04-18T13:50:02.996Z</time></trkpt><trkpt lat="45.37492767649304" lon="8.937767197434951"><ele>109.0</ele><time>2026-04-18T13:50:03.996Z</time></trkpt><trkpt lat="45.37497910955988" lon="8.937832668322917"><ele>109.66666666666667</ele><time>2026-04-18T13:50:04.997Z</time></trkpt><trkpt lat="45.37502399558785" lon="8.937921728158564"><ele>110.33333333333334</ele><time>2026-04-18T13:50:05.997Z</time></trkpt><trkpt lat="45.37508332024548" lon="8.938045056793905"><ele>111.0</ele><time>2026-04-18T13:50:07.997Z</time></trkpt><trkpt lat="45.375125202742964" lon="8.93813038942027"><ele>111.66666666666666</ele><time>2026-04-18T13:50:09.997Z</time></trkpt><trkpt lat="45.37515941966245" lon="8.938223301348085"><ele>112.33333333333333</ele><time>2026-04-18T13:50:33Z</time></trkpt><trkpt lat="45.375209873745916" lon="8.938333541798874"><ele>113.0</ele><time>2026-04-18T13:50:35Z</time></trkpt><trkpt lat="45.375231624039806" lon="8.938422864651576"><ele>112.99999999999999</ele><time>2026-04-18T13:50:38Z</time></trkpt><trkpt lat="45.37524975107932" lon="8.938545559429356"><ele>113.0</ele><time>2026-04-18T13:50:59.001Z</time></trkpt><trkpt lat="45.37529501118907" lon="8.938640590400173"><ele>113.0</ele><time>2026-04-18T13:51:32.002Z</time></trkpt><trkpt lat="45.37532763893382" lon="8.938740869149447"><ele>113.0</ele><time>2026-04-18T13:51:34.002Z</time></trkpt><trkpt lat="45.37535885859696" lon="8.938860139150927"><ele>112.99999999999999</ele><time>2026-04-18T13:51:36.002Z</time></trkpt><trkpt lat="45.37538911516688" lon="8.93896613583102"><ele>113.0</ele><time>2026-04-18T13:51:38.002Z</time></trkpt><trkpt lat="45.37541991091549" lon="8.939074310394512"><ele>113.0</ele><time>2026-04-18T13:51:40.002Z</time></trkpt><trkpt lat="45.37543757969256" lon="8.939188563957488"><ele>113.00000000000001</ele><time>2026-04-18T13:51:42.002Z</time></trkpt><trkpt lat="45.375479572134076" lon="8.939291710230474"><ele>113.00000000000001</ele><time>2026-04-18T13:51:44.002Z</time></trkpt><trkpt lat="45.37551715062523" lon="8.939402020072611"><ele>113.0</ele><time>2026-04-18T13:51:46.003Z</time></trkpt><trkpt lat="45.375550600367376" lon="8.939539793767812"><ele>113.0</ele><time>2026-04-18T13:51:48.003Z</time></trkpt><trkpt lat="45.375602409368405" lon="8.939685321935068"><ele>112.99999999999999</ele><time>2026-04-18T13:51:50.003Z</time></trkpt><trkpt lat="45.375658634029726" lon="8.939833365215557"><ele>113.0</ele><time>2026-04-18T13:51:52.003Z</time></trkpt><trkpt lat="45.37568774561675" lon="8.939918112388478"><ele>113.0</ele><time>2026-04-18T13:51:53.003Z</time></trkpt><trkpt lat="45.37571846992892" lon="8.940012907701501"><ele>113.0</ele><time>2026-04-18T13:51:54.003Z</time></trkpt><trkpt lat="45.37575699535316" lon="8.94011067970998"><ele>112.99999999999999</ele><time>2026-04-18T13:51:55.003Z</time></trkpt><trkpt lat="45.37578199707405" lon="8.940211668643903"><ele>113.0</ele><time>2026-04-18T13:51:56.003Z</time></trkpt><trkpt lat="45.37585092188134" lon="8.940356784609552"><ele>113.0</ele><time>2026-04-18T13:51:58.003Z</time></trkpt><trkpt lat="45.37591153038204" lon="8.940526126683169"><ele>113.00000000000001</ele><time>2026-04-18T13:52:00.003Z</time></trkpt><trkpt lat="45.37595177507258" lon="8.940621139061182"><ele>113.00000000000001</ele><time>2026-04-18T13:52:01.003Z</time></trkpt><trkpt lat="45.375995825600846" lon="8.94072635638842"><ele>113.0</ele><time>2026-04-18T13:52:02.003Z</time></trkpt><trkpt lat="45.37604065795701" lon="8.94083320362022"><ele>113.0</ele><time>2026-04-18T13:52:03.003Z</time></trkpt><trkpt lat="45.37608491019397" lon="8.940934333435617"><ele>112.66666666666666</ele><time>2026-04-18T13:52:04.003Z</time></trkpt><trkpt lat="45.3761284220357" lon="8.941029996636443"><ele>112.33333333333333</ele><time>2026-04-18T13:52:05.003Z</time></trkpt><trkpt lat="45.37615062464465" lon="8.941114337381226"><ele>112.0</ele><time>2026-04-18T13:52:06.003Z</time></trkpt><trkpt lat="45.37620930042335" lon="8.941251140458483"><ele>111.66666666666666</ele><time>2026-04-18T13:52:07.997Z</time></trkpt><trkpt lat="45.37625591950728" lon="8.941317511020134"><ele>111.33333333333333</ele><time>2026-04-18T13:52:08.997Z</time></trkpt><trkpt lat="45.376291651851886" lon="8.941406070930373"><ele>111.0</ele><time>2026-04-18T13:52:09.997Z</time></trkpt><trkpt lat="45.37631542498834" lon="8.941511381215577"><ele>111.19999999999999</ele><time>2026-04-18T13:52:10.997Z</time></trkpt><trkpt lat="45.37635899189226" lon="8.941603958627676"><ele>111.39999999999999</ele><time>2026-04-18T13:52:11.997Z</time></trkpt><trkpt lat="45.376396593088835" lon="8.941716752740616"><ele>111.6</ele><time>2026-04-18T13:52:12.997Z</time></trkpt><trkpt lat="45.37644103841852" lon="8.941834722478527"><ele>111.8</ele><time>2026-04-18T13:52:13.998Z</time></trkpt><trkpt lat="45.37649212010044" lon="8.94195748721828"><ele>112.0</ele><time>2026-04-18T13:52:14.998Z</time></trkpt><trkpt lat="45.37653608715146" lon="8.942071293849072"><ele>112.00000000000001</ele><time>2026-04-18T13:52:15.998Z</time></trkpt><trkpt lat="45.37657225645235" lon="8.942170059224523"><ele>112.0</ele><time>2026-04-18T13:52:16.998Z</time></trkpt><trkpt lat="45.376602945445946" lon="8.942253250718954"><ele>112.0</ele><time>2026-04-18T13:52:17.998Z</time></trkpt><trkpt lat="45.37664399131049" lon="8.942351837181176"><ele>112.0</ele><time>2026-04-18T13:52:19.998Z</time></trkpt><trkpt lat="45.376585949974285" lon="8.94224148338408"><ele>112.00000000000001</ele><time>2026-04-18T13:52:42Z</time></trkpt><trkpt lat="45.37654114251339" lon="8.942099269052695"><ele>112.0</ele><time>2026-04-18T13:52:44Z</time></trkpt><trkpt lat="45.37648978984261" lon="8.941957469242263"><ele>112.0</ele><time>2026-04-18T13:52:45Z</time></trkpt><trkpt lat="45.376436054500715" lon="8.941853996208152"><ele>111.99999999999999</ele><time>2026-04-18T13:52:46Z</time></trkpt><trkpt lat="45.376383263653146" lon="8.941717529350182"><ele>111.99999999999999</ele><time>2026-04-18T13:52:48Z</time></trkpt><trkpt lat="45.37633299646493" lon="8.941587586806254"><ele>112.0</ele><time>2026-04-18T13:52:50Z</time></trkpt><trkpt lat="45.376289447667986" lon="8.941475009028563"><ele>112.0</ele><time>2026-04-18T13:52:52.001Z</time></trkpt><trkpt lat="45.37627121114296" lon="8.94137642129537"><ele>112.25</ele><time>2026-04-18T13:52:54.001Z</time></trkpt><trkpt lat="45.376374915514134" lon="8.941231340491065"><ele>112.5</ele><time>2026-04-18T13:52:57.001Z</time></trkpt><trkpt lat="45.376476855695294" lon="8.941164588967771"><ele>112.75</ele><time>2026-04-18T13:52:59.001Z</time></trkpt><trkpt lat="45.376609174477004" lon="8.941106380739333"><ele>113.0</ele><time>2026-04-18T13:53:01.001Z</time></trkpt><trkpt lat="45.37668222023392" lon="8.941061454020259"><ele>112.99999999999999</ele><time>2026-04-18T13:53:02.001Z</time></trkpt><trkpt lat="45.37675193435937" lon="8.94100855391181"><ele>113.0</ele><time>2026-04-18T13:53:03.001Z</time></trkpt><trkpt lat="45.37682208017506" lon="8.940951505023506"><ele>113.0</ele><time>2026-04-18T13:53:04.001Z</time></trkpt><trkpt lat="45.37690140396402" lon="8.940906406801053"><ele>113.0</ele><time>2026-04-18T13:53:05.001Z</time></trkpt><trkpt lat="45.376979696432464" lon="8.94085549698525"><ele>112.99999999999999</ele><time>2026-04-18T13:53:06.001Z</time></trkpt><trkpt lat="45.37705951319402" lon="8.940794470564574"><ele>113.0</ele><time>2026-04-18T13:53:07.001Z</time></trkpt><trkpt lat="45.377139863364675" lon="8.940737495480445"><ele>112.80000000000001</ele><time>2026-04-18T13:53:08.001Z</time></trkpt><trkpt lat="45.37722038702516" lon="8.940680863093252"><ele>112.60000000000001</ele><time>2026-04-18T13:53:09.001Z</time></trkpt><trkpt lat="45.37730798199198" lon="8.940620247917545"><ele>112.39999999999999</ele><time>2026-04-18T13:53:10.001Z</time></trkpt><trkpt lat="45.37739267593498" lon="8.940563582201287"><ele>112.19999999999999</ele><time>2026-04-18T13:53:11.001Z</time></trkpt><trkpt lat="45.377478543901056" lon="8.940501917951643"><ele>112.0</ele><time>2026-04-18T13:53:12.001Z</time></trkpt><trkpt lat="45.37756459511324" lon="8.940439584941856"><ele>112.0</ele><time>2026-04-18T13:53:13.001Z</time></trkpt><trkpt lat="45.37765223405689" lon="8.940375822631953"><ele>111.99999999999999</ele><time>2026-04-18T13:53:14.001Z</time></trkpt><trkpt lat="45.37774107920008" lon="8.940311150067917"><ele>111.99999999999999</ele><time>2026-04-18T13:53:15.001Z</time></trkpt><trkpt lat="45.377829979513436" lon="8.94024704322041"><ele>112.0</ele><time>2026-04-18T13:53:16.001Z</time></trkpt><trkpt lat="45.37792228512295" lon="8.940185660297207"><ele>112.0</ele><time>2026-04-18T13:53:17.001Z</time></trkpt><trkpt lat="45.378011280177404" lon="8.94012119336517"><ele>112.0</ele><time>2026-04-18T13:53:18.001Z</time></trkpt><trkpt lat="45.37810163564988" lon="8.940053978407928"><ele>111.99999999999999</ele><time>2026-04-18T13:53:19.002Z</time></trkpt><trkpt lat="45.37819311333356" lon="8.939989718225878"><ele>111.99999999999999</ele><time>2026-04-18T13:53:20.002Z</time></trkpt><trkpt lat="45.378288050761014" lon="8.939922321217539"><ele>112.0</ele><time>2026-04-18T13:53:21.002Z</time></trkpt><trkpt lat="45.37838095980317" lon="8.939853684285266"><ele>112.0</ele><time>2026-04-18T13:53:22.002Z</time></trkpt><trkpt lat="45.37847597225291" lon="8.939788764040065"><ele>112.0</ele><time>2026-04-18T13:53:23.002Z</time></trkpt><trkpt lat="45.37856816532837" lon="8.939723097920458"><ele>111.99999999999999</ele><time>2026-04-18T13:53:24.002Z</time></trkpt><trkpt lat="45.37865789500918" lon="8.93965493990738"><ele>111.99999999999999</ele><time>2026-04-18T13:53:25.002Z</time></trkpt><trkpt lat="45.37875136814835" lon="8.939585109613665"><ele>112.0</ele><time>2026-04-18T13:53:26.002Z</time></trkpt><trkpt lat="45.37884471636494" lon="8.939514916126905"><ele>112.0</ele><time>2026-04-18T13:53:27.002Z</time></trkpt><trkpt lat="45.37893854456479" lon="8.93944564267536"><ele>112.0</ele><time>2026-04-18T13:53:28.002Z</time></trkpt><trkpt lat="45.37903238974471" lon="8.93937409460912"><ele>111.99999999999999</ele><time>2026-04-18T13:53:29.002Z</time></trkpt><trkpt lat="45.37912851778911" lon="8.9393035500142"><ele>111.99999999999999</ele><time>2026-04-18T13:53:30.002Z</time></trkpt><trkpt lat="45.379226288843604" lon="8.9392314885218"><ele>112.0</ele><time>2026-04-18T13:53:31.002Z</time></trkpt><trkpt lat="45.37932684551083" lon="8.9391585785605"><ele>112.0</ele><time>2026-04-18T13:53:32.002Z</time></trkpt><trkpt lat="45.379418743418036" lon="8.939077049376786"><ele>112.25</ele><time>2026-04-18T13:53:33.002Z</time></trkpt><trkpt lat="45.37952579017073" lon="8.939012953679498"><ele>112.5</ele><time>2026-04-18T13:53:34.002Z</time></trkpt><trkpt lat="45.37962649864636" lon="8.938943983826134"><ele>112.75</ele><time>2026-04-18T13:53:35.002Z</time></trkpt><trkpt lat="45.37973567932065" lon="8.93886109558103"><ele>113.0</ele><time>2026-04-18T13:53:36.002Z</time></trkpt><trkpt lat="45.37985389395077" lon="8.938784142906837"><ele>112.4</ele><time>2026-04-18T13:53:37.002Z</time></trkpt><trkpt lat="45.379964650899225" lon="8.938706498228523"><ele>111.80000000000001</ele><time>2026-04-18T13:53:38.002Z</time></trkpt><trkpt lat="45.380071985100095" lon="8.938631636407454"><ele>111.2</ele><time>2026-04-18T13:53:39.002Z</time></trkpt><trkpt lat="45.38016157062657" lon="8.93856432491008"><ele>110.6</ele><time>2026-04-18T13:53:40.002Z</time></trkpt><trkpt lat="45.38025627952097" lon="8.938500863147736"><ele>110.0</ele><time>2026-04-18T13:53:41.002Z</time></trkpt><trkpt lat="45.38033652041967" lon="8.938440593497837"><ele>109.99999999999999</ele><time>2026-04-18T13:53:42.002Z</time></trkpt><trkpt lat="45.38041238942734" lon="8.93839198842871"><ele>110.0</ele><time>2026-04-18T13:53:43.002Z</time></trkpt><trkpt lat="45.38048354450125" lon="8.938341645365343"><ele>110.0</ele><time>2026-04-18T13:53:44.002Z</time></trkpt><trkpt lat="45.3805441031706" lon="8.938295238552241"><ele>110.0</ele><time>2026-04-18T13:53:45.002Z</time></trkpt><trkpt lat="45.380602724458456" lon="8.938247915326237"><ele>109.99999999999999</ele><time>2026-04-18T13:53:46.002Z</time></trkpt><trkpt lat="45.380697494221984" lon="8.938181815735426"><ele>110.0</ele><time>2026-04-18T13:53:48.002Z</time></trkpt><trkpt lat="45.38077282132937" lon="8.93813936081072"><ele>109.99999999999999</ele><time>2026-04-18T13:53:51.002Z</time></trkpt><trkpt lat="45.38070882406367" lon="8.938150578463159"><ele>110.0</ele><time>2026-04-18T13:54:26.998Z</time></trkpt><trkpt lat="45.38065033936893" lon="8.938184525174272"><ele>110.0</ele><time>2026-04-18T13:54:36.999Z</time></trkpt><trkpt lat="45.380560721103066" lon="8.93824796163975"><ele>110.0</ele><time>2026-04-18T13:54:38.999Z</time></trkpt><trkpt lat="45.38045944511897" lon="8.938328949373373"><ele>109.99999999999999</ele><time>2026-04-18T13:54:40.999Z</time></trkpt><trkpt lat="45.380400836520444" lon="8.938371969811309"><ele>110.0</ele><time>2026-04-18T13:54:42Z</time></trkpt><trkpt lat="45.38032126649724" lon="8.93842803443873"><ele>110.0</ele><time>2026-04-18T13:54:43Z</time></trkpt><trkpt lat="45.3802389869471" lon="8.938483902875001"><ele>110.0</ele><time>2026-04-18T13:54:44Z</time></trkpt><trkpt lat="45.38014453633331" lon="8.938552071643358"><ele>110.0</ele><time>2026-04-18T13:54:45Z</time></trkpt><trkpt lat="45.38004763170024" lon="8.938623699224367"><ele>110.0</ele><time>2026-04-18T13:54:46Z</time></trkpt><trkpt lat="45.37994782353275" lon="8.938692213113423"><ele>110.0</ele><time>2026-04-18T13:54:47Z</time></trkpt><trkpt lat="45.379852446361" lon="8.938755189711376"><ele>110.0</ele><time>2026-04-18T13:54:48Z</time></trkpt><trkpt lat="45.37975124587397" lon="8.938826661787058"><ele>110.0</ele><time>2026-04-18T13:54:49Z</time></trkpt><trkpt lat="45.37965096192695" lon="8.938892457049802"><ele>110.0</ele><time>2026-04-18T13:54:50Z</time></trkpt><trkpt lat="45.3795534163207" lon="8.938966684975908"><ele>110.0</ele><time>2026-04-18T13:54:51Z</time></trkpt><trkpt lat="45.37945124848478" lon="8.939040495671863"><ele>110.0</ele><time>2026-04-18T13:54:52Z</time></trkpt><trkpt lat="45.37935458737163" lon="8.93910878341868"><ele>110.4</ele><time>2026-04-18T13:54:53Z</time></trkpt><trkpt lat="45.37925483017995" lon="8.939180515480636"><ele>110.8</ele><time>2026-04-18T13:54:54Z</time></trkpt><trkpt lat="45.37915783898451" lon="8.939247873081095"><ele>111.19999999999999</ele><time>2026-04-18T13:54:55Z</time></trkpt><trkpt lat="45.379057758160016" lon="8.939315103094396"><ele>111.6</ele><time>2026-04-18T13:54:56Z</time></trkpt><trkpt lat="45.37895650522242" lon="8.939393195802317"><ele>112.0</ele><time>2026-04-18T13:54:57.001Z</time></trkpt><trkpt lat="45.37885701154819" lon="8.939464422067083"><ele>112.0</ele><time>2026-04-18T13:54:58.001Z</time></trkpt><trkpt lat="45.37875823715994" lon="8.939538386750955"><ele>111.99999999999999</ele><time>2026-04-18T13:54:59.001Z</time></trkpt><trkpt lat="45.378660063189876" lon="8.939614236753247"><ele>111.99999999999999</ele><time>2026-04-18T13:55:00.001Z</time></trkpt><trkpt lat="45.3785612692662" lon="8.939689708715006"><ele>112.0</ele><time>2026-04-18T13:55:01.001Z</time></trkpt><trkpt lat="45.378464431069695" lon="8.939763597113451"><ele>112.0</ele><time>2026-04-18T13:55:02.001Z</time></trkpt><trkpt lat="45.37836925152652" lon="8.939833857586875"><ele>112.0</ele><time>2026-04-18T13:55:03.001Z</time></trkpt><trkpt lat="45.378270067364404" lon="8.939900575296695"><ele>112.0</ele><time>2026-04-18T13:55:04.001Z</time></trkpt><trkpt lat="45.37816845273903" lon="8.939972879637699"><ele>112.0</ele><time>2026-04-18T13:55:05.001Z</time></trkpt><trkpt lat="45.378067396631636" lon="8.940047116455666"><ele>112.0</ele><time>2026-04-18T13:55:06.001Z</time></trkpt><trkpt lat="45.37796627293589" lon="8.94011936106079"><ele>112.0</ele><time>2026-04-18T13:55:07.001Z</time></trkpt><trkpt lat="45.37786169714246" lon="8.940190775837042"><ele>112.0</ele><time>2026-04-18T13:55:08.001Z</time></trkpt><trkpt lat="45.37775831493437" lon="8.940261733235017"><ele>112.0</ele><time>2026-04-18T13:55:09.001Z</time></trkpt><trkpt lat="45.37765607904162" lon="8.940335215115459"><ele>112.0</ele><time>2026-04-18T13:55:10.001Z</time></trkpt><trkpt lat="45.377552675126324" lon="8.940407988486717"><ele>112.0</ele><time>2026-04-18T13:55:11.001Z</time></trkpt><trkpt lat="45.377447868370936" lon="8.940482496938866"><ele>111.99999999999999</ele><time>2026-04-18T13:55:12.001Z</time></trkpt><trkpt lat="45.377355008060924" lon="8.940548703939069"><ele>111.99999999999999</ele><time>2026-04-18T13:55:13.001Z</time></trkpt><trkpt lat="45.377273948424225" lon="8.940608318926447"><ele>112.0</ele><time>2026-04-18T13:55:14.001Z</time></trkpt><trkpt lat="45.377200062368146" lon="8.940659526335825"><ele>112.0</ele><time>2026-04-18T13:55:15.001Z</time></trkpt><trkpt lat="45.377132615788994" lon="8.940706874272887"><ele>112.00000000000001</ele><time>2026-04-18T13:55:16.001Z</time></trkpt><trkpt lat="45.37706955197545" lon="8.940753531313892"><ele>112.0</ele><time>2026-04-18T13:55:17.001Z</time></trkpt><trkpt lat="45.37698967207096" lon="8.940808068024568"><ele>112.0</ele><time>2026-04-18T13:55:18.001Z</time></trkpt><trkpt lat="45.376906618867906" lon="8.940866320391759"><ele>112.0</ele><time>2026-04-18T13:55:19.001Z</time></trkpt><trkpt lat="45.37683614714727" lon="8.940917211701255"><ele>112.00000000000001</ele><time>2026-04-18T13:55:20.001Z</time></trkpt><trkpt lat="45.37677108158081" lon="8.940956905243022"><ele>112.0</ele><time>2026-04-18T13:55:21.002Z</time></trkpt><trkpt lat="45.37670597584247" lon="8.9409867503139"><ele>112.0</ele><time>2026-04-18T13:55:22.002Z</time></trkpt><trkpt lat="45.37659458678035" lon="8.941034156929424"><ele>112.0</ele><time>2026-04-18T13:55:24.002Z</time></trkpt><trkpt lat="45.376490611866465" lon="8.941025404619342"><ele>112.0</ele><time>2026-04-18T13:55:26.002Z</time></trkpt><trkpt lat="45.37644593515432" lon="8.940753281585126"><ele>112.0</ele><time>2026-04-18T13:55:28.002Z</time></trkpt><trkpt lat="45.376413323387794" lon="8.940659013228395"><ele>112.00000000000001</ele><time>2026-04-18T13:55:29.002Z</time></trkpt><trkpt lat="45.37637702547387" lon="8.940557439559017"><ele>112.0</ele><time>2026-04-18T13:55:30.002Z</time></trkpt><trkpt lat="45.376335407686256" lon="8.94045634200116"><ele>112.0</ele><time>2026-04-18T13:55:31.002Z</time></trkpt><trkpt lat="45.376293870095246" lon="8.940364250301947"><ele>112.0</ele><time>2026-04-18T13:55:32.002Z</time></trkpt><trkpt lat="45.37624267580345" lon="8.940267247508194"><ele>112.00000000000001</ele><time>2026-04-18T13:55:33.002Z</time></trkpt><trkpt lat="45.376190829246895" lon="8.940179772476501"><ele>112.0</ele><time>2026-04-18T13:55:34.002Z</time></trkpt><trkpt lat="45.376145580756486" lon="8.940109168892347"><ele>112.39999999999999</ele><time>2026-04-18T13:55:35.002Z</time></trkpt><trkpt lat="45.376064144485184" lon="8.93999495430125"><ele>112.79999999999998</ele><time>2026-04-18T13:55:37.002Z</time></trkpt><trkpt lat="45.37596184622513" lon="8.93989521433055"><ele>113.2</ele><time>2026-04-18T13:55:39.002Z</time></trkpt><trkpt lat="45.37587230470981" lon="8.939773162182462"><ele>113.6</ele><time>2026-04-18T13:55:41.002Z</time></trkpt><trkpt lat="45.37581554795656" lon="8.939718553775167"><ele>114.0</ele><time>2026-04-18T13:55:42.002Z</time></trkpt><trkpt lat="45.375751057850316" lon="8.939665270212888"><ele>114.0</ele><time>2026-04-18T13:55:43.002Z</time></trkpt><trkpt lat="45.37568495476317" lon="8.939625355147943"><ele>114.0</ele><time>2026-04-18T13:55:44.002Z</time></trkpt><trkpt lat="45.37558022946107" lon="8.939536773341677"><ele>114.0</ele><time>2026-04-18T13:55:46.002Z</time></trkpt><trkpt lat="45.37553967530762" lon="8.939446508702158"><ele>114.0</ele><time>2026-04-18T13:55:47.002Z</time></trkpt><trkpt lat="45.375518365570464" lon="8.939334800135333"><ele>114.0</ele><time>2026-04-18T13:55:48.002Z</time></trkpt><trkpt lat="45.375489194540286" lon="8.939238781326285"><ele>114.0</ele><time>2026-04-18T13:55:49.002Z</time></trkpt><trkpt lat="45.37543776226661" lon="8.93906928320527"><ele>113.83333333333333</ele><time>2026-04-18T13:55:51.002Z</time></trkpt><trkpt lat="45.37540806991155" lon="8.938966079776934"><ele>113.66666666666666</ele><time>2026-04-18T13:55:52.003Z</time></trkpt><trkpt lat="45.375377669152265" lon="8.938860414019446"><ele>113.5</ele><time>2026-04-18T13:55:53.003Z</time></trkpt><trkpt lat="45.37535192841138" lon="8.93876216773278"><ele>113.33333333333333</ele><time>2026-04-18T13:55:54.003Z</time></trkpt><trkpt lat="45.37532894635924" lon="8.938674308705025"><ele>113.16666666666666</ele><time>2026-04-18T13:55:55.003Z</time></trkpt><trkpt lat="45.37529544959489" lon="8.938543248237306"><ele>113.0</ele><time>2026-04-18T13:55:57.003Z</time></trkpt><trkpt lat="45.37527317625048" lon="8.938448948279918"><ele>113.0</ele><time>2026-04-18T13:56:01.003Z</time></trkpt><trkpt lat="45.37525028826754" lon="8.938332418951719"><ele>113.00000000000001</ele><time>2026-04-18T13:56:09.003Z</time></trkpt><trkpt lat="45.375224702545296" lon="8.938243186202254"><ele>113.00000000000001</ele><time>2026-04-18T13:56:13.003Z</time></trkpt><trkpt lat="45.37521763622356" lon="8.938141914556631"><ele>113.0</ele><time>2026-04-18T13:56:32.998Z</time></trkpt><trkpt lat="45.375375665535174" lon="8.938063102568004"><ele>113.0</ele><time>2026-04-18T13:56:33.998Z</time></trkpt><trkpt lat="45.37547515660642" lon="8.93798699809411"><ele>112.80000000000001</ele><time>2026-04-18T13:56:35.999Z</time></trkpt><trkpt lat="45.37553964154245" lon="8.937930312826236"><ele>112.60000000000001</ele><time>2026-04-18T13:56:36.999Z</time></trkpt><trkpt lat="45.375610295714374" lon="8.937866255494464"><ele>112.39999999999999</ele><time>2026-04-18T13:56:37.999Z</time></trkpt><trkpt lat="45.375690346293744" lon="8.937795016947877"><ele>112.19999999999999</ele><time>2026-04-18T13:56:38.999Z</time></trkpt><trkpt lat="45.375780179666535" lon="8.937716588851858"><ele>112.0</ele><time>2026-04-18T13:56:39.999Z</time></trkpt><trkpt lat="45.37587482035552" lon="8.93763735541215"><ele>112.0</ele><time>2026-04-18T13:56:40.999Z</time></trkpt><trkpt lat="45.3759696195237" lon="8.937561224945219"><ele>112.0</ele><time>2026-04-18T13:56:41.999Z</time></trkpt><trkpt lat="45.37607502266933" lon="8.937473365732593"><ele>112.0</ele><time>2026-04-18T13:56:42.999Z</time></trkpt><trkpt lat="45.376183741723956" lon="8.937381203467133"><ele>112.0</ele><time>2026-04-18T13:56:43.999Z</time></trkpt><trkpt lat="45.3762911883573" lon="8.937284480990819"><ele>112.0</ele><time>2026-04-18T13:56:45Z</time></trkpt><trkpt lat="45.37640032550537" lon="8.937189914606858"><ele>112.0</ele><time>2026-04-18T13:56:46Z</time></trkpt><trkpt lat="45.37651330922135" lon="8.93709141940483"><ele>112.0</ele><time>2026-04-18T13:56:47Z</time></trkpt><trkpt lat="45.37662892119537" lon="8.93699435790116"><ele>112.0</ele><time>2026-04-18T13:56:48Z</time></trkpt><trkpt lat="45.37674537771505" lon="8.936895867213781"><ele>112.0</ele><time>2026-04-18T13:56:49Z</time></trkpt><trkpt lat="45.376861812306274" lon="8.936798484028065"><ele>112.0</ele><time>2026-04-18T13:56:50Z</time></trkpt><trkpt lat="45.37698023674178" lon="8.936694578835532"><ele>112.0</ele><time>2026-04-18T13:56:51Z</time></trkpt><trkpt lat="45.3770983254123" lon="8.936589103608073"><ele>112.0</ele><time>2026-04-18T13:56:52Z</time></trkpt><trkpt lat="45.37721407611479" lon="8.936483298415709"><ele>111.75</ele><time>2026-04-18T13:56:53Z</time></trkpt><trkpt lat="45.37733135816969" lon="8.93637818924138"><ele>111.5</ele><time>2026-04-18T13:56:54Z</time></trkpt><trkpt lat="45.3774507512021" lon="8.936271907728674"><ele>111.25</ele><time>2026-04-18T13:56:55Z</time></trkpt><trkpt lat="45.37756570991741" lon="8.936155189876787"><ele>111.0</ele><time>2026-04-18T13:56:56Z</time></trkpt><trkpt lat="45.37767818614944" lon="8.936028118612755"><ele>111.0</ele><time>2026-04-18T13:56:57Z</time></trkpt><trkpt lat="45.37779094083757" lon="8.935892899040935"><ele>111.0</ele><time>2026-04-18T13:56:58Z</time></trkpt><trkpt lat="45.3779063614172" lon="8.935757998931264"><ele>111.0</ele><time>2026-04-18T13:56:59Z</time></trkpt><trkpt lat="45.37802666172224" lon="8.935615201833308"><ele>111.33333333333334</ele><time>2026-04-18T13:57:00Z</time></trkpt><trkpt lat="45.37814601180118" lon="8.93546503591313"><ele>111.66666666666667</ele><time>2026-04-18T13:57:01.001Z</time></trkpt><trkpt lat="45.37826421120712" lon="8.935318524364195"><ele>112.0</ele><time>2026-04-18T13:57:02.001Z</time></trkpt><trkpt lat="45.37838189589496" lon="8.935169427223338"><ele>111.33333333333334</ele><time>2026-04-18T13:57:03.001Z</time></trkpt><trkpt lat="45.37850174284414" lon="8.935013548572476"><ele>110.66666666666666</ele><time>2026-04-18T13:57:04.001Z</time></trkpt><trkpt lat="45.37861724472368" lon="8.934857931642616"><ele>110.0</ele><time>2026-04-18T13:57:05.001Z</time></trkpt><trkpt lat="45.37873421563823" lon="8.93469418583483"><ele>110.0</ele><time>2026-04-18T13:57:06.001Z</time></trkpt><trkpt lat="45.378851501500506" lon="8.93453055539217"><ele>110.0</ele><time>2026-04-18T13:57:07.001Z</time></trkpt><trkpt lat="45.37896755499048" lon="8.934369428078295"><ele>110.0</ele><time>2026-04-18T13:57:08.001Z</time></trkpt><trkpt lat="45.379090144251606" lon="8.934208911607397"><ele>109.66666666666666</ele><time>2026-04-18T13:57:09.001Z</time></trkpt><trkpt lat="45.37921271724993" lon="8.934043209466086"><ele>109.33333333333334</ele><time>2026-04-18T13:57:10.001Z</time></trkpt><trkpt lat="45.37933503562237" lon="8.933877319450596"><ele>109.0</ele><time>2026-04-18T13:57:11.001Z</time></trkpt><trkpt lat="45.37945606500943" lon="8.933716529356163"><ele>109.0</ele><time>2026-04-18T13:57:12.001Z</time></trkpt><trkpt lat="45.37957795519681" lon="8.93354695288539"><ele>109.0</ele><time>2026-04-18T13:57:13.001Z</time></trkpt><trkpt lat="45.37969935466505" lon="8.93338417407057"><ele>109.0</ele><time>2026-04-18T13:57:14.001Z</time></trkpt><trkpt lat="45.379822930070574" lon="8.933215198564188"><ele>110.0</ele><time>2026-04-18T13:57:15.001Z</time></trkpt><trkpt lat="45.379942394294396" lon="8.933046307408222"><ele>111.0</ele><time>2026-04-18T13:57:16.001Z</time></trkpt><trkpt lat="45.380063673166994" lon="8.932872915197315"><ele>112.0</ele><time>2026-04-18T13:57:17.001Z</time></trkpt><trkpt lat="45.38018631479111" lon="8.932702710808012"><ele>111.66666666666667</ele><time>2026-04-18T13:57:18.001Z</time></trkpt><trkpt lat="45.38031011330032" lon="8.932530933357063"><ele>111.33333333333334</ele><time>2026-04-18T13:57:19.001Z</time></trkpt><trkpt lat="45.38043659264422" lon="8.932360175320962"><ele>111.0</ele><time>2026-04-18T13:57:20.001Z</time></trkpt><trkpt lat="45.38056771286011" lon="8.932188941288402"><ele>111.0</ele><time>2026-04-18T13:57:21.001Z</time></trkpt><trkpt lat="45.380705140731685" lon="8.932010910791286"><ele>111.0</ele><time>2026-04-18T13:57:22.001Z</time></trkpt><trkpt lat="45.3808465250246" lon="8.931833566013763"><ele>111.0</ele><time>2026-04-18T13:57:23.001Z</time></trkpt><trkpt lat="45.38099216326119" lon="8.93165715684268"><ele>111.33333333333334</ele><time>2026-04-18T13:57:24.001Z</time></trkpt><trkpt lat="45.38113972717338" lon="8.931485354784416"><ele>111.66666666666667</ele><time>2026-04-18T13:57:25.001Z</time></trkpt><trkpt lat="45.381287957562996" lon="8.931315203403143"><ele>112.0</ele><time>2026-04-18T13:57:26.002Z</time></trkpt><trkpt lat="45.38143618866864" lon="8.93114379563932"><ele>112.0</ele><time>2026-04-18T13:57:27.002Z</time></trkpt><trkpt lat="45.38158766738537" lon="8.930974764891463"><ele>112.0</ele><time>2026-04-18T13:57:28.002Z</time></trkpt><trkpt lat="45.38174204974287" lon="8.930806208964308"><ele>112.0</ele><time>2026-04-18T13:57:29.002Z</time></trkpt><trkpt lat="45.3818972956692" lon="8.930646933059725"><ele>112.0</ele><time>2026-04-18T13:57:30.002Z</time></trkpt><trkpt lat="45.382055694297755" lon="8.93049514713913"><ele>112.0</ele><time>2026-04-18T13:57:31.002Z</time></trkpt><trkpt lat="45.382219223750184" lon="8.930349983591642"><ele>112.0</ele><time>2026-04-18T13:57:32.002Z</time></trkpt><trkpt lat="45.382384272881545" lon="8.930203536113648"><ele>112.0</ele><time>2026-04-18T13:57:33.002Z</time></trkpt><trkpt lat="45.38255045673987" lon="8.930060855417137"><ele>112.0</ele><time>2026-04-18T13:57:34.002Z</time></trkpt><trkpt lat="45.38271664379119" lon="8.929911844736244"><ele>112.0</ele><time>2026-04-18T13:57:35.002Z</time></trkpt><trkpt lat="45.38288390552612" lon="8.929758789481372"><ele>112.33333333333334</ele><time>2026-04-18T13:57:36.002Z</time></trkpt><trkpt lat="45.383049716930785" lon="8.92961370866239"><ele>112.66666666666666</ele><time>2026-04-18T13:57:37.002Z</time></trkpt><trkpt lat="45.383203580981046" lon="8.929446790076323"><ele>113.0</ele><time>2026-04-18T13:57:38.002Z</time></trkpt><trkpt lat="45.38337168572485" lon="8.929309585649547"><ele>112.66666666666666</ele><time>2026-04-18T13:57:39.002Z</time></trkpt><trkpt lat="45.38354189247891" lon="8.929168368971913"><ele>112.33333333333334</ele><time>2026-04-18T13:57:40.002Z</time></trkpt><trkpt lat="45.3837118486743" lon="8.929030656642121"><ele>112.0</ele><time>2026-04-18T13:57:41.002Z</time></trkpt><trkpt lat="45.383868566527894" lon="8.928897808012785"><ele>112.66666666666667</ele><time>2026-04-18T13:57:42.002Z</time></trkpt><trkpt lat="45.38401573532819" lon="8.928775279935389"><ele>113.33333333333334</ele><time>2026-04-18T13:57:43.002Z</time></trkpt><trkpt lat="45.38415014487615" lon="8.928656653249575"><ele>114.0</ele><time>2026-04-18T13:57:44.002Z</time></trkpt><trkpt lat="45.38428032289132" lon="8.9285378799466"><ele>114.0</ele><time>2026-04-18T13:57:45.002Z</time></trkpt><trkpt lat="45.38440196799431" lon="8.928434107178722"><ele>114.0</ele><time>2026-04-18T13:57:46.002Z</time></trkpt><trkpt lat="45.38452109938696" lon="8.928335588470889"><ele>114.0</ele><time>2026-04-18T13:57:47.002Z</time></trkpt><trkpt lat="45.38463216837423" lon="8.928248926840475"><ele>114.0</ele><time>2026-04-18T13:57:48.002Z</time></trkpt><trkpt lat="45.384730417840714" lon="8.928173333499421"><ele>113.83333333333333</ele><time>2026-04-18T13:57:49.002Z</time></trkpt><trkpt lat="45.3848247356291" lon="8.92811005184493"><ele>113.66666666666666</ele><time>2026-04-18T13:57:50.002Z</time></trkpt><trkpt lat="45.38491084552157" lon="8.92806832255022"><ele>113.5</ele><time>2026-04-18T13:57:51.002Z</time></trkpt><trkpt lat="45.384998542033046" lon="8.928054809037683"><ele>113.33333333333333</ele><time>2026-04-18T13:57:52.002Z</time></trkpt><trkpt lat="45.38507588941754" lon="8.928063121005213"><ele>113.16666666666666</ele><time>2026-04-18T13:57:53.002Z</time></trkpt><trkpt lat="45.38516012830574" lon="8.928062110012391"><ele>113.0</ele><time>2026-04-18T13:57:54.002Z</time></trkpt><trkpt lat="45.38523534949515" lon="8.928040225172383"><ele>113.0</ele><time>2026-04-18T13:57:55.002Z</time></trkpt><trkpt lat="45.38530791261861" lon="8.927985379940926"><ele>113.00000000000001</ele><time>2026-04-18T13:57:56.002Z</time></trkpt><trkpt lat="45.385365136016276" lon="8.927890569721482"><ele>113.00000000000001</ele><time>2026-04-18T13:57:57.002Z</time></trkpt><trkpt lat="45.38541095706349" lon="8.927774458196222"><ele>113.0</ele><time>2026-04-18T13:57:58.003Z</time></trkpt><trkpt lat="45.38545887142603" lon="8.927644739937751"><ele>113.0</ele><time>2026-04-18T13:57:59.003Z</time></trkpt><trkpt lat="45.38552106992292" lon="8.927518165085232"><ele>113.25</ele><time>2026-04-18T13:58:00.003Z</time></trkpt><trkpt lat="45.385615614460335" lon="8.927419998792473"><ele>113.5</ele><time>2026-04-18T13:58:01.003Z</time></trkpt><trkpt lat="45.38572230556534" lon="8.927329668835087"><ele>113.75</ele><time>2026-04-18T13:58:02.003Z</time></trkpt><trkpt lat="45.38584361306402" lon="8.927228199268878"><ele>114.0</ele><time>2026-04-18T13:58:03.003Z</time></trkpt><trkpt lat="45.38597061502833" lon="8.927121094919283"><ele>114.0</ele><time>2026-04-18T13:58:04.003Z</time></trkpt><trkpt lat="45.38610025643978" lon="8.927006876580725"><ele>114.0</ele><time>2026-04-18T13:58:05.003Z</time></trkpt><trkpt lat="45.38622915864249" lon="8.92689488669901"><ele>114.0</ele><time>2026-04-18T13:58:06.003Z</time></trkpt><trkpt lat="45.38635889717308" lon="8.9267816828028"><ele>114.33333333333334</ele><time>2026-04-18T13:58:07.003Z</time></trkpt><trkpt lat="45.38648794433303" lon="8.926669155480274"><ele>114.66666666666667</ele><time>2026-04-18T13:58:08.003Z</time></trkpt><trkpt lat="45.386622201904814" lon="8.92655271208228"><ele>115.0</ele><time>2026-04-18T13:58:09.003Z</time></trkpt><trkpt lat="45.38675739626791" lon="8.926439224939118"><ele>115.0</ele><time>2026-04-18T13:58:10.003Z</time></trkpt><trkpt lat="45.38689617246549" lon="8.926320881849753"><ele>115.0</ele><time>2026-04-18T13:58:11.003Z</time></trkpt><trkpt lat="45.387033261964405" lon="8.926199166224794"><ele>115.0</ele><time>2026-04-18T13:58:12.003Z</time></trkpt><trkpt lat="45.387170074869" lon="8.926066155876304"><ele>114.66666666666667</ele><time>2026-04-18T13:58:13.003Z</time></trkpt><trkpt lat="45.387302017793324" lon="8.925925168707582"><ele>114.33333333333334</ele><time>2026-04-18T13:58:14.003Z</time></trkpt><trkpt lat="45.38743121021784" lon="8.925773604462988"><ele>114.0</ele><time>2026-04-18T13:58:15.003Z</time></trkpt><trkpt lat="45.387553134531636" lon="8.925609001572644"><ele>114.0</ele><time>2026-04-18T13:58:16.003Z</time></trkpt><trkpt lat="45.38767512064374" lon="8.925438551555576"><ele>114.0</ele><time>2026-04-18T13:58:17.003Z</time></trkpt><trkpt lat="45.387794887135065" lon="8.925269280644454"><ele>114.0</ele><time>2026-04-18T13:58:18.003Z</time></trkpt><trkpt lat="45.38790199730549" lon="8.925112063984722"><ele>114.0</ele><time>2026-04-18T13:58:19.003Z</time></trkpt><trkpt lat="45.387995411915796" lon="8.924963533154568"><ele>114.0</ele><time>2026-04-18T13:58:20.003Z</time></trkpt><trkpt lat="45.38807732952751" lon="8.92481307060621"><ele>114.0</ele><time>2026-04-18T13:58:21.003Z</time></trkpt><trkpt lat="45.38814832938419" lon="8.924660016094146"><ele>114.0</ele><time>2026-04-18T13:58:22.003Z</time></trkpt><trkpt lat="45.38822107174852" lon="8.92453001884258"><ele>114.4</ele><time>2026-04-18T13:58:23.003Z</time></trkpt><trkpt lat="45.38829579657368" lon="8.924413412500396"><ele>114.80000000000001</ele><time>2026-04-18T13:58:24.003Z</time></trkpt><trkpt lat="45.388372005302614" lon="8.924303422978687"><ele>115.19999999999999</ele><time>2026-04-18T13:58:25.003Z</time></trkpt><trkpt lat="45.38843860897025" lon="8.924214331088608"><ele>115.6</ele><time>2026-04-18T13:58:25.997Z</time></trkpt><trkpt lat="45.388501695783916" lon="8.92414045235931"><ele>116.0</ele><time>2026-04-18T13:58:26.997Z</time></trkpt><trkpt lat="45.388560518137" lon="8.92406943615194"><ele>115.99999999999999</ele><time>2026-04-18T13:58:27.997Z</time></trkpt><trkpt lat="45.388620253231096" lon="8.92400651295486"><ele>116.0</ele><time>2026-04-18T13:58:28.997Z</time></trkpt><trkpt lat="45.38868141574087" lon="8.923946923125678"><ele>116.0</ele><time>2026-04-18T13:58:29.997Z</time></trkpt><trkpt lat="45.38875072803111" lon="8.92388593791223"><ele>116.0</ele><time>2026-04-18T13:58:30.997Z</time></trkpt><trkpt lat="45.38881313979514" lon="8.923834455055385"><ele>115.99999999999999</ele><time>2026-04-18T13:58:31.998Z</time></trkpt><trkpt lat="45.38890115855409" lon="8.923748493081186"><ele>116.0</ele><time>2026-04-18T13:58:33.998Z</time></trkpt><trkpt lat="45.38896664986374" lon="8.923689378955673"><ele>116.4</ele><time>2026-04-18T13:58:35.998Z</time></trkpt><trkpt lat="45.3890374677403" lon="8.923635951747956"><ele>116.8</ele><time>2026-04-18T13:58:38.998Z</time></trkpt><trkpt lat="45.389110723256415" lon="8.923596990214804"><ele>117.20000000000002</ele><time>2026-04-18T13:59:11.001Z</time></trkpt><trkpt lat="45.38920592806246" lon="8.92354347107203"><ele>117.60000000000001</ele><time>2026-04-18T13:59:13.001Z</time></trkpt><trkpt lat="45.38933058412274" lon="8.923501449073406"><ele>118.0</ele><time>2026-04-18T13:59:15.001Z</time></trkpt><trkpt lat="45.389403754649614" lon="8.923496680306132"><ele>118.00000000000001</ele><time>2026-04-18T13:59:16.001Z</time></trkpt><trkpt lat="45.38948058177499" lon="8.923512455122852"><ele>118.0</ele><time>2026-04-18T13:59:17.001Z</time></trkpt><trkpt lat="45.389562021294616" lon="8.923539559458423"><ele>118.0</ele><time>2026-04-18T13:59:18.001Z</time></trkpt><trkpt lat="45.38964641909701" lon="8.92357698268142"><ele>118.0</ele><time>2026-04-18T13:59:19.001Z</time></trkpt><trkpt lat="45.389732816770184" lon="8.9236185129503"><ele>118.00000000000001</ele><time>2026-04-18T13:59:20.001Z</time></trkpt><trkpt lat="45.389822850181176" lon="8.92366293349335"><ele>118.0</ele><time>2026-04-18T13:59:21.001Z</time></trkpt><trkpt lat="45.38991383511468" lon="8.92370796097826"><ele>118.0</ele><time>2026-04-18T13:59:22.001Z</time></trkpt><trkpt lat="45.39001031585257" lon="8.923754244830626"><ele>118.00000000000001</ele><time>2026-04-18T13:59:23.001Z</time></trkpt><trkpt lat="45.39011224104626" lon="8.923804224275989"><ele>118.00000000000001</ele><time>2026-04-18T13:59:24.001Z</time></trkpt><trkpt lat="45.39021666115356" lon="8.9238574853951"><ele>118.0</ele><time>2026-04-18T13:59:25.001Z</time></trkpt><trkpt lat="45.390322733161845" lon="8.923913269733639"><ele>118.0</ele><time>2026-04-18T13:59:26.001Z</time></trkpt><trkpt lat="45.39043617800119" lon="8.923967448001736"><ele>118.0</ele><time>2026-04-18T13:59:27.001Z</time></trkpt><trkpt lat="45.390553580508865" lon="8.924021431180716"><ele>118.0</ele><time>2026-04-18T13:59:28.001Z</time></trkpt><trkpt lat="45.39067609170551" lon="8.924080028961468"><ele>118.0</ele><time>2026-04-18T13:59:29.001Z</time></trkpt><trkpt lat="45.39080286895909" lon="8.924141696448501"><ele>118.0</ele><time>2026-04-18T13:59:30.001Z</time></trkpt><trkpt lat="45.390930739885896" lon="8.924209113625462"><ele>118.0</ele><time>2026-04-18T13:59:31.001Z</time></trkpt><trkpt lat="45.39106334497684" lon="8.924275272664797"><ele>118.0</ele><time>2026-04-18T13:59:32.001Z</time></trkpt><trkpt lat="45.39119751694389" lon="8.924341994460312"><ele>118.0</ele><time>2026-04-18T13:59:33.001Z</time></trkpt><trkpt lat="45.39133890672539" lon="8.924407146263079"><ele>118.0</ele><time>2026-04-18T13:59:34.001Z</time></trkpt><trkpt lat="45.39146998348174" lon="8.924472594054087"><ele>117.75</ele><time>2026-04-18T13:59:35.002Z</time></trkpt><trkpt lat="45.39160814965893" lon="8.924538983292733"><ele>117.5</ele><time>2026-04-18T13:59:36.002Z</time></trkpt><trkpt lat="45.39174381540978" lon="8.92459544646596"><ele>117.25</ele><time>2026-04-18T13:59:37.002Z</time></trkpt><trkpt lat="45.3918773533955" lon="8.924674752501218"><ele>117.0</ele><time>2026-04-18T13:59:38.002Z</time></trkpt><trkpt lat="45.39200874646947" lon="8.92474604552153"><ele>117.0</ele><time>2026-04-18T13:59:39.002Z</time></trkpt><trkpt lat="45.39214137237609" lon="8.924812785998958"><ele>117.0</ele><time>2026-04-18T13:59:40.002Z</time></trkpt><trkpt lat="45.3922749111736" lon="8.924878265916542"><ele>117.0</ele><time>2026-04-18T13:59:41.002Z</time></trkpt><trkpt lat="45.39239759119217" lon="8.924935520524839"><ele>117.0</ele><time>2026-04-18T13:59:42.002Z</time></trkpt><trkpt lat="45.392509772459704" lon="8.924994100009432"><ele>117.0</ele><time>2026-04-18T13:59:43.002Z</time></trkpt><trkpt lat="45.39261067081601" lon="8.925050388607119"><ele>116.99999999999999</ele><time>2026-04-18T13:59:44.002Z</time></trkpt><trkpt lat="45.39271189575609" lon="8.925107533489832"><ele>116.99999999999999</ele><time>2026-04-18T13:59:45.002Z</time></trkpt><trkpt lat="45.392814455858755" lon="8.925170668827413"><ele>117.0</ele><time>2026-04-18T13:59:46.002Z</time></trkpt><trkpt lat="45.392925809851974" lon="8.925230906454958"><ele>117.0</ele><time>2026-04-18T13:59:47.002Z</time></trkpt><trkpt lat="45.39303867671183" lon="8.92528550904326"><ele>117.0</ele><time>2026-04-18T13:59:48.002Z</time></trkpt><trkpt lat="45.39314176034372" lon="8.92533562039283"><ele>117.0</ele><time>2026-04-18T13:59:49.002Z</time></trkpt><trkpt lat="45.393228270394914" lon="8.925380660792534"><ele>117.0</ele><time>2026-04-18T13:59:50.002Z</time></trkpt><trkpt lat="45.39330978511247" lon="8.925430396663778"><ele>117.0</ele><time>2026-04-18T13:59:51.002Z</time></trkpt><trkpt lat="45.393367544751435" lon="8.925480154222898"><ele>117.0</ele><time>2026-04-18T13:59:52.002Z</time></trkpt><trkpt lat="45.39342062385958" lon="8.925541885523678"><ele>117.0</ele><time>2026-04-18T13:59:53.002Z</time></trkpt><trkpt lat="45.3934675306501" lon="8.925609160040096"><ele>117.0</ele><time>2026-04-18T13:59:54.002Z</time></trkpt><trkpt lat="45.39351559989931" lon="8.925695781809216"><ele>116.99999999999999</ele><time>2026-04-18T13:59:55.002Z</time></trkpt><trkpt lat="45.393572745847294" lon="8.925780755550903"><ele>116.99999999999999</ele><time>2026-04-18T13:59:56.002Z</time></trkpt><trkpt lat="45.39365796844766" lon="8.925841696120845"><ele>117.0</ele><time>2026-04-18T13:59:57.002Z</time></trkpt><trkpt lat="45.39375045831775" lon="8.925865084247993"><ele>117.0</ele><time>2026-04-18T13:59:58.002Z</time></trkpt><trkpt lat="45.39385491681562" lon="8.9258486257691"><ele>117.25</ele><time>2026-04-18T13:59:59.002Z</time></trkpt><trkpt lat="45.39396489280081" lon="8.925824653541481"><ele>117.5</ele><time>2026-04-18T14:00:00.002Z</time></trkpt><trkpt lat="45.39408458377231" lon="8.925810333758001"><ele>117.75</ele><time>2026-04-18T14:00:01.002Z</time></trkpt><trkpt lat="45.39420814431213" lon="8.925826725673888"><ele>118.0</ele><time>2026-04-18T14:00:02.002Z</time></trkpt><trkpt lat="45.394336362222596" lon="8.92587731762584"><ele>117.5</ele><time>2026-04-18T14:00:03.002Z</time></trkpt><trkpt lat="45.39446709544717" lon="8.92595672111573"><ele>117.0</ele><time>2026-04-18T14:00:04.002Z</time></trkpt><trkpt lat="45.3945963371653" lon="8.926029953569397"><ele>116.5</ele><time>2026-04-18T14:00:05.002Z</time></trkpt><trkpt lat="45.39473243139296" lon="8.926101803898318"><ele>116.0</ele><time>2026-04-18T14:00:06.002Z</time></trkpt><trkpt lat="45.394869254648164" lon="8.926169004769674"><ele>115.5</ele><time>2026-04-18T14:00:07.003Z</time></trkpt><trkpt lat="45.395008124559794" lon="8.926239927650549"><ele>115.0</ele><time>2026-04-18T14:00:08.003Z</time></trkpt><trkpt lat="45.39515100050471" lon="8.92630491577947"><ele>114.5</ele><time>2026-04-18T14:00:09.003Z</time></trkpt><trkpt lat="45.39529406526023" lon="8.926369117435604"><ele>114.0</ele><time>2026-04-18T14:00:10.003Z</time></trkpt><trkpt lat="45.3954384653905" lon="8.92643826872938"><ele>114.66666666666666</ele><time>2026-04-18T14:00:11.003Z</time></trkpt><trkpt lat="45.39558026906816" lon="8.926507625800825"><ele>115.33333333333333</ele><time>2026-04-18T14:00:12.003Z</time></trkpt><trkpt lat="45.395725403069605" lon="8.926580771522799"><ele>116.0</ele><time>2026-04-18T14:00:13.003Z</time></trkpt><trkpt lat="45.395872735001134" lon="8.926649978678466"><ele>116.0</ele><time>2026-04-18T14:00:14.003Z</time></trkpt><trkpt lat="45.39601939367394" lon="8.92672351893232"><ele>116.0</ele><time>2026-04-18T14:00:15.003Z</time></trkpt><trkpt lat="45.39616851399147" lon="8.926800680369512"><ele>116.0</ele><time>2026-04-18T14:00:16.003Z</time></trkpt><trkpt lat="45.39631974434366" lon="8.926877728808863"><ele>116.0</ele><time>2026-04-18T14:00:17.003Z</time></trkpt><trkpt lat="45.396472376534504" lon="8.926956082677131"><ele>116.0</ele><time>2026-04-18T14:00:18.003Z</time></trkpt><trkpt lat="45.39662551234468" lon="8.927034637847374"><ele>116.0</ele><time>2026-04-18T14:00:19.003Z</time></trkpt><trkpt lat="45.39678769145253" lon="8.927108843583891"><ele>116.0</ele><time>2026-04-18T14:00:20.003Z</time></trkpt><trkpt lat="45.3969463201882" lon="8.92718782905265"><ele>116.0</ele><time>2026-04-18T14:00:21.003Z</time></trkpt><trkpt lat="45.39710164806411" lon="8.927263533270299"><ele>116.0</ele><time>2026-04-18T14:00:22.003Z</time></trkpt><trkpt lat="45.39724219142932" lon="8.927334873502915"><ele>116.33333333333333</ele><time>2026-04-18T14:00:23.003Z</time></trkpt><trkpt lat="45.39738113589564" lon="8.92741157458191"><ele>116.66666666666666</ele><time>2026-04-18T14:00:24.003Z</time></trkpt><trkpt lat="45.397524262056756" lon="8.927501473707887"><ele>117.0</ele><time>2026-04-18T14:00:25.003Z</time></trkpt><trkpt lat="45.397660327252055" lon="8.927612585742013"><ele>117.0</ele><time>2026-04-18T14:00:26.003Z</time></trkpt><trkpt lat="45.397793915668984" lon="8.927748747701372"><ele>117.0</ele><time>2026-04-18T14:00:27.003Z</time></trkpt><trkpt lat="45.39791547729739" lon="8.927902540419927"><ele>117.0</ele><time>2026-04-18T14:00:28.003Z</time></trkpt><trkpt lat="45.39803270872449" lon="8.928067501355553"><ele>117.0</ele><time>2026-04-18T14:00:29.003Z</time></trkpt><trkpt lat="45.39814098261181" lon="8.928251290982402"><ele>117.0</ele><time>2026-04-18T14:00:30.003Z</time></trkpt><trkpt lat="45.39823093171994" lon="8.928449259247675"><ele>117.0</ele><time>2026-04-18T14:00:31.003Z</time></trkpt><trkpt lat="45.39830734669458" lon="8.928659539287668"><ele>116.33333333333334</ele><time>2026-04-18T14:00:31.996Z</time></trkpt><trkpt lat="45.398374524322236" lon="8.928883632974753"><ele>115.66666666666667</ele><time>2026-04-18T14:00:32.996Z</time></trkpt><trkpt lat="45.39844303933949" lon="8.929102305187326"><ele>115.0</ele><time>2026-04-18T14:00:33.996Z</time></trkpt><trkpt lat="45.398510273032386" lon="8.929297975729915"><ele>115.0</ele><time>2026-04-18T14:00:34.996Z</time></trkpt><trkpt lat="45.398588218788724" lon="8.929485425744675"><ele>115.0</ele><time>2026-04-18T14:00:35.997Z</time></trkpt><trkpt lat="45.398694350317676" lon="8.929667124783556"><ele>115.0</ele><time>2026-04-18T14:00:36.997Z</time></trkpt><trkpt lat="45.39881665371217" lon="8.929839669536493"><ele>115.66666666666667</ele><time>2026-04-18T14:00:37.997Z</time></trkpt><trkpt lat="45.39895648439744" lon="8.929990115483099"><ele>116.33333333333334</ele><time>2026-04-18T14:00:38.997Z</time></trkpt><trkpt lat="45.39908856912701" lon="8.930131754526723"><ele>117.0</ele><time>2026-04-18T14:00:39.997Z</time></trkpt><trkpt lat="45.39920206487533" lon="8.930285904148848"><ele>117.0</ele><time>2026-04-18T14:00:40.997Z</time></trkpt><trkpt lat="45.39930224394813" lon="8.93048006656898"><ele>117.0</ele><time>2026-04-18T14:00:41.997Z</time></trkpt><trkpt lat="45.399363143546026" lon="8.930704403841178"><ele>117.0</ele><time>2026-04-18T14:00:42.998Z</time></trkpt><trkpt lat="45.39939829929354" lon="8.930943474496095"><ele>117.0</ele><time>2026-04-18T14:00:43.998Z</time></trkpt><trkpt lat="45.39941972133901" lon="8.931175721411098"><ele>117.0</ele><time>2026-04-18T14:00:44.998Z</time></trkpt><trkpt lat="45.399441337621816" lon="8.931388156898523"><ele>117.0</ele><time>2026-04-18T14:00:45.998Z</time></trkpt><trkpt lat="45.399456847307995" lon="8.931586903735653"><ele>117.25</ele><time>2026-04-18T14:00:46.998Z</time></trkpt><trkpt lat="45.39947434794594" lon="8.931775899536248"><ele>117.5</ele><time>2026-04-18T14:00:47.998Z</time></trkpt><trkpt lat="45.39949446792983" lon="8.931956768266161"><ele>117.75</ele><time>2026-04-18T14:00:48.998Z</time></trkpt><trkpt lat="45.39951212539542" lon="8.93211438984316"><ele>118.0</ele><time>2026-04-18T14:00:49.999Z</time></trkpt><trkpt lat="45.39952402057774" lon="8.932247575440089"><ele>118.0</ele><time>2026-04-18T14:00:50.999Z</time></trkpt><trkpt lat="45.39953012159282" lon="8.932344567955328"><ele>118.00000000000001</ele><time>2026-04-18T14:00:51.999Z</time></trkpt><trkpt lat="45.39954012946523" lon="8.93248956387216"><ele>118.00000000000001</ele><time>2026-04-18T14:00:53.999Z</time></trkpt><trkpt lat="45.399552099840406" lon="8.932587327407031"><ele>118.0</ele><time>2026-04-18T14:00:55.999Z</time></trkpt><trkpt lat="45.39962364637847" lon="8.932663279978142"><ele>118.0</ele><time>2026-04-18T14:00:58.999Z</time></trkpt><trkpt lat="45.39975410822259" lon="8.932672002790278"><ele>118.0</ele><time>2026-04-18T14:01:01Z</time></trkpt><trkpt lat="45.399833534851055" lon="8.932663060267862"><ele>118.00000000000001</ele><time>2026-04-18T14:01:02Z</time></trkpt><trkpt lat="45.39992508448558" lon="8.932635691962222"><ele>118.00000000000001</ele><time>2026-04-18T14:01:03Z</time></trkpt><trkpt lat="45.40003474346106" lon="8.932585361844332"><ele>118.0</ele><time>2026-04-18T14:01:04Z</time></trkpt><trkpt lat="45.40015972750612" lon="8.93253071978031"><ele>118.0</ele><time>2026-04-18T14:01:05Z</time></trkpt><trkpt lat="45.40030618722902" lon="8.932493608067505"><ele>118.0</ele><time>2026-04-18T14:01:06Z</time></trkpt><trkpt lat="45.40046208879557" lon="8.932458833570873"><ele>118.0</ele><time>2026-04-18T14:01:07Z</time></trkpt><trkpt lat="45.40062637372229" lon="8.932412511914048"><ele>118.0</ele><time>2026-04-18T14:01:08Z</time></trkpt><trkpt lat="45.400778414966034" lon="8.932380970481288"><ele>118.0</ele><time>2026-04-18T14:01:09Z</time></trkpt><trkpt lat="45.40095256974113" lon="8.932333120660562"><ele>118.0</ele><time>2026-04-18T14:01:10Z</time></trkpt><trkpt lat="45.40112931660886" lon="8.93227560746834"><ele>118.0</ele><time>2026-04-18T14:01:11Z</time></trkpt><trkpt lat="45.401311628299084" lon="8.932212704811146"><ele>117.66666666666667</ele><time>2026-04-18T14:01:12Z</time></trkpt><trkpt lat="45.40149827512655" lon="8.932155749988016"><ele>117.33333333333334</ele><time>2026-04-18T14:01:13Z</time></trkpt><trkpt lat="45.40167780109991" lon="8.932092899258953"><ele>117.0</ele><time>2026-04-18T14:01:14Z</time></trkpt><trkpt lat="45.40186340352282" lon="8.932027857790171"><ele>117.0</ele><time>2026-04-18T14:01:15.001Z</time></trkpt><trkpt lat="45.402049958749345" lon="8.93196457260421"><ele>117.0</ele><time>2026-04-18T14:01:16.001Z</time></trkpt><trkpt lat="45.40223485562738" lon="8.931896231577864"><ele>117.0</ele><time>2026-04-18T14:01:17.001Z</time></trkpt><trkpt lat="45.40242891078586" lon="8.931824335147905"><ele>116.66666666666666</ele><time>2026-04-18T14:01:18.001Z</time></trkpt><trkpt lat="45.40261933135338" lon="8.931742950089461"><ele>116.33333333333333</ele><time>2026-04-18T14:01:19.001Z</time></trkpt><trkpt lat="45.4028122373454" lon="8.931656728403604"><ele>116.0</ele><time>2026-04-18T14:01:20.001Z</time></trkpt><trkpt lat="45.403006529332316" lon="8.931569983266028"><ele>116.66666666666666</ele><time>2026-04-18T14:01:21.001Z</time></trkpt><trkpt lat="45.403206489738245" lon="8.93148245544682"><ele>117.33333333333334</ele><time>2026-04-18T14:01:22.001Z</time></trkpt><trkpt lat="45.40340559948378" lon="8.931395853278715"><ele>118.0</ele><time>2026-04-18T14:01:23.001Z</time></trkpt><trkpt lat="45.403603957278705" lon="8.93129985808931"><ele>118.0</ele><time>2026-04-18T14:01:24.001Z</time></trkpt><trkpt lat="45.4038016594084" lon="8.931193428076169"><ele>118.0</ele><time>2026-04-18T14:01:25.001Z</time></trkpt><trkpt lat="45.40399704626937" lon="8.931068372501894"><ele>118.0</ele><time>2026-04-18T14:01:26.001Z</time></trkpt><trkpt lat="45.40418496952558" lon="8.930932514804676"><ele>117.33333333333334</ele><time>2026-04-18T14:01:27.001Z</time></trkpt><trkpt lat="45.40436645246003" lon="8.93079864563275"><ele>116.66666666666666</ele><time>2026-04-18T14:01:28.001Z</time></trkpt><trkpt lat="45.40453843885747" lon="8.930671271555598"><ele>116.0</ele><time>2026-04-18T14:01:29.001Z</time></trkpt><trkpt lat="45.404701012370765" lon="8.930554282268089"><ele>116.0</ele><time>2026-04-18T14:01:30.001Z</time></trkpt><trkpt lat="45.40485166671972" lon="8.93044354257783"><ele>116.0</ele><time>2026-04-18T14:01:31.001Z</time></trkpt><trkpt lat="45.404997163256375" lon="8.930340435588915"><ele>116.0</ele><time>2026-04-18T14:01:32.001Z</time></trkpt><trkpt lat="45.40514194394014" lon="8.930233238900138"><ele>116.0</ele><time>2026-04-18T14:01:33.001Z</time></trkpt><trkpt lat="45.40528525179361" lon="8.930122551013646"><ele>116.0</ele><time>2026-04-18T14:01:34.001Z</time></trkpt><trkpt lat="45.40543132226129" lon="8.930007791457838"><ele>116.0</ele><time>2026-04-18T14:01:35.001Z</time></trkpt><trkpt lat="45.405580585652196" lon="8.929898398037565"><ele>116.66666666666666</ele><time>2026-04-18T14:01:36.001Z</time></trkpt><trkpt lat="45.40572699999411" lon="8.929791950581553"><ele>117.33333333333334</ele><time>2026-04-18T14:01:37.001Z</time></trkpt><trkpt lat="45.405868801183" lon="8.929681694047776"><ele>118.0</ele><time>2026-04-18T14:01:38.001Z</time></trkpt><trkpt lat="45.406000864430624" lon="8.929570482450345"><ele>118.0</ele><time>2026-04-18T14:01:39.001Z</time></trkpt><trkpt lat="45.40612403086841" lon="8.929462899294021"><ele>118.0</ele><time>2026-04-18T14:01:40.002Z</time></trkpt><trkpt lat="45.406239254888185" lon="8.929349451469836"><ele>118.0</ele><time>2026-04-18T14:01:41.002Z</time></trkpt><trkpt lat="45.40634152570425" lon="8.929238419433565"><ele>118.0</ele><time>2026-04-18T14:01:42.002Z</time></trkpt><trkpt lat="45.40643614411233" lon="8.92911752601789"><ele>118.0</ele><time>2026-04-18T14:01:43.002Z</time></trkpt><trkpt lat="45.406513607736095" lon="8.92899917698084"><ele>118.00000000000001</ele><time>2026-04-18T14:01:44.002Z</time></trkpt><trkpt lat="45.406589500533244" lon="8.928883251023256"><ele>118.00000000000001</ele><time>2026-04-18T14:01:45.002Z</time></trkpt><trkpt lat="45.40666169786719" lon="8.928781378863054"><ele>118.0</ele><time>2026-04-18T14:01:46.002Z</time></trkpt><trkpt lat="45.406728842184" lon="8.928684766192768"><ele>118.0</ele><time>2026-04-18T14:01:47.002Z</time></trkpt><trkpt lat="45.406790383623694" lon="8.928597589346152"><ele>118.00000000000001</ele><time>2026-04-18T14:01:48.002Z</time></trkpt><trkpt lat="45.406849055440915" lon="8.928516684557984"><ele>118.0</ele><time>2026-04-18T14:01:49.002Z</time></trkpt><trkpt lat="45.406908862822846" lon="8.928439151900788"><ele>118.0</ele><time>2026-04-18T14:01:50.002Z</time></trkpt><trkpt lat="45.40696897327714" lon="8.92836054680887"><ele>118.0</ele><time>2026-04-18T14:01:51.002Z</time></trkpt><trkpt lat="45.40703143591576" lon="8.928273166346314"><ele>118.00000000000001</ele><time>2026-04-18T14:01:52.002Z</time></trkpt><trkpt lat="45.40709381070085" lon="8.928181950739658"><ele>118.0</ele><time>2026-04-18T14:01:53.002Z</time></trkpt><trkpt lat="45.407164510262646" lon="8.928095429689565"><ele>118.0</ele><time>2026-04-18T14:01:54.002Z</time></trkpt><trkpt lat="45.40725102997328" lon="8.928001679110999"><ele>118.0</ele><time>2026-04-18T14:01:55.002Z</time></trkpt><trkpt lat="45.40735642197578" lon="8.927907236078005"><ele>118.0</ele><time>2026-04-18T14:01:56.002Z</time></trkpt><trkpt lat="45.40747507233631" lon="8.92782651215594"><ele>118.0</ele><time>2026-04-18T14:01:57.002Z</time></trkpt><trkpt lat="45.40760003132273" lon="8.927763278924083"><ele>118.0</ele><time>2026-04-18T14:01:58.002Z</time></trkpt><trkpt lat="45.407731896689015" lon="8.92772011073649"><ele>118.0</ele><time>2026-04-18T14:01:59.002Z</time></trkpt><trkpt lat="45.40787144925637" lon="8.927688577435697"><ele>118.0</ele><time>2026-04-18T14:02:00.002Z</time></trkpt><trkpt lat="45.408019068500415" lon="8.927671076658365"><ele>118.0</ele><time>2026-04-18T14:02:01.002Z</time></trkpt><trkpt lat="45.40816278672438" lon="8.927684309139698"><ele>118.25</ele><time>2026-04-18T14:02:02.002Z</time></trkpt><trkpt lat="45.40828717256806" lon="8.927724143037452"><ele>118.5</ele><time>2026-04-18T14:02:03.002Z</time></trkpt><trkpt lat="45.408402853589436" lon="8.927775912614738"><ele>118.75</ele><time>2026-04-18T14:02:04.002Z</time></trkpt><trkpt lat="45.40851849633112" lon="8.92784108103929"><ele>119.0</ele><time>2026-04-18T14:02:05.002Z</time></trkpt><trkpt lat="45.40862183067716" lon="8.927914273774523"><ele>119.0</ele><time>2026-04-18T14:02:06.002Z</time></trkpt><trkpt lat="45.40870832541301" lon="8.927983966073691"><ele>119.0</ele><time>2026-04-18T14:02:07.002Z</time></trkpt><trkpt lat="45.4087866244986" lon="8.928057955579511"><ele>119.0</ele><time>2026-04-18T14:02:08.002Z</time></trkpt><trkpt lat="45.40886567151381" lon="8.92813933540512"><ele>119.0</ele><time>2026-04-18T14:02:09.002Z</time></trkpt><trkpt lat="45.40894583862502" lon="8.928222007064681"><ele>119.0</ele><time>2026-04-18T14:02:10.002Z</time></trkpt><trkpt lat="45.40903495740634" lon="8.928322087651985"><ele>119.0</ele><time>2026-04-18T14:02:11.003Z</time></trkpt><trkpt lat="45.409139500041334" lon="8.92842831378134"><ele>119.0</ele><time>2026-04-18T14:02:12.003Z</time></trkpt><trkpt lat="45.40923416048516" lon="8.928527828599405"><ele>119.0</ele><time>2026-04-18T14:02:13.003Z</time></trkpt><trkpt lat="45.40931441806006" lon="8.9286170147448"><ele>119.0</ele><time>2026-04-18T14:02:14.003Z</time></trkpt><trkpt lat="45.40938787871287" lon="8.92870027277511"><ele>119.0</ele><time>2026-04-18T14:02:15.003Z</time></trkpt><trkpt lat="45.40946073929526" lon="8.92878040234817"><ele>119.0</ele><time>2026-04-18T14:02:16.003Z</time></trkpt><trkpt lat="45.409542612191856" lon="8.92887287542598"><ele>119.0</ele><time>2026-04-18T14:02:17.003Z</time></trkpt><trkpt lat="45.4096332351342" lon="8.928977832843401"><ele>119.0</ele><time>2026-04-18T14:02:18.003Z</time></trkpt><trkpt lat="45.40973853351022" lon="8.929094517222014"><ele>119.0</ele><time>2026-04-18T14:02:19.003Z</time></trkpt><trkpt lat="45.40984727598515" lon="8.929211981298014"><ele>118.75</ele><time>2026-04-18T14:02:20.003Z</time></trkpt><trkpt lat="45.40995213563462" lon="8.929326177630209"><ele>118.5</ele><time>2026-04-18T14:02:21.003Z</time></trkpt><trkpt lat="45.410045006489185" lon="8.92943600899085"><ele>118.25</ele><time>2026-04-18T14:02:22.003Z</time></trkpt><trkpt lat="45.41013512410191" lon="8.929543295938208"><ele>118.0</ele><time>2026-04-18T14:02:23.003Z</time></trkpt><trkpt lat="45.41022341144512" lon="8.929647939311655"><ele>118.0</ele><time>2026-04-18T14:02:24.003Z</time></trkpt><trkpt lat="45.410323296358335" lon="8.929758014298738"><ele>118.0</ele><time>2026-04-18T14:02:25.003Z</time></trkpt><trkpt lat="45.4104220874575" lon="8.929863224960808"><ele>118.0</ele><time>2026-04-18T14:02:26.003Z</time></trkpt><trkpt lat="45.410521008584524" lon="8.92997128685164"><ele>118.0</ele><time>2026-04-18T14:02:27.003Z</time></trkpt><trkpt lat="45.410622003382514" lon="8.930081267380311"><ele>118.2</ele><time>2026-04-18T14:02:28.003Z</time></trkpt><trkpt lat="45.41071868617847" lon="8.930192307123496"><ele>118.4</ele><time>2026-04-18T14:02:29.003Z</time></trkpt><trkpt lat="45.410808660395226" lon="8.930293531833755"><ele>118.60000000000001</ele><time>2026-04-18T14:02:30.003Z</time></trkpt><trkpt lat="45.41088749330942" lon="8.930383979056714"><ele>118.80000000000001</ele><time>2026-04-18T14:02:31.003Z</time></trkpt><trkpt lat="45.41096583505291" lon="8.93046966531978"><ele>119.0</ele><time>2026-04-18T14:02:32.003Z</time></trkpt><trkpt lat="45.41104470773555" lon="8.93055787606153"><ele>119.0</ele><time>2026-04-18T14:02:33.003Z</time></trkpt><trkpt lat="45.41112955768415" lon="8.930653488621292"><ele>119.0</ele><time>2026-04-18T14:02:34.003Z</time></trkpt><trkpt lat="45.41122221685386" lon="8.930750927825292"><ele>119.0</ele><time>2026-04-18T14:02:35.003Z</time></trkpt><trkpt lat="45.41131625327256" lon="8.93084859467917"><ele>119.0</ele><time>2026-04-18T14:02:36.003Z</time></trkpt><trkpt lat="45.41141487886348" lon="8.930944906046665"><ele>119.5</ele><time>2026-04-18T14:02:37.003Z</time></trkpt><trkpt lat="45.411513172387174" lon="8.931045520510118"><ele>120.0</ele><time>2026-04-18T14:02:37.996Z</time></trkpt><trkpt lat="45.411612835276046" lon="8.931157120934834"><ele>120.5</ele><time>2026-04-18T14:02:38.997Z</time></trkpt><trkpt lat="45.411714523262994" lon="8.931267756660505"><ele>121.0</ele><time>2026-04-18T14:02:39.997Z</time></trkpt><trkpt lat="45.41180378460828" lon="8.931370724590659"><ele>121.0</ele><time>2026-04-18T14:02:40.997Z</time></trkpt><trkpt lat="45.41188861579275" lon="8.931463928159246"><ele>121.0</ele><time>2026-04-18T14:02:41.997Z</time></trkpt><trkpt lat="45.41198316322451" lon="8.931568377438335"><ele>121.0</ele><time>2026-04-18T14:02:42.997Z</time></trkpt><trkpt lat="45.4120781782084" lon="8.931674625221953"><ele>121.0</ele><time>2026-04-18T14:02:43.997Z</time></trkpt><trkpt lat="45.41217552132048" lon="8.931778375780011"><ele>120.25</ele><time>2026-04-18T14:02:44.997Z</time></trkpt><trkpt lat="45.41227021294499" lon="8.931873075230415"><ele>119.5</ele><time>2026-04-18T14:02:45.998Z</time></trkpt><trkpt lat="45.412377383438645" lon="8.931972567613462"><ele>118.75</ele><time>2026-04-18T14:02:46.998Z</time></trkpt><trkpt lat="45.41250036620935" lon="8.93208694857369"><ele>118.0</ele><time>2026-04-18T14:02:47.998Z</time></trkpt><trkpt lat="45.41263476151128" lon="8.932218946816276"><ele>118.0</ele><time>2026-04-18T14:02:48.998Z</time></trkpt><trkpt lat="45.41277944477595" lon="8.932368084700167"><ele>118.0</ele><time>2026-04-18T14:02:49.998Z</time></trkpt><trkpt lat="45.41293525111705" lon="8.932535751916433"><ele>118.0</ele><time>2026-04-18T14:02:50.998Z</time></trkpt><trkpt lat="45.41309029164714" lon="8.93271426012372"><ele>118.0</ele><time>2026-04-18T14:02:51.998Z</time></trkpt><trkpt lat="45.41324280636884" lon="8.932901895359935"><ele>118.0</ele><time>2026-04-18T14:02:52.998Z</time></trkpt><trkpt lat="45.41338256104648" lon="8.933095038709256"><ele>118.0</ele><time>2026-04-18T14:02:53.999Z</time></trkpt><trkpt lat="45.41351924399143" lon="8.933283683062477"><ele>118.66666666666667</ele><time>2026-04-18T14:02:54.999Z</time></trkpt><trkpt lat="45.413640105197075" lon="8.933463511524916"><ele>119.33333333333334</ele><time>2026-04-18T14:02:55.999Z</time></trkpt><trkpt lat="45.413746770282614" lon="8.933630300964811"><ele>120.0</ele><time>2026-04-18T14:02:56.999Z</time></trkpt><trkpt lat="45.41384750489281" lon="8.933792133418303"><ele>120.25</ele><time>2026-04-18T14:02:57.999Z</time></trkpt><trkpt lat="45.41393439518259" lon="8.933945099023957"><ele>120.5</ele><time>2026-04-18T14:02:58.999Z</time></trkpt><trkpt lat="45.41401148019076" lon="8.934090860030622"><ele>120.75</ele><time>2026-04-18T14:02:59.999Z</time></trkpt><trkpt lat="45.41408236020877" lon="8.934228116260087"><ele>121.0</ele><time>2026-04-18T14:03:00.999Z</time></trkpt><trkpt lat="45.41414398201155" lon="8.934358646000922"><ele>121.0</ele><time>2026-04-18T14:03:01.999Z</time></trkpt><trkpt lat="45.414207932958355" lon="8.93448561593038"><ele>121.0</ele><time>2026-04-18T14:03:02.999Z</time></trkpt><trkpt lat="45.414262894642526" lon="8.934598867418904"><ele>121.0</ele><time>2026-04-18T14:03:04Z</time></trkpt><trkpt lat="45.4143132057974" lon="8.934689044813407"><ele>121.0</ele><time>2026-04-18T14:03:05Z</time></trkpt><trkpt lat="45.414376568661424" lon="8.934811445628515"><ele>121.0</ele><time>2026-04-18T14:03:07Z</time></trkpt><trkpt lat="45.41441283280192" lon="8.934892263163444"><ele>121.00000000000001</ele><time>2026-04-18T14:03:11Z</time></trkpt><trkpt lat="45.414459286337305" lon="8.934986655098006"><ele>121.0</ele><time>2026-04-18T14:03:40.001Z</time></trkpt><trkpt lat="45.41449448933144" lon="8.935063197765075"><ele>121.0</ele><time>2026-04-18T14:03:41.001Z</time></trkpt><trkpt lat="45.414534820137504" lon="8.935154740847802"><ele>121.0</ele><time>2026-04-18T14:03:42.001Z</time></trkpt><trkpt lat="45.41457525707836" lon="8.935235508272305"><ele>121.00000000000001</ele><time>2026-04-18T14:03:43.001Z</time></trkpt><trkpt lat="45.41467672744354" lon="8.935294472395395"><ele>121.0</ele><time>2026-04-18T14:03:45.001Z</time></trkpt><trkpt lat="45.41479698714695" lon="8.935221214399341"><ele>121.0</ele><time>2026-04-18T14:03:47.002Z</time></trkpt><trkpt lat="45.41487766616011" lon="8.935175887282943"><ele>121.0</ele><time>2026-04-18T14:03:48.002Z</time></trkpt><trkpt lat="45.414977768243844" lon="8.935149684267412"><ele>121.0</ele><time>2026-04-18T14:03:49.002Z</time></trkpt><trkpt lat="45.415080435817316" lon="8.935142081710296"><ele>121.0</ele><time>2026-04-18T14:03:50.002Z</time></trkpt><trkpt lat="45.41519321393107" lon="8.935132179338316"><ele>121.0</ele><time>2026-04-18T14:03:51.002Z</time></trkpt><trkpt lat="45.415316445787575" lon="8.935133631443566"><ele>121.0</ele><time>2026-04-18T14:03:52.002Z</time></trkpt><trkpt lat="45.41544966476941" lon="8.935153265864397"><ele>121.0</ele><time>2026-04-18T14:03:53.002Z</time></trkpt><trkpt lat="45.415586280036266" lon="8.935184281519243"><ele>121.0</ele><time>2026-04-18T14:03:54.002Z</time></trkpt><trkpt lat="45.415726772466286" lon="8.935227460206137"><ele>121.0</ele><time>2026-04-18T14:03:55.002Z</time></trkpt><trkpt lat="45.41586218397542" lon="8.935292845683223"><ele>121.0</ele><time>2026-04-18T14:03:56.002Z</time></trkpt><trkpt lat="45.41598325437984" lon="8.935366085296838"><ele>121.0</ele><time>2026-04-18T14:03:57.002Z</time></trkpt><trkpt lat="45.41609601100902" lon="8.93540852478763"><ele>121.0</ele><time>2026-04-18T14:03:58.002Z</time></trkpt><trkpt lat="45.416211726210136" lon="8.935441703734492"><ele>121.0</ele><time>2026-04-18T14:03:59.002Z</time></trkpt><trkpt lat="45.41632093459064" lon="8.935468856776778"><ele>121.0</ele><time>2026-04-18T14:04:00.002Z</time></trkpt><trkpt lat="45.416433616923584" lon="8.935488771557937"><ele>121.0</ele><time>2026-04-18T14:04:01.002Z</time></trkpt><trkpt lat="45.416545463343944" lon="8.935507785973982"><ele>121.0</ele><time>2026-04-18T14:04:02.002Z</time></trkpt><trkpt lat="45.41666829050197" lon="8.935505243084059"><ele>121.0</ele><time>2026-04-18T14:04:03.002Z</time></trkpt><trkpt lat="45.41679145480102" lon="8.935521766773148"><ele>121.0</ele><time>2026-04-18T14:04:04.002Z</time></trkpt><trkpt lat="45.41690093387285" lon="8.935536436802181"><ele>121.0</ele><time>2026-04-18T14:04:05.002Z</time></trkpt><trkpt lat="45.416999683580734" lon="8.935551202636542"><ele>121.0</ele><time>2026-04-18T14:04:06.002Z</time></trkpt><trkpt lat="45.41709171962173" lon="8.935559600801218"><ele>121.0</ele><time>2026-04-18T14:04:07.002Z</time></trkpt><trkpt lat="45.41717948378766" lon="8.935565814948598"><ele>121.0</ele><time>2026-04-18T14:04:08.002Z</time></trkpt><trkpt lat="45.41726492707484" lon="8.935584759440143"><ele>121.19999999999999</ele><time>2026-04-18T14:04:09.002Z</time></trkpt><trkpt lat="45.41733981821234" lon="8.93559647423776"><ele>121.39999999999999</ele><time>2026-04-18T14:04:10.002Z</time></trkpt><trkpt lat="45.41741125324428" lon="8.935582396911471"><ele>121.6</ele><time>2026-04-18T14:04:11.002Z</time></trkpt><trkpt lat="45.417470320002494" lon="8.935502690728953"><ele>121.8</ele><time>2026-04-18T14:04:12.002Z</time></trkpt><trkpt lat="45.417517697485934" lon="8.935369239929749"><ele>122.0</ele><time>2026-04-18T14:04:13.002Z</time></trkpt><trkpt lat="45.417548771290065" lon="8.93520438267623"><ele>121.99999999999999</ele><time>2026-04-18T14:04:14.002Z</time></trkpt><trkpt lat="45.417592776455244" lon="8.935068273850629"><ele>122.0</ele><time>2026-04-18T14:04:15.002Z</time></trkpt><trkpt lat="45.41763446361476" lon="8.934958513141993"><ele>122.0</ele><time>2026-04-18T14:04:16.002Z</time></trkpt><trkpt lat="45.41768376434857" lon="8.934857935202146"><ele>122.0</ele><time>2026-04-18T14:04:17.002Z</time></trkpt><trkpt lat="45.41772891955957" lon="8.934763525341667"><ele>121.99999999999999</ele><time>2026-04-18T14:04:18.003Z</time></trkpt><trkpt lat="45.41778459535446" lon="8.934672843381389"><ele>122.0</ele><time>2026-04-18T14:04:19.003Z</time></trkpt><trkpt lat="45.41784190578989" lon="8.934582054304352"><ele>121.99999999999999</ele><time>2026-04-18T14:04:20.003Z</time></trkpt><trkpt lat="45.417902257832" lon="8.934490056273912"><ele>122.0</ele><time>2026-04-18T14:04:21.003Z</time></trkpt><trkpt lat="45.417977602991584" lon="8.934414965390353"><ele>122.0</ele><time>2026-04-18T14:04:22.003Z</time></trkpt><trkpt lat="45.41807121947114" lon="8.934373542863959"><ele>122.0</ele><time>2026-04-18T14:04:23.003Z</time></trkpt><trkpt lat="45.418152704769035" lon="8.93435634967316"><ele>121.99999999999999</ele><time>2026-04-18T14:04:24.003Z</time></trkpt><trkpt lat="45.418228702215615" lon="8.934336849678255"><ele>122.0</ele><time>2026-04-18T14:04:25.003Z</time></trkpt><trkpt lat="45.41829550694258" lon="8.934314559576547"><ele>122.14285714285712</ele><time>2026-04-18T14:04:26.003Z</time></trkpt><trkpt lat="45.41835867092626" lon="8.934283052484872"><ele>122.28571428571428</ele><time>2026-04-18T14:04:27.003Z</time></trkpt><trkpt lat="45.41842396545798" lon="8.934253601939826"><ele>122.42857142857143</ele><time>2026-04-18T14:04:28.003Z</time></trkpt><trkpt lat="45.41849290285055" lon="8.934216497187638"><ele>122.57142857142857</ele><time>2026-04-18T14:04:29.003Z</time></trkpt><trkpt lat="45.4185597613272" lon="8.93419304588321"><ele>122.71428571428572</ele><time>2026-04-18T14:04:30.003Z</time></trkpt><trkpt lat="45.41863038324132" lon="8.934164683251124"><ele>122.85714285714288</ele><time>2026-04-18T14:04:31.003Z</time></trkpt><trkpt lat="45.41870011494958" lon="8.93413514239416"><ele>123.00000000000001</ele><time>2026-04-18T14:04:32.003Z</time></trkpt><trkpt lat="45.41876893765723" lon="8.934111309151094"><ele>123.0</ele><time>2026-04-18T14:04:33.003Z</time></trkpt><trkpt lat="45.418858668178686" lon="8.9340630754038"><ele>123.0</ele><time>2026-04-18T14:04:34.003Z</time></trkpt><trkpt lat="45.41897336193879" lon="8.933991919990964"><ele>123.0</ele><time>2026-04-18T14:04:35.003Z</time></trkpt><trkpt lat="45.419101348419375" lon="8.933933558205139"><ele>123.0</ele><time>2026-04-18T14:04:36.003Z</time></trkpt><trkpt lat="45.419243665396024" lon="8.933887021679967"><ele>123.0</ele><time>2026-04-18T14:04:37.003Z</time></trkpt><trkpt lat="45.41939326540304" lon="8.933854146567933"><ele>123.0</ele><time>2026-04-18T14:04:38.003Z</time></trkpt><trkpt lat="45.41954377414592" lon="8.933798897707323"><ele>123.0</ele><time>2026-04-18T14:04:39.003Z</time></trkpt><trkpt lat="45.4196759312261" lon="8.933729912997828"><ele>123.0</ele><time>2026-04-18T14:04:40.003Z</time></trkpt><trkpt lat="45.41979838856825" lon="8.933661815823251"><ele>122.75</ele><time>2026-04-18T14:04:41.003Z</time></trkpt><trkpt lat="45.419909953937264" lon="8.933596404891068"><ele>122.5</ele><time>2026-04-18T14:04:42.003Z</time></trkpt><trkpt lat="45.42001518165443" lon="8.933530402156062"><ele>122.25</ele><time>2026-04-18T14:04:43.003Z</time></trkpt><trkpt lat="45.42012204882046" lon="8.933465582847367"><ele>122.0</ele><time>2026-04-18T14:04:43.997Z</time></trkpt><trkpt lat="45.42023054225353" lon="8.933394368984066"><ele>122.25</ele><time>2026-04-18T14:04:44.997Z</time></trkpt><trkpt lat="45.420333136364356" lon="8.933337591049053"><ele>122.5</ele><time>2026-04-18T14:04:45.997Z</time></trkpt><trkpt lat="45.42043644598311" lon="8.933278241241661"><ele>122.75</ele><time>2026-04-18T14:04:46.998Z</time></trkpt><trkpt lat="45.4205455112748" lon="8.933219885818255"><ele>123.0</ele><time>2026-04-18T14:04:47.998Z</time></trkpt><trkpt lat="45.420664260430954" lon="8.933161039525219"><ele>123.0</ele><time>2026-04-18T14:04:48.998Z</time></trkpt><trkpt lat="45.42077784393421" lon="8.9330944012949"><ele>123.0</ele><time>2026-04-18T14:04:49.998Z</time></trkpt><trkpt lat="45.42090022809303" lon="8.933032170960393"><ele>123.0</ele><time>2026-04-18T14:04:50.998Z</time></trkpt><trkpt lat="45.42102147009405" lon="8.932961337171097"><ele>123.0</ele><time>2026-04-18T14:04:51.998Z</time></trkpt><trkpt lat="45.42115178481492" lon="8.932893291062575"><ele>123.0</ele><time>2026-04-18T14:04:52.998Z</time></trkpt><trkpt lat="45.42128373067714" lon="8.932828809619487"><ele>123.0</ele><time>2026-04-18T14:04:53.998Z</time></trkpt><trkpt lat="45.42142398084516" lon="8.932776759538937"><ele>123.0</ele><time>2026-04-18T14:04:54.998Z</time></trkpt><trkpt lat="45.42156441463551" lon="8.932721521070436"><ele>123.0</ele><time>2026-04-18T14:04:55.998Z</time></trkpt><trkpt lat="45.42169631942546" lon="8.932647070420407"><ele>123.0</ele><time>2026-04-18T14:04:56.999Z</time></trkpt><trkpt lat="45.42182169155937" lon="8.93257065516661"><ele>123.0</ele><time>2026-04-18T14:04:57.999Z</time></trkpt><trkpt lat="45.421931608189105" lon="8.932484670860562"><ele>123.0</ele><time>2026-04-18T14:04:58.999Z</time></trkpt><trkpt lat="45.422056096305106" lon="8.93241838710927"><ele>123.0</ele><time>2026-04-18T14:04:59.999Z</time></trkpt><trkpt lat="45.42217769059113" lon="8.932364373751735"><ele>123.0</ele><time>2026-04-18T14:05:00.999Z</time></trkpt><trkpt lat="45.42227111403266" lon="8.932324289174502"><ele>123.00000000000001</ele><time>2026-04-18T14:05:01.999Z</time></trkpt><trkpt lat="45.422375935856905" lon="8.93229333024746"><ele>123.00000000000001</ele><time>2026-04-18T14:05:03.999Z</time></trkpt><trkpt lat="45.42247115163199" lon="8.932413488209516"><ele>123.0</ele><time>2026-04-18T14:05:05.999Z</time></trkpt><trkpt lat="45.422526241963205" lon="8.932499082134084"><ele>123.0</ele><time>2026-04-18T14:05:07Z</time></trkpt><trkpt lat="45.42258810925977" lon="8.932597673972726"><ele>122.75</ele><time>2026-04-18T14:05:08Z</time></trkpt><trkpt lat="45.42265637248197" lon="8.932706487035901"><ele>122.5</ele><time>2026-04-18T14:05:09Z</time></trkpt><trkpt lat="45.42272709700792" lon="8.932835215283156"><ele>122.25</ele><time>2026-04-18T14:05:10Z</time></trkpt><trkpt lat="45.42278888592474" lon="8.932977620080035"><ele>122.0</ele><time>2026-04-18T14:05:11Z</time></trkpt><trkpt lat="45.42284421464943" lon="8.933134036819661"><ele>122.0</ele><time>2026-04-18T14:05:12Z</time></trkpt><trkpt lat="45.422887020436825" lon="8.93330570912163"><ele>122.0</ele><time>2026-04-18T14:05:13Z</time></trkpt><trkpt lat="45.422922402969974" lon="8.93348096648333"><ele>122.0</ele><time>2026-04-18T14:05:14Z</time></trkpt><trkpt lat="45.42296197696035" lon="8.933636101664687"><ele>122.0</ele><time>2026-04-18T14:05:15Z</time></trkpt><trkpt lat="45.42300121726468" lon="8.93377198699507"><ele>121.99999999999999</ele><time>2026-04-18T14:05:16Z</time></trkpt><trkpt lat="45.42303634858184" lon="8.933888782252598"><ele>122.0</ele><time>2026-04-18T14:05:17Z</time></trkpt><trkpt lat="45.42306949514594" lon="8.933994814978623"><ele>122.0</ele><time>2026-04-18T14:05:18Z</time></trkpt><trkpt lat="45.42309939737032" lon="8.934096268976358"><ele>122.0</ele><time>2026-04-18T14:05:19Z</time></trkpt><trkpt lat="45.423118566190176" lon="8.934192766050508"><ele>121.99999999999999</ele><time>2026-04-18T14:05:20Z</time></trkpt><trkpt lat="45.423130637577266" lon="8.934281908635159"><ele>122.0</ele><time>2026-04-18T14:05:21Z</time></trkpt><trkpt lat="45.42316231497925" lon="8.934430948037564"><ele>122.0</ele><time>2026-04-18T14:05:23Z</time></trkpt><trkpt lat="45.4231820770198" lon="8.934524476356467"><ele>121.99999999999999</ele><time>2026-04-18T14:05:25.001Z</time></trkpt><trkpt lat="45.42327433624923" lon="8.934519460472208"><ele>121.99999999999999</ele><time>2026-04-18T14:05:29.001Z</time></trkpt><trkpt lat="45.42333196263808" lon="8.934428733416487"><ele>122.0</ele><time>2026-04-18T14:05:30.001Z</time></trkpt><trkpt lat="45.42340932265585" lon="8.934323556613"><ele>122.0</ele><time>2026-04-18T14:05:31.001Z</time></trkpt><trkpt lat="45.423515893131494" lon="8.934219988330712"><ele>122.33333333333333</ele><time>2026-04-18T14:05:32.001Z</time></trkpt><trkpt lat="45.4236521062634" lon="8.934091557030515"><ele>122.66666666666666</ele><time>2026-04-18T14:05:33.001Z</time></trkpt><trkpt lat="45.42377406932211" lon="8.933957795757419"><ele>123.0</ele><time>2026-04-18T14:05:34.001Z</time></trkpt><trkpt lat="45.42388258398745" lon="8.933844795326541"><ele>122.60000000000001</ele><time>2026-04-18T14:05:35.001Z</time></trkpt><trkpt lat="45.42398087531219" lon="8.933750865240015"><ele>122.20000000000002</ele><time>2026-04-18T14:05:36.001Z</time></trkpt><trkpt lat="45.42406511331655" lon="8.933665204122926"><ele>121.8</ele><time>2026-04-18T14:05:37.001Z</time></trkpt><trkpt lat="45.424156797522" lon="8.933578989275784"><ele>121.4</ele><time>2026-04-18T14:05:38.001Z</time></trkpt><trkpt lat="45.42425047356295" lon="8.93349282676739"><ele>121.0</ele><time>2026-04-18T14:05:39.001Z</time></trkpt><trkpt lat="45.424348140963346" lon="8.933403012999497"><ele>121.25</ele><time>2026-04-18T14:05:40.001Z</time></trkpt><trkpt lat="45.424455330660706" lon="8.933319608657607"><ele>121.5</ele><time>2026-04-18T14:05:41.001Z</time></trkpt><trkpt lat="45.42455840134486" lon="8.933236169847703"><ele>121.75</ele><time>2026-04-18T14:05:42.001Z</time></trkpt><trkpt lat="45.42466068837883" lon="8.933147419287849"><ele>122.0</ele><time>2026-04-18T14:05:43.001Z</time></trkpt><trkpt lat="45.42476528406616" lon="8.933060664083055"><ele>122.25</ele><time>2026-04-18T14:05:44.001Z</time></trkpt><trkpt lat="45.42487662056551" lon="8.93296942796724"><ele>122.5</ele><time>2026-04-18T14:05:45.001Z</time></trkpt><trkpt lat="45.42498701891793" lon="8.932866311609848"><ele>122.75</ele><time>2026-04-18T14:05:46.001Z</time></trkpt><trkpt lat="45.425101080069695" lon="8.932760255099085"><ele>123.0</ele><time>2026-04-18T14:05:47.001Z</time></trkpt><trkpt lat="45.425205940830594" lon="8.932656789171308"><ele>123.0</ele><time>2026-04-18T14:05:48.001Z</time></trkpt><trkpt lat="45.425309572317744" lon="8.93256134379601"><ele>123.00000000000001</ele><time>2026-04-18T14:05:49.001Z</time></trkpt><trkpt lat="45.425403203822555" lon="8.932466972957588"><ele>123.00000000000001</ele><time>2026-04-18T14:05:50.002Z</time></trkpt><trkpt lat="45.425487049704955" lon="8.932376981192244"><ele>123.0</ele><time>2026-04-18T14:05:51.002Z</time></trkpt><trkpt lat="45.42556100987253" lon="8.932290987461819"><ele>123.0</ele><time>2026-04-18T14:05:52.002Z</time></trkpt><trkpt lat="45.42563699841025" lon="8.93220281448743"><ele>123.0</ele><time>2026-04-18T14:05:53.002Z</time></trkpt><trkpt lat="45.425711812281776" lon="8.93210696940823"><ele>123.00000000000001</ele><time>2026-04-18T14:05:54.002Z</time></trkpt><trkpt lat="45.425788252004594" lon="8.93201174773951"><ele>123.00000000000001</ele><time>2026-04-18T14:05:55.002Z</time></trkpt><trkpt lat="45.4258676628567" lon="8.931909401131039"><ele>123.0</ele><time>2026-04-18T14:05:56.002Z</time></trkpt><trkpt lat="45.425945340109784" lon="8.931804760990328"><ele>123.0</ele><time>2026-04-18T14:05:57.002Z</time></trkpt><trkpt lat="45.426028790554476" lon="8.931716003494886"><ele>122.75</ele><time>2026-04-18T14:05:58.002Z</time></trkpt><trkpt lat="45.42611718507432" lon="8.931645610414138"><ele>122.5</ele><time>2026-04-18T14:05:59.002Z</time></trkpt><trkpt lat="45.426219640065185" lon="8.931592524248503"><ele>122.25</ele><time>2026-04-18T14:06:00.002Z</time></trkpt><trkpt lat="45.426337580082524" lon="8.931563414716678"><ele>122.0</ele><time>2026-04-18T14:06:01.002Z</time></trkpt><trkpt lat="45.426463298425716" lon="8.931534001704833"><ele>122.75</ele><time>2026-04-18T14:06:02.002Z</time></trkpt><trkpt lat="45.42659930966689" lon="8.931515503767569"><ele>123.5</ele><time>2026-04-18T14:06:03.002Z</time></trkpt><trkpt lat="45.426741680349664" lon="8.931506184565592"><ele>124.25</ele><time>2026-04-18T14:06:04.002Z</time></trkpt><trkpt lat="45.42688808814065" lon="8.931506368084776"><ele>125.0</ele><time>2026-04-18T14:06:05.002Z</time></trkpt><trkpt lat="45.42703714224214" lon="8.931507117630519"><ele>124.66666666666666</ele><time>2026-04-18T14:06:06.002Z</time></trkpt><trkpt lat="45.42718554685604" lon="8.931514384747118"><ele>124.33333333333334</ele><time>2026-04-18T14:06:07.002Z</time></trkpt><trkpt lat="45.427338349026016" lon="8.931513159592383"><ele>124.0</ele><time>2026-04-18T14:06:08.002Z</time></trkpt><trkpt lat="45.42749688098898" lon="8.931495077247611"><ele>124.0</ele><time>2026-04-18T14:06:09.002Z</time></trkpt><trkpt lat="45.42765351038635" lon="8.931456997188082"><ele>124.0</ele><time>2026-04-18T14:06:10.002Z</time></trkpt><trkpt lat="45.42781659241104" lon="8.931411510871355"><ele>124.0</ele><time>2026-04-18T14:06:11.002Z</time></trkpt><trkpt lat="45.42797838558075" lon="8.931372449293193"><ele>124.0</ele><time>2026-04-18T14:06:12.002Z</time></trkpt><trkpt lat="45.42815506921257" lon="8.931331509082783"><ele>124.0</ele><time>2026-04-18T14:06:13.002Z</time></trkpt><trkpt lat="45.42832682857176" lon="8.931294990391185"><ele>124.0</ele><time>2026-04-18T14:06:14.002Z</time></trkpt><trkpt lat="45.428500742446026" lon="8.931256933317808"><ele>124.0</ele><time>2026-04-18T14:06:15.002Z</time></trkpt><trkpt lat="45.428673785766165" lon="8.931221745623267"><ele>124.0</ele><time>2026-04-18T14:06:16.002Z</time></trkpt><trkpt lat="45.42884840213147" lon="8.931184749934042"><ele>124.0</ele><time>2026-04-18T14:06:17.002Z</time></trkpt><trkpt lat="45.4290236245218" lon="8.93114267198903"><ele>123.66666666666667</ele><time>2026-04-18T14:06:18.002Z</time></trkpt><trkpt lat="45.42919823838898" lon="8.93109544675962"><ele>123.33333333333334</ele><time>2026-04-18T14:06:19.002Z</time></trkpt><trkpt lat="45.429375957651686" lon="8.931041479265271"><ele>123.0</ele><time>2026-04-18T14:06:20.002Z</time></trkpt><trkpt lat="45.429553111649355" lon="8.930982407710012"><ele>122.66666666666666</ele><time>2026-04-18T14:06:21.002Z</time></trkpt><trkpt lat="45.42972908303711" lon="8.930922150182537"><ele>122.33333333333333</ele><time>2026-04-18T14:06:22.003Z</time></trkpt><trkpt lat="45.42990550528624" lon="8.930854091210588"><ele>122.0</ele><time>2026-04-18T14:06:23.003Z</time></trkpt><trkpt lat="45.43007473414683" lon="8.930783456923317"><ele>122.66666666666666</ele><time>2026-04-18T14:06:24.003Z</time></trkpt><trkpt lat="45.430248744722874" lon="8.930708149634807"><ele>123.33333333333334</ele><time>2026-04-18T14:06:25.003Z</time></trkpt><trkpt lat="45.430422185799166" lon="8.930632606662979"><ele>124.0</ele><time>2026-04-18T14:06:26.003Z</time></trkpt><trkpt lat="45.43060452173477" lon="8.930556516810952"><ele>124.33333333333334</ele><time>2026-04-18T14:06:27.003Z</time></trkpt><trkpt lat="45.43078530869913" lon="8.93047882038488"><ele>124.66666666666666</ele><time>2026-04-18T14:06:28.003Z</time></trkpt><trkpt lat="45.430961318938564" lon="8.930403363259298"><ele>125.0</ele><time>2026-04-18T14:06:29.003Z</time></trkpt><trkpt lat="45.431123077862026" lon="8.930333603778243"><ele>125.0</ele><time>2026-04-18T14:06:30.003Z</time></trkpt><trkpt lat="45.43127747132667" lon="8.930259353932557"><ele>125.0</ele><time>2026-04-18T14:06:31.003Z</time></trkpt><trkpt lat="45.43142377537893" lon="8.930200833736912"><ele>125.0</ele><time>2026-04-18T14:06:32.003Z</time></trkpt><trkpt lat="45.43156438022451" lon="8.93014658532394"><ele>124.75</ele><time>2026-04-18T14:06:33.003Z</time></trkpt><trkpt lat="45.43169957078237" lon="8.930102402281786"><ele>124.5</ele><time>2026-04-18T14:06:34.003Z</time></trkpt><trkpt lat="45.431827811859236" lon="8.930078696934038"><ele>124.25</ele><time>2026-04-18T14:06:35.003Z</time></trkpt><trkpt lat="45.43194010694953" lon="8.930125003891582"><ele>124.0</ele><time>2026-04-18T14:06:36.003Z</time></trkpt><trkpt lat="45.43201303288363" lon="8.9302286532108"><ele>124.0</ele><time>2026-04-18T14:06:37.003Z</time></trkpt><trkpt lat="45.432053256764824" lon="8.930358508907176"><ele>124.0</ele><time>2026-04-18T14:06:38.003Z</time></trkpt><trkpt lat="45.432075847536986" lon="8.93052130637496"><ele>124.0</ele><time>2026-04-18T14:06:39.003Z</time></trkpt><trkpt lat="45.43210574961089" lon="8.930730251390383"><ele>124.0</ele><time>2026-04-18T14:06:40.003Z</time></trkpt><trkpt lat="45.43212705349394" lon="8.930941051440284"><ele>123.75</ele><time>2026-04-18T14:06:41.003Z</time></trkpt><trkpt lat="45.432148171249835" lon="8.931123146863094"><ele>123.5</ele><time>2026-04-18T14:06:42.003Z</time></trkpt><trkpt lat="45.432174281911706" lon="8.931290958860464"><ele>123.25</ele><time>2026-04-18T14:06:43.003Z</time></trkpt><trkpt lat="45.432198414148296" lon="8.931445430489063"><ele>123.0</ele><time>2026-04-18T14:06:44.003Z</time></trkpt><trkpt lat="45.43222259771608" lon="8.931582468930472"><ele>123.0</ele><time>2026-04-18T14:06:45.003Z</time></trkpt><trkpt lat="45.43225781422145" lon="8.931704086630663"><ele>123.00000000000001</ele><time>2026-04-18T14:06:46.003Z</time></trkpt><trkpt lat="45.432322058845045" lon="8.93179148828712"><ele>123.00000000000001</ele><time>2026-04-18T14:06:47.003Z</time></trkpt><trkpt lat="45.4324158277503" lon="8.931837691114612"><ele>123.0</ele><time>2026-04-18T14:06:48.003Z</time></trkpt><trkpt lat="45.43252704256891" lon="8.931824501452283"><ele>123.0</ele><time>2026-04-18T14:06:49.003Z</time></trkpt><trkpt lat="45.432660796857675" lon="8.931768064566873"><ele>123.0</ele><time>2026-04-18T14:06:49.997Z</time></trkpt><trkpt lat="45.432818763342866" lon="8.931694564390128"><ele>123.0</ele><time>2026-04-18T14:06:50.997Z</time></trkpt><trkpt lat="45.43297248469031" lon="8.931640610845488"><ele>123.0</ele><time>2026-04-18T14:06:51.997Z</time></trkpt><trkpt lat="45.43312354159099" lon="8.931592521357404"><ele>123.66666666666666</ele><time>2026-04-18T14:06:52.997Z</time></trkpt><trkpt lat="45.43327822429258" lon="8.931544676319136"><ele>124.33333333333333</ele><time>2026-04-18T14:06:53.998Z</time></trkpt><trkpt lat="45.43343197733895" lon="8.931494392093457"><ele>125.0</ele><time>2026-04-18T14:06:54.998Z</time></trkpt><trkpt lat="45.433585993220035" lon="8.931440223598264"><ele>125.0</ele><time>2026-04-18T14:06:55.998Z</time></trkpt><trkpt lat="45.433739186201" lon="8.931382683230913"><ele>125.0</ele><time>2026-04-18T14:06:56.998Z</time></trkpt><trkpt lat="45.43389242468562" lon="8.931325707771762"><ele>125.0</ele><time>2026-04-18T14:06:57.998Z</time></trkpt><trkpt lat="45.43404585566538" lon="8.931268871737291"><ele>125.33333333333333</ele><time>2026-04-18T14:06:58.998Z</time></trkpt><trkpt lat="45.43419824413929" lon="8.931217022227855"><ele>125.66666666666666</ele><time>2026-04-18T14:06:59.998Z</time></trkpt><trkpt lat="45.43434843915071" lon="8.931165628227099"><ele>126.0</ele><time>2026-04-18T14:07:00.998Z</time></trkpt><trkpt lat="45.43450052201265" lon="8.93111522971351"><ele>125.66666666666666</ele><time>2026-04-18T14:07:01.998Z</time></trkpt><trkpt lat="45.43465419516994" lon="8.931062347216747"><ele>125.33333333333333</ele><time>2026-04-18T14:07:02.998Z</time></trkpt><trkpt lat="45.4348108669071" lon="8.931009465188545"><ele>125.0</ele><time>2026-04-18T14:07:03.999Z</time></trkpt><trkpt lat="45.43496893048553" lon="8.930958460268174"><ele>125.0</ele><time>2026-04-18T14:07:04.999Z</time></trkpt><trkpt lat="45.43512753176153" lon="8.930907259468068"><ele>125.0</ele><time>2026-04-18T14:07:05.999Z</time></trkpt><trkpt lat="45.435286531930814" lon="8.930855839798767"><ele>125.0</ele><time>2026-04-18T14:07:06.999Z</time></trkpt><trkpt lat="45.43544750625855" lon="8.930802758486788"><ele>124.66666666666666</ele><time>2026-04-18T14:07:07.999Z</time></trkpt><trkpt lat="45.43560861633365" lon="8.930747829283844"><ele>124.33333333333334</ele><time>2026-04-18T14:07:08.999Z</time></trkpt><trkpt lat="45.435769551605894" lon="8.930691390475891"><ele>124.0</ele><time>2026-04-18T14:07:09.999Z</time></trkpt><trkpt lat="45.435935183942334" lon="8.930642003561164"><ele>124.0</ele><time>2026-04-18T14:07:10.999Z</time></trkpt><trkpt lat="45.436105679076455" lon="8.93058714310232"><ele>124.0</ele><time>2026-04-18T14:07:11.999Z</time></trkpt><trkpt lat="45.43627228778486" lon="8.930536359471636"><ele>124.0</ele><time>2026-04-18T14:07:12.999Z</time></trkpt><trkpt lat="45.43642603024502" lon="8.93048627135108"><ele>124.5</ele><time>2026-04-18T14:07:13.999Z</time></trkpt><trkpt lat="45.43656883086524" lon="8.930439135626544"><ele>125.0</ele><time>2026-04-18T14:07:15Z</time></trkpt><trkpt lat="45.43671083703588" lon="8.93039463011206"><ele>125.5</ele><time>2026-04-18T14:07:16Z</time></trkpt><trkpt lat="45.43686054515152" lon="8.93034546797081"><ele>126.0</ele><time>2026-04-18T14:07:17Z</time></trkpt><trkpt lat="45.43701229884535" lon="8.930289357312262"><ele>125.66666666666666</ele><time>2026-04-18T14:07:18Z</time></trkpt><trkpt lat="45.437168311736016" lon="8.930224433403994"><ele>125.33333333333333</ele><time>2026-04-18T14:07:19Z</time></trkpt><trkpt lat="45.43732752557159" lon="8.930141453226321"><ele>125.0</ele><time>2026-04-18T14:07:20Z</time></trkpt><trkpt lat="45.437484951708385" lon="8.930042319517002"><ele>125.0</ele><time>2026-04-18T14:07:21Z</time></trkpt><trkpt lat="45.43764167255841" lon="8.929934943876559"><ele>125.0</ele><time>2026-04-18T14:07:22Z</time></trkpt><trkpt lat="45.437811921363206" lon="8.929826154596135"><ele>125.0</ele><time>2026-04-18T14:07:23Z</time></trkpt><trkpt lat="45.43797464385253" lon="8.929719052525352"><ele>124.66666666666666</ele><time>2026-04-18T14:07:24Z</time></trkpt><trkpt lat="45.4381388745037" lon="8.929592592527"><ele>124.33333333333334</ele><time>2026-04-18T14:07:25Z</time></trkpt><trkpt lat="45.43827100833467" lon="8.929491678852388"><ele>124.0</ele><time>2026-04-18T14:07:26Z</time></trkpt><trkpt lat="45.43842066225198" lon="8.929401822735743"><ele>124.0</ele><time>2026-04-18T14:07:27Z</time></trkpt><trkpt lat="45.43857787715988" lon="8.929332833626209"><ele>124.0</ele><time>2026-04-18T14:07:28Z</time></trkpt><trkpt lat="45.43873850873329" lon="8.929273981596536"><ele>124.0</ele><time>2026-04-18T14:07:29Z</time></trkpt><trkpt lat="45.43890128445701" lon="8.929209920142824"><ele>124.33333333333334</ele><time>2026-04-18T14:07:30Z</time></trkpt><trkpt lat="45.43906768874461" lon="8.929131898905098"><ele>124.66666666666666</ele><time>2026-04-18T14:07:31Z</time></trkpt><trkpt lat="45.43922964178645" lon="8.929036299337058"><ele>125.0</ele><time>2026-04-18T14:07:32Z</time></trkpt><trkpt lat="45.43939286517597" lon="8.928928440135135"><ele>125.0</ele><time>2026-04-18T14:07:33.001Z</time></trkpt><trkpt lat="45.439556802642" lon="8.928827402182744"><ele>125.0</ele><time>2026-04-18T14:07:34.001Z</time></trkpt><trkpt lat="45.43972788669912" lon="8.928739384249905"><ele>125.0</ele><time>2026-04-18T14:07:35.001Z</time></trkpt><trkpt lat="45.439909458382914" lon="8.92865654117796"><ele>125.66666666666666</ele><time>2026-04-18T14:07:36.001Z</time></trkpt><trkpt lat="45.44007656483949" lon="8.928586937878704"><ele>126.33333333333334</ele><time>2026-04-18T14:07:37.001Z</time></trkpt><trkpt lat="45.440228436494266" lon="8.928520241311851"><ele>127.0</ele><time>2026-04-18T14:07:38.001Z</time></trkpt><trkpt lat="45.44037065370805" lon="8.928461008594311"><ele>127.0</ele><time>2026-04-18T14:07:39.001Z</time></trkpt><trkpt lat="45.440505107228915" lon="8.928397469736995"><ele>127.0</ele><time>2026-04-18T14:07:40.001Z</time></trkpt><trkpt lat="45.44063005538968" lon="8.928341582446036"><ele>127.0</ele><time>2026-04-18T14:07:41.001Z</time></trkpt><trkpt lat="45.44075154758106" lon="8.928283850396218"><ele>127.0</ele><time>2026-04-18T14:07:42.001Z</time></trkpt><trkpt lat="45.440868100705636" lon="8.92827154543588"><ele>127.0</ele><time>2026-04-18T14:07:43.001Z</time></trkpt><trkpt lat="45.44098958270967" lon="8.928304367579528"><ele>127.0</ele><time>2026-04-18T14:07:44.001Z</time></trkpt><trkpt lat="45.44109202774349" lon="8.928388242304262"><ele>127.0</ele><time>2026-04-18T14:07:45.001Z</time></trkpt><trkpt lat="45.44118295449773" lon="8.928465407159134"><ele>127.0</ele><time>2026-04-18T14:07:46.001Z</time></trkpt><trkpt lat="45.44130123959677" lon="8.928471450584334"><ele>127.0</ele><time>2026-04-18T14:07:47.001Z</time></trkpt><trkpt lat="45.44145563411063" lon="8.928431171439051"><ele>127.0</ele><time>2026-04-18T14:07:48.001Z</time></trkpt><trkpt lat="45.441613549567265" lon="8.928382693148107"><ele>127.0</ele><time>2026-04-18T14:07:49.001Z</time></trkpt><trkpt lat="45.44176657880598" lon="8.92833292379701"><ele>127.0</ele><time>2026-04-18T14:07:50.001Z</time></trkpt><trkpt lat="45.44192456414359" lon="8.928281124225892"><ele>127.0</ele><time>2026-04-18T14:07:51.001Z</time></trkpt><trkpt lat="45.44208588032594" lon="8.928236158979962"><ele>127.0</ele><time>2026-04-18T14:07:52.001Z</time></trkpt><trkpt lat="45.44225582293256" lon="8.928188386909284"><ele>127.0</ele><time>2026-04-18T14:07:53.001Z</time></trkpt><trkpt lat="45.44242924557485" lon="8.928135869611591"><ele>127.0</ele><time>2026-04-18T14:07:54.001Z</time></trkpt><trkpt lat="45.442604093898126" lon="8.928084085624672"><ele>127.0</ele><time>2026-04-18T14:07:55.001Z</time></trkpt><trkpt lat="45.44278692147046" lon="8.928025490302828"><ele>127.0</ele><time>2026-04-18T14:07:56.001Z</time></trkpt><trkpt lat="45.442949716117305" lon="8.927972947730801"><ele>127.0</ele><time>2026-04-18T14:07:57.001Z</time></trkpt><trkpt lat="45.443099638705945" lon="8.927924162791632"><ele>127.0</ele><time>2026-04-18T14:07:58.001Z</time></trkpt><trkpt lat="45.44325871734172" lon="8.927876293019747"><ele>127.33333333333334</ele><time>2026-04-18T14:07:59.001Z</time></trkpt><trkpt lat="45.44341759700501" lon="8.927831330223285"><ele>127.66666666666666</ele><time>2026-04-18T14:08:00.002Z</time></trkpt><trkpt lat="45.44358135634511" lon="8.927783760277904"><ele>128.0</ele><time>2026-04-18T14:08:01.002Z</time></trkpt><trkpt lat="45.44374134210457" lon="8.927735785654017"><ele>128.33333333333331</ele><time>2026-04-18T14:08:02.002Z</time></trkpt><trkpt lat="45.443902621755264" lon="8.927687091440415"><ele>128.66666666666666</ele><time>2026-04-18T14:08:03.002Z</time></trkpt><trkpt lat="45.44404986165658" lon="8.927644332714047"><ele>129.0</ele><time>2026-04-18T14:08:04.002Z</time></trkpt><trkpt lat="45.444188537495606" lon="8.927604633140001"><ele>128.5</ele><time>2026-04-18T14:08:05.002Z</time></trkpt><trkpt lat="45.44431713119577" lon="8.9275580375621"><ele>128.0</ele><time>2026-04-18T14:08:06.002Z</time></trkpt><trkpt lat="45.44443016462857" lon="8.92749260840636"><ele>127.5</ele><time>2026-04-18T14:08:07.002Z</time></trkpt><trkpt lat="45.44452434216992" lon="8.927386763516118"><ele>127.0</ele><time>2026-04-18T14:08:08.002Z</time></trkpt><trkpt lat="45.44461195851155" lon="8.927252969239754"><ele>127.6</ele><time>2026-04-18T14:08:09.002Z</time></trkpt><trkpt lat="45.4446945693885" lon="8.927132592410478"><ele>128.2</ele><time>2026-04-18T14:08:10.002Z</time></trkpt><trkpt lat="45.44477463234498" lon="8.927042366410506"><ele>128.8</ele><time>2026-04-18T14:08:11.002Z</time></trkpt><trkpt lat="45.444859833085935" lon="8.926963452525507"><ele>129.4</ele><time>2026-04-18T14:08:12.002Z</time></trkpt><trkpt lat="45.444956573135876" lon="8.926893138126648"><ele>130.0</ele><time>2026-04-18T14:08:13.002Z</time></trkpt><trkpt lat="45.44505257417765" lon="8.926832985635796"><ele>130.0</ele><time>2026-04-18T14:08:14.002Z</time></trkpt><trkpt lat="45.44515087322306" lon="8.926790093803291"><ele>130.0</ele><time>2026-04-18T14:08:15.002Z</time></trkpt><trkpt lat="45.44525847309189" lon="8.926759896013662"><ele>130.0</ele><time>2026-04-18T14:08:16.002Z</time></trkpt><trkpt lat="45.44537033494663" lon="8.92671902254961"><ele>130.0</ele><time>2026-04-18T14:08:17.002Z</time></trkpt><trkpt lat="45.445475309568124" lon="8.926675588666312"><ele>130.0</ele><time>2026-04-18T14:08:18.002Z</time></trkpt><trkpt lat="45.44556201296178" lon="8.92663316964985"><ele>130.0</ele><time>2026-04-18T14:08:19.002Z</time></trkpt><trkpt lat="45.445649328716705" lon="8.926604219598072"><ele>130.0</ele><time>2026-04-18T14:08:20.002Z</time></trkpt><trkpt lat="45.44573056969307" lon="8.926595874043448"><ele>130.0</ele><time>2026-04-18T14:08:21.002Z</time></trkpt><trkpt lat="45.44580830867766" lon="8.926578271466067"><ele>130.0</ele><time>2026-04-18T14:08:22.002Z</time></trkpt><trkpt lat="45.44587719384695" lon="8.926561053920324"><ele>130.0</ele><time>2026-04-18T14:08:23.002Z</time></trkpt><trkpt lat="45.44597861225319" lon="8.926501298739815"><ele>130.0</ele><time>2026-04-18T14:08:25.002Z</time></trkpt><trkpt lat="45.44605156636535" lon="8.92647502152243"><ele>130.00000000000003</ele><time>2026-04-18T14:08:26.002Z</time></trkpt><trkpt lat="45.44612058659188" lon="8.926456298498621"><ele>130.0</ele><time>2026-04-18T14:08:27.002Z</time></trkpt><trkpt lat="45.446187598654504" lon="8.92642834554988"><ele>130.0</ele><time>2026-04-18T14:08:28.002Z</time></trkpt><trkpt lat="45.44624515231326" lon="8.926378485653153"><ele>130.0</ele><time>2026-04-18T14:08:29.002Z</time></trkpt><trkpt lat="45.446309301667846" lon="8.926336863028453"><ele>130.0</ele><time>2026-04-18T14:08:30.002Z</time></trkpt><trkpt lat="45.44637359043109" lon="8.92627618357408"><ele>130.00000000000003</ele><time>2026-04-18T14:08:31.002Z</time></trkpt><trkpt lat="45.44643042382857" lon="8.926201174999575"><ele>130.0</ele><time>2026-04-18T14:08:32.003Z</time></trkpt><trkpt lat="45.446471454119546" lon="8.926097823429979"><ele>130.0</ele><time>2026-04-18T14:08:33.003Z</time></trkpt><trkpt lat="45.44650641875265" lon="8.925990258367792"><ele>130.0</ele><time>2026-04-18T14:08:34.003Z</time></trkpt><trkpt lat="45.44653205886043" lon="8.925891324575135"><ele>130.0</ele><time>2026-04-18T14:08:35.003Z</time></trkpt><trkpt lat="45.44654696360237" lon="8.925800105062033"><ele>130.0</ele><time>2026-04-18T14:08:36.003Z</time></trkpt><trkpt lat="45.44657222464713" lon="8.9256588448914"><ele>130.0</ele><time>2026-04-18T14:08:38.003Z</time></trkpt><trkpt lat="45.44661295078153" lon="8.925565295842937"><ele>130.0</ele><time>2026-04-18T14:08:40.003Z</time></trkpt><trkpt lat="45.44671388512687" lon="8.925534935379341"><ele>130.0</ele><time>2026-04-18T14:08:42.003Z</time></trkpt><trkpt lat="45.44679877817249" lon="8.925513026518209"><ele>130.0</ele><time>2026-04-18T14:08:43.003Z</time></trkpt><trkpt lat="45.44690094198718" lon="8.925490228917655"><ele>130.0</ele><time>2026-04-18T14:08:44.003Z</time></trkpt><trkpt lat="45.4470057093509" lon="8.925459593614534"><ele>130.0</ele><time>2026-04-18T14:08:45.003Z</time></trkpt><trkpt lat="45.44712003858638" lon="8.925432134253533"><ele>130.0</ele><time>2026-04-18T14:08:46.003Z</time></trkpt><trkpt lat="45.44724154191732" lon="8.925400921119005"><ele>130.0</ele><time>2026-04-18T14:08:47.003Z</time></trkpt><trkpt lat="45.44736513889895" lon="8.925363109754532"><ele>130.0</ele><time>2026-04-18T14:08:48.003Z</time></trkpt><trkpt lat="45.4474942682898" lon="8.925326011455168"><ele>130.0</ele><time>2026-04-18T14:08:49.003Z</time></trkpt><trkpt lat="45.44762593967634" lon="8.925287887116621"><ele>130.0</ele><time>2026-04-18T14:08:50.003Z</time></trkpt><trkpt lat="45.447756924329234" lon="8.925248954590423"><ele>130.0</ele><time>2026-04-18T14:08:51.003Z</time></trkpt><trkpt lat="45.4479024732797" lon="8.925208661565524"><ele>130.0</ele><time>2026-04-18T14:08:52.003Z</time></trkpt><trkpt lat="45.44803687526354" lon="8.9251660404604"><ele>130.0</ele><time>2026-04-18T14:08:53.003Z</time></trkpt><trkpt lat="45.44818435841848" lon="8.925130484206512"><ele>130.0</ele><time>2026-04-18T14:08:54.003Z</time></trkpt><trkpt lat="45.44832802803727" lon="8.925093323283436"><ele>129.66666666666669</ele><time>2026-04-18T14:08:55.003Z</time></trkpt><trkpt lat="45.44848462676716" lon="8.925064072133726"><ele>129.33333333333334</ele><time>2026-04-18T14:08:55.997Z</time></trkpt><trkpt lat="45.44863016136533" lon="8.925030766873514"><ele>129.0</ele><time>2026-04-18T14:08:56.997Z</time></trkpt><trkpt lat="45.44877222598691" lon="8.924992408756527"><ele>129.25</ele><time>2026-04-18T14:08:57.997Z</time></trkpt><trkpt lat="45.44891460928744" lon="8.924960016558805"><ele>129.5</ele><time>2026-04-18T14:08:58.997Z</time></trkpt><trkpt lat="45.44905272573561" lon="8.924922365930184"><ele>129.75</ele><time>2026-04-18T14:08:59.997Z</time></trkpt><trkpt lat="45.44919728576709" lon="8.924879695576909"><ele>130.0</ele><time>2026-04-18T14:09:00.998Z</time></trkpt><trkpt lat="45.449339654062285" lon="8.924838967661561"><ele>130.0</ele><time>2026-04-18T14:09:01.998Z</time></trkpt><trkpt lat="45.449482517849255" lon="8.924796404205868"><ele>130.0</ele><time>2026-04-18T14:09:02.998Z</time></trkpt><trkpt lat="45.4496237001166" lon="8.924757780568727"><ele>130.0</ele><time>2026-04-18T14:09:03.998Z</time></trkpt><trkpt lat="45.44976629524039" lon="8.924720386015421"><ele>130.0</ele><time>2026-04-18T14:09:04.998Z</time></trkpt><trkpt lat="45.44991202318088" lon="8.92469255923559"><ele>130.75</ele><time>2026-04-18T14:09:05.998Z</time></trkpt><trkpt lat="45.45005524279369" lon="8.924660623999745"><ele>131.5</ele><time>2026-04-18T14:09:06.998Z</time></trkpt><trkpt lat="45.45019673993095" lon="8.924622829132865"><ele>132.25</ele><time>2026-04-18T14:09:07.998Z</time></trkpt><trkpt lat="45.450340276450724" lon="8.924585420741453"><ele>133.0</ele><time>2026-04-18T14:09:08.998Z</time></trkpt><trkpt lat="45.45048291778282" lon="8.924552231235442"><ele>133.25</ele><time>2026-04-18T14:09:09.998Z</time></trkpt><trkpt lat="45.45062454886327" lon="8.924519472786608"><ele>133.5</ele><time>2026-04-18T14:09:10.999Z</time></trkpt><trkpt lat="45.45076407477549" lon="8.924481492897131"><ele>133.75</ele><time>2026-04-18T14:09:11.999Z</time></trkpt><trkpt lat="45.45090698435552" lon="8.924446106500486"><ele>134.0</ele><time>2026-04-18T14:09:12.999Z</time></trkpt><trkpt lat="45.45104575808895" lon="8.924408305906834"><ele>134.0</ele><time>2026-04-18T14:09:13.999Z</time></trkpt><trkpt lat="45.451184745513636" lon="8.924360782202841"><ele>134.0</ele><time>2026-04-18T14:09:14.999Z</time></trkpt><trkpt lat="45.45132247188841" lon="8.924322098582783"><ele>134.0</ele><time>2026-04-18T14:09:15.999Z</time></trkpt><trkpt lat="45.45146263752596" lon="8.924289190900334"><ele>134.0</ele><time>2026-04-18T14:09:16.999Z</time></trkpt><trkpt lat="45.45160314570528" lon="8.924255818319061"><ele>133.25</ele><time>2026-04-18T14:09:17.999Z</time></trkpt><trkpt lat="45.451740915650596" lon="8.924213988980815"><ele>132.5</ele><time>2026-04-18T14:09:18.999Z</time></trkpt><trkpt lat="45.45188071190365" lon="8.924178639428487"><ele>131.75</ele><time>2026-04-18T14:09:19.999Z</time></trkpt><trkpt lat="45.45202598335748" lon="8.92414137546151"><ele>131.0</ele><time>2026-04-18T14:09:21Z</time></trkpt><trkpt lat="45.4521729663557" lon="8.92411369804459"><ele>130.5</ele><time>2026-04-18T14:09:22Z</time></trkpt><trkpt lat="45.452314737080016" lon="8.924078997310733"><ele>130.0</ele><time>2026-04-18T14:09:23Z</time></trkpt><trkpt lat="45.4524612797835" lon="8.92404676189501"><ele>129.5</ele><time>2026-04-18T14:09:24Z</time></trkpt><trkpt lat="45.45260952953131" lon="8.924014587667727"><ele>129.0</ele><time>2026-04-18T14:09:25Z</time></trkpt><trkpt lat="45.45275753259192" lon="8.923971175783036"><ele>129.0</ele><time>2026-04-18T14:09:26Z</time></trkpt><trkpt lat="45.45290295223696" lon="8.923919096812948"><ele>129.0</ele><time>2026-04-18T14:09:27Z</time></trkpt><trkpt lat="45.453046800559115" lon="8.923848703886062"><ele>129.0</ele><time>2026-04-18T14:09:28Z</time></trkpt><trkpt lat="45.45318502240773" lon="8.923760406910157"><ele>129.33333333333334</ele><time>2026-04-18T14:09:29Z</time></trkpt><trkpt lat="45.4533184106451" lon="8.923659774750737"><ele>129.66666666666669</ele><time>2026-04-18T14:09:30Z</time></trkpt><trkpt lat="45.453452390242944" lon="8.923552046958566"><ele>130.0</ele><time>2026-04-18T14:09:31Z</time></trkpt><trkpt lat="45.453588255642146" lon="8.923448608638429"><ele>130.66666666666669</ele><time>2026-04-18T14:09:32Z</time></trkpt><trkpt lat="45.453726542799686" lon="8.923347764235945"><ele>131.33333333333334</ele><time>2026-04-18T14:09:33Z</time></trkpt><trkpt lat="45.453868324410465" lon="8.92324714911524"><ele>132.0</ele><time>2026-04-18T14:09:34Z</time></trkpt><trkpt lat="45.45400797087024" lon="8.92314535324365"><ele>132.33333333333334</ele><time>2026-04-18T14:09:35Z</time></trkpt><trkpt lat="45.454147923599194" lon="8.923040349335315"><ele>132.66666666666669</ele><time>2026-04-18T14:09:36Z</time></trkpt><trkpt lat="45.45429124646132" lon="8.922937136224034"><ele>133.0</ele><time>2026-04-18T14:09:37.001Z</time></trkpt><trkpt lat="45.454429925461376" lon="8.922839571872606"><ele>133.0</ele><time>2026-04-18T14:09:38.001Z</time></trkpt><trkpt lat="45.45455100711867" lon="8.922745346769894"><ele>133.0</ele><time>2026-04-18T14:09:39.001Z</time></trkpt><trkpt lat="45.45466598590031" lon="8.922659570417858"><ele>133.0</ele><time>2026-04-18T14:09:40.001Z</time></trkpt><trkpt lat="45.454774580441004" lon="8.922578902276484"><ele>133.0</ele><time>2026-04-18T14:09:41.001Z</time></trkpt><trkpt lat="45.45487767145043" lon="8.922496402872838"><ele>132.75</ele><time>2026-04-18T14:09:42.001Z</time></trkpt><trkpt lat="45.45499086785144" lon="8.92240930677047"><ele>132.5</ele><time>2026-04-18T14:09:43.001Z</time></trkpt><trkpt lat="45.45510630792162" lon="8.922324662792613"><ele>132.25</ele><time>2026-04-18T14:09:44.001Z</time></trkpt><trkpt lat="45.45523873231218" lon="8.922265856490052"><ele>132.0</ele><time>2026-04-18T14:09:45.001Z</time></trkpt><trkpt lat="45.455379548053756" lon="8.922257718146735"><ele>132.25</ele><time>2026-04-18T14:09:46.001Z</time></trkpt><trkpt lat="45.45551687752049" lon="8.922213290490523"><ele>132.5</ele><time>2026-04-18T14:09:47.001Z</time></trkpt><trkpt lat="45.45566352125305" lon="8.922189215952814"><ele>132.75</ele><time>2026-04-18T14:09:48.001Z</time></trkpt><trkpt lat="45.455808412499316" lon="8.92216106328011"><ele>133.0</ele><time>2026-04-18T14:09:49.001Z</time></trkpt><trkpt lat="45.45595460100282" lon="8.922118908583526"><ele>133.0</ele><time>2026-04-18T14:09:50.001Z</time></trkpt><trkpt lat="45.4561015097449" lon="8.922053749328398"><ele>133.0</ele><time>2026-04-18T14:09:51.001Z</time></trkpt><trkpt lat="45.456246807964554" lon="8.921967801494734"><ele>133.0</ele><time>2026-04-18T14:09:52.001Z</time></trkpt><trkpt lat="45.45639099118927" lon="8.921868883352756"><ele>133.33333333333334</ele><time>2026-04-18T14:09:53.001Z</time></trkpt><trkpt lat="45.45652979480927" lon="8.921767621508023"><ele>133.66666666666666</ele><time>2026-04-18T14:09:54.001Z</time></trkpt><trkpt lat="45.45667239074154" lon="8.921659834471695"><ele>134.0</ele><time>2026-04-18T14:09:55.001Z</time></trkpt><trkpt lat="45.456819125358436" lon="8.921552533706706"><ele>134.0</ele><time>2026-04-18T14:09:56.001Z</time></trkpt><trkpt lat="45.4569748547894" lon="8.921458532354258"><ele>134.0</ele><time>2026-04-18T14:09:57.001Z</time></trkpt><trkpt lat="45.45713011468041" lon="8.921386938083273"><ele>134.0</ele><time>2026-04-18T14:09:58.001Z</time></trkpt><trkpt lat="45.45729319973666" lon="8.92132477176012"><ele>134.0</ele><time>2026-04-18T14:09:59.001Z</time></trkpt><trkpt lat="45.457458597023184" lon="8.921271535096851"><ele>134.0</ele><time>2026-04-18T14:10:00.001Z</time></trkpt><trkpt lat="45.45762198561075" lon="8.921223753926256"><ele>134.0</ele><time>2026-04-18T14:10:01.001Z</time></trkpt><trkpt lat="45.45778978767041" lon="8.92117404253982"><ele>133.66666666666666</ele><time>2026-04-18T14:10:02.001Z</time></trkpt><trkpt lat="45.457957505709075" lon="8.921132403878936"><ele>133.33333333333334</ele><time>2026-04-18T14:10:03.002Z</time></trkpt><trkpt lat="45.45812443037877" lon="8.921104170396923"><ele>133.0</ele><time>2026-04-18T14:10:04.002Z</time></trkpt><trkpt lat="45.45827156043007" lon="8.921086278618459"><ele>133.0</ele><time>2026-04-18T14:10:05.002Z</time></trkpt><trkpt lat="45.4584120093684" lon="8.921080145179692"><ele>133.0</ele><time>2026-04-18T14:10:06.002Z</time></trkpt><trkpt lat="45.45856055945585" lon="8.921083354044695"><ele>133.0</ele><time>2026-04-18T14:10:07.002Z</time></trkpt><trkpt lat="45.45871188529846" lon="8.92109999264271"><ele>133.0</ele><time>2026-04-18T14:10:08.002Z</time></trkpt><trkpt lat="45.458867137464146" lon="8.921121070607377"><ele>134.0</ele><time>2026-04-18T14:10:09.002Z</time></trkpt><trkpt lat="45.45902428094041" lon="8.921148152666033"><ele>135.0</ele><time>2026-04-18T14:10:10.002Z</time></trkpt><trkpt lat="45.45918476488027" lon="8.921174568974932"><ele>136.0</ele><time>2026-04-18T14:10:11.002Z</time></trkpt><trkpt lat="45.45935010589684" lon="8.921188870365869"><ele>136.0</ele><time>2026-04-18T14:10:12.002Z</time></trkpt><trkpt lat="45.45951174461765" lon="8.921202535842198"><ele>136.0</ele><time>2026-04-18T14:10:13.002Z</time></trkpt><trkpt lat="45.45967991333311" lon="8.921210177574046"><ele>136.0</ele><time>2026-04-18T14:10:14.002Z</time></trkpt><trkpt lat="45.45984362651133" lon="8.921209255480406"><ele>136.0</ele><time>2026-04-18T14:10:15.002Z</time></trkpt><trkpt lat="45.45999911076987" lon="8.921207169314911"><ele>136.0</ele><time>2026-04-18T14:10:16.002Z</time></trkpt><trkpt lat="45.46014511233828" lon="8.921204990418168"><ele>136.0</ele><time>2026-04-18T14:10:17.002Z</time></trkpt><trkpt lat="45.460281033739236" lon="8.921208163137232"><ele>136.0</ele><time>2026-04-18T14:10:18.002Z</time></trkpt><trkpt lat="45.460408468543505" lon="8.921214561159053"><ele>135.6</ele><time>2026-04-18T14:10:19.002Z</time></trkpt><trkpt lat="45.46052443347515" lon="8.92121532513674"><ele>135.2</ele><time>2026-04-18T14:10:20.002Z</time></trkpt><trkpt lat="45.460634848749905" lon="8.921212499627"><ele>134.8</ele><time>2026-04-18T14:10:21.002Z</time></trkpt><trkpt lat="45.46073196919648" lon="8.921205337359007"><ele>134.4</ele><time>2026-04-18T14:10:22.002Z</time></trkpt><trkpt lat="45.46080818780279" lon="8.921212056942823"><ele>134.0</ele><time>2026-04-18T14:10:23.002Z</time></trkpt><trkpt lat="45.46091307708437" lon="8.921217675634777"><ele>134.0</ele><time>2026-04-18T14:10:25.002Z</time></trkpt><trkpt lat="45.46097915700429" lon="8.921265859193102"><ele>134.0</ele><time>2026-04-18T14:10:27.002Z</time></trkpt><trkpt lat="45.4609986576135" lon="8.921457594744908"><ele>134.0</ele><time>2026-04-18T14:10:29.002Z</time></trkpt><trkpt lat="45.46100709464374" lon="8.921589682996462"><ele>134.0</ele><time>2026-04-18T14:10:30.002Z</time></trkpt><trkpt lat="45.461017434157725" lon="8.921739633683462"><ele>134.0</ele><time>2026-04-18T14:10:31.002Z</time></trkpt><trkpt lat="45.46103050055691" lon="8.921905134780477"><ele>134.0</ele><time>2026-04-18T14:10:32.002Z</time></trkpt><trkpt lat="45.46104499022469" lon="8.922080947479346"><ele>134.0</ele><time>2026-04-18T14:10:33.002Z</time></trkpt><trkpt lat="45.461059075477614" lon="8.922270291862178"><ele>134.0</ele><time>2026-04-18T14:10:34.002Z</time></trkpt><trkpt lat="45.46107437934437" lon="8.922480396797324"><ele>134.0</ele><time>2026-04-18T14:10:35.003Z</time></trkpt><trkpt lat="45.461088956398854" lon="8.922689853454633"><ele>134.0</ele><time>2026-04-18T14:10:36.003Z</time></trkpt><trkpt lat="45.46110044918144" lon="8.922882458741924"><ele>134.0</ele><time>2026-04-18T14:10:37.003Z</time></trkpt><trkpt lat="45.46111083632063" lon="8.92306114026338"><ele>134.0</ele><time>2026-04-18T14:10:38.003Z</time></trkpt><trkpt lat="45.46111803474333" lon="8.923230152743557"><ele>134.0</ele><time>2026-04-18T14:10:39.003Z</time></trkpt><trkpt lat="45.46112134780755" lon="8.923388574312158"><ele>134.2</ele><time>2026-04-18T14:10:40.003Z</time></trkpt><trkpt lat="45.46111807748196" lon="8.923538624315558"><ele>134.4</ele><time>2026-04-18T14:10:41.003Z</time></trkpt><trkpt lat="45.46110787293967" lon="8.923697061025477"><ele>134.6</ele><time>2026-04-18T14:10:42.003Z</time></trkpt><trkpt lat="45.461097170811726" lon="8.923838793219907"><ele>134.8</ele><time>2026-04-18T14:10:43.003Z</time></trkpt><trkpt lat="45.46109296700171" lon="8.923966473068056"><ele>135.0</ele><time>2026-04-18T14:10:44.003Z</time></trkpt><trkpt lat="45.46109404598485" lon="8.924078043341332"><ele>135.0</ele><time>2026-04-18T14:10:45.003Z</time></trkpt><trkpt lat="45.461110827796034" lon="8.924223094865262"><ele>135.0</ele><time>2026-04-18T14:10:47.003Z</time></trkpt><trkpt lat="45.4611334651062" lon="8.924340824073912"><ele>135.0</ele><time>2026-04-18T14:10:49.003Z</time></trkpt><trkpt lat="45.4611684272883" lon="8.92451231625602"><ele>135.0</ele><time>2026-04-18T14:10:51.003Z</time></trkpt><trkpt lat="45.4611873869248" lon="8.924610935832083"><ele>135.0</ele><time>2026-04-18T14:10:52.003Z</time></trkpt><trkpt lat="45.4612877096013" lon="8.92465346441517"><ele>134.8</ele><time>2026-04-18T14:10:53.003Z</time></trkpt><trkpt lat="45.46134804966259" lon="8.924740304973836"><ele>134.6</ele><time>2026-04-18T14:10:54.003Z</time></trkpt><trkpt lat="45.46138279844477" lon="8.92486578724693"><ele>134.4</ele><time>2026-04-18T14:10:55.003Z</time></trkpt><trkpt lat="45.46139594223053" lon="8.925018484416244"><ele>134.2</ele><time>2026-04-18T14:10:56.003Z</time></trkpt><trkpt lat="45.46140359797233" lon="8.925180432558541"><ele>134.0</ele><time>2026-04-18T14:10:57.003Z</time></trkpt><trkpt lat="45.46140429779973" lon="8.92535842814598"><ele>134.0</ele><time>2026-04-18T14:10:58.003Z</time></trkpt><trkpt lat="45.46139814650681" lon="8.925525216804143"><ele>134.0</ele><time>2026-04-18T14:10:59.003Z</time></trkpt><trkpt lat="45.46139395166565" lon="8.925674448362615"><ele>134.0</ele><time>2026-04-18T14:11:00.003Z</time></trkpt><trkpt lat="45.4613937247015" lon="8.925808490185261"><ele>134.0</ele><time>2026-04-18T14:11:01.003Z</time></trkpt><trkpt lat="45.46139432421166" lon="8.925932321563334"><ele>134.0</ele><time>2026-04-18T14:11:01.997Z</time></trkpt><trkpt lat="45.4613989533559" lon="8.926042773322957"><ele>134.0</ele><time>2026-04-18T14:11:02.997Z</time></trkpt><trkpt lat="45.461415113211494" lon="8.926144998550175"><ele>134.0</ele><time>2026-04-18T14:11:03.997Z</time></trkpt><trkpt lat="45.46142752998072" lon="8.926236416953346"><ele>134.0</ele><time>2026-04-18T14:11:04.997Z</time></trkpt><trkpt lat="45.46149816238717" lon="8.926283953657117"><ele>134.0</ele><time>2026-04-18T14:11:05.998Z</time></trkpt><trkpt lat="45.46159163683279" lon="8.926265036806791"><ele>134.0</ele><time>2026-04-18T14:11:06.998Z</time></trkpt><trkpt lat="45.461680867985436" lon="8.926238585331781"><ele>134.0</ele><time>2026-04-18T14:11:07.998Z</time></trkpt><trkpt lat="45.461790755851375" lon="8.926224787947893"><ele>134.0</ele><time>2026-04-18T14:11:08.998Z</time></trkpt><trkpt lat="45.46190604393936" lon="8.926244699934553"><ele>134.0</ele><time>2026-04-18T14:11:09.998Z</time></trkpt><trkpt lat="45.46203289582622" lon="8.926235647754588"><ele>134.0</ele><time>2026-04-18T14:11:10.998Z</time></trkpt><trkpt lat="45.46216288335194" lon="8.926240385666361"><ele>134.0</ele><time>2026-04-18T14:11:11.998Z</time></trkpt><trkpt lat="45.462295503363016" lon="8.92624882698218"><ele>134.0</ele><time>2026-04-18T14:11:12.998Z</time></trkpt><trkpt lat="45.46243728940905" lon="8.926250577714901"><ele>134.0</ele><time>2026-04-18T14:11:13.998Z</time></trkpt><trkpt lat="45.462585242943085" lon="8.926250430225906"><ele>134.0</ele><time>2026-04-18T14:11:14.998Z</time></trkpt><trkpt lat="45.462740443535665" lon="8.92625145861657"><ele>134.0</ele><time>2026-04-18T14:11:15.999Z</time></trkpt><trkpt lat="45.46289877506138" lon="8.926253555359414"><ele>134.75</ele><time>2026-04-18T14:11:16.999Z</time></trkpt><trkpt lat="45.463053623634316" lon="8.926264713519544"><ele>135.5</ele><time>2026-04-18T14:11:17.999Z</time></trkpt><trkpt lat="45.46318988013321" lon="8.92626839743536"><ele>136.25</ele><time>2026-04-18T14:11:18.999Z</time></trkpt><trkpt lat="45.4633196519285" lon="8.926268097280692"><ele>137.0</ele><time>2026-04-18T14:11:19.999Z</time></trkpt><trkpt lat="45.46343645593767" lon="8.926269896357963"><ele>137.0</ele><time>2026-04-18T14:11:20.999Z</time></trkpt><trkpt lat="45.46354746980287" lon="8.926279624682248"><ele>137.0</ele><time>2026-04-18T14:11:21.999Z</time></trkpt><trkpt lat="45.463651394326774" lon="8.92628903021399"><ele>137.0</ele><time>2026-04-18T14:11:22.999Z</time></trkpt><trkpt lat="45.463749260922356" lon="8.926291782895472"><ele>137.0</ele><time>2026-04-18T14:11:23.999Z</time></trkpt><trkpt lat="45.46383497102619" lon="8.926289905729108"><ele>137.0</ele><time>2026-04-18T14:11:24.999Z</time></trkpt><trkpt lat="45.463921801635536" lon="8.926290018832589"><ele>136.66666666666666</ele><time>2026-04-18T14:11:25.999Z</time></trkpt><trkpt lat="45.46399919119813" lon="8.926291372739508"><ele>136.33333333333331</ele><time>2026-04-18T14:11:27Z</time></trkpt><trkpt lat="45.46407042393854" lon="8.92629429968665"><ele>136.0</ele><time>2026-04-18T14:11:28Z</time></trkpt><trkpt lat="45.46418386312699" lon="8.92630053360996"><ele>135.66666666666666</ele><time>2026-04-18T14:11:30Z</time></trkpt><trkpt lat="45.46428805231222" lon="8.926308536034638"><ele>135.33333333333334</ele><time>2026-04-18T14:11:32Z</time></trkpt><trkpt lat="45.4643517549177" lon="8.926311680115552"><ele>135.0</ele><time>2026-04-18T14:11:33Z</time></trkpt><trkpt lat="45.46449362068452" lon="8.926309122628282"><ele>135.0</ele><time>2026-04-18T14:11:35Z</time></trkpt><trkpt lat="45.46457996247307" lon="8.92630950253033"><ele>135.0</ele><time>2026-04-18T14:11:36Z</time></trkpt><trkpt lat="45.46464807876734" lon="8.926311147723757"><ele>135.0</ele><time>2026-04-18T14:11:37Z</time></trkpt><trkpt lat="45.46472561710425" lon="8.926313059385633"><ele>135.0</ele><time>2026-04-18T14:11:38Z</time></trkpt><trkpt lat="45.46480739693639" lon="8.92631150580827"><ele>135.0</ele><time>2026-04-18T14:11:39Z</time></trkpt><trkpt lat="45.46488884337561" lon="8.926307047540012"><ele>135.0</ele><time>2026-04-18T14:11:40Z</time></trkpt><trkpt lat="45.46497670543994" lon="8.926304573417646"><ele>135.0</ele><time>2026-04-18T14:11:41Z</time></trkpt><trkpt lat="45.46508731193124" lon="8.926305726033172"><ele>135.0</ele><time>2026-04-18T14:11:42Z</time></trkpt><trkpt lat="45.46521208196101" lon="8.926317717877138"><ele>135.0</ele><time>2026-04-18T14:11:43.001Z</time></trkpt><trkpt lat="45.4653474497765" lon="8.926320507391202"><ele>135.0</ele><time>2026-04-18T14:11:44.001Z</time></trkpt><trkpt lat="45.46548359991051" lon="8.926323316240573"><ele>135.66666666666666</ele><time>2026-04-18T14:11:45.001Z</time></trkpt><trkpt lat="45.46562551509538" lon="8.926319624774703"><ele>136.33333333333331</ele><time>2026-04-18T14:11:46.001Z</time></trkpt><trkpt lat="45.46577268381302" lon="8.926309686163908"><ele>137.0</ele><time>2026-04-18T14:11:47.001Z</time></trkpt><trkpt lat="45.465936480400025" lon="8.926333489453674"><ele>137.0</ele><time>2026-04-18T14:11:48.001Z</time></trkpt><trkpt lat="45.46609607848063" lon="8.926337150826935"><ele>137.0</ele><time>2026-04-18T14:11:49.001Z</time></trkpt><trkpt lat="45.46625836097263" lon="8.926340873781594"><ele>137.0</ele><time>2026-04-18T14:11:50.001Z</time></trkpt><trkpt lat="45.46640477205915" lon="8.926344232622675"><ele>137.0</ele><time>2026-04-18T14:11:51.001Z</time></trkpt><trkpt lat="45.46653680854925" lon="8.926347261695547"><ele>137.0</ele><time>2026-04-18T14:11:52.001Z</time></trkpt><trkpt lat="45.46666098968351" lon="8.926350110557335"><ele>137.0</ele><time>2026-04-18T14:11:53.001Z</time></trkpt><trkpt lat="45.46677646883408" lon="8.926335619483082"><ele>137.0</ele><time>2026-04-18T14:11:54.001Z</time></trkpt><trkpt lat="45.466884835198435" lon="8.926339484292102"><ele>137.0</ele><time>2026-04-18T14:11:55.001Z</time></trkpt><trkpt lat="45.46698638858754" lon="8.92633835242688"><ele>137.0</ele><time>2026-04-18T14:11:56.001Z</time></trkpt><trkpt lat="45.46708747397885" lon="8.926352367656145"><ele>137.0</ele><time>2026-04-18T14:11:57.001Z</time></trkpt><trkpt lat="45.467199088488876" lon="8.926354440569284"><ele>137.0</ele><time>2026-04-18T14:11:58.001Z</time></trkpt><trkpt lat="45.4673146312994" lon="8.926353149118047"><ele>137.0</ele><time>2026-04-18T14:11:59.001Z</time></trkpt><trkpt lat="45.46743383942924" lon="8.926355952695411"><ele>137.0</ele><time>2026-04-18T14:12:00.001Z</time></trkpt><trkpt lat="45.46755529505935" lon="8.926358249401671"><ele>137.0</ele><time>2026-04-18T14:12:01.001Z</time></trkpt><trkpt lat="45.46766221032778" lon="8.926360880959598"><ele>137.0</ele><time>2026-04-18T14:12:02.001Z</time></trkpt><trkpt lat="45.46776485771819" lon="8.926361167224963"><ele>137.0</ele><time>2026-04-18T14:12:03.001Z</time></trkpt><trkpt lat="45.46786855501367" lon="8.926361213104995"><ele>137.0</ele><time>2026-04-18T14:12:04.001Z</time></trkpt><trkpt lat="45.467972193497815" lon="8.926364391622288"><ele>137.25</ele><time>2026-04-18T14:12:05.001Z</time></trkpt><trkpt lat="45.46808057358001" lon="8.926368795796867"><ele>137.5</ele><time>2026-04-18T14:12:06.001Z</time></trkpt><trkpt lat="45.468192578574" lon="8.926372845140355"><ele>137.75</ele><time>2026-04-18T14:12:07.001Z</time></trkpt><trkpt lat="45.46831118067516" lon="8.926378243301624"><ele>138.0</ele><time>2026-04-18T14:12:08.001Z</time></trkpt><trkpt lat="45.46843089580722" lon="8.926380519104839"><ele>138.0</ele><time>2026-04-18T14:12:09.002Z</time></trkpt><trkpt lat="45.46856591373912" lon="8.926387477102363"><ele>138.0</ele><time>2026-04-18T14:12:10.002Z</time></trkpt><trkpt lat="45.46868066123458" lon="8.926389402397312"><ele>138.0</ele><time>2026-04-18T14:12:11.002Z</time></trkpt><trkpt lat="45.46878446654688" lon="8.926376904953544"><ele>138.0</ele><time>2026-04-18T14:12:12.002Z</time></trkpt><trkpt lat="45.468882799369716" lon="8.92638129923217"><ele>138.0</ele><time>2026-04-18T14:12:13.002Z</time></trkpt><trkpt lat="45.46897465298145" lon="8.926389706738785"><ele>138.0</ele><time>2026-04-18T14:12:14.002Z</time></trkpt><trkpt lat="45.46905841953879" lon="8.926394352339004"><ele>138.0</ele><time>2026-04-18T14:12:15.002Z</time></trkpt><trkpt lat="45.4691371282875" lon="8.926397928286942"><ele>138.0</ele><time>2026-04-18T14:12:16.002Z</time></trkpt><trkpt lat="45.46921315484094" lon="8.926399000256572"><ele>138.0</ele><time>2026-04-18T14:12:17.002Z</time></trkpt><trkpt lat="45.469280094246024" lon="8.92639662731414"><ele>138.0</ele><time>2026-04-18T14:12:18.002Z</time></trkpt><trkpt lat="45.46939720717751" lon="8.926400535517121"><ele>138.0</ele><time>2026-04-18T14:12:20.002Z</time></trkpt><trkpt lat="45.4694642383759" lon="8.926405296092115"><ele>138.0</ele><time>2026-04-18T14:12:21.002Z</time></trkpt><trkpt lat="45.46953838248201" lon="8.926411593227476"><ele>138.0</ele><time>2026-04-18T14:12:22.002Z</time></trkpt><trkpt lat="45.46969759972142" lon="8.926427706242663"><ele>138.0</ele><time>2026-04-18T14:12:24.002Z</time></trkpt><trkpt lat="45.469802168347975" lon="8.926440895839743"><ele>138.0</ele><time>2026-04-18T14:12:25.002Z</time></trkpt><trkpt lat="45.46990339906705" lon="8.926444770990253"><ele>138.20000000000002</ele><time>2026-04-18T14:12:26.002Z</time></trkpt><trkpt lat="45.47001042044787" lon="8.926449261215337"><ele>138.4</ele><time>2026-04-18T14:12:27.002Z</time></trkpt><trkpt lat="45.470113430283256" lon="8.926450325983643"><ele>138.60000000000002</ele><time>2026-04-18T14:12:28.002Z</time></trkpt><trkpt lat="45.47020516023331" lon="8.926454283070074"><ele>138.8</ele><time>2026-04-18T14:12:29.002Z</time></trkpt><trkpt lat="45.47028550413232" lon="8.926455491130389"><ele>139.0</ele><time>2026-04-18T14:12:30.002Z</time></trkpt><trkpt lat="45.47036864849068" lon="8.92645905890379"><ele>138.85714285714286</ele><time>2026-04-18T14:12:31.002Z</time></trkpt><trkpt lat="45.47044535113685" lon="8.926463227685604"><ele>138.71428571428572</ele><time>2026-04-18T14:12:32.002Z</time></trkpt><trkpt lat="45.470523152561434" lon="8.92646479352624"><ele>138.57142857142858</ele><time>2026-04-18T14:12:33.002Z</time></trkpt><trkpt lat="45.47059043792398" lon="8.926482524861466"><ele>138.42857142857144</ele><time>2026-04-18T14:12:34.002Z</time></trkpt><trkpt lat="45.47065368274074" lon="8.926501669181423"><ele>138.2857142857143</ele><time>2026-04-18T14:12:35.002Z</time></trkpt><trkpt lat="45.47071696930467" lon="8.926523145673439"><ele>138.14285714285714</ele><time>2026-04-18T14:12:36.002Z</time></trkpt><trkpt lat="45.47078544979871" lon="8.926539591105563"><ele>138.0</ele><time>2026-04-18T14:12:37.002Z</time></trkpt><trkpt lat="45.47086404808088" lon="8.92655399341009"><ele>138.0</ele><time>2026-04-18T14:12:38.002Z</time></trkpt><trkpt lat="45.47095131974847" lon="8.926492737671955"><ele>138.0</ele><time>2026-04-18T14:12:39.002Z</time></trkpt><trkpt lat="45.471053353339336" lon="8.926463506908801"><ele>138.0</ele><time>2026-04-18T14:12:40.002Z</time></trkpt><trkpt lat="45.47116315947324" lon="8.926445202005151"><ele>138.0</ele><time>2026-04-18T14:12:41.003Z</time></trkpt><trkpt lat="45.47128217153903" lon="8.926437354696148"><ele>138.0</ele><time>2026-04-18T14:12:42.003Z</time></trkpt><trkpt lat="45.4714093770949" lon="8.926442670559414"><ele>138.0</ele><time>2026-04-18T14:12:43.003Z</time></trkpt><trkpt lat="45.471541319699824" lon="8.926451896960131"><ele>138.0</ele><time>2026-04-18T14:12:44.003Z</time></trkpt><trkpt lat="45.47167854598633" lon="8.926457784205612"><ele>138.0</ele><time>2026-04-18T14:12:45.003Z</time></trkpt><trkpt lat="45.47182294360303" lon="8.92646393105379"><ele>138.0</ele><time>2026-04-18T14:12:46.003Z</time></trkpt><trkpt lat="45.471973140941785" lon="8.926468004514424"><ele>138.0</ele><time>2026-04-18T14:12:47.003Z</time></trkpt><trkpt lat="45.472130870639624" lon="8.926477474847184"><ele>138.0</ele><time>2026-04-18T14:12:48.003Z</time></trkpt><trkpt lat="45.4722964764049" lon="8.926482923005107"><ele>138.0</ele><time>2026-04-18T14:12:49.003Z</time></trkpt><trkpt lat="45.47246718785949" lon="8.926489309980003"><ele>138.0</ele><time>2026-04-18T14:12:50.003Z</time></trkpt><trkpt lat="45.47263926398196" lon="8.92649519664816"><ele>138.0</ele><time>2026-04-18T14:12:51.003Z</time></trkpt><trkpt lat="45.472816058656306" lon="8.926495612957378"><ele>138.0</ele><time>2026-04-18T14:12:52.003Z</time></trkpt><trkpt lat="45.472993751906834" lon="8.926498864035553"><ele>138.5</ele><time>2026-04-18T14:12:53.003Z</time></trkpt><trkpt lat="45.47315260257391" lon="8.926500163861686"><ele>139.0</ele><time>2026-04-18T14:12:54.003Z</time></trkpt><trkpt lat="45.47329837827655" lon="8.926504889653785"><ele>139.5</ele><time>2026-04-18T14:12:55.003Z</time></trkpt><trkpt lat="45.4734337244002" lon="8.926505724971436"><ele>140.0</ele><time>2026-04-18T14:12:56.003Z</time></trkpt><trkpt lat="45.47355825703241" lon="8.926508819382665"><ele>140.0</ele><time>2026-04-18T14:12:57.003Z</time></trkpt><trkpt lat="45.47367557984255" lon="8.926508138948238"><ele>140.0</ele><time>2026-04-18T14:12:58.003Z</time></trkpt><trkpt lat="45.47378535711779" lon="8.926508465534225"><ele>140.0</ele><time>2026-04-18T14:12:59.003Z</time></trkpt><trkpt lat="45.47388689944601" lon="8.9265054923032"><ele>140.0</ele><time>2026-04-18T14:13:00.003Z</time></trkpt><trkpt lat="45.47398572921445" lon="8.926483493055185"><ele>140.0</ele><time>2026-04-18T14:13:01.003Z</time></trkpt><trkpt lat="45.474095570068464" lon="8.926439250379895"><ele>140.0</ele><time>2026-04-18T14:13:02.003Z</time></trkpt><trkpt lat="45.47420998054833" lon="8.926378851421308"><ele>140.0</ele><time>2026-04-18T14:13:03.003Z</time></trkpt><trkpt lat="45.4743335701941" lon="8.926325827255898"><ele>140.0</ele><time>2026-04-18T14:13:04.003Z</time></trkpt><trkpt lat="45.47443767867129" lon="8.926260652276481"><ele>140.0</ele><time>2026-04-18T14:13:05.003Z</time></trkpt><trkpt lat="45.47453468711631" lon="8.926208685733034"><ele>140.4</ele><time>2026-04-18T14:13:06.003Z</time></trkpt><trkpt lat="45.4746241135539" lon="8.926159566584136"><ele>140.8</ele><time>2026-04-18T14:13:07.003Z</time></trkpt><trkpt lat="45.47471155599365" lon="8.92612104380259"><ele>141.2</ele><time>2026-04-18T14:13:07.997Z</time></trkpt><trkpt lat="45.47480610082863" lon="8.926104516643909"><ele>141.6</ele><time>2026-04-18T14:13:08.997Z</time></trkpt><trkpt lat="45.474912969571086" lon="8.926107378088458"><ele>142.0</ele><time>2026-04-18T14:13:09.997Z</time></trkpt><trkpt lat="45.475026199713334" lon="8.92613580904351"><ele>142.0</ele><time>2026-04-18T14:13:10.997Z</time></trkpt><trkpt lat="45.47513961206156" lon="8.926186607191333"><ele>142.0</ele><time>2026-04-18T14:13:11.998Z</time></trkpt><trkpt lat="45.47525761111771" lon="8.926263224049185"><ele>142.0</ele><time>2026-04-18T14:13:12.998Z</time></trkpt><trkpt lat="45.4753747549695" lon="8.926328682132949"><ele>142.0</ele><time>2026-04-18T14:13:13.998Z</time></trkpt><trkpt lat="45.47550938002551" lon="8.926392852345842"><ele>141.6</ele><time>2026-04-18T14:13:14.998Z</time></trkpt><trkpt lat="45.47562209076214" lon="8.926450337787466"><ele>141.2</ele><time>2026-04-18T14:13:15.998Z</time></trkpt><trkpt lat="45.475720296489726" lon="8.926505215391886"><ele>140.8</ele><time>2026-04-18T14:13:16.998Z</time></trkpt><trkpt lat="45.47581292525806" lon="8.926553385236456"><ele>140.4</ele><time>2026-04-18T14:13:17.998Z</time></trkpt><trkpt lat="45.47589707395757" lon="8.926591141327911"><ele>140.0</ele><time>2026-04-18T14:13:18.998Z</time></trkpt><trkpt lat="45.47598485949706" lon="8.926612511169424"><ele>140.0</ele><time>2026-04-18T14:13:19.998Z</time></trkpt><trkpt lat="45.47606148392598" lon="8.92661806869262"><ele>140.0</ele><time>2026-04-18T14:13:20.998Z</time></trkpt><trkpt lat="45.47613239423877" lon="8.926616853921956"><ele>140.0</ele><time>2026-04-18T14:13:21.998Z</time></trkpt><trkpt lat="45.47621132653831" lon="8.926603791476332"><ele>140.0</ele><time>2026-04-18T14:13:23.999Z</time></trkpt><trkpt lat="45.47630303930302" lon="8.926618781740057"><ele>140.0</ele><time>2026-04-18T14:13:25.999Z</time></trkpt><trkpt lat="45.4763769236592" lon="8.926636291515523"><ele>140.0</ele><time>2026-04-18T14:13:26.999Z</time></trkpt><trkpt lat="45.47645098719173" lon="8.926636767376356"><ele>139.66666666666666</ele><time>2026-04-18T14:13:27.999Z</time></trkpt><trkpt lat="45.47652368567842" lon="8.92659657098734"><ele>139.33333333333331</ele><time>2026-04-18T14:13:28.999Z</time></trkpt><trkpt lat="45.47659733448442" lon="8.926538202088103"><ele>139.0</ele><time>2026-04-18T14:13:29.999Z</time></trkpt><trkpt lat="45.47668026290274" lon="8.926503974015805"><ele>138.66666666666666</ele><time>2026-04-18T14:13:30.999Z</time></trkpt><trkpt lat="45.476767808625475" lon="8.926526194439232"><ele>138.33333333333334</ele><time>2026-04-18T14:13:31.999Z</time></trkpt><trkpt lat="45.47685767230907" lon="8.926549217910264"><ele>138.0</ele><time>2026-04-18T14:13:33Z</time></trkpt><trkpt lat="45.4769196015386" lon="8.926723432721532"><ele>138.20000000000002</ele><time>2026-04-18T14:13:34Z</time></trkpt><trkpt lat="45.47696665693634" lon="8.926847822618797"><ele>138.4</ele><time>2026-04-18T14:13:35Z</time></trkpt><trkpt lat="45.476987356676325" lon="8.92695945578064"><ele>138.60000000000002</ele><time>2026-04-18T14:13:36Z</time></trkpt><trkpt lat="45.47700289024157" lon="8.927071551627204"><ele>138.8</ele><time>2026-04-18T14:13:37Z</time></trkpt><trkpt lat="45.47703564957265" lon="8.927190004642814"><ele>139.0</ele><time>2026-04-18T14:13:38Z</time></trkpt><trkpt lat="45.47709523732235" lon="8.927306425075018"><ele>139.25</ele><time>2026-04-18T14:13:39Z</time></trkpt><trkpt lat="45.47717366897605" lon="8.927398465312104"><ele>139.5</ele><time>2026-04-18T14:13:40Z</time></trkpt><trkpt lat="45.47727074904748" lon="8.927481411685127"><ele>139.75</ele><time>2026-04-18T14:13:41Z</time></trkpt><trkpt lat="45.47737702699941" lon="8.927556908890717"><ele>140.0</ele><time>2026-04-18T14:13:42Z</time></trkpt><trkpt lat="45.477488295199294" lon="8.92761703835051"><ele>140.0</ele><time>2026-04-18T14:13:43Z</time></trkpt><trkpt lat="45.477609477868135" lon="8.927673449186758"><ele>140.0</ele><time>2026-04-18T14:13:44Z</time></trkpt><trkpt lat="45.47774324086766" lon="8.927724344654216"><ele>140.0</ele><time>2026-04-18T14:13:45Z</time></trkpt><trkpt lat="45.47788516987755" lon="8.927783878710695"><ele>140.0</ele><time>2026-04-18T14:13:46Z</time></trkpt><trkpt lat="45.47803008479391" lon="8.927848285198209"><ele>140.66666666666666</ele><time>2026-04-18T14:13:47Z</time></trkpt><trkpt lat="45.478181527397616" lon="8.927914913306129"><ele>141.33333333333334</ele><time>2026-04-18T14:13:48Z</time></trkpt><trkpt lat="45.47833331595807" lon="8.927983935314192"><ele>142.0</ele><time>2026-04-18T14:13:49Z</time></trkpt><trkpt lat="45.478493748606354" lon="8.9280540213204"><ele>142.0</ele><time>2026-04-18T14:13:50.001Z</time></trkpt><trkpt lat="45.478654356168896" lon="8.928128494274254"><ele>142.0</ele><time>2026-04-18T14:13:51.001Z</time></trkpt><trkpt lat="45.47881649515795" lon="8.92820490618054"><ele>142.0</ele><time>2026-04-18T14:13:52.001Z</time></trkpt><trkpt lat="45.47898362780185" lon="8.928280388069462"><ele>142.33333333333334</ele><time>2026-04-18T14:13:53.001Z</time></trkpt><trkpt lat="45.479153445213264" lon="8.928354485811386"><ele>142.66666666666666</ele><time>2026-04-18T14:13:54.001Z</time></trkpt><trkpt lat="45.47932425734456" lon="8.928423604862893"><ele>143.0</ele><time>2026-04-18T14:13:55.001Z</time></trkpt><trkpt lat="45.479491791405586" lon="8.928492621865454"><ele>143.33333333333331</ele><time>2026-04-18T14:13:56.001Z</time></trkpt><trkpt lat="45.47964396856715" lon="8.92856269845283"><ele>143.66666666666666</ele><time>2026-04-18T14:13:57.001Z</time></trkpt><trkpt lat="45.47979058510737" lon="8.92863904667167"><ele>144.0</ele><time>2026-04-18T14:13:58.001Z</time></trkpt><trkpt lat="45.47994134876558" lon="8.928725975265849"><ele>144.0</ele><time>2026-04-18T14:13:59.001Z</time></trkpt><trkpt lat="45.48009345981491" lon="8.928822659052747"><ele>144.0</ele><time>2026-04-18T14:14:00.001Z</time></trkpt><trkpt lat="45.48024833870434" lon="8.92892418642008"><ele>144.0</ele><time>2026-04-18T14:14:01.001Z</time></trkpt><trkpt lat="45.48040047551313" lon="8.92903248356473"><ele>143.33333333333334</ele><time>2026-04-18T14:14:02.001Z</time></trkpt><trkpt lat="45.48055571185095" lon="8.929148107910454"><ele>142.66666666666669</ele><time>2026-04-18T14:14:03.001Z</time></trkpt><trkpt lat="45.480714511462644" lon="8.929259331992435"><ele>142.0</ele><time>2026-04-18T14:14:04.001Z</time></trkpt><trkpt lat="45.48086909867462" lon="8.929363923605628"><ele>142.0</ele><time>2026-04-18T14:14:05.001Z</time></trkpt><trkpt lat="45.48100968954257" lon="8.929465305546396"><ele>142.0</ele><time>2026-04-18T14:14:06.001Z</time></trkpt><trkpt lat="45.48114052705172" lon="8.929562884640633"><ele>142.0</ele><time>2026-04-18T14:14:07.001Z</time></trkpt><trkpt lat="45.48126925246636" lon="8.929648846082793"><ele>142.0</ele><time>2026-04-18T14:14:08.001Z</time></trkpt><trkpt lat="45.48139664979933" lon="8.92973011112568"><ele>142.66666666666669</ele><time>2026-04-18T14:14:09.001Z</time></trkpt><trkpt lat="45.481531099406205" lon="8.92981174001563"><ele>143.33333333333334</ele><time>2026-04-18T14:14:10.001Z</time></trkpt><trkpt lat="45.4816754012281" lon="8.92989101656634"><ele>144.0</ele><time>2026-04-18T14:14:11.001Z</time></trkpt><trkpt lat="45.48182497112672" lon="8.929957627377137"><ele>144.0</ele><time>2026-04-18T14:14:12.001Z</time></trkpt><trkpt lat="45.481988110479854" lon="8.930010624928206"><ele>144.0</ele><time>2026-04-18T14:14:13.001Z</time></trkpt><trkpt lat="45.482157474681216" lon="8.930050374142999"><ele>144.0</ele><time>2026-04-18T14:14:14.001Z</time></trkpt><trkpt lat="45.48232656816601" lon="8.930079447468074"><ele>144.0</ele><time>2026-04-18T14:14:15.001Z</time></trkpt><trkpt lat="45.48249895078087" lon="8.930103540860701"><ele>144.0</ele><time>2026-04-18T14:14:16.001Z</time></trkpt><trkpt lat="45.48267706015833" lon="8.930127370887831"><ele>144.0</ele><time>2026-04-18T14:14:17.002Z</time></trkpt><trkpt lat="45.482855139652" lon="8.93014751011824"><ele>144.66666666666666</ele><time>2026-04-18T14:14:18.002Z</time></trkpt><trkpt lat="45.48303949059083" lon="8.930167593225693"><ele>145.33333333333331</ele><time>2026-04-18T14:14:19.002Z</time></trkpt><trkpt lat="45.48322452349739" lon="8.930193733422053"><ele>146.0</ele><time>2026-04-18T14:14:20.002Z</time></trkpt><trkpt lat="45.4834127800679" lon="8.93022167514756"><ele>146.0</ele><time>2026-04-18T14:14:21.002Z</time></trkpt><trkpt lat="45.483601833829304" lon="8.930249962418062"><ele>146.0</ele><time>2026-04-18T14:14:22.002Z</time></trkpt><trkpt lat="45.48380404978921" lon="8.930275528817557"><ele>146.0</ele><time>2026-04-18T14:14:23.002Z</time></trkpt><trkpt lat="45.4840300785356" lon="8.930302389161133"><ele>145.33333333333331</ele><time>2026-04-18T14:14:24.002Z</time></trkpt><trkpt lat="45.484261687962615" lon="8.930329894380652"><ele>144.66666666666666</ele><time>2026-04-18T14:14:25.002Z</time></trkpt><trkpt lat="45.484465210394575" lon="8.930352479355296"><ele>144.0</ele><time>2026-04-18T14:14:26.002Z</time></trkpt><trkpt lat="45.48464455314469" lon="8.930379513247013"><ele>144.0</ele><time>2026-04-18T14:14:27.002Z</time></trkpt><trkpt lat="45.484812206493416" lon="8.930408769880371"><ele>144.0</ele><time>2026-04-18T14:14:28.002Z</time></trkpt><trkpt lat="45.48496826742697" lon="8.93043861968199"><ele>144.0</ele><time>2026-04-18T14:14:29.002Z</time></trkpt><trkpt lat="45.48511649107076" lon="8.930470478739768"><ele>144.0</ele><time>2026-04-18T14:14:30.002Z</time></trkpt><trkpt lat="45.48526008348247" lon="8.93051073738023"><ele>144.0</ele><time>2026-04-18T14:14:31.002Z</time></trkpt><trkpt lat="45.485406575089975" lon="8.930566302635057"><ele>144.0</ele><time>2026-04-18T14:14:32.002Z</time></trkpt><trkpt lat="45.48555774954847" lon="8.930637868467"><ele>144.0</ele><time>2026-04-18T14:14:33.002Z</time></trkpt><trkpt lat="45.485711359577245" lon="8.930725935730004"><ele>144.0</ele><time>2026-04-18T14:14:34.002Z</time></trkpt><trkpt lat="45.48586039752823" lon="8.93082018634416"><ele>144.0</ele><time>2026-04-18T14:14:35.002Z</time></trkpt><trkpt lat="45.48600967962252" lon="8.930918120362383"><ele>144.0</ele><time>2026-04-18T14:14:36.002Z</time></trkpt><trkpt lat="45.48614740931477" lon="8.931006152244484"><ele>144.0</ele><time>2026-04-18T14:14:37.002Z</time></trkpt><trkpt lat="45.486293002106635" lon="8.931093944011865"><ele>144.0</ele><time>2026-04-18T14:14:38.002Z</time></trkpt><trkpt lat="45.48644388636391" lon="8.931188050443572"><ele>144.0</ele><time>2026-04-18T14:14:39.002Z</time></trkpt><trkpt lat="45.48659294926394" lon="8.931283456597177"><ele>144.0</ele><time>2026-04-18T14:14:40.002Z</time></trkpt><trkpt lat="45.48673377691453" lon="8.931369744015878"><ele>144.0</ele><time>2026-04-18T14:14:41.002Z</time></trkpt><trkpt lat="45.486868683685465" lon="8.93144802832188"><ele>144.0</ele><time>2026-04-18T14:14:42.002Z</time></trkpt><trkpt lat="45.486999201189796" lon="8.931523708740881"><ele>144.0</ele><time>2026-04-18T14:14:43.002Z</time></trkpt><trkpt lat="45.48712795973919" lon="8.93159523934323"><ele>144.0</ele><time>2026-04-18T14:14:44.002Z</time></trkpt><trkpt lat="45.48724205516974" lon="8.931656934735171"><ele>144.0</ele><time>2026-04-18T14:14:45.002Z</time></trkpt><trkpt lat="45.48736014606209" lon="8.931719138796938"><ele>143.4</ele><time>2026-04-18T14:14:46.002Z</time></trkpt><trkpt lat="45.48747299322832" lon="8.931775233509468"><ele>142.8</ele><time>2026-04-18T14:14:47.002Z</time></trkpt><trkpt lat="45.48757813015537" lon="8.931817997587906"><ele>142.2</ele><time>2026-04-18T14:14:48.002Z</time></trkpt><trkpt lat="45.487678260484934" lon="8.931854228965323"><ele>141.6</ele><time>2026-04-18T14:14:49.003Z</time></trkpt><trkpt lat="45.487769603059604" lon="8.93189083306654"><ele>141.0</ele><time>2026-04-18T14:14:50.003Z</time></trkpt><trkpt lat="45.487853001422664" lon="8.931944232871043"><ele>141.0</ele><time>2026-04-18T14:14:51.003Z</time></trkpt><trkpt lat="45.48791498360372" lon="8.932043966155568"><ele>141.0</ele><time>2026-04-18T14:14:52.003Z</time></trkpt><trkpt lat="45.487972550606045" lon="8.932161996826379"><ele>141.0</ele><time>2026-04-18T14:14:53.003Z</time></trkpt><trkpt lat="45.48804619458435" lon="8.932239889385004"><ele>141.0</ele><time>2026-04-18T14:14:54.003Z</time></trkpt><trkpt lat="45.48813572984057" lon="8.932247865065662"><ele>141.0</ele><time>2026-04-18T14:14:55.003Z</time></trkpt><trkpt lat="45.48823253124856" lon="8.932195605199704"><ele>141.25</ele><time>2026-04-18T14:14:56.003Z</time></trkpt><trkpt lat="45.48832159942131" lon="8.932075439534655"><ele>141.5</ele><time>2026-04-18T14:14:57.003Z</time></trkpt><trkpt lat="45.488471108321654" lon="8.932062788549356"><ele>141.75</ele><time>2026-04-18T14:14:58.003Z</time></trkpt><trkpt lat="45.488617127627265" lon="8.932074587932664"><ele>142.0</ele><time>2026-04-18T14:14:59.003Z</time></trkpt><trkpt lat="45.48877412037682" lon="8.932112332078837"><ele>142.66666666666669</ele><time>2026-04-18T14:15:00.003Z</time></trkpt><trkpt lat="45.488937235780014" lon="8.932151080614245"><ele>143.33333333333334</ele><time>2026-04-18T14:15:01.003Z</time></trkpt><trkpt lat="45.48910953202955" lon="8.93218226220569"><ele>144.0</ele><time>2026-04-18T14:15:02.003Z</time></trkpt><trkpt lat="45.489282478821785" lon="8.932211059682105"><ele>144.0</ele><time>2026-04-18T14:15:03.003Z</time></trkpt><trkpt lat="45.48946735241691" lon="8.932241058360706"><ele>144.0</ele><time>2026-04-18T14:15:04.003Z</time></trkpt><trkpt lat="45.48965877724022" lon="8.932272225835794"><ele>144.0</ele><time>2026-04-18T14:15:05.003Z</time></trkpt><trkpt lat="45.48984529322477" lon="8.93232293698036"><ele>144.0</ele><time>2026-04-18T14:15:06.003Z</time></trkpt><trkpt lat="45.4900314788707" lon="8.932398533732464"><ele>144.0</ele><time>2026-04-18T14:15:07.003Z</time></trkpt><trkpt lat="45.49021607166657" lon="8.932499566277963"><ele>144.0</ele><time>2026-04-18T14:15:08.003Z</time></trkpt><trkpt lat="45.49039677557981" lon="8.932605910603247"><ele>144.33333333333334</ele><time>2026-04-18T14:15:09.003Z</time></trkpt><trkpt lat="45.49056225551258" lon="8.932697989796466"><ele>144.66666666666669</ele><time>2026-04-18T14:15:10.003Z</time></trkpt><trkpt lat="45.49071981223853" lon="8.932776651176768"><ele>145.0</ele><time>2026-04-18T14:15:11.003Z</time></trkpt><trkpt lat="45.490867359165634" lon="8.932849285103494"><ele>145.0</ele><time>2026-04-18T14:15:12.003Z</time></trkpt><trkpt lat="45.491009051157896" lon="8.932913757947105"><ele>145.0</ele><time>2026-04-18T14:15:13.003Z</time></trkpt><trkpt lat="45.49114430257107" lon="8.932973733409474"><ele>145.0</ele><time>2026-04-18T14:15:13.997Z</time></trkpt><trkpt lat="45.49128181216603" lon="8.933031927531111"><ele>145.0</ele><time>2026-04-18T14:15:14.997Z</time></trkpt><trkpt lat="45.49142086824608" lon="8.933088635209014"><ele>145.5</ele><time>2026-04-18T14:15:15.997Z</time></trkpt><trkpt lat="45.49156198845642" lon="8.933146933594678"><ele>146.0</ele><time>2026-04-18T14:15:16.997Z</time></trkpt><trkpt lat="45.49170490132758" lon="8.933207054773138"><ele>146.5</ele><time>2026-04-18T14:15:17.997Z</time></trkpt><trkpt lat="45.49183790393825" lon="8.93327116920789"><ele>147.0</ele><time>2026-04-18T14:15:18.997Z</time></trkpt><trkpt lat="45.49199412298536" lon="8.933329658588395"><ele>147.0</ele><time>2026-04-18T14:15:19.998Z</time></trkpt><trkpt lat="45.492141183273056" lon="8.933389017612567"><ele>147.0</ele><time>2026-04-18T14:15:20.998Z</time></trkpt><trkpt lat="45.49229246285844" lon="8.93345013811493"><ele>147.0</ele><time>2026-04-18T14:15:21.998Z</time></trkpt><trkpt lat="45.492447863851034" lon="8.933513762077931"><ele>147.0</ele><time>2026-04-18T14:15:22.998Z</time></trkpt><trkpt lat="45.49260693885884" lon="8.933576721430358"><ele>147.0</ele><time>2026-04-18T14:15:23.998Z</time></trkpt><trkpt lat="45.492733104934956" lon="8.933628867795752"><ele>147.0</ele><time>2026-04-18T14:15:24.998Z</time></trkpt><trkpt lat="45.49285856367731" lon="8.933679974475098"><ele>147.0</ele><time>2026-04-18T14:15:25.998Z</time></trkpt><trkpt lat="45.49296529893197" lon="8.933723361150713"><ele>146.79999999999998</ele><time>2026-04-18T14:15:26.998Z</time></trkpt><trkpt lat="45.49308554465264" lon="8.93376722230508"><ele>146.6</ele><time>2026-04-18T14:15:27.998Z</time></trkpt><trkpt lat="45.493184292134046" lon="8.933806772266449"><ele>146.39999999999998</ele><time>2026-04-18T14:15:28.998Z</time></trkpt><trkpt lat="45.49327186492106" lon="8.933845773947713"><ele>146.2</ele><time>2026-04-18T14:15:29.999Z</time></trkpt><trkpt lat="45.493352064631885" lon="8.933886999273001"><ele>146.0</ele><time>2026-04-18T14:15:30.999Z</time></trkpt><trkpt lat="45.49341626000684" lon="8.933932310943089"><ele>146.0</ele><time>2026-04-18T14:15:31.999Z</time></trkpt><trkpt lat="45.49346863714064" lon="8.934040438647441"><ele>146.0</ele><time>2026-04-18T14:15:33.999Z</time></trkpt><trkpt lat="45.49352037072245" lon="8.934143744291376"><ele>146.0</ele><time>2026-04-18T14:15:35.999Z</time></trkpt><trkpt lat="45.49352073193808" lon="8.934266699072923"><ele>146.0</ele><time>2026-04-18T14:15:36.999Z</time></trkpt><trkpt lat="45.49355717078331" lon="8.934430350934516"><ele>146.0</ele><time>2026-04-18T14:15:38.999Z</time></trkpt><trkpt lat="45.493590508517116" lon="8.934506629132374"><ele>145.66666666666666</ele><time>2026-04-18T14:15:40Z</time></trkpt><trkpt lat="45.49364824666735" lon="8.934571116766708"><ele>145.33333333333331</ele><time>2026-04-18T14:15:41Z</time></trkpt><trkpt lat="45.49371861720058" lon="8.934611511197106"><ele>145.0</ele><time>2026-04-18T14:15:42Z</time></trkpt><trkpt lat="45.493798973579025" lon="8.934618360753715"><ele>144.66666666666666</ele><time>2026-04-18T14:15:43Z</time></trkpt><trkpt lat="45.49388262642904" lon="8.934594206706612"><ele>144.33333333333334</ele><time>2026-04-18T14:15:44Z</time></trkpt><trkpt lat="45.493965028290425" lon="8.934556818702832"><ele>144.0</ele><time>2026-04-18T14:15:45Z</time></trkpt><trkpt lat="45.494044904740804" lon="8.93452953794053"><ele>144.83333333333334</ele><time>2026-04-18T14:15:46Z</time></trkpt><trkpt lat="45.494120501907766" lon="8.934503700027436"><ele>145.66666666666666</ele><time>2026-04-18T14:15:47Z</time></trkpt><trkpt lat="45.494188275861745" lon="8.934481737084043"><ele>146.5</ele><time>2026-04-18T14:15:48Z</time></trkpt><trkpt lat="45.49426095989528" lon="8.934466838372108"><ele>147.33333333333331</ele><time>2026-04-18T14:15:49Z</time></trkpt><trkpt lat="45.494346233941535" lon="8.934459542329341"><ele>148.16666666666666</ele><time>2026-04-18T14:15:50Z</time></trkpt><trkpt lat="45.494433723602846" lon="8.934467744820514"><ele>149.0</ele><time>2026-04-18T14:15:51Z</time></trkpt><trkpt lat="45.494527529700754" lon="8.93448796357062"><ele>148.8</ele><time>2026-04-18T14:15:52Z</time></trkpt><trkpt lat="45.49462183176742" lon="8.934510642810222"><ele>148.60000000000002</ele><time>2026-04-18T14:15:53Z</time></trkpt><trkpt lat="45.494717325582066" lon="8.93453696207487"><ele>148.4</ele><time>2026-04-18T14:15:54Z</time></trkpt><trkpt lat="45.49482045999439" lon="8.934573103760336"><ele>148.20000000000002</ele><time>2026-04-18T14:15:55Z</time></trkpt><trkpt lat="45.49492896332314" lon="8.934623668629019"><ele>148.0</ele><time>2026-04-18T14:15:56Z</time></trkpt><trkpt lat="45.49504000335109" lon="8.934678261195007"><ele>148.0</ele><time>2026-04-18T14:15:57.001Z</time></trkpt><trkpt lat="45.49515751697737" lon="8.934731203768537"><ele>148.0</ele><time>2026-04-18T14:15:58.001Z</time></trkpt><trkpt lat="45.49528431848383" lon="8.934788176810882"><ele>148.0</ele><time>2026-04-18T14:15:59.001Z</time></trkpt><trkpt lat="45.49541834313012" lon="8.934849343686613"><ele>148.0</ele><time>2026-04-18T14:16:00.001Z</time></trkpt><trkpt lat="45.49555396108707" lon="8.934913399346367"><ele>147.75</ele><time>2026-04-18T14:16:01.001Z</time></trkpt><trkpt lat="45.49569410350071" lon="8.934980783473748"><ele>147.5</ele><time>2026-04-18T14:16:02.001Z</time></trkpt><trkpt lat="45.49583569387417" lon="8.935052277985948"><ele>147.25</ele><time>2026-04-18T14:16:03.001Z</time></trkpt><trkpt lat="45.49596781105674" lon="8.935119732299942"><ele>147.0</ele><time>2026-04-18T14:16:04.001Z</time></trkpt><trkpt lat="45.49608876559882" lon="8.935180000026456"><ele>147.75</ele><time>2026-04-18T14:16:05.001Z</time></trkpt><trkpt lat="45.49620017372371" lon="8.93524184605362"><ele>148.5</ele><time>2026-04-18T14:16:06.001Z</time></trkpt><trkpt lat="45.49630158046599" lon="8.935296952479831"><ele>149.25</ele><time>2026-04-18T14:16:07.001Z</time></trkpt><trkpt lat="45.49640284908537" lon="8.93535702527584"><ele>150.0</ele><time>2026-04-18T14:16:08.001Z</time></trkpt><trkpt lat="45.49651410508943" lon="8.935415962486255"><ele>150.5</ele><time>2026-04-18T14:16:09.001Z</time></trkpt><trkpt lat="45.496633844912715" lon="8.93547550616906"><ele>151.0</ele><time>2026-04-18T14:16:10.001Z</time></trkpt><trkpt lat="45.49675524312346" lon="8.935537434918489"><ele>151.5</ele><time>2026-04-18T14:16:11.001Z</time></trkpt><trkpt lat="45.496879603582606" lon="8.93559788961263"><ele>152.0</ele><time>2026-04-18T14:16:12.001Z</time></trkpt><trkpt lat="45.49701086944844" lon="8.935660336487745"><ele>152.0</ele><time>2026-04-18T14:16:13.001Z</time></trkpt><trkpt lat="45.497137825848036" lon="8.935720391184265"><ele>152.0</ele><time>2026-04-18T14:16:14.001Z</time></trkpt><trkpt lat="45.497255593889726" lon="8.935757985928547"><ele>152.0</ele><time>2026-04-18T14:16:15.001Z</time></trkpt><trkpt lat="45.49736252987864" lon="8.935795225235431"><ele>152.0</ele><time>2026-04-18T14:16:16.001Z</time></trkpt><trkpt lat="45.497467023948985" lon="8.935823954811061"><ele>152.0</ele><time>2026-04-18T14:16:17.001Z</time></trkpt><trkpt lat="45.497562921270934" lon="8.935844601072256"><ele>152.0</ele><time>2026-04-18T14:16:18.001Z</time></trkpt><trkpt lat="45.49765579838351" lon="8.935857594395726"><ele>152.0</ele><time>2026-04-18T14:16:19.001Z</time></trkpt><trkpt lat="45.49774043541653" lon="8.935850061946207"><ele>152.0</ele><time>2026-04-18T14:16:20.001Z</time></trkpt><trkpt lat="45.4978396304287" lon="8.93582769825263"><ele>152.0</ele><time>2026-04-18T14:16:21.001Z</time></trkpt><trkpt lat="45.49793820841627" lon="8.935791683955276"><ele>152.0</ele><time>2026-04-18T14:16:22.001Z</time></trkpt><trkpt lat="45.49802448618844" lon="8.93575485236712"><ele>152.0</ele><time>2026-04-18T14:16:23.001Z</time></trkpt><trkpt lat="45.49809903590626" lon="8.935723868875614"><ele>152.0</ele><time>2026-04-18T14:16:24.002Z</time></trkpt><trkpt lat="45.49817887418847" lon="8.935690766685918"><ele>152.0</ele><time>2026-04-18T14:16:26.002Z</time></trkpt><trkpt lat="45.49826617528955" lon="8.935674743488152"><ele>152.0</ele><time>2026-04-18T14:16:29.002Z</time></trkpt><trkpt lat="45.49836228925652" lon="8.93566720436053"><ele>152.0</ele><time>2026-04-18T14:16:31.002Z</time></trkpt><trkpt lat="45.498427044424425" lon="8.935711581415317"><ele>152.0</ele><time>2026-04-18T14:16:32.002Z</time></trkpt><trkpt lat="45.49848778102022" lon="8.935757810207747"><ele>152.0</ele><time>2026-04-18T14:16:33.002Z</time></trkpt><trkpt lat="45.49855371778985" lon="8.935984708527545"><ele>152.0</ele><time>2026-04-18T14:16:35.002Z</time></trkpt><trkpt lat="45.49851731798098" lon="8.936167406717944"><ele>152.0</ele><time>2026-04-18T14:16:36.002Z</time></trkpt><trkpt lat="45.49852063261356" lon="8.936337031062466"><ele>151.75</ele><time>2026-04-18T14:16:37.002Z</time></trkpt><trkpt lat="45.49849292317163" lon="8.936526666732238"><ele>151.5</ele><time>2026-04-18T14:16:38.002Z</time></trkpt><trkpt lat="45.49847767627109" lon="8.936716346212584"><ele>151.25</ele><time>2026-04-18T14:16:39.002Z</time></trkpt><trkpt lat="45.49846224680564" lon="8.936902412772255"><ele>151.0</ele><time>2026-04-18T14:16:40.002Z</time></trkpt><trkpt lat="45.4984593408673" lon="8.937090460654268"><ele>150.75</ele><time>2026-04-18T14:16:41.002Z</time></trkpt><trkpt lat="45.49844577535252" lon="8.937289062799406"><ele>150.5</ele><time>2026-04-18T14:16:42.002Z</time></trkpt><trkpt lat="45.49841596187636" lon="8.937489329996863"><ele>150.25</ele><time>2026-04-18T14:16:43.002Z</time></trkpt><trkpt lat="45.498415754688956" lon="8.937716505061104"><ele>150.0</ele><time>2026-04-18T14:16:44.002Z</time></trkpt><trkpt lat="45.498399054843404" lon="8.93792741805923"><ele>149.75</ele><time>2026-04-18T14:16:45.002Z</time></trkpt><trkpt lat="45.4983941422847" lon="8.938116211787602"><ele>149.5</ele><time>2026-04-18T14:16:46.002Z</time></trkpt><trkpt lat="45.49838743678922" lon="8.938293871443925"><ele>149.25</ele><time>2026-04-18T14:16:47.002Z</time></trkpt><trkpt lat="45.49836842544757" lon="8.938450379872954"><ele>149.0</ele><time>2026-04-18T14:16:48.002Z</time></trkpt><trkpt lat="45.49833918415828" lon="8.938583247881764"><ele>149.16666666666666</ele><time>2026-04-18T14:16:49.002Z</time></trkpt><trkpt lat="45.498308666061" lon="8.938702161225757"><ele>149.33333333333331</ele><time>2026-04-18T14:16:50.002Z</time></trkpt><trkpt lat="45.49828790938413" lon="8.938810499608447"><ele>149.5</ele><time>2026-04-18T14:16:51.002Z</time></trkpt><trkpt lat="45.498259619572366" lon="8.938901525624924"><ele>149.66666666666666</ele><time>2026-04-18T14:16:52.002Z</time></trkpt><trkpt lat="45.498222279875215" lon="8.939043201806381"><ele>149.83333333333334</ele><time>2026-04-18T14:16:54.002Z</time></trkpt><trkpt lat="45.498157992452185" lon="8.939089581352276"><ele>150.0</ele><time>2026-04-18T14:16:55.002Z</time></trkpt><trkpt lat="45.498107739360925" lon="8.93924068802293"><ele>150.0</ele><time>2026-04-18T14:16:57.003Z</time></trkpt><trkpt lat="45.49811753017579" lon="8.93933520218775"><ele>150.0</ele><time>2026-04-18T14:16:58.003Z</time></trkpt><trkpt lat="45.498151955969625" lon="8.939424951813098"><ele>150.0</ele><time>2026-04-18T14:16:59.003Z</time></trkpt><trkpt lat="45.498201692091804" lon="8.939499528522157"><ele>150.0</ele><time>2026-04-18T14:17:00.003Z</time></trkpt><trkpt lat="45.49825781613919" lon="8.939571853178334"><ele>150.0</ele><time>2026-04-18T14:17:01.003Z</time></trkpt><trkpt lat="45.49830764174873" lon="8.9396574917187"><ele>150.0</ele><time>2026-04-18T14:17:02.003Z</time></trkpt><trkpt lat="45.49835744917773" lon="8.939774694895977"><ele>150.0</ele><time>2026-04-18T14:17:03.003Z</time></trkpt><trkpt lat="45.49839544479504" lon="8.93992512461654"><ele>150.0</ele><time>2026-04-18T14:17:04.003Z</time></trkpt><trkpt lat="45.49842886155524" lon="8.940105090522735"><ele>150.0</ele><time>2026-04-18T14:17:05.003Z</time></trkpt><trkpt lat="45.498435392316296" lon="8.940304085585785"><ele>150.0</ele><time>2026-04-18T14:17:06.003Z</time></trkpt><trkpt lat="45.49847799230288" lon="8.940497840838566"><ele>150.0</ele><time>2026-04-18T14:17:07.003Z</time></trkpt><trkpt lat="45.49849868350945" lon="8.940683303171006"><ele>150.0</ele><time>2026-04-18T14:17:08.003Z</time></trkpt><trkpt lat="45.498515926503" lon="8.940844255852976"><ele>150.0</ele><time>2026-04-18T14:17:09.003Z</time></trkpt><trkpt lat="45.49854591795614" lon="8.940995764097302"><ele>150.0</ele><time>2026-04-18T14:17:10.003Z</time></trkpt><trkpt lat="45.49857218679813" lon="8.941141712418014"><ele>150.0</ele><time>2026-04-18T14:17:11.003Z</time></trkpt><trkpt lat="45.49859797843255" lon="8.941301387239076"><ele>150.0</ele><time>2026-04-18T14:17:12.003Z</time></trkpt><trkpt lat="45.498623725175136" lon="8.941470535008557"><ele>150.0</ele><time>2026-04-18T14:17:13.003Z</time></trkpt><trkpt lat="45.498647062630134" lon="8.941632761413462"><ele>150.0</ele><time>2026-04-18T14:17:14.003Z</time></trkpt><trkpt lat="45.49867237305052" lon="8.941806116376105"><ele>150.0</ele><time>2026-04-18T14:17:15.003Z</time></trkpt><trkpt lat="45.498697933425596" lon="8.94198325277059"><ele>150.0</ele><time>2026-04-18T14:17:16.003Z</time></trkpt><trkpt lat="45.49872028324142" lon="8.942166128120311"><ele>150.0</ele><time>2026-04-18T14:17:17.003Z</time></trkpt><trkpt lat="45.49873499602634" lon="8.942353954976047"><ele>150.0</ele><time>2026-04-18T14:17:18.003Z</time></trkpt><trkpt lat="45.498740227085214" lon="8.942542244016568"><ele>149.75</ele><time>2026-04-18T14:17:19.003Z</time></trkpt><trkpt lat="45.49873283188025" lon="8.94271277533042"><ele>149.5</ele><time>2026-04-18T14:17:19.997Z</time></trkpt><trkpt lat="45.49871740457079" lon="8.942886886976362"><ele>149.25</ele><time>2026-04-18T14:17:20.997Z</time></trkpt><trkpt lat="45.49869806049875" lon="8.943067539895448"><ele>149.0</ele><time>2026-04-18T14:17:21.997Z</time></trkpt><trkpt lat="45.49867297668786" lon="8.943241050244575"><ele>149.2</ele><time>2026-04-18T14:17:22.997Z</time></trkpt><trkpt lat="45.498646768749296" lon="8.943394041557454"><ele>149.4</ele><time>2026-04-18T14:17:23.997Z</time></trkpt><trkpt lat="45.498619979756555" lon="8.943541434317904"><ele>149.6</ele><time>2026-04-18T14:17:24.998Z</time></trkpt><trkpt lat="45.49859595751101" lon="8.943695844642289"><ele>149.8</ele><time>2026-04-18T14:17:25.998Z</time></trkpt><trkpt lat="45.49857536783366" lon="8.943860658508516"><ele>150.0</ele><time>2026-04-18T14:17:26.998Z</time></trkpt><trkpt lat="45.498557955213165" lon="8.944009428920888"><ele>150.0</ele><time>2026-04-18T14:17:27.998Z</time></trkpt><trkpt lat="45.498549652274825" lon="8.944144345246292"><ele>150.0</ele><time>2026-04-18T14:17:28.998Z</time></trkpt><trkpt lat="45.498549206251965" lon="8.944260075911018"><ele>150.0</ele><time>2026-04-18T14:17:29.998Z</time></trkpt><trkpt lat="45.49854910131085" lon="8.944370048954479"><ele>150.0</ele><time>2026-04-18T14:17:30.998Z</time></trkpt><trkpt lat="45.498548139977856" lon="8.944471603951099"><ele>150.0</ele><time>2026-04-18T14:17:31.998Z</time></trkpt><trkpt lat="45.498545774449894" lon="8.94456870909939"><ele>150.0</ele><time>2026-04-18T14:17:32.998Z</time></trkpt><trkpt lat="45.49854277048227" lon="8.944662194824772"><ele>150.2</ele><time>2026-04-18T14:17:33.998Z</time></trkpt><trkpt lat="45.498515101339436" lon="8.944811345214287"><ele>150.4</ele><time>2026-04-18T14:17:35.999Z</time></trkpt><trkpt lat="45.49842462698068" lon="8.944931499394803"><ele>150.6</ele><time>2026-04-18T14:17:37.999Z</time></trkpt><trkpt lat="45.49838763613679" lon="8.945020626979595"><ele>150.8</ele><time>2026-04-18T14:17:38.999Z</time></trkpt><trkpt lat="45.49838947728717" lon="8.94511378594337"><ele>151.0</ele><time>2026-04-18T14:17:39.999Z</time></trkpt><trkpt lat="45.498413619625374" lon="8.945234584711669"><ele>151.0</ele><time>2026-04-18T14:17:41.999Z</time></trkpt><trkpt lat="45.498448983092295" lon="8.945334250422494"><ele>151.0</ele><time>2026-04-18T14:17:45Z</time></trkpt><trkpt lat="45.49840582849792" lon="8.945420256530339"><ele>151.0</ele><time>2026-04-18T14:17:46Z</time></trkpt><trkpt lat="45.49840026725846" lon="8.945512585786288"><ele>151.0</ele><time>2026-04-18T14:17:47Z</time></trkpt><trkpt lat="45.498376977396" lon="8.945618963575587"><ele>151.0</ele><time>2026-04-18T14:17:48Z</time></trkpt><trkpt lat="45.49837874585122" lon="8.945757188744418"><ele>151.0</ele><time>2026-04-18T14:17:49Z</time></trkpt><trkpt lat="45.49831941387322" lon="8.945901711238871"><ele>150.75</ele><time>2026-04-18T14:17:50Z</time></trkpt><trkpt lat="45.49829760251217" lon="8.94607917910213"><ele>150.5</ele><time>2026-04-18T14:17:51Z</time></trkpt><trkpt lat="45.498278655306066" lon="8.946281093349516"><ele>150.25</ele><time>2026-04-18T14:17:52Z</time></trkpt><trkpt lat="45.498260157055924" lon="8.946491982460946"><ele>150.0</ele><time>2026-04-18T14:17:53Z</time></trkpt><trkpt lat="45.49824039878657" lon="8.94671277798239"><ele>150.66666666666666</ele><time>2026-04-18T14:17:54Z</time></trkpt><trkpt lat="45.4982182030066" lon="8.946953411276457"><ele>151.33333333333331</ele><time>2026-04-18T14:17:55Z</time></trkpt><trkpt lat="45.49819618753789" lon="8.947205316826182"><ele>152.0</ele><time>2026-04-18T14:17:56Z</time></trkpt><trkpt lat="45.498175869219864" lon="8.94743624820458"><ele>152.0</ele><time>2026-04-18T14:17:57Z</time></trkpt><trkpt lat="45.49815764587653" lon="8.94765896329842"><ele>152.0</ele><time>2026-04-18T14:17:58Z</time></trkpt><trkpt lat="45.49813985849414" lon="8.947875525842042"><ele>152.0</ele><time>2026-04-18T14:17:59Z</time></trkpt><trkpt lat="45.49812132412499" lon="8.94807418922409"><ele>152.0</ele><time>2026-04-18T14:18:00Z</time></trkpt><trkpt lat="45.49810387243811" lon="8.948257354720065"><ele>152.0</ele><time>2026-04-18T14:18:01Z</time></trkpt><trkpt lat="45.4980844081197" lon="8.94843507987896"><ele>152.0</ele><time>2026-04-18T14:18:02.001Z</time></trkpt><trkpt lat="45.49807351159217" lon="8.948578538854626"><ele>152.0</ele><time>2026-04-18T14:18:03.001Z</time></trkpt><trkpt lat="45.498091956600284" lon="8.948713846525541"><ele>151.75</ele><time>2026-04-18T14:18:04.001Z</time></trkpt><trkpt lat="45.4980513751845" lon="8.94888836297977"><ele>151.5</ele><time>2026-04-18T14:18:05.001Z</time></trkpt><trkpt lat="45.49803776189744" lon="8.949084473679026"><ele>151.25</ele><time>2026-04-18T14:18:06.001Z</time></trkpt><trkpt lat="45.49802400732023" lon="8.949297495849208"><ele>151.0</ele><time>2026-04-18T14:18:07.001Z</time></trkpt><trkpt lat="45.49800207541421" lon="8.949528274998155"><ele>151.0</ele><time>2026-04-18T14:18:08.001Z</time></trkpt><trkpt lat="45.497969644822206" lon="8.949778578048937"><ele>151.0</ele><time>2026-04-18T14:18:09.001Z</time></trkpt><trkpt lat="45.497934433224586" lon="8.950039172054616"><ele>151.0</ele><time>2026-04-18T14:18:10.001Z</time></trkpt><trkpt lat="45.49790502195185" lon="8.950315815499719"><ele>150.66666666666669</ele><time>2026-04-18T14:18:11.001Z</time></trkpt><trkpt lat="45.49788143311655" lon="8.950614731398243"><ele>150.33333333333334</ele><time>2026-04-18T14:18:12.001Z</time></trkpt><trkpt lat="45.49786300956521" lon="8.950918884752184"><ele>150.0</ele><time>2026-04-18T14:18:13.001Z</time></trkpt><trkpt lat="45.497844753699574" lon="8.95122025719934"><ele>149.33333333333334</ele><time>2026-04-18T14:18:14.001Z</time></trkpt><trkpt lat="45.497826119799946" lon="8.951494628415048"><ele>148.66666666666669</ele><time>2026-04-18T14:18:15.001Z</time></trkpt><trkpt lat="45.497807136975794" lon="8.951751991403766"><ele>148.0</ele><time>2026-04-18T14:18:16.001Z</time></trkpt><trkpt lat="45.49778276145061" lon="8.951995060773596"><ele>148.0</ele><time>2026-04-18T14:18:17.001Z</time></trkpt><trkpt lat="45.49775878175224" lon="8.95220933259536"><ele>148.0</ele><time>2026-04-18T14:18:18.001Z</time></trkpt><trkpt lat="45.49773772302012" lon="8.952403648238741"><ele>148.0</ele><time>2026-04-18T14:18:19.001Z</time></trkpt><trkpt lat="45.49771556360415" lon="8.952580122269527"><ele>148.0</ele><time>2026-04-18T14:18:20.001Z</time></trkpt><trkpt lat="45.497689241388734" lon="8.952746640619619"><ele>148.20000000000002</ele><time>2026-04-18T14:18:21.001Z</time></trkpt><trkpt lat="45.49764455675331" lon="8.952887831030926"><ele>148.4</ele><time>2026-04-18T14:18:22.001Z</time></trkpt><trkpt lat="45.49757804500009" lon="8.952973960946133"><ele>148.60000000000002</ele><time>2026-04-18T14:18:23.001Z</time></trkpt><trkpt lat="45.49748805457544" lon="8.953046191057163"><ele>148.8</ele><time>2026-04-18T14:18:24.001Z</time></trkpt><trkpt lat="45.49739555463092" lon="8.953114512835281"><ele>149.0</ele><time>2026-04-18T14:18:25.001Z</time></trkpt><trkpt lat="45.49732910452507" lon="8.95320114337845"><ele>149.0</ele><time>2026-04-18T14:18:26.001Z</time></trkpt><trkpt lat="45.497300497023566" lon="8.953320772150798"><ele>149.0</ele><time>2026-04-18T14:18:27.001Z</time></trkpt><trkpt lat="45.497306610053414" lon="8.95345152980116"><ele>149.0</ele><time>2026-04-18T14:18:28.001Z</time></trkpt><trkpt lat="45.49735102978681" lon="8.953586491708066"><ele>149.0</ele><time>2026-04-18T14:18:29.002Z</time></trkpt><trkpt lat="45.49744243038204" lon="8.95368221374887"><ele>149.0</ele><time>2026-04-18T14:18:30.002Z</time></trkpt><trkpt lat="45.49752323684151" lon="8.953822636765677"><ele>149.0</ele><time>2026-04-18T14:18:31.002Z</time></trkpt><trkpt lat="45.49759914716447" lon="8.95397958359049"><ele>149.0</ele><time>2026-04-18T14:18:32.002Z</time></trkpt><trkpt lat="45.49762616361791" lon="8.954177101241218"><ele>149.0</ele><time>2026-04-18T14:18:33.002Z</time></trkpt><trkpt lat="45.49762077233234" lon="8.954395343139494"><ele>149.0</ele><time>2026-04-18T14:18:34.002Z</time></trkpt><trkpt lat="45.49761340054786" lon="8.954621009350342"><ele>149.33333333333331</ele><time>2026-04-18T14:18:35.002Z</time></trkpt><trkpt lat="45.497618719270605" lon="8.954852716817758"><ele>149.66666666666666</ele><time>2026-04-18T14:18:36.002Z</time></trkpt><trkpt lat="45.497626078860385" lon="8.955088788088903"><ele>150.0</ele><time>2026-04-18T14:18:37.002Z</time></trkpt><trkpt lat="45.497622563243986" lon="8.955320240443662"><ele>150.0</ele><time>2026-04-18T14:18:38.002Z</time></trkpt><trkpt lat="45.497615146038655" lon="8.95555772531696"><ele>150.0</ele><time>2026-04-18T14:18:39.002Z</time></trkpt><trkpt lat="45.49760623014248" lon="8.955796871046509"><ele>150.0</ele><time>2026-04-18T14:18:40.002Z</time></trkpt><trkpt lat="45.497595164768725" lon="8.956044091771034"><ele>150.0</ele><time>2026-04-18T14:18:41.002Z</time></trkpt><trkpt lat="45.49758471060095" lon="8.956294397726484"><ele>150.0</ele><time>2026-04-18T14:18:42.002Z</time></trkpt><trkpt lat="45.49757229116079" lon="8.956547126962379"><ele>150.0</ele><time>2026-04-18T14:18:43.002Z</time></trkpt><trkpt lat="45.497565260496295" lon="8.956801762978628"><ele>150.0</ele><time>2026-04-18T14:18:44.002Z</time></trkpt><trkpt lat="45.49755847946953" lon="8.957057213283283"><ele>150.0</ele><time>2026-04-18T14:18:45.002Z</time></trkpt><trkpt lat="45.49755487706244" lon="8.957315619418027"><ele>150.0</ele><time>2026-04-18T14:18:46.002Z</time></trkpt><trkpt lat="45.49755608227312" lon="8.957581705586888"><ele>150.0</ele><time>2026-04-18T14:18:47.002Z</time></trkpt><trkpt lat="45.49756468597307" lon="8.957846051424985"><ele>150.0</ele><time>2026-04-18T14:18:48.002Z</time></trkpt><trkpt lat="45.49758483187497" lon="8.95811586705824"><ele>150.0</ele><time>2026-04-18T14:18:49.002Z</time></trkpt><trkpt lat="45.49761626987707" lon="8.958394302597744"><ele>150.0</ele><time>2026-04-18T14:18:50.002Z</time></trkpt><trkpt lat="45.49765077817424" lon="8.958667198814918"><ele>150.0</ele><time>2026-04-18T14:18:51.002Z</time></trkpt><trkpt lat="45.497699533003704" lon="8.958942693068243"><ele>150.0</ele><time>2026-04-18T14:18:52.002Z</time></trkpt><trkpt lat="45.49776719088238" lon="8.959219855521104"><ele>150.0</ele><time>2026-04-18T14:18:53.002Z</time></trkpt><trkpt lat="45.497846182380826" lon="8.959493548647515"><ele>150.0</ele><time>2026-04-18T14:18:54.002Z</time></trkpt><trkpt lat="45.49793194555134" lon="8.959744817326511"><ele>150.0</ele><time>2026-04-18T14:18:55.002Z</time></trkpt><trkpt lat="45.49801950722336" lon="8.959978333396117"><ele>149.33333333333334</ele><time>2026-04-18T14:18:56.002Z</time></trkpt><trkpt lat="45.498112630327185" lon="8.96020191903867"><ele>148.66666666666669</ele><time>2026-04-18T14:18:57.002Z</time></trkpt><trkpt lat="45.49820861054302" lon="8.960419171296042"><ele>148.0</ele><time>2026-04-18T14:18:58.002Z</time></trkpt><trkpt lat="45.4983033005089" lon="8.960627689992542"><ele>148.0</ele><time>2026-04-18T14:18:59.002Z</time></trkpt><trkpt lat="45.49838822111375" lon="8.9608222152495"><ele>148.0</ele><time>2026-04-18T14:19:00.002Z</time></trkpt><trkpt lat="45.498453756651934" lon="8.960988955213999"><ele>148.0</ele><time>2026-04-18T14:19:01.003Z</time></trkpt><trkpt lat="45.49851039282154" lon="8.961127823950997"><ele>148.0</ele><time>2026-04-18T14:19:02.003Z</time></trkpt><trkpt lat="45.49856038603306" lon="8.961239403504852"><ele>148.0</ele><time>2026-04-18T14:19:03.003Z</time></trkpt><trkpt lat="45.498599594181" lon="8.961316691609634"><ele>148.0</ele><time>2026-04-18T14:19:04.003Z</time></trkpt><trkpt lat="45.49863937882123" lon="8.961406753036954"><ele>148.0</ele><time>2026-04-18T14:19:06.003Z</time></trkpt><trkpt lat="45.49868691802657" lon="8.961512954253543"><ele>148.0</ele><time>2026-04-18T14:19:28.997Z</time></trkpt><trkpt lat="45.49874849229074" lon="8.961667349866088"><ele>148.0</ele><time>2026-04-18T14:19:30.998Z</time></trkpt><trkpt lat="45.49878879656115" lon="8.96176546488421"><ele>148.0</ele><time>2026-04-18T14:19:31.998Z</time></trkpt><trkpt lat="45.49883631027282" lon="8.96187411219099"><ele>148.25</ele><time>2026-04-18T14:19:32.998Z</time></trkpt><trkpt lat="45.4988963514299" lon="8.961996087052128"><ele>148.5</ele><time>2026-04-18T14:19:33.998Z</time></trkpt><trkpt lat="45.49896002114674" lon="8.962129935992413"><ele>148.75</ele><time>2026-04-18T14:19:34.998Z</time></trkpt><trkpt lat="45.49902502117713" lon="8.962270269347428"><ele>149.0</ele><time>2026-04-18T14:19:35.998Z</time></trkpt><trkpt lat="45.4990958047473" lon="8.962427574520703"><ele>149.0</ele><time>2026-04-18T14:19:36.998Z</time></trkpt><trkpt lat="45.499172820132884" lon="8.962600914358898"><ele>149.0</ele><time>2026-04-18T14:19:37.998Z</time></trkpt><trkpt lat="45.499248676452154" lon="8.96278269238163"><ele>149.0</ele><time>2026-04-18T14:19:38.998Z</time></trkpt><trkpt lat="45.49933117426271" lon="8.9629703055821"><ele>149.0</ele><time>2026-04-18T14:19:39.999Z</time></trkpt><trkpt lat="45.49941792405584" lon="8.963163319456557"><ele>149.0</ele><time>2026-04-18T14:19:40.999Z</time></trkpt><trkpt lat="45.49950642381523" lon="8.963363459287546"><ele>149.0</ele><time>2026-04-18T14:19:41.999Z</time></trkpt><trkpt lat="45.49959851883996" lon="8.96356975878819"><ele>149.0</ele><time>2026-04-18T14:19:42.999Z</time></trkpt><trkpt lat="45.4996916278201" lon="8.963782800656409"><ele>148.66666666666666</ele><time>2026-04-18T14:19:43.999Z</time></trkpt><trkpt lat="45.499784272108" lon="8.963993646125632"><ele>148.33333333333334</ele><time>2026-04-18T14:19:44.999Z</time></trkpt><trkpt lat="45.499881866740374" lon="8.964211201407686"><ele>148.0</ele><time>2026-04-18T14:19:45.999Z</time></trkpt><trkpt lat="45.499976313822714" lon="8.964428588820379"><ele>148.0</ele><time>2026-04-18T14:19:46.999Z</time></trkpt><trkpt lat="45.500062336009144" lon="8.964628802458133"><ele>148.0</ele><time>2026-04-18T14:19:47.999Z</time></trkpt><trkpt lat="45.500147002604045" lon="8.964824767449107"><ele>148.0</ele><time>2026-04-18T14:19:48.999Z</time></trkpt><trkpt lat="45.50023352411016" lon="8.965008681599677"><ele>148.25</ele><time>2026-04-18T14:19:50Z</time></trkpt><trkpt lat="45.500315046723564" lon="8.965179502963874"><ele>148.5</ele><time>2026-04-18T14:19:51Z</time></trkpt><trkpt lat="45.500389097835715" lon="8.965336382753726"><ele>148.75</ele><time>2026-04-18T14:19:52Z</time></trkpt><trkpt lat="45.500451690863166" lon="8.965486726265857"><ele>149.0</ele><time>2026-04-18T14:19:53Z</time></trkpt><trkpt lat="45.500491200164596" lon="8.96563939501703"><ele>148.8</ele><time>2026-04-18T14:19:54Z</time></trkpt><trkpt lat="45.500504035070755" lon="8.965799788585997"><ele>148.60000000000002</ele><time>2026-04-18T14:19:55Z</time></trkpt><trkpt lat="45.50051495319129" lon="8.965971814144483"><ele>148.4</ele><time>2026-04-18T14:19:56Z</time></trkpt><trkpt lat="45.50054019315325" lon="8.966122174571934"><ele>148.20000000000002</ele><time>2026-04-18T14:19:57Z</time></trkpt><trkpt lat="45.50060213868404" lon="8.966235888825599"><ele>148.0</ele><time>2026-04-18T14:19:58Z</time></trkpt><trkpt lat="45.500690169904686" lon="8.966302588291308"><ele>148.0</ele><time>2026-04-18T14:19:59Z</time></trkpt><trkpt lat="45.50078872490497" lon="8.966332811842122"><ele>148.0</ele><time>2026-04-18T14:20:00Z</time></trkpt><trkpt lat="45.50088722177153" lon="8.966293031280417"><ele>148.0</ele><time>2026-04-18T14:20:01Z</time></trkpt><trkpt lat="45.50097055832586" lon="8.966213373165486"><ele>148.0</ele><time>2026-04-18T14:20:02Z</time></trkpt><trkpt lat="45.50102429820294" lon="8.966086735436864"><ele>148.0</ele><time>2026-04-18T14:20:03Z</time></trkpt><trkpt lat="45.50105052175488" lon="8.96593246300032"><ele>148.75</ele><time>2026-04-18T14:20:04Z</time></trkpt><trkpt lat="45.501067179717374" lon="8.965774179013172"><ele>149.5</ele><time>2026-04-18T14:20:05Z</time></trkpt><trkpt lat="45.50109728210356" lon="8.965622528717208"><ele>150.25</ele><time>2026-04-18T14:20:06.001Z</time></trkpt><trkpt lat="45.50114490618441" lon="8.965471726497823"><ele>151.0</ele><time>2026-04-18T14:20:07.001Z</time></trkpt><trkpt lat="45.50120720720467" lon="8.965321431009194"><ele>151.0</ele><time>2026-04-18T14:20:08.001Z</time></trkpt><trkpt lat="45.501275290295524" lon="8.965167050383421"><ele>151.0</ele><time>2026-04-18T14:20:09.001Z</time></trkpt><trkpt lat="45.501329142058744" lon="8.964993658371093"><ele>151.0</ele><time>2026-04-18T14:20:10.001Z</time></trkpt><trkpt lat="45.50136023994377" lon="8.964802016661272"><ele>151.0</ele><time>2026-04-18T14:20:11.001Z</time></trkpt><trkpt lat="45.50138088570403" lon="8.964595657286017"><ele>151.0</ele><time>2026-04-18T14:20:12.001Z</time></trkpt><trkpt lat="45.501407912761245" lon="8.964385679754196"><ele>151.0</ele><time>2026-04-18T14:20:13.001Z</time></trkpt><trkpt lat="45.50144046996518" lon="8.964171527756395"><ele>151.0</ele><time>2026-04-18T14:20:14.001Z</time></trkpt><trkpt lat="45.501472490280726" lon="8.963976932249928"><ele>151.0</ele><time>2026-04-18T14:20:15.001Z</time></trkpt><trkpt lat="45.50150001708698" lon="8.96378017520675"><ele>150.75</ele><time>2026-04-18T14:20:16.001Z</time></trkpt><trkpt lat="45.50152550897951" lon="8.963579802018875"><ele>150.5</ele><time>2026-04-18T14:20:17.001Z</time></trkpt><trkpt lat="45.50154969369201" lon="8.963369673258422"><ele>150.25</ele><time>2026-04-18T14:20:18.001Z</time></trkpt><trkpt lat="45.50157838576677" lon="8.963157202231951"><ele>150.0</ele><time>2026-04-18T14:20:19.001Z</time></trkpt><trkpt lat="45.50160757880827" lon="8.962946292587358"><ele>149.75</ele><time>2026-04-18T14:20:20.001Z</time></trkpt><trkpt lat="45.50163542461905" lon="8.962747566509666"><ele>149.5</ele><time>2026-04-18T14:20:21.001Z</time></trkpt><trkpt lat="45.50167096372022" lon="8.96256715933388"><ele>149.25</ele><time>2026-04-18T14:20:22.001Z</time></trkpt><trkpt lat="45.5016979791522" lon="8.962379315499852"><ele>149.0</ele><time>2026-04-18T14:20:23.001Z</time></trkpt><trkpt lat="45.5017336857217" lon="8.962199680057946"><ele>149.0</ele><time>2026-04-18T14:20:24.001Z</time></trkpt><trkpt lat="45.50178441433405" lon="8.962028910321672"><ele>149.0</ele><time>2026-04-18T14:20:25.001Z</time></trkpt><trkpt lat="45.50185399693924" lon="8.961863680478237"><ele>149.0</ele><time>2026-04-18T14:20:26.001Z</time></trkpt><trkpt lat="45.5019496959969" lon="8.961710946942341"><ele>149.0</ele><time>2026-04-18T14:20:27.001Z</time></trkpt><trkpt lat="45.502057895046974" lon="8.961570580602656"><ele>149.0</ele><time>2026-04-18T14:20:28.001Z</time></trkpt><trkpt lat="45.50218273319696" lon="8.96146449101504"><ele>149.0</ele><time>2026-04-18T14:20:29.001Z</time></trkpt><trkpt lat="45.50231959059848" lon="8.961391147385832"><ele>149.0</ele><time>2026-04-18T14:20:30.001Z</time></trkpt><trkpt lat="45.502463100509104" lon="8.961349228701337"><ele>149.0</ele><time>2026-04-18T14:20:31.001Z</time></trkpt><trkpt lat="45.5026025555173" lon="8.961336667745309"><ele>149.0</ele><time>2026-04-18T14:20:32.002Z</time></trkpt><trkpt lat="45.5027391215659" lon="8.961329742164958"><ele>149.0</ele><time>2026-04-18T14:20:33.002Z</time></trkpt><trkpt lat="45.50287240065491" lon="8.961317379370037"><ele>149.0</ele><time>2026-04-18T14:20:34.002Z</time></trkpt><trkpt lat="45.50300891514672" lon="8.961301610703355"><ele>149.0</ele><time>2026-04-18T14:20:35.02Z</time></trkpt><trkpt lat="45.50314162737906" lon="8.961283729221003"><ele>149.5</ele><time>2026-04-18T14:20:36.014Z</time></trkpt><trkpt lat="45.50327258758276" lon="8.961261539624982"><ele>150.0</ele><time>2026-04-18T14:20:37.022Z</time></trkpt><trkpt lat="45.50338736099422" lon="8.96123252323577"><ele>150.5</ele><time>2026-04-18T14:20:38.002Z</time></trkpt><trkpt lat="45.50356415903928" lon="8.961350208851366"><ele>151.0</ele><time>2026-04-18T14:20:39.002Z</time></trkpt><trkpt lat="45.50368961977954" lon="8.96142336169599"><ele>151.25</ele><time>2026-04-18T14:20:40.002Z</time></trkpt><trkpt lat="45.50379472772893" lon="8.961522228659284"><ele>151.5</ele><time>2026-04-18T14:20:41.002Z</time></trkpt><trkpt lat="45.5038964134095" lon="8.961635360767527"><ele>151.75</ele><time>2026-04-18T14:20:42.002Z</time></trkpt><trkpt lat="45.50398508243392" lon="8.96176924981289"><ele>152.0</ele><time>2026-04-18T14:20:43.002Z</time></trkpt><trkpt lat="45.504070818371325" lon="8.961907467180872"><ele>152.0</ele><time>2026-04-18T14:20:44.002Z</time></trkpt><trkpt lat="45.50416394864085" lon="8.962046040171899"><ele>152.0</ele><time>2026-04-18T14:20:45.002Z</time></trkpt><trkpt lat="45.50425881338804" lon="8.962183256985732"><ele>152.0</ele><time>2026-04-18T14:20:46.002Z</time></trkpt><trkpt lat="45.50434617275408" lon="8.962322232462853"><ele>152.0</ele><time>2026-04-18T14:20:47.002Z</time></trkpt><trkpt lat="45.504425312323626" lon="8.962445943662502"><ele>152.0</ele><time>2026-04-18T14:20:48.002Z</time></trkpt><trkpt lat="45.504499936963796" lon="8.9625543602117"><ele>152.0</ele><time>2026-04-18T14:20:49.002Z</time></trkpt><trkpt lat="45.504572169698804" lon="8.962661323513913"><ele>152.0</ele><time>2026-04-18T14:20:50.002Z</time></trkpt><trkpt lat="45.50463715664385" lon="8.962749687897853"><ele>152.0</ele><time>2026-04-18T14:20:51.002Z</time></trkpt><trkpt lat="45.50468981278189" lon="8.962829580665922"><ele>152.0</ele><time>2026-04-18T14:20:52.002Z</time></trkpt><trkpt lat="45.50476039305591" lon="8.962955287185395"><ele>152.0</ele><time>2026-04-18T14:20:54.002Z</time></trkpt><trkpt lat="45.504722967520344" lon="8.963142629710767"><ele>152.0</ele><time>2026-04-18T14:20:56.002Z</time></trkpt><trkpt lat="45.50470147746971" lon="8.963275657016776"><ele>152.0</ele><time>2026-04-18T14:20:57.002Z</time></trkpt><trkpt lat="45.504692418185144" lon="8.96342424160423"><ele>152.0</ele><time>2026-04-18T14:20:58.002Z</time></trkpt><trkpt lat="45.50471173004082" lon="8.963573151977718"><ele>152.0</ele><time>2026-04-18T14:20:59.002Z</time></trkpt><trkpt lat="45.5047670705243" lon="8.963718241411268"><ele>152.25</ele><time>2026-04-18T14:21:00.002Z</time></trkpt><trkpt lat="45.50484010205727" lon="8.963838789153453"><ele>152.5</ele><time>2026-04-18T14:21:01.002Z</time></trkpt><trkpt lat="45.504936752051655" lon="8.963922524543221"><ele>152.75</ele><time>2026-04-18T14:21:02.002Z</time></trkpt><trkpt lat="45.505046261630866" lon="8.963974111400038"><ele>153.0</ele><time>2026-04-18T14:21:03.002Z</time></trkpt><trkpt lat="45.505161610449164" lon="8.963985990957822"><ele>153.0</ele><time>2026-04-18T14:21:04.003Z</time></trkpt><trkpt lat="45.50527247781293" lon="8.963945369525058"><ele>153.0</ele><time>2026-04-18T14:21:05.003Z</time></trkpt><trkpt lat="45.50537314974921" lon="8.963859689943654"><ele>153.0</ele><time>2026-04-18T14:21:06.003Z</time></trkpt><trkpt lat="45.50545382975322" lon="8.963745024052576"><ele>153.0</ele><time>2026-04-18T14:21:07.003Z</time></trkpt><trkpt lat="45.505556536836586" lon="8.963684656390361"><ele>153.5</ele><time>2026-04-18T14:21:08.003Z</time></trkpt><trkpt lat="45.50565048112951" lon="8.963624157881117"><ele>154.0</ele><time>2026-04-18T14:21:09.003Z</time></trkpt><trkpt lat="45.505743778165375" lon="8.96354360397005"><ele>154.5</ele><time>2026-04-18T14:21:10.003Z</time></trkpt><trkpt lat="45.505879989776155" lon="8.96358984401125"><ele>155.0</ele><time>2026-04-18T14:21:11.003Z</time></trkpt><trkpt lat="45.50600549087288" lon="8.963598767462996"><ele>155.0</ele><time>2026-04-18T14:21:12.003Z</time></trkpt><trkpt lat="45.50614038884009" lon="8.963604251964988"><ele>155.0</ele><time>2026-04-18T14:21:13.003Z</time></trkpt><trkpt lat="45.50627688406488" lon="8.96361125785322"><ele>155.0</ele><time>2026-04-18T14:21:14.003Z</time></trkpt><trkpt lat="45.50642028813327" lon="8.963616929800972"><ele>155.0</ele><time>2026-04-18T14:21:15.003Z</time></trkpt><trkpt lat="45.50656784276273" lon="8.963621870151941"><ele>154.66666666666666</ele><time>2026-04-18T14:21:16.003Z</time></trkpt><trkpt lat="45.506716596182756" lon="8.963630421444057"><ele>154.33333333333334</ele><time>2026-04-18T14:21:17.003Z</time></trkpt><trkpt lat="45.50687052401976" lon="8.96363799898012"><ele>154.0</ele><time>2026-04-18T14:21:18.003Z</time></trkpt><trkpt lat="45.50702545250258" lon="8.96365063900626"><ele>154.0</ele><time>2026-04-18T14:21:19.003Z</time></trkpt><trkpt lat="45.507172673165854" lon="8.9636553943198"><ele>154.0</ele><time>2026-04-18T14:21:20.003Z</time></trkpt><trkpt lat="45.507305845956665" lon="8.963657285804777"><ele>154.0</ele><time>2026-04-18T14:21:21.003Z</time></trkpt><trkpt lat="45.50742940359992" lon="8.963658944090707"><ele>154.0</ele><time>2026-04-18T14:21:22.003Z</time></trkpt><trkpt lat="45.50754387868824" lon="8.963660064635958"><ele>154.0</ele><time>2026-04-18T14:21:23.003Z</time></trkpt><trkpt lat="45.50765298088532" lon="8.963662443503818"><ele>154.0</ele><time>2026-04-18T14:21:24.003Z</time></trkpt><trkpt lat="45.50775303093492" lon="8.96366414575222"><ele>154.0</ele><time>2026-04-18T14:21:25.003Z</time></trkpt><trkpt lat="45.507847169568485" lon="8.963665538463854"><ele>154.0</ele><time>2026-04-18T14:21:26.003Z</time></trkpt><trkpt lat="45.50793772047664" lon="8.963672653068917"><ele>154.0</ele><time>2026-04-18T14:21:27.003Z</time></trkpt><trkpt lat="45.50802990430515" lon="8.963689919579624"><ele>154.0</ele><time>2026-04-18T14:21:28.003Z</time></trkpt><trkpt lat="45.508129781870714" lon="8.963702661128222"><ele>154.0</ele><time>2026-04-18T14:21:29.003Z</time></trkpt><trkpt lat="45.50822724590589" lon="8.963670455202195"><ele>154.0</ele><time>2026-04-18T14:21:30.003Z</time></trkpt><trkpt lat="45.50831141697007" lon="8.963562895082616"><ele>154.0</ele><time>2026-04-18T14:21:31.003Z</time></trkpt><trkpt lat="45.508367762601615" lon="8.963417594648744"><ele>154.0</ele><time>2026-04-18T14:21:31.996Z</time></trkpt><trkpt lat="45.508421902227994" lon="8.963263344580445"><ele>153.75</ele><time>2026-04-18T14:21:32.996Z</time></trkpt><trkpt lat="45.50848283499391" lon="8.963114498510668"><ele>153.5</ele><time>2026-04-18T14:21:33.996Z</time></trkpt><trkpt lat="45.508624281057266" lon="8.963048920079146"><ele>153.25</ele><time>2026-04-18T14:21:34.997Z</time></trkpt><trkpt lat="45.50875214420137" lon="8.96294002283762"><ele>153.0</ele><time>2026-04-18T14:21:35.997Z</time></trkpt><trkpt lat="45.508890676251085" lon="8.962866888658876"><ele>153.0</ele><time>2026-04-18T14:21:36.997Z</time></trkpt><trkpt lat="45.509015073412996" lon="8.962803148647804"><ele>153.0</ele><time>2026-04-18T14:21:37.997Z</time></trkpt><trkpt lat="45.50913422248718" lon="8.962720981128893"><ele>153.0</ele><time>2026-04-18T14:21:38.997Z</time></trkpt><trkpt lat="45.50926035967725" lon="8.962636481978478"><ele>153.0</ele><time>2026-04-18T14:21:39.997Z</time></trkpt><trkpt lat="45.5093944342185" lon="8.962556686450593"><ele>153.66666666666666</ele><time>2026-04-18T14:21:40.998Z</time></trkpt><trkpt lat="45.509535465475075" lon="8.962487218853646"><ele>154.33333333333331</ele><time>2026-04-18T14:21:41.998Z</time></trkpt><trkpt lat="45.50967893651522" lon="8.962429471031385"><ele>155.0</ele><time>2026-04-18T14:21:42.998Z</time></trkpt><trkpt lat="45.50982753204082" lon="8.96237505634409"><ele>157.0</ele><time>2026-04-18T14:21:43.998Z</time></trkpt><trkpt lat="45.509979282066354" lon="8.962319310027977"><ele>159.0</ele><time>2026-04-18T14:21:44.998Z</time></trkpt><trkpt lat="45.510127453689954" lon="8.962269643176732"><ele>161.0</ele><time>2026-04-18T14:21:45.998Z</time></trkpt><trkpt lat="45.51026942801289" lon="8.962225968570127"><ele>160.5</ele><time>2026-04-18T14:21:46.998Z</time></trkpt><trkpt lat="45.51041544338434" lon="8.962187554769343"><ele>160.0</ele><time>2026-04-18T14:21:47.998Z</time></trkpt><trkpt lat="45.5105635453258" lon="8.96215737050964"><ele>159.5</ele><time>2026-04-18T14:21:48.998Z</time></trkpt><trkpt lat="45.510711530990704" lon="8.962132403245702"><ele>159.0</ele><time>2026-04-18T14:21:49.999Z</time></trkpt><trkpt lat="45.510860947386014" lon="8.962119883375298"><ele>159.0</ele><time>2026-04-18T14:21:50.999Z</time></trkpt><trkpt lat="45.511013770660554" lon="8.962111576057076"><ele>159.0</ele><time>2026-04-18T14:21:51.999Z</time></trkpt><trkpt lat="45.5111762254643" lon="8.962090881566338"><ele>159.0</ele><time>2026-04-18T14:21:52.999Z</time></trkpt><trkpt lat="45.51136451612437" lon="8.962062419184685"><ele>159.0</ele><time>2026-04-18T14:21:53.999Z</time></trkpt><trkpt lat="45.511587462427926" lon="8.962050378979178"><ele>159.0</ele><time>2026-04-18T14:21:54.999Z</time></trkpt><trkpt lat="45.5118286326525" lon="8.96202167308992"><ele>158.5</ele><time>2026-04-18T14:21:55.999Z</time></trkpt><trkpt lat="45.51208278143149" lon="8.961981602759748"><ele>158.0</ele><time>2026-04-18T14:21:56.999Z</time></trkpt><trkpt lat="45.51234488294388" lon="8.961960286014188"><ele>158.0</ele><time>2026-04-18T14:21:57.999Z</time></trkpt><trkpt lat="45.512616158300226" lon="8.961894613515149"><ele>158.0</ele><time>2026-04-18T14:21:58.999Z</time></trkpt><trkpt lat="45.51287910399567" lon="8.961815348561522"><ele>157.5</ele><time>2026-04-18T14:22:00Z</time></trkpt><trkpt lat="45.513116772547214" lon="8.961734840758579"><ele>157.0</ele><time>2026-04-18T14:22:01Z</time></trkpt><trkpt lat="45.51333131952382" lon="8.96165395660988"><ele>157.66666666666669</ele><time>2026-04-18T14:22:02Z</time></trkpt><trkpt lat="45.51354167423099" lon="8.96158537858961"><ele>158.33333333333334</ele><time>2026-04-18T14:22:03Z</time></trkpt><trkpt lat="45.51373820671812" lon="8.961524209099114"><ele>159.0</ele><time>2026-04-18T14:22:04Z</time></trkpt><trkpt lat="45.513923765320214" lon="8.961464993686151"><ele>159.66666666666666</ele><time>2026-04-18T14:22:05Z</time></trkpt><trkpt lat="45.514105413251166" lon="8.961407667928112"><ele>160.33333333333331</ele><time>2026-04-18T14:22:06Z</time></trkpt><trkpt lat="45.51428544717945" lon="8.961359246018494"><ele>161.0</ele><time>2026-04-18T14:22:07Z</time></trkpt><trkpt lat="45.51446790217943" lon="8.961311919512003"><ele>161.0</ele><time>2026-04-18T14:22:08Z</time></trkpt><trkpt lat="45.51464924097443" lon="8.961257204586738"><ele>161.0</ele><time>2026-04-18T14:22:09Z</time></trkpt><trkpt lat="45.51482617331123" lon="8.961220647507133"><ele>161.0</ele><time>2026-04-18T14:22:10Z</time></trkpt><trkpt lat="45.51500916651325" lon="8.96117034769056"><ele>161.0</ele><time>2026-04-18T14:22:11Z</time></trkpt><trkpt lat="45.51518553123617" lon="8.961121337901613"><ele>161.0</ele><time>2026-04-18T14:22:12Z</time></trkpt><trkpt lat="45.51536564941803" lon="8.961073521275628"><ele>161.0</ele><time>2026-04-18T14:22:13Z</time></trkpt><trkpt lat="45.51554467879088" lon="8.961025896387232"><ele>160.66666666666666</ele><time>2026-04-18T14:22:14Z</time></trkpt><trkpt lat="45.51572278654904" lon="8.960980234818395"><ele>160.33333333333334</ele><time>2026-04-18T14:22:15Z</time></trkpt><trkpt lat="45.51590201069635" lon="8.960934878997788"><ele>160.0</ele><time>2026-04-18T14:22:16.001Z</time></trkpt><trkpt lat="45.516079574264964" lon="8.960888554257322"><ele>160.0</ele><time>2026-04-18T14:22:17.001Z</time></trkpt><trkpt lat="45.51626237129882" lon="8.960850897873344"><ele>160.0</ele><time>2026-04-18T14:22:18.001Z</time></trkpt><trkpt lat="45.51644473396614" lon="8.960827034036283"><ele>160.0</ele><time>2026-04-18T14:22:19.001Z</time></trkpt><trkpt lat="45.51662773089634" lon="8.96080884311367"><ele>160.0</ele><time>2026-04-18T14:22:20.001Z</time></trkpt><trkpt lat="45.51681247253887" lon="8.960791331431787"><ele>160.0</ele><time>2026-04-18T14:22:21.001Z</time></trkpt><trkpt lat="45.51699785995271" lon="8.960767258161015"><ele>160.0</ele><time>2026-04-18T14:22:22.001Z</time></trkpt><trkpt lat="45.51718338830768" lon="8.960739251610594"><ele>160.0</ele><time>2026-04-18T14:22:23.001Z</time></trkpt><trkpt lat="45.51736823219394" lon="8.960712262673297"><ele>160.0</ele><time>2026-04-18T14:22:24.001Z</time></trkpt><trkpt lat="45.51754995304049" lon="8.960687808660952"><ele>160.0</ele><time>2026-04-18T14:22:25.001Z</time></trkpt><trkpt lat="45.517734966993515" lon="8.960660275160624"><ele>159.66666666666669</ele><time>2026-04-18T14:22:26.001Z</time></trkpt><trkpt lat="45.51792186533931" lon="8.960632943709077"><ele>159.33333333333334</ele><time>2026-04-18T14:22:27.001Z</time></trkpt><trkpt lat="45.518109451710174" lon="8.960605520178545"><ele>159.0</ele><time>2026-04-18T14:22:28.001Z</time></trkpt><trkpt lat="45.518295196853764" lon="8.960580083765414"><ele>159.0</ele><time>2026-04-18T14:22:29.001Z</time></trkpt><trkpt lat="45.518483057292194" lon="8.960551639984196"><ele>159.0</ele><time>2026-04-18T14:22:30.001Z</time></trkpt><trkpt lat="45.51866673228855" lon="8.960530453582097"><ele>159.0</ele><time>2026-04-18T14:22:31.001Z</time></trkpt><trkpt lat="45.518857013487484" lon="8.96050751862322"><ele>159.33333333333334</ele><time>2026-04-18T14:22:32.001Z</time></trkpt><trkpt lat="45.51904256118193" lon="8.960493368598213"><ele>159.66666666666669</ele><time>2026-04-18T14:22:33.001Z</time></trkpt><trkpt lat="45.519208039786044" lon="8.960485723366137"><ele>160.0</ele><time>2026-04-18T14:22:34.001Z</time></trkpt><trkpt lat="45.51936573068537" lon="8.960485448976822"><ele>160.0</ele><time>2026-04-18T14:22:35.001Z</time></trkpt><trkpt lat="45.5195323453741" lon="8.96049876652549"><ele>160.0</ele><time>2026-04-18T14:22:36.001Z</time></trkpt><trkpt lat="45.51970106123354" lon="8.960528383010184"><ele>160.0</ele><time>2026-04-18T14:22:37.001Z</time></trkpt><trkpt lat="45.519869320660604" lon="8.960588966773702"><ele>160.66666666666669</ele><time>2026-04-18T14:22:38.001Z</time></trkpt><trkpt lat="45.52003848888934" lon="8.960668046678494"><ele>161.33333333333334</ele><time>2026-04-18T14:22:39.001Z</time></trkpt><trkpt lat="45.52020299467371" lon="8.96076334275599"><ele>162.0</ele><time>2026-04-18T14:22:40.001Z</time></trkpt><trkpt lat="45.52035711741763" lon="8.960870964804915"><ele>162.0</ele><time>2026-04-18T14:22:41.001Z</time></trkpt><trkpt lat="45.52048908144051" lon="8.96098259894779"><ele>162.0</ele><time>2026-04-18T14:22:42.002Z</time></trkpt><trkpt lat="45.520609434434554" lon="8.961093811856781"><ele>162.0</ele><time>2026-04-18T14:22:43.002Z</time></trkpt><trkpt lat="45.5207106082757" lon="8.96120564214868"><ele>162.0</ele><time>2026-04-18T14:22:44.002Z</time></trkpt><trkpt lat="45.52078392899947" lon="8.961306557674884"><ele>162.0</ele><time>2026-04-18T14:22:45.002Z</time></trkpt><trkpt lat="45.520826991274134" lon="8.961397192493866"><ele>162.0</ele><time>2026-04-18T14:22:46.002Z</time></trkpt><trkpt lat="45.52084535722506" lon="8.961487933122335"><ele>162.0</ele><time>2026-04-18T14:22:47.002Z</time></trkpt><trkpt lat="45.52084492183685" lon="8.961582861146285"><ele>162.0</ele><time>2026-04-18T14:22:48.002Z</time></trkpt><trkpt lat="45.52084285283181" lon="8.961674981754387"><ele>162.0</ele><time>2026-04-18T14:22:49.002Z</time></trkpt><trkpt lat="45.520877775750215" lon="8.961767076589496"><ele>162.0</ele><time>2026-04-18T14:22:50.002Z</time></trkpt><trkpt lat="45.520945008667795" lon="8.96184232885707"><ele>162.0</ele><time>2026-04-18T14:22:51.002Z</time></trkpt><trkpt lat="45.52102472284725" lon="8.961892469058677"><ele>161.6</ele><time>2026-04-18T14:22:52.002Z</time></trkpt><trkpt lat="45.521111950494216" lon="8.961901203512918"><ele>161.2</ele><time>2026-04-18T14:22:53.002Z</time></trkpt><trkpt lat="45.52117276254854" lon="8.962046836154448"><ele>160.8</ele><time>2026-04-18T14:22:54.002Z</time></trkpt><trkpt lat="45.521227881151994" lon="8.96218102293665"><ele>160.4</ele><time>2026-04-18T14:22:55.002Z</time></trkpt><trkpt lat="45.52129016573557" lon="8.962344671228788"><ele>160.0</ele><time>2026-04-18T14:22:56.002Z</time></trkpt><trkpt lat="45.521362054134656" lon="8.962527714744951"><ele>160.33333333333334</ele><time>2026-04-18T14:22:57.002Z</time></trkpt><trkpt lat="45.52141490942285" lon="8.962748430514612"><ele>160.66666666666666</ele><time>2026-04-18T14:22:58.002Z</time></trkpt><trkpt lat="45.52149535407108" lon="8.963005217603317"><ele>161.0</ele><time>2026-04-18T14:22:59.002Z</time></trkpt><trkpt lat="45.52158452494743" lon="8.963276976333143"><ele>161.66666666666666</ele><time>2026-04-18T14:23:00.002Z</time></trkpt><trkpt lat="45.521689523850945" lon="8.96355164042196"><ele>162.33333333333334</ele><time>2026-04-18T14:23:01.002Z</time></trkpt><trkpt lat="45.52179192916453" lon="8.963828388633873"><ele>163.0</ele><time>2026-04-18T14:23:02.002Z</time></trkpt><trkpt lat="45.5219004228651" lon="8.964097980969317"><ele>163.0</ele><time>2026-04-18T14:23:03.002Z</time></trkpt><trkpt lat="45.52200920272976" lon="8.96436761711311"><ele>163.0</ele><time>2026-04-18T14:23:04.002Z</time></trkpt><trkpt lat="45.5221117106088" lon="8.964634033797129"><ele>163.0</ele><time>2026-04-18T14:23:05.002Z</time></trkpt><trkpt lat="45.52221018456365" lon="8.964897512640803"><ele>163.0</ele><time>2026-04-18T14:23:06.002Z</time></trkpt><trkpt lat="45.52230540354559" lon="8.96515401475226"><ele>163.0</ele><time>2026-04-18T14:23:07.002Z</time></trkpt><trkpt lat="45.52239317635966" lon="8.965385105494033"><ele>163.0</ele><time>2026-04-18T14:23:08.002Z</time></trkpt><trkpt lat="45.52249463575625" lon="8.965646566954298"><ele>164.0</ele><time>2026-04-18T14:23:09.002Z</time></trkpt><trkpt lat="45.52259434641796" lon="8.965895141057343"><ele>165.0</ele><time>2026-04-18T14:23:10.002Z</time></trkpt><trkpt lat="45.52268971215368" lon="8.966140958187339"><ele>166.0</ele><time>2026-04-18T14:23:11.002Z</time></trkpt><trkpt lat="45.522784982709474" lon="8.966383007049027"><ele>166.0</ele><time>2026-04-18T14:23:12.002Z</time></trkpt><trkpt lat="45.52288110196844" lon="8.966621289637278"><ele>166.0</ele><time>2026-04-18T14:23:13.002Z</time></trkpt><trkpt lat="45.522979255523225" lon="8.966854978624067"><ele>166.0</ele><time>2026-04-18T14:23:14.003Z</time></trkpt><trkpt lat="45.523088063420275" lon="8.967079592470688"><ele>165.66666666666669</ele><time>2026-04-18T14:23:15.003Z</time></trkpt><trkpt lat="45.52320263798012" lon="8.967291352546848"><ele>165.33333333333334</ele><time>2026-04-18T14:23:16.003Z</time></trkpt><trkpt lat="45.52332437346463" lon="8.96750049801529"><ele>165.0</ele><time>2026-04-18T14:23:17.003Z</time></trkpt><trkpt lat="45.523449860338836" lon="8.967700128328852"><ele>164.0</ele><time>2026-04-18T14:23:18.003Z</time></trkpt><trkpt lat="45.523583549283536" lon="8.967895860506616"><ele>163.0</ele><time>2026-04-18T14:23:19.003Z</time></trkpt><trkpt lat="45.52371939666695" lon="8.968091059609531"><ele>162.0</ele><time>2026-04-18T14:23:20.003Z</time></trkpt><trkpt lat="45.523858366946875" lon="8.968285533584643"><ele>162.0</ele><time>2026-04-18T14:23:21.003Z</time></trkpt><trkpt lat="45.52399755566976" lon="8.968490833161095"><ele>162.0</ele><time>2026-04-18T14:23:22.003Z</time></trkpt><trkpt lat="45.52412823064975" lon="8.96868169033422"><ele>162.0</ele><time>2026-04-18T14:23:23.003Z</time></trkpt><trkpt lat="45.52424799278091" lon="8.968861201112729"><ele>162.0</ele><time>2026-04-18T14:23:24.003Z</time></trkpt><trkpt lat="45.52436711029401" lon="8.969044066947843"><ele>162.0</ele><time>2026-04-18T14:23:25.003Z</time></trkpt><trkpt lat="45.524488567699066" lon="8.969228440265145"><ele>162.0</ele><time>2026-04-18T14:23:26.003Z</time></trkpt><trkpt lat="45.52461431900403" lon="8.96941582868862"><ele>161.66666666666666</ele><time>2026-04-18T14:23:27.003Z</time></trkpt><trkpt lat="45.52473980985988" lon="8.969602512531969"><ele>161.33333333333331</ele><time>2026-04-18T14:23:28.003Z</time></trkpt><trkpt lat="45.52486858191786" lon="8.969789752492048"><ele>161.0</ele><time>2026-04-18T14:23:29.003Z</time></trkpt><trkpt lat="45.52499842536448" lon="8.96997824518568"><ele>161.66666666666666</ele><time>2026-04-18T14:23:30.003Z</time></trkpt><trkpt lat="45.5251281481539" lon="8.970169352531661"><ele>162.33333333333334</ele><time>2026-04-18T14:23:31.003Z</time></trkpt><trkpt lat="45.5252569165706" lon="8.970359594549414"><ele>163.0</ele><time>2026-04-18T14:23:32.003Z</time></trkpt><trkpt lat="45.525387482080795" lon="8.970555031549429"><ele>163.0</ele><time>2026-04-18T14:23:33.003Z</time></trkpt><trkpt lat="45.52551824208246" lon="8.97074552575587"><ele>163.0</ele><time>2026-04-18T14:23:34.003Z</time></trkpt><trkpt lat="45.52564999379825" lon="8.97093671308743"><ele>163.0</ele><time>2026-04-18T14:23:35.003Z</time></trkpt><trkpt lat="45.525786112531605" lon="8.971129162089621"><ele>163.0</ele><time>2026-04-18T14:23:36.003Z</time></trkpt><trkpt lat="45.52591968164325" lon="8.971317901923477"><ele>163.0</ele><time>2026-04-18T14:23:37.003Z</time></trkpt><trkpt lat="45.52605417414161" lon="8.971506683583536"><ele>163.0</ele><time>2026-04-18T14:23:37.996Z</time></trkpt><trkpt lat="45.52618439801797" lon="8.971702071005124"><ele>163.33333333333334</ele><time>2026-04-18T14:23:38.996Z</time></trkpt><trkpt lat="45.52631471974405" lon="8.97189786114571"><ele>163.66666666666666</ele><time>2026-04-18T14:23:39.997Z</time></trkpt><trkpt lat="45.5264447794227" lon="8.972099090777117"><ele>164.0</ele><time>2026-04-18T14:23:40.997Z</time></trkpt><trkpt lat="45.52656499583595" lon="8.972318919340479"><ele>163.66666666666666</ele><time>2026-04-18T14:23:41.997Z</time></trkpt><trkpt lat="45.526681483551585" lon="8.97258096832346"><ele>163.33333333333334</ele><time>2026-04-18T14:23:42.997Z</time></trkpt><trkpt lat="45.5267818796291" lon="8.972842643477373"><ele>163.0</ele><time>2026-04-18T14:23:43.997Z</time></trkpt><trkpt lat="45.526871741845476" lon="8.973072767883263"><ele>163.0</ele><time>2026-04-18T14:23:44.997Z</time></trkpt><trkpt lat="45.52696686554764" lon="8.973278446757968"><ele>163.0</ele><time>2026-04-18T14:23:45.998Z</time></trkpt><trkpt lat="45.527065282949735" lon="8.973471697283923"><ele>163.0</ele><time>2026-04-18T14:23:46.998Z</time></trkpt><trkpt lat="45.527160859540196" lon="8.973651337738357"><ele>163.33333333333334</ele><time>2026-04-18T14:23:47.998Z</time></trkpt><trkpt lat="45.52725509735236" lon="8.973821793617274"><ele>163.66666666666666</ele><time>2026-04-18T14:23:48.998Z</time></trkpt><trkpt lat="45.52734163434113" lon="8.973985856143116"><ele>164.0</ele><time>2026-04-18T14:23:49.998Z</time></trkpt><trkpt lat="45.527437745312085" lon="8.974163145590333"><ele>164.0</ele><time>2026-04-18T14:23:50.998Z</time></trkpt><trkpt lat="45.527528603629825" lon="8.97433938347461"><ele>164.0</ele><time>2026-04-18T14:23:51.998Z</time></trkpt><trkpt lat="45.52762929455444" lon="8.974511648752792"><ele>164.0</ele><time>2026-04-18T14:23:52.998Z</time></trkpt><trkpt lat="45.52773716854366" lon="8.974684314947703"><ele>164.0</ele><time>2026-04-18T14:23:53.998Z</time></trkpt><trkpt lat="45.52784761962758" lon="8.974859380526894"><ele>164.0</ele><time>2026-04-18T14:23:54.999Z</time></trkpt><trkpt lat="45.527957211353325" lon="8.975041755065664"><ele>164.0</ele><time>2026-04-18T14:23:55.999Z</time></trkpt><trkpt lat="45.52806543088181" lon="8.975228832757207"><ele>164.33333333333331</ele><time>2026-04-18T14:23:56.999Z</time></trkpt><trkpt lat="45.528168867787684" lon="8.975409246237968"><ele>164.66666666666666</ele><time>2026-04-18T14:23:57.999Z</time></trkpt><trkpt lat="45.52827183848354" lon="8.975582356339663"><ele>165.0</ele><time>2026-04-18T14:23:58.999Z</time></trkpt><trkpt lat="45.528365456470866" lon="8.975740301764688"><ele>164.5</ele><time>2026-04-18T14:23:59.999Z</time></trkpt><trkpt lat="45.52845434359043" lon="8.97589239060042"><ele>164.0</ele><time>2026-04-18T14:24:00.999Z</time></trkpt><trkpt lat="45.52853642549114" lon="8.97603080593412"><ele>163.5</ele><time>2026-04-18T14:24:01.999Z</time></trkpt><trkpt lat="45.52860940629349" lon="8.976159170174885"><ele>163.0</ele><time>2026-04-18T14:24:02.999Z</time></trkpt><trkpt lat="45.52866804175474" lon="8.976274776341826"><ele>163.0</ele><time>2026-04-18T14:24:04Z</time></trkpt><trkpt lat="45.52871258912909" lon="8.976383758045076"><ele>163.0</ele><time>2026-04-18T14:24:05Z</time></trkpt><trkpt lat="45.52873916047322" lon="8.976488920970555"><ele>163.0</ele><time>2026-04-18T14:24:06Z</time></trkpt><trkpt lat="45.52875192040171" lon="8.976589955322025"><ele>163.0</ele><time>2026-04-18T14:24:07Z</time></trkpt><trkpt lat="45.52875089619234" lon="8.97670192351768"><ele>163.0</ele><time>2026-04-18T14:24:08Z</time></trkpt><trkpt lat="45.528739345555024" lon="8.976846338967796"><ele>163.0</ele><time>2026-04-18T14:24:09Z</time></trkpt><trkpt lat="45.528742847504546" lon="8.976995530573774"><ele>163.0</ele><time>2026-04-18T14:24:10Z</time></trkpt><trkpt lat="45.528780523705656" lon="8.97714698447214"><ele>163.0</ele><time>2026-04-18T14:24:11Z</time></trkpt><trkpt lat="45.52888753391481" lon="8.977262490416123"><ele>163.0</ele><time>2026-04-18T14:24:12Z</time></trkpt><trkpt lat="45.5290070512413" lon="8.977441018765148"><ele>163.0</ele><time>2026-04-18T14:24:13Z</time></trkpt><trkpt lat="45.529133617105686" lon="8.977597548749118"><ele>163.0</ele><time>2026-04-18T14:24:14Z</time></trkpt><trkpt lat="45.529226160643574" lon="8.977747215431544"><ele>163.0</ele><time>2026-04-18T14:24:15Z</time></trkpt><trkpt lat="45.52931315544768" lon="8.977905435168841"><ele>163.0</ele><time>2026-04-18T14:24:16Z</time></trkpt><trkpt lat="45.529393069287806" lon="8.978074595461287"><ele>163.0</ele><time>2026-04-18T14:24:17Z</time></trkpt><trkpt lat="45.52946165173" lon="8.978252290894355"><ele>163.25</ele><time>2026-04-18T14:24:18Z</time></trkpt><trkpt lat="45.52952214299821" lon="8.97843834205806"><ele>163.5</ele><time>2026-04-18T14:24:19Z</time></trkpt><trkpt lat="45.52957098613202" lon="8.978630893671063"><ele>163.75</ele><time>2026-04-18T14:24:20.001Z</time></trkpt><trkpt lat="45.52960937404409" lon="8.97883252977673"><ele>164.0</ele><time>2026-04-18T14:24:21.001Z</time></trkpt><trkpt lat="45.529642978477014" lon="8.979035679574377"><ele>164.5</ele><time>2026-04-18T14:24:22.001Z</time></trkpt><trkpt lat="45.52967357792648" lon="8.979240631004666"><ele>165.0</ele><time>2026-04-18T14:24:23.001Z</time></trkpt><trkpt lat="45.529703640002865" lon="8.979450551682657"><ele>165.5</ele><time>2026-04-18T14:24:24.001Z</time></trkpt><trkpt lat="45.52973290207479" lon="8.979660083380567"><ele>166.0</ele><time>2026-04-18T14:24:25.001Z</time></trkpt><trkpt lat="45.52976430027181" lon="8.979869260985865"><ele>165.5</ele><time>2026-04-18T14:24:26.001Z</time></trkpt><trkpt lat="45.529795821477364" lon="8.980069730315096"><ele>165.0</ele><time>2026-04-18T14:24:27.001Z</time></trkpt><trkpt lat="45.529825386779216" lon="8.980262147826362"><ele>164.5</ele><time>2026-04-18T14:24:28.001Z</time></trkpt><trkpt lat="45.529855920222204" lon="8.980460745484166"><ele>164.0</ele><time>2026-04-18T14:24:29.001Z</time></trkpt><trkpt lat="45.52988831122731" lon="8.980665107801398"><ele>163.66666666666666</ele><time>2026-04-18T14:24:30.001Z</time></trkpt><trkpt lat="45.529919436626265" lon="8.980873975415808"><ele>163.33333333333334</ele><time>2026-04-18T14:24:31.001Z</time></trkpt><trkpt lat="45.52994865282252" lon="8.981084647753663"><ele>163.0</ele><time>2026-04-18T14:24:32.001Z</time></trkpt><trkpt lat="45.52997787926021" lon="8.981297005003592"><ele>163.0</ele><time>2026-04-18T14:24:33.001Z</time></trkpt><trkpt lat="45.53000767892925" lon="8.98151534078361"><ele>163.0</ele><time>2026-04-18T14:24:34.001Z</time></trkpt><trkpt lat="45.53004366981552" lon="8.981738202619667"><ele>163.0</ele><time>2026-04-18T14:24:35.001Z</time></trkpt><trkpt lat="45.530081259884" lon="8.981966794081146"><ele>163.33333333333334</ele><time>2026-04-18T14:24:36.001Z</time></trkpt><trkpt lat="45.53011614747374" lon="8.982197706260493"><ele>163.66666666666666</ele><time>2026-04-18T14:24:37.001Z</time></trkpt><trkpt lat="45.530153854089924" lon="8.982440403133394"><ele>164.0</ele><time>2026-04-18T14:24:38.001Z</time></trkpt><trkpt lat="45.530194670765816" lon="8.982682564146696"><ele>164.0</ele><time>2026-04-18T14:24:39.001Z</time></trkpt><trkpt lat="45.53023228106328" lon="8.982935309956176"><ele>164.0</ele><time>2026-04-18T14:24:40.001Z</time></trkpt><trkpt lat="45.53027132364286" lon="8.983195509127523"><ele>164.0</ele><time>2026-04-18T14:24:41.001Z</time></trkpt><trkpt lat="45.53030830740428" lon="8.983448793233535"><ele>164.0</ele><time>2026-04-18T14:24:42.001Z</time></trkpt><trkpt lat="45.53034425245421" lon="8.983711605490193"><ele>164.0</ele><time>2026-04-18T14:24:43.001Z</time></trkpt><trkpt lat="45.53039045963286" lon="8.983971627546278"><ele>164.0</ele><time>2026-04-18T14:24:44.001Z</time></trkpt><trkpt lat="45.53042882921645" lon="8.98423341017229"><ele>164.0</ele><time>2026-04-18T14:24:45.002Z</time></trkpt><trkpt lat="45.53046380141022" lon="8.98449574015687"><ele>164.0</ele><time>2026-04-18T14:24:46.002Z</time></trkpt><trkpt lat="45.53050882843827" lon="8.98477413246257"><ele>164.0</ele><time>2026-04-18T14:24:47.002Z</time></trkpt><trkpt lat="45.53054854739196" lon="8.98504080218896"><ele>164.0</ele><time>2026-04-18T14:24:48.002Z</time></trkpt><trkpt lat="45.53059113398624" lon="8.985284590983994"><ele>164.0</ele><time>2026-04-18T14:24:49.002Z</time></trkpt><trkpt lat="45.53063424850493" lon="8.985538358015063"><ele>164.0</ele><time>2026-04-18T14:24:50.002Z</time></trkpt><trkpt lat="45.5306763472442" lon="8.985796588228725"><ele>163.33333333333331</ele><time>2026-04-18T14:24:51.002Z</time></trkpt><trkpt lat="45.53071443793228" lon="8.986040072119057"><ele>162.66666666666666</ele><time>2026-04-18T14:24:52.002Z</time></trkpt><trkpt lat="45.53075868741765" lon="8.98627012097407"><ele>162.0</ele><time>2026-04-18T14:24:53.002Z</time></trkpt><trkpt lat="45.53078549246478" lon="8.986495520291975"><ele>162.0</ele><time>2026-04-18T14:24:54.002Z</time></trkpt><trkpt lat="45.530816850525845" lon="8.986678438208493"><ele>162.0</ele><time>2026-04-18T14:24:55.002Z</time></trkpt><trkpt lat="45.530845637282944" lon="8.98686380175712"><ele>162.0</ele><time>2026-04-18T14:24:56.002Z</time></trkpt><trkpt lat="45.530877221903644" lon="8.987057321060933"><ele>162.0</ele><time>2026-04-18T14:24:57.002Z</time></trkpt><trkpt lat="45.53090908352738" lon="8.987264761911819"><ele>162.0</ele><time>2026-04-18T14:24:58.002Z</time></trkpt><trkpt lat="45.53094048566834" lon="8.987485410366824"><ele>162.0</ele><time>2026-04-18T14:24:59.002Z</time></trkpt><trkpt lat="45.53096979374106" lon="8.987688107878384"><ele>162.0</ele><time>2026-04-18T14:25:00.002Z</time></trkpt><trkpt lat="45.53100145972964" lon="8.987887029575976"><ele>162.0</ele><time>2026-04-18T14:25:01.002Z</time></trkpt><trkpt lat="45.53103440798822" lon="8.988085477452108"><ele>162.0</ele><time>2026-04-18T14:25:02.002Z</time></trkpt><trkpt lat="45.53106712706527" lon="8.988286825940394"><ele>162.0</ele><time>2026-04-18T14:25:03.002Z</time></trkpt><trkpt lat="45.53109853248949" lon="8.988485243590754"><ele>162.0</ele><time>2026-04-18T14:25:04.002Z</time></trkpt><trkpt lat="45.531127971079194" lon="8.98868402626117"><ele>162.0</ele><time>2026-04-18T14:25:05.002Z</time></trkpt><trkpt lat="45.53115784653922" lon="8.98888341495645"><ele>162.25</ele><time>2026-04-18T14:25:06.002Z</time></trkpt><trkpt lat="45.531184872608016" lon="8.989075104563561"><ele>162.5</ele><time>2026-04-18T14:25:07.002Z</time></trkpt><trkpt lat="45.53120975616163" lon="8.9892509356947"><ele>162.75</ele><time>2026-04-18T14:25:08.002Z</time></trkpt><trkpt lat="45.53123244490191" lon="8.989417763386733"><ele>163.0</ele><time>2026-04-18T14:25:09.002Z</time></trkpt><trkpt lat="45.531254876633454" lon="8.989592617335994"><ele>163.0</ele><time>2026-04-18T14:25:10.002Z</time></trkpt><trkpt lat="45.53127273011106" lon="8.989773431773509"><ele>163.0</ele><time>2026-04-18T14:25:11.002Z</time></trkpt><trkpt lat="45.53128504148105" lon="8.989957928983095"><ele>163.0</ele><time>2026-04-18T14:25:12.002Z</time></trkpt><trkpt lat="45.5312956803187" lon="8.99014854425368"><ele>163.0</ele><time>2026-04-18T14:25:13.002Z</time></trkpt><trkpt lat="45.53130295641443" lon="8.990337210652285"><ele>163.0</ele><time>2026-04-18T14:25:14.002Z</time></trkpt><trkpt lat="45.53130674957349" lon="8.990525904013948"><ele>163.0</ele><time>2026-04-18T14:25:15.002Z</time></trkpt><trkpt lat="45.53130841454892" lon="8.990695219245477"><ele>163.0</ele><time>2026-04-18T14:25:16.002Z</time></trkpt><trkpt lat="45.53130716613843" lon="8.990853576374718"><ele>163.0</ele><time>2026-04-18T14:25:17.003Z</time></trkpt><trkpt lat="45.53130346501269" lon="8.99100020814531"><ele>163.0</ele><time>2026-04-18T14:25:18.003Z</time></trkpt><trkpt lat="45.531294088086725" lon="8.991148022123163"><ele>163.0</ele><time>2026-04-18T14:25:19.003Z</time></trkpt><trkpt lat="45.531276408549765" lon="8.99130508661176"><ele>163.0</ele><time>2026-04-18T14:25:20.003Z</time></trkpt><trkpt lat="45.53124926573021" lon="8.991467660189365"><ele>163.0</ele><time>2026-04-18T14:25:21.003Z</time></trkpt><trkpt lat="45.53121142047668" lon="8.991621413997215"><ele>163.0</ele><time>2026-04-18T14:25:22.003Z</time></trkpt><trkpt lat="45.53117194710525" lon="8.991752759580594"><ele>163.16666666666669</ele><time>2026-04-18T14:25:23.003Z</time></trkpt><trkpt lat="45.531130633659885" lon="8.991875582797375"><ele>163.33333333333334</ele><time>2026-04-18T14:25:24.003Z</time></trkpt><trkpt lat="45.5310877419928" lon="8.991982325081116"><ele>163.5</ele><time>2026-04-18T14:25:25.003Z</time></trkpt><trkpt lat="45.531046177513275" lon="8.992083918545296"><ele>163.66666666666666</ele><time>2026-04-18T14:25:26.003Z</time></trkpt><trkpt lat="45.5310076927538" lon="8.992172471692033"><ele>163.83333333333331</ele><time>2026-04-18T14:25:27.003Z</time></trkpt><trkpt lat="45.53097248429276" lon="8.992250049955244"><ele>164.0</ele><time>2026-04-18T14:25:28.003Z</time></trkpt><trkpt lat="45.53092266484928" lon="8.992339882118742"><ele>164.0</ele><time>2026-04-18T14:25:29.003Z</time></trkpt><trkpt lat="45.53085490528244" lon="8.992430101563997"><ele>164.0</ele><time>2026-04-18T14:25:30.003Z</time></trkpt><trkpt lat="45.53078681491629" lon="8.99252785262631"><ele>164.0</ele><time>2026-04-18T14:25:31.003Z</time></trkpt><trkpt lat="45.530738633703294" lon="8.992651465653699"><ele>164.0</ele><time>2026-04-18T14:25:32.003Z</time></trkpt><trkpt lat="45.53072629934146" lon="8.992772597538533"><ele>164.0</ele><time>2026-04-18T14:25:33.003Z</time></trkpt><trkpt lat="45.5307334689313" lon="8.992901155333652"><ele>163.6</ele><time>2026-04-18T14:25:34.003Z</time></trkpt><trkpt lat="45.53076344040706" lon="8.993029547921182"><ele>163.2</ele><time>2026-04-18T14:25:35.003Z</time></trkpt><trkpt lat="45.53081869754078" lon="8.993117164564437"><ele>162.79999999999998</ele><time>2026-04-18T14:25:36.003Z</time></trkpt><trkpt lat="45.530894307216144" lon="8.993159388183772"><ele>162.39999999999998</ele><time>2026-04-18T14:25:37.003Z</time></trkpt><trkpt lat="45.53099644253752" lon="8.993170314004281"><ele>162.0</ele><time>2026-04-18T14:25:38.003Z</time></trkpt><trkpt lat="45.531144349416934" lon="8.993135841698027"><ele>162.5</ele><time>2026-04-18T14:25:39.003Z</time></trkpt><trkpt lat="45.53127209449681" lon="8.993070840251411"><ele>163.0</ele><time>2026-04-18T14:25:40.003Z</time></trkpt><trkpt lat="45.531373227605364" lon="8.99299956336525"><ele>163.5</ele><time>2026-04-18T14:25:41.003Z</time></trkpt><trkpt lat="45.53145457082765" lon="8.992901300570987"><ele>164.0</ele><time>2026-04-18T14:25:42.003Z</time></trkpt><trkpt lat="45.53154445259432" lon="8.992854279298882"><ele>164.0</ele><time>2026-04-18T14:25:43.003Z</time></trkpt><trkpt lat="45.531616766072915" lon="8.992792781198935"><ele>164.0</ele><time>2026-04-18T14:25:43.997Z</time></trkpt><trkpt lat="45.531684518041914" lon="8.992745330578437"><ele>164.0</ele><time>2026-04-18T14:25:44.997Z</time></trkpt><trkpt lat="45.531784747996184" lon="8.99271347528302"><ele>164.0</ele><time>2026-04-18T14:25:46.997Z</time></trkpt><trkpt lat="45.5318484287905" lon="8.992667950309004"><ele>164.0</ele><time>2026-04-18T14:26:49.001Z</time></trkpt><trkpt lat="45.531882838562304" lon="8.992584286355928"><ele>164.0</ele><time>2026-04-18T14:26:51.002Z</time></trkpt><trkpt lat="45.531841306655494" lon="8.99245211859885"><ele>164.0</ele><time>2026-04-18T14:26:52.002Z</time></trkpt><trkpt lat="45.5317944118286" lon="8.99232690587249"><ele>164.0</ele><time>2026-04-18T14:26:53.002Z</time></trkpt><trkpt lat="45.531756171056564" lon="8.992226994721605"><ele>164.0</ele><time>2026-04-18T14:26:54.002Z</time></trkpt><trkpt lat="45.53171597882215" lon="8.992083105646087"><ele>164.0</ele><time>2026-04-18T14:26:56.002Z</time></trkpt><trkpt lat="45.53168140992761" lon="8.99200133910058"><ele>164.0</ele><time>2026-04-18T14:27:00.002Z</time></trkpt></trkseg></trk></gpx>